<?xml version="1.0" encoding="UTF-8" standalone="no" ?>
<gpx xmlns="http://www.topografix.com/GPX/1/1" xmlns:xsi="http://www.w3.org/2001/XMLSchema-instance" xsi:schemaLocation="http://www.topografix.com/GPX/1/1 http://www.topografix.com/GPX/1/1/gpx.xsd" version="1.1" creator="VisuGPX - https://www.visugpx.com">
  <metadata>
    <name>trace Mn du jeudi matin</name>
    <desc><![CDATA[trace du jeudi des fêlés départ la Demoiselle]]></desc>
  </metadata>
  <trk>
    <name><![CDATA[20180913131117-cJJiD]]></name>
    <trkseg>
      <trkpt lat="48.00237" lon="6.55074">
        <ele>543</ele>
        <time>2018-09-13T05:58:10.000Z</time>
      </trkpt>
      <trkpt lat="48.00237" lon="6.55074">
        <ele>545</ele>
        <time>2018-09-13T05:58:11.000Z</time>
      </trkpt>
      <trkpt lat="48.00238" lon="6.55073">
        <ele>546</ele>
        <time>2018-09-13T05:58:12.000Z</time>
      </trkpt>
      <trkpt lat="48.00238" lon="6.55073">
        <ele>546</ele>
        <time>2018-09-13T05:58:13.000Z</time>
      </trkpt>
      <trkpt lat="48.00238" lon="6.55073">
        <ele>552</ele>
        <time>2018-09-13T05:58:14.000Z</time>
      </trkpt>
      <trkpt lat="48.00237" lon="6.55072">
        <ele>553</ele>
        <time>2018-09-13T05:58:15.000Z</time>
      </trkpt>
      <trkpt lat="48.00237" lon="6.55072">
        <ele>553</ele>
        <time>2018-09-13T05:58:16.000Z</time>
      </trkpt>
      <trkpt lat="48.00237" lon="6.55072">
        <ele>553</ele>
        <time>2018-09-13T05:58:17.000Z</time>
      </trkpt>
      <trkpt lat="48.00237" lon="6.55072">
        <ele>553</ele>
        <time>2018-09-13T05:58:18.000Z</time>
      </trkpt>
      <trkpt lat="48.00236" lon="6.55072">
        <ele>557</ele>
        <time>2018-09-13T05:58:19.000Z</time>
      </trkpt>
      <trkpt lat="48.00236" lon="6.55072">
        <ele>557</ele>
        <time>2018-09-13T05:58:20.000Z</time>
      </trkpt>
      <trkpt lat="48.00236" lon="6.55072">
        <ele>557</ele>
        <time>2018-09-13T05:58:21.000Z</time>
      </trkpt>
      <trkpt lat="48.00236" lon="6.55073">
        <ele>557</ele>
        <time>2018-09-13T05:58:22.000Z</time>
      </trkpt>
      <trkpt lat="48.00236" lon="6.55073">
        <ele>557</ele>
        <time>2018-09-13T05:58:23.000Z</time>
      </trkpt>
      <trkpt lat="48.00235" lon="6.55074">
        <ele>556</ele>
        <time>2018-09-13T05:58:24.000Z</time>
      </trkpt>
      <trkpt lat="48.00235" lon="6.55075">
        <ele>556</ele>
        <time>2018-09-13T05:58:25.000Z</time>
      </trkpt>
      <trkpt lat="48.00235" lon="6.55075">
        <ele>556</ele>
        <time>2018-09-13T05:58:26.000Z</time>
      </trkpt>
      <trkpt lat="48.00234" lon="6.55077">
        <ele>556</ele>
        <time>2018-09-13T05:58:27.000Z</time>
      </trkpt>
      <trkpt lat="48.00234" lon="6.55078">
        <ele>555</ele>
        <time>2018-09-13T05:58:28.000Z</time>
      </trkpt>
      <trkpt lat="48.00234" lon="6.5508">
        <ele>555</ele>
        <time>2018-09-13T05:58:29.000Z</time>
      </trkpt>
      <trkpt lat="48.00233" lon="6.55081">
        <ele>555</ele>
        <time>2018-09-13T05:58:30.000Z</time>
      </trkpt>
      <trkpt lat="48.00233" lon="6.55082">
        <ele>555</ele>
        <time>2018-09-13T05:58:31.000Z</time>
      </trkpt>
      <trkpt lat="48.00232" lon="6.55083">
        <ele>555</ele>
        <time>2018-09-13T05:58:32.000Z</time>
      </trkpt>
      <trkpt lat="48.00232" lon="6.55084">
        <ele>555</ele>
        <time>2018-09-13T05:58:33.000Z</time>
      </trkpt>
      <trkpt lat="48.00232" lon="6.55086">
        <ele>555</ele>
        <time>2018-09-13T05:58:34.000Z</time>
      </trkpt>
      <trkpt lat="48.00232" lon="6.55087">
        <ele>555</ele>
        <time>2018-09-13T05:58:35.000Z</time>
      </trkpt>
      <trkpt lat="48.00233" lon="6.55088">
        <ele>555</ele>
        <time>2018-09-13T05:58:36.000Z</time>
      </trkpt>
      <trkpt lat="48.00233" lon="6.5509">
        <ele>554</ele>
        <time>2018-09-13T05:58:37.000Z</time>
      </trkpt>
      <trkpt lat="48.00234" lon="6.55091">
        <ele>554</ele>
        <time>2018-09-13T05:58:38.000Z</time>
      </trkpt>
      <trkpt lat="48.00234" lon="6.55093">
        <ele>554</ele>
        <time>2018-09-13T05:58:39.000Z</time>
      </trkpt>
      <trkpt lat="48.00235" lon="6.55094">
        <ele>554</ele>
        <time>2018-09-13T05:58:40.000Z</time>
      </trkpt>
      <trkpt lat="48.00236" lon="6.55096">
        <ele>554</ele>
        <time>2018-09-13T05:58:41.000Z</time>
      </trkpt>
      <trkpt lat="48.00237" lon="6.55097">
        <ele>554</ele>
        <time>2018-09-13T05:58:42.000Z</time>
      </trkpt>
      <trkpt lat="48.00238" lon="6.55098">
        <ele>554</ele>
        <time>2018-09-13T05:58:43.000Z</time>
      </trkpt>
      <trkpt lat="48.00239" lon="6.55099">
        <ele>554</ele>
        <time>2018-09-13T05:58:44.000Z</time>
      </trkpt>
      <trkpt lat="48.0024" lon="6.551">
        <ele>553</ele>
        <time>2018-09-13T05:58:45.000Z</time>
      </trkpt>
      <trkpt lat="48.00241" lon="6.55101">
        <ele>553</ele>
        <time>2018-09-13T05:58:46.000Z</time>
      </trkpt>
      <trkpt lat="48.00242" lon="6.55103">
        <ele>553</ele>
        <time>2018-09-13T05:58:47.000Z</time>
      </trkpt>
      <trkpt lat="48.00243" lon="6.55104">
        <ele>553</ele>
        <time>2018-09-13T05:58:48.000Z</time>
      </trkpt>
      <trkpt lat="48.00244" lon="6.55106">
        <ele>553</ele>
        <time>2018-09-13T05:58:49.000Z</time>
      </trkpt>
      <trkpt lat="48.00244" lon="6.55108">
        <ele>553</ele>
        <time>2018-09-13T05:58:50.000Z</time>
      </trkpt>
      <trkpt lat="48.00244" lon="6.5511">
        <ele>553</ele>
        <time>2018-09-13T05:58:51.000Z</time>
      </trkpt>
      <trkpt lat="48.00245" lon="6.55113">
        <ele>553</ele>
        <time>2018-09-13T05:58:52.000Z</time>
      </trkpt>
      <trkpt lat="48.00245" lon="6.55115">
        <ele>552</ele>
        <time>2018-09-13T05:58:53.000Z</time>
      </trkpt>
      <trkpt lat="48.00245" lon="6.55117">
        <ele>552</ele>
        <time>2018-09-13T05:58:54.000Z</time>
      </trkpt>
      <trkpt lat="48.00244" lon="6.55119">
        <ele>552</ele>
        <time>2018-09-13T05:58:55.000Z</time>
      </trkpt>
      <trkpt lat="48.00244" lon="6.55121">
        <ele>552</ele>
        <time>2018-09-13T05:58:56.000Z</time>
      </trkpt>
      <trkpt lat="48.00244" lon="6.55123">
        <ele>552</ele>
        <time>2018-09-13T05:58:57.000Z</time>
      </trkpt>
      <trkpt lat="48.00244" lon="6.55125">
        <ele>552</ele>
        <time>2018-09-13T05:58:58.000Z</time>
      </trkpt>
      <trkpt lat="48.00244" lon="6.55127">
        <ele>552</ele>
        <time>2018-09-13T05:58:59.000Z</time>
      </trkpt>
      <trkpt lat="48.00243" lon="6.55129">
        <ele>551</ele>
        <time>2018-09-13T05:59:00.000Z</time>
      </trkpt>
      <trkpt lat="48.00243" lon="6.55131">
        <ele>551</ele>
        <time>2018-09-13T05:59:01.000Z</time>
      </trkpt>
      <trkpt lat="48.00242" lon="6.55134">
        <ele>551</ele>
        <time>2018-09-13T05:59:02.000Z</time>
      </trkpt>
      <trkpt lat="48.00242" lon="6.55136">
        <ele>551</ele>
        <time>2018-09-13T05:59:03.000Z</time>
      </trkpt>
      <trkpt lat="48.00242" lon="6.55138">
        <ele>551</ele>
        <time>2018-09-13T05:59:04.000Z</time>
      </trkpt>
      <trkpt lat="48.00241" lon="6.5514">
        <ele>551</ele>
        <time>2018-09-13T05:59:05.000Z</time>
      </trkpt>
      <trkpt lat="48.00241" lon="6.55142">
        <ele>551</ele>
        <time>2018-09-13T05:59:06.000Z</time>
      </trkpt>
      <trkpt lat="48.00241" lon="6.55144">
        <ele>551</ele>
        <time>2018-09-13T05:59:07.000Z</time>
      </trkpt>
      <trkpt lat="48.0024" lon="6.55146">
        <ele>550</ele>
        <time>2018-09-13T05:59:08.000Z</time>
      </trkpt>
      <trkpt lat="48.0024" lon="6.55148">
        <ele>550</ele>
        <time>2018-09-13T05:59:09.000Z</time>
      </trkpt>
      <trkpt lat="48.00239" lon="6.5515">
        <ele>550</ele>
        <time>2018-09-13T05:59:10.000Z</time>
      </trkpt>
      <trkpt lat="48.00239" lon="6.55153">
        <ele>550</ele>
        <time>2018-09-13T05:59:11.000Z</time>
      </trkpt>
      <trkpt lat="48.00239" lon="6.55154">
        <ele>550</ele>
        <time>2018-09-13T05:59:12.000Z</time>
      </trkpt>
      <trkpt lat="48.00238" lon="6.55156">
        <ele>550</ele>
        <time>2018-09-13T05:59:13.000Z</time>
      </trkpt>
      <trkpt lat="48.00238" lon="6.55159">
        <ele>550</ele>
        <time>2018-09-13T05:59:14.000Z</time>
      </trkpt>
      <trkpt lat="48.00238" lon="6.55161">
        <ele>550</ele>
        <time>2018-09-13T05:59:15.000Z</time>
      </trkpt>
      <trkpt lat="48.00237" lon="6.55163">
        <ele>550</ele>
        <time>2018-09-13T05:59:16.000Z</time>
      </trkpt>
      <trkpt lat="48.00237" lon="6.55165">
        <ele>550</ele>
        <time>2018-09-13T05:59:17.000Z</time>
      </trkpt>
      <trkpt lat="48.00236" lon="6.55166">
        <ele>550</ele>
        <time>2018-09-13T05:59:18.000Z</time>
      </trkpt>
      <trkpt lat="48.00236" lon="6.55168">
        <ele>550</ele>
        <time>2018-09-13T05:59:19.000Z</time>
      </trkpt>
      <trkpt lat="48.00236" lon="6.5517">
        <ele>550</ele>
        <time>2018-09-13T05:59:20.000Z</time>
      </trkpt>
      <trkpt lat="48.00235" lon="6.55172">
        <ele>550</ele>
        <time>2018-09-13T05:59:21.000Z</time>
      </trkpt>
      <trkpt lat="48.00235" lon="6.55175">
        <ele>549</ele>
        <time>2018-09-13T05:59:22.000Z</time>
      </trkpt>
      <trkpt lat="48.00235" lon="6.55176">
        <ele>549</ele>
        <time>2018-09-13T05:59:23.000Z</time>
      </trkpt>
      <trkpt lat="48.00235" lon="6.55178">
        <ele>549</ele>
        <time>2018-09-13T05:59:24.000Z</time>
      </trkpt>
      <trkpt lat="48.00236" lon="6.5518">
        <ele>549</ele>
        <time>2018-09-13T05:59:25.000Z</time>
      </trkpt>
      <trkpt lat="48.00237" lon="6.55182">
        <ele>549</ele>
        <time>2018-09-13T05:59:26.000Z</time>
      </trkpt>
      <trkpt lat="48.00237" lon="6.55183">
        <ele>549</ele>
        <time>2018-09-13T05:59:27.000Z</time>
      </trkpt>
      <trkpt lat="48.00238" lon="6.55185">
        <ele>549</ele>
        <time>2018-09-13T05:59:28.000Z</time>
      </trkpt>
      <trkpt lat="48.00239" lon="6.55186">
        <ele>549</ele>
        <time>2018-09-13T05:59:29.000Z</time>
      </trkpt>
      <trkpt lat="48.0024" lon="6.55188">
        <ele>549</ele>
        <time>2018-09-13T05:59:30.000Z</time>
      </trkpt>
      <trkpt lat="48.00241" lon="6.5519">
        <ele>549</ele>
        <time>2018-09-13T05:59:31.000Z</time>
      </trkpt>
      <trkpt lat="48.00242" lon="6.55192">
        <ele>549</ele>
        <time>2018-09-13T05:59:32.000Z</time>
      </trkpt>
      <trkpt lat="48.00243" lon="6.55193">
        <ele>549</ele>
        <time>2018-09-13T05:59:33.000Z</time>
      </trkpt>
      <trkpt lat="48.00244" lon="6.55195">
        <ele>549</ele>
        <time>2018-09-13T05:59:34.000Z</time>
      </trkpt>
      <trkpt lat="48.00245" lon="6.55196">
        <ele>549</ele>
        <time>2018-09-13T05:59:35.000Z</time>
      </trkpt>
      <trkpt lat="48.00247" lon="6.55197">
        <ele>549</ele>
        <time>2018-09-13T05:59:36.000Z</time>
      </trkpt>
      <trkpt lat="48.00248" lon="6.55198">
        <ele>549</ele>
        <time>2018-09-13T05:59:37.000Z</time>
      </trkpt>
      <trkpt lat="48.00249" lon="6.55199">
        <ele>549</ele>
        <time>2018-09-13T05:59:38.000Z</time>
      </trkpt>
      <trkpt lat="48.00251" lon="6.552">
        <ele>549</ele>
        <time>2018-09-13T05:59:39.000Z</time>
      </trkpt>
      <trkpt lat="48.00252" lon="6.55201">
        <ele>549</ele>
        <time>2018-09-13T05:59:40.000Z</time>
      </trkpt>
      <trkpt lat="48.00254" lon="6.55202">
        <ele>549</ele>
        <time>2018-09-13T05:59:41.000Z</time>
      </trkpt>
      <trkpt lat="48.00255" lon="6.55202">
        <ele>549</ele>
        <time>2018-09-13T05:59:42.000Z</time>
      </trkpt>
      <trkpt lat="48.00256" lon="6.55203">
        <ele>549</ele>
        <time>2018-09-13T05:59:43.000Z</time>
      </trkpt>
      <trkpt lat="48.00258" lon="6.55204">
        <ele>549</ele>
        <time>2018-09-13T05:59:44.000Z</time>
      </trkpt>
      <trkpt lat="48.00259" lon="6.55205">
        <ele>549</ele>
        <time>2018-09-13T05:59:45.000Z</time>
      </trkpt>
      <trkpt lat="48.0026" lon="6.55205">
        <ele>549</ele>
        <time>2018-09-13T05:59:46.000Z</time>
      </trkpt>
      <trkpt lat="48.00262" lon="6.55206">
        <ele>549</ele>
        <time>2018-09-13T05:59:47.000Z</time>
      </trkpt>
      <trkpt lat="48.00263" lon="6.55206">
        <ele>549</ele>
        <time>2018-09-13T05:59:48.000Z</time>
      </trkpt>
      <trkpt lat="48.00265" lon="6.55207">
        <ele>549</ele>
        <time>2018-09-13T05:59:49.000Z</time>
      </trkpt>
      <trkpt lat="48.00266" lon="6.55207">
        <ele>549</ele>
        <time>2018-09-13T05:59:50.000Z</time>
      </trkpt>
      <trkpt lat="48.00268" lon="6.55208">
        <ele>549</ele>
        <time>2018-09-13T05:59:51.000Z</time>
      </trkpt>
      <trkpt lat="48.00269" lon="6.55208">
        <ele>549</ele>
        <time>2018-09-13T05:59:52.000Z</time>
      </trkpt>
      <trkpt lat="48.00271" lon="6.55209">
        <ele>549</ele>
        <time>2018-09-13T05:59:53.000Z</time>
      </trkpt>
      <trkpt lat="48.00272" lon="6.5521">
        <ele>549</ele>
        <time>2018-09-13T05:59:54.000Z</time>
      </trkpt>
      <trkpt lat="48.00273" lon="6.55211">
        <ele>549</ele>
        <time>2018-09-13T05:59:55.000Z</time>
      </trkpt>
      <trkpt lat="48.00275" lon="6.55212">
        <ele>549</ele>
        <time>2018-09-13T05:59:56.000Z</time>
      </trkpt>
      <trkpt lat="48.00276" lon="6.55213">
        <ele>549</ele>
        <time>2018-09-13T05:59:57.000Z</time>
      </trkpt>
      <trkpt lat="48.00278" lon="6.55213">
        <ele>549</ele>
        <time>2018-09-13T05:59:58.000Z</time>
      </trkpt>
      <trkpt lat="48.00279" lon="6.55214">
        <ele>550</ele>
        <time>2018-09-13T05:59:59.000Z</time>
      </trkpt>
      <trkpt lat="48.0028" lon="6.55214">
        <ele>550</ele>
        <time>2018-09-13T06:00:00.000Z</time>
      </trkpt>
      <trkpt lat="48.00281" lon="6.55215">
        <ele>550</ele>
        <time>2018-09-13T06:00:01.000Z</time>
      </trkpt>
      <trkpt lat="48.00283" lon="6.55215">
        <ele>550</ele>
        <time>2018-09-13T06:00:02.000Z</time>
      </trkpt>
      <trkpt lat="48.00284" lon="6.55215">
        <ele>550</ele>
        <time>2018-09-13T06:00:03.000Z</time>
      </trkpt>
      <trkpt lat="48.00285" lon="6.55216">
        <ele>550</ele>
        <time>2018-09-13T06:00:04.000Z</time>
      </trkpt>
      <trkpt lat="48.00287" lon="6.55217">
        <ele>550</ele>
        <time>2018-09-13T06:00:05.000Z</time>
      </trkpt>
      <trkpt lat="48.00288" lon="6.55217">
        <ele>550</ele>
        <time>2018-09-13T06:00:06.000Z</time>
      </trkpt>
      <trkpt lat="48.00289" lon="6.55218">
        <ele>550</ele>
        <time>2018-09-13T06:00:07.000Z</time>
      </trkpt>
      <trkpt lat="48.0029" lon="6.55218">
        <ele>550</ele>
        <time>2018-09-13T06:00:08.000Z</time>
      </trkpt>
      <trkpt lat="48.00292" lon="6.55219">
        <ele>550</ele>
        <time>2018-09-13T06:00:09.000Z</time>
      </trkpt>
      <trkpt lat="48.00293" lon="6.55219">
        <ele>550</ele>
        <time>2018-09-13T06:00:10.000Z</time>
      </trkpt>
      <trkpt lat="48.00294" lon="6.5522">
        <ele>550</ele>
        <time>2018-09-13T06:00:11.000Z</time>
      </trkpt>
      <trkpt lat="48.00295" lon="6.55221">
        <ele>550</ele>
        <time>2018-09-13T06:00:12.000Z</time>
      </trkpt>
      <trkpt lat="48.00296" lon="6.55223">
        <ele>550</ele>
        <time>2018-09-13T06:00:13.000Z</time>
      </trkpt>
      <trkpt lat="48.00298" lon="6.55224">
        <ele>550</ele>
        <time>2018-09-13T06:00:14.000Z</time>
      </trkpt>
      <trkpt lat="48.00299" lon="6.55226">
        <ele>550</ele>
        <time>2018-09-13T06:00:15.000Z</time>
      </trkpt>
      <trkpt lat="48.00299" lon="6.55228">
        <ele>550</ele>
        <time>2018-09-13T06:00:16.000Z</time>
      </trkpt>
      <trkpt lat="48.003" lon="6.5523">
        <ele>550</ele>
        <time>2018-09-13T06:00:17.000Z</time>
      </trkpt>
      <trkpt lat="48.00301" lon="6.55233">
        <ele>550</ele>
        <time>2018-09-13T06:00:18.000Z</time>
      </trkpt>
      <trkpt lat="48.00301" lon="6.55235">
        <ele>550</ele>
        <time>2018-09-13T06:00:19.000Z</time>
      </trkpt>
      <trkpt lat="48.00301" lon="6.55237">
        <ele>549</ele>
        <time>2018-09-13T06:00:20.000Z</time>
      </trkpt>
      <trkpt lat="48.00302" lon="6.5524">
        <ele>549</ele>
        <time>2018-09-13T06:00:21.000Z</time>
      </trkpt>
      <trkpt lat="48.00302" lon="6.55242">
        <ele>549</ele>
        <time>2018-09-13T06:00:22.000Z</time>
      </trkpt>
      <trkpt lat="48.00303" lon="6.55244">
        <ele>549</ele>
        <time>2018-09-13T06:00:23.000Z</time>
      </trkpt>
      <trkpt lat="48.00303" lon="6.55247">
        <ele>549</ele>
        <time>2018-09-13T06:00:24.000Z</time>
      </trkpt>
      <trkpt lat="48.00303" lon="6.55249">
        <ele>549</ele>
        <time>2018-09-13T06:00:25.000Z</time>
      </trkpt>
      <trkpt lat="48.00303" lon="6.55252">
        <ele>549</ele>
        <time>2018-09-13T06:00:26.000Z</time>
      </trkpt>
      <trkpt lat="48.00304" lon="6.55254">
        <ele>549</ele>
        <time>2018-09-13T06:00:27.000Z</time>
      </trkpt>
      <trkpt lat="48.00305" lon="6.55256">
        <ele>548</ele>
        <time>2018-09-13T06:00:28.000Z</time>
      </trkpt>
      <trkpt lat="48.00305" lon="6.55258">
        <ele>548</ele>
        <time>2018-09-13T06:00:29.000Z</time>
      </trkpt>
      <trkpt lat="48.00306" lon="6.5526">
        <ele>548</ele>
        <time>2018-09-13T06:00:30.000Z</time>
      </trkpt>
      <trkpt lat="48.00307" lon="6.55262">
        <ele>548</ele>
        <time>2018-09-13T06:00:31.000Z</time>
      </trkpt>
      <trkpt lat="48.00308" lon="6.55264">
        <ele>548</ele>
        <time>2018-09-13T06:00:32.000Z</time>
      </trkpt>
      <trkpt lat="48.00309" lon="6.55266">
        <ele>548</ele>
        <time>2018-09-13T06:00:33.000Z</time>
      </trkpt>
      <trkpt lat="48.0031" lon="6.55268">
        <ele>548</ele>
        <time>2018-09-13T06:00:34.000Z</time>
      </trkpt>
      <trkpt lat="48.00311" lon="6.5527">
        <ele>548</ele>
        <time>2018-09-13T06:00:35.000Z</time>
      </trkpt>
      <trkpt lat="48.00312" lon="6.55272">
        <ele>548</ele>
        <time>2018-09-13T06:00:36.000Z</time>
      </trkpt>
      <trkpt lat="48.00313" lon="6.55274">
        <ele>548</ele>
        <time>2018-09-13T06:00:37.000Z</time>
      </trkpt>
      <trkpt lat="48.00314" lon="6.55275">
        <ele>548</ele>
        <time>2018-09-13T06:00:38.000Z</time>
      </trkpt>
      <trkpt lat="48.00315" lon="6.55277">
        <ele>548</ele>
        <time>2018-09-13T06:00:39.000Z</time>
      </trkpt>
      <trkpt lat="48.00316" lon="6.55279">
        <ele>548</ele>
        <time>2018-09-13T06:00:40.000Z</time>
      </trkpt>
      <trkpt lat="48.00318" lon="6.5528">
        <ele>548</ele>
        <time>2018-09-13T06:00:41.000Z</time>
      </trkpt>
      <trkpt lat="48.00319" lon="6.55282">
        <ele>548</ele>
        <time>2018-09-13T06:00:42.000Z</time>
      </trkpt>
      <trkpt lat="48.0032" lon="6.55284">
        <ele>548</ele>
        <time>2018-09-13T06:00:43.000Z</time>
      </trkpt>
      <trkpt lat="48.00321" lon="6.55285">
        <ele>548</ele>
        <time>2018-09-13T06:00:44.000Z</time>
      </trkpt>
      <trkpt lat="48.00323" lon="6.55287">
        <ele>548</ele>
        <time>2018-09-13T06:00:45.000Z</time>
      </trkpt>
      <trkpt lat="48.00324" lon="6.55289">
        <ele>548</ele>
        <time>2018-09-13T06:00:46.000Z</time>
      </trkpt>
      <trkpt lat="48.00324" lon="6.55291">
        <ele>547</ele>
        <time>2018-09-13T06:00:47.000Z</time>
      </trkpt>
      <trkpt lat="48.00325" lon="6.55293">
        <ele>547</ele>
        <time>2018-09-13T06:00:48.000Z</time>
      </trkpt>
      <trkpt lat="48.00326" lon="6.55295">
        <ele>547</ele>
        <time>2018-09-13T06:00:49.000Z</time>
      </trkpt>
      <trkpt lat="48.00326" lon="6.55297">
        <ele>547</ele>
        <time>2018-09-13T06:00:50.000Z</time>
      </trkpt>
      <trkpt lat="48.00327" lon="6.553">
        <ele>547</ele>
        <time>2018-09-13T06:00:51.000Z</time>
      </trkpt>
      <trkpt lat="48.00327" lon="6.55302">
        <ele>547</ele>
        <time>2018-09-13T06:00:52.000Z</time>
      </trkpt>
      <trkpt lat="48.00328" lon="6.55304">
        <ele>547</ele>
        <time>2018-09-13T06:00:53.000Z</time>
      </trkpt>
      <trkpt lat="48.00328" lon="6.55306">
        <ele>548</ele>
        <time>2018-09-13T06:00:54.000Z</time>
      </trkpt>
      <trkpt lat="48.00329" lon="6.55309">
        <ele>548</ele>
        <time>2018-09-13T06:00:55.000Z</time>
      </trkpt>
      <trkpt lat="48.00329" lon="6.55311">
        <ele>548</ele>
        <time>2018-09-13T06:00:56.000Z</time>
      </trkpt>
      <trkpt lat="48.0033" lon="6.55313">
        <ele>548</ele>
        <time>2018-09-13T06:00:57.000Z</time>
      </trkpt>
      <trkpt lat="48.0033" lon="6.55316">
        <ele>548</ele>
        <time>2018-09-13T06:00:58.000Z</time>
      </trkpt>
      <trkpt lat="48.00331" lon="6.55318">
        <ele>548</ele>
        <time>2018-09-13T06:00:59.000Z</time>
      </trkpt>
      <trkpt lat="48.00331" lon="6.5532">
        <ele>548</ele>
        <time>2018-09-13T06:01:00.000Z</time>
      </trkpt>
      <trkpt lat="48.00331" lon="6.55322">
        <ele>548</ele>
        <time>2018-09-13T06:01:01.000Z</time>
      </trkpt>
      <trkpt lat="48.00331" lon="6.55324">
        <ele>549</ele>
        <time>2018-09-13T06:01:02.000Z</time>
      </trkpt>
      <trkpt lat="48.00332" lon="6.55327">
        <ele>549</ele>
        <time>2018-09-13T06:01:03.000Z</time>
      </trkpt>
      <trkpt lat="48.00332" lon="6.55329">
        <ele>549</ele>
        <time>2018-09-13T06:01:04.000Z</time>
      </trkpt>
      <trkpt lat="48.00332" lon="6.55331">
        <ele>549</ele>
        <time>2018-09-13T06:01:05.000Z</time>
      </trkpt>
      <trkpt lat="48.00332" lon="6.55333">
        <ele>549</ele>
        <time>2018-09-13T06:01:06.000Z</time>
      </trkpt>
      <trkpt lat="48.00332" lon="6.55335">
        <ele>549</ele>
        <time>2018-09-13T06:01:07.000Z</time>
      </trkpt>
      <trkpt lat="48.00332" lon="6.55337">
        <ele>548</ele>
        <time>2018-09-13T06:01:08.000Z</time>
      </trkpt>
      <trkpt lat="48.00332" lon="6.55339">
        <ele>548</ele>
        <time>2018-09-13T06:01:09.000Z</time>
      </trkpt>
      <trkpt lat="48.00332" lon="6.55341">
        <ele>548</ele>
        <time>2018-09-13T06:01:10.000Z</time>
      </trkpt>
      <trkpt lat="48.00332" lon="6.55343">
        <ele>548</ele>
        <time>2018-09-13T06:01:11.000Z</time>
      </trkpt>
      <trkpt lat="48.00332" lon="6.55346">
        <ele>548</ele>
        <time>2018-09-13T06:01:12.000Z</time>
      </trkpt>
      <trkpt lat="48.00332" lon="6.55348">
        <ele>548</ele>
        <time>2018-09-13T06:01:13.000Z</time>
      </trkpt>
      <trkpt lat="48.00332" lon="6.5535">
        <ele>548</ele>
        <time>2018-09-13T06:01:14.000Z</time>
      </trkpt>
      <trkpt lat="48.00332" lon="6.55353">
        <ele>548</ele>
        <time>2018-09-13T06:01:15.000Z</time>
      </trkpt>
      <trkpt lat="48.00332" lon="6.55355">
        <ele>548</ele>
        <time>2018-09-13T06:01:16.000Z</time>
      </trkpt>
      <trkpt lat="48.00332" lon="6.55357">
        <ele>548</ele>
        <time>2018-09-13T06:01:17.000Z</time>
      </trkpt>
      <trkpt lat="48.00332" lon="6.5536">
        <ele>548</ele>
        <time>2018-09-13T06:01:18.000Z</time>
      </trkpt>
      <trkpt lat="48.00332" lon="6.55362">
        <ele>548</ele>
        <time>2018-09-13T06:01:19.000Z</time>
      </trkpt>
      <trkpt lat="48.00332" lon="6.55364">
        <ele>548</ele>
        <time>2018-09-13T06:01:20.000Z</time>
      </trkpt>
      <trkpt lat="48.00332" lon="6.55366">
        <ele>548</ele>
        <time>2018-09-13T06:01:21.000Z</time>
      </trkpt>
      <trkpt lat="48.00332" lon="6.55369">
        <ele>548</ele>
        <time>2018-09-13T06:01:22.000Z</time>
      </trkpt>
      <trkpt lat="48.00331" lon="6.55371">
        <ele>548</ele>
        <time>2018-09-13T06:01:23.000Z</time>
      </trkpt>
      <trkpt lat="48.00331" lon="6.55373">
        <ele>548</ele>
        <time>2018-09-13T06:01:24.000Z</time>
      </trkpt>
      <trkpt lat="48.00331" lon="6.55376">
        <ele>548</ele>
        <time>2018-09-13T06:01:25.000Z</time>
      </trkpt>
      <trkpt lat="48.00331" lon="6.55378">
        <ele>548</ele>
        <time>2018-09-13T06:01:26.000Z</time>
      </trkpt>
      <trkpt lat="48.00331" lon="6.5538">
        <ele>548</ele>
        <time>2018-09-13T06:01:27.000Z</time>
      </trkpt>
      <trkpt lat="48.00331" lon="6.55383">
        <ele>549</ele>
        <time>2018-09-13T06:01:28.000Z</time>
      </trkpt>
      <trkpt lat="48.0033" lon="6.55385">
        <ele>549</ele>
        <time>2018-09-13T06:01:29.000Z</time>
      </trkpt>
      <trkpt lat="48.0033" lon="6.55387">
        <ele>549</ele>
        <time>2018-09-13T06:01:30.000Z</time>
      </trkpt>
      <trkpt lat="48.0033" lon="6.5539">
        <ele>549</ele>
        <time>2018-09-13T06:01:31.000Z</time>
      </trkpt>
      <trkpt lat="48.00329" lon="6.55392">
        <ele>549</ele>
        <time>2018-09-13T06:01:32.000Z</time>
      </trkpt>
      <trkpt lat="48.00329" lon="6.55394">
        <ele>549</ele>
        <time>2018-09-13T06:01:33.000Z</time>
      </trkpt>
      <trkpt lat="48.00328" lon="6.55396">
        <ele>549</ele>
        <time>2018-09-13T06:01:34.000Z</time>
      </trkpt>
      <trkpt lat="48.00327" lon="6.55398">
        <ele>549</ele>
        <time>2018-09-13T06:01:35.000Z</time>
      </trkpt>
      <trkpt lat="48.00327" lon="6.554">
        <ele>549</ele>
        <time>2018-09-13T06:01:36.000Z</time>
      </trkpt>
      <trkpt lat="48.00326" lon="6.55403">
        <ele>549</ele>
        <time>2018-09-13T06:01:37.000Z</time>
      </trkpt>
      <trkpt lat="48.00326" lon="6.55405">
        <ele>549</ele>
        <time>2018-09-13T06:01:38.000Z</time>
      </trkpt>
      <trkpt lat="48.00325" lon="6.55407">
        <ele>549</ele>
        <time>2018-09-13T06:01:39.000Z</time>
      </trkpt>
      <trkpt lat="48.00324" lon="6.55409">
        <ele>549</ele>
        <time>2018-09-13T06:01:40.000Z</time>
      </trkpt>
      <trkpt lat="48.00323" lon="6.55411">
        <ele>549</ele>
        <time>2018-09-13T06:01:41.000Z</time>
      </trkpt>
      <trkpt lat="48.00322" lon="6.55413">
        <ele>549</ele>
        <time>2018-09-13T06:01:42.000Z</time>
      </trkpt>
      <trkpt lat="48.00322" lon="6.55415">
        <ele>549</ele>
        <time>2018-09-13T06:01:43.000Z</time>
      </trkpt>
      <trkpt lat="48.00321" lon="6.55417">
        <ele>549</ele>
        <time>2018-09-13T06:01:44.000Z</time>
      </trkpt>
      <trkpt lat="48.0032" lon="6.55418">
        <ele>549</ele>
        <time>2018-09-13T06:01:45.000Z</time>
      </trkpt>
      <trkpt lat="48.00319" lon="6.5542">
        <ele>549</ele>
        <time>2018-09-13T06:01:46.000Z</time>
      </trkpt>
      <trkpt lat="48.00318" lon="6.55422">
        <ele>549</ele>
        <time>2018-09-13T06:01:47.000Z</time>
      </trkpt>
      <trkpt lat="48.00317" lon="6.55424">
        <ele>548</ele>
        <time>2018-09-13T06:01:48.000Z</time>
      </trkpt>
      <trkpt lat="48.00317" lon="6.55426">
        <ele>548</ele>
        <time>2018-09-13T06:01:49.000Z</time>
      </trkpt>
      <trkpt lat="48.00316" lon="6.55428">
        <ele>548</ele>
        <time>2018-09-13T06:01:50.000Z</time>
      </trkpt>
      <trkpt lat="48.00315" lon="6.5543">
        <ele>548</ele>
        <time>2018-09-13T06:01:51.000Z</time>
      </trkpt>
      <trkpt lat="48.00314" lon="6.55432">
        <ele>548</ele>
        <time>2018-09-13T06:01:52.000Z</time>
      </trkpt>
      <trkpt lat="48.00313" lon="6.55434">
        <ele>548</ele>
        <time>2018-09-13T06:01:53.000Z</time>
      </trkpt>
      <trkpt lat="48.00312" lon="6.55437">
        <ele>548</ele>
        <time>2018-09-13T06:01:54.000Z</time>
      </trkpt>
      <trkpt lat="48.00311" lon="6.55439">
        <ele>549</ele>
        <time>2018-09-13T06:01:55.000Z</time>
      </trkpt>
      <trkpt lat="48.00311" lon="6.55441">
        <ele>549</ele>
        <time>2018-09-13T06:01:56.000Z</time>
      </trkpt>
      <trkpt lat="48.0031" lon="6.55443">
        <ele>549</ele>
        <time>2018-09-13T06:01:57.000Z</time>
      </trkpt>
      <trkpt lat="48.00309" lon="6.55445">
        <ele>549</ele>
        <time>2018-09-13T06:01:58.000Z</time>
      </trkpt>
      <trkpt lat="48.00308" lon="6.55446">
        <ele>549</ele>
        <time>2018-09-13T06:01:59.000Z</time>
      </trkpt>
      <trkpt lat="48.00307" lon="6.55448">
        <ele>549</ele>
        <time>2018-09-13T06:02:00.000Z</time>
      </trkpt>
      <trkpt lat="48.00306" lon="6.5545">
        <ele>549</ele>
        <time>2018-09-13T06:02:01.000Z</time>
      </trkpt>
      <trkpt lat="48.00305" lon="6.55452">
        <ele>549</ele>
        <time>2018-09-13T06:02:02.000Z</time>
      </trkpt>
      <trkpt lat="48.00304" lon="6.55454">
        <ele>549</ele>
        <time>2018-09-13T06:02:03.000Z</time>
      </trkpt>
      <trkpt lat="48.00303" lon="6.55456">
        <ele>549</ele>
        <time>2018-09-13T06:02:04.000Z</time>
      </trkpt>
      <trkpt lat="48.00302" lon="6.55458">
        <ele>549</ele>
        <time>2018-09-13T06:02:05.000Z</time>
      </trkpt>
      <trkpt lat="48.00301" lon="6.5546">
        <ele>549</ele>
        <time>2018-09-13T06:02:06.000Z</time>
      </trkpt>
      <trkpt lat="48.003" lon="6.55462">
        <ele>548</ele>
        <time>2018-09-13T06:02:07.000Z</time>
      </trkpt>
      <trkpt lat="48.00299" lon="6.55464">
        <ele>548</ele>
        <time>2018-09-13T06:02:08.000Z</time>
      </trkpt>
      <trkpt lat="48.00298" lon="6.55466">
        <ele>548</ele>
        <time>2018-09-13T06:02:09.000Z</time>
      </trkpt>
      <trkpt lat="48.00298" lon="6.55468">
        <ele>548</ele>
        <time>2018-09-13T06:02:10.000Z</time>
      </trkpt>
      <trkpt lat="48.00297" lon="6.5547">
        <ele>548</ele>
        <time>2018-09-13T06:02:11.000Z</time>
      </trkpt>
      <trkpt lat="48.00296" lon="6.55472">
        <ele>548</ele>
        <time>2018-09-13T06:02:12.000Z</time>
      </trkpt>
      <trkpt lat="48.00295" lon="6.55474">
        <ele>548</ele>
        <time>2018-09-13T06:02:13.000Z</time>
      </trkpt>
      <trkpt lat="48.00294" lon="6.55476">
        <ele>548</ele>
        <time>2018-09-13T06:02:14.000Z</time>
      </trkpt>
      <trkpt lat="48.00293" lon="6.55478">
        <ele>548</ele>
        <time>2018-09-13T06:02:15.000Z</time>
      </trkpt>
      <trkpt lat="48.00293" lon="6.5548">
        <ele>548</ele>
        <time>2018-09-13T06:02:16.000Z</time>
      </trkpt>
      <trkpt lat="48.00292" lon="6.55482">
        <ele>548</ele>
        <time>2018-09-13T06:02:17.000Z</time>
      </trkpt>
      <trkpt lat="48.00291" lon="6.55484">
        <ele>548</ele>
        <time>2018-09-13T06:02:18.000Z</time>
      </trkpt>
      <trkpt lat="48.0029" lon="6.55487">
        <ele>548</ele>
        <time>2018-09-13T06:02:19.000Z</time>
      </trkpt>
      <trkpt lat="48.0029" lon="6.55489">
        <ele>548</ele>
        <time>2018-09-13T06:02:20.000Z</time>
      </trkpt>
      <trkpt lat="48.00289" lon="6.55491">
        <ele>548</ele>
        <time>2018-09-13T06:02:21.000Z</time>
      </trkpt>
      <trkpt lat="48.00289" lon="6.55494">
        <ele>548</ele>
        <time>2018-09-13T06:02:22.000Z</time>
      </trkpt>
      <trkpt lat="48.00289" lon="6.55496">
        <ele>548</ele>
        <time>2018-09-13T06:02:23.000Z</time>
      </trkpt>
      <trkpt lat="48.00288" lon="6.55498">
        <ele>547</ele>
        <time>2018-09-13T06:02:24.000Z</time>
      </trkpt>
      <trkpt lat="48.00287" lon="6.555">
        <ele>547</ele>
        <time>2018-09-13T06:02:25.000Z</time>
      </trkpt>
      <trkpt lat="48.00287" lon="6.55503">
        <ele>547</ele>
        <time>2018-09-13T06:02:26.000Z</time>
      </trkpt>
      <trkpt lat="48.00287" lon="6.55506">
        <ele>547</ele>
        <time>2018-09-13T06:02:27.000Z</time>
      </trkpt>
      <trkpt lat="48.00287" lon="6.55508">
        <ele>547</ele>
        <time>2018-09-13T06:02:28.000Z</time>
      </trkpt>
      <trkpt lat="48.00288" lon="6.55511">
        <ele>547</ele>
        <time>2018-09-13T06:02:29.000Z</time>
      </trkpt>
      <trkpt lat="48.00288" lon="6.55513">
        <ele>547</ele>
        <time>2018-09-13T06:02:30.000Z</time>
      </trkpt>
      <trkpt lat="48.00288" lon="6.55516">
        <ele>547</ele>
        <time>2018-09-13T06:02:31.000Z</time>
      </trkpt>
      <trkpt lat="48.00288" lon="6.55518">
        <ele>547</ele>
        <time>2018-09-13T06:02:32.000Z</time>
      </trkpt>
      <trkpt lat="48.00289" lon="6.55521">
        <ele>547</ele>
        <time>2018-09-13T06:02:33.000Z</time>
      </trkpt>
      <trkpt lat="48.00289" lon="6.55523">
        <ele>547</ele>
        <time>2018-09-13T06:02:34.000Z</time>
      </trkpt>
      <trkpt lat="48.0029" lon="6.55526">
        <ele>547</ele>
        <time>2018-09-13T06:02:35.000Z</time>
      </trkpt>
      <trkpt lat="48.0029" lon="6.55528">
        <ele>547</ele>
        <time>2018-09-13T06:02:36.000Z</time>
      </trkpt>
      <trkpt lat="48.00291" lon="6.5553">
        <ele>547</ele>
        <time>2018-09-13T06:02:37.000Z</time>
      </trkpt>
      <trkpt lat="48.00292" lon="6.55532">
        <ele>547</ele>
        <time>2018-09-13T06:02:38.000Z</time>
      </trkpt>
      <trkpt lat="48.00293" lon="6.55534">
        <ele>547</ele>
        <time>2018-09-13T06:02:39.000Z</time>
      </trkpt>
      <trkpt lat="48.00293" lon="6.55536">
        <ele>547</ele>
        <time>2018-09-13T06:02:40.000Z</time>
      </trkpt>
      <trkpt lat="48.00294" lon="6.55538">
        <ele>547</ele>
        <time>2018-09-13T06:02:41.000Z</time>
      </trkpt>
      <trkpt lat="48.00294" lon="6.55541">
        <ele>547</ele>
        <time>2018-09-13T06:02:42.000Z</time>
      </trkpt>
      <trkpt lat="48.00295" lon="6.55543">
        <ele>547</ele>
        <time>2018-09-13T06:02:43.000Z</time>
      </trkpt>
      <trkpt lat="48.00295" lon="6.55545">
        <ele>547</ele>
        <time>2018-09-13T06:02:44.000Z</time>
      </trkpt>
      <trkpt lat="48.00295" lon="6.55547">
        <ele>547</ele>
        <time>2018-09-13T06:02:45.000Z</time>
      </trkpt>
      <trkpt lat="48.00296" lon="6.55549">
        <ele>547</ele>
        <time>2018-09-13T06:02:46.000Z</time>
      </trkpt>
      <trkpt lat="48.00296" lon="6.55551">
        <ele>547</ele>
        <time>2018-09-13T06:02:47.000Z</time>
      </trkpt>
      <trkpt lat="48.00297" lon="6.55553">
        <ele>547</ele>
        <time>2018-09-13T06:02:48.000Z</time>
      </trkpt>
      <trkpt lat="48.00297" lon="6.55556">
        <ele>547</ele>
        <time>2018-09-13T06:02:49.000Z</time>
      </trkpt>
      <trkpt lat="48.00298" lon="6.55558">
        <ele>547</ele>
        <time>2018-09-13T06:02:50.000Z</time>
      </trkpt>
      <trkpt lat="48.00298" lon="6.5556">
        <ele>547</ele>
        <time>2018-09-13T06:02:51.000Z</time>
      </trkpt>
      <trkpt lat="48.00299" lon="6.55562">
        <ele>547</ele>
        <time>2018-09-13T06:02:52.000Z</time>
      </trkpt>
      <trkpt lat="48.00299" lon="6.55564">
        <ele>547</ele>
        <time>2018-09-13T06:02:53.000Z</time>
      </trkpt>
      <trkpt lat="48.003" lon="6.55566">
        <ele>548</ele>
        <time>2018-09-13T06:02:54.000Z</time>
      </trkpt>
      <trkpt lat="48.003" lon="6.55568">
        <ele>548</ele>
        <time>2018-09-13T06:02:55.000Z</time>
      </trkpt>
      <trkpt lat="48.00301" lon="6.5557">
        <ele>548</ele>
        <time>2018-09-13T06:02:56.000Z</time>
      </trkpt>
      <trkpt lat="48.00301" lon="6.55572">
        <ele>548</ele>
        <time>2018-09-13T06:02:57.000Z</time>
      </trkpt>
      <trkpt lat="48.00302" lon="6.55574">
        <ele>548</ele>
        <time>2018-09-13T06:02:58.000Z</time>
      </trkpt>
      <trkpt lat="48.00303" lon="6.55575">
        <ele>548</ele>
        <time>2018-09-13T06:02:59.000Z</time>
      </trkpt>
      <trkpt lat="48.00303" lon="6.55577">
        <ele>548</ele>
        <time>2018-09-13T06:03:00.000Z</time>
      </trkpt>
      <trkpt lat="48.00304" lon="6.55579">
        <ele>548</ele>
        <time>2018-09-13T06:03:01.000Z</time>
      </trkpt>
      <trkpt lat="48.00305" lon="6.55581">
        <ele>548</ele>
        <time>2018-09-13T06:03:02.000Z</time>
      </trkpt>
      <trkpt lat="48.00305" lon="6.55583">
        <ele>548</ele>
        <time>2018-09-13T06:03:03.000Z</time>
      </trkpt>
      <trkpt lat="48.00306" lon="6.55585">
        <ele>548</ele>
        <time>2018-09-13T06:03:04.000Z</time>
      </trkpt>
      <trkpt lat="48.00307" lon="6.55587">
        <ele>548</ele>
        <time>2018-09-13T06:03:05.000Z</time>
      </trkpt>
      <trkpt lat="48.00308" lon="6.55589">
        <ele>548</ele>
        <time>2018-09-13T06:03:06.000Z</time>
      </trkpt>
      <trkpt lat="48.00308" lon="6.55591">
        <ele>548</ele>
        <time>2018-09-13T06:03:07.000Z</time>
      </trkpt>
      <trkpt lat="48.00309" lon="6.55593">
        <ele>548</ele>
        <time>2018-09-13T06:03:08.000Z</time>
      </trkpt>
      <trkpt lat="48.00309" lon="6.55594">
        <ele>548</ele>
        <time>2018-09-13T06:03:09.000Z</time>
      </trkpt>
      <trkpt lat="48.00309" lon="6.55595">
        <ele>548</ele>
        <time>2018-09-13T06:03:10.000Z</time>
      </trkpt>
      <trkpt lat="48.0031" lon="6.55596">
        <ele>548</ele>
        <time>2018-09-13T06:03:11.000Z</time>
      </trkpt>
      <trkpt lat="48.0031" lon="6.55598">
        <ele>548</ele>
        <time>2018-09-13T06:03:12.000Z</time>
      </trkpt>
      <trkpt lat="48.0031" lon="6.55599">
        <ele>548</ele>
        <time>2018-09-13T06:03:13.000Z</time>
      </trkpt>
      <trkpt lat="48.0031" lon="6.556">
        <ele>548</ele>
        <time>2018-09-13T06:03:14.000Z</time>
      </trkpt>
      <trkpt lat="48.00309" lon="6.55601">
        <ele>548</ele>
        <time>2018-09-13T06:03:15.000Z</time>
      </trkpt>
      <trkpt lat="48.00309" lon="6.55602">
        <ele>548</ele>
        <time>2018-09-13T06:03:16.000Z</time>
      </trkpt>
      <trkpt lat="48.00308" lon="6.55602">
        <ele>549</ele>
        <time>2018-09-13T06:03:17.000Z</time>
      </trkpt>
      <trkpt lat="48.00307" lon="6.55603">
        <ele>549</ele>
        <time>2018-09-13T06:03:18.000Z</time>
      </trkpt>
      <trkpt lat="48.00307" lon="6.55603">
        <ele>549</ele>
        <time>2018-09-13T06:03:19.000Z</time>
      </trkpt>
      <trkpt lat="48.00306" lon="6.55604">
        <ele>549</ele>
        <time>2018-09-13T06:03:20.000Z</time>
      </trkpt>
      <trkpt lat="48.00306" lon="6.55605">
        <ele>549</ele>
        <time>2018-09-13T06:03:21.000Z</time>
      </trkpt>
      <trkpt lat="48.00305" lon="6.55606">
        <ele>549</ele>
        <time>2018-09-13T06:03:22.000Z</time>
      </trkpt>
      <trkpt lat="48.00304" lon="6.55607">
        <ele>549</ele>
        <time>2018-09-13T06:03:23.000Z</time>
      </trkpt>
      <trkpt lat="48.00304" lon="6.55607">
        <ele>549</ele>
        <time>2018-09-13T06:03:24.000Z</time>
      </trkpt>
      <trkpt lat="48.00303" lon="6.55608">
        <ele>549</ele>
        <time>2018-09-13T06:03:25.000Z</time>
      </trkpt>
      <trkpt lat="48.00303" lon="6.55609">
        <ele>549</ele>
        <time>2018-09-13T06:03:26.000Z</time>
      </trkpt>
      <trkpt lat="48.00302" lon="6.55611">
        <ele>549</ele>
        <time>2018-09-13T06:03:27.000Z</time>
      </trkpt>
      <trkpt lat="48.00301" lon="6.55612">
        <ele>550</ele>
        <time>2018-09-13T06:03:28.000Z</time>
      </trkpt>
      <trkpt lat="48.00301" lon="6.55613">
        <ele>550</ele>
        <time>2018-09-13T06:03:29.000Z</time>
      </trkpt>
      <trkpt lat="48.003" lon="6.55615">
        <ele>550</ele>
        <time>2018-09-13T06:03:30.000Z</time>
      </trkpt>
      <trkpt lat="48.003" lon="6.55616">
        <ele>550</ele>
        <time>2018-09-13T06:03:31.000Z</time>
      </trkpt>
      <trkpt lat="48.00299" lon="6.55617">
        <ele>550</ele>
        <time>2018-09-13T06:03:32.000Z</time>
      </trkpt>
      <trkpt lat="48.00298" lon="6.55617">
        <ele>550</ele>
        <time>2018-09-13T06:03:33.000Z</time>
      </trkpt>
      <trkpt lat="48.00297" lon="6.55617">
        <ele>550</ele>
        <time>2018-09-13T06:03:34.000Z</time>
      </trkpt>
      <trkpt lat="48.00296" lon="6.55617">
        <ele>550</ele>
        <time>2018-09-13T06:03:35.000Z</time>
      </trkpt>
      <trkpt lat="48.00295" lon="6.55616">
        <ele>550</ele>
        <time>2018-09-13T06:03:36.000Z</time>
      </trkpt>
      <trkpt lat="48.00294" lon="6.55615">
        <ele>551</ele>
        <time>2018-09-13T06:03:37.000Z</time>
      </trkpt>
      <trkpt lat="48.00293" lon="6.55614">
        <ele>551</ele>
        <time>2018-09-13T06:03:38.000Z</time>
      </trkpt>
      <trkpt lat="48.00292" lon="6.55613">
        <ele>551</ele>
        <time>2018-09-13T06:03:39.000Z</time>
      </trkpt>
      <trkpt lat="48.00291" lon="6.55611">
        <ele>551</ele>
        <time>2018-09-13T06:03:40.000Z</time>
      </trkpt>
      <trkpt lat="48.0029" lon="6.5561">
        <ele>551</ele>
        <time>2018-09-13T06:03:41.000Z</time>
      </trkpt>
      <trkpt lat="48.0029" lon="6.55608">
        <ele>551</ele>
        <time>2018-09-13T06:03:42.000Z</time>
      </trkpt>
      <trkpt lat="48.0029" lon="6.55607">
        <ele>551</ele>
        <time>2018-09-13T06:03:43.000Z</time>
      </trkpt>
      <trkpt lat="48.00289" lon="6.55605">
        <ele>551</ele>
        <time>2018-09-13T06:03:44.000Z</time>
      </trkpt>
      <trkpt lat="48.00289" lon="6.55604">
        <ele>552</ele>
        <time>2018-09-13T06:03:45.000Z</time>
      </trkpt>
      <trkpt lat="48.00288" lon="6.55603">
        <ele>552</ele>
        <time>2018-09-13T06:03:46.000Z</time>
      </trkpt>
      <trkpt lat="48.00288" lon="6.55601">
        <ele>552</ele>
        <time>2018-09-13T06:03:47.000Z</time>
      </trkpt>
      <trkpt lat="48.00287" lon="6.556">
        <ele>552</ele>
        <time>2018-09-13T06:03:48.000Z</time>
      </trkpt>
      <trkpt lat="48.00286" lon="6.55598">
        <ele>552</ele>
        <time>2018-09-13T06:03:49.000Z</time>
      </trkpt>
      <trkpt lat="48.00285" lon="6.55596">
        <ele>552</ele>
        <time>2018-09-13T06:03:50.000Z</time>
      </trkpt>
      <trkpt lat="48.00284" lon="6.55594">
        <ele>552</ele>
        <time>2018-09-13T06:03:51.000Z</time>
      </trkpt>
      <trkpt lat="48.00283" lon="6.55592">
        <ele>552</ele>
        <time>2018-09-13T06:03:52.000Z</time>
      </trkpt>
      <trkpt lat="48.00282" lon="6.5559">
        <ele>552</ele>
        <time>2018-09-13T06:03:53.000Z</time>
      </trkpt>
      <trkpt lat="48.00281" lon="6.55589">
        <ele>553</ele>
        <time>2018-09-13T06:03:54.000Z</time>
      </trkpt>
      <trkpt lat="48.0028" lon="6.55587">
        <ele>553</ele>
        <time>2018-09-13T06:03:55.000Z</time>
      </trkpt>
      <trkpt lat="48.00279" lon="6.55585">
        <ele>553</ele>
        <time>2018-09-13T06:03:56.000Z</time>
      </trkpt>
      <trkpt lat="48.00278" lon="6.55584">
        <ele>553</ele>
        <time>2018-09-13T06:03:57.000Z</time>
      </trkpt>
      <trkpt lat="48.00277" lon="6.55583">
        <ele>553</ele>
        <time>2018-09-13T06:03:58.000Z</time>
      </trkpt>
      <trkpt lat="48.00276" lon="6.55582">
        <ele>553</ele>
        <time>2018-09-13T06:03:59.000Z</time>
      </trkpt>
      <trkpt lat="48.00275" lon="6.55581">
        <ele>554</ele>
        <time>2018-09-13T06:04:00.000Z</time>
      </trkpt>
      <trkpt lat="48.00274" lon="6.5558">
        <ele>554</ele>
        <time>2018-09-13T06:04:01.000Z</time>
      </trkpt>
      <trkpt lat="48.00273" lon="6.55578">
        <ele>554</ele>
        <time>2018-09-13T06:04:02.000Z</time>
      </trkpt>
      <trkpt lat="48.00272" lon="6.55576">
        <ele>554</ele>
        <time>2018-09-13T06:04:03.000Z</time>
      </trkpt>
      <trkpt lat="48.0027" lon="6.55574">
        <ele>554</ele>
        <time>2018-09-13T06:04:04.000Z</time>
      </trkpt>
      <trkpt lat="48.00269" lon="6.55572">
        <ele>554</ele>
        <time>2018-09-13T06:04:05.000Z</time>
      </trkpt>
      <trkpt lat="48.00268" lon="6.5557">
        <ele>555</ele>
        <time>2018-09-13T06:04:06.000Z</time>
      </trkpt>
      <trkpt lat="48.00267" lon="6.55568">
        <ele>555</ele>
        <time>2018-09-13T06:04:07.000Z</time>
      </trkpt>
      <trkpt lat="48.00266" lon="6.55566">
        <ele>555</ele>
        <time>2018-09-13T06:04:08.000Z</time>
      </trkpt>
      <trkpt lat="48.00265" lon="6.55564">
        <ele>555</ele>
        <time>2018-09-13T06:04:09.000Z</time>
      </trkpt>
      <trkpt lat="48.00264" lon="6.55563">
        <ele>555</ele>
        <time>2018-09-13T06:04:10.000Z</time>
      </trkpt>
      <trkpt lat="48.00262" lon="6.55562">
        <ele>555</ele>
        <time>2018-09-13T06:04:11.000Z</time>
      </trkpt>
      <trkpt lat="48.00261" lon="6.55561">
        <ele>556</ele>
        <time>2018-09-13T06:04:12.000Z</time>
      </trkpt>
      <trkpt lat="48.0026" lon="6.5556">
        <ele>556</ele>
        <time>2018-09-13T06:04:13.000Z</time>
      </trkpt>
      <trkpt lat="48.00258" lon="6.55559">
        <ele>556</ele>
        <time>2018-09-13T06:04:14.000Z</time>
      </trkpt>
      <trkpt lat="48.00257" lon="6.55557">
        <ele>556</ele>
        <time>2018-09-13T06:04:15.000Z</time>
      </trkpt>
      <trkpt lat="48.00256" lon="6.55556">
        <ele>556</ele>
        <time>2018-09-13T06:04:16.000Z</time>
      </trkpt>
      <trkpt lat="48.00254" lon="6.55555">
        <ele>557</ele>
        <time>2018-09-13T06:04:17.000Z</time>
      </trkpt>
      <trkpt lat="48.00253" lon="6.55554">
        <ele>557</ele>
        <time>2018-09-13T06:04:18.000Z</time>
      </trkpt>
      <trkpt lat="48.00252" lon="6.55553">
        <ele>557</ele>
        <time>2018-09-13T06:04:19.000Z</time>
      </trkpt>
      <trkpt lat="48.00251" lon="6.55552">
        <ele>557</ele>
        <time>2018-09-13T06:04:20.000Z</time>
      </trkpt>
      <trkpt lat="48.0025" lon="6.55551">
        <ele>557</ele>
        <time>2018-09-13T06:04:21.000Z</time>
      </trkpt>
      <trkpt lat="48.00248" lon="6.5555">
        <ele>557</ele>
        <time>2018-09-13T06:04:22.000Z</time>
      </trkpt>
      <trkpt lat="48.00247" lon="6.55549">
        <ele>557</ele>
        <time>2018-09-13T06:04:23.000Z</time>
      </trkpt>
      <trkpt lat="48.00246" lon="6.55548">
        <ele>558</ele>
        <time>2018-09-13T06:04:24.000Z</time>
      </trkpt>
      <trkpt lat="48.00245" lon="6.55547">
        <ele>558</ele>
        <time>2018-09-13T06:04:25.000Z</time>
      </trkpt>
      <trkpt lat="48.00243" lon="6.55545">
        <ele>558</ele>
        <time>2018-09-13T06:04:26.000Z</time>
      </trkpt>
      <trkpt lat="48.00242" lon="6.55544">
        <ele>558</ele>
        <time>2018-09-13T06:04:27.000Z</time>
      </trkpt>
      <trkpt lat="48.00241" lon="6.55542">
        <ele>558</ele>
        <time>2018-09-13T06:04:28.000Z</time>
      </trkpt>
      <trkpt lat="48.00241" lon="6.55541">
        <ele>558</ele>
        <time>2018-09-13T06:04:29.000Z</time>
      </trkpt>
      <trkpt lat="48.0024" lon="6.55539">
        <ele>558</ele>
        <time>2018-09-13T06:04:30.000Z</time>
      </trkpt>
      <trkpt lat="48.00238" lon="6.55538">
        <ele>558</ele>
        <time>2018-09-13T06:04:31.000Z</time>
      </trkpt>
      <trkpt lat="48.00237" lon="6.55536">
        <ele>558</ele>
        <time>2018-09-13T06:04:32.000Z</time>
      </trkpt>
      <trkpt lat="48.00235" lon="6.55534">
        <ele>559</ele>
        <time>2018-09-13T06:04:33.000Z</time>
      </trkpt>
      <trkpt lat="48.00234" lon="6.55533">
        <ele>559</ele>
        <time>2018-09-13T06:04:34.000Z</time>
      </trkpt>
      <trkpt lat="48.00232" lon="6.55531">
        <ele>559</ele>
        <time>2018-09-13T06:04:35.000Z</time>
      </trkpt>
      <trkpt lat="48.00231" lon="6.5553">
        <ele>559</ele>
        <time>2018-09-13T06:04:36.000Z</time>
      </trkpt>
      <trkpt lat="48.00229" lon="6.55529">
        <ele>559</ele>
        <time>2018-09-13T06:04:37.000Z</time>
      </trkpt>
      <trkpt lat="48.00228" lon="6.55528">
        <ele>559</ele>
        <time>2018-09-13T06:04:38.000Z</time>
      </trkpt>
      <trkpt lat="48.00227" lon="6.55527">
        <ele>559</ele>
        <time>2018-09-13T06:04:39.000Z</time>
      </trkpt>
      <trkpt lat="48.00225" lon="6.55526">
        <ele>560</ele>
        <time>2018-09-13T06:04:40.000Z</time>
      </trkpt>
      <trkpt lat="48.00224" lon="6.55525">
        <ele>560</ele>
        <time>2018-09-13T06:04:41.000Z</time>
      </trkpt>
      <trkpt lat="48.00223" lon="6.55524">
        <ele>560</ele>
        <time>2018-09-13T06:04:42.000Z</time>
      </trkpt>
      <trkpt lat="48.00221" lon="6.55523">
        <ele>560</ele>
        <time>2018-09-13T06:04:43.000Z</time>
      </trkpt>
      <trkpt lat="48.0022" lon="6.55522">
        <ele>560</ele>
        <time>2018-09-13T06:04:44.000Z</time>
      </trkpt>
      <trkpt lat="48.00218" lon="6.55522">
        <ele>560</ele>
        <time>2018-09-13T06:04:45.000Z</time>
      </trkpt>
      <trkpt lat="48.00216" lon="6.55521">
        <ele>560</ele>
        <time>2018-09-13T06:04:46.000Z</time>
      </trkpt>
      <trkpt lat="48.00215" lon="6.55521">
        <ele>561</ele>
        <time>2018-09-13T06:04:47.000Z</time>
      </trkpt>
      <trkpt lat="48.00213" lon="6.55521">
        <ele>561</ele>
        <time>2018-09-13T06:04:48.000Z</time>
      </trkpt>
      <trkpt lat="48.00212" lon="6.55521">
        <ele>561</ele>
        <time>2018-09-13T06:04:49.000Z</time>
      </trkpt>
      <trkpt lat="48.0021" lon="6.5552">
        <ele>561</ele>
        <time>2018-09-13T06:04:50.000Z</time>
      </trkpt>
      <trkpt lat="48.00208" lon="6.5552">
        <ele>561</ele>
        <time>2018-09-13T06:04:51.000Z</time>
      </trkpt>
      <trkpt lat="48.00207" lon="6.5552">
        <ele>562</ele>
        <time>2018-09-13T06:04:52.000Z</time>
      </trkpt>
      <trkpt lat="48.00205" lon="6.5552">
        <ele>562</ele>
        <time>2018-09-13T06:04:53.000Z</time>
      </trkpt>
      <trkpt lat="48.00204" lon="6.5552">
        <ele>563</ele>
        <time>2018-09-13T06:04:54.000Z</time>
      </trkpt>
      <trkpt lat="48.00203" lon="6.55521">
        <ele>563</ele>
        <time>2018-09-13T06:04:55.000Z</time>
      </trkpt>
      <trkpt lat="48.00201" lon="6.55521">
        <ele>564</ele>
        <time>2018-09-13T06:04:56.000Z</time>
      </trkpt>
      <trkpt lat="48.002" lon="6.55521">
        <ele>564</ele>
        <time>2018-09-13T06:04:57.000Z</time>
      </trkpt>
      <trkpt lat="48.00199" lon="6.55521">
        <ele>564</ele>
        <time>2018-09-13T06:04:58.000Z</time>
      </trkpt>
      <trkpt lat="48.00198" lon="6.55522">
        <ele>565</ele>
        <time>2018-09-13T06:04:59.000Z</time>
      </trkpt>
      <trkpt lat="48.00197" lon="6.55523">
        <ele>565</ele>
        <time>2018-09-13T06:05:00.000Z</time>
      </trkpt>
      <trkpt lat="48.00196" lon="6.55524">
        <ele>565</ele>
        <time>2018-09-13T06:05:01.000Z</time>
      </trkpt>
      <trkpt lat="48.00195" lon="6.55525">
        <ele>566</ele>
        <time>2018-09-13T06:05:02.000Z</time>
      </trkpt>
      <trkpt lat="48.00193" lon="6.55527">
        <ele>566</ele>
        <time>2018-09-13T06:05:03.000Z</time>
      </trkpt>
      <trkpt lat="48.00192" lon="6.55528">
        <ele>566</ele>
        <time>2018-09-13T06:05:04.000Z</time>
      </trkpt>
      <trkpt lat="48.0019" lon="6.55529">
        <ele>567</ele>
        <time>2018-09-13T06:05:05.000Z</time>
      </trkpt>
      <trkpt lat="48.00189" lon="6.5553">
        <ele>567</ele>
        <time>2018-09-13T06:05:06.000Z</time>
      </trkpt>
      <trkpt lat="48.00188" lon="6.55531">
        <ele>567</ele>
        <time>2018-09-13T06:05:07.000Z</time>
      </trkpt>
      <trkpt lat="48.00187" lon="6.55533">
        <ele>568</ele>
        <time>2018-09-13T06:05:08.000Z</time>
      </trkpt>
      <trkpt lat="48.00186" lon="6.55535">
        <ele>568</ele>
        <time>2018-09-13T06:05:09.000Z</time>
      </trkpt>
      <trkpt lat="48.00185" lon="6.55536">
        <ele>568</ele>
        <time>2018-09-13T06:05:10.000Z</time>
      </trkpt>
      <trkpt lat="48.00183" lon="6.55538">
        <ele>568</ele>
        <time>2018-09-13T06:05:11.000Z</time>
      </trkpt>
      <trkpt lat="48.00182" lon="6.55539">
        <ele>568</ele>
        <time>2018-09-13T06:05:12.000Z</time>
      </trkpt>
      <trkpt lat="48.0018" lon="6.55541">
        <ele>569</ele>
        <time>2018-09-13T06:05:13.000Z</time>
      </trkpt>
      <trkpt lat="48.00179" lon="6.55543">
        <ele>569</ele>
        <time>2018-09-13T06:05:14.000Z</time>
      </trkpt>
      <trkpt lat="48.00177" lon="6.55545">
        <ele>569</ele>
        <time>2018-09-13T06:05:15.000Z</time>
      </trkpt>
      <trkpt lat="48.00175" lon="6.55547">
        <ele>569</ele>
        <time>2018-09-13T06:05:16.000Z</time>
      </trkpt>
      <trkpt lat="48.00174" lon="6.55549">
        <ele>569</ele>
        <time>2018-09-13T06:05:17.000Z</time>
      </trkpt>
      <trkpt lat="48.00173" lon="6.55551">
        <ele>569</ele>
        <time>2018-09-13T06:05:18.000Z</time>
      </trkpt>
      <trkpt lat="48.00172" lon="6.55552">
        <ele>569</ele>
        <time>2018-09-13T06:05:19.000Z</time>
      </trkpt>
      <trkpt lat="48.00171" lon="6.55554">
        <ele>569</ele>
        <time>2018-09-13T06:05:20.000Z</time>
      </trkpt>
      <trkpt lat="48.00169" lon="6.55556">
        <ele>570</ele>
        <time>2018-09-13T06:05:21.000Z</time>
      </trkpt>
      <trkpt lat="48.00168" lon="6.55558">
        <ele>570</ele>
        <time>2018-09-13T06:05:22.000Z</time>
      </trkpt>
      <trkpt lat="48.00167" lon="6.55559">
        <ele>570</ele>
        <time>2018-09-13T06:05:23.000Z</time>
      </trkpt>
      <trkpt lat="48.00166" lon="6.55561">
        <ele>570</ele>
        <time>2018-09-13T06:05:24.000Z</time>
      </trkpt>
      <trkpt lat="48.00165" lon="6.55563">
        <ele>570</ele>
        <time>2018-09-13T06:05:25.000Z</time>
      </trkpt>
      <trkpt lat="48.00164" lon="6.55564">
        <ele>570</ele>
        <time>2018-09-13T06:05:26.000Z</time>
      </trkpt>
      <trkpt lat="48.00163" lon="6.55566">
        <ele>570</ele>
        <time>2018-09-13T06:05:27.000Z</time>
      </trkpt>
      <trkpt lat="48.00162" lon="6.55567">
        <ele>570</ele>
        <time>2018-09-13T06:05:28.000Z</time>
      </trkpt>
      <trkpt lat="48.00161" lon="6.55569">
        <ele>570</ele>
        <time>2018-09-13T06:05:29.000Z</time>
      </trkpt>
      <trkpt lat="48.0016" lon="6.55571">
        <ele>570</ele>
        <time>2018-09-13T06:05:30.000Z</time>
      </trkpt>
      <trkpt lat="48.00159" lon="6.55574">
        <ele>570</ele>
        <time>2018-09-13T06:05:31.000Z</time>
      </trkpt>
      <trkpt lat="48.00157" lon="6.55576">
        <ele>570</ele>
        <time>2018-09-13T06:05:32.000Z</time>
      </trkpt>
      <trkpt lat="48.00155" lon="6.55577">
        <ele>570</ele>
        <time>2018-09-13T06:05:33.000Z</time>
      </trkpt>
      <trkpt lat="48.00154" lon="6.55579">
        <ele>570</ele>
        <time>2018-09-13T06:05:34.000Z</time>
      </trkpt>
      <trkpt lat="48.00153" lon="6.5558">
        <ele>570</ele>
        <time>2018-09-13T06:05:35.000Z</time>
      </trkpt>
      <trkpt lat="48.00151" lon="6.55581">
        <ele>570</ele>
        <time>2018-09-13T06:05:36.000Z</time>
      </trkpt>
      <trkpt lat="48.0015" lon="6.55583">
        <ele>571</ele>
        <time>2018-09-13T06:05:37.000Z</time>
      </trkpt>
      <trkpt lat="48.00149" lon="6.55584">
        <ele>571</ele>
        <time>2018-09-13T06:05:38.000Z</time>
      </trkpt>
      <trkpt lat="48.00148" lon="6.55585">
        <ele>571</ele>
        <time>2018-09-13T06:05:39.000Z</time>
      </trkpt>
      <trkpt lat="48.00147" lon="6.55587">
        <ele>571</ele>
        <time>2018-09-13T06:05:40.000Z</time>
      </trkpt>
      <trkpt lat="48.00146" lon="6.55589">
        <ele>571</ele>
        <time>2018-09-13T06:05:41.000Z</time>
      </trkpt>
      <trkpt lat="48.00144" lon="6.55591">
        <ele>571</ele>
        <time>2018-09-13T06:05:42.000Z</time>
      </trkpt>
      <trkpt lat="48.00143" lon="6.55593">
        <ele>571</ele>
        <time>2018-09-13T06:05:43.000Z</time>
      </trkpt>
      <trkpt lat="48.00142" lon="6.55595">
        <ele>571</ele>
        <time>2018-09-13T06:05:44.000Z</time>
      </trkpt>
      <trkpt lat="48.00141" lon="6.55597">
        <ele>571</ele>
        <time>2018-09-13T06:05:45.000Z</time>
      </trkpt>
      <trkpt lat="48.0014" lon="6.55599">
        <ele>571</ele>
        <time>2018-09-13T06:05:46.000Z</time>
      </trkpt>
      <trkpt lat="48.00139" lon="6.55601">
        <ele>571</ele>
        <time>2018-09-13T06:05:47.000Z</time>
      </trkpt>
      <trkpt lat="48.00138" lon="6.55603">
        <ele>571</ele>
        <time>2018-09-13T06:05:48.000Z</time>
      </trkpt>
      <trkpt lat="48.00136" lon="6.55605">
        <ele>571</ele>
        <time>2018-09-13T06:05:49.000Z</time>
      </trkpt>
      <trkpt lat="48.00135" lon="6.55607">
        <ele>571</ele>
        <time>2018-09-13T06:05:50.000Z</time>
      </trkpt>
      <trkpt lat="48.00134" lon="6.55609">
        <ele>572</ele>
        <time>2018-09-13T06:05:51.000Z</time>
      </trkpt>
      <trkpt lat="48.00133" lon="6.55611">
        <ele>572</ele>
        <time>2018-09-13T06:05:52.000Z</time>
      </trkpt>
      <trkpt lat="48.00131" lon="6.55613">
        <ele>572</ele>
        <time>2018-09-13T06:05:53.000Z</time>
      </trkpt>
      <trkpt lat="48.0013" lon="6.55614">
        <ele>572</ele>
        <time>2018-09-13T06:05:54.000Z</time>
      </trkpt>
      <trkpt lat="48.00129" lon="6.55616">
        <ele>572</ele>
        <time>2018-09-13T06:05:55.000Z</time>
      </trkpt>
      <trkpt lat="48.00127" lon="6.55618">
        <ele>572</ele>
        <time>2018-09-13T06:05:56.000Z</time>
      </trkpt>
      <trkpt lat="48.00126" lon="6.55619">
        <ele>572</ele>
        <time>2018-09-13T06:05:57.000Z</time>
      </trkpt>
      <trkpt lat="48.00125" lon="6.55621">
        <ele>572</ele>
        <time>2018-09-13T06:05:58.000Z</time>
      </trkpt>
      <trkpt lat="48.00124" lon="6.55623">
        <ele>572</ele>
        <time>2018-09-13T06:05:59.000Z</time>
      </trkpt>
      <trkpt lat="48.00123" lon="6.55624">
        <ele>572</ele>
        <time>2018-09-13T06:06:00.000Z</time>
      </trkpt>
      <trkpt lat="48.00122" lon="6.55626">
        <ele>572</ele>
        <time>2018-09-13T06:06:01.000Z</time>
      </trkpt>
      <trkpt lat="48.00121" lon="6.55628">
        <ele>572</ele>
        <time>2018-09-13T06:06:02.000Z</time>
      </trkpt>
      <trkpt lat="48.0012" lon="6.55629">
        <ele>572</ele>
        <time>2018-09-13T06:06:03.000Z</time>
      </trkpt>
      <trkpt lat="48.00118" lon="6.55631">
        <ele>572</ele>
        <time>2018-09-13T06:06:04.000Z</time>
      </trkpt>
      <trkpt lat="48.00116" lon="6.55632">
        <ele>572</ele>
        <time>2018-09-13T06:06:05.000Z</time>
      </trkpt>
      <trkpt lat="48.00115" lon="6.55633">
        <ele>572</ele>
        <time>2018-09-13T06:06:06.000Z</time>
      </trkpt>
      <trkpt lat="48.00114" lon="6.55635">
        <ele>572</ele>
        <time>2018-09-13T06:06:07.000Z</time>
      </trkpt>
      <trkpt lat="48.00112" lon="6.55636">
        <ele>572</ele>
        <time>2018-09-13T06:06:08.000Z</time>
      </trkpt>
      <trkpt lat="48.00111" lon="6.55638">
        <ele>572</ele>
        <time>2018-09-13T06:06:09.000Z</time>
      </trkpt>
      <trkpt lat="48.00109" lon="6.55639">
        <ele>572</ele>
        <time>2018-09-13T06:06:10.000Z</time>
      </trkpt>
      <trkpt lat="48.00108" lon="6.55641">
        <ele>572</ele>
        <time>2018-09-13T06:06:11.000Z</time>
      </trkpt>
      <trkpt lat="48.00107" lon="6.55642">
        <ele>572</ele>
        <time>2018-09-13T06:06:12.000Z</time>
      </trkpt>
      <trkpt lat="48.00105" lon="6.55644">
        <ele>572</ele>
        <time>2018-09-13T06:06:13.000Z</time>
      </trkpt>
      <trkpt lat="48.00104" lon="6.55646">
        <ele>572</ele>
        <time>2018-09-13T06:06:14.000Z</time>
      </trkpt>
      <trkpt lat="48.00102" lon="6.55648">
        <ele>572</ele>
        <time>2018-09-13T06:06:15.000Z</time>
      </trkpt>
      <trkpt lat="48.00101" lon="6.5565">
        <ele>572</ele>
        <time>2018-09-13T06:06:16.000Z</time>
      </trkpt>
      <trkpt lat="48.001" lon="6.55652">
        <ele>572</ele>
        <time>2018-09-13T06:06:17.000Z</time>
      </trkpt>
      <trkpt lat="48.00099" lon="6.55654">
        <ele>572</ele>
        <time>2018-09-13T06:06:18.000Z</time>
      </trkpt>
      <trkpt lat="48.00097" lon="6.55656">
        <ele>572</ele>
        <time>2018-09-13T06:06:19.000Z</time>
      </trkpt>
      <trkpt lat="48.00096" lon="6.55658">
        <ele>572</ele>
        <time>2018-09-13T06:06:20.000Z</time>
      </trkpt>
      <trkpt lat="48.00095" lon="6.55659">
        <ele>572</ele>
        <time>2018-09-13T06:06:21.000Z</time>
      </trkpt>
      <trkpt lat="48.00094" lon="6.55661">
        <ele>572</ele>
        <time>2018-09-13T06:06:22.000Z</time>
      </trkpt>
      <trkpt lat="48.00093" lon="6.55663">
        <ele>572</ele>
        <time>2018-09-13T06:06:23.000Z</time>
      </trkpt>
      <trkpt lat="48.00092" lon="6.55664">
        <ele>572</ele>
        <time>2018-09-13T06:06:24.000Z</time>
      </trkpt>
      <trkpt lat="48.00091" lon="6.55666">
        <ele>572</ele>
        <time>2018-09-13T06:06:25.000Z</time>
      </trkpt>
      <trkpt lat="48.0009" lon="6.55669">
        <ele>572</ele>
        <time>2018-09-13T06:06:26.000Z</time>
      </trkpt>
      <trkpt lat="48.00089" lon="6.55671">
        <ele>572</ele>
        <time>2018-09-13T06:06:27.000Z</time>
      </trkpt>
      <trkpt lat="48.00088" lon="6.55673">
        <ele>572</ele>
        <time>2018-09-13T06:06:28.000Z</time>
      </trkpt>
      <trkpt lat="48.00087" lon="6.55675">
        <ele>572</ele>
        <time>2018-09-13T06:06:29.000Z</time>
      </trkpt>
      <trkpt lat="48.00086" lon="6.55677">
        <ele>572</ele>
        <time>2018-09-13T06:06:30.000Z</time>
      </trkpt>
      <trkpt lat="48.00085" lon="6.55679">
        <ele>572</ele>
        <time>2018-09-13T06:06:31.000Z</time>
      </trkpt>
      <trkpt lat="48.00085" lon="6.55682">
        <ele>572</ele>
        <time>2018-09-13T06:06:32.000Z</time>
      </trkpt>
      <trkpt lat="48.00084" lon="6.55684">
        <ele>572</ele>
        <time>2018-09-13T06:06:33.000Z</time>
      </trkpt>
      <trkpt lat="48.00084" lon="6.55686">
        <ele>572</ele>
        <time>2018-09-13T06:06:34.000Z</time>
      </trkpt>
      <trkpt lat="48.00083" lon="6.55687">
        <ele>572</ele>
        <time>2018-09-13T06:06:35.000Z</time>
      </trkpt>
      <trkpt lat="48.00083" lon="6.55689">
        <ele>572</ele>
        <time>2018-09-13T06:06:36.000Z</time>
      </trkpt>
      <trkpt lat="48.00083" lon="6.55692">
        <ele>572</ele>
        <time>2018-09-13T06:06:37.000Z</time>
      </trkpt>
      <trkpt lat="48.00083" lon="6.55694">
        <ele>572</ele>
        <time>2018-09-13T06:06:38.000Z</time>
      </trkpt>
      <trkpt lat="48.00082" lon="6.55696">
        <ele>572</ele>
        <time>2018-09-13T06:06:39.000Z</time>
      </trkpt>
      <trkpt lat="48.00082" lon="6.55699">
        <ele>572</ele>
        <time>2018-09-13T06:06:40.000Z</time>
      </trkpt>
      <trkpt lat="48.00081" lon="6.55701">
        <ele>572</ele>
        <time>2018-09-13T06:06:41.000Z</time>
      </trkpt>
      <trkpt lat="48.00081" lon="6.55704">
        <ele>572</ele>
        <time>2018-09-13T06:06:42.000Z</time>
      </trkpt>
      <trkpt lat="48.00081" lon="6.55706">
        <ele>572</ele>
        <time>2018-09-13T06:06:43.000Z</time>
      </trkpt>
      <trkpt lat="48.0008" lon="6.55709">
        <ele>572</ele>
        <time>2018-09-13T06:06:44.000Z</time>
      </trkpt>
      <trkpt lat="48.0008" lon="6.55711">
        <ele>572</ele>
        <time>2018-09-13T06:06:45.000Z</time>
      </trkpt>
      <trkpt lat="48.0008" lon="6.55713">
        <ele>572</ele>
        <time>2018-09-13T06:06:46.000Z</time>
      </trkpt>
      <trkpt lat="48.00079" lon="6.55716">
        <ele>572</ele>
        <time>2018-09-13T06:06:47.000Z</time>
      </trkpt>
      <trkpt lat="48.00079" lon="6.55718">
        <ele>571</ele>
        <time>2018-09-13T06:06:48.000Z</time>
      </trkpt>
      <trkpt lat="48.00079" lon="6.5572">
        <ele>571</ele>
        <time>2018-09-13T06:06:49.000Z</time>
      </trkpt>
      <trkpt lat="48.00079" lon="6.55723">
        <ele>571</ele>
        <time>2018-09-13T06:06:50.000Z</time>
      </trkpt>
      <trkpt lat="48.00079" lon="6.55725">
        <ele>571</ele>
        <time>2018-09-13T06:06:51.000Z</time>
      </trkpt>
      <trkpt lat="48.00078" lon="6.55727">
        <ele>571</ele>
        <time>2018-09-13T06:06:52.000Z</time>
      </trkpt>
      <trkpt lat="48.00077" lon="6.5573">
        <ele>571</ele>
        <time>2018-09-13T06:06:53.000Z</time>
      </trkpt>
      <trkpt lat="48.00077" lon="6.55732">
        <ele>571</ele>
        <time>2018-09-13T06:06:54.000Z</time>
      </trkpt>
      <trkpt lat="48.00076" lon="6.55735">
        <ele>571</ele>
        <time>2018-09-13T06:06:55.000Z</time>
      </trkpt>
      <trkpt lat="48.00076" lon="6.55738">
        <ele>571</ele>
        <time>2018-09-13T06:06:56.000Z</time>
      </trkpt>
      <trkpt lat="48.00076" lon="6.5574">
        <ele>571</ele>
        <time>2018-09-13T06:06:57.000Z</time>
      </trkpt>
      <trkpt lat="48.00076" lon="6.55743">
        <ele>571</ele>
        <time>2018-09-13T06:06:58.000Z</time>
      </trkpt>
      <trkpt lat="48.00076" lon="6.55745">
        <ele>571</ele>
        <time>2018-09-13T06:06:59.000Z</time>
      </trkpt>
      <trkpt lat="48.00076" lon="6.55748">
        <ele>571</ele>
        <time>2018-09-13T06:07:00.000Z</time>
      </trkpt>
      <trkpt lat="48.00077" lon="6.55751">
        <ele>571</ele>
        <time>2018-09-13T06:07:01.000Z</time>
      </trkpt>
      <trkpt lat="48.00077" lon="6.55753">
        <ele>571</ele>
        <time>2018-09-13T06:07:02.000Z</time>
      </trkpt>
      <trkpt lat="48.00077" lon="6.55755">
        <ele>571</ele>
        <time>2018-09-13T06:07:03.000Z</time>
      </trkpt>
      <trkpt lat="48.00077" lon="6.55757">
        <ele>571</ele>
        <time>2018-09-13T06:07:04.000Z</time>
      </trkpt>
      <trkpt lat="48.00078" lon="6.55758">
        <ele>571</ele>
        <time>2018-09-13T06:07:05.000Z</time>
      </trkpt>
      <trkpt lat="48.00078" lon="6.55761">
        <ele>571</ele>
        <time>2018-09-13T06:07:06.000Z</time>
      </trkpt>
      <trkpt lat="48.00078" lon="6.55763">
        <ele>571</ele>
        <time>2018-09-13T06:07:07.000Z</time>
      </trkpt>
      <trkpt lat="48.00078" lon="6.55765">
        <ele>571</ele>
        <time>2018-09-13T06:07:08.000Z</time>
      </trkpt>
      <trkpt lat="48.00079" lon="6.55768">
        <ele>571</ele>
        <time>2018-09-13T06:07:09.000Z</time>
      </trkpt>
      <trkpt lat="48.00079" lon="6.5577">
        <ele>572</ele>
        <time>2018-09-13T06:07:10.000Z</time>
      </trkpt>
      <trkpt lat="48.00079" lon="6.55773">
        <ele>572</ele>
        <time>2018-09-13T06:07:11.000Z</time>
      </trkpt>
      <trkpt lat="48.00079" lon="6.55775">
        <ele>572</ele>
        <time>2018-09-13T06:07:12.000Z</time>
      </trkpt>
      <trkpt lat="48.00078" lon="6.55778">
        <ele>572</ele>
        <time>2018-09-13T06:07:13.000Z</time>
      </trkpt>
      <trkpt lat="48.00078" lon="6.5578">
        <ele>571</ele>
        <time>2018-09-13T06:07:14.000Z</time>
      </trkpt>
      <trkpt lat="48.00078" lon="6.55783">
        <ele>571</ele>
        <time>2018-09-13T06:07:15.000Z</time>
      </trkpt>
      <trkpt lat="48.00078" lon="6.55786">
        <ele>571</ele>
        <time>2018-09-13T06:07:16.000Z</time>
      </trkpt>
      <trkpt lat="48.00078" lon="6.55789">
        <ele>571</ele>
        <time>2018-09-13T06:07:17.000Z</time>
      </trkpt>
      <trkpt lat="48.00078" lon="6.55791">
        <ele>571</ele>
        <time>2018-09-13T06:07:18.000Z</time>
      </trkpt>
      <trkpt lat="48.00078" lon="6.55794">
        <ele>571</ele>
        <time>2018-09-13T06:07:19.000Z</time>
      </trkpt>
      <trkpt lat="48.00078" lon="6.55797">
        <ele>571</ele>
        <time>2018-09-13T06:07:20.000Z</time>
      </trkpt>
      <trkpt lat="48.00077" lon="6.55799">
        <ele>571</ele>
        <time>2018-09-13T06:07:21.000Z</time>
      </trkpt>
      <trkpt lat="48.00077" lon="6.55801">
        <ele>571</ele>
        <time>2018-09-13T06:07:22.000Z</time>
      </trkpt>
      <trkpt lat="48.00077" lon="6.55804">
        <ele>571</ele>
        <time>2018-09-13T06:07:23.000Z</time>
      </trkpt>
      <trkpt lat="48.00077" lon="6.55806">
        <ele>571</ele>
        <time>2018-09-13T06:07:24.000Z</time>
      </trkpt>
      <trkpt lat="48.00077" lon="6.55808">
        <ele>571</ele>
        <time>2018-09-13T06:07:25.000Z</time>
      </trkpt>
      <trkpt lat="48.00078" lon="6.55811">
        <ele>571</ele>
        <time>2018-09-13T06:07:26.000Z</time>
      </trkpt>
      <trkpt lat="48.00078" lon="6.55813">
        <ele>571</ele>
        <time>2018-09-13T06:07:27.000Z</time>
      </trkpt>
      <trkpt lat="48.00078" lon="6.55815">
        <ele>572</ele>
        <time>2018-09-13T06:07:28.000Z</time>
      </trkpt>
      <trkpt lat="48.00079" lon="6.55817">
        <ele>572</ele>
        <time>2018-09-13T06:07:29.000Z</time>
      </trkpt>
      <trkpt lat="48.00079" lon="6.5582">
        <ele>572</ele>
        <time>2018-09-13T06:07:30.000Z</time>
      </trkpt>
      <trkpt lat="48.00079" lon="6.55822">
        <ele>572</ele>
        <time>2018-09-13T06:07:31.000Z</time>
      </trkpt>
      <trkpt lat="48.00078" lon="6.55824">
        <ele>572</ele>
        <time>2018-09-13T06:07:32.000Z</time>
      </trkpt>
      <trkpt lat="48.00078" lon="6.55827">
        <ele>572</ele>
        <time>2018-09-13T06:07:33.000Z</time>
      </trkpt>
      <trkpt lat="48.00078" lon="6.5583">
        <ele>572</ele>
        <time>2018-09-13T06:07:34.000Z</time>
      </trkpt>
      <trkpt lat="48.00077" lon="6.55832">
        <ele>572</ele>
        <time>2018-09-13T06:07:35.000Z</time>
      </trkpt>
      <trkpt lat="48.00077" lon="6.55834">
        <ele>572</ele>
        <time>2018-09-13T06:07:36.000Z</time>
      </trkpt>
      <trkpt lat="48.00077" lon="6.55836">
        <ele>573</ele>
        <time>2018-09-13T06:07:37.000Z</time>
      </trkpt>
      <trkpt lat="48.00077" lon="6.55838">
        <ele>573</ele>
        <time>2018-09-13T06:07:38.000Z</time>
      </trkpt>
      <trkpt lat="48.00077" lon="6.5584">
        <ele>573</ele>
        <time>2018-09-13T06:07:39.000Z</time>
      </trkpt>
      <trkpt lat="48.00077" lon="6.55843">
        <ele>573</ele>
        <time>2018-09-13T06:07:40.000Z</time>
      </trkpt>
      <trkpt lat="48.00077" lon="6.55846">
        <ele>573</ele>
        <time>2018-09-13T06:07:41.000Z</time>
      </trkpt>
      <trkpt lat="48.00077" lon="6.55849">
        <ele>573</ele>
        <time>2018-09-13T06:07:42.000Z</time>
      </trkpt>
      <trkpt lat="48.00077" lon="6.55852">
        <ele>573</ele>
        <time>2018-09-13T06:07:43.000Z</time>
      </trkpt>
      <trkpt lat="48.00076" lon="6.55855">
        <ele>573</ele>
        <time>2018-09-13T06:07:44.000Z</time>
      </trkpt>
      <trkpt lat="48.00076" lon="6.55858">
        <ele>573</ele>
        <time>2018-09-13T06:07:45.000Z</time>
      </trkpt>
      <trkpt lat="48.00076" lon="6.55861">
        <ele>573</ele>
        <time>2018-09-13T06:07:46.000Z</time>
      </trkpt>
      <trkpt lat="48.00075" lon="6.55864">
        <ele>573</ele>
        <time>2018-09-13T06:07:47.000Z</time>
      </trkpt>
      <trkpt lat="48.00075" lon="6.55867">
        <ele>573</ele>
        <time>2018-09-13T06:07:48.000Z</time>
      </trkpt>
      <trkpt lat="48.00075" lon="6.5587">
        <ele>573</ele>
        <time>2018-09-13T06:07:49.000Z</time>
      </trkpt>
      <trkpt lat="48.00075" lon="6.55873">
        <ele>573</ele>
        <time>2018-09-13T06:07:50.000Z</time>
      </trkpt>
      <trkpt lat="48.00075" lon="6.55876">
        <ele>573</ele>
        <time>2018-09-13T06:07:51.000Z</time>
      </trkpt>
      <trkpt lat="48.00075" lon="6.5588">
        <ele>573</ele>
        <time>2018-09-13T06:07:52.000Z</time>
      </trkpt>
      <trkpt lat="48.00075" lon="6.55883">
        <ele>574</ele>
        <time>2018-09-13T06:07:53.000Z</time>
      </trkpt>
      <trkpt lat="48.00075" lon="6.55886">
        <ele>574</ele>
        <time>2018-09-13T06:07:54.000Z</time>
      </trkpt>
      <trkpt lat="48.00075" lon="6.55889">
        <ele>574</ele>
        <time>2018-09-13T06:07:55.000Z</time>
      </trkpt>
      <trkpt lat="48.00075" lon="6.55892">
        <ele>574</ele>
        <time>2018-09-13T06:07:56.000Z</time>
      </trkpt>
      <trkpt lat="48.00075" lon="6.55894">
        <ele>574</ele>
        <time>2018-09-13T06:07:57.000Z</time>
      </trkpt>
      <trkpt lat="48.00075" lon="6.55897">
        <ele>575</ele>
        <time>2018-09-13T06:07:58.000Z</time>
      </trkpt>
      <trkpt lat="48.00075" lon="6.55899">
        <ele>575</ele>
        <time>2018-09-13T06:07:59.000Z</time>
      </trkpt>
      <trkpt lat="48.00075" lon="6.55902">
        <ele>575</ele>
        <time>2018-09-13T06:08:00.000Z</time>
      </trkpt>
      <trkpt lat="48.00075" lon="6.55904">
        <ele>575</ele>
        <time>2018-09-13T06:08:01.000Z</time>
      </trkpt>
      <trkpt lat="48.00075" lon="6.55907">
        <ele>575</ele>
        <time>2018-09-13T06:08:02.000Z</time>
      </trkpt>
      <trkpt lat="48.00075" lon="6.55909">
        <ele>576</ele>
        <time>2018-09-13T06:08:03.000Z</time>
      </trkpt>
      <trkpt lat="48.00075" lon="6.55911">
        <ele>576</ele>
        <time>2018-09-13T06:08:04.000Z</time>
      </trkpt>
      <trkpt lat="48.00075" lon="6.55913">
        <ele>576</ele>
        <time>2018-09-13T06:08:05.000Z</time>
      </trkpt>
      <trkpt lat="48.00075" lon="6.55916">
        <ele>576</ele>
        <time>2018-09-13T06:08:06.000Z</time>
      </trkpt>
      <trkpt lat="48.00076" lon="6.55918">
        <ele>576</ele>
        <time>2018-09-13T06:08:07.000Z</time>
      </trkpt>
      <trkpt lat="48.00076" lon="6.55921">
        <ele>576</ele>
        <time>2018-09-13T06:08:08.000Z</time>
      </trkpt>
      <trkpt lat="48.00076" lon="6.55923">
        <ele>576</ele>
        <time>2018-09-13T06:08:09.000Z</time>
      </trkpt>
      <trkpt lat="48.00076" lon="6.55926">
        <ele>577</ele>
        <time>2018-09-13T06:08:10.000Z</time>
      </trkpt>
      <trkpt lat="48.00076" lon="6.55928">
        <ele>577</ele>
        <time>2018-09-13T06:08:11.000Z</time>
      </trkpt>
      <trkpt lat="48.00076" lon="6.55931">
        <ele>577</ele>
        <time>2018-09-13T06:08:12.000Z</time>
      </trkpt>
      <trkpt lat="48.00075" lon="6.55934">
        <ele>577</ele>
        <time>2018-09-13T06:08:13.000Z</time>
      </trkpt>
      <trkpt lat="48.00075" lon="6.55936">
        <ele>577</ele>
        <time>2018-09-13T06:08:14.000Z</time>
      </trkpt>
      <trkpt lat="48.00075" lon="6.55938">
        <ele>577</ele>
        <time>2018-09-13T06:08:15.000Z</time>
      </trkpt>
      <trkpt lat="48.00075" lon="6.55941">
        <ele>577</ele>
        <time>2018-09-13T06:08:16.000Z</time>
      </trkpt>
      <trkpt lat="48.00074" lon="6.55944">
        <ele>578</ele>
        <time>2018-09-13T06:08:17.000Z</time>
      </trkpt>
      <trkpt lat="48.00074" lon="6.55947">
        <ele>578</ele>
        <time>2018-09-13T06:08:18.000Z</time>
      </trkpt>
      <trkpt lat="48.00073" lon="6.5595">
        <ele>578</ele>
        <time>2018-09-13T06:08:19.000Z</time>
      </trkpt>
      <trkpt lat="48.00073" lon="6.55954">
        <ele>578</ele>
        <time>2018-09-13T06:08:20.000Z</time>
      </trkpt>
      <trkpt lat="48.00072" lon="6.55957">
        <ele>578</ele>
        <time>2018-09-13T06:08:21.000Z</time>
      </trkpt>
      <trkpt lat="48.00072" lon="6.5596">
        <ele>578</ele>
        <time>2018-09-13T06:08:22.000Z</time>
      </trkpt>
      <trkpt lat="48.00072" lon="6.55964">
        <ele>578</ele>
        <time>2018-09-13T06:08:23.000Z</time>
      </trkpt>
      <trkpt lat="48.00072" lon="6.55966">
        <ele>578</ele>
        <time>2018-09-13T06:08:24.000Z</time>
      </trkpt>
      <trkpt lat="48.00071" lon="6.55969">
        <ele>578</ele>
        <time>2018-09-13T06:08:25.000Z</time>
      </trkpt>
      <trkpt lat="48.00071" lon="6.55971">
        <ele>578</ele>
        <time>2018-09-13T06:08:26.000Z</time>
      </trkpt>
      <trkpt lat="48.00071" lon="6.55974">
        <ele>579</ele>
        <time>2018-09-13T06:08:27.000Z</time>
      </trkpt>
      <trkpt lat="48.00071" lon="6.55977">
        <ele>579</ele>
        <time>2018-09-13T06:08:28.000Z</time>
      </trkpt>
      <trkpt lat="48.0007" lon="6.5598">
        <ele>579</ele>
        <time>2018-09-13T06:08:29.000Z</time>
      </trkpt>
      <trkpt lat="48.00069" lon="6.55982">
        <ele>579</ele>
        <time>2018-09-13T06:08:30.000Z</time>
      </trkpt>
      <trkpt lat="48.00069" lon="6.55985">
        <ele>579</ele>
        <time>2018-09-13T06:08:31.000Z</time>
      </trkpt>
      <trkpt lat="48.00068" lon="6.55988">
        <ele>579</ele>
        <time>2018-09-13T06:08:32.000Z</time>
      </trkpt>
      <trkpt lat="48.00068" lon="6.5599">
        <ele>579</ele>
        <time>2018-09-13T06:08:33.000Z</time>
      </trkpt>
      <trkpt lat="48.00068" lon="6.55993">
        <ele>579</ele>
        <time>2018-09-13T06:08:34.000Z</time>
      </trkpt>
      <trkpt lat="48.00068" lon="6.55996">
        <ele>579</ele>
        <time>2018-09-13T06:08:35.000Z</time>
      </trkpt>
      <trkpt lat="48.00068" lon="6.55999">
        <ele>579</ele>
        <time>2018-09-13T06:08:36.000Z</time>
      </trkpt>
      <trkpt lat="48.00067" lon="6.56002">
        <ele>579</ele>
        <time>2018-09-13T06:08:37.000Z</time>
      </trkpt>
      <trkpt lat="48.00067" lon="6.56005">
        <ele>579</ele>
        <time>2018-09-13T06:08:38.000Z</time>
      </trkpt>
      <trkpt lat="48.00066" lon="6.56007">
        <ele>579</ele>
        <time>2018-09-13T06:08:39.000Z</time>
      </trkpt>
      <trkpt lat="48.00066" lon="6.5601">
        <ele>579</ele>
        <time>2018-09-13T06:08:40.000Z</time>
      </trkpt>
      <trkpt lat="48.00066" lon="6.56012">
        <ele>579</ele>
        <time>2018-09-13T06:08:41.000Z</time>
      </trkpt>
      <trkpt lat="48.00066" lon="6.56014">
        <ele>579</ele>
        <time>2018-09-13T06:08:42.000Z</time>
      </trkpt>
      <trkpt lat="48.00066" lon="6.56017">
        <ele>580</ele>
        <time>2018-09-13T06:08:43.000Z</time>
      </trkpt>
      <trkpt lat="48.00066" lon="6.5602">
        <ele>580</ele>
        <time>2018-09-13T06:08:44.000Z</time>
      </trkpt>
      <trkpt lat="48.00066" lon="6.56022">
        <ele>580</ele>
        <time>2018-09-13T06:08:45.000Z</time>
      </trkpt>
      <trkpt lat="48.00066" lon="6.56025">
        <ele>580</ele>
        <time>2018-09-13T06:08:46.000Z</time>
      </trkpt>
      <trkpt lat="48.00067" lon="6.56028">
        <ele>580</ele>
        <time>2018-09-13T06:08:47.000Z</time>
      </trkpt>
      <trkpt lat="48.00067" lon="6.56031">
        <ele>580</ele>
        <time>2018-09-13T06:08:48.000Z</time>
      </trkpt>
      <trkpt lat="48.00067" lon="6.56033">
        <ele>580</ele>
        <time>2018-09-13T06:08:49.000Z</time>
      </trkpt>
      <trkpt lat="48.00067" lon="6.56036">
        <ele>580</ele>
        <time>2018-09-13T06:08:50.000Z</time>
      </trkpt>
      <trkpt lat="48.00067" lon="6.56038">
        <ele>581</ele>
        <time>2018-09-13T06:08:51.000Z</time>
      </trkpt>
      <trkpt lat="48.00067" lon="6.56041">
        <ele>581</ele>
        <time>2018-09-13T06:08:52.000Z</time>
      </trkpt>
      <trkpt lat="48.00067" lon="6.56043">
        <ele>581</ele>
        <time>2018-09-13T06:08:53.000Z</time>
      </trkpt>
      <trkpt lat="48.00067" lon="6.56046">
        <ele>581</ele>
        <time>2018-09-13T06:08:54.000Z</time>
      </trkpt>
      <trkpt lat="48.00067" lon="6.56048">
        <ele>581</ele>
        <time>2018-09-13T06:08:55.000Z</time>
      </trkpt>
      <trkpt lat="48.00067" lon="6.5605">
        <ele>581</ele>
        <time>2018-09-13T06:08:56.000Z</time>
      </trkpt>
      <trkpt lat="48.00067" lon="6.56053">
        <ele>581</ele>
        <time>2018-09-13T06:08:57.000Z</time>
      </trkpt>
      <trkpt lat="48.00067" lon="6.56056">
        <ele>582</ele>
        <time>2018-09-13T06:08:58.000Z</time>
      </trkpt>
      <trkpt lat="48.00067" lon="6.56058">
        <ele>582</ele>
        <time>2018-09-13T06:08:59.000Z</time>
      </trkpt>
      <trkpt lat="48.00067" lon="6.56061">
        <ele>582</ele>
        <time>2018-09-13T06:09:00.000Z</time>
      </trkpt>
      <trkpt lat="48.00068" lon="6.56064">
        <ele>582</ele>
        <time>2018-09-13T06:09:01.000Z</time>
      </trkpt>
      <trkpt lat="48.00068" lon="6.56066">
        <ele>582</ele>
        <time>2018-09-13T06:09:02.000Z</time>
      </trkpt>
      <trkpt lat="48.00068" lon="6.56069">
        <ele>583</ele>
        <time>2018-09-13T06:09:03.000Z</time>
      </trkpt>
      <trkpt lat="48.00068" lon="6.56072">
        <ele>583</ele>
        <time>2018-09-13T06:09:04.000Z</time>
      </trkpt>
      <trkpt lat="48.00068" lon="6.56074">
        <ele>583</ele>
        <time>2018-09-13T06:09:05.000Z</time>
      </trkpt>
      <trkpt lat="48.00067" lon="6.56077">
        <ele>583</ele>
        <time>2018-09-13T06:09:06.000Z</time>
      </trkpt>
      <trkpt lat="48.00067" lon="6.5608">
        <ele>583</ele>
        <time>2018-09-13T06:09:07.000Z</time>
      </trkpt>
      <trkpt lat="48.00068" lon="6.56083">
        <ele>583</ele>
        <time>2018-09-13T06:09:08.000Z</time>
      </trkpt>
      <trkpt lat="48.00068" lon="6.56086">
        <ele>583</ele>
        <time>2018-09-13T06:09:09.000Z</time>
      </trkpt>
      <trkpt lat="48.00067" lon="6.5609">
        <ele>583</ele>
        <time>2018-09-13T06:09:10.000Z</time>
      </trkpt>
      <trkpt lat="48.00067" lon="6.56093">
        <ele>584</ele>
        <time>2018-09-13T06:09:11.000Z</time>
      </trkpt>
      <trkpt lat="48.00067" lon="6.56096">
        <ele>584</ele>
        <time>2018-09-13T06:09:12.000Z</time>
      </trkpt>
      <trkpt lat="48.00066" lon="6.56099">
        <ele>584</ele>
        <time>2018-09-13T06:09:13.000Z</time>
      </trkpt>
      <trkpt lat="48.00066" lon="6.56102">
        <ele>584</ele>
        <time>2018-09-13T06:09:14.000Z</time>
      </trkpt>
      <trkpt lat="48.00066" lon="6.56104">
        <ele>584</ele>
        <time>2018-09-13T06:09:15.000Z</time>
      </trkpt>
      <trkpt lat="48.00066" lon="6.56107">
        <ele>584</ele>
        <time>2018-09-13T06:09:16.000Z</time>
      </trkpt>
      <trkpt lat="48.00067" lon="6.56109">
        <ele>584</ele>
        <time>2018-09-13T06:09:17.000Z</time>
      </trkpt>
      <trkpt lat="48.00067" lon="6.56112">
        <ele>585</ele>
        <time>2018-09-13T06:09:18.000Z</time>
      </trkpt>
      <trkpt lat="48.00067" lon="6.56114">
        <ele>585</ele>
        <time>2018-09-13T06:09:19.000Z</time>
      </trkpt>
      <trkpt lat="48.00067" lon="6.56117">
        <ele>585</ele>
        <time>2018-09-13T06:09:20.000Z</time>
      </trkpt>
      <trkpt lat="48.00067" lon="6.56119">
        <ele>585</ele>
        <time>2018-09-13T06:09:21.000Z</time>
      </trkpt>
      <trkpt lat="48.00067" lon="6.56122">
        <ele>585</ele>
        <time>2018-09-13T06:09:22.000Z</time>
      </trkpt>
      <trkpt lat="48.00067" lon="6.56125">
        <ele>585</ele>
        <time>2018-09-13T06:09:23.000Z</time>
      </trkpt>
      <trkpt lat="48.00067" lon="6.56127">
        <ele>585</ele>
        <time>2018-09-13T06:09:24.000Z</time>
      </trkpt>
      <trkpt lat="48.00067" lon="6.5613">
        <ele>585</ele>
        <time>2018-09-13T06:09:25.000Z</time>
      </trkpt>
      <trkpt lat="48.00066" lon="6.56133">
        <ele>585</ele>
        <time>2018-09-13T06:09:26.000Z</time>
      </trkpt>
      <trkpt lat="48.00066" lon="6.56136">
        <ele>585</ele>
        <time>2018-09-13T06:09:27.000Z</time>
      </trkpt>
      <trkpt lat="48.00065" lon="6.56138">
        <ele>585</ele>
        <time>2018-09-13T06:09:28.000Z</time>
      </trkpt>
      <trkpt lat="48.00064" lon="6.56141">
        <ele>585</ele>
        <time>2018-09-13T06:09:29.000Z</time>
      </trkpt>
      <trkpt lat="48.00064" lon="6.56143">
        <ele>585</ele>
        <time>2018-09-13T06:09:30.000Z</time>
      </trkpt>
      <trkpt lat="48.00063" lon="6.56146">
        <ele>586</ele>
        <time>2018-09-13T06:09:31.000Z</time>
      </trkpt>
      <trkpt lat="48.00063" lon="6.56149">
        <ele>586</ele>
        <time>2018-09-13T06:09:32.000Z</time>
      </trkpt>
      <trkpt lat="48.00062" lon="6.56152">
        <ele>586</ele>
        <time>2018-09-13T06:09:33.000Z</time>
      </trkpt>
      <trkpt lat="48.00062" lon="6.56154">
        <ele>586</ele>
        <time>2018-09-13T06:09:34.000Z</time>
      </trkpt>
      <trkpt lat="48.00061" lon="6.56157">
        <ele>586</ele>
        <time>2018-09-13T06:09:35.000Z</time>
      </trkpt>
      <trkpt lat="48.00061" lon="6.56159">
        <ele>586</ele>
        <time>2018-09-13T06:09:36.000Z</time>
      </trkpt>
      <trkpt lat="48.0006" lon="6.56161">
        <ele>586</ele>
        <time>2018-09-13T06:09:37.000Z</time>
      </trkpt>
      <trkpt lat="48.0006" lon="6.56164">
        <ele>586</ele>
        <time>2018-09-13T06:09:38.000Z</time>
      </trkpt>
      <trkpt lat="48.0006" lon="6.56167">
        <ele>586</ele>
        <time>2018-09-13T06:09:39.000Z</time>
      </trkpt>
      <trkpt lat="48.0006" lon="6.56169">
        <ele>586</ele>
        <time>2018-09-13T06:09:40.000Z</time>
      </trkpt>
      <trkpt lat="48.0006" lon="6.56172">
        <ele>586</ele>
        <time>2018-09-13T06:09:41.000Z</time>
      </trkpt>
      <trkpt lat="48.0006" lon="6.56174">
        <ele>586</ele>
        <time>2018-09-13T06:09:42.000Z</time>
      </trkpt>
      <trkpt lat="48.0006" lon="6.56177">
        <ele>586</ele>
        <time>2018-09-13T06:09:43.000Z</time>
      </trkpt>
      <trkpt lat="48.0006" lon="6.56181">
        <ele>586</ele>
        <time>2018-09-13T06:09:44.000Z</time>
      </trkpt>
      <trkpt lat="48.0006" lon="6.56184">
        <ele>586</ele>
        <time>2018-09-13T06:09:45.000Z</time>
      </trkpt>
      <trkpt lat="48.00059" lon="6.56187">
        <ele>586</ele>
        <time>2018-09-13T06:09:46.000Z</time>
      </trkpt>
      <trkpt lat="48.00059" lon="6.5619">
        <ele>586</ele>
        <time>2018-09-13T06:09:47.000Z</time>
      </trkpt>
      <trkpt lat="48.00059" lon="6.56193">
        <ele>586</ele>
        <time>2018-09-13T06:09:48.000Z</time>
      </trkpt>
      <trkpt lat="48.00058" lon="6.56196">
        <ele>586</ele>
        <time>2018-09-13T06:09:49.000Z</time>
      </trkpt>
      <trkpt lat="48.00058" lon="6.56199">
        <ele>586</ele>
        <time>2018-09-13T06:09:50.000Z</time>
      </trkpt>
      <trkpt lat="48.00057" lon="6.56201">
        <ele>586</ele>
        <time>2018-09-13T06:09:51.000Z</time>
      </trkpt>
      <trkpt lat="48.00056" lon="6.56203">
        <ele>586</ele>
        <time>2018-09-13T06:09:52.000Z</time>
      </trkpt>
      <trkpt lat="48.00056" lon="6.56204">
        <ele>586</ele>
        <time>2018-09-13T06:09:53.000Z</time>
      </trkpt>
      <trkpt lat="48.00055" lon="6.56206">
        <ele>586</ele>
        <time>2018-09-13T06:09:54.000Z</time>
      </trkpt>
      <trkpt lat="48.00054" lon="6.56208">
        <ele>586</ele>
        <time>2018-09-13T06:09:55.000Z</time>
      </trkpt>
      <trkpt lat="48.00053" lon="6.5621">
        <ele>586</ele>
        <time>2018-09-13T06:09:56.000Z</time>
      </trkpt>
      <trkpt lat="48.00051" lon="6.56212">
        <ele>586</ele>
        <time>2018-09-13T06:09:57.000Z</time>
      </trkpt>
      <trkpt lat="48.00051" lon="6.56214">
        <ele>586</ele>
        <time>2018-09-13T06:09:58.000Z</time>
      </trkpt>
      <trkpt lat="48.0005" lon="6.56216">
        <ele>586</ele>
        <time>2018-09-13T06:09:59.000Z</time>
      </trkpt>
      <trkpt lat="48.00049" lon="6.56218">
        <ele>586</ele>
        <time>2018-09-13T06:10:00.000Z</time>
      </trkpt>
      <trkpt lat="48.00049" lon="6.5622">
        <ele>585</ele>
        <time>2018-09-13T06:10:01.000Z</time>
      </trkpt>
      <trkpt lat="48.00048" lon="6.56223">
        <ele>585</ele>
        <time>2018-09-13T06:10:02.000Z</time>
      </trkpt>
      <trkpt lat="48.00047" lon="6.56225">
        <ele>585</ele>
        <time>2018-09-13T06:10:03.000Z</time>
      </trkpt>
      <trkpt lat="48.00047" lon="6.56227">
        <ele>585</ele>
        <time>2018-09-13T06:10:04.000Z</time>
      </trkpt>
      <trkpt lat="48.00047" lon="6.5623">
        <ele>585</ele>
        <time>2018-09-13T06:10:05.000Z</time>
      </trkpt>
      <trkpt lat="48.00047" lon="6.56232">
        <ele>585</ele>
        <time>2018-09-13T06:10:06.000Z</time>
      </trkpt>
      <trkpt lat="48.00047" lon="6.56234">
        <ele>585</ele>
        <time>2018-09-13T06:10:07.000Z</time>
      </trkpt>
      <trkpt lat="48.00047" lon="6.56237">
        <ele>585</ele>
        <time>2018-09-13T06:10:08.000Z</time>
      </trkpt>
      <trkpt lat="48.00047" lon="6.5624">
        <ele>585</ele>
        <time>2018-09-13T06:10:09.000Z</time>
      </trkpt>
      <trkpt lat="48.00047" lon="6.56243">
        <ele>585</ele>
        <time>2018-09-13T06:10:10.000Z</time>
      </trkpt>
      <trkpt lat="48.00047" lon="6.56246">
        <ele>585</ele>
        <time>2018-09-13T06:10:11.000Z</time>
      </trkpt>
      <trkpt lat="48.00047" lon="6.56248">
        <ele>585</ele>
        <time>2018-09-13T06:10:12.000Z</time>
      </trkpt>
      <trkpt lat="48.00047" lon="6.56251">
        <ele>585</ele>
        <time>2018-09-13T06:10:13.000Z</time>
      </trkpt>
      <trkpt lat="48.00047" lon="6.56254">
        <ele>586</ele>
        <time>2018-09-13T06:10:14.000Z</time>
      </trkpt>
      <trkpt lat="48.00047" lon="6.56256">
        <ele>586</ele>
        <time>2018-09-13T06:10:15.000Z</time>
      </trkpt>
      <trkpt lat="48.00048" lon="6.56259">
        <ele>586</ele>
        <time>2018-09-13T06:10:16.000Z</time>
      </trkpt>
      <trkpt lat="48.00048" lon="6.56261">
        <ele>586</ele>
        <time>2018-09-13T06:10:17.000Z</time>
      </trkpt>
      <trkpt lat="48.00048" lon="6.56264">
        <ele>586</ele>
        <time>2018-09-13T06:10:18.000Z</time>
      </trkpt>
      <trkpt lat="48.00049" lon="6.56267">
        <ele>586</ele>
        <time>2018-09-13T06:10:19.000Z</time>
      </trkpt>
      <trkpt lat="48.00049" lon="6.5627">
        <ele>586</ele>
        <time>2018-09-13T06:10:20.000Z</time>
      </trkpt>
      <trkpt lat="48.00049" lon="6.56272">
        <ele>586</ele>
        <time>2018-09-13T06:10:21.000Z</time>
      </trkpt>
      <trkpt lat="48.00049" lon="6.56275">
        <ele>586</ele>
        <time>2018-09-13T06:10:22.000Z</time>
      </trkpt>
      <trkpt lat="48.00049" lon="6.56278">
        <ele>587</ele>
        <time>2018-09-13T06:10:23.000Z</time>
      </trkpt>
      <trkpt lat="48.00049" lon="6.56281">
        <ele>587</ele>
        <time>2018-09-13T06:10:24.000Z</time>
      </trkpt>
      <trkpt lat="48.00049" lon="6.56283">
        <ele>587</ele>
        <time>2018-09-13T06:10:25.000Z</time>
      </trkpt>
      <trkpt lat="48.00049" lon="6.56286">
        <ele>587</ele>
        <time>2018-09-13T06:10:26.000Z</time>
      </trkpt>
      <trkpt lat="48.00048" lon="6.56288">
        <ele>587</ele>
        <time>2018-09-13T06:10:27.000Z</time>
      </trkpt>
      <trkpt lat="48.00049" lon="6.56291">
        <ele>587</ele>
        <time>2018-09-13T06:10:28.000Z</time>
      </trkpt>
      <trkpt lat="48.00049" lon="6.56293">
        <ele>587</ele>
        <time>2018-09-13T06:10:29.000Z</time>
      </trkpt>
      <trkpt lat="48.00049" lon="6.56295">
        <ele>587</ele>
        <time>2018-09-13T06:10:30.000Z</time>
      </trkpt>
      <trkpt lat="48.00049" lon="6.56297">
        <ele>587</ele>
        <time>2018-09-13T06:10:31.000Z</time>
      </trkpt>
      <trkpt lat="48.00049" lon="6.563">
        <ele>587</ele>
        <time>2018-09-13T06:10:32.000Z</time>
      </trkpt>
      <trkpt lat="48.00049" lon="6.56301">
        <ele>587</ele>
        <time>2018-09-13T06:10:33.000Z</time>
      </trkpt>
      <trkpt lat="48.00049" lon="6.56303">
        <ele>587</ele>
        <time>2018-09-13T06:10:34.000Z</time>
      </trkpt>
      <trkpt lat="48.00049" lon="6.56305">
        <ele>587</ele>
        <time>2018-09-13T06:10:35.000Z</time>
      </trkpt>
      <trkpt lat="48.00049" lon="6.56306">
        <ele>587</ele>
        <time>2018-09-13T06:10:36.000Z</time>
      </trkpt>
      <trkpt lat="48.00049" lon="6.56308">
        <ele>587</ele>
        <time>2018-09-13T06:10:37.000Z</time>
      </trkpt>
      <trkpt lat="48.00049" lon="6.5631">
        <ele>587</ele>
        <time>2018-09-13T06:10:38.000Z</time>
      </trkpt>
      <trkpt lat="48.00049" lon="6.56312">
        <ele>588</ele>
        <time>2018-09-13T06:10:39.000Z</time>
      </trkpt>
      <trkpt lat="48.00049" lon="6.56314">
        <ele>588</ele>
        <time>2018-09-13T06:10:40.000Z</time>
      </trkpt>
      <trkpt lat="48.00049" lon="6.56316">
        <ele>588</ele>
        <time>2018-09-13T06:10:41.000Z</time>
      </trkpt>
      <trkpt lat="48.00049" lon="6.56318">
        <ele>588</ele>
        <time>2018-09-13T06:10:42.000Z</time>
      </trkpt>
      <trkpt lat="48.00049" lon="6.56321">
        <ele>588</ele>
        <time>2018-09-13T06:10:43.000Z</time>
      </trkpt>
      <trkpt lat="48.00049" lon="6.56323">
        <ele>588</ele>
        <time>2018-09-13T06:10:44.000Z</time>
      </trkpt>
      <trkpt lat="48.0005" lon="6.56325">
        <ele>588</ele>
        <time>2018-09-13T06:10:45.000Z</time>
      </trkpt>
      <trkpt lat="48.0005" lon="6.56328">
        <ele>588</ele>
        <time>2018-09-13T06:10:46.000Z</time>
      </trkpt>
      <trkpt lat="48.00051" lon="6.56331">
        <ele>589</ele>
        <time>2018-09-13T06:10:47.000Z</time>
      </trkpt>
      <trkpt lat="48.00051" lon="6.56333">
        <ele>589</ele>
        <time>2018-09-13T06:10:48.000Z</time>
      </trkpt>
      <trkpt lat="48.00051" lon="6.56335">
        <ele>589</ele>
        <time>2018-09-13T06:10:49.000Z</time>
      </trkpt>
      <trkpt lat="48.00052" lon="6.56338">
        <ele>589</ele>
        <time>2018-09-13T06:10:50.000Z</time>
      </trkpt>
      <trkpt lat="48.00052" lon="6.5634">
        <ele>589</ele>
        <time>2018-09-13T06:10:51.000Z</time>
      </trkpt>
      <trkpt lat="48.00052" lon="6.56343">
        <ele>589</ele>
        <time>2018-09-13T06:10:52.000Z</time>
      </trkpt>
      <trkpt lat="48.00053" lon="6.56345">
        <ele>589</ele>
        <time>2018-09-13T06:10:53.000Z</time>
      </trkpt>
      <trkpt lat="48.00053" lon="6.56348">
        <ele>589</ele>
        <time>2018-09-13T06:10:54.000Z</time>
      </trkpt>
      <trkpt lat="48.00053" lon="6.56351">
        <ele>590</ele>
        <time>2018-09-13T06:10:55.000Z</time>
      </trkpt>
      <trkpt lat="48.00053" lon="6.56353">
        <ele>590</ele>
        <time>2018-09-13T06:10:56.000Z</time>
      </trkpt>
      <trkpt lat="48.00053" lon="6.56356">
        <ele>590</ele>
        <time>2018-09-13T06:10:57.000Z</time>
      </trkpt>
      <trkpt lat="48.00052" lon="6.56359">
        <ele>590</ele>
        <time>2018-09-13T06:10:58.000Z</time>
      </trkpt>
      <trkpt lat="48.00052" lon="6.56361">
        <ele>590</ele>
        <time>2018-09-13T06:10:59.000Z</time>
      </trkpt>
      <trkpt lat="48.00052" lon="6.56364">
        <ele>590</ele>
        <time>2018-09-13T06:11:00.000Z</time>
      </trkpt>
      <trkpt lat="48.00052" lon="6.56367">
        <ele>590</ele>
        <time>2018-09-13T06:11:01.000Z</time>
      </trkpt>
      <trkpt lat="48.00053" lon="6.56369">
        <ele>590</ele>
        <time>2018-09-13T06:11:02.000Z</time>
      </trkpt>
      <trkpt lat="48.00053" lon="6.56372">
        <ele>590</ele>
        <time>2018-09-13T06:11:03.000Z</time>
      </trkpt>
      <trkpt lat="48.00053" lon="6.56375">
        <ele>589</ele>
        <time>2018-09-13T06:11:04.000Z</time>
      </trkpt>
      <trkpt lat="48.00053" lon="6.56378">
        <ele>589</ele>
        <time>2018-09-13T06:11:05.000Z</time>
      </trkpt>
      <trkpt lat="48.00053" lon="6.56381">
        <ele>589</ele>
        <time>2018-09-13T06:11:06.000Z</time>
      </trkpt>
      <trkpt lat="48.00054" lon="6.56384">
        <ele>589</ele>
        <time>2018-09-13T06:11:07.000Z</time>
      </trkpt>
      <trkpt lat="48.00054" lon="6.56387">
        <ele>589</ele>
        <time>2018-09-13T06:11:08.000Z</time>
      </trkpt>
      <trkpt lat="48.00054" lon="6.56389">
        <ele>589</ele>
        <time>2018-09-13T06:11:09.000Z</time>
      </trkpt>
      <trkpt lat="48.00054" lon="6.56392">
        <ele>589</ele>
        <time>2018-09-13T06:11:10.000Z</time>
      </trkpt>
      <trkpt lat="48.00054" lon="6.56396">
        <ele>589</ele>
        <time>2018-09-13T06:11:11.000Z</time>
      </trkpt>
      <trkpt lat="48.00054" lon="6.56399">
        <ele>589</ele>
        <time>2018-09-13T06:11:12.000Z</time>
      </trkpt>
      <trkpt lat="48.00055" lon="6.56402">
        <ele>588</ele>
        <time>2018-09-13T06:11:13.000Z</time>
      </trkpt>
      <trkpt lat="48.00055" lon="6.56404">
        <ele>588</ele>
        <time>2018-09-13T06:11:14.000Z</time>
      </trkpt>
      <trkpt lat="48.00056" lon="6.56407">
        <ele>589</ele>
        <time>2018-09-13T06:11:15.000Z</time>
      </trkpt>
      <trkpt lat="48.00056" lon="6.5641">
        <ele>589</ele>
        <time>2018-09-13T06:11:16.000Z</time>
      </trkpt>
      <trkpt lat="48.00056" lon="6.56413">
        <ele>589</ele>
        <time>2018-09-13T06:11:17.000Z</time>
      </trkpt>
      <trkpt lat="48.00057" lon="6.56416">
        <ele>589</ele>
        <time>2018-09-13T06:11:18.000Z</time>
      </trkpt>
      <trkpt lat="48.00057" lon="6.56419">
        <ele>589</ele>
        <time>2018-09-13T06:11:19.000Z</time>
      </trkpt>
      <trkpt lat="48.00057" lon="6.56421">
        <ele>589</ele>
        <time>2018-09-13T06:11:20.000Z</time>
      </trkpt>
      <trkpt lat="48.00057" lon="6.56424">
        <ele>589</ele>
        <time>2018-09-13T06:11:21.000Z</time>
      </trkpt>
      <trkpt lat="48.00057" lon="6.56427">
        <ele>589</ele>
        <time>2018-09-13T06:11:22.000Z</time>
      </trkpt>
      <trkpt lat="48.00057" lon="6.5643">
        <ele>589</ele>
        <time>2018-09-13T06:11:23.000Z</time>
      </trkpt>
      <trkpt lat="48.00057" lon="6.56433">
        <ele>589</ele>
        <time>2018-09-13T06:11:24.000Z</time>
      </trkpt>
      <trkpt lat="48.00057" lon="6.56435">
        <ele>589</ele>
        <time>2018-09-13T06:11:25.000Z</time>
      </trkpt>
      <trkpt lat="48.00057" lon="6.56438">
        <ele>589</ele>
        <time>2018-09-13T06:11:26.000Z</time>
      </trkpt>
      <trkpt lat="48.00058" lon="6.56441">
        <ele>589</ele>
        <time>2018-09-13T06:11:27.000Z</time>
      </trkpt>
      <trkpt lat="48.00058" lon="6.56444">
        <ele>589</ele>
        <time>2018-09-13T06:11:28.000Z</time>
      </trkpt>
      <trkpt lat="48.00058" lon="6.56446">
        <ele>589</ele>
        <time>2018-09-13T06:11:29.000Z</time>
      </trkpt>
      <trkpt lat="48.00058" lon="6.56449">
        <ele>589</ele>
        <time>2018-09-13T06:11:30.000Z</time>
      </trkpt>
      <trkpt lat="48.00058" lon="6.56451">
        <ele>589</ele>
        <time>2018-09-13T06:11:31.000Z</time>
      </trkpt>
      <trkpt lat="48.00057" lon="6.56454">
        <ele>589</ele>
        <time>2018-09-13T06:11:32.000Z</time>
      </trkpt>
      <trkpt lat="48.00057" lon="6.56457">
        <ele>589</ele>
        <time>2018-09-13T06:11:33.000Z</time>
      </trkpt>
      <trkpt lat="48.00057" lon="6.5646">
        <ele>589</ele>
        <time>2018-09-13T06:11:34.000Z</time>
      </trkpt>
      <trkpt lat="48.00057" lon="6.56462">
        <ele>589</ele>
        <time>2018-09-13T06:11:35.000Z</time>
      </trkpt>
      <trkpt lat="48.00057" lon="6.56465">
        <ele>589</ele>
        <time>2018-09-13T06:11:36.000Z</time>
      </trkpt>
      <trkpt lat="48.00057" lon="6.56467">
        <ele>589</ele>
        <time>2018-09-13T06:11:37.000Z</time>
      </trkpt>
      <trkpt lat="48.00057" lon="6.5647">
        <ele>589</ele>
        <time>2018-09-13T06:11:38.000Z</time>
      </trkpt>
      <trkpt lat="48.00056" lon="6.56472">
        <ele>589</ele>
        <time>2018-09-13T06:11:39.000Z</time>
      </trkpt>
      <trkpt lat="48.00056" lon="6.56475">
        <ele>589</ele>
        <time>2018-09-13T06:11:40.000Z</time>
      </trkpt>
      <trkpt lat="48.00056" lon="6.56477">
        <ele>589</ele>
        <time>2018-09-13T06:11:41.000Z</time>
      </trkpt>
      <trkpt lat="48.00056" lon="6.56479">
        <ele>589</ele>
        <time>2018-09-13T06:11:42.000Z</time>
      </trkpt>
      <trkpt lat="48.00056" lon="6.56482">
        <ele>589</ele>
        <time>2018-09-13T06:11:43.000Z</time>
      </trkpt>
      <trkpt lat="48.00056" lon="6.56485">
        <ele>589</ele>
        <time>2018-09-13T06:11:44.000Z</time>
      </trkpt>
      <trkpt lat="48.00056" lon="6.56487">
        <ele>589</ele>
        <time>2018-09-13T06:11:45.000Z</time>
      </trkpt>
      <trkpt lat="48.00057" lon="6.5649">
        <ele>589</ele>
        <time>2018-09-13T06:11:46.000Z</time>
      </trkpt>
      <trkpt lat="48.00057" lon="6.56492">
        <ele>590</ele>
        <time>2018-09-13T06:11:47.000Z</time>
      </trkpt>
      <trkpt lat="48.00057" lon="6.56493">
        <ele>590</ele>
        <time>2018-09-13T06:11:48.000Z</time>
      </trkpt>
      <trkpt lat="48.00057" lon="6.56495">
        <ele>590</ele>
        <time>2018-09-13T06:11:49.000Z</time>
      </trkpt>
      <trkpt lat="48.00057" lon="6.56497">
        <ele>590</ele>
        <time>2018-09-13T06:11:50.000Z</time>
      </trkpt>
      <trkpt lat="48.00057" lon="6.56499">
        <ele>591</ele>
        <time>2018-09-13T06:11:51.000Z</time>
      </trkpt>
      <trkpt lat="48.00058" lon="6.56502">
        <ele>591</ele>
        <time>2018-09-13T06:11:52.000Z</time>
      </trkpt>
      <trkpt lat="48.00058" lon="6.56503">
        <ele>591</ele>
        <time>2018-09-13T06:11:53.000Z</time>
      </trkpt>
      <trkpt lat="48.00059" lon="6.56505">
        <ele>592</ele>
        <time>2018-09-13T06:11:54.000Z</time>
      </trkpt>
      <trkpt lat="48.0006" lon="6.56508">
        <ele>592</ele>
        <time>2018-09-13T06:11:55.000Z</time>
      </trkpt>
      <trkpt lat="48.00061" lon="6.5651">
        <ele>592</ele>
        <time>2018-09-13T06:11:56.000Z</time>
      </trkpt>
      <trkpt lat="48.00062" lon="6.56512">
        <ele>593</ele>
        <time>2018-09-13T06:11:57.000Z</time>
      </trkpt>
      <trkpt lat="48.00062" lon="6.56514">
        <ele>593</ele>
        <time>2018-09-13T06:11:58.000Z</time>
      </trkpt>
      <trkpt lat="48.00062" lon="6.56516">
        <ele>593</ele>
        <time>2018-09-13T06:11:59.000Z</time>
      </trkpt>
      <trkpt lat="48.00063" lon="6.56518">
        <ele>594</ele>
        <time>2018-09-13T06:12:00.000Z</time>
      </trkpt>
      <trkpt lat="48.00063" lon="6.5652">
        <ele>594</ele>
        <time>2018-09-13T06:12:01.000Z</time>
      </trkpt>
      <trkpt lat="48.00063" lon="6.56522">
        <ele>594</ele>
        <time>2018-09-13T06:12:02.000Z</time>
      </trkpt>
      <trkpt lat="48.00063" lon="6.56523">
        <ele>595</ele>
        <time>2018-09-13T06:12:03.000Z</time>
      </trkpt>
      <trkpt lat="48.00063" lon="6.56525">
        <ele>595</ele>
        <time>2018-09-13T06:12:04.000Z</time>
      </trkpt>
      <trkpt lat="48.00063" lon="6.56527">
        <ele>595</ele>
        <time>2018-09-13T06:12:05.000Z</time>
      </trkpt>
      <trkpt lat="48.00063" lon="6.56529">
        <ele>596</ele>
        <time>2018-09-13T06:12:06.000Z</time>
      </trkpt>
      <trkpt lat="48.00063" lon="6.5653">
        <ele>596</ele>
        <time>2018-09-13T06:12:07.000Z</time>
      </trkpt>
      <trkpt lat="48.00063" lon="6.56532">
        <ele>596</ele>
        <time>2018-09-13T06:12:08.000Z</time>
      </trkpt>
      <trkpt lat="48.00063" lon="6.56533">
        <ele>597</ele>
        <time>2018-09-13T06:12:09.000Z</time>
      </trkpt>
      <trkpt lat="48.00063" lon="6.56533">
        <ele>597</ele>
        <time>2018-09-13T06:12:10.000Z</time>
      </trkpt>
      <trkpt lat="48.00063" lon="6.56534">
        <ele>597</ele>
        <time>2018-09-13T06:12:11.000Z</time>
      </trkpt>
      <trkpt lat="48.00063" lon="6.56535">
        <ele>597</ele>
        <time>2018-09-13T06:12:12.000Z</time>
      </trkpt>
      <trkpt lat="48.00063" lon="6.56536">
        <ele>598</ele>
        <time>2018-09-13T06:12:13.000Z</time>
      </trkpt>
      <trkpt lat="48.00063" lon="6.56537">
        <ele>598</ele>
        <time>2018-09-13T06:12:14.000Z</time>
      </trkpt>
      <trkpt lat="48.00064" lon="6.56539">
        <ele>598</ele>
        <time>2018-09-13T06:12:15.000Z</time>
      </trkpt>
      <trkpt lat="48.00065" lon="6.5654">
        <ele>599</ele>
        <time>2018-09-13T06:12:16.000Z</time>
      </trkpt>
      <trkpt lat="48.00066" lon="6.56541">
        <ele>599</ele>
        <time>2018-09-13T06:12:17.000Z</time>
      </trkpt>
      <trkpt lat="48.00067" lon="6.56543">
        <ele>599</ele>
        <time>2018-09-13T06:12:18.000Z</time>
      </trkpt>
      <trkpt lat="48.00067" lon="6.56545">
        <ele>600</ele>
        <time>2018-09-13T06:12:19.000Z</time>
      </trkpt>
      <trkpt lat="48.00068" lon="6.56547">
        <ele>600</ele>
        <time>2018-09-13T06:12:20.000Z</time>
      </trkpt>
      <trkpt lat="48.00069" lon="6.56549">
        <ele>600</ele>
        <time>2018-09-13T06:12:21.000Z</time>
      </trkpt>
      <trkpt lat="48.00069" lon="6.56551">
        <ele>600</ele>
        <time>2018-09-13T06:12:22.000Z</time>
      </trkpt>
      <trkpt lat="48.0007" lon="6.56553">
        <ele>601</ele>
        <time>2018-09-13T06:12:23.000Z</time>
      </trkpt>
      <trkpt lat="48.0007" lon="6.56554">
        <ele>601</ele>
        <time>2018-09-13T06:12:24.000Z</time>
      </trkpt>
      <trkpt lat="48.00071" lon="6.56556">
        <ele>601</ele>
        <time>2018-09-13T06:12:25.000Z</time>
      </trkpt>
      <trkpt lat="48.00071" lon="6.56558">
        <ele>601</ele>
        <time>2018-09-13T06:12:26.000Z</time>
      </trkpt>
      <trkpt lat="48.00072" lon="6.5656">
        <ele>602</ele>
        <time>2018-09-13T06:12:27.000Z</time>
      </trkpt>
      <trkpt lat="48.00072" lon="6.56562">
        <ele>602</ele>
        <time>2018-09-13T06:12:28.000Z</time>
      </trkpt>
      <trkpt lat="48.00073" lon="6.56564">
        <ele>602</ele>
        <time>2018-09-13T06:12:29.000Z</time>
      </trkpt>
      <trkpt lat="48.00073" lon="6.56565">
        <ele>602</ele>
        <time>2018-09-13T06:12:30.000Z</time>
      </trkpt>
      <trkpt lat="48.00073" lon="6.56567">
        <ele>602</ele>
        <time>2018-09-13T06:12:31.000Z</time>
      </trkpt>
      <trkpt lat="48.00074" lon="6.56569">
        <ele>603</ele>
        <time>2018-09-13T06:12:32.000Z</time>
      </trkpt>
      <trkpt lat="48.00074" lon="6.56572">
        <ele>603</ele>
        <time>2018-09-13T06:12:33.000Z</time>
      </trkpt>
      <trkpt lat="48.00075" lon="6.56574">
        <ele>603</ele>
        <time>2018-09-13T06:12:34.000Z</time>
      </trkpt>
      <trkpt lat="48.00075" lon="6.56576">
        <ele>603</ele>
        <time>2018-09-13T06:12:35.000Z</time>
      </trkpt>
      <trkpt lat="48.00076" lon="6.56578">
        <ele>604</ele>
        <time>2018-09-13T06:12:36.000Z</time>
      </trkpt>
      <trkpt lat="48.00076" lon="6.5658">
        <ele>604</ele>
        <time>2018-09-13T06:12:37.000Z</time>
      </trkpt>
      <trkpt lat="48.00076" lon="6.56583">
        <ele>604</ele>
        <time>2018-09-13T06:12:38.000Z</time>
      </trkpt>
      <trkpt lat="48.00077" lon="6.56586">
        <ele>605</ele>
        <time>2018-09-13T06:12:39.000Z</time>
      </trkpt>
      <trkpt lat="48.00077" lon="6.56589">
        <ele>605</ele>
        <time>2018-09-13T06:12:40.000Z</time>
      </trkpt>
      <trkpt lat="48.00078" lon="6.56592">
        <ele>605</ele>
        <time>2018-09-13T06:12:41.000Z</time>
      </trkpt>
      <trkpt lat="48.00079" lon="6.56595">
        <ele>605</ele>
        <time>2018-09-13T06:12:42.000Z</time>
      </trkpt>
      <trkpt lat="48.00079" lon="6.56597">
        <ele>606</ele>
        <time>2018-09-13T06:12:43.000Z</time>
      </trkpt>
      <trkpt lat="48.0008" lon="6.566">
        <ele>606</ele>
        <time>2018-09-13T06:12:44.000Z</time>
      </trkpt>
      <trkpt lat="48.0008" lon="6.56602">
        <ele>606</ele>
        <time>2018-09-13T06:12:45.000Z</time>
      </trkpt>
      <trkpt lat="48.00081" lon="6.56604">
        <ele>606</ele>
        <time>2018-09-13T06:12:46.000Z</time>
      </trkpt>
      <trkpt lat="48.00081" lon="6.56607">
        <ele>607</ele>
        <time>2018-09-13T06:12:47.000Z</time>
      </trkpt>
      <trkpt lat="48.00081" lon="6.56609">
        <ele>607</ele>
        <time>2018-09-13T06:12:48.000Z</time>
      </trkpt>
      <trkpt lat="48.00081" lon="6.56611">
        <ele>607</ele>
        <time>2018-09-13T06:12:49.000Z</time>
      </trkpt>
      <trkpt lat="48.00082" lon="6.56613">
        <ele>607</ele>
        <time>2018-09-13T06:12:50.000Z</time>
      </trkpt>
      <trkpt lat="48.00082" lon="6.56615">
        <ele>608</ele>
        <time>2018-09-13T06:12:51.000Z</time>
      </trkpt>
      <trkpt lat="48.00082" lon="6.56616">
        <ele>608</ele>
        <time>2018-09-13T06:12:52.000Z</time>
      </trkpt>
      <trkpt lat="48.00082" lon="6.56619">
        <ele>608</ele>
        <time>2018-09-13T06:12:53.000Z</time>
      </trkpt>
      <trkpt lat="48.00082" lon="6.56621">
        <ele>608</ele>
        <time>2018-09-13T06:12:54.000Z</time>
      </trkpt>
      <trkpt lat="48.00083" lon="6.56623">
        <ele>608</ele>
        <time>2018-09-13T06:12:55.000Z</time>
      </trkpt>
      <trkpt lat="48.00083" lon="6.56625">
        <ele>608</ele>
        <time>2018-09-13T06:12:56.000Z</time>
      </trkpt>
      <trkpt lat="48.00083" lon="6.56626">
        <ele>608</ele>
        <time>2018-09-13T06:12:57.000Z</time>
      </trkpt>
      <trkpt lat="48.00083" lon="6.56629">
        <ele>609</ele>
        <time>2018-09-13T06:12:58.000Z</time>
      </trkpt>
      <trkpt lat="48.00083" lon="6.56631">
        <ele>609</ele>
        <time>2018-09-13T06:12:59.000Z</time>
      </trkpt>
      <trkpt lat="48.00083" lon="6.56632">
        <ele>609</ele>
        <time>2018-09-13T06:13:00.000Z</time>
      </trkpt>
      <trkpt lat="48.00084" lon="6.56634">
        <ele>609</ele>
        <time>2018-09-13T06:13:01.000Z</time>
      </trkpt>
      <trkpt lat="48.00084" lon="6.56636">
        <ele>609</ele>
        <time>2018-09-13T06:13:02.000Z</time>
      </trkpt>
      <trkpt lat="48.00085" lon="6.56639">
        <ele>609</ele>
        <time>2018-09-13T06:13:03.000Z</time>
      </trkpt>
      <trkpt lat="48.00085" lon="6.56641">
        <ele>610</ele>
        <time>2018-09-13T06:13:04.000Z</time>
      </trkpt>
      <trkpt lat="48.00085" lon="6.56643">
        <ele>610</ele>
        <time>2018-09-13T06:13:05.000Z</time>
      </trkpt>
      <trkpt lat="48.00086" lon="6.56645">
        <ele>610</ele>
        <time>2018-09-13T06:13:06.000Z</time>
      </trkpt>
      <trkpt lat="48.00086" lon="6.56648">
        <ele>610</ele>
        <time>2018-09-13T06:13:07.000Z</time>
      </trkpt>
      <trkpt lat="48.00087" lon="6.5665">
        <ele>610</ele>
        <time>2018-09-13T06:13:08.000Z</time>
      </trkpt>
      <trkpt lat="48.00087" lon="6.56652">
        <ele>611</ele>
        <time>2018-09-13T06:13:09.000Z</time>
      </trkpt>
      <trkpt lat="48.00088" lon="6.56654">
        <ele>611</ele>
        <time>2018-09-13T06:13:10.000Z</time>
      </trkpt>
      <trkpt lat="48.00089" lon="6.56655">
        <ele>611</ele>
        <time>2018-09-13T06:13:11.000Z</time>
      </trkpt>
      <trkpt lat="48.00089" lon="6.56658">
        <ele>611</ele>
        <time>2018-09-13T06:13:12.000Z</time>
      </trkpt>
      <trkpt lat="48.0009" lon="6.56659">
        <ele>611</ele>
        <time>2018-09-13T06:13:13.000Z</time>
      </trkpt>
      <trkpt lat="48.00091" lon="6.56661">
        <ele>612</ele>
        <time>2018-09-13T06:13:14.000Z</time>
      </trkpt>
      <trkpt lat="48.00092" lon="6.56663">
        <ele>612</ele>
        <time>2018-09-13T06:13:15.000Z</time>
      </trkpt>
      <trkpt lat="48.00092" lon="6.56665">
        <ele>612</ele>
        <time>2018-09-13T06:13:16.000Z</time>
      </trkpt>
      <trkpt lat="48.00093" lon="6.56667">
        <ele>612</ele>
        <time>2018-09-13T06:13:17.000Z</time>
      </trkpt>
      <trkpt lat="48.00094" lon="6.56669">
        <ele>613</ele>
        <time>2018-09-13T06:13:18.000Z</time>
      </trkpt>
      <trkpt lat="48.00095" lon="6.56671">
        <ele>613</ele>
        <time>2018-09-13T06:13:19.000Z</time>
      </trkpt>
      <trkpt lat="48.00096" lon="6.56672">
        <ele>613</ele>
        <time>2018-09-13T06:13:20.000Z</time>
      </trkpt>
      <trkpt lat="48.00097" lon="6.56674">
        <ele>614</ele>
        <time>2018-09-13T06:13:21.000Z</time>
      </trkpt>
      <trkpt lat="48.00098" lon="6.56676">
        <ele>614</ele>
        <time>2018-09-13T06:13:22.000Z</time>
      </trkpt>
      <trkpt lat="48.00099" lon="6.56678">
        <ele>614</ele>
        <time>2018-09-13T06:13:23.000Z</time>
      </trkpt>
      <trkpt lat="48.00099" lon="6.5668">
        <ele>614</ele>
        <time>2018-09-13T06:13:24.000Z</time>
      </trkpt>
      <trkpt lat="48.001" lon="6.56682">
        <ele>615</ele>
        <time>2018-09-13T06:13:25.000Z</time>
      </trkpt>
      <trkpt lat="48.00102" lon="6.56684">
        <ele>615</ele>
        <time>2018-09-13T06:13:26.000Z</time>
      </trkpt>
      <trkpt lat="48.00103" lon="6.56686">
        <ele>615</ele>
        <time>2018-09-13T06:13:27.000Z</time>
      </trkpt>
      <trkpt lat="48.00104" lon="6.56687">
        <ele>616</ele>
        <time>2018-09-13T06:13:28.000Z</time>
      </trkpt>
      <trkpt lat="48.00105" lon="6.56689">
        <ele>616</ele>
        <time>2018-09-13T06:13:29.000Z</time>
      </trkpt>
      <trkpt lat="48.00106" lon="6.5669">
        <ele>616</ele>
        <time>2018-09-13T06:13:30.000Z</time>
      </trkpt>
      <trkpt lat="48.00107" lon="6.56691">
        <ele>616</ele>
        <time>2018-09-13T06:13:31.000Z</time>
      </trkpt>
      <trkpt lat="48.00108" lon="6.56693">
        <ele>617</ele>
        <time>2018-09-13T06:13:32.000Z</time>
      </trkpt>
      <trkpt lat="48.00109" lon="6.56694">
        <ele>617</ele>
        <time>2018-09-13T06:13:33.000Z</time>
      </trkpt>
      <trkpt lat="48.00109" lon="6.56696">
        <ele>617</ele>
        <time>2018-09-13T06:13:34.000Z</time>
      </trkpt>
      <trkpt lat="48.0011" lon="6.56698">
        <ele>617</ele>
        <time>2018-09-13T06:13:35.000Z</time>
      </trkpt>
      <trkpt lat="48.00111" lon="6.567">
        <ele>618</ele>
        <time>2018-09-13T06:13:36.000Z</time>
      </trkpt>
      <trkpt lat="48.00112" lon="6.56701">
        <ele>618</ele>
        <time>2018-09-13T06:13:37.000Z</time>
      </trkpt>
      <trkpt lat="48.00112" lon="6.56703">
        <ele>618</ele>
        <time>2018-09-13T06:13:38.000Z</time>
      </trkpt>
      <trkpt lat="48.00113" lon="6.56705">
        <ele>619</ele>
        <time>2018-09-13T06:13:39.000Z</time>
      </trkpt>
      <trkpt lat="48.00114" lon="6.56707">
        <ele>619</ele>
        <time>2018-09-13T06:13:40.000Z</time>
      </trkpt>
      <trkpt lat="48.00114" lon="6.56708">
        <ele>619</ele>
        <time>2018-09-13T06:13:41.000Z</time>
      </trkpt>
      <trkpt lat="48.00115" lon="6.5671">
        <ele>620</ele>
        <time>2018-09-13T06:13:42.000Z</time>
      </trkpt>
      <trkpt lat="48.00116" lon="6.56712">
        <ele>620</ele>
        <time>2018-09-13T06:13:43.000Z</time>
      </trkpt>
      <trkpt lat="48.00116" lon="6.56714">
        <ele>620</ele>
        <time>2018-09-13T06:13:44.000Z</time>
      </trkpt>
      <trkpt lat="48.00117" lon="6.56716">
        <ele>621</ele>
        <time>2018-09-13T06:13:45.000Z</time>
      </trkpt>
      <trkpt lat="48.00117" lon="6.56718">
        <ele>621</ele>
        <time>2018-09-13T06:13:46.000Z</time>
      </trkpt>
      <trkpt lat="48.00118" lon="6.5672">
        <ele>621</ele>
        <time>2018-09-13T06:13:47.000Z</time>
      </trkpt>
      <trkpt lat="48.00118" lon="6.56722">
        <ele>621</ele>
        <time>2018-09-13T06:13:48.000Z</time>
      </trkpt>
      <trkpt lat="48.00118" lon="6.56724">
        <ele>622</ele>
        <time>2018-09-13T06:13:49.000Z</time>
      </trkpt>
      <trkpt lat="48.00119" lon="6.56726">
        <ele>622</ele>
        <time>2018-09-13T06:13:50.000Z</time>
      </trkpt>
      <trkpt lat="48.00119" lon="6.56727">
        <ele>622</ele>
        <time>2018-09-13T06:13:51.000Z</time>
      </trkpt>
      <trkpt lat="48.0012" lon="6.56729">
        <ele>622</ele>
        <time>2018-09-13T06:13:52.000Z</time>
      </trkpt>
      <trkpt lat="48.00121" lon="6.56731">
        <ele>623</ele>
        <time>2018-09-13T06:13:53.000Z</time>
      </trkpt>
      <trkpt lat="48.00121" lon="6.56733">
        <ele>623</ele>
        <time>2018-09-13T06:13:54.000Z</time>
      </trkpt>
      <trkpt lat="48.00122" lon="6.56734">
        <ele>623</ele>
        <time>2018-09-13T06:13:55.000Z</time>
      </trkpt>
      <trkpt lat="48.00122" lon="6.56736">
        <ele>623</ele>
        <time>2018-09-13T06:13:56.000Z</time>
      </trkpt>
      <trkpt lat="48.00123" lon="6.56738">
        <ele>623</ele>
        <time>2018-09-13T06:13:57.000Z</time>
      </trkpt>
      <trkpt lat="48.00123" lon="6.5674">
        <ele>624</ele>
        <time>2018-09-13T06:13:58.000Z</time>
      </trkpt>
      <trkpt lat="48.00123" lon="6.56741">
        <ele>624</ele>
        <time>2018-09-13T06:13:59.000Z</time>
      </trkpt>
      <trkpt lat="48.00123" lon="6.56743">
        <ele>624</ele>
        <time>2018-09-13T06:14:00.000Z</time>
      </trkpt>
      <trkpt lat="48.00123" lon="6.56745">
        <ele>624</ele>
        <time>2018-09-13T06:14:01.000Z</time>
      </trkpt>
      <trkpt lat="48.00123" lon="6.56747">
        <ele>624</ele>
        <time>2018-09-13T06:14:02.000Z</time>
      </trkpt>
      <trkpt lat="48.00124" lon="6.56749">
        <ele>624</ele>
        <time>2018-09-13T06:14:03.000Z</time>
      </trkpt>
      <trkpt lat="48.00124" lon="6.56751">
        <ele>624</ele>
        <time>2018-09-13T06:14:04.000Z</time>
      </trkpt>
      <trkpt lat="48.00124" lon="6.56753">
        <ele>625</ele>
        <time>2018-09-13T06:14:05.000Z</time>
      </trkpt>
      <trkpt lat="48.00124" lon="6.56755">
        <ele>625</ele>
        <time>2018-09-13T06:14:06.000Z</time>
      </trkpt>
      <trkpt lat="48.00124" lon="6.56757">
        <ele>625</ele>
        <time>2018-09-13T06:14:07.000Z</time>
      </trkpt>
      <trkpt lat="48.00124" lon="6.5676">
        <ele>625</ele>
        <time>2018-09-13T06:14:08.000Z</time>
      </trkpt>
      <trkpt lat="48.00125" lon="6.56762">
        <ele>625</ele>
        <time>2018-09-13T06:14:09.000Z</time>
      </trkpt>
      <trkpt lat="48.00125" lon="6.56765">
        <ele>625</ele>
        <time>2018-09-13T06:14:10.000Z</time>
      </trkpt>
      <trkpt lat="48.00124" lon="6.56767">
        <ele>625</ele>
        <time>2018-09-13T06:14:11.000Z</time>
      </trkpt>
      <trkpt lat="48.00124" lon="6.56769">
        <ele>625</ele>
        <time>2018-09-13T06:14:12.000Z</time>
      </trkpt>
      <trkpt lat="48.00125" lon="6.56772">
        <ele>625</ele>
        <time>2018-09-13T06:14:13.000Z</time>
      </trkpt>
      <trkpt lat="48.00125" lon="6.56774">
        <ele>625</ele>
        <time>2018-09-13T06:14:14.000Z</time>
      </trkpt>
      <trkpt lat="48.00125" lon="6.56776">
        <ele>625</ele>
        <time>2018-09-13T06:14:15.000Z</time>
      </trkpt>
      <trkpt lat="48.00125" lon="6.56779">
        <ele>625</ele>
        <time>2018-09-13T06:14:16.000Z</time>
      </trkpt>
      <trkpt lat="48.00125" lon="6.56781">
        <ele>625</ele>
        <time>2018-09-13T06:14:17.000Z</time>
      </trkpt>
      <trkpt lat="48.00124" lon="6.56784">
        <ele>625</ele>
        <time>2018-09-13T06:14:18.000Z</time>
      </trkpt>
      <trkpt lat="48.00124" lon="6.56786">
        <ele>625</ele>
        <time>2018-09-13T06:14:19.000Z</time>
      </trkpt>
      <trkpt lat="48.00123" lon="6.56788">
        <ele>625</ele>
        <time>2018-09-13T06:14:20.000Z</time>
      </trkpt>
      <trkpt lat="48.00122" lon="6.5679">
        <ele>625</ele>
        <time>2018-09-13T06:14:21.000Z</time>
      </trkpt>
      <trkpt lat="48.00121" lon="6.56791">
        <ele>624</ele>
        <time>2018-09-13T06:14:22.000Z</time>
      </trkpt>
      <trkpt lat="48.00119" lon="6.56792">
        <ele>624</ele>
        <time>2018-09-13T06:14:23.000Z</time>
      </trkpt>
      <trkpt lat="48.00118" lon="6.56793">
        <ele>625</ele>
        <time>2018-09-13T06:14:24.000Z</time>
      </trkpt>
      <trkpt lat="48.00116" lon="6.56794">
        <ele>625</ele>
        <time>2018-09-13T06:14:25.000Z</time>
      </trkpt>
      <trkpt lat="48.00115" lon="6.56795">
        <ele>625</ele>
        <time>2018-09-13T06:14:26.000Z</time>
      </trkpt>
      <trkpt lat="48.00113" lon="6.56796">
        <ele>625</ele>
        <time>2018-09-13T06:14:27.000Z</time>
      </trkpt>
      <trkpt lat="48.00111" lon="6.56796">
        <ele>625</ele>
        <time>2018-09-13T06:14:28.000Z</time>
      </trkpt>
      <trkpt lat="48.00109" lon="6.56796">
        <ele>625</ele>
        <time>2018-09-13T06:14:29.000Z</time>
      </trkpt>
      <trkpt lat="48.00107" lon="6.56796">
        <ele>626</ele>
        <time>2018-09-13T06:14:30.000Z</time>
      </trkpt>
      <trkpt lat="48.00105" lon="6.56795">
        <ele>626</ele>
        <time>2018-09-13T06:14:31.000Z</time>
      </trkpt>
      <trkpt lat="48.00103" lon="6.56793">
        <ele>626</ele>
        <time>2018-09-13T06:14:32.000Z</time>
      </trkpt>
      <trkpt lat="48.00102" lon="6.56793">
        <ele>627</ele>
        <time>2018-09-13T06:14:33.000Z</time>
      </trkpt>
      <trkpt lat="48.001" lon="6.56792">
        <ele>627</ele>
        <time>2018-09-13T06:14:34.000Z</time>
      </trkpt>
      <trkpt lat="48.00099" lon="6.56791">
        <ele>627</ele>
        <time>2018-09-13T06:14:35.000Z</time>
      </trkpt>
      <trkpt lat="48.00097" lon="6.5679">
        <ele>627</ele>
        <time>2018-09-13T06:14:36.000Z</time>
      </trkpt>
      <trkpt lat="48.00096" lon="6.56788">
        <ele>628</ele>
        <time>2018-09-13T06:14:37.000Z</time>
      </trkpt>
      <trkpt lat="48.00094" lon="6.56787">
        <ele>628</ele>
        <time>2018-09-13T06:14:38.000Z</time>
      </trkpt>
      <trkpt lat="48.00093" lon="6.56786">
        <ele>628</ele>
        <time>2018-09-13T06:14:39.000Z</time>
      </trkpt>
      <trkpt lat="48.00092" lon="6.56785">
        <ele>628</ele>
        <time>2018-09-13T06:14:40.000Z</time>
      </trkpt>
      <trkpt lat="48.00091" lon="6.56784">
        <ele>629</ele>
        <time>2018-09-13T06:14:41.000Z</time>
      </trkpt>
      <trkpt lat="48.0009" lon="6.56783">
        <ele>629</ele>
        <time>2018-09-13T06:14:42.000Z</time>
      </trkpt>
      <trkpt lat="48.00089" lon="6.56782">
        <ele>629</ele>
        <time>2018-09-13T06:14:43.000Z</time>
      </trkpt>
      <trkpt lat="48.00087" lon="6.56781">
        <ele>629</ele>
        <time>2018-09-13T06:14:44.000Z</time>
      </trkpt>
      <trkpt lat="48.00086" lon="6.5678">
        <ele>629</ele>
        <time>2018-09-13T06:14:45.000Z</time>
      </trkpt>
      <trkpt lat="48.00084" lon="6.56779">
        <ele>629</ele>
        <time>2018-09-13T06:14:46.000Z</time>
      </trkpt>
      <trkpt lat="48.00083" lon="6.56778">
        <ele>629</ele>
        <time>2018-09-13T06:14:47.000Z</time>
      </trkpt>
      <trkpt lat="48.00082" lon="6.56778">
        <ele>630</ele>
        <time>2018-09-13T06:14:48.000Z</time>
      </trkpt>
      <trkpt lat="48.0008" lon="6.56777">
        <ele>630</ele>
        <time>2018-09-13T06:14:49.000Z</time>
      </trkpt>
      <trkpt lat="48.00079" lon="6.56776">
        <ele>630</ele>
        <time>2018-09-13T06:14:50.000Z</time>
      </trkpt>
      <trkpt lat="48.00077" lon="6.56776">
        <ele>630</ele>
        <time>2018-09-13T06:14:51.000Z</time>
      </trkpt>
      <trkpt lat="48.00076" lon="6.56775">
        <ele>630</ele>
        <time>2018-09-13T06:14:52.000Z</time>
      </trkpt>
      <trkpt lat="48.00075" lon="6.56775">
        <ele>630</ele>
        <time>2018-09-13T06:14:53.000Z</time>
      </trkpt>
      <trkpt lat="48.00073" lon="6.56774">
        <ele>631</ele>
        <time>2018-09-13T06:14:54.000Z</time>
      </trkpt>
      <trkpt lat="48.00072" lon="6.56774">
        <ele>631</ele>
        <time>2018-09-13T06:14:55.000Z</time>
      </trkpt>
      <trkpt lat="48.0007" lon="6.56774">
        <ele>631</ele>
        <time>2018-09-13T06:14:56.000Z</time>
      </trkpt>
      <trkpt lat="48.00069" lon="6.56774">
        <ele>631</ele>
        <time>2018-09-13T06:14:57.000Z</time>
      </trkpt>
      <trkpt lat="48.00067" lon="6.56773">
        <ele>631</ele>
        <time>2018-09-13T06:14:58.000Z</time>
      </trkpt>
      <trkpt lat="48.00065" lon="6.56773">
        <ele>631</ele>
        <time>2018-09-13T06:14:59.000Z</time>
      </trkpt>
      <trkpt lat="48.00064" lon="6.56773">
        <ele>632</ele>
        <time>2018-09-13T06:15:00.000Z</time>
      </trkpt>
      <trkpt lat="48.00062" lon="6.56772">
        <ele>632</ele>
        <time>2018-09-13T06:15:01.000Z</time>
      </trkpt>
      <trkpt lat="48.00061" lon="6.56772">
        <ele>632</ele>
        <time>2018-09-13T06:15:02.000Z</time>
      </trkpt>
      <trkpt lat="48.00059" lon="6.56771">
        <ele>632</ele>
        <time>2018-09-13T06:15:03.000Z</time>
      </trkpt>
      <trkpt lat="48.00058" lon="6.56771">
        <ele>632</ele>
        <time>2018-09-13T06:15:04.000Z</time>
      </trkpt>
      <trkpt lat="48.00056" lon="6.5677">
        <ele>632</ele>
        <time>2018-09-13T06:15:05.000Z</time>
      </trkpt>
      <trkpt lat="48.00055" lon="6.5677">
        <ele>632</ele>
        <time>2018-09-13T06:15:06.000Z</time>
      </trkpt>
      <trkpt lat="48.00053" lon="6.56769">
        <ele>632</ele>
        <time>2018-09-13T06:15:07.000Z</time>
      </trkpt>
      <trkpt lat="48.00051" lon="6.56769">
        <ele>632</ele>
        <time>2018-09-13T06:15:08.000Z</time>
      </trkpt>
      <trkpt lat="48.0005" lon="6.56769">
        <ele>632</ele>
        <time>2018-09-13T06:15:09.000Z</time>
      </trkpt>
      <trkpt lat="48.00048" lon="6.5677">
        <ele>632</ele>
        <time>2018-09-13T06:15:10.000Z</time>
      </trkpt>
      <trkpt lat="48.00047" lon="6.5677">
        <ele>633</ele>
        <time>2018-09-13T06:15:11.000Z</time>
      </trkpt>
      <trkpt lat="48.00045" lon="6.5677">
        <ele>633</ele>
        <time>2018-09-13T06:15:12.000Z</time>
      </trkpt>
      <trkpt lat="48.00043" lon="6.5677">
        <ele>633</ele>
        <time>2018-09-13T06:15:13.000Z</time>
      </trkpt>
      <trkpt lat="48.00042" lon="6.56771">
        <ele>633</ele>
        <time>2018-09-13T06:15:14.000Z</time>
      </trkpt>
      <trkpt lat="48.0004" lon="6.56771">
        <ele>633</ele>
        <time>2018-09-13T06:15:15.000Z</time>
      </trkpt>
      <trkpt lat="48.00039" lon="6.56771">
        <ele>633</ele>
        <time>2018-09-13T06:15:16.000Z</time>
      </trkpt>
      <trkpt lat="48.00037" lon="6.5677">
        <ele>634</ele>
        <time>2018-09-13T06:15:17.000Z</time>
      </trkpt>
      <trkpt lat="48.00036" lon="6.5677">
        <ele>634</ele>
        <time>2018-09-13T06:15:18.000Z</time>
      </trkpt>
      <trkpt lat="48.00035" lon="6.5677">
        <ele>634</ele>
        <time>2018-09-13T06:15:19.000Z</time>
      </trkpt>
      <trkpt lat="48.00033" lon="6.56771">
        <ele>634</ele>
        <time>2018-09-13T06:15:20.000Z</time>
      </trkpt>
      <trkpt lat="48.00031" lon="6.56771">
        <ele>634</ele>
        <time>2018-09-13T06:15:21.000Z</time>
      </trkpt>
      <trkpt lat="48.0003" lon="6.56772">
        <ele>634</ele>
        <time>2018-09-13T06:15:22.000Z</time>
      </trkpt>
      <trkpt lat="48.00028" lon="6.56772">
        <ele>635</ele>
        <time>2018-09-13T06:15:23.000Z</time>
      </trkpt>
      <trkpt lat="48.00026" lon="6.56773">
        <ele>635</ele>
        <time>2018-09-13T06:15:24.000Z</time>
      </trkpt>
      <trkpt lat="48.00024" lon="6.56773">
        <ele>635</ele>
        <time>2018-09-13T06:15:25.000Z</time>
      </trkpt>
      <trkpt lat="48.00023" lon="6.56774">
        <ele>635</ele>
        <time>2018-09-13T06:15:26.000Z</time>
      </trkpt>
      <trkpt lat="48.00021" lon="6.56774">
        <ele>635</ele>
        <time>2018-09-13T06:15:27.000Z</time>
      </trkpt>
      <trkpt lat="48.00019" lon="6.56774">
        <ele>635</ele>
        <time>2018-09-13T06:15:28.000Z</time>
      </trkpt>
      <trkpt lat="48.00018" lon="6.56775">
        <ele>635</ele>
        <time>2018-09-13T06:15:29.000Z</time>
      </trkpt>
      <trkpt lat="48.00017" lon="6.56775">
        <ele>636</ele>
        <time>2018-09-13T06:15:30.000Z</time>
      </trkpt>
      <trkpt lat="48.00016" lon="6.56776">
        <ele>636</ele>
        <time>2018-09-13T06:15:31.000Z</time>
      </trkpt>
      <trkpt lat="48.00014" lon="6.56776">
        <ele>636</ele>
        <time>2018-09-13T06:15:32.000Z</time>
      </trkpt>
      <trkpt lat="48.00013" lon="6.56777">
        <ele>636</ele>
        <time>2018-09-13T06:15:33.000Z</time>
      </trkpt>
      <trkpt lat="48.00011" lon="6.56778">
        <ele>636</ele>
        <time>2018-09-13T06:15:34.000Z</time>
      </trkpt>
      <trkpt lat="48.0001" lon="6.56778">
        <ele>636</ele>
        <time>2018-09-13T06:15:35.000Z</time>
      </trkpt>
      <trkpt lat="48.00009" lon="6.56779">
        <ele>636</ele>
        <time>2018-09-13T06:15:36.000Z</time>
      </trkpt>
      <trkpt lat="48.00007" lon="6.5678">
        <ele>636</ele>
        <time>2018-09-13T06:15:37.000Z</time>
      </trkpt>
      <trkpt lat="48.00006" lon="6.56781">
        <ele>636</ele>
        <time>2018-09-13T06:15:38.000Z</time>
      </trkpt>
      <trkpt lat="48.00005" lon="6.56782">
        <ele>636</ele>
        <time>2018-09-13T06:15:39.000Z</time>
      </trkpt>
      <trkpt lat="48.00004" lon="6.56783">
        <ele>636</ele>
        <time>2018-09-13T06:15:40.000Z</time>
      </trkpt>
      <trkpt lat="48.00002" lon="6.56784">
        <ele>637</ele>
        <time>2018-09-13T06:15:41.000Z</time>
      </trkpt>
      <trkpt lat="48.00001" lon="6.56785">
        <ele>637</ele>
        <time>2018-09-13T06:15:42.000Z</time>
      </trkpt>
      <trkpt lat="47.99999" lon="6.56786">
        <ele>637</ele>
        <time>2018-09-13T06:15:43.000Z</time>
      </trkpt>
      <trkpt lat="47.99997" lon="6.56787">
        <ele>637</ele>
        <time>2018-09-13T06:15:44.000Z</time>
      </trkpt>
      <trkpt lat="47.99995" lon="6.56787">
        <ele>637</ele>
        <time>2018-09-13T06:15:45.000Z</time>
      </trkpt>
      <trkpt lat="47.99994" lon="6.56788">
        <ele>637</ele>
        <time>2018-09-13T06:15:46.000Z</time>
      </trkpt>
      <trkpt lat="47.99992" lon="6.56789">
        <ele>637</ele>
        <time>2018-09-13T06:15:47.000Z</time>
      </trkpt>
      <trkpt lat="47.99991" lon="6.56789">
        <ele>637</ele>
        <time>2018-09-13T06:15:48.000Z</time>
      </trkpt>
      <trkpt lat="47.99989" lon="6.5679">
        <ele>637</ele>
        <time>2018-09-13T06:15:49.000Z</time>
      </trkpt>
      <trkpt lat="47.99988" lon="6.5679">
        <ele>637</ele>
        <time>2018-09-13T06:15:50.000Z</time>
      </trkpt>
      <trkpt lat="47.99986" lon="6.56791">
        <ele>637</ele>
        <time>2018-09-13T06:15:51.000Z</time>
      </trkpt>
      <trkpt lat="47.99985" lon="6.56791">
        <ele>637</ele>
        <time>2018-09-13T06:15:52.000Z</time>
      </trkpt>
      <trkpt lat="47.99983" lon="6.56792">
        <ele>637</ele>
        <time>2018-09-13T06:15:53.000Z</time>
      </trkpt>
      <trkpt lat="47.99982" lon="6.56792">
        <ele>638</ele>
        <time>2018-09-13T06:15:54.000Z</time>
      </trkpt>
      <trkpt lat="47.9998" lon="6.56792">
        <ele>638</ele>
        <time>2018-09-13T06:15:55.000Z</time>
      </trkpt>
      <trkpt lat="47.99978" lon="6.56793">
        <ele>638</ele>
        <time>2018-09-13T06:15:56.000Z</time>
      </trkpt>
      <trkpt lat="47.99977" lon="6.56793">
        <ele>638</ele>
        <time>2018-09-13T06:15:57.000Z</time>
      </trkpt>
      <trkpt lat="47.99975" lon="6.56793">
        <ele>638</ele>
        <time>2018-09-13T06:15:58.000Z</time>
      </trkpt>
      <trkpt lat="47.99973" lon="6.56793">
        <ele>638</ele>
        <time>2018-09-13T06:15:59.000Z</time>
      </trkpt>
      <trkpt lat="47.99971" lon="6.56794">
        <ele>638</ele>
        <time>2018-09-13T06:16:00.000Z</time>
      </trkpt>
      <trkpt lat="47.99969" lon="6.56794">
        <ele>639</ele>
        <time>2018-09-13T06:16:01.000Z</time>
      </trkpt>
      <trkpt lat="47.99968" lon="6.56794">
        <ele>639</ele>
        <time>2018-09-13T06:16:02.000Z</time>
      </trkpt>
      <trkpt lat="47.99966" lon="6.56795">
        <ele>639</ele>
        <time>2018-09-13T06:16:03.000Z</time>
      </trkpt>
      <trkpt lat="47.99964" lon="6.56795">
        <ele>639</ele>
        <time>2018-09-13T06:16:04.000Z</time>
      </trkpt>
      <trkpt lat="47.99962" lon="6.56796">
        <ele>639</ele>
        <time>2018-09-13T06:16:05.000Z</time>
      </trkpt>
      <trkpt lat="47.9996" lon="6.56797">
        <ele>639</ele>
        <time>2018-09-13T06:16:06.000Z</time>
      </trkpt>
      <trkpt lat="47.99958" lon="6.56798">
        <ele>639</ele>
        <time>2018-09-13T06:16:07.000Z</time>
      </trkpt>
      <trkpt lat="47.99957" lon="6.56799">
        <ele>639</ele>
        <time>2018-09-13T06:16:08.000Z</time>
      </trkpt>
      <trkpt lat="47.99955" lon="6.568">
        <ele>639</ele>
        <time>2018-09-13T06:16:09.000Z</time>
      </trkpt>
      <trkpt lat="47.99953" lon="6.56801">
        <ele>639</ele>
        <time>2018-09-13T06:16:10.000Z</time>
      </trkpt>
      <trkpt lat="47.99952" lon="6.56801">
        <ele>639</ele>
        <time>2018-09-13T06:16:11.000Z</time>
      </trkpt>
      <trkpt lat="47.9995" lon="6.56802">
        <ele>639</ele>
        <time>2018-09-13T06:16:12.000Z</time>
      </trkpt>
      <trkpt lat="47.99949" lon="6.56803">
        <ele>639</ele>
        <time>2018-09-13T06:16:13.000Z</time>
      </trkpt>
      <trkpt lat="47.99948" lon="6.56804">
        <ele>639</ele>
        <time>2018-09-13T06:16:14.000Z</time>
      </trkpt>
      <trkpt lat="47.99947" lon="6.56805">
        <ele>639</ele>
        <time>2018-09-13T06:16:15.000Z</time>
      </trkpt>
      <trkpt lat="47.99945" lon="6.56805">
        <ele>639</ele>
        <time>2018-09-13T06:16:16.000Z</time>
      </trkpt>
      <trkpt lat="47.99944" lon="6.56806">
        <ele>639</ele>
        <time>2018-09-13T06:16:17.000Z</time>
      </trkpt>
      <trkpt lat="47.99943" lon="6.56807">
        <ele>639</ele>
        <time>2018-09-13T06:16:18.000Z</time>
      </trkpt>
      <trkpt lat="47.99942" lon="6.56808">
        <ele>639</ele>
        <time>2018-09-13T06:16:19.000Z</time>
      </trkpt>
      <trkpt lat="47.9994" lon="6.56809">
        <ele>639</ele>
        <time>2018-09-13T06:16:20.000Z</time>
      </trkpt>
      <trkpt lat="47.99939" lon="6.5681">
        <ele>640</ele>
        <time>2018-09-13T06:16:21.000Z</time>
      </trkpt>
      <trkpt lat="47.99937" lon="6.5681">
        <ele>640</ele>
        <time>2018-09-13T06:16:22.000Z</time>
      </trkpt>
      <trkpt lat="47.99936" lon="6.56811">
        <ele>640</ele>
        <time>2018-09-13T06:16:23.000Z</time>
      </trkpt>
      <trkpt lat="47.99934" lon="6.56812">
        <ele>640</ele>
        <time>2018-09-13T06:16:24.000Z</time>
      </trkpt>
      <trkpt lat="47.99932" lon="6.56813">
        <ele>640</ele>
        <time>2018-09-13T06:16:25.000Z</time>
      </trkpt>
      <trkpt lat="47.99931" lon="6.56814">
        <ele>640</ele>
        <time>2018-09-13T06:16:26.000Z</time>
      </trkpt>
      <trkpt lat="47.99929" lon="6.56815">
        <ele>640</ele>
        <time>2018-09-13T06:16:27.000Z</time>
      </trkpt>
      <trkpt lat="47.99928" lon="6.56817">
        <ele>640</ele>
        <time>2018-09-13T06:16:28.000Z</time>
      </trkpt>
      <trkpt lat="47.99927" lon="6.56818">
        <ele>640</ele>
        <time>2018-09-13T06:16:29.000Z</time>
      </trkpt>
      <trkpt lat="47.99925" lon="6.56819">
        <ele>641</ele>
        <time>2018-09-13T06:16:30.000Z</time>
      </trkpt>
      <trkpt lat="47.99924" lon="6.56821">
        <ele>641</ele>
        <time>2018-09-13T06:16:31.000Z</time>
      </trkpt>
      <trkpt lat="47.99922" lon="6.56822">
        <ele>641</ele>
        <time>2018-09-13T06:16:32.000Z</time>
      </trkpt>
      <trkpt lat="47.99921" lon="6.56824">
        <ele>641</ele>
        <time>2018-09-13T06:16:33.000Z</time>
      </trkpt>
      <trkpt lat="47.99919" lon="6.56826">
        <ele>641</ele>
        <time>2018-09-13T06:16:34.000Z</time>
      </trkpt>
      <trkpt lat="47.99918" lon="6.56828">
        <ele>641</ele>
        <time>2018-09-13T06:16:35.000Z</time>
      </trkpt>
      <trkpt lat="47.99917" lon="6.5683">
        <ele>641</ele>
        <time>2018-09-13T06:16:36.000Z</time>
      </trkpt>
      <trkpt lat="47.99915" lon="6.56832">
        <ele>641</ele>
        <time>2018-09-13T06:16:37.000Z</time>
      </trkpt>
      <trkpt lat="47.99914" lon="6.56833">
        <ele>641</ele>
        <time>2018-09-13T06:16:38.000Z</time>
      </trkpt>
      <trkpt lat="47.99913" lon="6.56835">
        <ele>642</ele>
        <time>2018-09-13T06:16:39.000Z</time>
      </trkpt>
      <trkpt lat="47.99912" lon="6.56836">
        <ele>642</ele>
        <time>2018-09-13T06:16:40.000Z</time>
      </trkpt>
      <trkpt lat="47.99911" lon="6.56837">
        <ele>642</ele>
        <time>2018-09-13T06:16:41.000Z</time>
      </trkpt>
      <trkpt lat="47.9991" lon="6.56839">
        <ele>642</ele>
        <time>2018-09-13T06:16:42.000Z</time>
      </trkpt>
      <trkpt lat="47.99909" lon="6.5684">
        <ele>642</ele>
        <time>2018-09-13T06:16:43.000Z</time>
      </trkpt>
      <trkpt lat="47.99908" lon="6.56842">
        <ele>642</ele>
        <time>2018-09-13T06:16:44.000Z</time>
      </trkpt>
      <trkpt lat="47.99907" lon="6.56843">
        <ele>642</ele>
        <time>2018-09-13T06:16:45.000Z</time>
      </trkpt>
      <trkpt lat="47.99906" lon="6.56844">
        <ele>642</ele>
        <time>2018-09-13T06:16:46.000Z</time>
      </trkpt>
      <trkpt lat="47.99905" lon="6.56845">
        <ele>642</ele>
        <time>2018-09-13T06:16:47.000Z</time>
      </trkpt>
      <trkpt lat="47.99904" lon="6.56846">
        <ele>642</ele>
        <time>2018-09-13T06:16:48.000Z</time>
      </trkpt>
      <trkpt lat="47.99903" lon="6.56848">
        <ele>642</ele>
        <time>2018-09-13T06:16:49.000Z</time>
      </trkpt>
      <trkpt lat="47.99901" lon="6.56849">
        <ele>642</ele>
        <time>2018-09-13T06:16:50.000Z</time>
      </trkpt>
      <trkpt lat="47.999" lon="6.5685">
        <ele>642</ele>
        <time>2018-09-13T06:16:51.000Z</time>
      </trkpt>
      <trkpt lat="47.99899" lon="6.56852">
        <ele>642</ele>
        <time>2018-09-13T06:16:52.000Z</time>
      </trkpt>
      <trkpt lat="47.99899" lon="6.56853">
        <ele>643</ele>
        <time>2018-09-13T06:16:53.000Z</time>
      </trkpt>
      <trkpt lat="47.99898" lon="6.56855">
        <ele>643</ele>
        <time>2018-09-13T06:16:54.000Z</time>
      </trkpt>
      <trkpt lat="47.99897" lon="6.56857">
        <ele>643</ele>
        <time>2018-09-13T06:16:55.000Z</time>
      </trkpt>
      <trkpt lat="47.99896" lon="6.56858">
        <ele>643</ele>
        <time>2018-09-13T06:16:56.000Z</time>
      </trkpt>
      <trkpt lat="47.99895" lon="6.5686">
        <ele>643</ele>
        <time>2018-09-13T06:16:57.000Z</time>
      </trkpt>
      <trkpt lat="47.99894" lon="6.56861">
        <ele>643</ele>
        <time>2018-09-13T06:16:58.000Z</time>
      </trkpt>
      <trkpt lat="47.99892" lon="6.56863">
        <ele>643</ele>
        <time>2018-09-13T06:16:59.000Z</time>
      </trkpt>
      <trkpt lat="47.99891" lon="6.56864">
        <ele>643</ele>
        <time>2018-09-13T06:17:00.000Z</time>
      </trkpt>
      <trkpt lat="47.9989" lon="6.56865">
        <ele>643</ele>
        <time>2018-09-13T06:17:01.000Z</time>
      </trkpt>
      <trkpt lat="47.99889" lon="6.56866">
        <ele>643</ele>
        <time>2018-09-13T06:17:02.000Z</time>
      </trkpt>
      <trkpt lat="47.99888" lon="6.56868">
        <ele>643</ele>
        <time>2018-09-13T06:17:03.000Z</time>
      </trkpt>
      <trkpt lat="47.99886" lon="6.56869">
        <ele>644</ele>
        <time>2018-09-13T06:17:04.000Z</time>
      </trkpt>
      <trkpt lat="47.99885" lon="6.5687">
        <ele>644</ele>
        <time>2018-09-13T06:17:05.000Z</time>
      </trkpt>
      <trkpt lat="47.99884" lon="6.56872">
        <ele>644</ele>
        <time>2018-09-13T06:17:06.000Z</time>
      </trkpt>
      <trkpt lat="47.99882" lon="6.56873">
        <ele>644</ele>
        <time>2018-09-13T06:17:07.000Z</time>
      </trkpt>
      <trkpt lat="47.99881" lon="6.56874">
        <ele>644</ele>
        <time>2018-09-13T06:17:08.000Z</time>
      </trkpt>
      <trkpt lat="47.99879" lon="6.56876">
        <ele>644</ele>
        <time>2018-09-13T06:17:09.000Z</time>
      </trkpt>
      <trkpt lat="47.99878" lon="6.56877">
        <ele>644</ele>
        <time>2018-09-13T06:17:10.000Z</time>
      </trkpt>
      <trkpt lat="47.99877" lon="6.56878">
        <ele>644</ele>
        <time>2018-09-13T06:17:11.000Z</time>
      </trkpt>
      <trkpt lat="47.99875" lon="6.56879">
        <ele>644</ele>
        <time>2018-09-13T06:17:12.000Z</time>
      </trkpt>
      <trkpt lat="47.99874" lon="6.5688">
        <ele>644</ele>
        <time>2018-09-13T06:17:13.000Z</time>
      </trkpt>
      <trkpt lat="47.99873" lon="6.56881">
        <ele>644</ele>
        <time>2018-09-13T06:17:14.000Z</time>
      </trkpt>
      <trkpt lat="47.99872" lon="6.56881">
        <ele>645</ele>
        <time>2018-09-13T06:17:15.000Z</time>
      </trkpt>
      <trkpt lat="47.99871" lon="6.56881">
        <ele>645</ele>
        <time>2018-09-13T06:17:16.000Z</time>
      </trkpt>
      <trkpt lat="47.99869" lon="6.56882">
        <ele>645</ele>
        <time>2018-09-13T06:17:17.000Z</time>
      </trkpt>
      <trkpt lat="47.99868" lon="6.56883">
        <ele>645</ele>
        <time>2018-09-13T06:17:18.000Z</time>
      </trkpt>
      <trkpt lat="47.99866" lon="6.56883">
        <ele>645</ele>
        <time>2018-09-13T06:17:19.000Z</time>
      </trkpt>
      <trkpt lat="47.99864" lon="6.56884">
        <ele>645</ele>
        <time>2018-09-13T06:17:20.000Z</time>
      </trkpt>
      <trkpt lat="47.99863" lon="6.56884">
        <ele>645</ele>
        <time>2018-09-13T06:17:21.000Z</time>
      </trkpt>
      <trkpt lat="47.99861" lon="6.56885">
        <ele>645</ele>
        <time>2018-09-13T06:17:22.000Z</time>
      </trkpt>
      <trkpt lat="47.9986" lon="6.56885">
        <ele>645</ele>
        <time>2018-09-13T06:17:23.000Z</time>
      </trkpt>
      <trkpt lat="47.99858" lon="6.56885">
        <ele>645</ele>
        <time>2018-09-13T06:17:24.000Z</time>
      </trkpt>
      <trkpt lat="47.99857" lon="6.56886">
        <ele>645</ele>
        <time>2018-09-13T06:17:25.000Z</time>
      </trkpt>
      <trkpt lat="47.99855" lon="6.56886">
        <ele>645</ele>
        <time>2018-09-13T06:17:26.000Z</time>
      </trkpt>
      <trkpt lat="47.99853" lon="6.56886">
        <ele>645</ele>
        <time>2018-09-13T06:17:27.000Z</time>
      </trkpt>
      <trkpt lat="47.99852" lon="6.56887">
        <ele>645</ele>
        <time>2018-09-13T06:17:28.000Z</time>
      </trkpt>
      <trkpt lat="47.9985" lon="6.56887">
        <ele>645</ele>
        <time>2018-09-13T06:17:29.000Z</time>
      </trkpt>
      <trkpt lat="47.99848" lon="6.56887">
        <ele>645</ele>
        <time>2018-09-13T06:17:30.000Z</time>
      </trkpt>
      <trkpt lat="47.99846" lon="6.56887">
        <ele>645</ele>
        <time>2018-09-13T06:17:31.000Z</time>
      </trkpt>
      <trkpt lat="47.99845" lon="6.56888">
        <ele>645</ele>
        <time>2018-09-13T06:17:32.000Z</time>
      </trkpt>
      <trkpt lat="47.99843" lon="6.56888">
        <ele>645</ele>
        <time>2018-09-13T06:17:33.000Z</time>
      </trkpt>
      <trkpt lat="47.99842" lon="6.56889">
        <ele>645</ele>
        <time>2018-09-13T06:17:34.000Z</time>
      </trkpt>
      <trkpt lat="47.9984" lon="6.56889">
        <ele>645</ele>
        <time>2018-09-13T06:17:35.000Z</time>
      </trkpt>
      <trkpt lat="47.99838" lon="6.5689">
        <ele>645</ele>
        <time>2018-09-13T06:17:36.000Z</time>
      </trkpt>
      <trkpt lat="47.99837" lon="6.5689">
        <ele>645</ele>
        <time>2018-09-13T06:17:37.000Z</time>
      </trkpt>
      <trkpt lat="47.99835" lon="6.56891">
        <ele>645</ele>
        <time>2018-09-13T06:17:38.000Z</time>
      </trkpt>
      <trkpt lat="47.99833" lon="6.56892">
        <ele>645</ele>
        <time>2018-09-13T06:17:39.000Z</time>
      </trkpt>
      <trkpt lat="47.99831" lon="6.56892">
        <ele>645</ele>
        <time>2018-09-13T06:17:40.000Z</time>
      </trkpt>
      <trkpt lat="47.99829" lon="6.56892">
        <ele>645</ele>
        <time>2018-09-13T06:17:41.000Z</time>
      </trkpt>
      <trkpt lat="47.99827" lon="6.56892">
        <ele>645</ele>
        <time>2018-09-13T06:17:42.000Z</time>
      </trkpt>
      <trkpt lat="47.99825" lon="6.56893">
        <ele>645</ele>
        <time>2018-09-13T06:17:43.000Z</time>
      </trkpt>
      <trkpt lat="47.99823" lon="6.56893">
        <ele>645</ele>
        <time>2018-09-13T06:17:44.000Z</time>
      </trkpt>
      <trkpt lat="47.99821" lon="6.56893">
        <ele>645</ele>
        <time>2018-09-13T06:17:45.000Z</time>
      </trkpt>
      <trkpt lat="47.99819" lon="6.56894">
        <ele>645</ele>
        <time>2018-09-13T06:17:46.000Z</time>
      </trkpt>
      <trkpt lat="47.99818" lon="6.56894">
        <ele>645</ele>
        <time>2018-09-13T06:17:47.000Z</time>
      </trkpt>
      <trkpt lat="47.99816" lon="6.56894">
        <ele>645</ele>
        <time>2018-09-13T06:17:48.000Z</time>
      </trkpt>
      <trkpt lat="47.99815" lon="6.56894">
        <ele>645</ele>
        <time>2018-09-13T06:17:49.000Z</time>
      </trkpt>
      <trkpt lat="47.99813" lon="6.56893">
        <ele>645</ele>
        <time>2018-09-13T06:17:50.000Z</time>
      </trkpt>
      <trkpt lat="47.99811" lon="6.56893">
        <ele>645</ele>
        <time>2018-09-13T06:17:51.000Z</time>
      </trkpt>
      <trkpt lat="47.99809" lon="6.56893">
        <ele>645</ele>
        <time>2018-09-13T06:17:52.000Z</time>
      </trkpt>
      <trkpt lat="47.99807" lon="6.56893">
        <ele>645</ele>
        <time>2018-09-13T06:17:53.000Z</time>
      </trkpt>
      <trkpt lat="47.99806" lon="6.56893">
        <ele>645</ele>
        <time>2018-09-13T06:17:54.000Z</time>
      </trkpt>
      <trkpt lat="47.99804" lon="6.56893">
        <ele>646</ele>
        <time>2018-09-13T06:17:55.000Z</time>
      </trkpt>
      <trkpt lat="47.99802" lon="6.56892">
        <ele>646</ele>
        <time>2018-09-13T06:17:56.000Z</time>
      </trkpt>
      <trkpt lat="47.998" lon="6.56892">
        <ele>646</ele>
        <time>2018-09-13T06:17:57.000Z</time>
      </trkpt>
      <trkpt lat="47.99798" lon="6.56892">
        <ele>646</ele>
        <time>2018-09-13T06:17:58.000Z</time>
      </trkpt>
      <trkpt lat="47.99796" lon="6.56891">
        <ele>646</ele>
        <time>2018-09-13T06:17:59.000Z</time>
      </trkpt>
      <trkpt lat="47.99795" lon="6.5689">
        <ele>646</ele>
        <time>2018-09-13T06:18:00.000Z</time>
      </trkpt>
      <trkpt lat="47.99793" lon="6.5689">
        <ele>646</ele>
        <time>2018-09-13T06:18:01.000Z</time>
      </trkpt>
      <trkpt lat="47.99792" lon="6.5689">
        <ele>646</ele>
        <time>2018-09-13T06:18:02.000Z</time>
      </trkpt>
      <trkpt lat="47.9979" lon="6.56889">
        <ele>646</ele>
        <time>2018-09-13T06:18:03.000Z</time>
      </trkpt>
      <trkpt lat="47.99789" lon="6.56889">
        <ele>646</ele>
        <time>2018-09-13T06:18:04.000Z</time>
      </trkpt>
      <trkpt lat="47.99787" lon="6.56889">
        <ele>646</ele>
        <time>2018-09-13T06:18:05.000Z</time>
      </trkpt>
      <trkpt lat="47.99785" lon="6.56889">
        <ele>646</ele>
        <time>2018-09-13T06:18:06.000Z</time>
      </trkpt>
      <trkpt lat="47.99783" lon="6.56889">
        <ele>646</ele>
        <time>2018-09-13T06:18:07.000Z</time>
      </trkpt>
      <trkpt lat="47.99782" lon="6.56889">
        <ele>646</ele>
        <time>2018-09-13T06:18:08.000Z</time>
      </trkpt>
      <trkpt lat="47.9978" lon="6.56889">
        <ele>646</ele>
        <time>2018-09-13T06:18:09.000Z</time>
      </trkpt>
      <trkpt lat="47.99779" lon="6.56889">
        <ele>646</ele>
        <time>2018-09-13T06:18:10.000Z</time>
      </trkpt>
      <trkpt lat="47.99777" lon="6.56889">
        <ele>646</ele>
        <time>2018-09-13T06:18:11.000Z</time>
      </trkpt>
      <trkpt lat="47.99776" lon="6.56889">
        <ele>647</ele>
        <time>2018-09-13T06:18:12.000Z</time>
      </trkpt>
      <trkpt lat="47.99774" lon="6.56889">
        <ele>647</ele>
        <time>2018-09-13T06:18:13.000Z</time>
      </trkpt>
      <trkpt lat="47.99772" lon="6.56889">
        <ele>647</ele>
        <time>2018-09-13T06:18:14.000Z</time>
      </trkpt>
      <trkpt lat="47.9977" lon="6.56889">
        <ele>647</ele>
        <time>2018-09-13T06:18:15.000Z</time>
      </trkpt>
      <trkpt lat="47.99769" lon="6.56889">
        <ele>647</ele>
        <time>2018-09-13T06:18:16.000Z</time>
      </trkpt>
      <trkpt lat="47.99766" lon="6.56889">
        <ele>647</ele>
        <time>2018-09-13T06:18:17.000Z</time>
      </trkpt>
      <trkpt lat="47.99764" lon="6.56888">
        <ele>647</ele>
        <time>2018-09-13T06:18:18.000Z</time>
      </trkpt>
      <trkpt lat="47.99763" lon="6.56888">
        <ele>648</ele>
        <time>2018-09-13T06:18:19.000Z</time>
      </trkpt>
      <trkpt lat="47.99761" lon="6.56888">
        <ele>648</ele>
        <time>2018-09-13T06:18:20.000Z</time>
      </trkpt>
      <trkpt lat="47.99759" lon="6.56887">
        <ele>648</ele>
        <time>2018-09-13T06:18:21.000Z</time>
      </trkpt>
      <trkpt lat="47.99757" lon="6.56887">
        <ele>648</ele>
        <time>2018-09-13T06:18:22.000Z</time>
      </trkpt>
      <trkpt lat="47.99755" lon="6.56887">
        <ele>648</ele>
        <time>2018-09-13T06:18:23.000Z</time>
      </trkpt>
      <trkpt lat="47.99754" lon="6.56887">
        <ele>648</ele>
        <time>2018-09-13T06:18:24.000Z</time>
      </trkpt>
      <trkpt lat="47.99752" lon="6.56886">
        <ele>648</ele>
        <time>2018-09-13T06:18:25.000Z</time>
      </trkpt>
      <trkpt lat="47.9975" lon="6.56886">
        <ele>648</ele>
        <time>2018-09-13T06:18:26.000Z</time>
      </trkpt>
      <trkpt lat="47.99749" lon="6.56886">
        <ele>649</ele>
        <time>2018-09-13T06:18:27.000Z</time>
      </trkpt>
      <trkpt lat="47.99747" lon="6.56886">
        <ele>649</ele>
        <time>2018-09-13T06:18:28.000Z</time>
      </trkpt>
      <trkpt lat="47.99745" lon="6.56885">
        <ele>649</ele>
        <time>2018-09-13T06:18:29.000Z</time>
      </trkpt>
      <trkpt lat="47.99743" lon="6.56885">
        <ele>649</ele>
        <time>2018-09-13T06:18:30.000Z</time>
      </trkpt>
      <trkpt lat="47.99741" lon="6.56885">
        <ele>649</ele>
        <time>2018-09-13T06:18:31.000Z</time>
      </trkpt>
      <trkpt lat="47.99739" lon="6.56884">
        <ele>649</ele>
        <time>2018-09-13T06:18:32.000Z</time>
      </trkpt>
      <trkpt lat="47.99738" lon="6.56884">
        <ele>649</ele>
        <time>2018-09-13T06:18:33.000Z</time>
      </trkpt>
      <trkpt lat="47.99736" lon="6.56883">
        <ele>649</ele>
        <time>2018-09-13T06:18:34.000Z</time>
      </trkpt>
      <trkpt lat="47.99734" lon="6.56883">
        <ele>649</ele>
        <time>2018-09-13T06:18:35.000Z</time>
      </trkpt>
      <trkpt lat="47.99732" lon="6.56883">
        <ele>649</ele>
        <time>2018-09-13T06:18:36.000Z</time>
      </trkpt>
      <trkpt lat="47.9973" lon="6.56882">
        <ele>649</ele>
        <time>2018-09-13T06:18:37.000Z</time>
      </trkpt>
      <trkpt lat="47.99728" lon="6.56881">
        <ele>649</ele>
        <time>2018-09-13T06:18:38.000Z</time>
      </trkpt>
      <trkpt lat="47.99727" lon="6.56881">
        <ele>649</ele>
        <time>2018-09-13T06:18:39.000Z</time>
      </trkpt>
      <trkpt lat="47.99725" lon="6.56881">
        <ele>649</ele>
        <time>2018-09-13T06:18:40.000Z</time>
      </trkpt>
      <trkpt lat="47.99723" lon="6.5688">
        <ele>649</ele>
        <time>2018-09-13T06:18:41.000Z</time>
      </trkpt>
      <trkpt lat="47.99722" lon="6.5688">
        <ele>649</ele>
        <time>2018-09-13T06:18:42.000Z</time>
      </trkpt>
      <trkpt lat="47.9972" lon="6.5688">
        <ele>649</ele>
        <time>2018-09-13T06:18:43.000Z</time>
      </trkpt>
      <trkpt lat="47.99718" lon="6.56879">
        <ele>649</ele>
        <time>2018-09-13T06:18:44.000Z</time>
      </trkpt>
      <trkpt lat="47.99716" lon="6.56878">
        <ele>649</ele>
        <time>2018-09-13T06:18:45.000Z</time>
      </trkpt>
      <trkpt lat="47.99714" lon="6.56877">
        <ele>649</ele>
        <time>2018-09-13T06:18:46.000Z</time>
      </trkpt>
      <trkpt lat="47.99712" lon="6.56877">
        <ele>649</ele>
        <time>2018-09-13T06:18:47.000Z</time>
      </trkpt>
      <trkpt lat="47.99711" lon="6.56876">
        <ele>649</ele>
        <time>2018-09-13T06:18:48.000Z</time>
      </trkpt>
      <trkpt lat="47.99709" lon="6.56875">
        <ele>650</ele>
        <time>2018-09-13T06:18:49.000Z</time>
      </trkpt>
      <trkpt lat="47.99708" lon="6.56875">
        <ele>650</ele>
        <time>2018-09-13T06:18:50.000Z</time>
      </trkpt>
      <trkpt lat="47.99706" lon="6.56875">
        <ele>650</ele>
        <time>2018-09-13T06:18:51.000Z</time>
      </trkpt>
      <trkpt lat="47.99705" lon="6.56874">
        <ele>650</ele>
        <time>2018-09-13T06:18:52.000Z</time>
      </trkpt>
      <trkpt lat="47.99704" lon="6.56874">
        <ele>650</ele>
        <time>2018-09-13T06:18:53.000Z</time>
      </trkpt>
      <trkpt lat="47.99702" lon="6.56873">
        <ele>650</ele>
        <time>2018-09-13T06:18:54.000Z</time>
      </trkpt>
      <trkpt lat="47.99701" lon="6.56873">
        <ele>650</ele>
        <time>2018-09-13T06:18:55.000Z</time>
      </trkpt>
      <trkpt lat="47.997" lon="6.56872">
        <ele>650</ele>
        <time>2018-09-13T06:18:56.000Z</time>
      </trkpt>
      <trkpt lat="47.99698" lon="6.56871">
        <ele>650</ele>
        <time>2018-09-13T06:18:57.000Z</time>
      </trkpt>
      <trkpt lat="47.99697" lon="6.5687">
        <ele>650</ele>
        <time>2018-09-13T06:18:58.000Z</time>
      </trkpt>
      <trkpt lat="47.99695" lon="6.56869">
        <ele>650</ele>
        <time>2018-09-13T06:18:59.000Z</time>
      </trkpt>
      <trkpt lat="47.99693" lon="6.56868">
        <ele>650</ele>
        <time>2018-09-13T06:19:00.000Z</time>
      </trkpt>
      <trkpt lat="47.99692" lon="6.56867">
        <ele>651</ele>
        <time>2018-09-13T06:19:01.000Z</time>
      </trkpt>
      <trkpt lat="47.9969" lon="6.56865">
        <ele>651</ele>
        <time>2018-09-13T06:19:02.000Z</time>
      </trkpt>
      <trkpt lat="47.99688" lon="6.56864">
        <ele>651</ele>
        <time>2018-09-13T06:19:03.000Z</time>
      </trkpt>
      <trkpt lat="47.99687" lon="6.56863">
        <ele>651</ele>
        <time>2018-09-13T06:19:04.000Z</time>
      </trkpt>
      <trkpt lat="47.99685" lon="6.56862">
        <ele>651</ele>
        <time>2018-09-13T06:19:05.000Z</time>
      </trkpt>
      <trkpt lat="47.99684" lon="6.56861">
        <ele>651</ele>
        <time>2018-09-13T06:19:06.000Z</time>
      </trkpt>
      <trkpt lat="47.99682" lon="6.5686">
        <ele>651</ele>
        <time>2018-09-13T06:19:07.000Z</time>
      </trkpt>
      <trkpt lat="47.9968" lon="6.5686">
        <ele>651</ele>
        <time>2018-09-13T06:19:08.000Z</time>
      </trkpt>
      <trkpt lat="47.99679" lon="6.56859">
        <ele>651</ele>
        <time>2018-09-13T06:19:09.000Z</time>
      </trkpt>
      <trkpt lat="47.99677" lon="6.56857">
        <ele>651</ele>
        <time>2018-09-13T06:19:10.000Z</time>
      </trkpt>
      <trkpt lat="47.99676" lon="6.56856">
        <ele>651</ele>
        <time>2018-09-13T06:19:11.000Z</time>
      </trkpt>
      <trkpt lat="47.99675" lon="6.56855">
        <ele>651</ele>
        <time>2018-09-13T06:19:12.000Z</time>
      </trkpt>
      <trkpt lat="47.99674" lon="6.56854">
        <ele>651</ele>
        <time>2018-09-13T06:19:13.000Z</time>
      </trkpt>
      <trkpt lat="47.99672" lon="6.56853">
        <ele>651</ele>
        <time>2018-09-13T06:19:14.000Z</time>
      </trkpt>
      <trkpt lat="47.99671" lon="6.56852">
        <ele>651</ele>
        <time>2018-09-13T06:19:15.000Z</time>
      </trkpt>
      <trkpt lat="47.99669" lon="6.56851">
        <ele>651</ele>
        <time>2018-09-13T06:19:16.000Z</time>
      </trkpt>
      <trkpt lat="47.99667" lon="6.5685">
        <ele>651</ele>
        <time>2018-09-13T06:19:17.000Z</time>
      </trkpt>
      <trkpt lat="47.99665" lon="6.56849">
        <ele>651</ele>
        <time>2018-09-13T06:19:18.000Z</time>
      </trkpt>
      <trkpt lat="47.99664" lon="6.56848">
        <ele>651</ele>
        <time>2018-09-13T06:19:19.000Z</time>
      </trkpt>
      <trkpt lat="47.99663" lon="6.56847">
        <ele>651</ele>
        <time>2018-09-13T06:19:20.000Z</time>
      </trkpt>
      <trkpt lat="47.99661" lon="6.56846">
        <ele>651</ele>
        <time>2018-09-13T06:19:21.000Z</time>
      </trkpt>
      <trkpt lat="47.9966" lon="6.56846">
        <ele>651</ele>
        <time>2018-09-13T06:19:22.000Z</time>
      </trkpt>
      <trkpt lat="47.99658" lon="6.56845">
        <ele>651</ele>
        <time>2018-09-13T06:19:23.000Z</time>
      </trkpt>
      <trkpt lat="47.99656" lon="6.56844">
        <ele>651</ele>
        <time>2018-09-13T06:19:24.000Z</time>
      </trkpt>
      <trkpt lat="47.99655" lon="6.56843">
        <ele>651</ele>
        <time>2018-09-13T06:19:25.000Z</time>
      </trkpt>
      <trkpt lat="47.99653" lon="6.56843">
        <ele>651</ele>
        <time>2018-09-13T06:19:26.000Z</time>
      </trkpt>
      <trkpt lat="47.99651" lon="6.56843">
        <ele>651</ele>
        <time>2018-09-13T06:19:27.000Z</time>
      </trkpt>
      <trkpt lat="47.9965" lon="6.56843">
        <ele>651</ele>
        <time>2018-09-13T06:19:28.000Z</time>
      </trkpt>
      <trkpt lat="47.99648" lon="6.56843">
        <ele>651</ele>
        <time>2018-09-13T06:19:29.000Z</time>
      </trkpt>
      <trkpt lat="47.99646" lon="6.56843">
        <ele>651</ele>
        <time>2018-09-13T06:19:30.000Z</time>
      </trkpt>
      <trkpt lat="47.99644" lon="6.56843">
        <ele>651</ele>
        <time>2018-09-13T06:19:31.000Z</time>
      </trkpt>
      <trkpt lat="47.99643" lon="6.56844">
        <ele>651</ele>
        <time>2018-09-13T06:19:32.000Z</time>
      </trkpt>
      <trkpt lat="47.99641" lon="6.56844">
        <ele>651</ele>
        <time>2018-09-13T06:19:33.000Z</time>
      </trkpt>
      <trkpt lat="47.99639" lon="6.56844">
        <ele>651</ele>
        <time>2018-09-13T06:19:34.000Z</time>
      </trkpt>
      <trkpt lat="47.99637" lon="6.56844">
        <ele>651</ele>
        <time>2018-09-13T06:19:35.000Z</time>
      </trkpt>
      <trkpt lat="47.99636" lon="6.56844">
        <ele>651</ele>
        <time>2018-09-13T06:19:36.000Z</time>
      </trkpt>
      <trkpt lat="47.99634" lon="6.56845">
        <ele>651</ele>
        <time>2018-09-13T06:19:37.000Z</time>
      </trkpt>
      <trkpt lat="47.99633" lon="6.56845">
        <ele>651</ele>
        <time>2018-09-13T06:19:38.000Z</time>
      </trkpt>
      <trkpt lat="47.99632" lon="6.56845">
        <ele>651</ele>
        <time>2018-09-13T06:19:39.000Z</time>
      </trkpt>
      <trkpt lat="47.9963" lon="6.56846">
        <ele>651</ele>
        <time>2018-09-13T06:19:40.000Z</time>
      </trkpt>
      <trkpt lat="47.99629" lon="6.56847">
        <ele>651</ele>
        <time>2018-09-13T06:19:41.000Z</time>
      </trkpt>
      <trkpt lat="47.99627" lon="6.56848">
        <ele>651</ele>
        <time>2018-09-13T06:19:42.000Z</time>
      </trkpt>
      <trkpt lat="47.99626" lon="6.56849">
        <ele>651</ele>
        <time>2018-09-13T06:19:43.000Z</time>
      </trkpt>
      <trkpt lat="47.99624" lon="6.5685">
        <ele>651</ele>
        <time>2018-09-13T06:19:44.000Z</time>
      </trkpt>
      <trkpt lat="47.99622" lon="6.5685">
        <ele>651</ele>
        <time>2018-09-13T06:19:45.000Z</time>
      </trkpt>
      <trkpt lat="47.99621" lon="6.5685">
        <ele>651</ele>
        <time>2018-09-13T06:19:46.000Z</time>
      </trkpt>
      <trkpt lat="47.99619" lon="6.56849">
        <ele>651</ele>
        <time>2018-09-13T06:19:47.000Z</time>
      </trkpt>
      <trkpt lat="47.99618" lon="6.56848">
        <ele>651</ele>
        <time>2018-09-13T06:19:48.000Z</time>
      </trkpt>
      <trkpt lat="47.99616" lon="6.56847">
        <ele>651</ele>
        <time>2018-09-13T06:19:49.000Z</time>
      </trkpt>
      <trkpt lat="47.99614" lon="6.56846">
        <ele>651</ele>
        <time>2018-09-13T06:19:50.000Z</time>
      </trkpt>
      <trkpt lat="47.99612" lon="6.56844">
        <ele>651</ele>
        <time>2018-09-13T06:19:51.000Z</time>
      </trkpt>
      <trkpt lat="47.99611" lon="6.56843">
        <ele>651</ele>
        <time>2018-09-13T06:19:52.000Z</time>
      </trkpt>
      <trkpt lat="47.99609" lon="6.56841">
        <ele>651</ele>
        <time>2018-09-13T06:19:53.000Z</time>
      </trkpt>
      <trkpt lat="47.99608" lon="6.56839">
        <ele>651</ele>
        <time>2018-09-13T06:19:54.000Z</time>
      </trkpt>
      <trkpt lat="47.99606" lon="6.56838">
        <ele>651</ele>
        <time>2018-09-13T06:19:55.000Z</time>
      </trkpt>
      <trkpt lat="47.99604" lon="6.56837">
        <ele>650</ele>
        <time>2018-09-13T06:19:56.000Z</time>
      </trkpt>
      <trkpt lat="47.99603" lon="6.56836">
        <ele>650</ele>
        <time>2018-09-13T06:19:57.000Z</time>
      </trkpt>
      <trkpt lat="47.99601" lon="6.56834">
        <ele>650</ele>
        <time>2018-09-13T06:19:58.000Z</time>
      </trkpt>
      <trkpt lat="47.99599" lon="6.56833">
        <ele>651</ele>
        <time>2018-09-13T06:19:59.000Z</time>
      </trkpt>
      <trkpt lat="47.99598" lon="6.56831">
        <ele>651</ele>
        <time>2018-09-13T06:20:00.000Z</time>
      </trkpt>
      <trkpt lat="47.99596" lon="6.5683">
        <ele>651</ele>
        <time>2018-09-13T06:20:01.000Z</time>
      </trkpt>
      <trkpt lat="47.99595" lon="6.56828">
        <ele>651</ele>
        <time>2018-09-13T06:20:02.000Z</time>
      </trkpt>
      <trkpt lat="47.99593" lon="6.56827">
        <ele>651</ele>
        <time>2018-09-13T06:20:03.000Z</time>
      </trkpt>
      <trkpt lat="47.99591" lon="6.56825">
        <ele>651</ele>
        <time>2018-09-13T06:20:04.000Z</time>
      </trkpt>
      <trkpt lat="47.9959" lon="6.56823">
        <ele>651</ele>
        <time>2018-09-13T06:20:05.000Z</time>
      </trkpt>
      <trkpt lat="47.99588" lon="6.56822">
        <ele>652</ele>
        <time>2018-09-13T06:20:06.000Z</time>
      </trkpt>
      <trkpt lat="47.99586" lon="6.5682">
        <ele>652</ele>
        <time>2018-09-13T06:20:07.000Z</time>
      </trkpt>
      <trkpt lat="47.99585" lon="6.56819">
        <ele>652</ele>
        <time>2018-09-13T06:20:08.000Z</time>
      </trkpt>
      <trkpt lat="47.99583" lon="6.56818">
        <ele>652</ele>
        <time>2018-09-13T06:20:09.000Z</time>
      </trkpt>
      <trkpt lat="47.99582" lon="6.56816">
        <ele>652</ele>
        <time>2018-09-13T06:20:10.000Z</time>
      </trkpt>
      <trkpt lat="47.99581" lon="6.56815">
        <ele>653</ele>
        <time>2018-09-13T06:20:11.000Z</time>
      </trkpt>
      <trkpt lat="47.99579" lon="6.56814">
        <ele>653</ele>
        <time>2018-09-13T06:20:12.000Z</time>
      </trkpt>
      <trkpt lat="47.99578" lon="6.56814">
        <ele>653</ele>
        <time>2018-09-13T06:20:13.000Z</time>
      </trkpt>
      <trkpt lat="47.99577" lon="6.56813">
        <ele>653</ele>
        <time>2018-09-13T06:20:14.000Z</time>
      </trkpt>
      <trkpt lat="47.99576" lon="6.56813">
        <ele>653</ele>
        <time>2018-09-13T06:20:15.000Z</time>
      </trkpt>
      <trkpt lat="47.99575" lon="6.56813">
        <ele>653</ele>
        <time>2018-09-13T06:20:16.000Z</time>
      </trkpt>
      <trkpt lat="47.99573" lon="6.56813">
        <ele>653</ele>
        <time>2018-09-13T06:20:17.000Z</time>
      </trkpt>
      <trkpt lat="47.99572" lon="6.56812">
        <ele>654</ele>
        <time>2018-09-13T06:20:18.000Z</time>
      </trkpt>
      <trkpt lat="47.9957" lon="6.56811">
        <ele>654</ele>
        <time>2018-09-13T06:20:19.000Z</time>
      </trkpt>
      <trkpt lat="47.99569" lon="6.5681">
        <ele>654</ele>
        <time>2018-09-13T06:20:20.000Z</time>
      </trkpt>
      <trkpt lat="47.99568" lon="6.56809">
        <ele>654</ele>
        <time>2018-09-13T06:20:21.000Z</time>
      </trkpt>
      <trkpt lat="47.99566" lon="6.56808">
        <ele>654</ele>
        <time>2018-09-13T06:20:22.000Z</time>
      </trkpt>
      <trkpt lat="47.99565" lon="6.56807">
        <ele>654</ele>
        <time>2018-09-13T06:20:23.000Z</time>
      </trkpt>
      <trkpt lat="47.99563" lon="6.56806">
        <ele>654</ele>
        <time>2018-09-13T06:20:24.000Z</time>
      </trkpt>
      <trkpt lat="47.99562" lon="6.56805">
        <ele>654</ele>
        <time>2018-09-13T06:20:25.000Z</time>
      </trkpt>
      <trkpt lat="47.99561" lon="6.56804">
        <ele>654</ele>
        <time>2018-09-13T06:20:26.000Z</time>
      </trkpt>
      <trkpt lat="47.99559" lon="6.56802">
        <ele>654</ele>
        <time>2018-09-13T06:20:27.000Z</time>
      </trkpt>
      <trkpt lat="47.99558" lon="6.56801">
        <ele>655</ele>
        <time>2018-09-13T06:20:28.000Z</time>
      </trkpt>
      <trkpt lat="47.99556" lon="6.568">
        <ele>655</ele>
        <time>2018-09-13T06:20:29.000Z</time>
      </trkpt>
      <trkpt lat="47.99555" lon="6.56798">
        <ele>655</ele>
        <time>2018-09-13T06:20:30.000Z</time>
      </trkpt>
      <trkpt lat="47.99554" lon="6.56797">
        <ele>655</ele>
        <time>2018-09-13T06:20:31.000Z</time>
      </trkpt>
      <trkpt lat="47.99552" lon="6.56795">
        <ele>655</ele>
        <time>2018-09-13T06:20:32.000Z</time>
      </trkpt>
      <trkpt lat="47.99551" lon="6.56794">
        <ele>655</ele>
        <time>2018-09-13T06:20:33.000Z</time>
      </trkpt>
      <trkpt lat="47.9955" lon="6.56792">
        <ele>655</ele>
        <time>2018-09-13T06:20:34.000Z</time>
      </trkpt>
      <trkpt lat="47.99548" lon="6.56791">
        <ele>655</ele>
        <time>2018-09-13T06:20:35.000Z</time>
      </trkpt>
      <trkpt lat="47.99547" lon="6.56789">
        <ele>655</ele>
        <time>2018-09-13T06:20:36.000Z</time>
      </trkpt>
      <trkpt lat="47.99546" lon="6.56788">
        <ele>655</ele>
        <time>2018-09-13T06:20:37.000Z</time>
      </trkpt>
      <trkpt lat="47.99544" lon="6.56787">
        <ele>655</ele>
        <time>2018-09-13T06:20:38.000Z</time>
      </trkpt>
      <trkpt lat="47.99542" lon="6.56785">
        <ele>655</ele>
        <time>2018-09-13T06:20:39.000Z</time>
      </trkpt>
      <trkpt lat="47.99541" lon="6.56783">
        <ele>655</ele>
        <time>2018-09-13T06:20:40.000Z</time>
      </trkpt>
      <trkpt lat="47.99539" lon="6.56782">
        <ele>655</ele>
        <time>2018-09-13T06:20:41.000Z</time>
      </trkpt>
      <trkpt lat="47.99538" lon="6.56782">
        <ele>655</ele>
        <time>2018-09-13T06:20:42.000Z</time>
      </trkpt>
      <trkpt lat="47.99536" lon="6.56781">
        <ele>655</ele>
        <time>2018-09-13T06:20:43.000Z</time>
      </trkpt>
      <trkpt lat="47.99535" lon="6.5678">
        <ele>655</ele>
        <time>2018-09-13T06:20:44.000Z</time>
      </trkpt>
      <trkpt lat="47.99533" lon="6.56779">
        <ele>656</ele>
        <time>2018-09-13T06:20:45.000Z</time>
      </trkpt>
      <trkpt lat="47.99532" lon="6.56778">
        <ele>656</ele>
        <time>2018-09-13T06:20:46.000Z</time>
      </trkpt>
      <trkpt lat="47.9953" lon="6.56778">
        <ele>656</ele>
        <time>2018-09-13T06:20:47.000Z</time>
      </trkpt>
      <trkpt lat="47.99529" lon="6.56777">
        <ele>656</ele>
        <time>2018-09-13T06:20:48.000Z</time>
      </trkpt>
      <trkpt lat="47.99528" lon="6.56777">
        <ele>656</ele>
        <time>2018-09-13T06:20:49.000Z</time>
      </trkpt>
      <trkpt lat="47.99526" lon="6.56776">
        <ele>656</ele>
        <time>2018-09-13T06:20:50.000Z</time>
      </trkpt>
      <trkpt lat="47.99525" lon="6.56775">
        <ele>656</ele>
        <time>2018-09-13T06:20:51.000Z</time>
      </trkpt>
      <trkpt lat="47.99524" lon="6.56775">
        <ele>656</ele>
        <time>2018-09-13T06:20:52.000Z</time>
      </trkpt>
      <trkpt lat="47.99523" lon="6.56775">
        <ele>656</ele>
        <time>2018-09-13T06:20:53.000Z</time>
      </trkpt>
      <trkpt lat="47.99521" lon="6.56774">
        <ele>656</ele>
        <time>2018-09-13T06:20:54.000Z</time>
      </trkpt>
      <trkpt lat="47.9952" lon="6.56773">
        <ele>657</ele>
        <time>2018-09-13T06:20:55.000Z</time>
      </trkpt>
      <trkpt lat="47.99519" lon="6.56772">
        <ele>657</ele>
        <time>2018-09-13T06:20:56.000Z</time>
      </trkpt>
      <trkpt lat="47.99517" lon="6.56772">
        <ele>657</ele>
        <time>2018-09-13T06:20:57.000Z</time>
      </trkpt>
      <trkpt lat="47.99516" lon="6.56771">
        <ele>657</ele>
        <time>2018-09-13T06:20:58.000Z</time>
      </trkpt>
      <trkpt lat="47.99515" lon="6.56771">
        <ele>657</ele>
        <time>2018-09-13T06:20:59.000Z</time>
      </trkpt>
      <trkpt lat="47.99513" lon="6.5677">
        <ele>657</ele>
        <time>2018-09-13T06:21:00.000Z</time>
      </trkpt>
      <trkpt lat="47.99512" lon="6.56769">
        <ele>657</ele>
        <time>2018-09-13T06:21:01.000Z</time>
      </trkpt>
      <trkpt lat="47.9951" lon="6.56769">
        <ele>657</ele>
        <time>2018-09-13T06:21:02.000Z</time>
      </trkpt>
      <trkpt lat="47.99508" lon="6.56769">
        <ele>657</ele>
        <time>2018-09-13T06:21:03.000Z</time>
      </trkpt>
      <trkpt lat="47.99506" lon="6.5677">
        <ele>657</ele>
        <time>2018-09-13T06:21:04.000Z</time>
      </trkpt>
      <trkpt lat="47.99504" lon="6.5677">
        <ele>657</ele>
        <time>2018-09-13T06:21:05.000Z</time>
      </trkpt>
      <trkpt lat="47.99502" lon="6.5677">
        <ele>657</ele>
        <time>2018-09-13T06:21:06.000Z</time>
      </trkpt>
      <trkpt lat="47.99501" lon="6.56771">
        <ele>657</ele>
        <time>2018-09-13T06:21:07.000Z</time>
      </trkpt>
      <trkpt lat="47.995" lon="6.56772">
        <ele>657</ele>
        <time>2018-09-13T06:21:08.000Z</time>
      </trkpt>
      <trkpt lat="47.99498" lon="6.56774">
        <ele>657</ele>
        <time>2018-09-13T06:21:09.000Z</time>
      </trkpt>
      <trkpt lat="47.99497" lon="6.56776">
        <ele>657</ele>
        <time>2018-09-13T06:21:10.000Z</time>
      </trkpt>
      <trkpt lat="47.99496" lon="6.56777">
        <ele>657</ele>
        <time>2018-09-13T06:21:11.000Z</time>
      </trkpt>
      <trkpt lat="47.99494" lon="6.56779">
        <ele>657</ele>
        <time>2018-09-13T06:21:12.000Z</time>
      </trkpt>
      <trkpt lat="47.99493" lon="6.56781">
        <ele>657</ele>
        <time>2018-09-13T06:21:13.000Z</time>
      </trkpt>
      <trkpt lat="47.99492" lon="6.56782">
        <ele>657</ele>
        <time>2018-09-13T06:21:14.000Z</time>
      </trkpt>
      <trkpt lat="47.9949" lon="6.56784">
        <ele>657</ele>
        <time>2018-09-13T06:21:15.000Z</time>
      </trkpt>
      <trkpt lat="47.99489" lon="6.56786">
        <ele>657</ele>
        <time>2018-09-13T06:21:16.000Z</time>
      </trkpt>
      <trkpt lat="47.99488" lon="6.56788">
        <ele>658</ele>
        <time>2018-09-13T06:21:17.000Z</time>
      </trkpt>
      <trkpt lat="47.99487" lon="6.5679">
        <ele>658</ele>
        <time>2018-09-13T06:21:18.000Z</time>
      </trkpt>
      <trkpt lat="47.99485" lon="6.56791">
        <ele>658</ele>
        <time>2018-09-13T06:21:19.000Z</time>
      </trkpt>
      <trkpt lat="47.99484" lon="6.56793">
        <ele>658</ele>
        <time>2018-09-13T06:21:20.000Z</time>
      </trkpt>
      <trkpt lat="47.99483" lon="6.56794">
        <ele>658</ele>
        <time>2018-09-13T06:21:21.000Z</time>
      </trkpt>
      <trkpt lat="47.99481" lon="6.56796">
        <ele>658</ele>
        <time>2018-09-13T06:21:22.000Z</time>
      </trkpt>
      <trkpt lat="47.9948" lon="6.56798">
        <ele>658</ele>
        <time>2018-09-13T06:21:23.000Z</time>
      </trkpt>
      <trkpt lat="47.99479" lon="6.568">
        <ele>659</ele>
        <time>2018-09-13T06:21:24.000Z</time>
      </trkpt>
      <trkpt lat="47.99478" lon="6.56802">
        <ele>659</ele>
        <time>2018-09-13T06:21:25.000Z</time>
      </trkpt>
      <trkpt lat="47.99477" lon="6.56804">
        <ele>659</ele>
        <time>2018-09-13T06:21:26.000Z</time>
      </trkpt>
      <trkpt lat="47.99475" lon="6.56805">
        <ele>659</ele>
        <time>2018-09-13T06:21:27.000Z</time>
      </trkpt>
      <trkpt lat="47.99474" lon="6.56806">
        <ele>659</ele>
        <time>2018-09-13T06:21:28.000Z</time>
      </trkpt>
      <trkpt lat="47.99473" lon="6.56807">
        <ele>659</ele>
        <time>2018-09-13T06:21:29.000Z</time>
      </trkpt>
      <trkpt lat="47.99472" lon="6.56809">
        <ele>659</ele>
        <time>2018-09-13T06:21:30.000Z</time>
      </trkpt>
      <trkpt lat="47.9947" lon="6.5681">
        <ele>659</ele>
        <time>2018-09-13T06:21:31.000Z</time>
      </trkpt>
      <trkpt lat="47.9947" lon="6.56811">
        <ele>659</ele>
        <time>2018-09-13T06:21:32.000Z</time>
      </trkpt>
      <trkpt lat="47.99469" lon="6.56813">
        <ele>660</ele>
        <time>2018-09-13T06:21:33.000Z</time>
      </trkpt>
      <trkpt lat="47.99468" lon="6.56814">
        <ele>660</ele>
        <time>2018-09-13T06:21:34.000Z</time>
      </trkpt>
      <trkpt lat="47.99467" lon="6.56815">
        <ele>660</ele>
        <time>2018-09-13T06:21:35.000Z</time>
      </trkpt>
      <trkpt lat="47.99465" lon="6.56816">
        <ele>660</ele>
        <time>2018-09-13T06:21:36.000Z</time>
      </trkpt>
      <trkpt lat="47.99464" lon="6.56817">
        <ele>661</ele>
        <time>2018-09-13T06:21:37.000Z</time>
      </trkpt>
      <trkpt lat="47.99463" lon="6.56817">
        <ele>661</ele>
        <time>2018-09-13T06:21:38.000Z</time>
      </trkpt>
      <trkpt lat="47.99461" lon="6.56818">
        <ele>661</ele>
        <time>2018-09-13T06:21:39.000Z</time>
      </trkpt>
      <trkpt lat="47.9946" lon="6.56819">
        <ele>661</ele>
        <time>2018-09-13T06:21:40.000Z</time>
      </trkpt>
      <trkpt lat="47.99458" lon="6.5682">
        <ele>662</ele>
        <time>2018-09-13T06:21:41.000Z</time>
      </trkpt>
      <trkpt lat="47.99457" lon="6.56821">
        <ele>662</ele>
        <time>2018-09-13T06:21:42.000Z</time>
      </trkpt>
      <trkpt lat="47.99455" lon="6.56821">
        <ele>662</ele>
        <time>2018-09-13T06:21:43.000Z</time>
      </trkpt>
      <trkpt lat="47.99453" lon="6.56822">
        <ele>662</ele>
        <time>2018-09-13T06:21:44.000Z</time>
      </trkpt>
      <trkpt lat="47.99451" lon="6.56823">
        <ele>662</ele>
        <time>2018-09-13T06:21:45.000Z</time>
      </trkpt>
      <trkpt lat="47.9945" lon="6.56824">
        <ele>662</ele>
        <time>2018-09-13T06:21:46.000Z</time>
      </trkpt>
      <trkpt lat="47.99448" lon="6.56826">
        <ele>663</ele>
        <time>2018-09-13T06:21:47.000Z</time>
      </trkpt>
      <trkpt lat="47.99447" lon="6.56827">
        <ele>663</ele>
        <time>2018-09-13T06:21:48.000Z</time>
      </trkpt>
      <trkpt lat="47.99445" lon="6.56829">
        <ele>663</ele>
        <time>2018-09-13T06:21:49.000Z</time>
      </trkpt>
      <trkpt lat="47.99444" lon="6.56829">
        <ele>663</ele>
        <time>2018-09-13T06:21:50.000Z</time>
      </trkpt>
      <trkpt lat="47.99442" lon="6.5683">
        <ele>663</ele>
        <time>2018-09-13T06:21:51.000Z</time>
      </trkpt>
      <trkpt lat="47.9944" lon="6.56831">
        <ele>663</ele>
        <time>2018-09-13T06:21:52.000Z</time>
      </trkpt>
      <trkpt lat="47.99439" lon="6.56832">
        <ele>663</ele>
        <time>2018-09-13T06:21:53.000Z</time>
      </trkpt>
      <trkpt lat="47.99437" lon="6.56832">
        <ele>664</ele>
        <time>2018-09-13T06:21:54.000Z</time>
      </trkpt>
      <trkpt lat="47.99435" lon="6.56834">
        <ele>664</ele>
        <time>2018-09-13T06:21:55.000Z</time>
      </trkpt>
      <trkpt lat="47.99434" lon="6.56834">
        <ele>664</ele>
        <time>2018-09-13T06:21:56.000Z</time>
      </trkpt>
      <trkpt lat="47.99432" lon="6.56835">
        <ele>664</ele>
        <time>2018-09-13T06:21:57.000Z</time>
      </trkpt>
      <trkpt lat="47.9943" lon="6.56836">
        <ele>664</ele>
        <time>2018-09-13T06:21:58.000Z</time>
      </trkpt>
      <trkpt lat="47.99428" lon="6.56836">
        <ele>664</ele>
        <time>2018-09-13T06:21:59.000Z</time>
      </trkpt>
      <trkpt lat="47.99426" lon="6.56836">
        <ele>664</ele>
        <time>2018-09-13T06:22:00.000Z</time>
      </trkpt>
      <trkpt lat="47.99425" lon="6.56836">
        <ele>665</ele>
        <time>2018-09-13T06:22:01.000Z</time>
      </trkpt>
      <trkpt lat="47.99423" lon="6.56836">
        <ele>665</ele>
        <time>2018-09-13T06:22:02.000Z</time>
      </trkpt>
      <trkpt lat="47.99421" lon="6.56836">
        <ele>665</ele>
        <time>2018-09-13T06:22:03.000Z</time>
      </trkpt>
      <trkpt lat="47.99419" lon="6.56836">
        <ele>665</ele>
        <time>2018-09-13T06:22:04.000Z</time>
      </trkpt>
      <trkpt lat="47.99417" lon="6.56837">
        <ele>665</ele>
        <time>2018-09-13T06:22:05.000Z</time>
      </trkpt>
      <trkpt lat="47.99414" lon="6.56837">
        <ele>665</ele>
        <time>2018-09-13T06:22:06.000Z</time>
      </trkpt>
      <trkpt lat="47.99412" lon="6.56837">
        <ele>666</ele>
        <time>2018-09-13T06:22:07.000Z</time>
      </trkpt>
      <trkpt lat="47.9941" lon="6.56838">
        <ele>666</ele>
        <time>2018-09-13T06:22:08.000Z</time>
      </trkpt>
      <trkpt lat="47.99408" lon="6.56838">
        <ele>666</ele>
        <time>2018-09-13T06:22:09.000Z</time>
      </trkpt>
      <trkpt lat="47.99406" lon="6.56838">
        <ele>666</ele>
        <time>2018-09-13T06:22:10.000Z</time>
      </trkpt>
      <trkpt lat="47.99404" lon="6.56838">
        <ele>666</ele>
        <time>2018-09-13T06:22:11.000Z</time>
      </trkpt>
      <trkpt lat="47.99402" lon="6.56838">
        <ele>666</ele>
        <time>2018-09-13T06:22:12.000Z</time>
      </trkpt>
      <trkpt lat="47.994" lon="6.56838">
        <ele>666</ele>
        <time>2018-09-13T06:22:13.000Z</time>
      </trkpt>
      <trkpt lat="47.99399" lon="6.56838">
        <ele>666</ele>
        <time>2018-09-13T06:22:14.000Z</time>
      </trkpt>
      <trkpt lat="47.99397" lon="6.56839">
        <ele>666</ele>
        <time>2018-09-13T06:22:15.000Z</time>
      </trkpt>
      <trkpt lat="47.99396" lon="6.56839">
        <ele>666</ele>
        <time>2018-09-13T06:22:16.000Z</time>
      </trkpt>
      <trkpt lat="47.99394" lon="6.56839">
        <ele>666</ele>
        <time>2018-09-13T06:22:17.000Z</time>
      </trkpt>
      <trkpt lat="47.99393" lon="6.5684">
        <ele>666</ele>
        <time>2018-09-13T06:22:18.000Z</time>
      </trkpt>
      <trkpt lat="47.99391" lon="6.5684">
        <ele>667</ele>
        <time>2018-09-13T06:22:19.000Z</time>
      </trkpt>
      <trkpt lat="47.99389" lon="6.5684">
        <ele>667</ele>
        <time>2018-09-13T06:22:20.000Z</time>
      </trkpt>
      <trkpt lat="47.99388" lon="6.5684">
        <ele>667</ele>
        <time>2018-09-13T06:22:21.000Z</time>
      </trkpt>
      <trkpt lat="47.99386" lon="6.5684">
        <ele>667</ele>
        <time>2018-09-13T06:22:22.000Z</time>
      </trkpt>
      <trkpt lat="47.99384" lon="6.5684">
        <ele>667</ele>
        <time>2018-09-13T06:22:23.000Z</time>
      </trkpt>
      <trkpt lat="47.99383" lon="6.5684">
        <ele>667</ele>
        <time>2018-09-13T06:22:24.000Z</time>
      </trkpt>
      <trkpt lat="47.99381" lon="6.5684">
        <ele>668</ele>
        <time>2018-09-13T06:22:25.000Z</time>
      </trkpt>
      <trkpt lat="47.99379" lon="6.5684">
        <ele>668</ele>
        <time>2018-09-13T06:22:26.000Z</time>
      </trkpt>
      <trkpt lat="47.99377" lon="6.5684">
        <ele>668</ele>
        <time>2018-09-13T06:22:27.000Z</time>
      </trkpt>
      <trkpt lat="47.99375" lon="6.5684">
        <ele>668</ele>
        <time>2018-09-13T06:22:28.000Z</time>
      </trkpt>
      <trkpt lat="47.99373" lon="6.5684">
        <ele>668</ele>
        <time>2018-09-13T06:22:29.000Z</time>
      </trkpt>
      <trkpt lat="47.99371" lon="6.5684">
        <ele>668</ele>
        <time>2018-09-13T06:22:30.000Z</time>
      </trkpt>
      <trkpt lat="47.99369" lon="6.5684">
        <ele>668</ele>
        <time>2018-09-13T06:22:31.000Z</time>
      </trkpt>
      <trkpt lat="47.99368" lon="6.5684">
        <ele>668</ele>
        <time>2018-09-13T06:22:32.000Z</time>
      </trkpt>
      <trkpt lat="47.99366" lon="6.5684">
        <ele>669</ele>
        <time>2018-09-13T06:22:33.000Z</time>
      </trkpt>
      <trkpt lat="47.99364" lon="6.5684">
        <ele>669</ele>
        <time>2018-09-13T06:22:34.000Z</time>
      </trkpt>
      <trkpt lat="47.99362" lon="6.5684">
        <ele>669</ele>
        <time>2018-09-13T06:22:35.000Z</time>
      </trkpt>
      <trkpt lat="47.99361" lon="6.56839">
        <ele>669</ele>
        <time>2018-09-13T06:22:36.000Z</time>
      </trkpt>
      <trkpt lat="47.99359" lon="6.56839">
        <ele>669</ele>
        <time>2018-09-13T06:22:37.000Z</time>
      </trkpt>
      <trkpt lat="47.99357" lon="6.56839">
        <ele>669</ele>
        <time>2018-09-13T06:22:38.000Z</time>
      </trkpt>
      <trkpt lat="47.99356" lon="6.56839">
        <ele>669</ele>
        <time>2018-09-13T06:22:39.000Z</time>
      </trkpt>
      <trkpt lat="47.99354" lon="6.56839">
        <ele>669</ele>
        <time>2018-09-13T06:22:40.000Z</time>
      </trkpt>
      <trkpt lat="47.99352" lon="6.56839">
        <ele>669</ele>
        <time>2018-09-13T06:22:41.000Z</time>
      </trkpt>
      <trkpt lat="47.99351" lon="6.56839">
        <ele>669</ele>
        <time>2018-09-13T06:22:42.000Z</time>
      </trkpt>
      <trkpt lat="47.99349" lon="6.56839">
        <ele>669</ele>
        <time>2018-09-13T06:22:43.000Z</time>
      </trkpt>
      <trkpt lat="47.99348" lon="6.56838">
        <ele>669</ele>
        <time>2018-09-13T06:22:44.000Z</time>
      </trkpt>
      <trkpt lat="47.99347" lon="6.56837">
        <ele>669</ele>
        <time>2018-09-13T06:22:45.000Z</time>
      </trkpt>
      <trkpt lat="47.99345" lon="6.56835">
        <ele>668</ele>
        <time>2018-09-13T06:22:46.000Z</time>
      </trkpt>
      <trkpt lat="47.99344" lon="6.56834">
        <ele>668</ele>
        <time>2018-09-13T06:22:47.000Z</time>
      </trkpt>
      <trkpt lat="47.99343" lon="6.56833">
        <ele>668</ele>
        <time>2018-09-13T06:22:48.000Z</time>
      </trkpt>
      <trkpt lat="47.99342" lon="6.56832">
        <ele>668</ele>
        <time>2018-09-13T06:22:49.000Z</time>
      </trkpt>
      <trkpt lat="47.9934" lon="6.56831">
        <ele>668</ele>
        <time>2018-09-13T06:22:50.000Z</time>
      </trkpt>
      <trkpt lat="47.99339" lon="6.56831">
        <ele>668</ele>
        <time>2018-09-13T06:22:51.000Z</time>
      </trkpt>
      <trkpt lat="47.99338" lon="6.5683">
        <ele>668</ele>
        <time>2018-09-13T06:22:52.000Z</time>
      </trkpt>
      <trkpt lat="47.99336" lon="6.5683">
        <ele>668</ele>
        <time>2018-09-13T06:22:53.000Z</time>
      </trkpt>
      <trkpt lat="47.99334" lon="6.5683">
        <ele>668</ele>
        <time>2018-09-13T06:22:54.000Z</time>
      </trkpt>
      <trkpt lat="47.99333" lon="6.5683">
        <ele>668</ele>
        <time>2018-09-13T06:22:55.000Z</time>
      </trkpt>
      <trkpt lat="47.99332" lon="6.5683">
        <ele>668</ele>
        <time>2018-09-13T06:22:56.000Z</time>
      </trkpt>
      <trkpt lat="47.9933" lon="6.5683">
        <ele>668</ele>
        <time>2018-09-13T06:22:57.000Z</time>
      </trkpt>
      <trkpt lat="47.99329" lon="6.5683">
        <ele>668</ele>
        <time>2018-09-13T06:22:58.000Z</time>
      </trkpt>
      <trkpt lat="47.99327" lon="6.5683">
        <ele>668</ele>
        <time>2018-09-13T06:22:59.000Z</time>
      </trkpt>
      <trkpt lat="47.99326" lon="6.5683">
        <ele>668</ele>
        <time>2018-09-13T06:23:00.000Z</time>
      </trkpt>
      <trkpt lat="47.99324" lon="6.5683">
        <ele>668</ele>
        <time>2018-09-13T06:23:01.000Z</time>
      </trkpt>
      <trkpt lat="47.99322" lon="6.56829">
        <ele>668</ele>
        <time>2018-09-13T06:23:02.000Z</time>
      </trkpt>
      <trkpt lat="47.9932" lon="6.5683">
        <ele>668</ele>
        <time>2018-09-13T06:23:03.000Z</time>
      </trkpt>
      <trkpt lat="47.99319" lon="6.56829">
        <ele>668</ele>
        <time>2018-09-13T06:23:04.000Z</time>
      </trkpt>
      <trkpt lat="47.99317" lon="6.5683">
        <ele>669</ele>
        <time>2018-09-13T06:23:05.000Z</time>
      </trkpt>
      <trkpt lat="47.99315" lon="6.5683">
        <ele>669</ele>
        <time>2018-09-13T06:23:06.000Z</time>
      </trkpt>
      <trkpt lat="47.99313" lon="6.56831">
        <ele>669</ele>
        <time>2018-09-13T06:23:07.000Z</time>
      </trkpt>
      <trkpt lat="47.99311" lon="6.56831">
        <ele>669</ele>
        <time>2018-09-13T06:23:08.000Z</time>
      </trkpt>
      <trkpt lat="47.9931" lon="6.56831">
        <ele>669</ele>
        <time>2018-09-13T06:23:09.000Z</time>
      </trkpt>
      <trkpt lat="47.99308" lon="6.56832">
        <ele>669</ele>
        <time>2018-09-13T06:23:10.000Z</time>
      </trkpt>
      <trkpt lat="47.99306" lon="6.56832">
        <ele>670</ele>
        <time>2018-09-13T06:23:11.000Z</time>
      </trkpt>
      <trkpt lat="47.99305" lon="6.56833">
        <ele>670</ele>
        <time>2018-09-13T06:23:12.000Z</time>
      </trkpt>
      <trkpt lat="47.99303" lon="6.56833">
        <ele>670</ele>
        <time>2018-09-13T06:23:13.000Z</time>
      </trkpt>
      <trkpt lat="47.99301" lon="6.56833">
        <ele>670</ele>
        <time>2018-09-13T06:23:14.000Z</time>
      </trkpt>
      <trkpt lat="47.993" lon="6.56833">
        <ele>670</ele>
        <time>2018-09-13T06:23:15.000Z</time>
      </trkpt>
      <trkpt lat="47.99298" lon="6.56833">
        <ele>670</ele>
        <time>2018-09-13T06:23:16.000Z</time>
      </trkpt>
      <trkpt lat="47.99297" lon="6.56833">
        <ele>671</ele>
        <time>2018-09-13T06:23:17.000Z</time>
      </trkpt>
      <trkpt lat="47.99295" lon="6.56833">
        <ele>671</ele>
        <time>2018-09-13T06:23:18.000Z</time>
      </trkpt>
      <trkpt lat="47.99294" lon="6.56834">
        <ele>671</ele>
        <time>2018-09-13T06:23:19.000Z</time>
      </trkpt>
      <trkpt lat="47.99292" lon="6.56834">
        <ele>671</ele>
        <time>2018-09-13T06:23:20.000Z</time>
      </trkpt>
      <trkpt lat="47.99291" lon="6.56834">
        <ele>671</ele>
        <time>2018-09-13T06:23:21.000Z</time>
      </trkpt>
      <trkpt lat="47.99289" lon="6.56834">
        <ele>671</ele>
        <time>2018-09-13T06:23:22.000Z</time>
      </trkpt>
      <trkpt lat="47.99288" lon="6.56834">
        <ele>671</ele>
        <time>2018-09-13T06:23:23.000Z</time>
      </trkpt>
      <trkpt lat="47.99286" lon="6.56833">
        <ele>671</ele>
        <time>2018-09-13T06:23:24.000Z</time>
      </trkpt>
      <trkpt lat="47.99285" lon="6.56833">
        <ele>671</ele>
        <time>2018-09-13T06:23:25.000Z</time>
      </trkpt>
      <trkpt lat="47.99284" lon="6.56833">
        <ele>671</ele>
        <time>2018-09-13T06:23:26.000Z</time>
      </trkpt>
      <trkpt lat="47.99282" lon="6.56833">
        <ele>672</ele>
        <time>2018-09-13T06:23:27.000Z</time>
      </trkpt>
      <trkpt lat="47.9928" lon="6.56834">
        <ele>672</ele>
        <time>2018-09-13T06:23:28.000Z</time>
      </trkpt>
      <trkpt lat="47.99279" lon="6.56834">
        <ele>672</ele>
        <time>2018-09-13T06:23:29.000Z</time>
      </trkpt>
      <trkpt lat="47.99278" lon="6.56835">
        <ele>672</ele>
        <time>2018-09-13T06:23:30.000Z</time>
      </trkpt>
      <trkpt lat="47.99276" lon="6.56835">
        <ele>672</ele>
        <time>2018-09-13T06:23:31.000Z</time>
      </trkpt>
      <trkpt lat="47.99275" lon="6.56835">
        <ele>672</ele>
        <time>2018-09-13T06:23:32.000Z</time>
      </trkpt>
      <trkpt lat="47.99273" lon="6.56835">
        <ele>672</ele>
        <time>2018-09-13T06:23:33.000Z</time>
      </trkpt>
      <trkpt lat="47.99271" lon="6.56834">
        <ele>672</ele>
        <time>2018-09-13T06:23:34.000Z</time>
      </trkpt>
      <trkpt lat="47.99269" lon="6.56834">
        <ele>672</ele>
        <time>2018-09-13T06:23:35.000Z</time>
      </trkpt>
      <trkpt lat="47.99268" lon="6.56833">
        <ele>672</ele>
        <time>2018-09-13T06:23:36.000Z</time>
      </trkpt>
      <trkpt lat="47.99266" lon="6.56833">
        <ele>672</ele>
        <time>2018-09-13T06:23:37.000Z</time>
      </trkpt>
      <trkpt lat="47.99264" lon="6.56833">
        <ele>672</ele>
        <time>2018-09-13T06:23:38.000Z</time>
      </trkpt>
      <trkpt lat="47.99262" lon="6.56832">
        <ele>672</ele>
        <time>2018-09-13T06:23:39.000Z</time>
      </trkpt>
      <trkpt lat="47.99261" lon="6.56832">
        <ele>672</ele>
        <time>2018-09-13T06:23:40.000Z</time>
      </trkpt>
      <trkpt lat="47.99259" lon="6.56832">
        <ele>672</ele>
        <time>2018-09-13T06:23:41.000Z</time>
      </trkpt>
      <trkpt lat="47.99257" lon="6.56832">
        <ele>673</ele>
        <time>2018-09-13T06:23:42.000Z</time>
      </trkpt>
      <trkpt lat="47.99256" lon="6.56832">
        <ele>673</ele>
        <time>2018-09-13T06:23:43.000Z</time>
      </trkpt>
      <trkpt lat="47.99254" lon="6.56832">
        <ele>673</ele>
        <time>2018-09-13T06:23:44.000Z</time>
      </trkpt>
      <trkpt lat="47.99252" lon="6.56831">
        <ele>673</ele>
        <time>2018-09-13T06:23:45.000Z</time>
      </trkpt>
      <trkpt lat="47.9925" lon="6.56832">
        <ele>673</ele>
        <time>2018-09-13T06:23:46.000Z</time>
      </trkpt>
      <trkpt lat="47.99248" lon="6.56832">
        <ele>674</ele>
        <time>2018-09-13T06:23:47.000Z</time>
      </trkpt>
      <trkpt lat="47.99246" lon="6.56832">
        <ele>674</ele>
        <time>2018-09-13T06:23:48.000Z</time>
      </trkpt>
      <trkpt lat="47.99244" lon="6.56832">
        <ele>674</ele>
        <time>2018-09-13T06:23:49.000Z</time>
      </trkpt>
      <trkpt lat="47.99242" lon="6.56832">
        <ele>674</ele>
        <time>2018-09-13T06:23:50.000Z</time>
      </trkpt>
      <trkpt lat="47.99241" lon="6.56831">
        <ele>674</ele>
        <time>2018-09-13T06:23:51.000Z</time>
      </trkpt>
      <trkpt lat="47.99239" lon="6.56831">
        <ele>674</ele>
        <time>2018-09-13T06:23:52.000Z</time>
      </trkpt>
      <trkpt lat="47.99237" lon="6.56831">
        <ele>674</ele>
        <time>2018-09-13T06:23:53.000Z</time>
      </trkpt>
      <trkpt lat="47.99236" lon="6.56831">
        <ele>674</ele>
        <time>2018-09-13T06:23:54.000Z</time>
      </trkpt>
      <trkpt lat="47.99234" lon="6.56831">
        <ele>674</ele>
        <time>2018-09-13T06:23:55.000Z</time>
      </trkpt>
      <trkpt lat="47.99233" lon="6.56831">
        <ele>674</ele>
        <time>2018-09-13T06:23:56.000Z</time>
      </trkpt>
      <trkpt lat="47.99231" lon="6.56831">
        <ele>674</ele>
        <time>2018-09-13T06:23:57.000Z</time>
      </trkpt>
      <trkpt lat="47.99229" lon="6.56831">
        <ele>674</ele>
        <time>2018-09-13T06:23:58.000Z</time>
      </trkpt>
      <trkpt lat="47.99227" lon="6.56831">
        <ele>674</ele>
        <time>2018-09-13T06:23:59.000Z</time>
      </trkpt>
      <trkpt lat="47.99225" lon="6.5683">
        <ele>674</ele>
        <time>2018-09-13T06:24:00.000Z</time>
      </trkpt>
      <trkpt lat="47.99224" lon="6.5683">
        <ele>674</ele>
        <time>2018-09-13T06:24:01.000Z</time>
      </trkpt>
      <trkpt lat="47.99222" lon="6.5683">
        <ele>674</ele>
        <time>2018-09-13T06:24:02.000Z</time>
      </trkpt>
      <trkpt lat="47.99221" lon="6.56831">
        <ele>674</ele>
        <time>2018-09-13T06:24:03.000Z</time>
      </trkpt>
      <trkpt lat="47.9922" lon="6.56833">
        <ele>674</ele>
        <time>2018-09-13T06:24:04.000Z</time>
      </trkpt>
      <trkpt lat="47.99219" lon="6.56834">
        <ele>674</ele>
        <time>2018-09-13T06:24:05.000Z</time>
      </trkpt>
      <trkpt lat="47.99219" lon="6.56836">
        <ele>674</ele>
        <time>2018-09-13T06:24:06.000Z</time>
      </trkpt>
      <trkpt lat="47.99219" lon="6.56839">
        <ele>673</ele>
        <time>2018-09-13T06:24:07.000Z</time>
      </trkpt>
      <trkpt lat="47.9922" lon="6.56841">
        <ele>673</ele>
        <time>2018-09-13T06:24:08.000Z</time>
      </trkpt>
      <trkpt lat="47.99221" lon="6.56844">
        <ele>673</ele>
        <time>2018-09-13T06:24:09.000Z</time>
      </trkpt>
      <trkpt lat="47.99222" lon="6.56847">
        <ele>673</ele>
        <time>2018-09-13T06:24:10.000Z</time>
      </trkpt>
      <trkpt lat="47.99223" lon="6.56849">
        <ele>673</ele>
        <time>2018-09-13T06:24:11.000Z</time>
      </trkpt>
      <trkpt lat="47.99225" lon="6.5685">
        <ele>673</ele>
        <time>2018-09-13T06:24:12.000Z</time>
      </trkpt>
      <trkpt lat="47.99227" lon="6.56851">
        <ele>673</ele>
        <time>2018-09-13T06:24:13.000Z</time>
      </trkpt>
      <trkpt lat="47.99228" lon="6.56852">
        <ele>672</ele>
        <time>2018-09-13T06:24:14.000Z</time>
      </trkpt>
      <trkpt lat="47.9923" lon="6.56853">
        <ele>672</ele>
        <time>2018-09-13T06:24:15.000Z</time>
      </trkpt>
      <trkpt lat="47.99232" lon="6.56855">
        <ele>672</ele>
        <time>2018-09-13T06:24:16.000Z</time>
      </trkpt>
      <trkpt lat="47.99234" lon="6.56856">
        <ele>672</ele>
        <time>2018-09-13T06:24:17.000Z</time>
      </trkpt>
      <trkpt lat="47.99236" lon="6.56857">
        <ele>672</ele>
        <time>2018-09-13T06:24:18.000Z</time>
      </trkpt>
      <trkpt lat="47.99238" lon="6.56858">
        <ele>672</ele>
        <time>2018-09-13T06:24:19.000Z</time>
      </trkpt>
      <trkpt lat="47.9924" lon="6.56859">
        <ele>672</ele>
        <time>2018-09-13T06:24:20.000Z</time>
      </trkpt>
      <trkpt lat="47.99241" lon="6.56859">
        <ele>672</ele>
        <time>2018-09-13T06:24:21.000Z</time>
      </trkpt>
      <trkpt lat="47.99243" lon="6.5686">
        <ele>671</ele>
        <time>2018-09-13T06:24:22.000Z</time>
      </trkpt>
      <trkpt lat="47.99245" lon="6.56862">
        <ele>671</ele>
        <time>2018-09-13T06:24:23.000Z</time>
      </trkpt>
      <trkpt lat="47.99247" lon="6.56863">
        <ele>671</ele>
        <time>2018-09-13T06:24:24.000Z</time>
      </trkpt>
      <trkpt lat="47.99249" lon="6.56865">
        <ele>671</ele>
        <time>2018-09-13T06:24:25.000Z</time>
      </trkpt>
      <trkpt lat="47.99252" lon="6.56867">
        <ele>670</ele>
        <time>2018-09-13T06:24:26.000Z</time>
      </trkpt>
      <trkpt lat="47.99254" lon="6.56868">
        <ele>670</ele>
        <time>2018-09-13T06:24:27.000Z</time>
      </trkpt>
      <trkpt lat="47.99256" lon="6.5687">
        <ele>670</ele>
        <time>2018-09-13T06:24:28.000Z</time>
      </trkpt>
      <trkpt lat="47.99258" lon="6.56871">
        <ele>670</ele>
        <time>2018-09-13T06:24:29.000Z</time>
      </trkpt>
      <trkpt lat="47.9926" lon="6.56873">
        <ele>670</ele>
        <time>2018-09-13T06:24:30.000Z</time>
      </trkpt>
      <trkpt lat="47.99262" lon="6.56874">
        <ele>669</ele>
        <time>2018-09-13T06:24:31.000Z</time>
      </trkpt>
      <trkpt lat="47.99264" lon="6.56875">
        <ele>669</ele>
        <time>2018-09-13T06:24:32.000Z</time>
      </trkpt>
      <trkpt lat="47.99266" lon="6.56876">
        <ele>669</ele>
        <time>2018-09-13T06:24:33.000Z</time>
      </trkpt>
      <trkpt lat="47.99268" lon="6.56878">
        <ele>669</ele>
        <time>2018-09-13T06:24:34.000Z</time>
      </trkpt>
      <trkpt lat="47.99271" lon="6.5688">
        <ele>668</ele>
        <time>2018-09-13T06:24:35.000Z</time>
      </trkpt>
      <trkpt lat="47.99273" lon="6.56882">
        <ele>668</ele>
        <time>2018-09-13T06:24:36.000Z</time>
      </trkpt>
      <trkpt lat="47.99275" lon="6.56884">
        <ele>667</ele>
        <time>2018-09-13T06:24:37.000Z</time>
      </trkpt>
      <trkpt lat="47.99277" lon="6.56886">
        <ele>667</ele>
        <time>2018-09-13T06:24:38.000Z</time>
      </trkpt>
      <trkpt lat="47.99279" lon="6.56888">
        <ele>667</ele>
        <time>2018-09-13T06:24:39.000Z</time>
      </trkpt>
      <trkpt lat="47.9928" lon="6.56889">
        <ele>667</ele>
        <time>2018-09-13T06:24:40.000Z</time>
      </trkpt>
      <trkpt lat="47.99282" lon="6.56891">
        <ele>666</ele>
        <time>2018-09-13T06:24:41.000Z</time>
      </trkpt>
      <trkpt lat="47.99284" lon="6.56892">
        <ele>666</ele>
        <time>2018-09-13T06:24:42.000Z</time>
      </trkpt>
      <trkpt lat="47.99286" lon="6.56893">
        <ele>666</ele>
        <time>2018-09-13T06:24:43.000Z</time>
      </trkpt>
      <trkpt lat="47.99288" lon="6.56895">
        <ele>666</ele>
        <time>2018-09-13T06:24:44.000Z</time>
      </trkpt>
      <trkpt lat="47.99289" lon="6.56896">
        <ele>666</ele>
        <time>2018-09-13T06:24:45.000Z</time>
      </trkpt>
      <trkpt lat="47.99291" lon="6.56898">
        <ele>666</ele>
        <time>2018-09-13T06:24:46.000Z</time>
      </trkpt>
      <trkpt lat="47.99292" lon="6.56899">
        <ele>666</ele>
        <time>2018-09-13T06:24:47.000Z</time>
      </trkpt>
      <trkpt lat="47.99294" lon="6.569">
        <ele>666</ele>
        <time>2018-09-13T06:24:48.000Z</time>
      </trkpt>
      <trkpt lat="47.99296" lon="6.56902">
        <ele>665</ele>
        <time>2018-09-13T06:24:49.000Z</time>
      </trkpt>
      <trkpt lat="47.99297" lon="6.56903">
        <ele>665</ele>
        <time>2018-09-13T06:24:50.000Z</time>
      </trkpt>
      <trkpt lat="47.99299" lon="6.56905">
        <ele>665</ele>
        <time>2018-09-13T06:24:51.000Z</time>
      </trkpt>
      <trkpt lat="47.993" lon="6.56908">
        <ele>665</ele>
        <time>2018-09-13T06:24:52.000Z</time>
      </trkpt>
      <trkpt lat="47.99301" lon="6.56911">
        <ele>665</ele>
        <time>2018-09-13T06:24:53.000Z</time>
      </trkpt>
      <trkpt lat="47.99302" lon="6.56913">
        <ele>665</ele>
        <time>2018-09-13T06:24:54.000Z</time>
      </trkpt>
      <trkpt lat="47.99303" lon="6.56916">
        <ele>665</ele>
        <time>2018-09-13T06:24:55.000Z</time>
      </trkpt>
      <trkpt lat="47.99303" lon="6.56919">
        <ele>664</ele>
        <time>2018-09-13T06:24:56.000Z</time>
      </trkpt>
      <trkpt lat="47.99302" lon="6.56922">
        <ele>664</ele>
        <time>2018-09-13T06:24:57.000Z</time>
      </trkpt>
      <trkpt lat="47.99301" lon="6.56925">
        <ele>664</ele>
        <time>2018-09-13T06:24:58.000Z</time>
      </trkpt>
      <trkpt lat="47.993" lon="6.56928">
        <ele>663</ele>
        <time>2018-09-13T06:24:59.000Z</time>
      </trkpt>
      <trkpt lat="47.99299" lon="6.56931">
        <ele>663</ele>
        <time>2018-09-13T06:25:00.000Z</time>
      </trkpt>
      <trkpt lat="47.99298" lon="6.56933">
        <ele>663</ele>
        <time>2018-09-13T06:25:01.000Z</time>
      </trkpt>
      <trkpt lat="47.99297" lon="6.56936">
        <ele>662</ele>
        <time>2018-09-13T06:25:02.000Z</time>
      </trkpt>
      <trkpt lat="47.99297" lon="6.56938">
        <ele>662</ele>
        <time>2018-09-13T06:25:03.000Z</time>
      </trkpt>
      <trkpt lat="47.99297" lon="6.56941">
        <ele>661</ele>
        <time>2018-09-13T06:25:04.000Z</time>
      </trkpt>
      <trkpt lat="47.99298" lon="6.56943">
        <ele>661</ele>
        <time>2018-09-13T06:25:05.000Z</time>
      </trkpt>
      <trkpt lat="47.99298" lon="6.56945">
        <ele>660</ele>
        <time>2018-09-13T06:25:06.000Z</time>
      </trkpt>
      <trkpt lat="47.99298" lon="6.56947">
        <ele>660</ele>
        <time>2018-09-13T06:25:07.000Z</time>
      </trkpt>
      <trkpt lat="47.99299" lon="6.56949">
        <ele>659</ele>
        <time>2018-09-13T06:25:08.000Z</time>
      </trkpt>
      <trkpt lat="47.99299" lon="6.56951">
        <ele>659</ele>
        <time>2018-09-13T06:25:09.000Z</time>
      </trkpt>
      <trkpt lat="47.99299" lon="6.56953">
        <ele>659</ele>
        <time>2018-09-13T06:25:10.000Z</time>
      </trkpt>
      <trkpt lat="47.993" lon="6.56955">
        <ele>658</ele>
        <time>2018-09-13T06:25:11.000Z</time>
      </trkpt>
      <trkpt lat="47.993" lon="6.56957">
        <ele>658</ele>
        <time>2018-09-13T06:25:12.000Z</time>
      </trkpt>
      <trkpt lat="47.993" lon="6.56959">
        <ele>658</ele>
        <time>2018-09-13T06:25:13.000Z</time>
      </trkpt>
      <trkpt lat="47.99301" lon="6.56962">
        <ele>657</ele>
        <time>2018-09-13T06:25:14.000Z</time>
      </trkpt>
      <trkpt lat="47.99301" lon="6.56964">
        <ele>657</ele>
        <time>2018-09-13T06:25:15.000Z</time>
      </trkpt>
      <trkpt lat="47.99301" lon="6.56966">
        <ele>657</ele>
        <time>2018-09-13T06:25:16.000Z</time>
      </trkpt>
      <trkpt lat="47.99301" lon="6.56968">
        <ele>657</ele>
        <time>2018-09-13T06:25:17.000Z</time>
      </trkpt>
      <trkpt lat="47.99301" lon="6.5697">
        <ele>656</ele>
        <time>2018-09-13T06:25:18.000Z</time>
      </trkpt>
      <trkpt lat="47.99301" lon="6.56972">
        <ele>656</ele>
        <time>2018-09-13T06:25:19.000Z</time>
      </trkpt>
      <trkpt lat="47.993" lon="6.56976">
        <ele>656</ele>
        <time>2018-09-13T06:25:20.000Z</time>
      </trkpt>
      <trkpt lat="47.99298" lon="6.5698">
        <ele>655</ele>
        <time>2018-09-13T06:25:21.000Z</time>
      </trkpt>
      <trkpt lat="47.99296" lon="6.56984">
        <ele>655</ele>
        <time>2018-09-13T06:25:22.000Z</time>
      </trkpt>
      <trkpt lat="47.99295" lon="6.56988">
        <ele>655</ele>
        <time>2018-09-13T06:25:23.000Z</time>
      </trkpt>
      <trkpt lat="47.99293" lon="6.56992">
        <ele>654</ele>
        <time>2018-09-13T06:25:24.000Z</time>
      </trkpt>
      <trkpt lat="47.99291" lon="6.56996">
        <ele>654</ele>
        <time>2018-09-13T06:25:25.000Z</time>
      </trkpt>
      <trkpt lat="47.99289" lon="6.57">
        <ele>653</ele>
        <time>2018-09-13T06:25:26.000Z</time>
      </trkpt>
      <trkpt lat="47.99287" lon="6.57003">
        <ele>653</ele>
        <time>2018-09-13T06:25:27.000Z</time>
      </trkpt>
      <trkpt lat="47.99285" lon="6.57007">
        <ele>653</ele>
        <time>2018-09-13T06:25:28.000Z</time>
      </trkpt>
      <trkpt lat="47.99284" lon="6.5701">
        <ele>652</ele>
        <time>2018-09-13T06:25:29.000Z</time>
      </trkpt>
      <trkpt lat="47.99282" lon="6.57013">
        <ele>652</ele>
        <time>2018-09-13T06:25:30.000Z</time>
      </trkpt>
      <trkpt lat="47.99281" lon="6.57017">
        <ele>651</ele>
        <time>2018-09-13T06:25:31.000Z</time>
      </trkpt>
      <trkpt lat="47.9928" lon="6.5702">
        <ele>651</ele>
        <time>2018-09-13T06:25:32.000Z</time>
      </trkpt>
      <trkpt lat="47.99279" lon="6.57024">
        <ele>651</ele>
        <time>2018-09-13T06:25:33.000Z</time>
      </trkpt>
      <trkpt lat="47.99277" lon="6.57028">
        <ele>650</ele>
        <time>2018-09-13T06:25:34.000Z</time>
      </trkpt>
      <trkpt lat="47.99275" lon="6.57032">
        <ele>650</ele>
        <time>2018-09-13T06:25:35.000Z</time>
      </trkpt>
      <trkpt lat="47.99273" lon="6.57036">
        <ele>649</ele>
        <time>2018-09-13T06:25:36.000Z</time>
      </trkpt>
      <trkpt lat="47.99271" lon="6.5704">
        <ele>649</ele>
        <time>2018-09-13T06:25:37.000Z</time>
      </trkpt>
      <trkpt lat="47.99269" lon="6.57043">
        <ele>648</ele>
        <time>2018-09-13T06:25:38.000Z</time>
      </trkpt>
      <trkpt lat="47.99267" lon="6.57046">
        <ele>648</ele>
        <time>2018-09-13T06:25:39.000Z</time>
      </trkpt>
      <trkpt lat="47.99265" lon="6.57049">
        <ele>648</ele>
        <time>2018-09-13T06:25:40.000Z</time>
      </trkpt>
      <trkpt lat="47.99262" lon="6.57051">
        <ele>647</ele>
        <time>2018-09-13T06:25:41.000Z</time>
      </trkpt>
      <trkpt lat="47.9926" lon="6.57053">
        <ele>647</ele>
        <time>2018-09-13T06:25:42.000Z</time>
      </trkpt>
      <trkpt lat="47.99259" lon="6.57054">
        <ele>646</ele>
        <time>2018-09-13T06:25:43.000Z</time>
      </trkpt>
      <trkpt lat="47.99257" lon="6.57055">
        <ele>646</ele>
        <time>2018-09-13T06:25:44.000Z</time>
      </trkpt>
      <trkpt lat="47.99255" lon="6.57056">
        <ele>646</ele>
        <time>2018-09-13T06:25:45.000Z</time>
      </trkpt>
      <trkpt lat="47.99254" lon="6.57056">
        <ele>645</ele>
        <time>2018-09-13T06:25:46.000Z</time>
      </trkpt>
      <trkpt lat="47.99252" lon="6.57056">
        <ele>645</ele>
        <time>2018-09-13T06:25:47.000Z</time>
      </trkpt>
      <trkpt lat="47.99251" lon="6.57057">
        <ele>644</ele>
        <time>2018-09-13T06:25:48.000Z</time>
      </trkpt>
      <trkpt lat="47.9925" lon="6.57057">
        <ele>644</ele>
        <time>2018-09-13T06:25:49.000Z</time>
      </trkpt>
      <trkpt lat="47.99249" lon="6.57057">
        <ele>644</ele>
        <time>2018-09-13T06:25:50.000Z</time>
      </trkpt>
      <trkpt lat="47.99248" lon="6.57057">
        <ele>643</ele>
        <time>2018-09-13T06:25:51.000Z</time>
      </trkpt>
      <trkpt lat="47.99246" lon="6.57057">
        <ele>643</ele>
        <time>2018-09-13T06:25:52.000Z</time>
      </trkpt>
      <trkpt lat="47.99245" lon="6.57056">
        <ele>643</ele>
        <time>2018-09-13T06:25:53.000Z</time>
      </trkpt>
      <trkpt lat="47.99244" lon="6.57056">
        <ele>642</ele>
        <time>2018-09-13T06:25:54.000Z</time>
      </trkpt>
      <trkpt lat="47.99242" lon="6.57056">
        <ele>642</ele>
        <time>2018-09-13T06:25:55.000Z</time>
      </trkpt>
      <trkpt lat="47.99241" lon="6.57056">
        <ele>642</ele>
        <time>2018-09-13T06:25:56.000Z</time>
      </trkpt>
      <trkpt lat="47.99239" lon="6.57055">
        <ele>641</ele>
        <time>2018-09-13T06:25:57.000Z</time>
      </trkpt>
      <trkpt lat="47.99237" lon="6.57055">
        <ele>641</ele>
        <time>2018-09-13T06:25:58.000Z</time>
      </trkpt>
      <trkpt lat="47.99236" lon="6.57054">
        <ele>641</ele>
        <time>2018-09-13T06:25:59.000Z</time>
      </trkpt>
      <trkpt lat="47.99234" lon="6.57054">
        <ele>641</ele>
        <time>2018-09-13T06:26:00.000Z</time>
      </trkpt>
      <trkpt lat="47.99233" lon="6.57053">
        <ele>640</ele>
        <time>2018-09-13T06:26:01.000Z</time>
      </trkpt>
      <trkpt lat="47.99231" lon="6.57052">
        <ele>640</ele>
        <time>2018-09-13T06:26:02.000Z</time>
      </trkpt>
      <trkpt lat="47.9923" lon="6.5705">
        <ele>639</ele>
        <time>2018-09-13T06:26:03.000Z</time>
      </trkpt>
      <trkpt lat="47.99228" lon="6.57049">
        <ele>639</ele>
        <time>2018-09-13T06:26:04.000Z</time>
      </trkpt>
      <trkpt lat="47.99226" lon="6.57048">
        <ele>639</ele>
        <time>2018-09-13T06:26:05.000Z</time>
      </trkpt>
      <trkpt lat="47.99225" lon="6.57048">
        <ele>638</ele>
        <time>2018-09-13T06:26:06.000Z</time>
      </trkpt>
      <trkpt lat="47.99224" lon="6.57048">
        <ele>638</ele>
        <time>2018-09-13T06:26:07.000Z</time>
      </trkpt>
      <trkpt lat="47.99223" lon="6.57048">
        <ele>637</ele>
        <time>2018-09-13T06:26:08.000Z</time>
      </trkpt>
      <trkpt lat="47.99222" lon="6.57049">
        <ele>637</ele>
        <time>2018-09-13T06:26:09.000Z</time>
      </trkpt>
      <trkpt lat="47.9922" lon="6.5705">
        <ele>637</ele>
        <time>2018-09-13T06:26:10.000Z</time>
      </trkpt>
      <trkpt lat="47.99219" lon="6.57051">
        <ele>636</ele>
        <time>2018-09-13T06:26:11.000Z</time>
      </trkpt>
      <trkpt lat="47.99218" lon="6.57053">
        <ele>636</ele>
        <time>2018-09-13T06:26:12.000Z</time>
      </trkpt>
      <trkpt lat="47.99218" lon="6.57056">
        <ele>636</ele>
        <time>2018-09-13T06:26:13.000Z</time>
      </trkpt>
      <trkpt lat="47.99218" lon="6.57058">
        <ele>635</ele>
        <time>2018-09-13T06:26:14.000Z</time>
      </trkpt>
      <trkpt lat="47.99218" lon="6.57061">
        <ele>635</ele>
        <time>2018-09-13T06:26:15.000Z</time>
      </trkpt>
      <trkpt lat="47.99218" lon="6.57064">
        <ele>634</ele>
        <time>2018-09-13T06:26:16.000Z</time>
      </trkpt>
      <trkpt lat="47.99218" lon="6.57067">
        <ele>634</ele>
        <time>2018-09-13T06:26:17.000Z</time>
      </trkpt>
      <trkpt lat="47.99218" lon="6.57069">
        <ele>633</ele>
        <time>2018-09-13T06:26:18.000Z</time>
      </trkpt>
      <trkpt lat="47.99218" lon="6.57072">
        <ele>633</ele>
        <time>2018-09-13T06:26:19.000Z</time>
      </trkpt>
      <trkpt lat="47.99219" lon="6.57074">
        <ele>633</ele>
        <time>2018-09-13T06:26:20.000Z</time>
      </trkpt>
      <trkpt lat="47.99219" lon="6.57076">
        <ele>632</ele>
        <time>2018-09-13T06:26:21.000Z</time>
      </trkpt>
      <trkpt lat="47.9922" lon="6.57078">
        <ele>632</ele>
        <time>2018-09-13T06:26:22.000Z</time>
      </trkpt>
      <trkpt lat="47.99221" lon="6.5708">
        <ele>632</ele>
        <time>2018-09-13T06:26:23.000Z</time>
      </trkpt>
      <trkpt lat="47.99222" lon="6.57083">
        <ele>631</ele>
        <time>2018-09-13T06:26:24.000Z</time>
      </trkpt>
      <trkpt lat="47.99223" lon="6.57085">
        <ele>631</ele>
        <time>2018-09-13T06:26:25.000Z</time>
      </trkpt>
      <trkpt lat="47.99224" lon="6.57086">
        <ele>631</ele>
        <time>2018-09-13T06:26:26.000Z</time>
      </trkpt>
      <trkpt lat="47.99225" lon="6.57087">
        <ele>630</ele>
        <time>2018-09-13T06:26:27.000Z</time>
      </trkpt>
      <trkpt lat="47.99227" lon="6.57089">
        <ele>630</ele>
        <time>2018-09-13T06:26:28.000Z</time>
      </trkpt>
      <trkpt lat="47.99229" lon="6.5709">
        <ele>630</ele>
        <time>2018-09-13T06:26:29.000Z</time>
      </trkpt>
      <trkpt lat="47.9923" lon="6.57092">
        <ele>629</ele>
        <time>2018-09-13T06:26:30.000Z</time>
      </trkpt>
      <trkpt lat="47.99232" lon="6.57093">
        <ele>629</ele>
        <time>2018-09-13T06:26:31.000Z</time>
      </trkpt>
      <trkpt lat="47.99234" lon="6.57094">
        <ele>629</ele>
        <time>2018-09-13T06:26:32.000Z</time>
      </trkpt>
      <trkpt lat="47.99235" lon="6.57095">
        <ele>628</ele>
        <time>2018-09-13T06:26:33.000Z</time>
      </trkpt>
      <trkpt lat="47.99237" lon="6.57096">
        <ele>628</ele>
        <time>2018-09-13T06:26:34.000Z</time>
      </trkpt>
      <trkpt lat="47.99238" lon="6.57098">
        <ele>627</ele>
        <time>2018-09-13T06:26:35.000Z</time>
      </trkpt>
      <trkpt lat="47.9924" lon="6.57099">
        <ele>627</ele>
        <time>2018-09-13T06:26:36.000Z</time>
      </trkpt>
      <trkpt lat="47.99242" lon="6.571">
        <ele>626</ele>
        <time>2018-09-13T06:26:37.000Z</time>
      </trkpt>
      <trkpt lat="47.99244" lon="6.57101">
        <ele>626</ele>
        <time>2018-09-13T06:26:38.000Z</time>
      </trkpt>
      <trkpt lat="47.99245" lon="6.57101">
        <ele>625</ele>
        <time>2018-09-13T06:26:39.000Z</time>
      </trkpt>
      <trkpt lat="47.99247" lon="6.57102">
        <ele>625</ele>
        <time>2018-09-13T06:26:40.000Z</time>
      </trkpt>
      <trkpt lat="47.99248" lon="6.57103">
        <ele>625</ele>
        <time>2018-09-13T06:26:41.000Z</time>
      </trkpt>
      <trkpt lat="47.9925" lon="6.57104">
        <ele>624</ele>
        <time>2018-09-13T06:26:42.000Z</time>
      </trkpt>
      <trkpt lat="47.99251" lon="6.57105">
        <ele>624</ele>
        <time>2018-09-13T06:26:43.000Z</time>
      </trkpt>
      <trkpt lat="47.99253" lon="6.57106">
        <ele>624</ele>
        <time>2018-09-13T06:26:44.000Z</time>
      </trkpt>
      <trkpt lat="47.99255" lon="6.57107">
        <ele>623</ele>
        <time>2018-09-13T06:26:45.000Z</time>
      </trkpt>
      <trkpt lat="47.99256" lon="6.57109">
        <ele>623</ele>
        <time>2018-09-13T06:26:46.000Z</time>
      </trkpt>
      <trkpt lat="47.99258" lon="6.57109">
        <ele>623</ele>
        <time>2018-09-13T06:26:47.000Z</time>
      </trkpt>
      <trkpt lat="47.99259" lon="6.5711">
        <ele>623</ele>
        <time>2018-09-13T06:26:48.000Z</time>
      </trkpt>
      <trkpt lat="47.9926" lon="6.57112">
        <ele>622</ele>
        <time>2018-09-13T06:26:49.000Z</time>
      </trkpt>
      <trkpt lat="47.99262" lon="6.57113">
        <ele>622</ele>
        <time>2018-09-13T06:26:50.000Z</time>
      </trkpt>
      <trkpt lat="47.99263" lon="6.57114">
        <ele>622</ele>
        <time>2018-09-13T06:26:51.000Z</time>
      </trkpt>
      <trkpt lat="47.99265" lon="6.57116">
        <ele>621</ele>
        <time>2018-09-13T06:26:52.000Z</time>
      </trkpt>
      <trkpt lat="47.99266" lon="6.57117">
        <ele>621</ele>
        <time>2018-09-13T06:26:53.000Z</time>
      </trkpt>
      <trkpt lat="47.99268" lon="6.57119">
        <ele>620</ele>
        <time>2018-09-13T06:26:54.000Z</time>
      </trkpt>
      <trkpt lat="47.99269" lon="6.57121">
        <ele>620</ele>
        <time>2018-09-13T06:26:55.000Z</time>
      </trkpt>
      <trkpt lat="47.9927" lon="6.57123">
        <ele>620</ele>
        <time>2018-09-13T06:26:56.000Z</time>
      </trkpt>
      <trkpt lat="47.99271" lon="6.57125">
        <ele>619</ele>
        <time>2018-09-13T06:26:57.000Z</time>
      </trkpt>
      <trkpt lat="47.99271" lon="6.57127">
        <ele>619</ele>
        <time>2018-09-13T06:26:58.000Z</time>
      </trkpt>
      <trkpt lat="47.99272" lon="6.57129">
        <ele>618</ele>
        <time>2018-09-13T06:26:59.000Z</time>
      </trkpt>
      <trkpt lat="47.99272" lon="6.57132">
        <ele>618</ele>
        <time>2018-09-13T06:27:00.000Z</time>
      </trkpt>
      <trkpt lat="47.99272" lon="6.57134">
        <ele>618</ele>
        <time>2018-09-13T06:27:01.000Z</time>
      </trkpt>
      <trkpt lat="47.99272" lon="6.57136">
        <ele>617</ele>
        <time>2018-09-13T06:27:02.000Z</time>
      </trkpt>
      <trkpt lat="47.99273" lon="6.57138">
        <ele>617</ele>
        <time>2018-09-13T06:27:03.000Z</time>
      </trkpt>
      <trkpt lat="47.99274" lon="6.57139">
        <ele>617</ele>
        <time>2018-09-13T06:27:04.000Z</time>
      </trkpt>
      <trkpt lat="47.99274" lon="6.5714">
        <ele>617</ele>
        <time>2018-09-13T06:27:05.000Z</time>
      </trkpt>
      <trkpt lat="47.99275" lon="6.57142">
        <ele>616</ele>
        <time>2018-09-13T06:27:06.000Z</time>
      </trkpt>
      <trkpt lat="47.99277" lon="6.57143">
        <ele>616</ele>
        <time>2018-09-13T06:27:07.000Z</time>
      </trkpt>
      <trkpt lat="47.99278" lon="6.57144">
        <ele>616</ele>
        <time>2018-09-13T06:27:08.000Z</time>
      </trkpt>
      <trkpt lat="47.99279" lon="6.57145">
        <ele>616</ele>
        <time>2018-09-13T06:27:09.000Z</time>
      </trkpt>
      <trkpt lat="47.9928" lon="6.57146">
        <ele>616</ele>
        <time>2018-09-13T06:27:10.000Z</time>
      </trkpt>
      <trkpt lat="47.99281" lon="6.57148">
        <ele>615</ele>
        <time>2018-09-13T06:27:11.000Z</time>
      </trkpt>
      <trkpt lat="47.99282" lon="6.5715">
        <ele>615</ele>
        <time>2018-09-13T06:27:12.000Z</time>
      </trkpt>
      <trkpt lat="47.99282" lon="6.57151">
        <ele>615</ele>
        <time>2018-09-13T06:27:13.000Z</time>
      </trkpt>
      <trkpt lat="47.99283" lon="6.57153">
        <ele>615</ele>
        <time>2018-09-13T06:27:14.000Z</time>
      </trkpt>
      <trkpt lat="47.99284" lon="6.57154">
        <ele>615</ele>
        <time>2018-09-13T06:27:15.000Z</time>
      </trkpt>
      <trkpt lat="47.99284" lon="6.57155">
        <ele>614</ele>
        <time>2018-09-13T06:27:16.000Z</time>
      </trkpt>
      <trkpt lat="47.99285" lon="6.57156">
        <ele>614</ele>
        <time>2018-09-13T06:27:17.000Z</time>
      </trkpt>
      <trkpt lat="47.99286" lon="6.57158">
        <ele>614</ele>
        <time>2018-09-13T06:27:18.000Z</time>
      </trkpt>
      <trkpt lat="47.99287" lon="6.57159">
        <ele>614</ele>
        <time>2018-09-13T06:27:19.000Z</time>
      </trkpt>
      <trkpt lat="47.99288" lon="6.5716">
        <ele>614</ele>
        <time>2018-09-13T06:27:20.000Z</time>
      </trkpt>
      <trkpt lat="47.99289" lon="6.57162">
        <ele>614</ele>
        <time>2018-09-13T06:27:21.000Z</time>
      </trkpt>
      <trkpt lat="47.99291" lon="6.57164">
        <ele>613</ele>
        <time>2018-09-13T06:27:22.000Z</time>
      </trkpt>
      <trkpt lat="47.99293" lon="6.57166">
        <ele>613</ele>
        <time>2018-09-13T06:27:23.000Z</time>
      </trkpt>
      <trkpt lat="47.99294" lon="6.57168">
        <ele>612</ele>
        <time>2018-09-13T06:27:24.000Z</time>
      </trkpt>
      <trkpt lat="47.99296" lon="6.57169">
        <ele>612</ele>
        <time>2018-09-13T06:27:25.000Z</time>
      </trkpt>
      <trkpt lat="47.99298" lon="6.57171">
        <ele>611</ele>
        <time>2018-09-13T06:27:26.000Z</time>
      </trkpt>
      <trkpt lat="47.99299" lon="6.57172">
        <ele>611</ele>
        <time>2018-09-13T06:27:27.000Z</time>
      </trkpt>
      <trkpt lat="47.993" lon="6.57174">
        <ele>610</ele>
        <time>2018-09-13T06:27:28.000Z</time>
      </trkpt>
      <trkpt lat="47.99301" lon="6.57176">
        <ele>610</ele>
        <time>2018-09-13T06:27:29.000Z</time>
      </trkpt>
      <trkpt lat="47.99302" lon="6.57178">
        <ele>609</ele>
        <time>2018-09-13T06:27:30.000Z</time>
      </trkpt>
      <trkpt lat="47.99303" lon="6.5718">
        <ele>609</ele>
        <time>2018-09-13T06:27:31.000Z</time>
      </trkpt>
      <trkpt lat="47.99305" lon="6.57181">
        <ele>609</ele>
        <time>2018-09-13T06:27:32.000Z</time>
      </trkpt>
      <trkpt lat="47.99306" lon="6.57183">
        <ele>608</ele>
        <time>2018-09-13T06:27:33.000Z</time>
      </trkpt>
      <trkpt lat="47.99307" lon="6.57186">
        <ele>608</ele>
        <time>2018-09-13T06:27:34.000Z</time>
      </trkpt>
      <trkpt lat="47.99308" lon="6.57188">
        <ele>608</ele>
        <time>2018-09-13T06:27:35.000Z</time>
      </trkpt>
      <trkpt lat="47.99308" lon="6.5719">
        <ele>608</ele>
        <time>2018-09-13T06:27:36.000Z</time>
      </trkpt>
      <trkpt lat="47.99308" lon="6.57192">
        <ele>608</ele>
        <time>2018-09-13T06:27:37.000Z</time>
      </trkpt>
      <trkpt lat="47.99308" lon="6.57193">
        <ele>607</ele>
        <time>2018-09-13T06:27:38.000Z</time>
      </trkpt>
      <trkpt lat="47.99307" lon="6.57194">
        <ele>607</ele>
        <time>2018-09-13T06:27:39.000Z</time>
      </trkpt>
      <trkpt lat="47.99306" lon="6.57194">
        <ele>607</ele>
        <time>2018-09-13T06:27:40.000Z</time>
      </trkpt>
      <trkpt lat="47.99305" lon="6.57194">
        <ele>607</ele>
        <time>2018-09-13T06:27:41.000Z</time>
      </trkpt>
      <trkpt lat="47.99303" lon="6.57194">
        <ele>607</ele>
        <time>2018-09-13T06:27:42.000Z</time>
      </trkpt>
      <trkpt lat="47.99301" lon="6.57193">
        <ele>606</ele>
        <time>2018-09-13T06:27:43.000Z</time>
      </trkpt>
      <trkpt lat="47.993" lon="6.57193">
        <ele>606</ele>
        <time>2018-09-13T06:27:44.000Z</time>
      </trkpt>
      <trkpt lat="47.99299" lon="6.57192">
        <ele>606</ele>
        <time>2018-09-13T06:27:45.000Z</time>
      </trkpt>
      <trkpt lat="47.99297" lon="6.57191">
        <ele>605</ele>
        <time>2018-09-13T06:27:46.000Z</time>
      </trkpt>
      <trkpt lat="47.99295" lon="6.5719">
        <ele>605</ele>
        <time>2018-09-13T06:27:47.000Z</time>
      </trkpt>
      <trkpt lat="47.99293" lon="6.57189">
        <ele>605</ele>
        <time>2018-09-13T06:27:48.000Z</time>
      </trkpt>
      <trkpt lat="47.99292" lon="6.57188">
        <ele>605</ele>
        <time>2018-09-13T06:27:49.000Z</time>
      </trkpt>
      <trkpt lat="47.9929" lon="6.57187">
        <ele>605</ele>
        <time>2018-09-13T06:27:50.000Z</time>
      </trkpt>
      <trkpt lat="47.99289" lon="6.57186">
        <ele>604</ele>
        <time>2018-09-13T06:27:51.000Z</time>
      </trkpt>
      <trkpt lat="47.99287" lon="6.57185">
        <ele>604</ele>
        <time>2018-09-13T06:27:52.000Z</time>
      </trkpt>
      <trkpt lat="47.99285" lon="6.57184">
        <ele>604</ele>
        <time>2018-09-13T06:27:53.000Z</time>
      </trkpt>
      <trkpt lat="47.99284" lon="6.57183">
        <ele>604</ele>
        <time>2018-09-13T06:27:54.000Z</time>
      </trkpt>
      <trkpt lat="47.99283" lon="6.57182">
        <ele>604</ele>
        <time>2018-09-13T06:27:55.000Z</time>
      </trkpt>
      <trkpt lat="47.99281" lon="6.57181">
        <ele>603</ele>
        <time>2018-09-13T06:27:56.000Z</time>
      </trkpt>
      <trkpt lat="47.9928" lon="6.5718">
        <ele>603</ele>
        <time>2018-09-13T06:27:57.000Z</time>
      </trkpt>
      <trkpt lat="47.99279" lon="6.57178">
        <ele>603</ele>
        <time>2018-09-13T06:27:58.000Z</time>
      </trkpt>
      <trkpt lat="47.99277" lon="6.57176">
        <ele>603</ele>
        <time>2018-09-13T06:27:59.000Z</time>
      </trkpt>
      <trkpt lat="47.99276" lon="6.57175">
        <ele>603</ele>
        <time>2018-09-13T06:28:00.000Z</time>
      </trkpt>
      <trkpt lat="47.99274" lon="6.57173">
        <ele>602</ele>
        <time>2018-09-13T06:28:01.000Z</time>
      </trkpt>
      <trkpt lat="47.99273" lon="6.57172">
        <ele>602</ele>
        <time>2018-09-13T06:28:02.000Z</time>
      </trkpt>
      <trkpt lat="47.99271" lon="6.5717">
        <ele>602</ele>
        <time>2018-09-13T06:28:03.000Z</time>
      </trkpt>
      <trkpt lat="47.9927" lon="6.57169">
        <ele>602</ele>
        <time>2018-09-13T06:28:04.000Z</time>
      </trkpt>
      <trkpt lat="47.99268" lon="6.57168">
        <ele>602</ele>
        <time>2018-09-13T06:28:05.000Z</time>
      </trkpt>
      <trkpt lat="47.99267" lon="6.57166">
        <ele>602</ele>
        <time>2018-09-13T06:28:06.000Z</time>
      </trkpt>
      <trkpt lat="47.99266" lon="6.57165">
        <ele>602</ele>
        <time>2018-09-13T06:28:07.000Z</time>
      </trkpt>
      <trkpt lat="47.99265" lon="6.57164">
        <ele>602</ele>
        <time>2018-09-13T06:28:08.000Z</time>
      </trkpt>
      <trkpt lat="47.99263" lon="6.57163">
        <ele>602</ele>
        <time>2018-09-13T06:28:09.000Z</time>
      </trkpt>
      <trkpt lat="47.99262" lon="6.57162">
        <ele>602</ele>
        <time>2018-09-13T06:28:10.000Z</time>
      </trkpt>
      <trkpt lat="47.99261" lon="6.5716">
        <ele>601</ele>
        <time>2018-09-13T06:28:11.000Z</time>
      </trkpt>
      <trkpt lat="47.99259" lon="6.57159">
        <ele>601</ele>
        <time>2018-09-13T06:28:12.000Z</time>
      </trkpt>
      <trkpt lat="47.99258" lon="6.57158">
        <ele>601</ele>
        <time>2018-09-13T06:28:13.000Z</time>
      </trkpt>
      <trkpt lat="47.99256" lon="6.57157">
        <ele>601</ele>
        <time>2018-09-13T06:28:14.000Z</time>
      </trkpt>
      <trkpt lat="47.99255" lon="6.57156">
        <ele>601</ele>
        <time>2018-09-13T06:28:15.000Z</time>
      </trkpt>
      <trkpt lat="47.99254" lon="6.57155">
        <ele>601</ele>
        <time>2018-09-13T06:28:16.000Z</time>
      </trkpt>
      <trkpt lat="47.99252" lon="6.57154">
        <ele>601</ele>
        <time>2018-09-13T06:28:17.000Z</time>
      </trkpt>
      <trkpt lat="47.99251" lon="6.57153">
        <ele>601</ele>
        <time>2018-09-13T06:28:18.000Z</time>
      </trkpt>
      <trkpt lat="47.9925" lon="6.57152">
        <ele>601</ele>
        <time>2018-09-13T06:28:19.000Z</time>
      </trkpt>
      <trkpt lat="47.99249" lon="6.57152">
        <ele>601</ele>
        <time>2018-09-13T06:28:20.000Z</time>
      </trkpt>
      <trkpt lat="47.99248" lon="6.57152">
        <ele>601</ele>
        <time>2018-09-13T06:28:21.000Z</time>
      </trkpt>
      <trkpt lat="47.99246" lon="6.57151">
        <ele>601</ele>
        <time>2018-09-13T06:28:22.000Z</time>
      </trkpt>
      <trkpt lat="47.99245" lon="6.57151">
        <ele>601</ele>
        <time>2018-09-13T06:28:23.000Z</time>
      </trkpt>
      <trkpt lat="47.99243" lon="6.57152">
        <ele>601</ele>
        <time>2018-09-13T06:28:24.000Z</time>
      </trkpt>
      <trkpt lat="47.99242" lon="6.57151">
        <ele>602</ele>
        <time>2018-09-13T06:28:25.000Z</time>
      </trkpt>
      <trkpt lat="47.9924" lon="6.57151">
        <ele>602</ele>
        <time>2018-09-13T06:28:26.000Z</time>
      </trkpt>
      <trkpt lat="47.99238" lon="6.57151">
        <ele>602</ele>
        <time>2018-09-13T06:28:27.000Z</time>
      </trkpt>
      <trkpt lat="47.99237" lon="6.57151">
        <ele>602</ele>
        <time>2018-09-13T06:28:28.000Z</time>
      </trkpt>
      <trkpt lat="47.99235" lon="6.57151">
        <ele>602</ele>
        <time>2018-09-13T06:28:29.000Z</time>
      </trkpt>
      <trkpt lat="47.99234" lon="6.57151">
        <ele>602</ele>
        <time>2018-09-13T06:28:30.000Z</time>
      </trkpt>
      <trkpt lat="47.99232" lon="6.57151">
        <ele>602</ele>
        <time>2018-09-13T06:28:31.000Z</time>
      </trkpt>
      <trkpt lat="47.99231" lon="6.57151">
        <ele>602</ele>
        <time>2018-09-13T06:28:32.000Z</time>
      </trkpt>
      <trkpt lat="47.9923" lon="6.5715">
        <ele>602</ele>
        <time>2018-09-13T06:28:33.000Z</time>
      </trkpt>
      <trkpt lat="47.99228" lon="6.5715">
        <ele>602</ele>
        <time>2018-09-13T06:28:34.000Z</time>
      </trkpt>
      <trkpt lat="47.99226" lon="6.5715">
        <ele>602</ele>
        <time>2018-09-13T06:28:35.000Z</time>
      </trkpt>
      <trkpt lat="47.99225" lon="6.57149">
        <ele>602</ele>
        <time>2018-09-13T06:28:36.000Z</time>
      </trkpt>
      <trkpt lat="47.99223" lon="6.57149">
        <ele>602</ele>
        <time>2018-09-13T06:28:37.000Z</time>
      </trkpt>
      <trkpt lat="47.99221" lon="6.57148">
        <ele>602</ele>
        <time>2018-09-13T06:28:38.000Z</time>
      </trkpt>
      <trkpt lat="47.9922" lon="6.57147">
        <ele>602</ele>
        <time>2018-09-13T06:28:39.000Z</time>
      </trkpt>
      <trkpt lat="47.99218" lon="6.57147">
        <ele>602</ele>
        <time>2018-09-13T06:28:40.000Z</time>
      </trkpt>
      <trkpt lat="47.99217" lon="6.57146">
        <ele>602</ele>
        <time>2018-09-13T06:28:41.000Z</time>
      </trkpt>
      <trkpt lat="47.99215" lon="6.57145">
        <ele>603</ele>
        <time>2018-09-13T06:28:42.000Z</time>
      </trkpt>
      <trkpt lat="47.99214" lon="6.57144">
        <ele>603</ele>
        <time>2018-09-13T06:28:43.000Z</time>
      </trkpt>
      <trkpt lat="47.99212" lon="6.57144">
        <ele>603</ele>
        <time>2018-09-13T06:28:44.000Z</time>
      </trkpt>
      <trkpt lat="47.99211" lon="6.57143">
        <ele>603</ele>
        <time>2018-09-13T06:28:45.000Z</time>
      </trkpt>
      <trkpt lat="47.99209" lon="6.57143">
        <ele>603</ele>
        <time>2018-09-13T06:28:46.000Z</time>
      </trkpt>
      <trkpt lat="47.99207" lon="6.57142">
        <ele>603</ele>
        <time>2018-09-13T06:28:47.000Z</time>
      </trkpt>
      <trkpt lat="47.99205" lon="6.57141">
        <ele>603</ele>
        <time>2018-09-13T06:28:48.000Z</time>
      </trkpt>
      <trkpt lat="47.99204" lon="6.5714">
        <ele>603</ele>
        <time>2018-09-13T06:28:49.000Z</time>
      </trkpt>
      <trkpt lat="47.99202" lon="6.5714">
        <ele>603</ele>
        <time>2018-09-13T06:28:50.000Z</time>
      </trkpt>
      <trkpt lat="47.992" lon="6.57139">
        <ele>603</ele>
        <time>2018-09-13T06:28:51.000Z</time>
      </trkpt>
      <trkpt lat="47.99199" lon="6.57138">
        <ele>603</ele>
        <time>2018-09-13T06:28:52.000Z</time>
      </trkpt>
      <trkpt lat="47.99197" lon="6.57137">
        <ele>603</ele>
        <time>2018-09-13T06:28:53.000Z</time>
      </trkpt>
      <trkpt lat="47.99196" lon="6.57135">
        <ele>603</ele>
        <time>2018-09-13T06:28:54.000Z</time>
      </trkpt>
      <trkpt lat="47.99195" lon="6.57134">
        <ele>603</ele>
        <time>2018-09-13T06:28:55.000Z</time>
      </trkpt>
      <trkpt lat="47.99193" lon="6.57134">
        <ele>603</ele>
        <time>2018-09-13T06:28:56.000Z</time>
      </trkpt>
      <trkpt lat="47.99192" lon="6.57133">
        <ele>603</ele>
        <time>2018-09-13T06:28:57.000Z</time>
      </trkpt>
      <trkpt lat="47.9919" lon="6.57132">
        <ele>603</ele>
        <time>2018-09-13T06:28:58.000Z</time>
      </trkpt>
      <trkpt lat="47.99189" lon="6.57131">
        <ele>603</ele>
        <time>2018-09-13T06:28:59.000Z</time>
      </trkpt>
      <trkpt lat="47.99188" lon="6.5713">
        <ele>604</ele>
        <time>2018-09-13T06:29:00.000Z</time>
      </trkpt>
      <trkpt lat="47.99186" lon="6.5713">
        <ele>604</ele>
        <time>2018-09-13T06:29:01.000Z</time>
      </trkpt>
      <trkpt lat="47.99185" lon="6.57129">
        <ele>604</ele>
        <time>2018-09-13T06:29:02.000Z</time>
      </trkpt>
      <trkpt lat="47.99183" lon="6.57128">
        <ele>604</ele>
        <time>2018-09-13T06:29:03.000Z</time>
      </trkpt>
      <trkpt lat="47.99182" lon="6.57127">
        <ele>604</ele>
        <time>2018-09-13T06:29:04.000Z</time>
      </trkpt>
      <trkpt lat="47.9918" lon="6.57127">
        <ele>604</ele>
        <time>2018-09-13T06:29:05.000Z</time>
      </trkpt>
      <trkpt lat="47.99178" lon="6.57126">
        <ele>604</ele>
        <time>2018-09-13T06:29:06.000Z</time>
      </trkpt>
      <trkpt lat="47.99177" lon="6.57126">
        <ele>604</ele>
        <time>2018-09-13T06:29:07.000Z</time>
      </trkpt>
      <trkpt lat="47.99176" lon="6.57125">
        <ele>604</ele>
        <time>2018-09-13T06:29:08.000Z</time>
      </trkpt>
      <trkpt lat="47.99174" lon="6.57124">
        <ele>604</ele>
        <time>2018-09-13T06:29:09.000Z</time>
      </trkpt>
      <trkpt lat="47.99173" lon="6.57124">
        <ele>604</ele>
        <time>2018-09-13T06:29:10.000Z</time>
      </trkpt>
      <trkpt lat="47.99172" lon="6.57123">
        <ele>604</ele>
        <time>2018-09-13T06:29:11.000Z</time>
      </trkpt>
      <trkpt lat="47.9917" lon="6.57122">
        <ele>604</ele>
        <time>2018-09-13T06:29:12.000Z</time>
      </trkpt>
      <trkpt lat="47.99169" lon="6.57121">
        <ele>604</ele>
        <time>2018-09-13T06:29:13.000Z</time>
      </trkpt>
      <trkpt lat="47.99168" lon="6.57121">
        <ele>604</ele>
        <time>2018-09-13T06:29:14.000Z</time>
      </trkpt>
      <trkpt lat="47.99167" lon="6.5712">
        <ele>604</ele>
        <time>2018-09-13T06:29:15.000Z</time>
      </trkpt>
      <trkpt lat="47.99166" lon="6.5712">
        <ele>604</ele>
        <time>2018-09-13T06:29:16.000Z</time>
      </trkpt>
      <trkpt lat="47.99165" lon="6.57119">
        <ele>605</ele>
        <time>2018-09-13T06:29:17.000Z</time>
      </trkpt>
      <trkpt lat="47.99164" lon="6.57118">
        <ele>605</ele>
        <time>2018-09-13T06:29:18.000Z</time>
      </trkpt>
      <trkpt lat="47.99163" lon="6.57117">
        <ele>605</ele>
        <time>2018-09-13T06:29:19.000Z</time>
      </trkpt>
      <trkpt lat="47.99162" lon="6.57116">
        <ele>605</ele>
        <time>2018-09-13T06:29:20.000Z</time>
      </trkpt>
      <trkpt lat="47.99161" lon="6.57115">
        <ele>605</ele>
        <time>2018-09-13T06:29:21.000Z</time>
      </trkpt>
      <trkpt lat="47.9916" lon="6.57114">
        <ele>605</ele>
        <time>2018-09-13T06:29:22.000Z</time>
      </trkpt>
      <trkpt lat="47.99159" lon="6.57114">
        <ele>605</ele>
        <time>2018-09-13T06:29:23.000Z</time>
      </trkpt>
      <trkpt lat="47.99157" lon="6.57112">
        <ele>606</ele>
        <time>2018-09-13T06:29:24.000Z</time>
      </trkpt>
      <trkpt lat="47.99156" lon="6.57111">
        <ele>606</ele>
        <time>2018-09-13T06:29:25.000Z</time>
      </trkpt>
      <trkpt lat="47.99155" lon="6.5711">
        <ele>606</ele>
        <time>2018-09-13T06:29:26.000Z</time>
      </trkpt>
      <trkpt lat="47.99154" lon="6.57109">
        <ele>606</ele>
        <time>2018-09-13T06:29:27.000Z</time>
      </trkpt>
      <trkpt lat="47.99153" lon="6.57109">
        <ele>606</ele>
        <time>2018-09-13T06:29:28.000Z</time>
      </trkpt>
      <trkpt lat="47.99151" lon="6.57108">
        <ele>607</ele>
        <time>2018-09-13T06:29:29.000Z</time>
      </trkpt>
      <trkpt lat="47.9915" lon="6.57108">
        <ele>607</ele>
        <time>2018-09-13T06:29:30.000Z</time>
      </trkpt>
      <trkpt lat="47.99149" lon="6.57107">
        <ele>607</ele>
        <time>2018-09-13T06:29:31.000Z</time>
      </trkpt>
      <trkpt lat="47.99148" lon="6.57107">
        <ele>607</ele>
        <time>2018-09-13T06:29:32.000Z</time>
      </trkpt>
      <trkpt lat="47.99146" lon="6.57106">
        <ele>608</ele>
        <time>2018-09-13T06:29:33.000Z</time>
      </trkpt>
      <trkpt lat="47.99145" lon="6.57106">
        <ele>608</ele>
        <time>2018-09-13T06:29:34.000Z</time>
      </trkpt>
      <trkpt lat="47.99144" lon="6.57105">
        <ele>608</ele>
        <time>2018-09-13T06:29:35.000Z</time>
      </trkpt>
      <trkpt lat="47.99142" lon="6.57105">
        <ele>608</ele>
        <time>2018-09-13T06:29:36.000Z</time>
      </trkpt>
      <trkpt lat="47.99141" lon="6.57105">
        <ele>608</ele>
        <time>2018-09-13T06:29:37.000Z</time>
      </trkpt>
      <trkpt lat="47.99139" lon="6.57104">
        <ele>609</ele>
        <time>2018-09-13T06:29:38.000Z</time>
      </trkpt>
      <trkpt lat="47.99138" lon="6.57104">
        <ele>609</ele>
        <time>2018-09-13T06:29:39.000Z</time>
      </trkpt>
      <trkpt lat="47.99137" lon="6.57104">
        <ele>609</ele>
        <time>2018-09-13T06:29:40.000Z</time>
      </trkpt>
      <trkpt lat="47.99135" lon="6.57103">
        <ele>609</ele>
        <time>2018-09-13T06:29:41.000Z</time>
      </trkpt>
      <trkpt lat="47.99134" lon="6.57103">
        <ele>609</ele>
        <time>2018-09-13T06:29:42.000Z</time>
      </trkpt>
      <trkpt lat="47.99133" lon="6.57102">
        <ele>609</ele>
        <time>2018-09-13T06:29:43.000Z</time>
      </trkpt>
      <trkpt lat="47.99131" lon="6.57102">
        <ele>610</ele>
        <time>2018-09-13T06:29:44.000Z</time>
      </trkpt>
      <trkpt lat="47.9913" lon="6.57102">
        <ele>610</ele>
        <time>2018-09-13T06:29:45.000Z</time>
      </trkpt>
      <trkpt lat="47.99129" lon="6.57102">
        <ele>610</ele>
        <time>2018-09-13T06:29:46.000Z</time>
      </trkpt>
      <trkpt lat="47.99128" lon="6.57102">
        <ele>610</ele>
        <time>2018-09-13T06:29:47.000Z</time>
      </trkpt>
      <trkpt lat="47.99126" lon="6.57102">
        <ele>610</ele>
        <time>2018-09-13T06:29:48.000Z</time>
      </trkpt>
      <trkpt lat="47.99125" lon="6.57102">
        <ele>610</ele>
        <time>2018-09-13T06:29:49.000Z</time>
      </trkpt>
      <trkpt lat="47.99124" lon="6.57103">
        <ele>611</ele>
        <time>2018-09-13T06:29:50.000Z</time>
      </trkpt>
      <trkpt lat="47.99123" lon="6.57103">
        <ele>611</ele>
        <time>2018-09-13T06:29:51.000Z</time>
      </trkpt>
      <trkpt lat="47.99122" lon="6.57103">
        <ele>611</ele>
        <time>2018-09-13T06:29:52.000Z</time>
      </trkpt>
      <trkpt lat="47.99121" lon="6.57103">
        <ele>611</ele>
        <time>2018-09-13T06:29:53.000Z</time>
      </trkpt>
      <trkpt lat="47.9912" lon="6.57103">
        <ele>611</ele>
        <time>2018-09-13T06:29:54.000Z</time>
      </trkpt>
      <trkpt lat="47.99119" lon="6.57103">
        <ele>611</ele>
        <time>2018-09-13T06:29:55.000Z</time>
      </trkpt>
      <trkpt lat="47.99118" lon="6.57102">
        <ele>612</ele>
        <time>2018-09-13T06:29:56.000Z</time>
      </trkpt>
      <trkpt lat="47.99117" lon="6.57102">
        <ele>612</ele>
        <time>2018-09-13T06:29:57.000Z</time>
      </trkpt>
      <trkpt lat="47.99117" lon="6.57102">
        <ele>612</ele>
        <time>2018-09-13T06:29:58.000Z</time>
      </trkpt>
      <trkpt lat="47.99117" lon="6.57102">
        <ele>612</ele>
        <time>2018-09-13T06:29:59.000Z</time>
      </trkpt>
      <trkpt lat="47.99117" lon="6.57102">
        <ele>612</ele>
        <time>2018-09-13T06:30:00.000Z</time>
      </trkpt>
      <trkpt lat="47.99116" lon="6.57101">
        <ele>613</ele>
        <time>2018-09-13T06:30:01.000Z</time>
      </trkpt>
      <trkpt lat="47.99115" lon="6.57101">
        <ele>614</ele>
        <time>2018-09-13T06:30:02.000Z</time>
      </trkpt>
      <trkpt lat="47.99114" lon="6.571">
        <ele>614</ele>
        <time>2018-09-13T06:30:03.000Z</time>
      </trkpt>
      <trkpt lat="47.99113" lon="6.571">
        <ele>614</ele>
        <time>2018-09-13T06:30:04.000Z</time>
      </trkpt>
      <trkpt lat="47.99113" lon="6.571">
        <ele>614</ele>
        <time>2018-09-13T06:30:05.000Z</time>
      </trkpt>
      <trkpt lat="47.99112" lon="6.57099">
        <ele>614</ele>
        <time>2018-09-13T06:30:06.000Z</time>
      </trkpt>
      <trkpt lat="47.9911" lon="6.57099">
        <ele>615</ele>
        <time>2018-09-13T06:30:07.000Z</time>
      </trkpt>
      <trkpt lat="47.99109" lon="6.57099">
        <ele>615</ele>
        <time>2018-09-13T06:30:08.000Z</time>
      </trkpt>
      <trkpt lat="47.99108" lon="6.57099">
        <ele>615</ele>
        <time>2018-09-13T06:30:09.000Z</time>
      </trkpt>
      <trkpt lat="47.99106" lon="6.57099">
        <ele>615</ele>
        <time>2018-09-13T06:30:10.000Z</time>
      </trkpt>
      <trkpt lat="47.99105" lon="6.57098">
        <ele>615</ele>
        <time>2018-09-13T06:30:11.000Z</time>
      </trkpt>
      <trkpt lat="47.99104" lon="6.57098">
        <ele>616</ele>
        <time>2018-09-13T06:30:12.000Z</time>
      </trkpt>
      <trkpt lat="47.99102" lon="6.57098">
        <ele>616</ele>
        <time>2018-09-13T06:30:13.000Z</time>
      </trkpt>
      <trkpt lat="47.99101" lon="6.57098">
        <ele>616</ele>
        <time>2018-09-13T06:30:14.000Z</time>
      </trkpt>
      <trkpt lat="47.99099" lon="6.57097">
        <ele>616</ele>
        <time>2018-09-13T06:30:15.000Z</time>
      </trkpt>
      <trkpt lat="47.99098" lon="6.57097">
        <ele>617</ele>
        <time>2018-09-13T06:30:16.000Z</time>
      </trkpt>
      <trkpt lat="47.99097" lon="6.57097">
        <ele>617</ele>
        <time>2018-09-13T06:30:17.000Z</time>
      </trkpt>
      <trkpt lat="47.99095" lon="6.57097">
        <ele>617</ele>
        <time>2018-09-13T06:30:18.000Z</time>
      </trkpt>
      <trkpt lat="47.99094" lon="6.57096">
        <ele>617</ele>
        <time>2018-09-13T06:30:19.000Z</time>
      </trkpt>
      <trkpt lat="47.99092" lon="6.57096">
        <ele>617</ele>
        <time>2018-09-13T06:30:20.000Z</time>
      </trkpt>
      <trkpt lat="47.99091" lon="6.57097">
        <ele>617</ele>
        <time>2018-09-13T06:30:21.000Z</time>
      </trkpt>
      <trkpt lat="47.99089" lon="6.57097">
        <ele>618</ele>
        <time>2018-09-13T06:30:22.000Z</time>
      </trkpt>
      <trkpt lat="47.99088" lon="6.57097">
        <ele>618</ele>
        <time>2018-09-13T06:30:23.000Z</time>
      </trkpt>
      <trkpt lat="47.99086" lon="6.57097">
        <ele>618</ele>
        <time>2018-09-13T06:30:24.000Z</time>
      </trkpt>
      <trkpt lat="47.99085" lon="6.57096">
        <ele>618</ele>
        <time>2018-09-13T06:30:25.000Z</time>
      </trkpt>
      <trkpt lat="47.99083" lon="6.57096">
        <ele>618</ele>
        <time>2018-09-13T06:30:26.000Z</time>
      </trkpt>
      <trkpt lat="47.99082" lon="6.57096">
        <ele>618</ele>
        <time>2018-09-13T06:30:27.000Z</time>
      </trkpt>
      <trkpt lat="47.99081" lon="6.57096">
        <ele>618</ele>
        <time>2018-09-13T06:30:28.000Z</time>
      </trkpt>
      <trkpt lat="47.99079" lon="6.57096">
        <ele>618</ele>
        <time>2018-09-13T06:30:29.000Z</time>
      </trkpt>
      <trkpt lat="47.99078" lon="6.57096">
        <ele>619</ele>
        <time>2018-09-13T06:30:30.000Z</time>
      </trkpt>
      <trkpt lat="47.99077" lon="6.57096">
        <ele>619</ele>
        <time>2018-09-13T06:30:31.000Z</time>
      </trkpt>
      <trkpt lat="47.99076" lon="6.57096">
        <ele>619</ele>
        <time>2018-09-13T06:30:32.000Z</time>
      </trkpt>
      <trkpt lat="47.99075" lon="6.57096">
        <ele>619</ele>
        <time>2018-09-13T06:30:33.000Z</time>
      </trkpt>
      <trkpt lat="47.99074" lon="6.57096">
        <ele>619</ele>
        <time>2018-09-13T06:30:34.000Z</time>
      </trkpt>
      <trkpt lat="47.99073" lon="6.57095">
        <ele>619</ele>
        <time>2018-09-13T06:30:35.000Z</time>
      </trkpt>
      <trkpt lat="47.99072" lon="6.57095">
        <ele>619</ele>
        <time>2018-09-13T06:30:36.000Z</time>
      </trkpt>
      <trkpt lat="47.99071" lon="6.57095">
        <ele>619</ele>
        <time>2018-09-13T06:30:37.000Z</time>
      </trkpt>
      <trkpt lat="47.9907" lon="6.57095">
        <ele>619</ele>
        <time>2018-09-13T06:30:38.000Z</time>
      </trkpt>
      <trkpt lat="47.99069" lon="6.57096">
        <ele>619</ele>
        <time>2018-09-13T06:30:39.000Z</time>
      </trkpt>
      <trkpt lat="47.99069" lon="6.57096">
        <ele>620</ele>
        <time>2018-09-13T06:30:40.000Z</time>
      </trkpt>
      <trkpt lat="47.99068" lon="6.57096">
        <ele>620</ele>
        <time>2018-09-13T06:30:41.000Z</time>
      </trkpt>
      <trkpt lat="47.99067" lon="6.57097">
        <ele>620</ele>
        <time>2018-09-13T06:30:42.000Z</time>
      </trkpt>
      <trkpt lat="47.99065" lon="6.57097">
        <ele>620</ele>
        <time>2018-09-13T06:30:43.000Z</time>
      </trkpt>
      <trkpt lat="47.99064" lon="6.57098">
        <ele>620</ele>
        <time>2018-09-13T06:30:44.000Z</time>
      </trkpt>
      <trkpt lat="47.99062" lon="6.57097">
        <ele>620</ele>
        <time>2018-09-13T06:30:45.000Z</time>
      </trkpt>
      <trkpt lat="47.9906" lon="6.57097">
        <ele>620</ele>
        <time>2018-09-13T06:30:46.000Z</time>
      </trkpt>
      <trkpt lat="47.99058" lon="6.57097">
        <ele>620</ele>
        <time>2018-09-13T06:30:47.000Z</time>
      </trkpt>
      <trkpt lat="47.99056" lon="6.57098">
        <ele>621</ele>
        <time>2018-09-13T06:30:48.000Z</time>
      </trkpt>
      <trkpt lat="47.99054" lon="6.57098">
        <ele>621</ele>
        <time>2018-09-13T06:30:49.000Z</time>
      </trkpt>
      <trkpt lat="47.99053" lon="6.57099">
        <ele>621</ele>
        <time>2018-09-13T06:30:50.000Z</time>
      </trkpt>
      <trkpt lat="47.99051" lon="6.57099">
        <ele>621</ele>
        <time>2018-09-13T06:30:51.000Z</time>
      </trkpt>
      <trkpt lat="47.99049" lon="6.571">
        <ele>621</ele>
        <time>2018-09-13T06:30:52.000Z</time>
      </trkpt>
      <trkpt lat="47.99048" lon="6.571">
        <ele>621</ele>
        <time>2018-09-13T06:30:53.000Z</time>
      </trkpt>
      <trkpt lat="47.99046" lon="6.57101">
        <ele>622</ele>
        <time>2018-09-13T06:30:54.000Z</time>
      </trkpt>
      <trkpt lat="47.99044" lon="6.57101">
        <ele>622</ele>
        <time>2018-09-13T06:30:55.000Z</time>
      </trkpt>
      <trkpt lat="47.99043" lon="6.57101">
        <ele>622</ele>
        <time>2018-09-13T06:30:56.000Z</time>
      </trkpt>
      <trkpt lat="47.99041" lon="6.571">
        <ele>622</ele>
        <time>2018-09-13T06:30:57.000Z</time>
      </trkpt>
      <trkpt lat="47.9904" lon="6.57099">
        <ele>622</ele>
        <time>2018-09-13T06:30:58.000Z</time>
      </trkpt>
      <trkpt lat="47.99038" lon="6.57099">
        <ele>622</ele>
        <time>2018-09-13T06:30:59.000Z</time>
      </trkpt>
      <trkpt lat="47.99037" lon="6.57098">
        <ele>622</ele>
        <time>2018-09-13T06:31:00.000Z</time>
      </trkpt>
      <trkpt lat="47.99036" lon="6.57097">
        <ele>622</ele>
        <time>2018-09-13T06:31:01.000Z</time>
      </trkpt>
      <trkpt lat="47.99034" lon="6.57096">
        <ele>623</ele>
        <time>2018-09-13T06:31:02.000Z</time>
      </trkpt>
      <trkpt lat="47.99033" lon="6.57095">
        <ele>623</ele>
        <time>2018-09-13T06:31:03.000Z</time>
      </trkpt>
      <trkpt lat="47.99032" lon="6.57093">
        <ele>623</ele>
        <time>2018-09-13T06:31:04.000Z</time>
      </trkpt>
      <trkpt lat="47.9903" lon="6.57092">
        <ele>623</ele>
        <time>2018-09-13T06:31:05.000Z</time>
      </trkpt>
      <trkpt lat="47.99029" lon="6.57091">
        <ele>623</ele>
        <time>2018-09-13T06:31:06.000Z</time>
      </trkpt>
      <trkpt lat="47.99028" lon="6.5709">
        <ele>623</ele>
        <time>2018-09-13T06:31:07.000Z</time>
      </trkpt>
      <trkpt lat="47.99027" lon="6.57089">
        <ele>624</ele>
        <time>2018-09-13T06:31:08.000Z</time>
      </trkpt>
      <trkpt lat="47.99026" lon="6.57087">
        <ele>624</ele>
        <time>2018-09-13T06:31:09.000Z</time>
      </trkpt>
      <trkpt lat="47.99025" lon="6.57086">
        <ele>624</ele>
        <time>2018-09-13T06:31:10.000Z</time>
      </trkpt>
      <trkpt lat="47.99024" lon="6.57084">
        <ele>624</ele>
        <time>2018-09-13T06:31:11.000Z</time>
      </trkpt>
      <trkpt lat="47.99023" lon="6.57083">
        <ele>624</ele>
        <time>2018-09-13T06:31:12.000Z</time>
      </trkpt>
      <trkpt lat="47.99022" lon="6.57081">
        <ele>625</ele>
        <time>2018-09-13T06:31:13.000Z</time>
      </trkpt>
      <trkpt lat="47.99021" lon="6.5708">
        <ele>625</ele>
        <time>2018-09-13T06:31:14.000Z</time>
      </trkpt>
      <trkpt lat="47.9902" lon="6.57079">
        <ele>625</ele>
        <time>2018-09-13T06:31:15.000Z</time>
      </trkpt>
      <trkpt lat="47.99018" lon="6.57077">
        <ele>625</ele>
        <time>2018-09-13T06:31:16.000Z</time>
      </trkpt>
      <trkpt lat="47.99017" lon="6.57076">
        <ele>625</ele>
        <time>2018-09-13T06:31:17.000Z</time>
      </trkpt>
      <trkpt lat="47.99016" lon="6.57075">
        <ele>625</ele>
        <time>2018-09-13T06:31:18.000Z</time>
      </trkpt>
      <trkpt lat="47.99015" lon="6.57074">
        <ele>625</ele>
        <time>2018-09-13T06:31:19.000Z</time>
      </trkpt>
      <trkpt lat="47.99013" lon="6.57073">
        <ele>625</ele>
        <time>2018-09-13T06:31:20.000Z</time>
      </trkpt>
      <trkpt lat="47.99012" lon="6.57072">
        <ele>626</ele>
        <time>2018-09-13T06:31:21.000Z</time>
      </trkpt>
      <trkpt lat="47.99011" lon="6.5707">
        <ele>626</ele>
        <time>2018-09-13T06:31:22.000Z</time>
      </trkpt>
      <trkpt lat="47.9901" lon="6.57069">
        <ele>626</ele>
        <time>2018-09-13T06:31:23.000Z</time>
      </trkpt>
      <trkpt lat="47.99009" lon="6.57068">
        <ele>626</ele>
        <time>2018-09-13T06:31:24.000Z</time>
      </trkpt>
      <trkpt lat="47.99008" lon="6.57067">
        <ele>626</ele>
        <time>2018-09-13T06:31:25.000Z</time>
      </trkpt>
      <trkpt lat="47.99007" lon="6.57066">
        <ele>627</ele>
        <time>2018-09-13T06:31:26.000Z</time>
      </trkpt>
      <trkpt lat="47.99006" lon="6.57065">
        <ele>627</ele>
        <time>2018-09-13T06:31:27.000Z</time>
      </trkpt>
      <trkpt lat="47.99005" lon="6.57064">
        <ele>627</ele>
        <time>2018-09-13T06:31:28.000Z</time>
      </trkpt>
      <trkpt lat="47.99004" lon="6.57063">
        <ele>627</ele>
        <time>2018-09-13T06:31:29.000Z</time>
      </trkpt>
      <trkpt lat="47.99003" lon="6.57062">
        <ele>628</ele>
        <time>2018-09-13T06:31:30.000Z</time>
      </trkpt>
      <trkpt lat="47.99002" lon="6.57061">
        <ele>628</ele>
        <time>2018-09-13T06:31:31.000Z</time>
      </trkpt>
      <trkpt lat="47.99002" lon="6.57059">
        <ele>628</ele>
        <time>2018-09-13T06:31:32.000Z</time>
      </trkpt>
      <trkpt lat="47.99001" lon="6.57058">
        <ele>628</ele>
        <time>2018-09-13T06:31:33.000Z</time>
      </trkpt>
      <trkpt lat="47.99" lon="6.57057">
        <ele>628</ele>
        <time>2018-09-13T06:31:34.000Z</time>
      </trkpt>
      <trkpt lat="47.98999" lon="6.57056">
        <ele>629</ele>
        <time>2018-09-13T06:31:35.000Z</time>
      </trkpt>
      <trkpt lat="47.98998" lon="6.57055">
        <ele>629</ele>
        <time>2018-09-13T06:31:36.000Z</time>
      </trkpt>
      <trkpt lat="47.98997" lon="6.57053">
        <ele>629</ele>
        <time>2018-09-13T06:31:37.000Z</time>
      </trkpt>
      <trkpt lat="47.98996" lon="6.57052">
        <ele>629</ele>
        <time>2018-09-13T06:31:38.000Z</time>
      </trkpt>
      <trkpt lat="47.98994" lon="6.5705">
        <ele>629</ele>
        <time>2018-09-13T06:31:39.000Z</time>
      </trkpt>
      <trkpt lat="47.98993" lon="6.57049">
        <ele>630</ele>
        <time>2018-09-13T06:31:40.000Z</time>
      </trkpt>
      <trkpt lat="47.98992" lon="6.57047">
        <ele>630</ele>
        <time>2018-09-13T06:31:41.000Z</time>
      </trkpt>
      <trkpt lat="47.98991" lon="6.57046">
        <ele>630</ele>
        <time>2018-09-13T06:31:42.000Z</time>
      </trkpt>
      <trkpt lat="47.9899" lon="6.57044">
        <ele>630</ele>
        <time>2018-09-13T06:31:43.000Z</time>
      </trkpt>
      <trkpt lat="47.98989" lon="6.57043">
        <ele>631</ele>
        <time>2018-09-13T06:31:44.000Z</time>
      </trkpt>
      <trkpt lat="47.98988" lon="6.57041">
        <ele>631</ele>
        <time>2018-09-13T06:31:45.000Z</time>
      </trkpt>
      <trkpt lat="47.98987" lon="6.57039">
        <ele>631</ele>
        <time>2018-09-13T06:31:46.000Z</time>
      </trkpt>
      <trkpt lat="47.98986" lon="6.57038">
        <ele>631</ele>
        <time>2018-09-13T06:31:47.000Z</time>
      </trkpt>
      <trkpt lat="47.98985" lon="6.57036">
        <ele>631</ele>
        <time>2018-09-13T06:31:48.000Z</time>
      </trkpt>
      <trkpt lat="47.98984" lon="6.57034">
        <ele>632</ele>
        <time>2018-09-13T06:31:49.000Z</time>
      </trkpt>
      <trkpt lat="47.98983" lon="6.57032">
        <ele>632</ele>
        <time>2018-09-13T06:31:50.000Z</time>
      </trkpt>
      <trkpt lat="47.98982" lon="6.57031">
        <ele>632</ele>
        <time>2018-09-13T06:31:51.000Z</time>
      </trkpt>
      <trkpt lat="47.98982" lon="6.57029">
        <ele>632</ele>
        <time>2018-09-13T06:31:52.000Z</time>
      </trkpt>
      <trkpt lat="47.98981" lon="6.57028">
        <ele>632</ele>
        <time>2018-09-13T06:31:53.000Z</time>
      </trkpt>
      <trkpt lat="47.9898" lon="6.57026">
        <ele>632</ele>
        <time>2018-09-13T06:31:54.000Z</time>
      </trkpt>
      <trkpt lat="47.98979" lon="6.57025">
        <ele>632</ele>
        <time>2018-09-13T06:31:55.000Z</time>
      </trkpt>
      <trkpt lat="47.98978" lon="6.57024">
        <ele>633</ele>
        <time>2018-09-13T06:31:56.000Z</time>
      </trkpt>
      <trkpt lat="47.98977" lon="6.57023">
        <ele>633</ele>
        <time>2018-09-13T06:31:57.000Z</time>
      </trkpt>
      <trkpt lat="47.98975" lon="6.57022">
        <ele>633</ele>
        <time>2018-09-13T06:31:58.000Z</time>
      </trkpt>
      <trkpt lat="47.98974" lon="6.57021">
        <ele>633</ele>
        <time>2018-09-13T06:31:59.000Z</time>
      </trkpt>
      <trkpt lat="47.98973" lon="6.5702">
        <ele>633</ele>
        <time>2018-09-13T06:32:00.000Z</time>
      </trkpt>
      <trkpt lat="47.98972" lon="6.57019">
        <ele>633</ele>
        <time>2018-09-13T06:32:01.000Z</time>
      </trkpt>
      <trkpt lat="47.9897" lon="6.57019">
        <ele>633</ele>
        <time>2018-09-13T06:32:02.000Z</time>
      </trkpt>
      <trkpt lat="47.98969" lon="6.57019">
        <ele>633</ele>
        <time>2018-09-13T06:32:03.000Z</time>
      </trkpt>
      <trkpt lat="47.98967" lon="6.57018">
        <ele>633</ele>
        <time>2018-09-13T06:32:04.000Z</time>
      </trkpt>
      <trkpt lat="47.98966" lon="6.57018">
        <ele>633</ele>
        <time>2018-09-13T06:32:05.000Z</time>
      </trkpt>
      <trkpt lat="47.98965" lon="6.57018">
        <ele>634</ele>
        <time>2018-09-13T06:32:06.000Z</time>
      </trkpt>
      <trkpt lat="47.98963" lon="6.57018">
        <ele>634</ele>
        <time>2018-09-13T06:32:07.000Z</time>
      </trkpt>
      <trkpt lat="47.98962" lon="6.57018">
        <ele>634</ele>
        <time>2018-09-13T06:32:08.000Z</time>
      </trkpt>
      <trkpt lat="47.98961" lon="6.57018">
        <ele>634</ele>
        <time>2018-09-13T06:32:09.000Z</time>
      </trkpt>
      <trkpt lat="47.98959" lon="6.57018">
        <ele>634</ele>
        <time>2018-09-13T06:32:10.000Z</time>
      </trkpt>
      <trkpt lat="47.98957" lon="6.57019">
        <ele>635</ele>
        <time>2018-09-13T06:32:11.000Z</time>
      </trkpt>
      <trkpt lat="47.98956" lon="6.57019">
        <ele>635</ele>
        <time>2018-09-13T06:32:12.000Z</time>
      </trkpt>
      <trkpt lat="47.98954" lon="6.57018">
        <ele>635</ele>
        <time>2018-09-13T06:32:13.000Z</time>
      </trkpt>
      <trkpt lat="47.98953" lon="6.57018">
        <ele>635</ele>
        <time>2018-09-13T06:32:14.000Z</time>
      </trkpt>
      <trkpt lat="47.98952" lon="6.57018">
        <ele>635</ele>
        <time>2018-09-13T06:32:15.000Z</time>
      </trkpt>
      <trkpt lat="47.9895" lon="6.57019">
        <ele>636</ele>
        <time>2018-09-13T06:32:16.000Z</time>
      </trkpt>
      <trkpt lat="47.98949" lon="6.57019">
        <ele>636</ele>
        <time>2018-09-13T06:32:17.000Z</time>
      </trkpt>
      <trkpt lat="47.98948" lon="6.57019">
        <ele>636</ele>
        <time>2018-09-13T06:32:18.000Z</time>
      </trkpt>
      <trkpt lat="47.98947" lon="6.57019">
        <ele>636</ele>
        <time>2018-09-13T06:32:19.000Z</time>
      </trkpt>
      <trkpt lat="47.98946" lon="6.57019">
        <ele>636</ele>
        <time>2018-09-13T06:32:20.000Z</time>
      </trkpt>
      <trkpt lat="47.98944" lon="6.5702">
        <ele>636</ele>
        <time>2018-09-13T06:32:21.000Z</time>
      </trkpt>
      <trkpt lat="47.98943" lon="6.5702">
        <ele>636</ele>
        <time>2018-09-13T06:32:22.000Z</time>
      </trkpt>
      <trkpt lat="47.98941" lon="6.5702">
        <ele>637</ele>
        <time>2018-09-13T06:32:23.000Z</time>
      </trkpt>
      <trkpt lat="47.9894" lon="6.5702">
        <ele>637</ele>
        <time>2018-09-13T06:32:24.000Z</time>
      </trkpt>
      <trkpt lat="47.98939" lon="6.57021">
        <ele>637</ele>
        <time>2018-09-13T06:32:25.000Z</time>
      </trkpt>
      <trkpt lat="47.98937" lon="6.57021">
        <ele>637</ele>
        <time>2018-09-13T06:32:26.000Z</time>
      </trkpt>
      <trkpt lat="47.98936" lon="6.57021">
        <ele>637</ele>
        <time>2018-09-13T06:32:27.000Z</time>
      </trkpt>
      <trkpt lat="47.98934" lon="6.57021">
        <ele>637</ele>
        <time>2018-09-13T06:32:28.000Z</time>
      </trkpt>
      <trkpt lat="47.98933" lon="6.57022">
        <ele>637</ele>
        <time>2018-09-13T06:32:29.000Z</time>
      </trkpt>
      <trkpt lat="47.98932" lon="6.57022">
        <ele>638</ele>
        <time>2018-09-13T06:32:30.000Z</time>
      </trkpt>
      <trkpt lat="47.9893" lon="6.57022">
        <ele>638</ele>
        <time>2018-09-13T06:32:31.000Z</time>
      </trkpt>
      <trkpt lat="47.98928" lon="6.57023">
        <ele>638</ele>
        <time>2018-09-13T06:32:32.000Z</time>
      </trkpt>
      <trkpt lat="47.98926" lon="6.57023">
        <ele>638</ele>
        <time>2018-09-13T06:32:33.000Z</time>
      </trkpt>
      <trkpt lat="47.98925" lon="6.57023">
        <ele>638</ele>
        <time>2018-09-13T06:32:34.000Z</time>
      </trkpt>
      <trkpt lat="47.98923" lon="6.57024">
        <ele>638</ele>
        <time>2018-09-13T06:32:35.000Z</time>
      </trkpt>
      <trkpt lat="47.98922" lon="6.57023">
        <ele>639</ele>
        <time>2018-09-13T06:32:36.000Z</time>
      </trkpt>
      <trkpt lat="47.98921" lon="6.57023">
        <ele>639</ele>
        <time>2018-09-13T06:32:37.000Z</time>
      </trkpt>
      <trkpt lat="47.9892" lon="6.57023">
        <ele>639</ele>
        <time>2018-09-13T06:32:38.000Z</time>
      </trkpt>
      <trkpt lat="47.98919" lon="6.57023">
        <ele>639</ele>
        <time>2018-09-13T06:32:39.000Z</time>
      </trkpt>
      <trkpt lat="47.98918" lon="6.57023">
        <ele>639</ele>
        <time>2018-09-13T06:32:40.000Z</time>
      </trkpt>
      <trkpt lat="47.98917" lon="6.57022">
        <ele>640</ele>
        <time>2018-09-13T06:32:41.000Z</time>
      </trkpt>
      <trkpt lat="47.98916" lon="6.57021">
        <ele>640</ele>
        <time>2018-09-13T06:32:42.000Z</time>
      </trkpt>
      <trkpt lat="47.98914" lon="6.5702">
        <ele>640</ele>
        <time>2018-09-13T06:32:43.000Z</time>
      </trkpt>
      <trkpt lat="47.98913" lon="6.57019">
        <ele>640</ele>
        <time>2018-09-13T06:32:44.000Z</time>
      </trkpt>
      <trkpt lat="47.98913" lon="6.57017">
        <ele>640</ele>
        <time>2018-09-13T06:32:45.000Z</time>
      </trkpt>
      <trkpt lat="47.98912" lon="6.57016">
        <ele>641</ele>
        <time>2018-09-13T06:32:46.000Z</time>
      </trkpt>
      <trkpt lat="47.98911" lon="6.57014">
        <ele>641</ele>
        <time>2018-09-13T06:32:47.000Z</time>
      </trkpt>
      <trkpt lat="47.98911" lon="6.57012">
        <ele>641</ele>
        <time>2018-09-13T06:32:48.000Z</time>
      </trkpt>
      <trkpt lat="47.98911" lon="6.5701">
        <ele>641</ele>
        <time>2018-09-13T06:32:49.000Z</time>
      </trkpt>
      <trkpt lat="47.98911" lon="6.57008">
        <ele>641</ele>
        <time>2018-09-13T06:32:50.000Z</time>
      </trkpt>
      <trkpt lat="47.9891" lon="6.57005">
        <ele>642</ele>
        <time>2018-09-13T06:32:51.000Z</time>
      </trkpt>
      <trkpt lat="47.9891" lon="6.57004">
        <ele>642</ele>
        <time>2018-09-13T06:32:52.000Z</time>
      </trkpt>
      <trkpt lat="47.9891" lon="6.57002">
        <ele>642</ele>
        <time>2018-09-13T06:32:53.000Z</time>
      </trkpt>
      <trkpt lat="47.9891" lon="6.57">
        <ele>642</ele>
        <time>2018-09-13T06:32:54.000Z</time>
      </trkpt>
      <trkpt lat="47.9891" lon="6.56998">
        <ele>643</ele>
        <time>2018-09-13T06:32:55.000Z</time>
      </trkpt>
      <trkpt lat="47.9891" lon="6.56996">
        <ele>643</ele>
        <time>2018-09-13T06:32:56.000Z</time>
      </trkpt>
      <trkpt lat="47.98909" lon="6.56994">
        <ele>643</ele>
        <time>2018-09-13T06:32:57.000Z</time>
      </trkpt>
      <trkpt lat="47.98909" lon="6.56992">
        <ele>643</ele>
        <time>2018-09-13T06:32:58.000Z</time>
      </trkpt>
      <trkpt lat="47.98908" lon="6.5699">
        <ele>643</ele>
        <time>2018-09-13T06:32:59.000Z</time>
      </trkpt>
      <trkpt lat="47.98908" lon="6.56988">
        <ele>644</ele>
        <time>2018-09-13T06:33:00.000Z</time>
      </trkpt>
      <trkpt lat="47.98907" lon="6.56986">
        <ele>644</ele>
        <time>2018-09-13T06:33:01.000Z</time>
      </trkpt>
      <trkpt lat="47.98906" lon="6.56984">
        <ele>644</ele>
        <time>2018-09-13T06:33:02.000Z</time>
      </trkpt>
      <trkpt lat="47.98905" lon="6.56982">
        <ele>644</ele>
        <time>2018-09-13T06:33:03.000Z</time>
      </trkpt>
      <trkpt lat="47.98904" lon="6.5698">
        <ele>644</ele>
        <time>2018-09-13T06:33:04.000Z</time>
      </trkpt>
      <trkpt lat="47.98903" lon="6.56979">
        <ele>644</ele>
        <time>2018-09-13T06:33:05.000Z</time>
      </trkpt>
      <trkpt lat="47.98901" lon="6.56977">
        <ele>645</ele>
        <time>2018-09-13T06:33:06.000Z</time>
      </trkpt>
      <trkpt lat="47.989" lon="6.56976">
        <ele>645</ele>
        <time>2018-09-13T06:33:07.000Z</time>
      </trkpt>
      <trkpt lat="47.98899" lon="6.56975">
        <ele>645</ele>
        <time>2018-09-13T06:33:08.000Z</time>
      </trkpt>
      <trkpt lat="47.98898" lon="6.56975">
        <ele>645</ele>
        <time>2018-09-13T06:33:09.000Z</time>
      </trkpt>
      <trkpt lat="47.98897" lon="6.56974">
        <ele>646</ele>
        <time>2018-09-13T06:33:10.000Z</time>
      </trkpt>
      <trkpt lat="47.98896" lon="6.56974">
        <ele>646</ele>
        <time>2018-09-13T06:33:11.000Z</time>
      </trkpt>
      <trkpt lat="47.98895" lon="6.56973">
        <ele>646</ele>
        <time>2018-09-13T06:33:12.000Z</time>
      </trkpt>
      <trkpt lat="47.98893" lon="6.56973">
        <ele>646</ele>
        <time>2018-09-13T06:33:13.000Z</time>
      </trkpt>
      <trkpt lat="47.98892" lon="6.56972">
        <ele>646</ele>
        <time>2018-09-13T06:33:14.000Z</time>
      </trkpt>
      <trkpt lat="47.9889" lon="6.56972">
        <ele>647</ele>
        <time>2018-09-13T06:33:15.000Z</time>
      </trkpt>
      <trkpt lat="47.98889" lon="6.56972">
        <ele>647</ele>
        <time>2018-09-13T06:33:16.000Z</time>
      </trkpt>
      <trkpt lat="47.98888" lon="6.56972">
        <ele>647</ele>
        <time>2018-09-13T06:33:17.000Z</time>
      </trkpt>
      <trkpt lat="47.98887" lon="6.56972">
        <ele>647</ele>
        <time>2018-09-13T06:33:18.000Z</time>
      </trkpt>
      <trkpt lat="47.98885" lon="6.56972">
        <ele>647</ele>
        <time>2018-09-13T06:33:19.000Z</time>
      </trkpt>
      <trkpt lat="47.98884" lon="6.56971">
        <ele>647</ele>
        <time>2018-09-13T06:33:20.000Z</time>
      </trkpt>
      <trkpt lat="47.98883" lon="6.56971">
        <ele>647</ele>
        <time>2018-09-13T06:33:21.000Z</time>
      </trkpt>
      <trkpt lat="47.98882" lon="6.5697">
        <ele>648</ele>
        <time>2018-09-13T06:33:22.000Z</time>
      </trkpt>
      <trkpt lat="47.9888" lon="6.56969">
        <ele>648</ele>
        <time>2018-09-13T06:33:23.000Z</time>
      </trkpt>
      <trkpt lat="47.98879" lon="6.56968">
        <ele>648</ele>
        <time>2018-09-13T06:33:24.000Z</time>
      </trkpt>
      <trkpt lat="47.98878" lon="6.56967">
        <ele>648</ele>
        <time>2018-09-13T06:33:25.000Z</time>
      </trkpt>
      <trkpt lat="47.98877" lon="6.56966">
        <ele>648</ele>
        <time>2018-09-13T06:33:26.000Z</time>
      </trkpt>
      <trkpt lat="47.98875" lon="6.56965">
        <ele>648</ele>
        <time>2018-09-13T06:33:27.000Z</time>
      </trkpt>
      <trkpt lat="47.98874" lon="6.56964">
        <ele>648</ele>
        <time>2018-09-13T06:33:28.000Z</time>
      </trkpt>
      <trkpt lat="47.98872" lon="6.56963">
        <ele>648</ele>
        <time>2018-09-13T06:33:29.000Z</time>
      </trkpt>
      <trkpt lat="47.98871" lon="6.56962">
        <ele>648</ele>
        <time>2018-09-13T06:33:30.000Z</time>
      </trkpt>
      <trkpt lat="47.98869" lon="6.56961">
        <ele>649</ele>
        <time>2018-09-13T06:33:31.000Z</time>
      </trkpt>
      <trkpt lat="47.98868" lon="6.56961">
        <ele>649</ele>
        <time>2018-09-13T06:33:32.000Z</time>
      </trkpt>
      <trkpt lat="47.98866" lon="6.56959">
        <ele>649</ele>
        <time>2018-09-13T06:33:33.000Z</time>
      </trkpt>
      <trkpt lat="47.98865" lon="6.56958">
        <ele>649</ele>
        <time>2018-09-13T06:33:34.000Z</time>
      </trkpt>
      <trkpt lat="47.98863" lon="6.56957">
        <ele>649</ele>
        <time>2018-09-13T06:33:35.000Z</time>
      </trkpt>
      <trkpt lat="47.98862" lon="6.56956">
        <ele>649</ele>
        <time>2018-09-13T06:33:36.000Z</time>
      </trkpt>
      <trkpt lat="47.9886" lon="6.56955">
        <ele>650</ele>
        <time>2018-09-13T06:33:37.000Z</time>
      </trkpt>
      <trkpt lat="47.98859" lon="6.56954">
        <ele>650</ele>
        <time>2018-09-13T06:33:38.000Z</time>
      </trkpt>
      <trkpt lat="47.98858" lon="6.56952">
        <ele>650</ele>
        <time>2018-09-13T06:33:39.000Z</time>
      </trkpt>
      <trkpt lat="47.98858" lon="6.5695">
        <ele>650</ele>
        <time>2018-09-13T06:33:40.000Z</time>
      </trkpt>
      <trkpt lat="47.98858" lon="6.56948">
        <ele>650</ele>
        <time>2018-09-13T06:33:41.000Z</time>
      </trkpt>
      <trkpt lat="47.98857" lon="6.56946">
        <ele>651</ele>
        <time>2018-09-13T06:33:42.000Z</time>
      </trkpt>
      <trkpt lat="47.98857" lon="6.56945">
        <ele>651</ele>
        <time>2018-09-13T06:33:43.000Z</time>
      </trkpt>
      <trkpt lat="47.98857" lon="6.56943">
        <ele>651</ele>
        <time>2018-09-13T06:33:44.000Z</time>
      </trkpt>
      <trkpt lat="47.98857" lon="6.56941">
        <ele>651</ele>
        <time>2018-09-13T06:33:45.000Z</time>
      </trkpt>
      <trkpt lat="47.98858" lon="6.56939">
        <ele>651</ele>
        <time>2018-09-13T06:33:46.000Z</time>
      </trkpt>
      <trkpt lat="47.98858" lon="6.56937">
        <ele>652</ele>
        <time>2018-09-13T06:33:47.000Z</time>
      </trkpt>
      <trkpt lat="47.98858" lon="6.56934">
        <ele>652</ele>
        <time>2018-09-13T06:33:48.000Z</time>
      </trkpt>
      <trkpt lat="47.98859" lon="6.56932">
        <ele>652</ele>
        <time>2018-09-13T06:33:49.000Z</time>
      </trkpt>
      <trkpt lat="47.98859" lon="6.5693">
        <ele>652</ele>
        <time>2018-09-13T06:33:50.000Z</time>
      </trkpt>
      <trkpt lat="47.98859" lon="6.56928">
        <ele>652</ele>
        <time>2018-09-13T06:33:51.000Z</time>
      </trkpt>
      <trkpt lat="47.98859" lon="6.56925">
        <ele>652</ele>
        <time>2018-09-13T06:33:52.000Z</time>
      </trkpt>
      <trkpt lat="47.98859" lon="6.56923">
        <ele>653</ele>
        <time>2018-09-13T06:33:53.000Z</time>
      </trkpt>
      <trkpt lat="47.98859" lon="6.56921">
        <ele>653</ele>
        <time>2018-09-13T06:33:54.000Z</time>
      </trkpt>
      <trkpt lat="47.9886" lon="6.56919">
        <ele>653</ele>
        <time>2018-09-13T06:33:55.000Z</time>
      </trkpt>
      <trkpt lat="47.9886" lon="6.56917">
        <ele>653</ele>
        <time>2018-09-13T06:33:56.000Z</time>
      </trkpt>
      <trkpt lat="47.9886" lon="6.56915">
        <ele>653</ele>
        <time>2018-09-13T06:33:57.000Z</time>
      </trkpt>
      <trkpt lat="47.9886" lon="6.56912">
        <ele>653</ele>
        <time>2018-09-13T06:33:58.000Z</time>
      </trkpt>
      <trkpt lat="47.9886" lon="6.5691">
        <ele>653</ele>
        <time>2018-09-13T06:33:59.000Z</time>
      </trkpt>
      <trkpt lat="47.9886" lon="6.56908">
        <ele>653</ele>
        <time>2018-09-13T06:34:00.000Z</time>
      </trkpt>
      <trkpt lat="47.98859" lon="6.56906">
        <ele>653</ele>
        <time>2018-09-13T06:34:01.000Z</time>
      </trkpt>
      <trkpt lat="47.98859" lon="6.56904">
        <ele>653</ele>
        <time>2018-09-13T06:34:02.000Z</time>
      </trkpt>
      <trkpt lat="47.98858" lon="6.56902">
        <ele>653</ele>
        <time>2018-09-13T06:34:03.000Z</time>
      </trkpt>
      <trkpt lat="47.98857" lon="6.569">
        <ele>654</ele>
        <time>2018-09-13T06:34:04.000Z</time>
      </trkpt>
      <trkpt lat="47.98856" lon="6.56898">
        <ele>654</ele>
        <time>2018-09-13T06:34:05.000Z</time>
      </trkpt>
      <trkpt lat="47.98856" lon="6.56896">
        <ele>654</ele>
        <time>2018-09-13T06:34:06.000Z</time>
      </trkpt>
      <trkpt lat="47.98855" lon="6.56894">
        <ele>654</ele>
        <time>2018-09-13T06:34:07.000Z</time>
      </trkpt>
      <trkpt lat="47.98854" lon="6.56892">
        <ele>654</ele>
        <time>2018-09-13T06:34:08.000Z</time>
      </trkpt>
      <trkpt lat="47.98853" lon="6.5689">
        <ele>654</ele>
        <time>2018-09-13T06:34:09.000Z</time>
      </trkpt>
      <trkpt lat="47.98853" lon="6.56889">
        <ele>654</ele>
        <time>2018-09-13T06:34:10.000Z</time>
      </trkpt>
      <trkpt lat="47.98852" lon="6.56887">
        <ele>654</ele>
        <time>2018-09-13T06:34:11.000Z</time>
      </trkpt>
      <trkpt lat="47.98851" lon="6.56885">
        <ele>654</ele>
        <time>2018-09-13T06:34:12.000Z</time>
      </trkpt>
      <trkpt lat="47.9885" lon="6.56883">
        <ele>654</ele>
        <time>2018-09-13T06:34:13.000Z</time>
      </trkpt>
      <trkpt lat="47.9885" lon="6.56881">
        <ele>654</ele>
        <time>2018-09-13T06:34:14.000Z</time>
      </trkpt>
      <trkpt lat="47.98849" lon="6.5688">
        <ele>654</ele>
        <time>2018-09-13T06:34:15.000Z</time>
      </trkpt>
      <trkpt lat="47.98848" lon="6.56878">
        <ele>654</ele>
        <time>2018-09-13T06:34:16.000Z</time>
      </trkpt>
      <trkpt lat="47.98848" lon="6.56876">
        <ele>654</ele>
        <time>2018-09-13T06:34:17.000Z</time>
      </trkpt>
      <trkpt lat="47.98848" lon="6.56873">
        <ele>655</ele>
        <time>2018-09-13T06:34:18.000Z</time>
      </trkpt>
      <trkpt lat="47.98847" lon="6.56871">
        <ele>655</ele>
        <time>2018-09-13T06:34:19.000Z</time>
      </trkpt>
      <trkpt lat="47.98847" lon="6.5687">
        <ele>655</ele>
        <time>2018-09-13T06:34:20.000Z</time>
      </trkpt>
      <trkpt lat="47.98846" lon="6.56868">
        <ele>655</ele>
        <time>2018-09-13T06:34:21.000Z</time>
      </trkpt>
      <trkpt lat="47.98845" lon="6.56866">
        <ele>655</ele>
        <time>2018-09-13T06:34:22.000Z</time>
      </trkpt>
      <trkpt lat="47.98845" lon="6.56864">
        <ele>655</ele>
        <time>2018-09-13T06:34:23.000Z</time>
      </trkpt>
      <trkpt lat="47.98844" lon="6.56862">
        <ele>655</ele>
        <time>2018-09-13T06:34:24.000Z</time>
      </trkpt>
      <trkpt lat="47.98844" lon="6.5686">
        <ele>656</ele>
        <time>2018-09-13T06:34:25.000Z</time>
      </trkpt>
      <trkpt lat="47.98843" lon="6.56857">
        <ele>656</ele>
        <time>2018-09-13T06:34:26.000Z</time>
      </trkpt>
      <trkpt lat="47.98843" lon="6.56855">
        <ele>656</ele>
        <time>2018-09-13T06:34:27.000Z</time>
      </trkpt>
      <trkpt lat="47.98842" lon="6.56853">
        <ele>656</ele>
        <time>2018-09-13T06:34:28.000Z</time>
      </trkpt>
      <trkpt lat="47.98842" lon="6.56852">
        <ele>656</ele>
        <time>2018-09-13T06:34:29.000Z</time>
      </trkpt>
      <trkpt lat="47.98842" lon="6.56849">
        <ele>656</ele>
        <time>2018-09-13T06:34:30.000Z</time>
      </trkpt>
      <trkpt lat="47.98841" lon="6.56848">
        <ele>656</ele>
        <time>2018-09-13T06:34:31.000Z</time>
      </trkpt>
      <trkpt lat="47.98841" lon="6.56846">
        <ele>656</ele>
        <time>2018-09-13T06:34:32.000Z</time>
      </trkpt>
      <trkpt lat="47.9884" lon="6.56844">
        <ele>657</ele>
        <time>2018-09-13T06:34:33.000Z</time>
      </trkpt>
      <trkpt lat="47.9884" lon="6.56842">
        <ele>657</ele>
        <time>2018-09-13T06:34:34.000Z</time>
      </trkpt>
      <trkpt lat="47.98839" lon="6.5684">
        <ele>657</ele>
        <time>2018-09-13T06:34:35.000Z</time>
      </trkpt>
      <trkpt lat="47.98839" lon="6.56838">
        <ele>657</ele>
        <time>2018-09-13T06:34:36.000Z</time>
      </trkpt>
      <trkpt lat="47.98838" lon="6.56836">
        <ele>657</ele>
        <time>2018-09-13T06:34:37.000Z</time>
      </trkpt>
      <trkpt lat="47.98837" lon="6.56834">
        <ele>657</ele>
        <time>2018-09-13T06:34:38.000Z</time>
      </trkpt>
      <trkpt lat="47.98837" lon="6.56831">
        <ele>657</ele>
        <time>2018-09-13T06:34:39.000Z</time>
      </trkpt>
      <trkpt lat="47.98836" lon="6.56829">
        <ele>657</ele>
        <time>2018-09-13T06:34:40.000Z</time>
      </trkpt>
      <trkpt lat="47.98836" lon="6.56828">
        <ele>658</ele>
        <time>2018-09-13T06:34:41.000Z</time>
      </trkpt>
      <trkpt lat="47.98835" lon="6.56826">
        <ele>658</ele>
        <time>2018-09-13T06:34:42.000Z</time>
      </trkpt>
      <trkpt lat="47.98834" lon="6.56824">
        <ele>658</ele>
        <time>2018-09-13T06:34:43.000Z</time>
      </trkpt>
      <trkpt lat="47.98834" lon="6.56822">
        <ele>658</ele>
        <time>2018-09-13T06:34:44.000Z</time>
      </trkpt>
      <trkpt lat="47.98833" lon="6.56819">
        <ele>658</ele>
        <time>2018-09-13T06:34:45.000Z</time>
      </trkpt>
      <trkpt lat="47.98832" lon="6.56817">
        <ele>658</ele>
        <time>2018-09-13T06:34:46.000Z</time>
      </trkpt>
      <trkpt lat="47.98831" lon="6.56815">
        <ele>658</ele>
        <time>2018-09-13T06:34:47.000Z</time>
      </trkpt>
      <trkpt lat="47.98831" lon="6.56813">
        <ele>658</ele>
        <time>2018-09-13T06:34:48.000Z</time>
      </trkpt>
      <trkpt lat="47.9883" lon="6.56811">
        <ele>658</ele>
        <time>2018-09-13T06:34:49.000Z</time>
      </trkpt>
      <trkpt lat="47.9883" lon="6.56808">
        <ele>659</ele>
        <time>2018-09-13T06:34:50.000Z</time>
      </trkpt>
      <trkpt lat="47.9883" lon="6.56806">
        <ele>659</ele>
        <time>2018-09-13T06:34:51.000Z</time>
      </trkpt>
      <trkpt lat="47.98829" lon="6.56804">
        <ele>659</ele>
        <time>2018-09-13T06:34:52.000Z</time>
      </trkpt>
      <trkpt lat="47.98828" lon="6.56802">
        <ele>659</ele>
        <time>2018-09-13T06:34:53.000Z</time>
      </trkpt>
      <trkpt lat="47.98828" lon="6.568">
        <ele>659</ele>
        <time>2018-09-13T06:34:54.000Z</time>
      </trkpt>
      <trkpt lat="47.98827" lon="6.56798">
        <ele>659</ele>
        <time>2018-09-13T06:34:55.000Z</time>
      </trkpt>
      <trkpt lat="47.98827" lon="6.56796">
        <ele>660</ele>
        <time>2018-09-13T06:34:56.000Z</time>
      </trkpt>
      <trkpt lat="47.98826" lon="6.56793">
        <ele>660</ele>
        <time>2018-09-13T06:34:57.000Z</time>
      </trkpt>
      <trkpt lat="47.98826" lon="6.56791">
        <ele>660</ele>
        <time>2018-09-13T06:34:58.000Z</time>
      </trkpt>
      <trkpt lat="47.98825" lon="6.56789">
        <ele>660</ele>
        <time>2018-09-13T06:34:59.000Z</time>
      </trkpt>
      <trkpt lat="47.98824" lon="6.56787">
        <ele>660</ele>
        <time>2018-09-13T06:35:00.000Z</time>
      </trkpt>
      <trkpt lat="47.98824" lon="6.56784">
        <ele>660</ele>
        <time>2018-09-13T06:35:01.000Z</time>
      </trkpt>
      <trkpt lat="47.98823" lon="6.56782">
        <ele>660</ele>
        <time>2018-09-13T06:35:02.000Z</time>
      </trkpt>
      <trkpt lat="47.98822" lon="6.5678">
        <ele>661</ele>
        <time>2018-09-13T06:35:03.000Z</time>
      </trkpt>
      <trkpt lat="47.98821" lon="6.56778">
        <ele>661</ele>
        <time>2018-09-13T06:35:04.000Z</time>
      </trkpt>
      <trkpt lat="47.98821" lon="6.56776">
        <ele>661</ele>
        <time>2018-09-13T06:35:05.000Z</time>
      </trkpt>
      <trkpt lat="47.98821" lon="6.56773">
        <ele>661</ele>
        <time>2018-09-13T06:35:06.000Z</time>
      </trkpt>
      <trkpt lat="47.98821" lon="6.56771">
        <ele>661</ele>
        <time>2018-09-13T06:35:07.000Z</time>
      </trkpt>
      <trkpt lat="47.98821" lon="6.56769">
        <ele>661</ele>
        <time>2018-09-13T06:35:08.000Z</time>
      </trkpt>
      <trkpt lat="47.98821" lon="6.56767">
        <ele>662</ele>
        <time>2018-09-13T06:35:09.000Z</time>
      </trkpt>
      <trkpt lat="47.9882" lon="6.56765">
        <ele>662</ele>
        <time>2018-09-13T06:35:10.000Z</time>
      </trkpt>
      <trkpt lat="47.9882" lon="6.56763">
        <ele>662</ele>
        <time>2018-09-13T06:35:11.000Z</time>
      </trkpt>
      <trkpt lat="47.9882" lon="6.5676">
        <ele>662</ele>
        <time>2018-09-13T06:35:12.000Z</time>
      </trkpt>
      <trkpt lat="47.9882" lon="6.56758">
        <ele>662</ele>
        <time>2018-09-13T06:35:13.000Z</time>
      </trkpt>
      <trkpt lat="47.98819" lon="6.56755">
        <ele>662</ele>
        <time>2018-09-13T06:35:14.000Z</time>
      </trkpt>
      <trkpt lat="47.98819" lon="6.56753">
        <ele>662</ele>
        <time>2018-09-13T06:35:15.000Z</time>
      </trkpt>
      <trkpt lat="47.98819" lon="6.56751">
        <ele>663</ele>
        <time>2018-09-13T06:35:16.000Z</time>
      </trkpt>
      <trkpt lat="47.98819" lon="6.56749">
        <ele>663</ele>
        <time>2018-09-13T06:35:17.000Z</time>
      </trkpt>
      <trkpt lat="47.98818" lon="6.56747">
        <ele>663</ele>
        <time>2018-09-13T06:35:18.000Z</time>
      </trkpt>
      <trkpt lat="47.98818" lon="6.56746">
        <ele>663</ele>
        <time>2018-09-13T06:35:19.000Z</time>
      </trkpt>
      <trkpt lat="47.98818" lon="6.56744">
        <ele>663</ele>
        <time>2018-09-13T06:35:20.000Z</time>
      </trkpt>
      <trkpt lat="47.98817" lon="6.56742">
        <ele>663</ele>
        <time>2018-09-13T06:35:21.000Z</time>
      </trkpt>
      <trkpt lat="47.98817" lon="6.5674">
        <ele>664</ele>
        <time>2018-09-13T06:35:22.000Z</time>
      </trkpt>
      <trkpt lat="47.98816" lon="6.56738">
        <ele>664</ele>
        <time>2018-09-13T06:35:23.000Z</time>
      </trkpt>
      <trkpt lat="47.98816" lon="6.56736">
        <ele>664</ele>
        <time>2018-09-13T06:35:24.000Z</time>
      </trkpt>
      <trkpt lat="47.98816" lon="6.56734">
        <ele>664</ele>
        <time>2018-09-13T06:35:25.000Z</time>
      </trkpt>
      <trkpt lat="47.98816" lon="6.56732">
        <ele>664</ele>
        <time>2018-09-13T06:35:26.000Z</time>
      </trkpt>
      <trkpt lat="47.98815" lon="6.5673">
        <ele>664</ele>
        <time>2018-09-13T06:35:27.000Z</time>
      </trkpt>
      <trkpt lat="47.98815" lon="6.56728">
        <ele>664</ele>
        <time>2018-09-13T06:35:28.000Z</time>
      </trkpt>
      <trkpt lat="47.98815" lon="6.56726">
        <ele>664</ele>
        <time>2018-09-13T06:35:29.000Z</time>
      </trkpt>
      <trkpt lat="47.98814" lon="6.56724">
        <ele>664</ele>
        <time>2018-09-13T06:35:30.000Z</time>
      </trkpt>
      <trkpt lat="47.98814" lon="6.56721">
        <ele>664</ele>
        <time>2018-09-13T06:35:31.000Z</time>
      </trkpt>
      <trkpt lat="47.98814" lon="6.56719">
        <ele>664</ele>
        <time>2018-09-13T06:35:32.000Z</time>
      </trkpt>
      <trkpt lat="47.98814" lon="6.56717">
        <ele>664</ele>
        <time>2018-09-13T06:35:33.000Z</time>
      </trkpt>
      <trkpt lat="47.98814" lon="6.56715">
        <ele>664</ele>
        <time>2018-09-13T06:35:34.000Z</time>
      </trkpt>
      <trkpt lat="47.98813" lon="6.56713">
        <ele>664</ele>
        <time>2018-09-13T06:35:35.000Z</time>
      </trkpt>
      <trkpt lat="47.98813" lon="6.56711">
        <ele>664</ele>
        <time>2018-09-13T06:35:36.000Z</time>
      </trkpt>
      <trkpt lat="47.98813" lon="6.56709">
        <ele>664</ele>
        <time>2018-09-13T06:35:37.000Z</time>
      </trkpt>
      <trkpt lat="47.98812" lon="6.56707">
        <ele>664</ele>
        <time>2018-09-13T06:35:38.000Z</time>
      </trkpt>
      <trkpt lat="47.98812" lon="6.56705">
        <ele>664</ele>
        <time>2018-09-13T06:35:39.000Z</time>
      </trkpt>
      <trkpt lat="47.98812" lon="6.56702">
        <ele>664</ele>
        <time>2018-09-13T06:35:40.000Z</time>
      </trkpt>
      <trkpt lat="47.98811" lon="6.567">
        <ele>664</ele>
        <time>2018-09-13T06:35:41.000Z</time>
      </trkpt>
      <trkpt lat="47.98811" lon="6.56697">
        <ele>664</ele>
        <time>2018-09-13T06:35:42.000Z</time>
      </trkpt>
      <trkpt lat="47.98811" lon="6.56695">
        <ele>664</ele>
        <time>2018-09-13T06:35:43.000Z</time>
      </trkpt>
      <trkpt lat="47.9881" lon="6.56692">
        <ele>664</ele>
        <time>2018-09-13T06:35:44.000Z</time>
      </trkpt>
      <trkpt lat="47.9881" lon="6.5669">
        <ele>665</ele>
        <time>2018-09-13T06:35:45.000Z</time>
      </trkpt>
      <trkpt lat="47.9881" lon="6.56688">
        <ele>665</ele>
        <time>2018-09-13T06:35:46.000Z</time>
      </trkpt>
      <trkpt lat="47.9881" lon="6.56686">
        <ele>665</ele>
        <time>2018-09-13T06:35:47.000Z</time>
      </trkpt>
      <trkpt lat="47.9881" lon="6.56684">
        <ele>665</ele>
        <time>2018-09-13T06:35:48.000Z</time>
      </trkpt>
      <trkpt lat="47.9881" lon="6.56683">
        <ele>665</ele>
        <time>2018-09-13T06:35:49.000Z</time>
      </trkpt>
      <trkpt lat="47.9881" lon="6.5668">
        <ele>665</ele>
        <time>2018-09-13T06:35:50.000Z</time>
      </trkpt>
      <trkpt lat="47.9881" lon="6.56678">
        <ele>665</ele>
        <time>2018-09-13T06:35:51.000Z</time>
      </trkpt>
      <trkpt lat="47.9881" lon="6.56676">
        <ele>665</ele>
        <time>2018-09-13T06:35:52.000Z</time>
      </trkpt>
      <trkpt lat="47.9881" lon="6.56673">
        <ele>665</ele>
        <time>2018-09-13T06:35:53.000Z</time>
      </trkpt>
      <trkpt lat="47.9881" lon="6.56671">
        <ele>665</ele>
        <time>2018-09-13T06:35:54.000Z</time>
      </trkpt>
      <trkpt lat="47.9881" lon="6.56669">
        <ele>665</ele>
        <time>2018-09-13T06:35:55.000Z</time>
      </trkpt>
      <trkpt lat="47.9881" lon="6.56666">
        <ele>665</ele>
        <time>2018-09-13T06:35:56.000Z</time>
      </trkpt>
      <trkpt lat="47.98809" lon="6.56664">
        <ele>665</ele>
        <time>2018-09-13T06:35:57.000Z</time>
      </trkpt>
      <trkpt lat="47.98809" lon="6.56662">
        <ele>665</ele>
        <time>2018-09-13T06:35:58.000Z</time>
      </trkpt>
      <trkpt lat="47.98809" lon="6.5666">
        <ele>665</ele>
        <time>2018-09-13T06:35:59.000Z</time>
      </trkpt>
      <trkpt lat="47.98809" lon="6.56658">
        <ele>665</ele>
        <time>2018-09-13T06:36:00.000Z</time>
      </trkpt>
      <trkpt lat="47.98809" lon="6.56655">
        <ele>665</ele>
        <time>2018-09-13T06:36:01.000Z</time>
      </trkpt>
      <trkpt lat="47.98809" lon="6.56653">
        <ele>665</ele>
        <time>2018-09-13T06:36:02.000Z</time>
      </trkpt>
      <trkpt lat="47.9881" lon="6.56652">
        <ele>665</ele>
        <time>2018-09-13T06:36:03.000Z</time>
      </trkpt>
      <trkpt lat="47.98809" lon="6.5665">
        <ele>665</ele>
        <time>2018-09-13T06:36:04.000Z</time>
      </trkpt>
      <trkpt lat="47.98809" lon="6.56647">
        <ele>665</ele>
        <time>2018-09-13T06:36:05.000Z</time>
      </trkpt>
      <trkpt lat="47.98809" lon="6.56645">
        <ele>665</ele>
        <time>2018-09-13T06:36:06.000Z</time>
      </trkpt>
      <trkpt lat="47.98809" lon="6.56643">
        <ele>665</ele>
        <time>2018-09-13T06:36:07.000Z</time>
      </trkpt>
      <trkpt lat="47.98808" lon="6.56641">
        <ele>665</ele>
        <time>2018-09-13T06:36:08.000Z</time>
      </trkpt>
      <trkpt lat="47.98808" lon="6.56639">
        <ele>665</ele>
        <time>2018-09-13T06:36:09.000Z</time>
      </trkpt>
      <trkpt lat="47.98808" lon="6.56637">
        <ele>665</ele>
        <time>2018-09-13T06:36:10.000Z</time>
      </trkpt>
      <trkpt lat="47.98808" lon="6.56635">
        <ele>666</ele>
        <time>2018-09-13T06:36:11.000Z</time>
      </trkpt>
      <trkpt lat="47.98807" lon="6.56633">
        <ele>666</ele>
        <time>2018-09-13T06:36:12.000Z</time>
      </trkpt>
      <trkpt lat="47.98807" lon="6.56631">
        <ele>666</ele>
        <time>2018-09-13T06:36:13.000Z</time>
      </trkpt>
      <trkpt lat="47.98806" lon="6.56629">
        <ele>666</ele>
        <time>2018-09-13T06:36:14.000Z</time>
      </trkpt>
      <trkpt lat="47.98805" lon="6.56627">
        <ele>666</ele>
        <time>2018-09-13T06:36:15.000Z</time>
      </trkpt>
      <trkpt lat="47.98805" lon="6.56625">
        <ele>666</ele>
        <time>2018-09-13T06:36:16.000Z</time>
      </trkpt>
      <trkpt lat="47.98804" lon="6.56623">
        <ele>666</ele>
        <time>2018-09-13T06:36:17.000Z</time>
      </trkpt>
      <trkpt lat="47.98804" lon="6.56621">
        <ele>666</ele>
        <time>2018-09-13T06:36:18.000Z</time>
      </trkpt>
      <trkpt lat="47.98803" lon="6.56619">
        <ele>666</ele>
        <time>2018-09-13T06:36:19.000Z</time>
      </trkpt>
      <trkpt lat="47.98802" lon="6.56617">
        <ele>667</ele>
        <time>2018-09-13T06:36:20.000Z</time>
      </trkpt>
      <trkpt lat="47.98802" lon="6.56614">
        <ele>667</ele>
        <time>2018-09-13T06:36:21.000Z</time>
      </trkpt>
      <trkpt lat="47.98801" lon="6.56612">
        <ele>667</ele>
        <time>2018-09-13T06:36:22.000Z</time>
      </trkpt>
      <trkpt lat="47.988" lon="6.5661">
        <ele>667</ele>
        <time>2018-09-13T06:36:23.000Z</time>
      </trkpt>
      <trkpt lat="47.988" lon="6.56608">
        <ele>667</ele>
        <time>2018-09-13T06:36:24.000Z</time>
      </trkpt>
      <trkpt lat="47.98799" lon="6.56606">
        <ele>667</ele>
        <time>2018-09-13T06:36:25.000Z</time>
      </trkpt>
      <trkpt lat="47.98798" lon="6.56605">
        <ele>667</ele>
        <time>2018-09-13T06:36:26.000Z</time>
      </trkpt>
      <trkpt lat="47.98797" lon="6.56603">
        <ele>667</ele>
        <time>2018-09-13T06:36:27.000Z</time>
      </trkpt>
      <trkpt lat="47.98797" lon="6.56601">
        <ele>667</ele>
        <time>2018-09-13T06:36:28.000Z</time>
      </trkpt>
      <trkpt lat="47.98796" lon="6.56598">
        <ele>668</ele>
        <time>2018-09-13T06:36:29.000Z</time>
      </trkpt>
      <trkpt lat="47.98795" lon="6.56596">
        <ele>668</ele>
        <time>2018-09-13T06:36:30.000Z</time>
      </trkpt>
      <trkpt lat="47.98795" lon="6.56594">
        <ele>668</ele>
        <time>2018-09-13T06:36:31.000Z</time>
      </trkpt>
      <trkpt lat="47.98794" lon="6.56591">
        <ele>668</ele>
        <time>2018-09-13T06:36:32.000Z</time>
      </trkpt>
      <trkpt lat="47.98794" lon="6.56589">
        <ele>668</ele>
        <time>2018-09-13T06:36:33.000Z</time>
      </trkpt>
      <trkpt lat="47.98793" lon="6.56587">
        <ele>668</ele>
        <time>2018-09-13T06:36:34.000Z</time>
      </trkpt>
      <trkpt lat="47.98793" lon="6.56586">
        <ele>668</ele>
        <time>2018-09-13T06:36:35.000Z</time>
      </trkpt>
      <trkpt lat="47.98792" lon="6.56584">
        <ele>668</ele>
        <time>2018-09-13T06:36:36.000Z</time>
      </trkpt>
      <trkpt lat="47.98791" lon="6.56582">
        <ele>669</ele>
        <time>2018-09-13T06:36:37.000Z</time>
      </trkpt>
      <trkpt lat="47.98791" lon="6.5658">
        <ele>669</ele>
        <time>2018-09-13T06:36:38.000Z</time>
      </trkpt>
      <trkpt lat="47.9879" lon="6.56578">
        <ele>669</ele>
        <time>2018-09-13T06:36:39.000Z</time>
      </trkpt>
      <trkpt lat="47.9879" lon="6.56576">
        <ele>669</ele>
        <time>2018-09-13T06:36:40.000Z</time>
      </trkpt>
      <trkpt lat="47.98789" lon="6.56575">
        <ele>669</ele>
        <time>2018-09-13T06:36:41.000Z</time>
      </trkpt>
      <trkpt lat="47.98788" lon="6.56573">
        <ele>669</ele>
        <time>2018-09-13T06:36:42.000Z</time>
      </trkpt>
      <trkpt lat="47.98787" lon="6.56571">
        <ele>669</ele>
        <time>2018-09-13T06:36:43.000Z</time>
      </trkpt>
      <trkpt lat="47.98786" lon="6.56569">
        <ele>669</ele>
        <time>2018-09-13T06:36:44.000Z</time>
      </trkpt>
      <trkpt lat="47.98785" lon="6.56566">
        <ele>669</ele>
        <time>2018-09-13T06:36:45.000Z</time>
      </trkpt>
      <trkpt lat="47.98784" lon="6.56565">
        <ele>669</ele>
        <time>2018-09-13T06:36:46.000Z</time>
      </trkpt>
      <trkpt lat="47.98784" lon="6.56563">
        <ele>669</ele>
        <time>2018-09-13T06:36:47.000Z</time>
      </trkpt>
      <trkpt lat="47.98783" lon="6.56561">
        <ele>669</ele>
        <time>2018-09-13T06:36:48.000Z</time>
      </trkpt>
      <trkpt lat="47.98782" lon="6.5656">
        <ele>669</ele>
        <time>2018-09-13T06:36:49.000Z</time>
      </trkpt>
      <trkpt lat="47.9878" lon="6.56559">
        <ele>669</ele>
        <time>2018-09-13T06:36:50.000Z</time>
      </trkpt>
      <trkpt lat="47.98779" lon="6.56557">
        <ele>670</ele>
        <time>2018-09-13T06:36:51.000Z</time>
      </trkpt>
      <trkpt lat="47.98777" lon="6.56556">
        <ele>670</ele>
        <time>2018-09-13T06:36:52.000Z</time>
      </trkpt>
      <trkpt lat="47.98776" lon="6.56555">
        <ele>670</ele>
        <time>2018-09-13T06:36:53.000Z</time>
      </trkpt>
      <trkpt lat="47.98774" lon="6.56553">
        <ele>670</ele>
        <time>2018-09-13T06:36:54.000Z</time>
      </trkpt>
      <trkpt lat="47.98773" lon="6.56552">
        <ele>670</ele>
        <time>2018-09-13T06:36:55.000Z</time>
      </trkpt>
      <trkpt lat="47.98772" lon="6.56551">
        <ele>670</ele>
        <time>2018-09-13T06:36:56.000Z</time>
      </trkpt>
      <trkpt lat="47.9877" lon="6.5655">
        <ele>670</ele>
        <time>2018-09-13T06:36:57.000Z</time>
      </trkpt>
      <trkpt lat="47.98769" lon="6.5655">
        <ele>670</ele>
        <time>2018-09-13T06:36:58.000Z</time>
      </trkpt>
      <trkpt lat="47.98767" lon="6.56549">
        <ele>670</ele>
        <time>2018-09-13T06:36:59.000Z</time>
      </trkpt>
      <trkpt lat="47.98766" lon="6.56549">
        <ele>670</ele>
        <time>2018-09-13T06:37:00.000Z</time>
      </trkpt>
      <trkpt lat="47.98765" lon="6.56548">
        <ele>670</ele>
        <time>2018-09-13T06:37:01.000Z</time>
      </trkpt>
      <trkpt lat="47.98763" lon="6.56548">
        <ele>671</ele>
        <time>2018-09-13T06:37:02.000Z</time>
      </trkpt>
      <trkpt lat="47.98762" lon="6.56547">
        <ele>671</ele>
        <time>2018-09-13T06:37:03.000Z</time>
      </trkpt>
      <trkpt lat="47.98761" lon="6.56547">
        <ele>671</ele>
        <time>2018-09-13T06:37:04.000Z</time>
      </trkpt>
      <trkpt lat="47.98759" lon="6.56547">
        <ele>671</ele>
        <time>2018-09-13T06:37:05.000Z</time>
      </trkpt>
      <trkpt lat="47.98758" lon="6.56547">
        <ele>671</ele>
        <time>2018-09-13T06:37:06.000Z</time>
      </trkpt>
      <trkpt lat="47.98756" lon="6.56546">
        <ele>671</ele>
        <time>2018-09-13T06:37:07.000Z</time>
      </trkpt>
      <trkpt lat="47.98755" lon="6.56546">
        <ele>671</ele>
        <time>2018-09-13T06:37:08.000Z</time>
      </trkpt>
      <trkpt lat="47.98754" lon="6.56545">
        <ele>671</ele>
        <time>2018-09-13T06:37:09.000Z</time>
      </trkpt>
      <trkpt lat="47.98752" lon="6.56545">
        <ele>671</ele>
        <time>2018-09-13T06:37:10.000Z</time>
      </trkpt>
      <trkpt lat="47.98751" lon="6.56544">
        <ele>672</ele>
        <time>2018-09-13T06:37:11.000Z</time>
      </trkpt>
      <trkpt lat="47.98749" lon="6.56544">
        <ele>672</ele>
        <time>2018-09-13T06:37:12.000Z</time>
      </trkpt>
      <trkpt lat="47.98748" lon="6.56543">
        <ele>672</ele>
        <time>2018-09-13T06:37:13.000Z</time>
      </trkpt>
      <trkpt lat="47.98747" lon="6.56542">
        <ele>672</ele>
        <time>2018-09-13T06:37:14.000Z</time>
      </trkpt>
      <trkpt lat="47.98746" lon="6.56542">
        <ele>672</ele>
        <time>2018-09-13T06:37:15.000Z</time>
      </trkpt>
      <trkpt lat="47.98744" lon="6.56541">
        <ele>672</ele>
        <time>2018-09-13T06:37:16.000Z</time>
      </trkpt>
      <trkpt lat="47.98742" lon="6.56541">
        <ele>672</ele>
        <time>2018-09-13T06:37:17.000Z</time>
      </trkpt>
      <trkpt lat="47.98741" lon="6.5654">
        <ele>672</ele>
        <time>2018-09-13T06:37:18.000Z</time>
      </trkpt>
      <trkpt lat="47.98739" lon="6.5654">
        <ele>672</ele>
        <time>2018-09-13T06:37:19.000Z</time>
      </trkpt>
      <trkpt lat="47.98738" lon="6.56539">
        <ele>672</ele>
        <time>2018-09-13T06:37:20.000Z</time>
      </trkpt>
      <trkpt lat="47.98736" lon="6.56538">
        <ele>672</ele>
        <time>2018-09-13T06:37:21.000Z</time>
      </trkpt>
      <trkpt lat="47.98735" lon="6.56538">
        <ele>672</ele>
        <time>2018-09-13T06:37:22.000Z</time>
      </trkpt>
      <trkpt lat="47.98733" lon="6.56537">
        <ele>672</ele>
        <time>2018-09-13T06:37:23.000Z</time>
      </trkpt>
      <trkpt lat="47.98731" lon="6.56537">
        <ele>672</ele>
        <time>2018-09-13T06:37:24.000Z</time>
      </trkpt>
      <trkpt lat="47.9873" lon="6.56536">
        <ele>672</ele>
        <time>2018-09-13T06:37:25.000Z</time>
      </trkpt>
      <trkpt lat="47.98728" lon="6.56536">
        <ele>672</ele>
        <time>2018-09-13T06:37:26.000Z</time>
      </trkpt>
      <trkpt lat="47.98727" lon="6.56535">
        <ele>672</ele>
        <time>2018-09-13T06:37:27.000Z</time>
      </trkpt>
      <trkpt lat="47.98725" lon="6.56534">
        <ele>673</ele>
        <time>2018-09-13T06:37:28.000Z</time>
      </trkpt>
      <trkpt lat="47.98724" lon="6.56533">
        <ele>673</ele>
        <time>2018-09-13T06:37:29.000Z</time>
      </trkpt>
      <trkpt lat="47.98722" lon="6.56533">
        <ele>673</ele>
        <time>2018-09-13T06:37:30.000Z</time>
      </trkpt>
      <trkpt lat="47.98721" lon="6.56532">
        <ele>673</ele>
        <time>2018-09-13T06:37:31.000Z</time>
      </trkpt>
      <trkpt lat="47.9872" lon="6.56531">
        <ele>673</ele>
        <time>2018-09-13T06:37:32.000Z</time>
      </trkpt>
      <trkpt lat="47.98719" lon="6.56531">
        <ele>673</ele>
        <time>2018-09-13T06:37:33.000Z</time>
      </trkpt>
      <trkpt lat="47.98717" lon="6.5653">
        <ele>673</ele>
        <time>2018-09-13T06:37:34.000Z</time>
      </trkpt>
      <trkpt lat="47.98716" lon="6.56529">
        <ele>673</ele>
        <time>2018-09-13T06:37:35.000Z</time>
      </trkpt>
      <trkpt lat="47.98714" lon="6.56528">
        <ele>673</ele>
        <time>2018-09-13T06:37:36.000Z</time>
      </trkpt>
      <trkpt lat="47.98713" lon="6.56527">
        <ele>673</ele>
        <time>2018-09-13T06:37:37.000Z</time>
      </trkpt>
      <trkpt lat="47.98711" lon="6.56526">
        <ele>673</ele>
        <time>2018-09-13T06:37:38.000Z</time>
      </trkpt>
      <trkpt lat="47.9871" lon="6.56525">
        <ele>673</ele>
        <time>2018-09-13T06:37:39.000Z</time>
      </trkpt>
      <trkpt lat="47.98709" lon="6.56523">
        <ele>674</ele>
        <time>2018-09-13T06:37:40.000Z</time>
      </trkpt>
      <trkpt lat="47.98708" lon="6.56522">
        <ele>674</ele>
        <time>2018-09-13T06:37:41.000Z</time>
      </trkpt>
      <trkpt lat="47.98707" lon="6.56521">
        <ele>674</ele>
        <time>2018-09-13T06:37:42.000Z</time>
      </trkpt>
      <trkpt lat="47.98706" lon="6.56519">
        <ele>674</ele>
        <time>2018-09-13T06:37:43.000Z</time>
      </trkpt>
      <trkpt lat="47.98705" lon="6.56517">
        <ele>675</ele>
        <time>2018-09-13T06:37:44.000Z</time>
      </trkpt>
      <trkpt lat="47.98704" lon="6.56516">
        <ele>675</ele>
        <time>2018-09-13T06:37:45.000Z</time>
      </trkpt>
      <trkpt lat="47.98703" lon="6.56514">
        <ele>675</ele>
        <time>2018-09-13T06:37:46.000Z</time>
      </trkpt>
      <trkpt lat="47.98702" lon="6.56511">
        <ele>675</ele>
        <time>2018-09-13T06:37:47.000Z</time>
      </trkpt>
      <trkpt lat="47.98701" lon="6.5651">
        <ele>676</ele>
        <time>2018-09-13T06:37:48.000Z</time>
      </trkpt>
      <trkpt lat="47.987" lon="6.56508">
        <ele>676</ele>
        <time>2018-09-13T06:37:49.000Z</time>
      </trkpt>
      <trkpt lat="47.98699" lon="6.56506">
        <ele>676</ele>
        <time>2018-09-13T06:37:50.000Z</time>
      </trkpt>
      <trkpt lat="47.98698" lon="6.56504">
        <ele>677</ele>
        <time>2018-09-13T06:37:51.000Z</time>
      </trkpt>
      <trkpt lat="47.98697" lon="6.56503">
        <ele>677</ele>
        <time>2018-09-13T06:37:52.000Z</time>
      </trkpt>
      <trkpt lat="47.98696" lon="6.56501">
        <ele>677</ele>
        <time>2018-09-13T06:37:53.000Z</time>
      </trkpt>
      <trkpt lat="47.98695" lon="6.56499">
        <ele>677</ele>
        <time>2018-09-13T06:37:54.000Z</time>
      </trkpt>
      <trkpt lat="47.98694" lon="6.56497">
        <ele>677</ele>
        <time>2018-09-13T06:37:55.000Z</time>
      </trkpt>
      <trkpt lat="47.98693" lon="6.56495">
        <ele>677</ele>
        <time>2018-09-13T06:37:56.000Z</time>
      </trkpt>
      <trkpt lat="47.98692" lon="6.56493">
        <ele>678</ele>
        <time>2018-09-13T06:37:57.000Z</time>
      </trkpt>
      <trkpt lat="47.98692" lon="6.5649">
        <ele>678</ele>
        <time>2018-09-13T06:37:58.000Z</time>
      </trkpt>
      <trkpt lat="47.98691" lon="6.56488">
        <ele>678</ele>
        <time>2018-09-13T06:37:59.000Z</time>
      </trkpt>
      <trkpt lat="47.98691" lon="6.56486">
        <ele>678</ele>
        <time>2018-09-13T06:38:00.000Z</time>
      </trkpt>
      <trkpt lat="47.98691" lon="6.56485">
        <ele>678</ele>
        <time>2018-09-13T06:38:01.000Z</time>
      </trkpt>
      <trkpt lat="47.9869" lon="6.56483">
        <ele>678</ele>
        <time>2018-09-13T06:38:02.000Z</time>
      </trkpt>
      <trkpt lat="47.9869" lon="6.56481">
        <ele>678</ele>
        <time>2018-09-13T06:38:03.000Z</time>
      </trkpt>
      <trkpt lat="47.9869" lon="6.56479">
        <ele>678</ele>
        <time>2018-09-13T06:38:04.000Z</time>
      </trkpt>
      <trkpt lat="47.98689" lon="6.56477">
        <ele>679</ele>
        <time>2018-09-13T06:38:05.000Z</time>
      </trkpt>
      <trkpt lat="47.98689" lon="6.56474">
        <ele>679</ele>
        <time>2018-09-13T06:38:06.000Z</time>
      </trkpt>
      <trkpt lat="47.98688" lon="6.56472">
        <ele>679</ele>
        <time>2018-09-13T06:38:07.000Z</time>
      </trkpt>
      <trkpt lat="47.98687" lon="6.5647">
        <ele>679</ele>
        <time>2018-09-13T06:38:08.000Z</time>
      </trkpt>
      <trkpt lat="47.98687" lon="6.56468">
        <ele>679</ele>
        <time>2018-09-13T06:38:09.000Z</time>
      </trkpt>
      <trkpt lat="47.98686" lon="6.56466">
        <ele>679</ele>
        <time>2018-09-13T06:38:10.000Z</time>
      </trkpt>
      <trkpt lat="47.98685" lon="6.56463">
        <ele>679</ele>
        <time>2018-09-13T06:38:11.000Z</time>
      </trkpt>
      <trkpt lat="47.98684" lon="6.56461">
        <ele>679</ele>
        <time>2018-09-13T06:38:12.000Z</time>
      </trkpt>
      <trkpt lat="47.98683" lon="6.56459">
        <ele>680</ele>
        <time>2018-09-13T06:38:13.000Z</time>
      </trkpt>
      <trkpt lat="47.98683" lon="6.56457">
        <ele>680</ele>
        <time>2018-09-13T06:38:14.000Z</time>
      </trkpt>
      <trkpt lat="47.98682" lon="6.56454">
        <ele>680</ele>
        <time>2018-09-13T06:38:15.000Z</time>
      </trkpt>
      <trkpt lat="47.98681" lon="6.56452">
        <ele>680</ele>
        <time>2018-09-13T06:38:16.000Z</time>
      </trkpt>
      <trkpt lat="47.98681" lon="6.5645">
        <ele>680</ele>
        <time>2018-09-13T06:38:17.000Z</time>
      </trkpt>
      <trkpt lat="47.9868" lon="6.56448">
        <ele>680</ele>
        <time>2018-09-13T06:38:18.000Z</time>
      </trkpt>
      <trkpt lat="47.98679" lon="6.56446">
        <ele>680</ele>
        <time>2018-09-13T06:38:19.000Z</time>
      </trkpt>
      <trkpt lat="47.98679" lon="6.56444">
        <ele>680</ele>
        <time>2018-09-13T06:38:20.000Z</time>
      </trkpt>
      <trkpt lat="47.98678" lon="6.56442">
        <ele>680</ele>
        <time>2018-09-13T06:38:21.000Z</time>
      </trkpt>
      <trkpt lat="47.98678" lon="6.5644">
        <ele>681</ele>
        <time>2018-09-13T06:38:22.000Z</time>
      </trkpt>
      <trkpt lat="47.98677" lon="6.56438">
        <ele>681</ele>
        <time>2018-09-13T06:38:23.000Z</time>
      </trkpt>
      <trkpt lat="47.98676" lon="6.56436">
        <ele>681</ele>
        <time>2018-09-13T06:38:24.000Z</time>
      </trkpt>
      <trkpt lat="47.98676" lon="6.56434">
        <ele>681</ele>
        <time>2018-09-13T06:38:25.000Z</time>
      </trkpt>
      <trkpt lat="47.98675" lon="6.56432">
        <ele>681</ele>
        <time>2018-09-13T06:38:26.000Z</time>
      </trkpt>
      <trkpt lat="47.98674" lon="6.56431">
        <ele>681</ele>
        <time>2018-09-13T06:38:27.000Z</time>
      </trkpt>
      <trkpt lat="47.98674" lon="6.56429">
        <ele>681</ele>
        <time>2018-09-13T06:38:28.000Z</time>
      </trkpt>
      <trkpt lat="47.98673" lon="6.56427">
        <ele>681</ele>
        <time>2018-09-13T06:38:29.000Z</time>
      </trkpt>
      <trkpt lat="47.98672" lon="6.56425">
        <ele>681</ele>
        <time>2018-09-13T06:38:30.000Z</time>
      </trkpt>
      <trkpt lat="47.98672" lon="6.56424">
        <ele>681</ele>
        <time>2018-09-13T06:38:31.000Z</time>
      </trkpt>
      <trkpt lat="47.98671" lon="6.56422">
        <ele>681</ele>
        <time>2018-09-13T06:38:32.000Z</time>
      </trkpt>
      <trkpt lat="47.98671" lon="6.5642">
        <ele>682</ele>
        <time>2018-09-13T06:38:33.000Z</time>
      </trkpt>
      <trkpt lat="47.9867" lon="6.56418">
        <ele>682</ele>
        <time>2018-09-13T06:38:34.000Z</time>
      </trkpt>
      <trkpt lat="47.9867" lon="6.56417">
        <ele>682</ele>
        <time>2018-09-13T06:38:35.000Z</time>
      </trkpt>
      <trkpt lat="47.98669" lon="6.56415">
        <ele>682</ele>
        <time>2018-09-13T06:38:36.000Z</time>
      </trkpt>
      <trkpt lat="47.98668" lon="6.56414">
        <ele>682</ele>
        <time>2018-09-13T06:38:37.000Z</time>
      </trkpt>
      <trkpt lat="47.98668" lon="6.56412">
        <ele>682</ele>
        <time>2018-09-13T06:38:38.000Z</time>
      </trkpt>
      <trkpt lat="47.98667" lon="6.56411">
        <ele>682</ele>
        <time>2018-09-13T06:38:39.000Z</time>
      </trkpt>
      <trkpt lat="47.98666" lon="6.56409">
        <ele>682</ele>
        <time>2018-09-13T06:38:40.000Z</time>
      </trkpt>
      <trkpt lat="47.98666" lon="6.56408">
        <ele>682</ele>
        <time>2018-09-13T06:38:41.000Z</time>
      </trkpt>
      <trkpt lat="47.98665" lon="6.56407">
        <ele>683</ele>
        <time>2018-09-13T06:38:42.000Z</time>
      </trkpt>
      <trkpt lat="47.98664" lon="6.56405">
        <ele>683</ele>
        <time>2018-09-13T06:38:43.000Z</time>
      </trkpt>
      <trkpt lat="47.98663" lon="6.56404">
        <ele>683</ele>
        <time>2018-09-13T06:38:44.000Z</time>
      </trkpt>
      <trkpt lat="47.98662" lon="6.56402">
        <ele>683</ele>
        <time>2018-09-13T06:38:45.000Z</time>
      </trkpt>
      <trkpt lat="47.98661" lon="6.56401">
        <ele>683</ele>
        <time>2018-09-13T06:38:46.000Z</time>
      </trkpt>
      <trkpt lat="47.9866" lon="6.564">
        <ele>683</ele>
        <time>2018-09-13T06:38:47.000Z</time>
      </trkpt>
      <trkpt lat="47.9866" lon="6.56399">
        <ele>684</ele>
        <time>2018-09-13T06:38:48.000Z</time>
      </trkpt>
      <trkpt lat="47.98659" lon="6.56398">
        <ele>684</ele>
        <time>2018-09-13T06:38:49.000Z</time>
      </trkpt>
      <trkpt lat="47.98658" lon="6.56397">
        <ele>684</ele>
        <time>2018-09-13T06:38:50.000Z</time>
      </trkpt>
      <trkpt lat="47.98657" lon="6.56395">
        <ele>684</ele>
        <time>2018-09-13T06:38:51.000Z</time>
      </trkpt>
      <trkpt lat="47.98656" lon="6.56393">
        <ele>684</ele>
        <time>2018-09-13T06:38:52.000Z</time>
      </trkpt>
      <trkpt lat="47.98655" lon="6.56391">
        <ele>684</ele>
        <time>2018-09-13T06:38:53.000Z</time>
      </trkpt>
      <trkpt lat="47.98655" lon="6.56389">
        <ele>684</ele>
        <time>2018-09-13T06:38:54.000Z</time>
      </trkpt>
      <trkpt lat="47.98654" lon="6.56387">
        <ele>684</ele>
        <time>2018-09-13T06:38:55.000Z</time>
      </trkpt>
      <trkpt lat="47.98653" lon="6.56385">
        <ele>684</ele>
        <time>2018-09-13T06:38:56.000Z</time>
      </trkpt>
      <trkpt lat="47.98653" lon="6.56383">
        <ele>684</ele>
        <time>2018-09-13T06:38:57.000Z</time>
      </trkpt>
      <trkpt lat="47.98653" lon="6.56381">
        <ele>685</ele>
        <time>2018-09-13T06:38:58.000Z</time>
      </trkpt>
      <trkpt lat="47.98652" lon="6.56379">
        <ele>685</ele>
        <time>2018-09-13T06:38:59.000Z</time>
      </trkpt>
      <trkpt lat="47.98651" lon="6.56377">
        <ele>685</ele>
        <time>2018-09-13T06:39:00.000Z</time>
      </trkpt>
      <trkpt lat="47.98651" lon="6.56375">
        <ele>685</ele>
        <time>2018-09-13T06:39:01.000Z</time>
      </trkpt>
      <trkpt lat="47.9865" lon="6.56373">
        <ele>685</ele>
        <time>2018-09-13T06:39:02.000Z</time>
      </trkpt>
      <trkpt lat="47.98649" lon="6.56371">
        <ele>685</ele>
        <time>2018-09-13T06:39:03.000Z</time>
      </trkpt>
      <trkpt lat="47.98648" lon="6.56369">
        <ele>685</ele>
        <time>2018-09-13T06:39:04.000Z</time>
      </trkpt>
      <trkpt lat="47.98647" lon="6.56367">
        <ele>685</ele>
        <time>2018-09-13T06:39:05.000Z</time>
      </trkpt>
      <trkpt lat="47.98646" lon="6.56366">
        <ele>685</ele>
        <time>2018-09-13T06:39:06.000Z</time>
      </trkpt>
      <trkpt lat="47.98645" lon="6.56364">
        <ele>685</ele>
        <time>2018-09-13T06:39:07.000Z</time>
      </trkpt>
      <trkpt lat="47.98644" lon="6.56363">
        <ele>685</ele>
        <time>2018-09-13T06:39:08.000Z</time>
      </trkpt>
      <trkpt lat="47.98642" lon="6.56361">
        <ele>685</ele>
        <time>2018-09-13T06:39:09.000Z</time>
      </trkpt>
      <trkpt lat="47.98641" lon="6.5636">
        <ele>685</ele>
        <time>2018-09-13T06:39:10.000Z</time>
      </trkpt>
      <trkpt lat="47.9864" lon="6.56359">
        <ele>685</ele>
        <time>2018-09-13T06:39:11.000Z</time>
      </trkpt>
      <trkpt lat="47.98639" lon="6.56358">
        <ele>686</ele>
        <time>2018-09-13T06:39:12.000Z</time>
      </trkpt>
      <trkpt lat="47.98637" lon="6.56357">
        <ele>686</ele>
        <time>2018-09-13T06:39:13.000Z</time>
      </trkpt>
      <trkpt lat="47.98636" lon="6.56357">
        <ele>686</ele>
        <time>2018-09-13T06:39:14.000Z</time>
      </trkpt>
      <trkpt lat="47.98634" lon="6.56357">
        <ele>686</ele>
        <time>2018-09-13T06:39:15.000Z</time>
      </trkpt>
      <trkpt lat="47.98633" lon="6.56356">
        <ele>686</ele>
        <time>2018-09-13T06:39:16.000Z</time>
      </trkpt>
      <trkpt lat="47.98632" lon="6.56356">
        <ele>686</ele>
        <time>2018-09-13T06:39:17.000Z</time>
      </trkpt>
      <trkpt lat="47.9863" lon="6.56356">
        <ele>686</ele>
        <time>2018-09-13T06:39:18.000Z</time>
      </trkpt>
      <trkpt lat="47.98629" lon="6.56355">
        <ele>686</ele>
        <time>2018-09-13T06:39:19.000Z</time>
      </trkpt>
      <trkpt lat="47.98627" lon="6.56355">
        <ele>686</ele>
        <time>2018-09-13T06:39:20.000Z</time>
      </trkpt>
      <trkpt lat="47.98626" lon="6.56354">
        <ele>686</ele>
        <time>2018-09-13T06:39:21.000Z</time>
      </trkpt>
      <trkpt lat="47.98624" lon="6.56353">
        <ele>687</ele>
        <time>2018-09-13T06:39:22.000Z</time>
      </trkpt>
      <trkpt lat="47.98623" lon="6.56351">
        <ele>687</ele>
        <time>2018-09-13T06:39:23.000Z</time>
      </trkpt>
      <trkpt lat="47.98622" lon="6.5635">
        <ele>687</ele>
        <time>2018-09-13T06:39:24.000Z</time>
      </trkpt>
      <trkpt lat="47.9862" lon="6.56348">
        <ele>687</ele>
        <time>2018-09-13T06:39:25.000Z</time>
      </trkpt>
      <trkpt lat="47.98619" lon="6.56346">
        <ele>687</ele>
        <time>2018-09-13T06:39:26.000Z</time>
      </trkpt>
      <trkpt lat="47.98618" lon="6.56345">
        <ele>687</ele>
        <time>2018-09-13T06:39:27.000Z</time>
      </trkpt>
      <trkpt lat="47.98617" lon="6.56343">
        <ele>687</ele>
        <time>2018-09-13T06:39:28.000Z</time>
      </trkpt>
      <trkpt lat="47.98616" lon="6.56342">
        <ele>687</ele>
        <time>2018-09-13T06:39:29.000Z</time>
      </trkpt>
      <trkpt lat="47.98615" lon="6.5634">
        <ele>687</ele>
        <time>2018-09-13T06:39:30.000Z</time>
      </trkpt>
      <trkpt lat="47.98614" lon="6.56339">
        <ele>688</ele>
        <time>2018-09-13T06:39:31.000Z</time>
      </trkpt>
      <trkpt lat="47.98613" lon="6.56338">
        <ele>688</ele>
        <time>2018-09-13T06:39:32.000Z</time>
      </trkpt>
      <trkpt lat="47.98612" lon="6.56337">
        <ele>688</ele>
        <time>2018-09-13T06:39:33.000Z</time>
      </trkpt>
      <trkpt lat="47.9861" lon="6.56336">
        <ele>688</ele>
        <time>2018-09-13T06:39:34.000Z</time>
      </trkpt>
      <trkpt lat="47.98609" lon="6.56335">
        <ele>688</ele>
        <time>2018-09-13T06:39:35.000Z</time>
      </trkpt>
      <trkpt lat="47.98608" lon="6.56334">
        <ele>688</ele>
        <time>2018-09-13T06:39:36.000Z</time>
      </trkpt>
      <trkpt lat="47.98606" lon="6.56334">
        <ele>688</ele>
        <time>2018-09-13T06:39:37.000Z</time>
      </trkpt>
      <trkpt lat="47.98605" lon="6.56333">
        <ele>688</ele>
        <time>2018-09-13T06:39:38.000Z</time>
      </trkpt>
      <trkpt lat="47.98603" lon="6.56332">
        <ele>688</ele>
        <time>2018-09-13T06:39:39.000Z</time>
      </trkpt>
      <trkpt lat="47.98602" lon="6.56332">
        <ele>689</ele>
        <time>2018-09-13T06:39:40.000Z</time>
      </trkpt>
      <trkpt lat="47.986" lon="6.56331">
        <ele>689</ele>
        <time>2018-09-13T06:39:41.000Z</time>
      </trkpt>
      <trkpt lat="47.98598" lon="6.56331">
        <ele>689</ele>
        <time>2018-09-13T06:39:42.000Z</time>
      </trkpt>
      <trkpt lat="47.98597" lon="6.5633">
        <ele>689</ele>
        <time>2018-09-13T06:39:43.000Z</time>
      </trkpt>
      <trkpt lat="47.98595" lon="6.56329">
        <ele>689</ele>
        <time>2018-09-13T06:39:44.000Z</time>
      </trkpt>
      <trkpt lat="47.98594" lon="6.56328">
        <ele>689</ele>
        <time>2018-09-13T06:39:45.000Z</time>
      </trkpt>
      <trkpt lat="47.98593" lon="6.56327">
        <ele>690</ele>
        <time>2018-09-13T06:39:46.000Z</time>
      </trkpt>
      <trkpt lat="47.98591" lon="6.56325">
        <ele>690</ele>
        <time>2018-09-13T06:39:47.000Z</time>
      </trkpt>
      <trkpt lat="47.9859" lon="6.56323">
        <ele>690</ele>
        <time>2018-09-13T06:39:48.000Z</time>
      </trkpt>
      <trkpt lat="47.98589" lon="6.56321">
        <ele>690</ele>
        <time>2018-09-13T06:39:49.000Z</time>
      </trkpt>
      <trkpt lat="47.98588" lon="6.5632">
        <ele>690</ele>
        <time>2018-09-13T06:39:50.000Z</time>
      </trkpt>
      <trkpt lat="47.98587" lon="6.56318">
        <ele>690</ele>
        <time>2018-09-13T06:39:51.000Z</time>
      </trkpt>
      <trkpt lat="47.98586" lon="6.56317">
        <ele>690</ele>
        <time>2018-09-13T06:39:52.000Z</time>
      </trkpt>
      <trkpt lat="47.98585" lon="6.56314">
        <ele>690</ele>
        <time>2018-09-13T06:39:53.000Z</time>
      </trkpt>
      <trkpt lat="47.98584" lon="6.56312">
        <ele>690</ele>
        <time>2018-09-13T06:39:54.000Z</time>
      </trkpt>
      <trkpt lat="47.98583" lon="6.5631">
        <ele>690</ele>
        <time>2018-09-13T06:39:55.000Z</time>
      </trkpt>
      <trkpt lat="47.98582" lon="6.56308">
        <ele>690</ele>
        <time>2018-09-13T06:39:56.000Z</time>
      </trkpt>
      <trkpt lat="47.98581" lon="6.56306">
        <ele>690</ele>
        <time>2018-09-13T06:39:57.000Z</time>
      </trkpt>
      <trkpt lat="47.9858" lon="6.56304">
        <ele>690</ele>
        <time>2018-09-13T06:39:58.000Z</time>
      </trkpt>
      <trkpt lat="47.98578" lon="6.56302">
        <ele>690</ele>
        <time>2018-09-13T06:39:59.000Z</time>
      </trkpt>
      <trkpt lat="47.98577" lon="6.56301">
        <ele>690</ele>
        <time>2018-09-13T06:40:00.000Z</time>
      </trkpt>
      <trkpt lat="47.98576" lon="6.56299">
        <ele>690</ele>
        <time>2018-09-13T06:40:01.000Z</time>
      </trkpt>
      <trkpt lat="47.98574" lon="6.56297">
        <ele>690</ele>
        <time>2018-09-13T06:40:02.000Z</time>
      </trkpt>
      <trkpt lat="47.98573" lon="6.56295">
        <ele>690</ele>
        <time>2018-09-13T06:40:03.000Z</time>
      </trkpt>
      <trkpt lat="47.98572" lon="6.56293">
        <ele>691</ele>
        <time>2018-09-13T06:40:04.000Z</time>
      </trkpt>
      <trkpt lat="47.98571" lon="6.56292">
        <ele>691</ele>
        <time>2018-09-13T06:40:05.000Z</time>
      </trkpt>
      <trkpt lat="47.9857" lon="6.5629">
        <ele>691</ele>
        <time>2018-09-13T06:40:06.000Z</time>
      </trkpt>
      <trkpt lat="47.98569" lon="6.56289">
        <ele>691</ele>
        <time>2018-09-13T06:40:07.000Z</time>
      </trkpt>
      <trkpt lat="47.98568" lon="6.56287">
        <ele>691</ele>
        <time>2018-09-13T06:40:08.000Z</time>
      </trkpt>
      <trkpt lat="47.98567" lon="6.56286">
        <ele>691</ele>
        <time>2018-09-13T06:40:09.000Z</time>
      </trkpt>
      <trkpt lat="47.98565" lon="6.56285">
        <ele>691</ele>
        <time>2018-09-13T06:40:10.000Z</time>
      </trkpt>
      <trkpt lat="47.98564" lon="6.56284">
        <ele>691</ele>
        <time>2018-09-13T06:40:11.000Z</time>
      </trkpt>
      <trkpt lat="47.98563" lon="6.56284">
        <ele>691</ele>
        <time>2018-09-13T06:40:12.000Z</time>
      </trkpt>
      <trkpt lat="47.98562" lon="6.56283">
        <ele>691</ele>
        <time>2018-09-13T06:40:13.000Z</time>
      </trkpt>
      <trkpt lat="47.9856" lon="6.56283">
        <ele>691</ele>
        <time>2018-09-13T06:40:14.000Z</time>
      </trkpt>
      <trkpt lat="47.98559" lon="6.56283">
        <ele>691</ele>
        <time>2018-09-13T06:40:15.000Z</time>
      </trkpt>
      <trkpt lat="47.98558" lon="6.56283">
        <ele>691</ele>
        <time>2018-09-13T06:40:16.000Z</time>
      </trkpt>
      <trkpt lat="47.98556" lon="6.56282">
        <ele>692</ele>
        <time>2018-09-13T06:40:17.000Z</time>
      </trkpt>
      <trkpt lat="47.98555" lon="6.56282">
        <ele>692</ele>
        <time>2018-09-13T06:40:18.000Z</time>
      </trkpt>
      <trkpt lat="47.98553" lon="6.56282">
        <ele>692</ele>
        <time>2018-09-13T06:40:19.000Z</time>
      </trkpt>
      <trkpt lat="47.98552" lon="6.56281">
        <ele>692</ele>
        <time>2018-09-13T06:40:20.000Z</time>
      </trkpt>
      <trkpt lat="47.9855" lon="6.56281">
        <ele>692</ele>
        <time>2018-09-13T06:40:21.000Z</time>
      </trkpt>
      <trkpt lat="47.98549" lon="6.56281">
        <ele>692</ele>
        <time>2018-09-13T06:40:22.000Z</time>
      </trkpt>
      <trkpt lat="47.98548" lon="6.56281">
        <ele>692</ele>
        <time>2018-09-13T06:40:23.000Z</time>
      </trkpt>
      <trkpt lat="47.98547" lon="6.5628">
        <ele>692</ele>
        <time>2018-09-13T06:40:24.000Z</time>
      </trkpt>
      <trkpt lat="47.98546" lon="6.5628">
        <ele>692</ele>
        <time>2018-09-13T06:40:25.000Z</time>
      </trkpt>
      <trkpt lat="47.98545" lon="6.5628">
        <ele>692</ele>
        <time>2018-09-13T06:40:26.000Z</time>
      </trkpt>
      <trkpt lat="47.98543" lon="6.5628">
        <ele>693</ele>
        <time>2018-09-13T06:40:27.000Z</time>
      </trkpt>
      <trkpt lat="47.98542" lon="6.56281">
        <ele>693</ele>
        <time>2018-09-13T06:40:28.000Z</time>
      </trkpt>
      <trkpt lat="47.9854" lon="6.56281">
        <ele>693</ele>
        <time>2018-09-13T06:40:29.000Z</time>
      </trkpt>
      <trkpt lat="47.98539" lon="6.56282">
        <ele>693</ele>
        <time>2018-09-13T06:40:30.000Z</time>
      </trkpt>
      <trkpt lat="47.98538" lon="6.56282">
        <ele>693</ele>
        <time>2018-09-13T06:40:31.000Z</time>
      </trkpt>
      <trkpt lat="47.98536" lon="6.56282">
        <ele>693</ele>
        <time>2018-09-13T06:40:32.000Z</time>
      </trkpt>
      <trkpt lat="47.98535" lon="6.56282">
        <ele>693</ele>
        <time>2018-09-13T06:40:33.000Z</time>
      </trkpt>
      <trkpt lat="47.98533" lon="6.56283">
        <ele>693</ele>
        <time>2018-09-13T06:40:34.000Z</time>
      </trkpt>
      <trkpt lat="47.98532" lon="6.56283">
        <ele>693</ele>
        <time>2018-09-13T06:40:35.000Z</time>
      </trkpt>
      <trkpt lat="47.98531" lon="6.56284">
        <ele>693</ele>
        <time>2018-09-13T06:40:36.000Z</time>
      </trkpt>
      <trkpt lat="47.9853" lon="6.56285">
        <ele>693</ele>
        <time>2018-09-13T06:40:37.000Z</time>
      </trkpt>
      <trkpt lat="47.98528" lon="6.56285">
        <ele>693</ele>
        <time>2018-09-13T06:40:38.000Z</time>
      </trkpt>
      <trkpt lat="47.98527" lon="6.56286">
        <ele>694</ele>
        <time>2018-09-13T06:40:39.000Z</time>
      </trkpt>
      <trkpt lat="47.98526" lon="6.56287">
        <ele>694</ele>
        <time>2018-09-13T06:40:40.000Z</time>
      </trkpt>
      <trkpt lat="47.98525" lon="6.56287">
        <ele>694</ele>
        <time>2018-09-13T06:40:41.000Z</time>
      </trkpt>
      <trkpt lat="47.98523" lon="6.56288">
        <ele>694</ele>
        <time>2018-09-13T06:40:42.000Z</time>
      </trkpt>
      <trkpt lat="47.98522" lon="6.56289">
        <ele>694</ele>
        <time>2018-09-13T06:40:43.000Z</time>
      </trkpt>
      <trkpt lat="47.98521" lon="6.5629">
        <ele>694</ele>
        <time>2018-09-13T06:40:44.000Z</time>
      </trkpt>
      <trkpt lat="47.98519" lon="6.56291">
        <ele>694</ele>
        <time>2018-09-13T06:40:45.000Z</time>
      </trkpt>
      <trkpt lat="47.98518" lon="6.56292">
        <ele>694</ele>
        <time>2018-09-13T06:40:46.000Z</time>
      </trkpt>
      <trkpt lat="47.98516" lon="6.56293">
        <ele>694</ele>
        <time>2018-09-13T06:40:47.000Z</time>
      </trkpt>
      <trkpt lat="47.98515" lon="6.56293">
        <ele>694</ele>
        <time>2018-09-13T06:40:48.000Z</time>
      </trkpt>
      <trkpt lat="47.98513" lon="6.56293">
        <ele>694</ele>
        <time>2018-09-13T06:40:49.000Z</time>
      </trkpt>
      <trkpt lat="47.98512" lon="6.56293">
        <ele>694</ele>
        <time>2018-09-13T06:40:50.000Z</time>
      </trkpt>
      <trkpt lat="47.9851" lon="6.56293">
        <ele>695</ele>
        <time>2018-09-13T06:40:51.000Z</time>
      </trkpt>
      <trkpt lat="47.98509" lon="6.56293">
        <ele>695</ele>
        <time>2018-09-13T06:40:52.000Z</time>
      </trkpt>
      <trkpt lat="47.98507" lon="6.56293">
        <ele>695</ele>
        <time>2018-09-13T06:40:53.000Z</time>
      </trkpt>
      <trkpt lat="47.98506" lon="6.56293">
        <ele>695</ele>
        <time>2018-09-13T06:40:54.000Z</time>
      </trkpt>
      <trkpt lat="47.98505" lon="6.56293">
        <ele>695</ele>
        <time>2018-09-13T06:40:55.000Z</time>
      </trkpt>
      <trkpt lat="47.98503" lon="6.56293">
        <ele>695</ele>
        <time>2018-09-13T06:40:56.000Z</time>
      </trkpt>
      <trkpt lat="47.98502" lon="6.56293">
        <ele>696</ele>
        <time>2018-09-13T06:40:57.000Z</time>
      </trkpt>
      <trkpt lat="47.985" lon="6.56294">
        <ele>696</ele>
        <time>2018-09-13T06:40:58.000Z</time>
      </trkpt>
      <trkpt lat="47.98499" lon="6.56294">
        <ele>696</ele>
        <time>2018-09-13T06:40:59.000Z</time>
      </trkpt>
      <trkpt lat="47.98497" lon="6.56295">
        <ele>696</ele>
        <time>2018-09-13T06:41:00.000Z</time>
      </trkpt>
      <trkpt lat="47.98496" lon="6.56295">
        <ele>696</ele>
        <time>2018-09-13T06:41:01.000Z</time>
      </trkpt>
      <trkpt lat="47.98494" lon="6.56296">
        <ele>696</ele>
        <time>2018-09-13T06:41:02.000Z</time>
      </trkpt>
      <trkpt lat="47.98492" lon="6.56296">
        <ele>696</ele>
        <time>2018-09-13T06:41:03.000Z</time>
      </trkpt>
      <trkpt lat="47.9849" lon="6.56296">
        <ele>696</ele>
        <time>2018-09-13T06:41:04.000Z</time>
      </trkpt>
      <trkpt lat="47.98489" lon="6.56296">
        <ele>696</ele>
        <time>2018-09-13T06:41:05.000Z</time>
      </trkpt>
      <trkpt lat="47.98487" lon="6.56297">
        <ele>697</ele>
        <time>2018-09-13T06:41:06.000Z</time>
      </trkpt>
      <trkpt lat="47.98486" lon="6.56297">
        <ele>697</ele>
        <time>2018-09-13T06:41:07.000Z</time>
      </trkpt>
      <trkpt lat="47.98484" lon="6.56297">
        <ele>697</ele>
        <time>2018-09-13T06:41:08.000Z</time>
      </trkpt>
      <trkpt lat="47.98482" lon="6.56297">
        <ele>697</ele>
        <time>2018-09-13T06:41:09.000Z</time>
      </trkpt>
      <trkpt lat="47.98481" lon="6.56297">
        <ele>697</ele>
        <time>2018-09-13T06:41:10.000Z</time>
      </trkpt>
      <trkpt lat="47.98479" lon="6.56298">
        <ele>697</ele>
        <time>2018-09-13T06:41:11.000Z</time>
      </trkpt>
      <trkpt lat="47.98478" lon="6.56298">
        <ele>697</ele>
        <time>2018-09-13T06:41:12.000Z</time>
      </trkpt>
      <trkpt lat="47.98476" lon="6.56298">
        <ele>697</ele>
        <time>2018-09-13T06:41:13.000Z</time>
      </trkpt>
      <trkpt lat="47.98475" lon="6.56297">
        <ele>697</ele>
        <time>2018-09-13T06:41:14.000Z</time>
      </trkpt>
      <trkpt lat="47.98473" lon="6.56297">
        <ele>697</ele>
        <time>2018-09-13T06:41:15.000Z</time>
      </trkpt>
      <trkpt lat="47.98472" lon="6.56297">
        <ele>697</ele>
        <time>2018-09-13T06:41:16.000Z</time>
      </trkpt>
      <trkpt lat="47.98471" lon="6.56297">
        <ele>697</ele>
        <time>2018-09-13T06:41:17.000Z</time>
      </trkpt>
      <trkpt lat="47.98469" lon="6.56297">
        <ele>697</ele>
        <time>2018-09-13T06:41:18.000Z</time>
      </trkpt>
      <trkpt lat="47.98468" lon="6.56297">
        <ele>697</ele>
        <time>2018-09-13T06:41:19.000Z</time>
      </trkpt>
      <trkpt lat="47.98467" lon="6.56298">
        <ele>697</ele>
        <time>2018-09-13T06:41:20.000Z</time>
      </trkpt>
      <trkpt lat="47.98465" lon="6.56298">
        <ele>697</ele>
        <time>2018-09-13T06:41:21.000Z</time>
      </trkpt>
      <trkpt lat="47.98463" lon="6.56298">
        <ele>698</ele>
        <time>2018-09-13T06:41:22.000Z</time>
      </trkpt>
      <trkpt lat="47.98462" lon="6.56299">
        <ele>698</ele>
        <time>2018-09-13T06:41:23.000Z</time>
      </trkpt>
      <trkpt lat="47.9846" lon="6.563">
        <ele>698</ele>
        <time>2018-09-13T06:41:24.000Z</time>
      </trkpt>
      <trkpt lat="47.98459" lon="6.563">
        <ele>698</ele>
        <time>2018-09-13T06:41:25.000Z</time>
      </trkpt>
      <trkpt lat="47.98457" lon="6.56301">
        <ele>698</ele>
        <time>2018-09-13T06:41:26.000Z</time>
      </trkpt>
      <trkpt lat="47.98456" lon="6.56302">
        <ele>698</ele>
        <time>2018-09-13T06:41:27.000Z</time>
      </trkpt>
      <trkpt lat="47.98454" lon="6.56303">
        <ele>698</ele>
        <time>2018-09-13T06:41:28.000Z</time>
      </trkpt>
      <trkpt lat="47.98453" lon="6.56304">
        <ele>698</ele>
        <time>2018-09-13T06:41:29.000Z</time>
      </trkpt>
      <trkpt lat="47.98452" lon="6.56305">
        <ele>699</ele>
        <time>2018-09-13T06:41:30.000Z</time>
      </trkpt>
      <trkpt lat="47.9845" lon="6.56306">
        <ele>699</ele>
        <time>2018-09-13T06:41:31.000Z</time>
      </trkpt>
      <trkpt lat="47.98449" lon="6.56307">
        <ele>699</ele>
        <time>2018-09-13T06:41:32.000Z</time>
      </trkpt>
      <trkpt lat="47.98447" lon="6.56309">
        <ele>699</ele>
        <time>2018-09-13T06:41:33.000Z</time>
      </trkpt>
      <trkpt lat="47.98446" lon="6.5631">
        <ele>699</ele>
        <time>2018-09-13T06:41:34.000Z</time>
      </trkpt>
      <trkpt lat="47.98445" lon="6.56311">
        <ele>699</ele>
        <time>2018-09-13T06:41:35.000Z</time>
      </trkpt>
      <trkpt lat="47.98444" lon="6.56312">
        <ele>700</ele>
        <time>2018-09-13T06:41:36.000Z</time>
      </trkpt>
      <trkpt lat="47.98443" lon="6.56313">
        <ele>700</ele>
        <time>2018-09-13T06:41:37.000Z</time>
      </trkpt>
      <trkpt lat="47.98441" lon="6.56314">
        <ele>700</ele>
        <time>2018-09-13T06:41:38.000Z</time>
      </trkpt>
      <trkpt lat="47.9844" lon="6.56315">
        <ele>700</ele>
        <time>2018-09-13T06:41:39.000Z</time>
      </trkpt>
      <trkpt lat="47.98439" lon="6.56315">
        <ele>700</ele>
        <time>2018-09-13T06:41:40.000Z</time>
      </trkpt>
      <trkpt lat="47.98438" lon="6.56316">
        <ele>700</ele>
        <time>2018-09-13T06:41:41.000Z</time>
      </trkpt>
      <trkpt lat="47.98437" lon="6.56316">
        <ele>701</ele>
        <time>2018-09-13T06:41:42.000Z</time>
      </trkpt>
      <trkpt lat="47.98436" lon="6.56317">
        <ele>701</ele>
        <time>2018-09-13T06:41:43.000Z</time>
      </trkpt>
      <trkpt lat="47.98434" lon="6.56317">
        <ele>701</ele>
        <time>2018-09-13T06:41:44.000Z</time>
      </trkpt>
      <trkpt lat="47.98433" lon="6.56318">
        <ele>701</ele>
        <time>2018-09-13T06:41:45.000Z</time>
      </trkpt>
      <trkpt lat="47.98431" lon="6.56319">
        <ele>701</ele>
        <time>2018-09-13T06:41:46.000Z</time>
      </trkpt>
      <trkpt lat="47.9843" lon="6.5632">
        <ele>701</ele>
        <time>2018-09-13T06:41:47.000Z</time>
      </trkpt>
      <trkpt lat="47.98429" lon="6.5632">
        <ele>701</ele>
        <time>2018-09-13T06:41:48.000Z</time>
      </trkpt>
      <trkpt lat="47.98427" lon="6.56321">
        <ele>701</ele>
        <time>2018-09-13T06:41:49.000Z</time>
      </trkpt>
      <trkpt lat="47.98426" lon="6.56322">
        <ele>702</ele>
        <time>2018-09-13T06:41:50.000Z</time>
      </trkpt>
      <trkpt lat="47.98424" lon="6.56323">
        <ele>702</ele>
        <time>2018-09-13T06:41:51.000Z</time>
      </trkpt>
      <trkpt lat="47.98422" lon="6.56324">
        <ele>702</ele>
        <time>2018-09-13T06:41:52.000Z</time>
      </trkpt>
      <trkpt lat="47.98421" lon="6.56325">
        <ele>702</ele>
        <time>2018-09-13T06:41:53.000Z</time>
      </trkpt>
      <trkpt lat="47.98419" lon="6.56326">
        <ele>702</ele>
        <time>2018-09-13T06:41:54.000Z</time>
      </trkpt>
      <trkpt lat="47.98418" lon="6.56327">
        <ele>702</ele>
        <time>2018-09-13T06:41:55.000Z</time>
      </trkpt>
      <trkpt lat="47.98416" lon="6.56328">
        <ele>702</ele>
        <time>2018-09-13T06:41:56.000Z</time>
      </trkpt>
      <trkpt lat="47.98415" lon="6.5633">
        <ele>702</ele>
        <time>2018-09-13T06:41:57.000Z</time>
      </trkpt>
      <trkpt lat="47.98413" lon="6.56331">
        <ele>702</ele>
        <time>2018-09-13T06:41:58.000Z</time>
      </trkpt>
      <trkpt lat="47.98412" lon="6.56332">
        <ele>703</ele>
        <time>2018-09-13T06:41:59.000Z</time>
      </trkpt>
      <trkpt lat="47.98411" lon="6.56334">
        <ele>703</ele>
        <time>2018-09-13T06:42:00.000Z</time>
      </trkpt>
      <trkpt lat="47.9841" lon="6.56335">
        <ele>703</ele>
        <time>2018-09-13T06:42:01.000Z</time>
      </trkpt>
      <trkpt lat="47.98409" lon="6.56336">
        <ele>703</ele>
        <time>2018-09-13T06:42:02.000Z</time>
      </trkpt>
      <trkpt lat="47.98407" lon="6.56337">
        <ele>703</ele>
        <time>2018-09-13T06:42:03.000Z</time>
      </trkpt>
      <trkpt lat="47.98406" lon="6.56339">
        <ele>703</ele>
        <time>2018-09-13T06:42:04.000Z</time>
      </trkpt>
      <trkpt lat="47.98404" lon="6.5634">
        <ele>703</ele>
        <time>2018-09-13T06:42:05.000Z</time>
      </trkpt>
      <trkpt lat="47.98403" lon="6.56341">
        <ele>704</ele>
        <time>2018-09-13T06:42:06.000Z</time>
      </trkpt>
      <trkpt lat="47.98402" lon="6.56342">
        <ele>704</ele>
        <time>2018-09-13T06:42:07.000Z</time>
      </trkpt>
      <trkpt lat="47.98401" lon="6.56343">
        <ele>704</ele>
        <time>2018-09-13T06:42:08.000Z</time>
      </trkpt>
      <trkpt lat="47.984" lon="6.56345">
        <ele>704</ele>
        <time>2018-09-13T06:42:09.000Z</time>
      </trkpt>
      <trkpt lat="47.98398" lon="6.56346">
        <ele>704</ele>
        <time>2018-09-13T06:42:10.000Z</time>
      </trkpt>
      <trkpt lat="47.98397" lon="6.56347">
        <ele>704</ele>
        <time>2018-09-13T06:42:11.000Z</time>
      </trkpt>
      <trkpt lat="47.98395" lon="6.56348">
        <ele>704</ele>
        <time>2018-09-13T06:42:12.000Z</time>
      </trkpt>
      <trkpt lat="47.98393" lon="6.5635">
        <ele>704</ele>
        <time>2018-09-13T06:42:13.000Z</time>
      </trkpt>
      <trkpt lat="47.98392" lon="6.56351">
        <ele>704</ele>
        <time>2018-09-13T06:42:14.000Z</time>
      </trkpt>
      <trkpt lat="47.98391" lon="6.56352">
        <ele>704</ele>
        <time>2018-09-13T06:42:15.000Z</time>
      </trkpt>
      <trkpt lat="47.98389" lon="6.56353">
        <ele>704</ele>
        <time>2018-09-13T06:42:16.000Z</time>
      </trkpt>
      <trkpt lat="47.98388" lon="6.56355">
        <ele>704</ele>
        <time>2018-09-13T06:42:17.000Z</time>
      </trkpt>
      <trkpt lat="47.98387" lon="6.56356">
        <ele>704</ele>
        <time>2018-09-13T06:42:18.000Z</time>
      </trkpt>
      <trkpt lat="47.98385" lon="6.56358">
        <ele>704</ele>
        <time>2018-09-13T06:42:19.000Z</time>
      </trkpt>
      <trkpt lat="47.98384" lon="6.5636">
        <ele>704</ele>
        <time>2018-09-13T06:42:20.000Z</time>
      </trkpt>
      <trkpt lat="47.98382" lon="6.56361">
        <ele>705</ele>
        <time>2018-09-13T06:42:21.000Z</time>
      </trkpt>
      <trkpt lat="47.98381" lon="6.56363">
        <ele>705</ele>
        <time>2018-09-13T06:42:22.000Z</time>
      </trkpt>
      <trkpt lat="47.9838" lon="6.56364">
        <ele>705</ele>
        <time>2018-09-13T06:42:23.000Z</time>
      </trkpt>
      <trkpt lat="47.98379" lon="6.56366">
        <ele>705</ele>
        <time>2018-09-13T06:42:24.000Z</time>
      </trkpt>
      <trkpt lat="47.98377" lon="6.56368">
        <ele>705</ele>
        <time>2018-09-13T06:42:25.000Z</time>
      </trkpt>
      <trkpt lat="47.98376" lon="6.56369">
        <ele>705</ele>
        <time>2018-09-13T06:42:26.000Z</time>
      </trkpt>
      <trkpt lat="47.98374" lon="6.5637">
        <ele>705</ele>
        <time>2018-09-13T06:42:27.000Z</time>
      </trkpt>
      <trkpt lat="47.98373" lon="6.56372">
        <ele>705</ele>
        <time>2018-09-13T06:42:28.000Z</time>
      </trkpt>
      <trkpt lat="47.98372" lon="6.56373">
        <ele>705</ele>
        <time>2018-09-13T06:42:29.000Z</time>
      </trkpt>
      <trkpt lat="47.98371" lon="6.56375">
        <ele>705</ele>
        <time>2018-09-13T06:42:30.000Z</time>
      </trkpt>
      <trkpt lat="47.98369" lon="6.56376">
        <ele>705</ele>
        <time>2018-09-13T06:42:31.000Z</time>
      </trkpt>
      <trkpt lat="47.98368" lon="6.56378">
        <ele>705</ele>
        <time>2018-09-13T06:42:32.000Z</time>
      </trkpt>
      <trkpt lat="47.98367" lon="6.56379">
        <ele>705</ele>
        <time>2018-09-13T06:42:33.000Z</time>
      </trkpt>
      <trkpt lat="47.98366" lon="6.56381">
        <ele>705</ele>
        <time>2018-09-13T06:42:34.000Z</time>
      </trkpt>
      <trkpt lat="47.98365" lon="6.56383">
        <ele>705</ele>
        <time>2018-09-13T06:42:35.000Z</time>
      </trkpt>
      <trkpt lat="47.98364" lon="6.56384">
        <ele>705</ele>
        <time>2018-09-13T06:42:36.000Z</time>
      </trkpt>
      <trkpt lat="47.98363" lon="6.56385">
        <ele>705</ele>
        <time>2018-09-13T06:42:37.000Z</time>
      </trkpt>
      <trkpt lat="47.98362" lon="6.56387">
        <ele>705</ele>
        <time>2018-09-13T06:42:38.000Z</time>
      </trkpt>
      <trkpt lat="47.9836" lon="6.56389">
        <ele>705</ele>
        <time>2018-09-13T06:42:39.000Z</time>
      </trkpt>
      <trkpt lat="47.98359" lon="6.56391">
        <ele>705</ele>
        <time>2018-09-13T06:42:40.000Z</time>
      </trkpt>
      <trkpt lat="47.98358" lon="6.56392">
        <ele>706</ele>
        <time>2018-09-13T06:42:41.000Z</time>
      </trkpt>
      <trkpt lat="47.98357" lon="6.56394">
        <ele>706</ele>
        <time>2018-09-13T06:42:42.000Z</time>
      </trkpt>
      <trkpt lat="47.98355" lon="6.56396">
        <ele>706</ele>
        <time>2018-09-13T06:42:43.000Z</time>
      </trkpt>
      <trkpt lat="47.98354" lon="6.56398">
        <ele>706</ele>
        <time>2018-09-13T06:42:44.000Z</time>
      </trkpt>
      <trkpt lat="47.98353" lon="6.564">
        <ele>706</ele>
        <time>2018-09-13T06:42:45.000Z</time>
      </trkpt>
      <trkpt lat="47.98352" lon="6.56402">
        <ele>706</ele>
        <time>2018-09-13T06:42:46.000Z</time>
      </trkpt>
      <trkpt lat="47.98351" lon="6.56404">
        <ele>706</ele>
        <time>2018-09-13T06:42:47.000Z</time>
      </trkpt>
      <trkpt lat="47.9835" lon="6.56406">
        <ele>706</ele>
        <time>2018-09-13T06:42:48.000Z</time>
      </trkpt>
      <trkpt lat="47.98349" lon="6.56408">
        <ele>706</ele>
        <time>2018-09-13T06:42:49.000Z</time>
      </trkpt>
      <trkpt lat="47.98348" lon="6.5641">
        <ele>706</ele>
        <time>2018-09-13T06:42:50.000Z</time>
      </trkpt>
      <trkpt lat="47.98347" lon="6.56412">
        <ele>706</ele>
        <time>2018-09-13T06:42:51.000Z</time>
      </trkpt>
      <trkpt lat="47.98346" lon="6.56414">
        <ele>706</ele>
        <time>2018-09-13T06:42:52.000Z</time>
      </trkpt>
      <trkpt lat="47.98345" lon="6.56416">
        <ele>706</ele>
        <time>2018-09-13T06:42:53.000Z</time>
      </trkpt>
      <trkpt lat="47.98344" lon="6.56418">
        <ele>706</ele>
        <time>2018-09-13T06:42:54.000Z</time>
      </trkpt>
      <trkpt lat="47.98344" lon="6.5642">
        <ele>706</ele>
        <time>2018-09-13T06:42:55.000Z</time>
      </trkpt>
      <trkpt lat="47.98343" lon="6.56421">
        <ele>707</ele>
        <time>2018-09-13T06:42:56.000Z</time>
      </trkpt>
      <trkpt lat="47.98342" lon="6.56423">
        <ele>707</ele>
        <time>2018-09-13T06:42:57.000Z</time>
      </trkpt>
      <trkpt lat="47.98341" lon="6.56425">
        <ele>707</ele>
        <time>2018-09-13T06:42:58.000Z</time>
      </trkpt>
      <trkpt lat="47.9834" lon="6.56426">
        <ele>707</ele>
        <time>2018-09-13T06:42:59.000Z</time>
      </trkpt>
      <trkpt lat="47.98339" lon="6.56428">
        <ele>707</ele>
        <time>2018-09-13T06:43:00.000Z</time>
      </trkpt>
      <trkpt lat="47.98338" lon="6.5643">
        <ele>707</ele>
        <time>2018-09-13T06:43:01.000Z</time>
      </trkpt>
      <trkpt lat="47.98337" lon="6.56431">
        <ele>707</ele>
        <time>2018-09-13T06:43:02.000Z</time>
      </trkpt>
      <trkpt lat="47.98336" lon="6.56433">
        <ele>707</ele>
        <time>2018-09-13T06:43:03.000Z</time>
      </trkpt>
      <trkpt lat="47.98335" lon="6.56435">
        <ele>708</ele>
        <time>2018-09-13T06:43:04.000Z</time>
      </trkpt>
      <trkpt lat="47.98334" lon="6.56437">
        <ele>708</ele>
        <time>2018-09-13T06:43:05.000Z</time>
      </trkpt>
      <trkpt lat="47.98332" lon="6.56438">
        <ele>708</ele>
        <time>2018-09-13T06:43:06.000Z</time>
      </trkpt>
      <trkpt lat="47.98332" lon="6.5644">
        <ele>708</ele>
        <time>2018-09-13T06:43:07.000Z</time>
      </trkpt>
      <trkpt lat="47.98331" lon="6.56442">
        <ele>708</ele>
        <time>2018-09-13T06:43:08.000Z</time>
      </trkpt>
      <trkpt lat="47.98329" lon="6.56444">
        <ele>708</ele>
        <time>2018-09-13T06:43:09.000Z</time>
      </trkpt>
      <trkpt lat="47.98329" lon="6.56446">
        <ele>708</ele>
        <time>2018-09-13T06:43:10.000Z</time>
      </trkpt>
      <trkpt lat="47.98328" lon="6.56449">
        <ele>708</ele>
        <time>2018-09-13T06:43:11.000Z</time>
      </trkpt>
      <trkpt lat="47.98327" lon="6.56451">
        <ele>708</ele>
        <time>2018-09-13T06:43:12.000Z</time>
      </trkpt>
      <trkpt lat="47.98326" lon="6.56453">
        <ele>708</ele>
        <time>2018-09-13T06:43:13.000Z</time>
      </trkpt>
      <trkpt lat="47.98326" lon="6.56455">
        <ele>708</ele>
        <time>2018-09-13T06:43:14.000Z</time>
      </trkpt>
      <trkpt lat="47.98325" lon="6.56458">
        <ele>708</ele>
        <time>2018-09-13T06:43:15.000Z</time>
      </trkpt>
      <trkpt lat="47.98324" lon="6.5646">
        <ele>709</ele>
        <time>2018-09-13T06:43:16.000Z</time>
      </trkpt>
      <trkpt lat="47.98324" lon="6.56462">
        <ele>709</ele>
        <time>2018-09-13T06:43:17.000Z</time>
      </trkpt>
      <trkpt lat="47.98323" lon="6.56464">
        <ele>709</ele>
        <time>2018-09-13T06:43:18.000Z</time>
      </trkpt>
      <trkpt lat="47.98322" lon="6.56466">
        <ele>709</ele>
        <time>2018-09-13T06:43:19.000Z</time>
      </trkpt>
      <trkpt lat="47.98321" lon="6.56468">
        <ele>709</ele>
        <time>2018-09-13T06:43:20.000Z</time>
      </trkpt>
      <trkpt lat="47.98321" lon="6.5647">
        <ele>709</ele>
        <time>2018-09-13T06:43:21.000Z</time>
      </trkpt>
      <trkpt lat="47.9832" lon="6.56472">
        <ele>709</ele>
        <time>2018-09-13T06:43:22.000Z</time>
      </trkpt>
      <trkpt lat="47.98319" lon="6.56474">
        <ele>709</ele>
        <time>2018-09-13T06:43:23.000Z</time>
      </trkpt>
      <trkpt lat="47.98319" lon="6.56476">
        <ele>709</ele>
        <time>2018-09-13T06:43:24.000Z</time>
      </trkpt>
      <trkpt lat="47.98318" lon="6.56479">
        <ele>710</ele>
        <time>2018-09-13T06:43:25.000Z</time>
      </trkpt>
      <trkpt lat="47.98317" lon="6.56481">
        <ele>710</ele>
        <time>2018-09-13T06:43:26.000Z</time>
      </trkpt>
      <trkpt lat="47.98316" lon="6.56483">
        <ele>710</ele>
        <time>2018-09-13T06:43:27.000Z</time>
      </trkpt>
      <trkpt lat="47.98315" lon="6.56485">
        <ele>710</ele>
        <time>2018-09-13T06:43:28.000Z</time>
      </trkpt>
      <trkpt lat="47.98314" lon="6.56487">
        <ele>710</ele>
        <time>2018-09-13T06:43:29.000Z</time>
      </trkpt>
      <trkpt lat="47.98314" lon="6.56489">
        <ele>710</ele>
        <time>2018-09-13T06:43:30.000Z</time>
      </trkpt>
      <trkpt lat="47.98313" lon="6.56491">
        <ele>710</ele>
        <time>2018-09-13T06:43:31.000Z</time>
      </trkpt>
      <trkpt lat="47.98312" lon="6.56494">
        <ele>710</ele>
        <time>2018-09-13T06:43:32.000Z</time>
      </trkpt>
      <trkpt lat="47.98312" lon="6.56497">
        <ele>711</ele>
        <time>2018-09-13T06:43:33.000Z</time>
      </trkpt>
      <trkpt lat="47.98311" lon="6.56499">
        <ele>711</ele>
        <time>2018-09-13T06:43:34.000Z</time>
      </trkpt>
      <trkpt lat="47.98311" lon="6.56502">
        <ele>711</ele>
        <time>2018-09-13T06:43:35.000Z</time>
      </trkpt>
      <trkpt lat="47.98311" lon="6.56505">
        <ele>711</ele>
        <time>2018-09-13T06:43:36.000Z</time>
      </trkpt>
      <trkpt lat="47.9831" lon="6.56508">
        <ele>711</ele>
        <time>2018-09-13T06:43:37.000Z</time>
      </trkpt>
      <trkpt lat="47.9831" lon="6.5651">
        <ele>711</ele>
        <time>2018-09-13T06:43:38.000Z</time>
      </trkpt>
      <trkpt lat="47.98309" lon="6.56513">
        <ele>711</ele>
        <time>2018-09-13T06:43:39.000Z</time>
      </trkpt>
      <trkpt lat="47.98309" lon="6.56516">
        <ele>711</ele>
        <time>2018-09-13T06:43:40.000Z</time>
      </trkpt>
      <trkpt lat="47.98309" lon="6.56519">
        <ele>712</ele>
        <time>2018-09-13T06:43:41.000Z</time>
      </trkpt>
      <trkpt lat="47.98308" lon="6.56522">
        <ele>712</ele>
        <time>2018-09-13T06:43:42.000Z</time>
      </trkpt>
      <trkpt lat="47.98308" lon="6.56525">
        <ele>712</ele>
        <time>2018-09-13T06:43:43.000Z</time>
      </trkpt>
      <trkpt lat="47.98307" lon="6.56527">
        <ele>712</ele>
        <time>2018-09-13T06:43:44.000Z</time>
      </trkpt>
      <trkpt lat="47.98306" lon="6.56529">
        <ele>712</ele>
        <time>2018-09-13T06:43:45.000Z</time>
      </trkpt>
      <trkpt lat="47.98305" lon="6.56531">
        <ele>712</ele>
        <time>2018-09-13T06:43:46.000Z</time>
      </trkpt>
      <trkpt lat="47.98305" lon="6.56533">
        <ele>712</ele>
        <time>2018-09-13T06:43:47.000Z</time>
      </trkpt>
      <trkpt lat="47.98304" lon="6.56535">
        <ele>712</ele>
        <time>2018-09-13T06:43:48.000Z</time>
      </trkpt>
      <trkpt lat="47.98303" lon="6.56537">
        <ele>712</ele>
        <time>2018-09-13T06:43:49.000Z</time>
      </trkpt>
      <trkpt lat="47.98303" lon="6.56538">
        <ele>712</ele>
        <time>2018-09-13T06:43:50.000Z</time>
      </trkpt>
      <trkpt lat="47.98302" lon="6.5654">
        <ele>712</ele>
        <time>2018-09-13T06:43:51.000Z</time>
      </trkpt>
      <trkpt lat="47.98301" lon="6.56541">
        <ele>713</ele>
        <time>2018-09-13T06:43:52.000Z</time>
      </trkpt>
      <trkpt lat="47.983" lon="6.56543">
        <ele>713</ele>
        <time>2018-09-13T06:43:53.000Z</time>
      </trkpt>
      <trkpt lat="47.98298" lon="6.56544">
        <ele>713</ele>
        <time>2018-09-13T06:43:54.000Z</time>
      </trkpt>
      <trkpt lat="47.98297" lon="6.56546">
        <ele>713</ele>
        <time>2018-09-13T06:43:55.000Z</time>
      </trkpt>
      <trkpt lat="47.98296" lon="6.56547">
        <ele>713</ele>
        <time>2018-09-13T06:43:56.000Z</time>
      </trkpt>
      <trkpt lat="47.98295" lon="6.56549">
        <ele>713</ele>
        <time>2018-09-13T06:43:57.000Z</time>
      </trkpt>
      <trkpt lat="47.98295" lon="6.5655">
        <ele>713</ele>
        <time>2018-09-13T06:43:58.000Z</time>
      </trkpt>
      <trkpt lat="47.98294" lon="6.56552">
        <ele>713</ele>
        <time>2018-09-13T06:43:59.000Z</time>
      </trkpt>
      <trkpt lat="47.98293" lon="6.56554">
        <ele>713</ele>
        <time>2018-09-13T06:44:00.000Z</time>
      </trkpt>
      <trkpt lat="47.98292" lon="6.56555">
        <ele>713</ele>
        <time>2018-09-13T06:44:01.000Z</time>
      </trkpt>
      <trkpt lat="47.9829" lon="6.56557">
        <ele>713</ele>
        <time>2018-09-13T06:44:02.000Z</time>
      </trkpt>
      <trkpt lat="47.9829" lon="6.56559">
        <ele>713</ele>
        <time>2018-09-13T06:44:03.000Z</time>
      </trkpt>
      <trkpt lat="47.98289" lon="6.56561">
        <ele>713</ele>
        <time>2018-09-13T06:44:04.000Z</time>
      </trkpt>
      <trkpt lat="47.98287" lon="6.56562">
        <ele>714</ele>
        <time>2018-09-13T06:44:05.000Z</time>
      </trkpt>
      <trkpt lat="47.98286" lon="6.56564">
        <ele>714</ele>
        <time>2018-09-13T06:44:06.000Z</time>
      </trkpt>
      <trkpt lat="47.98285" lon="6.56566">
        <ele>714</ele>
        <time>2018-09-13T06:44:07.000Z</time>
      </trkpt>
      <trkpt lat="47.98285" lon="6.56568">
        <ele>714</ele>
        <time>2018-09-13T06:44:08.000Z</time>
      </trkpt>
      <trkpt lat="47.98284" lon="6.5657">
        <ele>714</ele>
        <time>2018-09-13T06:44:09.000Z</time>
      </trkpt>
      <trkpt lat="47.98283" lon="6.56571">
        <ele>714</ele>
        <time>2018-09-13T06:44:10.000Z</time>
      </trkpt>
      <trkpt lat="47.98282" lon="6.56573">
        <ele>714</ele>
        <time>2018-09-13T06:44:11.000Z</time>
      </trkpt>
      <trkpt lat="47.98282" lon="6.56575">
        <ele>714</ele>
        <time>2018-09-13T06:44:12.000Z</time>
      </trkpt>
      <trkpt lat="47.98281" lon="6.56577">
        <ele>714</ele>
        <time>2018-09-13T06:44:13.000Z</time>
      </trkpt>
      <trkpt lat="47.9828" lon="6.56579">
        <ele>714</ele>
        <time>2018-09-13T06:44:14.000Z</time>
      </trkpt>
      <trkpt lat="47.9828" lon="6.56581">
        <ele>714</ele>
        <time>2018-09-13T06:44:15.000Z</time>
      </trkpt>
      <trkpt lat="47.98279" lon="6.56583">
        <ele>714</ele>
        <time>2018-09-13T06:44:16.000Z</time>
      </trkpt>
      <trkpt lat="47.98278" lon="6.56584">
        <ele>714</ele>
        <time>2018-09-13T06:44:17.000Z</time>
      </trkpt>
      <trkpt lat="47.98277" lon="6.56586">
        <ele>715</ele>
        <time>2018-09-13T06:44:18.000Z</time>
      </trkpt>
      <trkpt lat="47.98276" lon="6.56587">
        <ele>715</ele>
        <time>2018-09-13T06:44:19.000Z</time>
      </trkpt>
      <trkpt lat="47.98275" lon="6.56589">
        <ele>715</ele>
        <time>2018-09-13T06:44:20.000Z</time>
      </trkpt>
      <trkpt lat="47.98274" lon="6.56591">
        <ele>715</ele>
        <time>2018-09-13T06:44:21.000Z</time>
      </trkpt>
      <trkpt lat="47.98273" lon="6.56593">
        <ele>715</ele>
        <time>2018-09-13T06:44:22.000Z</time>
      </trkpt>
      <trkpt lat="47.98272" lon="6.56595">
        <ele>715</ele>
        <time>2018-09-13T06:44:23.000Z</time>
      </trkpt>
      <trkpt lat="47.98271" lon="6.56597">
        <ele>715</ele>
        <time>2018-09-13T06:44:24.000Z</time>
      </trkpt>
      <trkpt lat="47.9827" lon="6.56599">
        <ele>715</ele>
        <time>2018-09-13T06:44:25.000Z</time>
      </trkpt>
      <trkpt lat="47.98269" lon="6.56601">
        <ele>715</ele>
        <time>2018-09-13T06:44:26.000Z</time>
      </trkpt>
      <trkpt lat="47.98269" lon="6.56603">
        <ele>715</ele>
        <time>2018-09-13T06:44:27.000Z</time>
      </trkpt>
      <trkpt lat="47.98268" lon="6.56605">
        <ele>715</ele>
        <time>2018-09-13T06:44:28.000Z</time>
      </trkpt>
      <trkpt lat="47.98268" lon="6.56607">
        <ele>715</ele>
        <time>2018-09-13T06:44:29.000Z</time>
      </trkpt>
      <trkpt lat="47.98267" lon="6.56609">
        <ele>715</ele>
        <time>2018-09-13T06:44:30.000Z</time>
      </trkpt>
      <trkpt lat="47.98267" lon="6.56611">
        <ele>715</ele>
        <time>2018-09-13T06:44:31.000Z</time>
      </trkpt>
      <trkpt lat="47.98266" lon="6.56613">
        <ele>716</ele>
        <time>2018-09-13T06:44:32.000Z</time>
      </trkpt>
      <trkpt lat="47.98265" lon="6.56615">
        <ele>716</ele>
        <time>2018-09-13T06:44:33.000Z</time>
      </trkpt>
      <trkpt lat="47.98264" lon="6.56616">
        <ele>716</ele>
        <time>2018-09-13T06:44:34.000Z</time>
      </trkpt>
      <trkpt lat="47.98263" lon="6.56618">
        <ele>716</ele>
        <time>2018-09-13T06:44:35.000Z</time>
      </trkpt>
      <trkpt lat="47.98263" lon="6.5662">
        <ele>716</ele>
        <time>2018-09-13T06:44:36.000Z</time>
      </trkpt>
      <trkpt lat="47.98262" lon="6.56622">
        <ele>716</ele>
        <time>2018-09-13T06:44:37.000Z</time>
      </trkpt>
      <trkpt lat="47.98261" lon="6.56624">
        <ele>716</ele>
        <time>2018-09-13T06:44:38.000Z</time>
      </trkpt>
      <trkpt lat="47.9826" lon="6.56626">
        <ele>716</ele>
        <time>2018-09-13T06:44:39.000Z</time>
      </trkpt>
      <trkpt lat="47.98259" lon="6.56629">
        <ele>716</ele>
        <time>2018-09-13T06:44:40.000Z</time>
      </trkpt>
      <trkpt lat="47.98258" lon="6.56631">
        <ele>716</ele>
        <time>2018-09-13T06:44:41.000Z</time>
      </trkpt>
      <trkpt lat="47.98257" lon="6.56634">
        <ele>716</ele>
        <time>2018-09-13T06:44:42.000Z</time>
      </trkpt>
      <trkpt lat="47.98256" lon="6.56636">
        <ele>716</ele>
        <time>2018-09-13T06:44:43.000Z</time>
      </trkpt>
      <trkpt lat="47.98255" lon="6.56639">
        <ele>717</ele>
        <time>2018-09-13T06:44:44.000Z</time>
      </trkpt>
      <trkpt lat="47.98255" lon="6.56641">
        <ele>717</ele>
        <time>2018-09-13T06:44:45.000Z</time>
      </trkpt>
      <trkpt lat="47.98254" lon="6.56644">
        <ele>717</ele>
        <time>2018-09-13T06:44:46.000Z</time>
      </trkpt>
      <trkpt lat="47.98253" lon="6.56646">
        <ele>717</ele>
        <time>2018-09-13T06:44:47.000Z</time>
      </trkpt>
      <trkpt lat="47.98252" lon="6.56648">
        <ele>717</ele>
        <time>2018-09-13T06:44:48.000Z</time>
      </trkpt>
      <trkpt lat="47.98252" lon="6.56651">
        <ele>717</ele>
        <time>2018-09-13T06:44:49.000Z</time>
      </trkpt>
      <trkpt lat="47.98251" lon="6.56652">
        <ele>717</ele>
        <time>2018-09-13T06:44:50.000Z</time>
      </trkpt>
      <trkpt lat="47.9825" lon="6.56654">
        <ele>717</ele>
        <time>2018-09-13T06:44:51.000Z</time>
      </trkpt>
      <trkpt lat="47.9825" lon="6.56656">
        <ele>717</ele>
        <time>2018-09-13T06:44:52.000Z</time>
      </trkpt>
      <trkpt lat="47.98249" lon="6.56658">
        <ele>718</ele>
        <time>2018-09-13T06:44:53.000Z</time>
      </trkpt>
      <trkpt lat="47.98248" lon="6.56659">
        <ele>718</ele>
        <time>2018-09-13T06:44:54.000Z</time>
      </trkpt>
      <trkpt lat="47.98247" lon="6.56661">
        <ele>718</ele>
        <time>2018-09-13T06:44:55.000Z</time>
      </trkpt>
      <trkpt lat="47.98246" lon="6.56663">
        <ele>718</ele>
        <time>2018-09-13T06:44:56.000Z</time>
      </trkpt>
      <trkpt lat="47.98244" lon="6.56664">
        <ele>718</ele>
        <time>2018-09-13T06:44:57.000Z</time>
      </trkpt>
      <trkpt lat="47.98243" lon="6.56666">
        <ele>718</ele>
        <time>2018-09-13T06:44:58.000Z</time>
      </trkpt>
      <trkpt lat="47.98242" lon="6.56667">
        <ele>718</ele>
        <time>2018-09-13T06:44:59.000Z</time>
      </trkpt>
      <trkpt lat="47.9824" lon="6.56668">
        <ele>718</ele>
        <time>2018-09-13T06:45:00.000Z</time>
      </trkpt>
      <trkpt lat="47.98239" lon="6.56669">
        <ele>718</ele>
        <time>2018-09-13T06:45:01.000Z</time>
      </trkpt>
      <trkpt lat="47.98237" lon="6.5667">
        <ele>719</ele>
        <time>2018-09-13T06:45:02.000Z</time>
      </trkpt>
      <trkpt lat="47.98236" lon="6.56671">
        <ele>719</ele>
        <time>2018-09-13T06:45:03.000Z</time>
      </trkpt>
      <trkpt lat="47.98235" lon="6.56672">
        <ele>719</ele>
        <time>2018-09-13T06:45:04.000Z</time>
      </trkpt>
      <trkpt lat="47.98233" lon="6.56673">
        <ele>719</ele>
        <time>2018-09-13T06:45:05.000Z</time>
      </trkpt>
      <trkpt lat="47.98232" lon="6.56673">
        <ele>720</ele>
        <time>2018-09-13T06:45:06.000Z</time>
      </trkpt>
      <trkpt lat="47.9823" lon="6.56674">
        <ele>720</ele>
        <time>2018-09-13T06:45:07.000Z</time>
      </trkpt>
      <trkpt lat="47.98229" lon="6.56675">
        <ele>720</ele>
        <time>2018-09-13T06:45:08.000Z</time>
      </trkpt>
      <trkpt lat="47.98228" lon="6.56676">
        <ele>720</ele>
        <time>2018-09-13T06:45:09.000Z</time>
      </trkpt>
      <trkpt lat="47.98227" lon="6.56676">
        <ele>720</ele>
        <time>2018-09-13T06:45:10.000Z</time>
      </trkpt>
      <trkpt lat="47.98226" lon="6.56677">
        <ele>720</ele>
        <time>2018-09-13T06:45:11.000Z</time>
      </trkpt>
      <trkpt lat="47.98225" lon="6.56678">
        <ele>721</ele>
        <time>2018-09-13T06:45:12.000Z</time>
      </trkpt>
      <trkpt lat="47.98223" lon="6.56679">
        <ele>721</ele>
        <time>2018-09-13T06:45:13.000Z</time>
      </trkpt>
      <trkpt lat="47.98222" lon="6.5668">
        <ele>721</ele>
        <time>2018-09-13T06:45:14.000Z</time>
      </trkpt>
      <trkpt lat="47.9822" lon="6.56681">
        <ele>721</ele>
        <time>2018-09-13T06:45:15.000Z</time>
      </trkpt>
      <trkpt lat="47.98219" lon="6.56682">
        <ele>721</ele>
        <time>2018-09-13T06:45:16.000Z</time>
      </trkpt>
      <trkpt lat="47.98218" lon="6.56684">
        <ele>721</ele>
        <time>2018-09-13T06:45:17.000Z</time>
      </trkpt>
      <trkpt lat="47.98217" lon="6.56686">
        <ele>721</ele>
        <time>2018-09-13T06:45:18.000Z</time>
      </trkpt>
      <trkpt lat="47.98216" lon="6.56687">
        <ele>721</ele>
        <time>2018-09-13T06:45:19.000Z</time>
      </trkpt>
      <trkpt lat="47.98215" lon="6.56688">
        <ele>721</ele>
        <time>2018-09-13T06:45:20.000Z</time>
      </trkpt>
      <trkpt lat="47.98213" lon="6.5669">
        <ele>721</ele>
        <time>2018-09-13T06:45:21.000Z</time>
      </trkpt>
      <trkpt lat="47.98212" lon="6.56691">
        <ele>721</ele>
        <time>2018-09-13T06:45:22.000Z</time>
      </trkpt>
      <trkpt lat="47.9821" lon="6.56693">
        <ele>722</ele>
        <time>2018-09-13T06:45:23.000Z</time>
      </trkpt>
      <trkpt lat="47.98209" lon="6.56694">
        <ele>722</ele>
        <time>2018-09-13T06:45:24.000Z</time>
      </trkpt>
      <trkpt lat="47.98207" lon="6.56695">
        <ele>722</ele>
        <time>2018-09-13T06:45:25.000Z</time>
      </trkpt>
      <trkpt lat="47.98206" lon="6.56697">
        <ele>722</ele>
        <time>2018-09-13T06:45:26.000Z</time>
      </trkpt>
      <trkpt lat="47.98205" lon="6.56699">
        <ele>722</ele>
        <time>2018-09-13T06:45:27.000Z</time>
      </trkpt>
      <trkpt lat="47.98203" lon="6.567">
        <ele>722</ele>
        <time>2018-09-13T06:45:28.000Z</time>
      </trkpt>
      <trkpt lat="47.98202" lon="6.56702">
        <ele>722</ele>
        <time>2018-09-13T06:45:29.000Z</time>
      </trkpt>
      <trkpt lat="47.98201" lon="6.56704">
        <ele>722</ele>
        <time>2018-09-13T06:45:30.000Z</time>
      </trkpt>
      <trkpt lat="47.98199" lon="6.56705">
        <ele>722</ele>
        <time>2018-09-13T06:45:31.000Z</time>
      </trkpt>
      <trkpt lat="47.98198" lon="6.56707">
        <ele>722</ele>
        <time>2018-09-13T06:45:32.000Z</time>
      </trkpt>
      <trkpt lat="47.98197" lon="6.56709">
        <ele>722</ele>
        <time>2018-09-13T06:45:33.000Z</time>
      </trkpt>
      <trkpt lat="47.98196" lon="6.5671">
        <ele>723</ele>
        <time>2018-09-13T06:45:34.000Z</time>
      </trkpt>
      <trkpt lat="47.98194" lon="6.56712">
        <ele>723</ele>
        <time>2018-09-13T06:45:35.000Z</time>
      </trkpt>
      <trkpt lat="47.98193" lon="6.56714">
        <ele>723</ele>
        <time>2018-09-13T06:45:36.000Z</time>
      </trkpt>
      <trkpt lat="47.98192" lon="6.56715">
        <ele>723</ele>
        <time>2018-09-13T06:45:37.000Z</time>
      </trkpt>
      <trkpt lat="47.9819" lon="6.56717">
        <ele>723</ele>
        <time>2018-09-13T06:45:38.000Z</time>
      </trkpt>
      <trkpt lat="47.98189" lon="6.56719">
        <ele>723</ele>
        <time>2018-09-13T06:45:39.000Z</time>
      </trkpt>
      <trkpt lat="47.98187" lon="6.5672">
        <ele>723</ele>
        <time>2018-09-13T06:45:40.000Z</time>
      </trkpt>
      <trkpt lat="47.98186" lon="6.56722">
        <ele>723</ele>
        <time>2018-09-13T06:45:41.000Z</time>
      </trkpt>
      <trkpt lat="47.98184" lon="6.56724">
        <ele>723</ele>
        <time>2018-09-13T06:45:42.000Z</time>
      </trkpt>
      <trkpt lat="47.98183" lon="6.56725">
        <ele>723</ele>
        <time>2018-09-13T06:45:43.000Z</time>
      </trkpt>
      <trkpt lat="47.98182" lon="6.56727">
        <ele>723</ele>
        <time>2018-09-13T06:45:44.000Z</time>
      </trkpt>
      <trkpt lat="47.9818" lon="6.56728">
        <ele>724</ele>
        <time>2018-09-13T06:45:45.000Z</time>
      </trkpt>
      <trkpt lat="47.98179" lon="6.5673">
        <ele>724</ele>
        <time>2018-09-13T06:45:46.000Z</time>
      </trkpt>
      <trkpt lat="47.98178" lon="6.56731">
        <ele>724</ele>
        <time>2018-09-13T06:45:47.000Z</time>
      </trkpt>
      <trkpt lat="47.98176" lon="6.56732">
        <ele>724</ele>
        <time>2018-09-13T06:45:48.000Z</time>
      </trkpt>
      <trkpt lat="47.98175" lon="6.56734">
        <ele>724</ele>
        <time>2018-09-13T06:45:49.000Z</time>
      </trkpt>
      <trkpt lat="47.98174" lon="6.56735">
        <ele>724</ele>
        <time>2018-09-13T06:45:50.000Z</time>
      </trkpt>
      <trkpt lat="47.98173" lon="6.56736">
        <ele>724</ele>
        <time>2018-09-13T06:45:51.000Z</time>
      </trkpt>
      <trkpt lat="47.98171" lon="6.56738">
        <ele>724</ele>
        <time>2018-09-13T06:45:52.000Z</time>
      </trkpt>
      <trkpt lat="47.9817" lon="6.56739">
        <ele>724</ele>
        <time>2018-09-13T06:45:53.000Z</time>
      </trkpt>
      <trkpt lat="47.98169" lon="6.5674">
        <ele>724</ele>
        <time>2018-09-13T06:45:54.000Z</time>
      </trkpt>
      <trkpt lat="47.98167" lon="6.56741">
        <ele>724</ele>
        <time>2018-09-13T06:45:55.000Z</time>
      </trkpt>
      <trkpt lat="47.98166" lon="6.56743">
        <ele>724</ele>
        <time>2018-09-13T06:45:56.000Z</time>
      </trkpt>
      <trkpt lat="47.98165" lon="6.56744">
        <ele>725</ele>
        <time>2018-09-13T06:45:57.000Z</time>
      </trkpt>
      <trkpt lat="47.98164" lon="6.56746">
        <ele>725</ele>
        <time>2018-09-13T06:45:58.000Z</time>
      </trkpt>
      <trkpt lat="47.98162" lon="6.56746">
        <ele>725</ele>
        <time>2018-09-13T06:45:59.000Z</time>
      </trkpt>
      <trkpt lat="47.98161" lon="6.56747">
        <ele>725</ele>
        <time>2018-09-13T06:46:00.000Z</time>
      </trkpt>
      <trkpt lat="47.98159" lon="6.56748">
        <ele>725</ele>
        <time>2018-09-13T06:46:01.000Z</time>
      </trkpt>
      <trkpt lat="47.98158" lon="6.56749">
        <ele>725</ele>
        <time>2018-09-13T06:46:02.000Z</time>
      </trkpt>
      <trkpt lat="47.98157" lon="6.56749">
        <ele>726</ele>
        <time>2018-09-13T06:46:03.000Z</time>
      </trkpt>
      <trkpt lat="47.98155" lon="6.56749">
        <ele>726</ele>
        <time>2018-09-13T06:46:04.000Z</time>
      </trkpt>
      <trkpt lat="47.98153" lon="6.5675">
        <ele>726</ele>
        <time>2018-09-13T06:46:05.000Z</time>
      </trkpt>
      <trkpt lat="47.98152" lon="6.5675">
        <ele>726</ele>
        <time>2018-09-13T06:46:06.000Z</time>
      </trkpt>
      <trkpt lat="47.9815" lon="6.5675">
        <ele>726</ele>
        <time>2018-09-13T06:46:07.000Z</time>
      </trkpt>
      <trkpt lat="47.98148" lon="6.56751">
        <ele>726</ele>
        <time>2018-09-13T06:46:08.000Z</time>
      </trkpt>
      <trkpt lat="47.98146" lon="6.56751">
        <ele>726</ele>
        <time>2018-09-13T06:46:09.000Z</time>
      </trkpt>
      <trkpt lat="47.98145" lon="6.56751">
        <ele>726</ele>
        <time>2018-09-13T06:46:10.000Z</time>
      </trkpt>
      <trkpt lat="47.98143" lon="6.56751">
        <ele>727</ele>
        <time>2018-09-13T06:46:11.000Z</time>
      </trkpt>
      <trkpt lat="47.98141" lon="6.56751">
        <ele>727</ele>
        <time>2018-09-13T06:46:12.000Z</time>
      </trkpt>
      <trkpt lat="47.9814" lon="6.5675">
        <ele>727</ele>
        <time>2018-09-13T06:46:13.000Z</time>
      </trkpt>
      <trkpt lat="47.98138" lon="6.5675">
        <ele>727</ele>
        <time>2018-09-13T06:46:14.000Z</time>
      </trkpt>
      <trkpt lat="47.98136" lon="6.56749">
        <ele>727</ele>
        <time>2018-09-13T06:46:15.000Z</time>
      </trkpt>
      <trkpt lat="47.98135" lon="6.56749">
        <ele>727</ele>
        <time>2018-09-13T06:46:16.000Z</time>
      </trkpt>
      <trkpt lat="47.98133" lon="6.56749">
        <ele>727</ele>
        <time>2018-09-13T06:46:17.000Z</time>
      </trkpt>
      <trkpt lat="47.98132" lon="6.56748">
        <ele>727</ele>
        <time>2018-09-13T06:46:18.000Z</time>
      </trkpt>
      <trkpt lat="47.9813" lon="6.56748">
        <ele>728</ele>
        <time>2018-09-13T06:46:19.000Z</time>
      </trkpt>
      <trkpt lat="47.98128" lon="6.56748">
        <ele>728</ele>
        <time>2018-09-13T06:46:20.000Z</time>
      </trkpt>
      <trkpt lat="47.98126" lon="6.56747">
        <ele>728</ele>
        <time>2018-09-13T06:46:21.000Z</time>
      </trkpt>
      <trkpt lat="47.98124" lon="6.56747">
        <ele>728</ele>
        <time>2018-09-13T06:46:22.000Z</time>
      </trkpt>
      <trkpt lat="47.98122" lon="6.56747">
        <ele>728</ele>
        <time>2018-09-13T06:46:23.000Z</time>
      </trkpt>
      <trkpt lat="47.9812" lon="6.56746">
        <ele>728</ele>
        <time>2018-09-13T06:46:24.000Z</time>
      </trkpt>
      <trkpt lat="47.98118" lon="6.56746">
        <ele>728</ele>
        <time>2018-09-13T06:46:25.000Z</time>
      </trkpt>
      <trkpt lat="47.98116" lon="6.56746">
        <ele>728</ele>
        <time>2018-09-13T06:46:26.000Z</time>
      </trkpt>
      <trkpt lat="47.98115" lon="6.56746">
        <ele>728</ele>
        <time>2018-09-13T06:46:27.000Z</time>
      </trkpt>
      <trkpt lat="47.98113" lon="6.56746">
        <ele>728</ele>
        <time>2018-09-13T06:46:28.000Z</time>
      </trkpt>
      <trkpt lat="47.98111" lon="6.56745">
        <ele>729</ele>
        <time>2018-09-13T06:46:29.000Z</time>
      </trkpt>
      <trkpt lat="47.98109" lon="6.56746">
        <ele>729</ele>
        <time>2018-09-13T06:46:30.000Z</time>
      </trkpt>
      <trkpt lat="47.98108" lon="6.56746">
        <ele>729</ele>
        <time>2018-09-13T06:46:31.000Z</time>
      </trkpt>
      <trkpt lat="47.98106" lon="6.56746">
        <ele>729</ele>
        <time>2018-09-13T06:46:32.000Z</time>
      </trkpt>
      <trkpt lat="47.98104" lon="6.56747">
        <ele>729</ele>
        <time>2018-09-13T06:46:33.000Z</time>
      </trkpt>
      <trkpt lat="47.98103" lon="6.56748">
        <ele>729</ele>
        <time>2018-09-13T06:46:34.000Z</time>
      </trkpt>
      <trkpt lat="47.98102" lon="6.56748">
        <ele>729</ele>
        <time>2018-09-13T06:46:35.000Z</time>
      </trkpt>
      <trkpt lat="47.981" lon="6.56749">
        <ele>729</ele>
        <time>2018-09-13T06:46:36.000Z</time>
      </trkpt>
      <trkpt lat="47.98099" lon="6.5675">
        <ele>729</ele>
        <time>2018-09-13T06:46:37.000Z</time>
      </trkpt>
      <trkpt lat="47.98098" lon="6.5675">
        <ele>729</ele>
        <time>2018-09-13T06:46:38.000Z</time>
      </trkpt>
      <trkpt lat="47.98096" lon="6.56751">
        <ele>729</ele>
        <time>2018-09-13T06:46:39.000Z</time>
      </trkpt>
      <trkpt lat="47.98095" lon="6.56751">
        <ele>729</ele>
        <time>2018-09-13T06:46:40.000Z</time>
      </trkpt>
      <trkpt lat="47.98094" lon="6.56751">
        <ele>729</ele>
        <time>2018-09-13T06:46:41.000Z</time>
      </trkpt>
      <trkpt lat="47.98092" lon="6.56751">
        <ele>729</ele>
        <time>2018-09-13T06:46:42.000Z</time>
      </trkpt>
      <trkpt lat="47.98091" lon="6.56751">
        <ele>729</ele>
        <time>2018-09-13T06:46:43.000Z</time>
      </trkpt>
      <trkpt lat="47.98089" lon="6.56752">
        <ele>729</ele>
        <time>2018-09-13T06:46:44.000Z</time>
      </trkpt>
      <trkpt lat="47.98087" lon="6.56752">
        <ele>729</ele>
        <time>2018-09-13T06:46:45.000Z</time>
      </trkpt>
      <trkpt lat="47.98086" lon="6.56752">
        <ele>729</ele>
        <time>2018-09-13T06:46:46.000Z</time>
      </trkpt>
      <trkpt lat="47.98085" lon="6.56752">
        <ele>729</ele>
        <time>2018-09-13T06:46:47.000Z</time>
      </trkpt>
      <trkpt lat="47.98083" lon="6.56753">
        <ele>729</ele>
        <time>2018-09-13T06:46:48.000Z</time>
      </trkpt>
      <trkpt lat="47.98081" lon="6.56753">
        <ele>729</ele>
        <time>2018-09-13T06:46:49.000Z</time>
      </trkpt>
      <trkpt lat="47.9808" lon="6.56754">
        <ele>729</ele>
        <time>2018-09-13T06:46:50.000Z</time>
      </trkpt>
      <trkpt lat="47.98078" lon="6.56754">
        <ele>729</ele>
        <time>2018-09-13T06:46:51.000Z</time>
      </trkpt>
      <trkpt lat="47.98076" lon="6.56754">
        <ele>729</ele>
        <time>2018-09-13T06:46:52.000Z</time>
      </trkpt>
      <trkpt lat="47.98075" lon="6.56755">
        <ele>729</ele>
        <time>2018-09-13T06:46:53.000Z</time>
      </trkpt>
      <trkpt lat="47.98073" lon="6.56756">
        <ele>729</ele>
        <time>2018-09-13T06:46:54.000Z</time>
      </trkpt>
      <trkpt lat="47.98071" lon="6.56756">
        <ele>729</ele>
        <time>2018-09-13T06:46:55.000Z</time>
      </trkpt>
      <trkpt lat="47.9807" lon="6.56757">
        <ele>729</ele>
        <time>2018-09-13T06:46:56.000Z</time>
      </trkpt>
      <trkpt lat="47.98068" lon="6.56757">
        <ele>729</ele>
        <time>2018-09-13T06:46:57.000Z</time>
      </trkpt>
      <trkpt lat="47.98067" lon="6.56758">
        <ele>729</ele>
        <time>2018-09-13T06:46:58.000Z</time>
      </trkpt>
      <trkpt lat="47.98065" lon="6.56759">
        <ele>729</ele>
        <time>2018-09-13T06:46:59.000Z</time>
      </trkpt>
      <trkpt lat="47.98064" lon="6.56759">
        <ele>729</ele>
        <time>2018-09-13T06:47:00.000Z</time>
      </trkpt>
      <trkpt lat="47.98062" lon="6.56759">
        <ele>729</ele>
        <time>2018-09-13T06:47:01.000Z</time>
      </trkpt>
      <trkpt lat="47.9806" lon="6.56759">
        <ele>729</ele>
        <time>2018-09-13T06:47:02.000Z</time>
      </trkpt>
      <trkpt lat="47.98058" lon="6.5676">
        <ele>729</ele>
        <time>2018-09-13T06:47:03.000Z</time>
      </trkpt>
      <trkpt lat="47.98056" lon="6.5676">
        <ele>729</ele>
        <time>2018-09-13T06:47:04.000Z</time>
      </trkpt>
      <trkpt lat="47.98054" lon="6.56761">
        <ele>729</ele>
        <time>2018-09-13T06:47:05.000Z</time>
      </trkpt>
      <trkpt lat="47.98052" lon="6.56762">
        <ele>729</ele>
        <time>2018-09-13T06:47:06.000Z</time>
      </trkpt>
      <trkpt lat="47.98051" lon="6.56762">
        <ele>730</ele>
        <time>2018-09-13T06:47:07.000Z</time>
      </trkpt>
      <trkpt lat="47.98049" lon="6.56763">
        <ele>730</ele>
        <time>2018-09-13T06:47:08.000Z</time>
      </trkpt>
      <trkpt lat="47.98047" lon="6.56763">
        <ele>730</ele>
        <time>2018-09-13T06:47:09.000Z</time>
      </trkpt>
      <trkpt lat="47.98046" lon="6.56763">
        <ele>730</ele>
        <time>2018-09-13T06:47:10.000Z</time>
      </trkpt>
      <trkpt lat="47.98045" lon="6.56763">
        <ele>730</ele>
        <time>2018-09-13T06:47:11.000Z</time>
      </trkpt>
      <trkpt lat="47.98043" lon="6.56763">
        <ele>730</ele>
        <time>2018-09-13T06:47:12.000Z</time>
      </trkpt>
      <trkpt lat="47.98041" lon="6.56763">
        <ele>730</ele>
        <time>2018-09-13T06:47:13.000Z</time>
      </trkpt>
      <trkpt lat="47.9804" lon="6.56763">
        <ele>730</ele>
        <time>2018-09-13T06:47:14.000Z</time>
      </trkpt>
      <trkpt lat="47.98038" lon="6.56764">
        <ele>730</ele>
        <time>2018-09-13T06:47:15.000Z</time>
      </trkpt>
      <trkpt lat="47.98036" lon="6.56764">
        <ele>730</ele>
        <time>2018-09-13T06:47:16.000Z</time>
      </trkpt>
      <trkpt lat="47.98035" lon="6.56764">
        <ele>730</ele>
        <time>2018-09-13T06:47:17.000Z</time>
      </trkpt>
      <trkpt lat="47.98033" lon="6.56765">
        <ele>730</ele>
        <time>2018-09-13T06:47:18.000Z</time>
      </trkpt>
      <trkpt lat="47.98032" lon="6.56765">
        <ele>730</ele>
        <time>2018-09-13T06:47:19.000Z</time>
      </trkpt>
      <trkpt lat="47.9803" lon="6.56765">
        <ele>730</ele>
        <time>2018-09-13T06:47:20.000Z</time>
      </trkpt>
      <trkpt lat="47.98028" lon="6.56766">
        <ele>730</ele>
        <time>2018-09-13T06:47:21.000Z</time>
      </trkpt>
      <trkpt lat="47.98027" lon="6.56766">
        <ele>730</ele>
        <time>2018-09-13T06:47:22.000Z</time>
      </trkpt>
      <trkpt lat="47.98025" lon="6.56766">
        <ele>730</ele>
        <time>2018-09-13T06:47:23.000Z</time>
      </trkpt>
      <trkpt lat="47.98023" lon="6.56766">
        <ele>730</ele>
        <time>2018-09-13T06:47:24.000Z</time>
      </trkpt>
      <trkpt lat="47.98021" lon="6.56766">
        <ele>730</ele>
        <time>2018-09-13T06:47:25.000Z</time>
      </trkpt>
      <trkpt lat="47.98019" lon="6.56766">
        <ele>730</ele>
        <time>2018-09-13T06:47:26.000Z</time>
      </trkpt>
      <trkpt lat="47.98017" lon="6.56766">
        <ele>730</ele>
        <time>2018-09-13T06:47:27.000Z</time>
      </trkpt>
      <trkpt lat="47.98015" lon="6.56766">
        <ele>730</ele>
        <time>2018-09-13T06:47:28.000Z</time>
      </trkpt>
      <trkpt lat="47.98014" lon="6.56766">
        <ele>730</ele>
        <time>2018-09-13T06:47:29.000Z</time>
      </trkpt>
      <trkpt lat="47.98012" lon="6.56766">
        <ele>730</ele>
        <time>2018-09-13T06:47:30.000Z</time>
      </trkpt>
      <trkpt lat="47.9801" lon="6.56767">
        <ele>730</ele>
        <time>2018-09-13T06:47:31.000Z</time>
      </trkpt>
      <trkpt lat="47.98008" lon="6.56767">
        <ele>730</ele>
        <time>2018-09-13T06:47:32.000Z</time>
      </trkpt>
      <trkpt lat="47.98007" lon="6.56767">
        <ele>730</ele>
        <time>2018-09-13T06:47:33.000Z</time>
      </trkpt>
      <trkpt lat="47.98005" lon="6.56767">
        <ele>730</ele>
        <time>2018-09-13T06:47:34.000Z</time>
      </trkpt>
      <trkpt lat="47.98003" lon="6.56767">
        <ele>730</ele>
        <time>2018-09-13T06:47:35.000Z</time>
      </trkpt>
      <trkpt lat="47.98001" lon="6.56766">
        <ele>730</ele>
        <time>2018-09-13T06:47:36.000Z</time>
      </trkpt>
      <trkpt lat="47.97999" lon="6.56766">
        <ele>730</ele>
        <time>2018-09-13T06:47:37.000Z</time>
      </trkpt>
      <trkpt lat="47.97998" lon="6.56765">
        <ele>730</ele>
        <time>2018-09-13T06:47:38.000Z</time>
      </trkpt>
      <trkpt lat="47.97996" lon="6.56765">
        <ele>730</ele>
        <time>2018-09-13T06:47:39.000Z</time>
      </trkpt>
      <trkpt lat="47.97995" lon="6.56764">
        <ele>730</ele>
        <time>2018-09-13T06:47:40.000Z</time>
      </trkpt>
      <trkpt lat="47.97993" lon="6.56763">
        <ele>730</ele>
        <time>2018-09-13T06:47:41.000Z</time>
      </trkpt>
      <trkpt lat="47.97992" lon="6.56761">
        <ele>730</ele>
        <time>2018-09-13T06:47:42.000Z</time>
      </trkpt>
      <trkpt lat="47.9799" lon="6.5676">
        <ele>730</ele>
        <time>2018-09-13T06:47:43.000Z</time>
      </trkpt>
      <trkpt lat="47.97989" lon="6.56758">
        <ele>730</ele>
        <time>2018-09-13T06:47:44.000Z</time>
      </trkpt>
      <trkpt lat="47.97988" lon="6.56757">
        <ele>730</ele>
        <time>2018-09-13T06:47:45.000Z</time>
      </trkpt>
      <trkpt lat="47.97986" lon="6.56755">
        <ele>730</ele>
        <time>2018-09-13T06:47:46.000Z</time>
      </trkpt>
      <trkpt lat="47.97985" lon="6.56753">
        <ele>730</ele>
        <time>2018-09-13T06:47:47.000Z</time>
      </trkpt>
      <trkpt lat="47.97983" lon="6.56752">
        <ele>730</ele>
        <time>2018-09-13T06:47:48.000Z</time>
      </trkpt>
      <trkpt lat="47.97982" lon="6.5675">
        <ele>730</ele>
        <time>2018-09-13T06:47:49.000Z</time>
      </trkpt>
      <trkpt lat="47.97981" lon="6.56749">
        <ele>730</ele>
        <time>2018-09-13T06:47:50.000Z</time>
      </trkpt>
      <trkpt lat="47.97979" lon="6.56747">
        <ele>730</ele>
        <time>2018-09-13T06:47:51.000Z</time>
      </trkpt>
      <trkpt lat="47.97978" lon="6.56745">
        <ele>730</ele>
        <time>2018-09-13T06:47:52.000Z</time>
      </trkpt>
      <trkpt lat="47.97977" lon="6.56744">
        <ele>730</ele>
        <time>2018-09-13T06:47:53.000Z</time>
      </trkpt>
      <trkpt lat="47.97976" lon="6.56742">
        <ele>730</ele>
        <time>2018-09-13T06:47:54.000Z</time>
      </trkpt>
      <trkpt lat="47.97975" lon="6.5674">
        <ele>729</ele>
        <time>2018-09-13T06:47:55.000Z</time>
      </trkpt>
      <trkpt lat="47.97974" lon="6.56738">
        <ele>729</ele>
        <time>2018-09-13T06:47:56.000Z</time>
      </trkpt>
      <trkpt lat="47.97972" lon="6.56737">
        <ele>729</ele>
        <time>2018-09-13T06:47:57.000Z</time>
      </trkpt>
      <trkpt lat="47.97971" lon="6.56736">
        <ele>729</ele>
        <time>2018-09-13T06:47:58.000Z</time>
      </trkpt>
      <trkpt lat="47.9797" lon="6.56735">
        <ele>729</ele>
        <time>2018-09-13T06:47:59.000Z</time>
      </trkpt>
      <trkpt lat="47.97969" lon="6.56734">
        <ele>729</ele>
        <time>2018-09-13T06:48:00.000Z</time>
      </trkpt>
      <trkpt lat="47.97967" lon="6.56733">
        <ele>729</ele>
        <time>2018-09-13T06:48:01.000Z</time>
      </trkpt>
      <trkpt lat="47.97966" lon="6.56732">
        <ele>729</ele>
        <time>2018-09-13T06:48:02.000Z</time>
      </trkpt>
      <trkpt lat="47.97965" lon="6.56731">
        <ele>728</ele>
        <time>2018-09-13T06:48:03.000Z</time>
      </trkpt>
      <trkpt lat="47.97963" lon="6.5673">
        <ele>728</ele>
        <time>2018-09-13T06:48:04.000Z</time>
      </trkpt>
      <trkpt lat="47.97962" lon="6.56728">
        <ele>728</ele>
        <time>2018-09-13T06:48:05.000Z</time>
      </trkpt>
      <trkpt lat="47.97961" lon="6.56727">
        <ele>728</ele>
        <time>2018-09-13T06:48:06.000Z</time>
      </trkpt>
      <trkpt lat="47.9796" lon="6.56725">
        <ele>728</ele>
        <time>2018-09-13T06:48:07.000Z</time>
      </trkpt>
      <trkpt lat="47.97959" lon="6.56724">
        <ele>728</ele>
        <time>2018-09-13T06:48:08.000Z</time>
      </trkpt>
      <trkpt lat="47.97958" lon="6.56722">
        <ele>728</ele>
        <time>2018-09-13T06:48:09.000Z</time>
      </trkpt>
      <trkpt lat="47.97956" lon="6.56721">
        <ele>728</ele>
        <time>2018-09-13T06:48:10.000Z</time>
      </trkpt>
      <trkpt lat="47.97955" lon="6.56719">
        <ele>728</ele>
        <time>2018-09-13T06:48:11.000Z</time>
      </trkpt>
      <trkpt lat="47.97954" lon="6.56718">
        <ele>728</ele>
        <time>2018-09-13T06:48:12.000Z</time>
      </trkpt>
      <trkpt lat="47.97952" lon="6.56716">
        <ele>728</ele>
        <time>2018-09-13T06:48:13.000Z</time>
      </trkpt>
      <trkpt lat="47.97951" lon="6.56715">
        <ele>728</ele>
        <time>2018-09-13T06:48:14.000Z</time>
      </trkpt>
      <trkpt lat="47.9795" lon="6.56714">
        <ele>728</ele>
        <time>2018-09-13T06:48:15.000Z</time>
      </trkpt>
      <trkpt lat="47.97948" lon="6.56712">
        <ele>728</ele>
        <time>2018-09-13T06:48:16.000Z</time>
      </trkpt>
      <trkpt lat="47.97947" lon="6.56711">
        <ele>728</ele>
        <time>2018-09-13T06:48:17.000Z</time>
      </trkpt>
      <trkpt lat="47.97946" lon="6.56709">
        <ele>728</ele>
        <time>2018-09-13T06:48:18.000Z</time>
      </trkpt>
      <trkpt lat="47.97945" lon="6.56707">
        <ele>728</ele>
        <time>2018-09-13T06:48:19.000Z</time>
      </trkpt>
      <trkpt lat="47.97944" lon="6.56706">
        <ele>728</ele>
        <time>2018-09-13T06:48:20.000Z</time>
      </trkpt>
      <trkpt lat="47.97943" lon="6.56705">
        <ele>727</ele>
        <time>2018-09-13T06:48:21.000Z</time>
      </trkpt>
      <trkpt lat="47.97942" lon="6.56703">
        <ele>727</ele>
        <time>2018-09-13T06:48:22.000Z</time>
      </trkpt>
      <trkpt lat="47.97941" lon="6.56702">
        <ele>727</ele>
        <time>2018-09-13T06:48:23.000Z</time>
      </trkpt>
      <trkpt lat="47.9794" lon="6.567">
        <ele>727</ele>
        <time>2018-09-13T06:48:24.000Z</time>
      </trkpt>
      <trkpt lat="47.9794" lon="6.56699">
        <ele>727</ele>
        <time>2018-09-13T06:48:25.000Z</time>
      </trkpt>
      <trkpt lat="47.97939" lon="6.56698">
        <ele>727</ele>
        <time>2018-09-13T06:48:26.000Z</time>
      </trkpt>
      <trkpt lat="47.97938" lon="6.56697">
        <ele>727</ele>
        <time>2018-09-13T06:48:27.000Z</time>
      </trkpt>
      <trkpt lat="47.97937" lon="6.56696">
        <ele>727</ele>
        <time>2018-09-13T06:48:28.000Z</time>
      </trkpt>
      <trkpt lat="47.97936" lon="6.56695">
        <ele>727</ele>
        <time>2018-09-13T06:48:29.000Z</time>
      </trkpt>
      <trkpt lat="47.97934" lon="6.56694">
        <ele>727</ele>
        <time>2018-09-13T06:48:30.000Z</time>
      </trkpt>
      <trkpt lat="47.97933" lon="6.56693">
        <ele>726</ele>
        <time>2018-09-13T06:48:31.000Z</time>
      </trkpt>
      <trkpt lat="47.97932" lon="6.56691">
        <ele>726</ele>
        <time>2018-09-13T06:48:32.000Z</time>
      </trkpt>
      <trkpt lat="47.97931" lon="6.5669">
        <ele>726</ele>
        <time>2018-09-13T06:48:33.000Z</time>
      </trkpt>
      <trkpt lat="47.97929" lon="6.56689">
        <ele>726</ele>
        <time>2018-09-13T06:48:34.000Z</time>
      </trkpt>
      <trkpt lat="47.97928" lon="6.56687">
        <ele>726</ele>
        <time>2018-09-13T06:48:35.000Z</time>
      </trkpt>
      <trkpt lat="47.97927" lon="6.56686">
        <ele>726</ele>
        <time>2018-09-13T06:48:36.000Z</time>
      </trkpt>
      <trkpt lat="47.97926" lon="6.56685">
        <ele>726</ele>
        <time>2018-09-13T06:48:37.000Z</time>
      </trkpt>
      <trkpt lat="47.97925" lon="6.56684">
        <ele>726</ele>
        <time>2018-09-13T06:48:38.000Z</time>
      </trkpt>
      <trkpt lat="47.97924" lon="6.56683">
        <ele>726</ele>
        <time>2018-09-13T06:48:39.000Z</time>
      </trkpt>
      <trkpt lat="47.97923" lon="6.56682">
        <ele>726</ele>
        <time>2018-09-13T06:48:40.000Z</time>
      </trkpt>
      <trkpt lat="47.97922" lon="6.5668">
        <ele>726</ele>
        <time>2018-09-13T06:48:41.000Z</time>
      </trkpt>
      <trkpt lat="47.97922" lon="6.56679">
        <ele>726</ele>
        <time>2018-09-13T06:48:42.000Z</time>
      </trkpt>
      <trkpt lat="47.97921" lon="6.56678">
        <ele>726</ele>
        <time>2018-09-13T06:48:43.000Z</time>
      </trkpt>
      <trkpt lat="47.97921" lon="6.56677">
        <ele>726</ele>
        <time>2018-09-13T06:48:44.000Z</time>
      </trkpt>
      <trkpt lat="47.9792" lon="6.56675">
        <ele>726</ele>
        <time>2018-09-13T06:48:45.000Z</time>
      </trkpt>
      <trkpt lat="47.9792" lon="6.56673">
        <ele>726</ele>
        <time>2018-09-13T06:48:46.000Z</time>
      </trkpt>
      <trkpt lat="47.9792" lon="6.56672">
        <ele>726</ele>
        <time>2018-09-13T06:48:47.000Z</time>
      </trkpt>
      <trkpt lat="47.9792" lon="6.56669">
        <ele>726</ele>
        <time>2018-09-13T06:48:48.000Z</time>
      </trkpt>
      <trkpt lat="47.97919" lon="6.56667">
        <ele>726</ele>
        <time>2018-09-13T06:48:49.000Z</time>
      </trkpt>
      <trkpt lat="47.97919" lon="6.56666">
        <ele>726</ele>
        <time>2018-09-13T06:48:50.000Z</time>
      </trkpt>
      <trkpt lat="47.97919" lon="6.56664">
        <ele>726</ele>
        <time>2018-09-13T06:48:51.000Z</time>
      </trkpt>
      <trkpt lat="47.97919" lon="6.56662">
        <ele>727</ele>
        <time>2018-09-13T06:48:52.000Z</time>
      </trkpt>
      <trkpt lat="47.97918" lon="6.5666">
        <ele>727</ele>
        <time>2018-09-13T06:48:53.000Z</time>
      </trkpt>
      <trkpt lat="47.97917" lon="6.56658">
        <ele>727</ele>
        <time>2018-09-13T06:48:54.000Z</time>
      </trkpt>
      <trkpt lat="47.97917" lon="6.56655">
        <ele>727</ele>
        <time>2018-09-13T06:48:55.000Z</time>
      </trkpt>
      <trkpt lat="47.97916" lon="6.56653">
        <ele>727</ele>
        <time>2018-09-13T06:48:56.000Z</time>
      </trkpt>
      <trkpt lat="47.97915" lon="6.56651">
        <ele>727</ele>
        <time>2018-09-13T06:48:57.000Z</time>
      </trkpt>
      <trkpt lat="47.97915" lon="6.56649">
        <ele>727</ele>
        <time>2018-09-13T06:48:58.000Z</time>
      </trkpt>
      <trkpt lat="47.97914" lon="6.56647">
        <ele>727</ele>
        <time>2018-09-13T06:48:59.000Z</time>
      </trkpt>
      <trkpt lat="47.97914" lon="6.56645">
        <ele>727</ele>
        <time>2018-09-13T06:49:00.000Z</time>
      </trkpt>
      <trkpt lat="47.97913" lon="6.56643">
        <ele>727</ele>
        <time>2018-09-13T06:49:01.000Z</time>
      </trkpt>
      <trkpt lat="47.97913" lon="6.56641">
        <ele>727</ele>
        <time>2018-09-13T06:49:02.000Z</time>
      </trkpt>
      <trkpt lat="47.97912" lon="6.56639">
        <ele>727</ele>
        <time>2018-09-13T06:49:03.000Z</time>
      </trkpt>
      <trkpt lat="47.97912" lon="6.56637">
        <ele>727</ele>
        <time>2018-09-13T06:49:04.000Z</time>
      </trkpt>
      <trkpt lat="47.97912" lon="6.56636">
        <ele>727</ele>
        <time>2018-09-13T06:49:05.000Z</time>
      </trkpt>
      <trkpt lat="47.97912" lon="6.56634">
        <ele>727</ele>
        <time>2018-09-13T06:49:06.000Z</time>
      </trkpt>
      <trkpt lat="47.97911" lon="6.56632">
        <ele>727</ele>
        <time>2018-09-13T06:49:07.000Z</time>
      </trkpt>
      <trkpt lat="47.97911" lon="6.5663">
        <ele>727</ele>
        <time>2018-09-13T06:49:08.000Z</time>
      </trkpt>
      <trkpt lat="47.9791" lon="6.56628">
        <ele>727</ele>
        <time>2018-09-13T06:49:09.000Z</time>
      </trkpt>
      <trkpt lat="47.9791" lon="6.56626">
        <ele>727</ele>
        <time>2018-09-13T06:49:10.000Z</time>
      </trkpt>
      <trkpt lat="47.97909" lon="6.56624">
        <ele>727</ele>
        <time>2018-09-13T06:49:11.000Z</time>
      </trkpt>
      <trkpt lat="47.97908" lon="6.56621">
        <ele>728</ele>
        <time>2018-09-13T06:49:12.000Z</time>
      </trkpt>
      <trkpt lat="47.97907" lon="6.56619">
        <ele>728</ele>
        <time>2018-09-13T06:49:13.000Z</time>
      </trkpt>
      <trkpt lat="47.97906" lon="6.56618">
        <ele>728</ele>
        <time>2018-09-13T06:49:14.000Z</time>
      </trkpt>
      <trkpt lat="47.97905" lon="6.56616">
        <ele>728</ele>
        <time>2018-09-13T06:49:15.000Z</time>
      </trkpt>
      <trkpt lat="47.97905" lon="6.56614">
        <ele>728</ele>
        <time>2018-09-13T06:49:16.000Z</time>
      </trkpt>
      <trkpt lat="47.97904" lon="6.56612">
        <ele>728</ele>
        <time>2018-09-13T06:49:17.000Z</time>
      </trkpt>
      <trkpt lat="47.97903" lon="6.5661">
        <ele>728</ele>
        <time>2018-09-13T06:49:18.000Z</time>
      </trkpt>
      <trkpt lat="47.97902" lon="6.56608">
        <ele>728</ele>
        <time>2018-09-13T06:49:19.000Z</time>
      </trkpt>
      <trkpt lat="47.97901" lon="6.56606">
        <ele>728</ele>
        <time>2018-09-13T06:49:20.000Z</time>
      </trkpt>
      <trkpt lat="47.979" lon="6.56604">
        <ele>728</ele>
        <time>2018-09-13T06:49:21.000Z</time>
      </trkpt>
      <trkpt lat="47.97899" lon="6.56602">
        <ele>728</ele>
        <time>2018-09-13T06:49:22.000Z</time>
      </trkpt>
      <trkpt lat="47.97898" lon="6.566">
        <ele>728</ele>
        <time>2018-09-13T06:49:23.000Z</time>
      </trkpt>
      <trkpt lat="47.97897" lon="6.56598">
        <ele>729</ele>
        <time>2018-09-13T06:49:24.000Z</time>
      </trkpt>
      <trkpt lat="47.97897" lon="6.56597">
        <ele>729</ele>
        <time>2018-09-13T06:49:25.000Z</time>
      </trkpt>
      <trkpt lat="47.97896" lon="6.56595">
        <ele>729</ele>
        <time>2018-09-13T06:49:26.000Z</time>
      </trkpt>
      <trkpt lat="47.97896" lon="6.56593">
        <ele>729</ele>
        <time>2018-09-13T06:49:27.000Z</time>
      </trkpt>
      <trkpt lat="47.97895" lon="6.56591">
        <ele>729</ele>
        <time>2018-09-13T06:49:28.000Z</time>
      </trkpt>
      <trkpt lat="47.97895" lon="6.56589">
        <ele>729</ele>
        <time>2018-09-13T06:49:29.000Z</time>
      </trkpt>
      <trkpt lat="47.97895" lon="6.56587">
        <ele>730</ele>
        <time>2018-09-13T06:49:30.000Z</time>
      </trkpt>
      <trkpt lat="47.97894" lon="6.56584">
        <ele>730</ele>
        <time>2018-09-13T06:49:31.000Z</time>
      </trkpt>
      <trkpt lat="47.97893" lon="6.56582">
        <ele>730</ele>
        <time>2018-09-13T06:49:32.000Z</time>
      </trkpt>
      <trkpt lat="47.97892" lon="6.56579">
        <ele>730</ele>
        <time>2018-09-13T06:49:33.000Z</time>
      </trkpt>
      <trkpt lat="47.97891" lon="6.56576">
        <ele>730</ele>
        <time>2018-09-13T06:49:34.000Z</time>
      </trkpt>
      <trkpt lat="47.9789" lon="6.56574">
        <ele>730</ele>
        <time>2018-09-13T06:49:35.000Z</time>
      </trkpt>
      <trkpt lat="47.9789" lon="6.56572">
        <ele>730</ele>
        <time>2018-09-13T06:49:36.000Z</time>
      </trkpt>
      <trkpt lat="47.97889" lon="6.56569">
        <ele>730</ele>
        <time>2018-09-13T06:49:37.000Z</time>
      </trkpt>
      <trkpt lat="47.97887" lon="6.56567">
        <ele>730</ele>
        <time>2018-09-13T06:49:38.000Z</time>
      </trkpt>
      <trkpt lat="47.97886" lon="6.56565">
        <ele>730</ele>
        <time>2018-09-13T06:49:39.000Z</time>
      </trkpt>
      <trkpt lat="47.97885" lon="6.56563">
        <ele>730</ele>
        <time>2018-09-13T06:49:40.000Z</time>
      </trkpt>
      <trkpt lat="47.97884" lon="6.56561">
        <ele>730</ele>
        <time>2018-09-13T06:49:41.000Z</time>
      </trkpt>
      <trkpt lat="47.97882" lon="6.56558">
        <ele>731</ele>
        <time>2018-09-13T06:49:42.000Z</time>
      </trkpt>
      <trkpt lat="47.97881" lon="6.56556">
        <ele>731</ele>
        <time>2018-09-13T06:49:43.000Z</time>
      </trkpt>
      <trkpt lat="47.9788" lon="6.56554">
        <ele>731</ele>
        <time>2018-09-13T06:49:44.000Z</time>
      </trkpt>
      <trkpt lat="47.97879" lon="6.56552">
        <ele>731</ele>
        <time>2018-09-13T06:49:45.000Z</time>
      </trkpt>
      <trkpt lat="47.97878" lon="6.5655">
        <ele>731</ele>
        <time>2018-09-13T06:49:46.000Z</time>
      </trkpt>
      <trkpt lat="47.97877" lon="6.56547">
        <ele>731</ele>
        <time>2018-09-13T06:49:47.000Z</time>
      </trkpt>
      <trkpt lat="47.97876" lon="6.56545">
        <ele>731</ele>
        <time>2018-09-13T06:49:48.000Z</time>
      </trkpt>
      <trkpt lat="47.97875" lon="6.56542">
        <ele>731</ele>
        <time>2018-09-13T06:49:49.000Z</time>
      </trkpt>
      <trkpt lat="47.97874" lon="6.5654">
        <ele>731</ele>
        <time>2018-09-13T06:49:50.000Z</time>
      </trkpt>
      <trkpt lat="47.97874" lon="6.56538">
        <ele>732</ele>
        <time>2018-09-13T06:49:51.000Z</time>
      </trkpt>
      <trkpt lat="47.97873" lon="6.56536">
        <ele>732</ele>
        <time>2018-09-13T06:49:52.000Z</time>
      </trkpt>
      <trkpt lat="47.97872" lon="6.56534">
        <ele>732</ele>
        <time>2018-09-13T06:49:53.000Z</time>
      </trkpt>
      <trkpt lat="47.97871" lon="6.56532">
        <ele>732</ele>
        <time>2018-09-13T06:49:54.000Z</time>
      </trkpt>
      <trkpt lat="47.9787" lon="6.5653">
        <ele>732</ele>
        <time>2018-09-13T06:49:55.000Z</time>
      </trkpt>
      <trkpt lat="47.97869" lon="6.56527">
        <ele>732</ele>
        <time>2018-09-13T06:49:56.000Z</time>
      </trkpt>
      <trkpt lat="47.97868" lon="6.56525">
        <ele>732</ele>
        <time>2018-09-13T06:49:57.000Z</time>
      </trkpt>
      <trkpt lat="47.97867" lon="6.56523">
        <ele>732</ele>
        <time>2018-09-13T06:49:58.000Z</time>
      </trkpt>
      <trkpt lat="47.97866" lon="6.56521">
        <ele>732</ele>
        <time>2018-09-13T06:49:59.000Z</time>
      </trkpt>
      <trkpt lat="47.97865" lon="6.5652">
        <ele>733</ele>
        <time>2018-09-13T06:50:00.000Z</time>
      </trkpt>
      <trkpt lat="47.97865" lon="6.56518">
        <ele>733</ele>
        <time>2018-09-13T06:50:01.000Z</time>
      </trkpt>
      <trkpt lat="47.97864" lon="6.56517">
        <ele>733</ele>
        <time>2018-09-13T06:50:02.000Z</time>
      </trkpt>
      <trkpt lat="47.97863" lon="6.56515">
        <ele>733</ele>
        <time>2018-09-13T06:50:03.000Z</time>
      </trkpt>
      <trkpt lat="47.97863" lon="6.56514">
        <ele>733</ele>
        <time>2018-09-13T06:50:04.000Z</time>
      </trkpt>
      <trkpt lat="47.97862" lon="6.56512">
        <ele>733</ele>
        <time>2018-09-13T06:50:05.000Z</time>
      </trkpt>
      <trkpt lat="47.97862" lon="6.5651">
        <ele>733</ele>
        <time>2018-09-13T06:50:06.000Z</time>
      </trkpt>
      <trkpt lat="47.97861" lon="6.56508">
        <ele>733</ele>
        <time>2018-09-13T06:50:07.000Z</time>
      </trkpt>
      <trkpt lat="47.97861" lon="6.56505">
        <ele>733</ele>
        <time>2018-09-13T06:50:08.000Z</time>
      </trkpt>
      <trkpt lat="47.9786" lon="6.56503">
        <ele>733</ele>
        <time>2018-09-13T06:50:09.000Z</time>
      </trkpt>
      <trkpt lat="47.9786" lon="6.56501">
        <ele>734</ele>
        <time>2018-09-13T06:50:10.000Z</time>
      </trkpt>
      <trkpt lat="47.97859" lon="6.56499">
        <ele>734</ele>
        <time>2018-09-13T06:50:11.000Z</time>
      </trkpt>
      <trkpt lat="47.97858" lon="6.56497">
        <ele>734</ele>
        <time>2018-09-13T06:50:12.000Z</time>
      </trkpt>
      <trkpt lat="47.97858" lon="6.56495">
        <ele>734</ele>
        <time>2018-09-13T06:50:13.000Z</time>
      </trkpt>
      <trkpt lat="47.97857" lon="6.56493">
        <ele>734</ele>
        <time>2018-09-13T06:50:14.000Z</time>
      </trkpt>
      <trkpt lat="47.97856" lon="6.56491">
        <ele>734</ele>
        <time>2018-09-13T06:50:15.000Z</time>
      </trkpt>
      <trkpt lat="47.97854" lon="6.56489">
        <ele>734</ele>
        <time>2018-09-13T06:50:16.000Z</time>
      </trkpt>
      <trkpt lat="47.97853" lon="6.56487">
        <ele>734</ele>
        <time>2018-09-13T06:50:17.000Z</time>
      </trkpt>
      <trkpt lat="47.97852" lon="6.56485">
        <ele>734</ele>
        <time>2018-09-13T06:50:18.000Z</time>
      </trkpt>
      <trkpt lat="47.97851" lon="6.56484">
        <ele>734</ele>
        <time>2018-09-13T06:50:19.000Z</time>
      </trkpt>
      <trkpt lat="47.9785" lon="6.56482">
        <ele>735</ele>
        <time>2018-09-13T06:50:20.000Z</time>
      </trkpt>
      <trkpt lat="47.97849" lon="6.5648">
        <ele>735</ele>
        <time>2018-09-13T06:50:21.000Z</time>
      </trkpt>
      <trkpt lat="47.97848" lon="6.56478">
        <ele>735</ele>
        <time>2018-09-13T06:50:22.000Z</time>
      </trkpt>
      <trkpt lat="47.97847" lon="6.56476">
        <ele>735</ele>
        <time>2018-09-13T06:50:23.000Z</time>
      </trkpt>
      <trkpt lat="47.97846" lon="6.56474">
        <ele>735</ele>
        <time>2018-09-13T06:50:24.000Z</time>
      </trkpt>
      <trkpt lat="47.97845" lon="6.56472">
        <ele>735</ele>
        <time>2018-09-13T06:50:25.000Z</time>
      </trkpt>
      <trkpt lat="47.97845" lon="6.5647">
        <ele>735</ele>
        <time>2018-09-13T06:50:26.000Z</time>
      </trkpt>
      <trkpt lat="47.97845" lon="6.56467">
        <ele>735</ele>
        <time>2018-09-13T06:50:27.000Z</time>
      </trkpt>
      <trkpt lat="47.97845" lon="6.56465">
        <ele>735</ele>
        <time>2018-09-13T06:50:28.000Z</time>
      </trkpt>
      <trkpt lat="47.97845" lon="6.56462">
        <ele>735</ele>
        <time>2018-09-13T06:50:29.000Z</time>
      </trkpt>
      <trkpt lat="47.97845" lon="6.56459">
        <ele>735</ele>
        <time>2018-09-13T06:50:30.000Z</time>
      </trkpt>
      <trkpt lat="47.97845" lon="6.56456">
        <ele>735</ele>
        <time>2018-09-13T06:50:31.000Z</time>
      </trkpt>
      <trkpt lat="47.97845" lon="6.56453">
        <ele>735</ele>
        <time>2018-09-13T06:50:32.000Z</time>
      </trkpt>
      <trkpt lat="47.97845" lon="6.5645">
        <ele>734</ele>
        <time>2018-09-13T06:50:33.000Z</time>
      </trkpt>
      <trkpt lat="47.97845" lon="6.56447">
        <ele>734</ele>
        <time>2018-09-13T06:50:34.000Z</time>
      </trkpt>
      <trkpt lat="47.97844" lon="6.56445">
        <ele>734</ele>
        <time>2018-09-13T06:50:35.000Z</time>
      </trkpt>
      <trkpt lat="47.97843" lon="6.56442">
        <ele>734</ele>
        <time>2018-09-13T06:50:36.000Z</time>
      </trkpt>
      <trkpt lat="47.97843" lon="6.5644">
        <ele>734</ele>
        <time>2018-09-13T06:50:37.000Z</time>
      </trkpt>
      <trkpt lat="47.97842" lon="6.56437">
        <ele>733</ele>
        <time>2018-09-13T06:50:38.000Z</time>
      </trkpt>
      <trkpt lat="47.97841" lon="6.56435">
        <ele>733</ele>
        <time>2018-09-13T06:50:39.000Z</time>
      </trkpt>
      <trkpt lat="47.9784" lon="6.56433">
        <ele>733</ele>
        <time>2018-09-13T06:50:40.000Z</time>
      </trkpt>
      <trkpt lat="47.97839" lon="6.5643">
        <ele>733</ele>
        <time>2018-09-13T06:50:41.000Z</time>
      </trkpt>
      <trkpt lat="47.97838" lon="6.56428">
        <ele>733</ele>
        <time>2018-09-13T06:50:42.000Z</time>
      </trkpt>
      <trkpt lat="47.97837" lon="6.56425">
        <ele>733</ele>
        <time>2018-09-13T06:50:43.000Z</time>
      </trkpt>
      <trkpt lat="47.97836" lon="6.56423">
        <ele>733</ele>
        <time>2018-09-13T06:50:44.000Z</time>
      </trkpt>
      <trkpt lat="47.97835" lon="6.56421">
        <ele>733</ele>
        <time>2018-09-13T06:50:45.000Z</time>
      </trkpt>
      <trkpt lat="47.97833" lon="6.56419">
        <ele>733</ele>
        <time>2018-09-13T06:50:46.000Z</time>
      </trkpt>
      <trkpt lat="47.97832" lon="6.56416">
        <ele>733</ele>
        <time>2018-09-13T06:50:47.000Z</time>
      </trkpt>
      <trkpt lat="47.97831" lon="6.56413">
        <ele>733</ele>
        <time>2018-09-13T06:50:48.000Z</time>
      </trkpt>
      <trkpt lat="47.9783" lon="6.56411">
        <ele>733</ele>
        <time>2018-09-13T06:50:49.000Z</time>
      </trkpt>
      <trkpt lat="47.97829" lon="6.56408">
        <ele>733</ele>
        <time>2018-09-13T06:50:50.000Z</time>
      </trkpt>
      <trkpt lat="47.97827" lon="6.56405">
        <ele>732</ele>
        <time>2018-09-13T06:50:51.000Z</time>
      </trkpt>
      <trkpt lat="47.97826" lon="6.56403">
        <ele>732</ele>
        <time>2018-09-13T06:50:52.000Z</time>
      </trkpt>
      <trkpt lat="47.97824" lon="6.56401">
        <ele>732</ele>
        <time>2018-09-13T06:50:53.000Z</time>
      </trkpt>
      <trkpt lat="47.97823" lon="6.56399">
        <ele>732</ele>
        <time>2018-09-13T06:50:54.000Z</time>
      </trkpt>
      <trkpt lat="47.97822" lon="6.56396">
        <ele>732</ele>
        <time>2018-09-13T06:50:55.000Z</time>
      </trkpt>
      <trkpt lat="47.9782" lon="6.56394">
        <ele>732</ele>
        <time>2018-09-13T06:50:56.000Z</time>
      </trkpt>
      <trkpt lat="47.97819" lon="6.56391">
        <ele>732</ele>
        <time>2018-09-13T06:50:57.000Z</time>
      </trkpt>
      <trkpt lat="47.97817" lon="6.56389">
        <ele>732</ele>
        <time>2018-09-13T06:50:58.000Z</time>
      </trkpt>
      <trkpt lat="47.97816" lon="6.56386">
        <ele>732</ele>
        <time>2018-09-13T06:50:59.000Z</time>
      </trkpt>
      <trkpt lat="47.97815" lon="6.56383">
        <ele>732</ele>
        <time>2018-09-13T06:51:00.000Z</time>
      </trkpt>
      <trkpt lat="47.97814" lon="6.56381">
        <ele>732</ele>
        <time>2018-09-13T06:51:01.000Z</time>
      </trkpt>
      <trkpt lat="47.97813" lon="6.56379">
        <ele>732</ele>
        <time>2018-09-13T06:51:02.000Z</time>
      </trkpt>
      <trkpt lat="47.97812" lon="6.56376">
        <ele>732</ele>
        <time>2018-09-13T06:51:03.000Z</time>
      </trkpt>
      <trkpt lat="47.9781" lon="6.56374">
        <ele>732</ele>
        <time>2018-09-13T06:51:04.000Z</time>
      </trkpt>
      <trkpt lat="47.97809" lon="6.56372">
        <ele>732</ele>
        <time>2018-09-13T06:51:05.000Z</time>
      </trkpt>
      <trkpt lat="47.97808" lon="6.5637">
        <ele>732</ele>
        <time>2018-09-13T06:51:06.000Z</time>
      </trkpt>
      <trkpt lat="47.97807" lon="6.56368">
        <ele>731</ele>
        <time>2018-09-13T06:51:07.000Z</time>
      </trkpt>
      <trkpt lat="47.97806" lon="6.56366">
        <ele>731</ele>
        <time>2018-09-13T06:51:08.000Z</time>
      </trkpt>
      <trkpt lat="47.97805" lon="6.56364">
        <ele>731</ele>
        <time>2018-09-13T06:51:09.000Z</time>
      </trkpt>
      <trkpt lat="47.97804" lon="6.56362">
        <ele>731</ele>
        <time>2018-09-13T06:51:10.000Z</time>
      </trkpt>
      <trkpt lat="47.97803" lon="6.5636">
        <ele>731</ele>
        <time>2018-09-13T06:51:11.000Z</time>
      </trkpt>
      <trkpt lat="47.97801" lon="6.56358">
        <ele>731</ele>
        <time>2018-09-13T06:51:12.000Z</time>
      </trkpt>
      <trkpt lat="47.978" lon="6.56357">
        <ele>731</ele>
        <time>2018-09-13T06:51:13.000Z</time>
      </trkpt>
      <trkpt lat="47.97799" lon="6.56354">
        <ele>731</ele>
        <time>2018-09-13T06:51:14.000Z</time>
      </trkpt>
      <trkpt lat="47.97798" lon="6.56352">
        <ele>731</ele>
        <time>2018-09-13T06:51:15.000Z</time>
      </trkpt>
      <trkpt lat="47.97796" lon="6.5635">
        <ele>731</ele>
        <time>2018-09-13T06:51:16.000Z</time>
      </trkpt>
      <trkpt lat="47.97795" lon="6.56347">
        <ele>731</ele>
        <time>2018-09-13T06:51:17.000Z</time>
      </trkpt>
      <trkpt lat="47.97793" lon="6.56345">
        <ele>731</ele>
        <time>2018-09-13T06:51:18.000Z</time>
      </trkpt>
      <trkpt lat="47.97791" lon="6.56343">
        <ele>731</ele>
        <time>2018-09-13T06:51:19.000Z</time>
      </trkpt>
      <trkpt lat="47.9779" lon="6.5634">
        <ele>731</ele>
        <time>2018-09-13T06:51:20.000Z</time>
      </trkpt>
      <trkpt lat="47.97788" lon="6.56338">
        <ele>731</ele>
        <time>2018-09-13T06:51:21.000Z</time>
      </trkpt>
      <trkpt lat="47.97787" lon="6.56335">
        <ele>731</ele>
        <time>2018-09-13T06:51:22.000Z</time>
      </trkpt>
      <trkpt lat="47.97785" lon="6.56333">
        <ele>731</ele>
        <time>2018-09-13T06:51:23.000Z</time>
      </trkpt>
      <trkpt lat="47.97784" lon="6.56331">
        <ele>731</ele>
        <time>2018-09-13T06:51:24.000Z</time>
      </trkpt>
      <trkpt lat="47.97783" lon="6.5633">
        <ele>731</ele>
        <time>2018-09-13T06:51:25.000Z</time>
      </trkpt>
      <trkpt lat="47.97782" lon="6.56329">
        <ele>731</ele>
        <time>2018-09-13T06:51:26.000Z</time>
      </trkpt>
      <trkpt lat="47.97781" lon="6.56327">
        <ele>731</ele>
        <time>2018-09-13T06:51:27.000Z</time>
      </trkpt>
      <trkpt lat="47.9778" lon="6.56326">
        <ele>731</ele>
        <time>2018-09-13T06:51:28.000Z</time>
      </trkpt>
      <trkpt lat="47.97779" lon="6.56325">
        <ele>731</ele>
        <time>2018-09-13T06:51:29.000Z</time>
      </trkpt>
      <trkpt lat="47.97778" lon="6.56323">
        <ele>731</ele>
        <time>2018-09-13T06:51:30.000Z</time>
      </trkpt>
      <trkpt lat="47.97777" lon="6.56322">
        <ele>731</ele>
        <time>2018-09-13T06:51:31.000Z</time>
      </trkpt>
      <trkpt lat="47.97776" lon="6.5632">
        <ele>730</ele>
        <time>2018-09-13T06:51:32.000Z</time>
      </trkpt>
      <trkpt lat="47.97775" lon="6.56319">
        <ele>730</ele>
        <time>2018-09-13T06:51:33.000Z</time>
      </trkpt>
      <trkpt lat="47.97773" lon="6.56317">
        <ele>730</ele>
        <time>2018-09-13T06:51:34.000Z</time>
      </trkpt>
      <trkpt lat="47.97772" lon="6.56315">
        <ele>730</ele>
        <time>2018-09-13T06:51:35.000Z</time>
      </trkpt>
      <trkpt lat="47.97771" lon="6.56314">
        <ele>730</ele>
        <time>2018-09-13T06:51:36.000Z</time>
      </trkpt>
      <trkpt lat="47.9777" lon="6.56312">
        <ele>730</ele>
        <time>2018-09-13T06:51:37.000Z</time>
      </trkpt>
      <trkpt lat="47.97768" lon="6.5631">
        <ele>730</ele>
        <time>2018-09-13T06:51:38.000Z</time>
      </trkpt>
      <trkpt lat="47.97767" lon="6.56308">
        <ele>730</ele>
        <time>2018-09-13T06:51:39.000Z</time>
      </trkpt>
      <trkpt lat="47.97766" lon="6.56306">
        <ele>730</ele>
        <time>2018-09-13T06:51:40.000Z</time>
      </trkpt>
      <trkpt lat="47.97765" lon="6.56305">
        <ele>730</ele>
        <time>2018-09-13T06:51:41.000Z</time>
      </trkpt>
      <trkpt lat="47.97764" lon="6.56303">
        <ele>730</ele>
        <time>2018-09-13T06:51:42.000Z</time>
      </trkpt>
      <trkpt lat="47.97763" lon="6.56302">
        <ele>730</ele>
        <time>2018-09-13T06:51:43.000Z</time>
      </trkpt>
      <trkpt lat="47.97761" lon="6.563">
        <ele>730</ele>
        <time>2018-09-13T06:51:44.000Z</time>
      </trkpt>
      <trkpt lat="47.9776" lon="6.56298">
        <ele>730</ele>
        <time>2018-09-13T06:51:45.000Z</time>
      </trkpt>
      <trkpt lat="47.97758" lon="6.56297">
        <ele>730</ele>
        <time>2018-09-13T06:51:46.000Z</time>
      </trkpt>
      <trkpt lat="47.97757" lon="6.56295">
        <ele>730</ele>
        <time>2018-09-13T06:51:47.000Z</time>
      </trkpt>
      <trkpt lat="47.97755" lon="6.56293">
        <ele>730</ele>
        <time>2018-09-13T06:51:48.000Z</time>
      </trkpt>
      <trkpt lat="47.97754" lon="6.56291">
        <ele>730</ele>
        <time>2018-09-13T06:51:49.000Z</time>
      </trkpt>
      <trkpt lat="47.97753" lon="6.56289">
        <ele>730</ele>
        <time>2018-09-13T06:51:50.000Z</time>
      </trkpt>
      <trkpt lat="47.97752" lon="6.56288">
        <ele>730</ele>
        <time>2018-09-13T06:51:51.000Z</time>
      </trkpt>
      <trkpt lat="47.9775" lon="6.56286">
        <ele>730</ele>
        <time>2018-09-13T06:51:52.000Z</time>
      </trkpt>
      <trkpt lat="47.97748" lon="6.56284">
        <ele>730</ele>
        <time>2018-09-13T06:51:53.000Z</time>
      </trkpt>
      <trkpt lat="47.97746" lon="6.56283">
        <ele>730</ele>
        <time>2018-09-13T06:51:54.000Z</time>
      </trkpt>
      <trkpt lat="47.97745" lon="6.5628">
        <ele>730</ele>
        <time>2018-09-13T06:51:55.000Z</time>
      </trkpt>
      <trkpt lat="47.97743" lon="6.56278">
        <ele>730</ele>
        <time>2018-09-13T06:51:56.000Z</time>
      </trkpt>
      <trkpt lat="47.97741" lon="6.56276">
        <ele>730</ele>
        <time>2018-09-13T06:51:57.000Z</time>
      </trkpt>
      <trkpt lat="47.9774" lon="6.56274">
        <ele>729</ele>
        <time>2018-09-13T06:51:58.000Z</time>
      </trkpt>
      <trkpt lat="47.97738" lon="6.56272">
        <ele>729</ele>
        <time>2018-09-13T06:51:59.000Z</time>
      </trkpt>
      <trkpt lat="47.97736" lon="6.5627">
        <ele>729</ele>
        <time>2018-09-13T06:52:00.000Z</time>
      </trkpt>
      <trkpt lat="47.97735" lon="6.56268">
        <ele>729</ele>
        <time>2018-09-13T06:52:01.000Z</time>
      </trkpt>
      <trkpt lat="47.97733" lon="6.56266">
        <ele>729</ele>
        <time>2018-09-13T06:52:02.000Z</time>
      </trkpt>
      <trkpt lat="47.97732" lon="6.56263">
        <ele>729</ele>
        <time>2018-09-13T06:52:03.000Z</time>
      </trkpt>
      <trkpt lat="47.9773" lon="6.56261">
        <ele>729</ele>
        <time>2018-09-13T06:52:04.000Z</time>
      </trkpt>
      <trkpt lat="47.97729" lon="6.56258">
        <ele>729</ele>
        <time>2018-09-13T06:52:05.000Z</time>
      </trkpt>
      <trkpt lat="47.97727" lon="6.56256">
        <ele>729</ele>
        <time>2018-09-13T06:52:06.000Z</time>
      </trkpt>
      <trkpt lat="47.97726" lon="6.56254">
        <ele>729</ele>
        <time>2018-09-13T06:52:07.000Z</time>
      </trkpt>
      <trkpt lat="47.97724" lon="6.56253">
        <ele>729</ele>
        <time>2018-09-13T06:52:08.000Z</time>
      </trkpt>
      <trkpt lat="47.97723" lon="6.56251">
        <ele>728</ele>
        <time>2018-09-13T06:52:09.000Z</time>
      </trkpt>
      <trkpt lat="47.97721" lon="6.56249">
        <ele>728</ele>
        <time>2018-09-13T06:52:10.000Z</time>
      </trkpt>
      <trkpt lat="47.9772" lon="6.56246">
        <ele>728</ele>
        <time>2018-09-13T06:52:11.000Z</time>
      </trkpt>
      <trkpt lat="47.97719" lon="6.56244">
        <ele>728</ele>
        <time>2018-09-13T06:52:12.000Z</time>
      </trkpt>
      <trkpt lat="47.97717" lon="6.56242">
        <ele>728</ele>
        <time>2018-09-13T06:52:13.000Z</time>
      </trkpt>
      <trkpt lat="47.97716" lon="6.5624">
        <ele>728</ele>
        <time>2018-09-13T06:52:14.000Z</time>
      </trkpt>
      <trkpt lat="47.97714" lon="6.56238">
        <ele>728</ele>
        <time>2018-09-13T06:52:15.000Z</time>
      </trkpt>
      <trkpt lat="47.97713" lon="6.56236">
        <ele>728</ele>
        <time>2018-09-13T06:52:16.000Z</time>
      </trkpt>
      <trkpt lat="47.97712" lon="6.56234">
        <ele>728</ele>
        <time>2018-09-13T06:52:17.000Z</time>
      </trkpt>
      <trkpt lat="47.97711" lon="6.56232">
        <ele>728</ele>
        <time>2018-09-13T06:52:18.000Z</time>
      </trkpt>
      <trkpt lat="47.9771" lon="6.56231">
        <ele>728</ele>
        <time>2018-09-13T06:52:19.000Z</time>
      </trkpt>
      <trkpt lat="47.97708" lon="6.56229">
        <ele>728</ele>
        <time>2018-09-13T06:52:20.000Z</time>
      </trkpt>
      <trkpt lat="47.97707" lon="6.56227">
        <ele>728</ele>
        <time>2018-09-13T06:52:21.000Z</time>
      </trkpt>
      <trkpt lat="47.97706" lon="6.56226">
        <ele>728</ele>
        <time>2018-09-13T06:52:22.000Z</time>
      </trkpt>
      <trkpt lat="47.97705" lon="6.56224">
        <ele>728</ele>
        <time>2018-09-13T06:52:23.000Z</time>
      </trkpt>
      <trkpt lat="47.97704" lon="6.56222">
        <ele>728</ele>
        <time>2018-09-13T06:52:24.000Z</time>
      </trkpt>
      <trkpt lat="47.97702" lon="6.5622">
        <ele>728</ele>
        <time>2018-09-13T06:52:25.000Z</time>
      </trkpt>
      <trkpt lat="47.97701" lon="6.56218">
        <ele>728</ele>
        <time>2018-09-13T06:52:26.000Z</time>
      </trkpt>
      <trkpt lat="47.977" lon="6.56216">
        <ele>728</ele>
        <time>2018-09-13T06:52:27.000Z</time>
      </trkpt>
      <trkpt lat="47.97698" lon="6.56215">
        <ele>728</ele>
        <time>2018-09-13T06:52:28.000Z</time>
      </trkpt>
      <trkpt lat="47.97697" lon="6.56213">
        <ele>728</ele>
        <time>2018-09-13T06:52:29.000Z</time>
      </trkpt>
      <trkpt lat="47.97695" lon="6.56211">
        <ele>728</ele>
        <time>2018-09-13T06:52:30.000Z</time>
      </trkpt>
      <trkpt lat="47.97694" lon="6.56209">
        <ele>728</ele>
        <time>2018-09-13T06:52:31.000Z</time>
      </trkpt>
      <trkpt lat="47.97693" lon="6.56208">
        <ele>728</ele>
        <time>2018-09-13T06:52:32.000Z</time>
      </trkpt>
      <trkpt lat="47.97691" lon="6.56206">
        <ele>727</ele>
        <time>2018-09-13T06:52:33.000Z</time>
      </trkpt>
      <trkpt lat="47.9769" lon="6.56204">
        <ele>727</ele>
        <time>2018-09-13T06:52:34.000Z</time>
      </trkpt>
      <trkpt lat="47.97689" lon="6.56202">
        <ele>727</ele>
        <time>2018-09-13T06:52:35.000Z</time>
      </trkpt>
      <trkpt lat="47.97687" lon="6.56201">
        <ele>727</ele>
        <time>2018-09-13T06:52:36.000Z</time>
      </trkpt>
      <trkpt lat="47.97686" lon="6.56199">
        <ele>727</ele>
        <time>2018-09-13T06:52:37.000Z</time>
      </trkpt>
      <trkpt lat="47.97685" lon="6.56197">
        <ele>727</ele>
        <time>2018-09-13T06:52:38.000Z</time>
      </trkpt>
      <trkpt lat="47.97683" lon="6.56195">
        <ele>727</ele>
        <time>2018-09-13T06:52:39.000Z</time>
      </trkpt>
      <trkpt lat="47.97682" lon="6.56193">
        <ele>727</ele>
        <time>2018-09-13T06:52:40.000Z</time>
      </trkpt>
      <trkpt lat="47.97681" lon="6.5619">
        <ele>727</ele>
        <time>2018-09-13T06:52:41.000Z</time>
      </trkpt>
      <trkpt lat="47.97681" lon="6.56188">
        <ele>727</ele>
        <time>2018-09-13T06:52:42.000Z</time>
      </trkpt>
      <trkpt lat="47.9768" lon="6.56185">
        <ele>727</ele>
        <time>2018-09-13T06:52:43.000Z</time>
      </trkpt>
      <trkpt lat="47.97679" lon="6.56182">
        <ele>727</ele>
        <time>2018-09-13T06:52:44.000Z</time>
      </trkpt>
      <trkpt lat="47.97678" lon="6.56179">
        <ele>727</ele>
        <time>2018-09-13T06:52:45.000Z</time>
      </trkpt>
      <trkpt lat="47.97678" lon="6.56176">
        <ele>726</ele>
        <time>2018-09-13T06:52:46.000Z</time>
      </trkpt>
      <trkpt lat="47.97677" lon="6.56174">
        <ele>726</ele>
        <time>2018-09-13T06:52:47.000Z</time>
      </trkpt>
      <trkpt lat="47.97677" lon="6.56171">
        <ele>726</ele>
        <time>2018-09-13T06:52:48.000Z</time>
      </trkpt>
      <trkpt lat="47.97676" lon="6.56169">
        <ele>726</ele>
        <time>2018-09-13T06:52:49.000Z</time>
      </trkpt>
      <trkpt lat="47.97675" lon="6.56166">
        <ele>726</ele>
        <time>2018-09-13T06:52:50.000Z</time>
      </trkpt>
      <trkpt lat="47.97674" lon="6.56164">
        <ele>726</ele>
        <time>2018-09-13T06:52:51.000Z</time>
      </trkpt>
      <trkpt lat="47.97673" lon="6.56161">
        <ele>726</ele>
        <time>2018-09-13T06:52:52.000Z</time>
      </trkpt>
      <trkpt lat="47.97673" lon="6.56159">
        <ele>725</ele>
        <time>2018-09-13T06:52:53.000Z</time>
      </trkpt>
      <trkpt lat="47.97672" lon="6.56156">
        <ele>725</ele>
        <time>2018-09-13T06:52:54.000Z</time>
      </trkpt>
      <trkpt lat="47.97671" lon="6.56153">
        <ele>725</ele>
        <time>2018-09-13T06:52:55.000Z</time>
      </trkpt>
      <trkpt lat="47.97671" lon="6.5615">
        <ele>725</ele>
        <time>2018-09-13T06:52:56.000Z</time>
      </trkpt>
      <trkpt lat="47.9767" lon="6.56148">
        <ele>725</ele>
        <time>2018-09-13T06:52:57.000Z</time>
      </trkpt>
      <trkpt lat="47.9767" lon="6.56145">
        <ele>725</ele>
        <time>2018-09-13T06:52:58.000Z</time>
      </trkpt>
      <trkpt lat="47.97669" lon="6.56142">
        <ele>725</ele>
        <time>2018-09-13T06:52:59.000Z</time>
      </trkpt>
      <trkpt lat="47.97669" lon="6.56139">
        <ele>724</ele>
        <time>2018-09-13T06:53:00.000Z</time>
      </trkpt>
      <trkpt lat="47.97669" lon="6.56136">
        <ele>724</ele>
        <time>2018-09-13T06:53:01.000Z</time>
      </trkpt>
      <trkpt lat="47.97669" lon="6.56134">
        <ele>724</ele>
        <time>2018-09-13T06:53:02.000Z</time>
      </trkpt>
      <trkpt lat="47.97669" lon="6.56132">
        <ele>724</ele>
        <time>2018-09-13T06:53:03.000Z</time>
      </trkpt>
      <trkpt lat="47.97669" lon="6.56129">
        <ele>724</ele>
        <time>2018-09-13T06:53:04.000Z</time>
      </trkpt>
      <trkpt lat="47.97669" lon="6.56127">
        <ele>724</ele>
        <time>2018-09-13T06:53:05.000Z</time>
      </trkpt>
      <trkpt lat="47.97669" lon="6.56125">
        <ele>724</ele>
        <time>2018-09-13T06:53:06.000Z</time>
      </trkpt>
      <trkpt lat="47.97669" lon="6.56123">
        <ele>723</ele>
        <time>2018-09-13T06:53:07.000Z</time>
      </trkpt>
      <trkpt lat="47.97669" lon="6.56121">
        <ele>723</ele>
        <time>2018-09-13T06:53:08.000Z</time>
      </trkpt>
      <trkpt lat="47.97668" lon="6.5612">
        <ele>723</ele>
        <time>2018-09-13T06:53:09.000Z</time>
      </trkpt>
      <trkpt lat="47.97668" lon="6.56119">
        <ele>723</ele>
        <time>2018-09-13T06:53:10.000Z</time>
      </trkpt>
      <trkpt lat="47.97667" lon="6.56117">
        <ele>723</ele>
        <time>2018-09-13T06:53:11.000Z</time>
      </trkpt>
      <trkpt lat="47.97667" lon="6.56116">
        <ele>723</ele>
        <time>2018-09-13T06:53:12.000Z</time>
      </trkpt>
      <trkpt lat="47.97667" lon="6.56115">
        <ele>723</ele>
        <time>2018-09-13T06:53:13.000Z</time>
      </trkpt>
      <trkpt lat="47.97667" lon="6.56114">
        <ele>723</ele>
        <time>2018-09-13T06:53:14.000Z</time>
      </trkpt>
      <trkpt lat="47.97667" lon="6.56114">
        <ele>723</ele>
        <time>2018-09-13T06:53:15.000Z</time>
      </trkpt>
      <trkpt lat="47.97667" lon="6.56113">
        <ele>723</ele>
        <time>2018-09-13T06:53:16.000Z</time>
      </trkpt>
      <trkpt lat="47.97667" lon="6.56113">
        <ele>722</ele>
        <time>2018-09-13T06:53:17.000Z</time>
      </trkpt>
      <trkpt lat="47.97667" lon="6.56112">
        <ele>722</ele>
        <time>2018-09-13T06:53:18.000Z</time>
      </trkpt>
      <trkpt lat="47.97666" lon="6.56111">
        <ele>722</ele>
        <time>2018-09-13T06:53:19.000Z</time>
      </trkpt>
      <trkpt lat="47.97666" lon="6.5611">
        <ele>722</ele>
        <time>2018-09-13T06:53:20.000Z</time>
      </trkpt>
      <trkpt lat="47.97666" lon="6.56108">
        <ele>722</ele>
        <time>2018-09-13T06:53:21.000Z</time>
      </trkpt>
      <trkpt lat="47.97665" lon="6.56106">
        <ele>722</ele>
        <time>2018-09-13T06:53:22.000Z</time>
      </trkpt>
      <trkpt lat="47.97665" lon="6.56105">
        <ele>722</ele>
        <time>2018-09-13T06:53:23.000Z</time>
      </trkpt>
      <trkpt lat="47.97664" lon="6.56103">
        <ele>722</ele>
        <time>2018-09-13T06:53:24.000Z</time>
      </trkpt>
      <trkpt lat="47.97663" lon="6.56101">
        <ele>722</ele>
        <time>2018-09-13T06:53:25.000Z</time>
      </trkpt>
      <trkpt lat="47.97662" lon="6.561">
        <ele>722</ele>
        <time>2018-09-13T06:53:26.000Z</time>
      </trkpt>
      <trkpt lat="47.97662" lon="6.56098">
        <ele>722</ele>
        <time>2018-09-13T06:53:27.000Z</time>
      </trkpt>
      <trkpt lat="47.97661" lon="6.56097">
        <ele>722</ele>
        <time>2018-09-13T06:53:28.000Z</time>
      </trkpt>
      <trkpt lat="47.9766" lon="6.56095">
        <ele>722</ele>
        <time>2018-09-13T06:53:29.000Z</time>
      </trkpt>
      <trkpt lat="47.97659" lon="6.56093">
        <ele>721</ele>
        <time>2018-09-13T06:53:30.000Z</time>
      </trkpt>
      <trkpt lat="47.97659" lon="6.56091">
        <ele>721</ele>
        <time>2018-09-13T06:53:31.000Z</time>
      </trkpt>
      <trkpt lat="47.97658" lon="6.56089">
        <ele>721</ele>
        <time>2018-09-13T06:53:32.000Z</time>
      </trkpt>
      <trkpt lat="47.97658" lon="6.56086">
        <ele>721</ele>
        <time>2018-09-13T06:53:33.000Z</time>
      </trkpt>
      <trkpt lat="47.97657" lon="6.56084">
        <ele>721</ele>
        <time>2018-09-13T06:53:34.000Z</time>
      </trkpt>
      <trkpt lat="47.97657" lon="6.56082">
        <ele>721</ele>
        <time>2018-09-13T06:53:35.000Z</time>
      </trkpt>
      <trkpt lat="47.97657" lon="6.56079">
        <ele>720</ele>
        <time>2018-09-13T06:53:36.000Z</time>
      </trkpt>
      <trkpt lat="47.97656" lon="6.56077">
        <ele>720</ele>
        <time>2018-09-13T06:53:37.000Z</time>
      </trkpt>
      <trkpt lat="47.97656" lon="6.56074">
        <ele>720</ele>
        <time>2018-09-13T06:53:38.000Z</time>
      </trkpt>
      <trkpt lat="47.97655" lon="6.56072">
        <ele>720</ele>
        <time>2018-09-13T06:53:39.000Z</time>
      </trkpt>
      <trkpt lat="47.97654" lon="6.56069">
        <ele>719</ele>
        <time>2018-09-13T06:53:40.000Z</time>
      </trkpt>
      <trkpt lat="47.97653" lon="6.56067">
        <ele>719</ele>
        <time>2018-09-13T06:53:41.000Z</time>
      </trkpt>
      <trkpt lat="47.97652" lon="6.56065">
        <ele>719</ele>
        <time>2018-09-13T06:53:42.000Z</time>
      </trkpt>
      <trkpt lat="47.97652" lon="6.56063">
        <ele>719</ele>
        <time>2018-09-13T06:53:43.000Z</time>
      </trkpt>
      <trkpt lat="47.97651" lon="6.56061">
        <ele>719</ele>
        <time>2018-09-13T06:53:44.000Z</time>
      </trkpt>
      <trkpt lat="47.9765" lon="6.56059">
        <ele>718</ele>
        <time>2018-09-13T06:53:45.000Z</time>
      </trkpt>
      <trkpt lat="47.9765" lon="6.56058">
        <ele>718</ele>
        <time>2018-09-13T06:53:46.000Z</time>
      </trkpt>
      <trkpt lat="47.97649" lon="6.56056">
        <ele>718</ele>
        <time>2018-09-13T06:53:47.000Z</time>
      </trkpt>
      <trkpt lat="47.97649" lon="6.56053">
        <ele>718</ele>
        <time>2018-09-13T06:53:48.000Z</time>
      </trkpt>
      <trkpt lat="47.97648" lon="6.56051">
        <ele>718</ele>
        <time>2018-09-13T06:53:49.000Z</time>
      </trkpt>
      <trkpt lat="47.97647" lon="6.56049">
        <ele>717</ele>
        <time>2018-09-13T06:53:50.000Z</time>
      </trkpt>
      <trkpt lat="47.97646" lon="6.56047">
        <ele>717</ele>
        <time>2018-09-13T06:53:51.000Z</time>
      </trkpt>
      <trkpt lat="47.97645" lon="6.56045">
        <ele>717</ele>
        <time>2018-09-13T06:53:52.000Z</time>
      </trkpt>
      <trkpt lat="47.97644" lon="6.56043">
        <ele>717</ele>
        <time>2018-09-13T06:53:53.000Z</time>
      </trkpt>
      <trkpt lat="47.97644" lon="6.5604">
        <ele>717</ele>
        <time>2018-09-13T06:53:54.000Z</time>
      </trkpt>
      <trkpt lat="47.97643" lon="6.56037">
        <ele>717</ele>
        <time>2018-09-13T06:53:55.000Z</time>
      </trkpt>
      <trkpt lat="47.97642" lon="6.56034">
        <ele>717</ele>
        <time>2018-09-13T06:53:56.000Z</time>
      </trkpt>
      <trkpt lat="47.97642" lon="6.56032">
        <ele>717</ele>
        <time>2018-09-13T06:53:57.000Z</time>
      </trkpt>
      <trkpt lat="47.97641" lon="6.56029">
        <ele>717</ele>
        <time>2018-09-13T06:53:58.000Z</time>
      </trkpt>
      <trkpt lat="47.9764" lon="6.56026">
        <ele>717</ele>
        <time>2018-09-13T06:53:59.000Z</time>
      </trkpt>
      <trkpt lat="47.97639" lon="6.56024">
        <ele>717</ele>
        <time>2018-09-13T06:54:00.000Z</time>
      </trkpt>
      <trkpt lat="47.97638" lon="6.56022">
        <ele>716</ele>
        <time>2018-09-13T06:54:01.000Z</time>
      </trkpt>
      <trkpt lat="47.97637" lon="6.56019">
        <ele>716</ele>
        <time>2018-09-13T06:54:02.000Z</time>
      </trkpt>
      <trkpt lat="47.97637" lon="6.56017">
        <ele>716</ele>
        <time>2018-09-13T06:54:03.000Z</time>
      </trkpt>
      <trkpt lat="47.97636" lon="6.56014">
        <ele>716</ele>
        <time>2018-09-13T06:54:04.000Z</time>
      </trkpt>
      <trkpt lat="47.97636" lon="6.56012">
        <ele>716</ele>
        <time>2018-09-13T06:54:05.000Z</time>
      </trkpt>
      <trkpt lat="47.97635" lon="6.56009">
        <ele>716</ele>
        <time>2018-09-13T06:54:06.000Z</time>
      </trkpt>
      <trkpt lat="47.97635" lon="6.56006">
        <ele>716</ele>
        <time>2018-09-13T06:54:07.000Z</time>
      </trkpt>
      <trkpt lat="47.97634" lon="6.56003">
        <ele>715</ele>
        <time>2018-09-13T06:54:08.000Z</time>
      </trkpt>
      <trkpt lat="47.97633" lon="6.56001">
        <ele>715</ele>
        <time>2018-09-13T06:54:09.000Z</time>
      </trkpt>
      <trkpt lat="47.97633" lon="6.55998">
        <ele>715</ele>
        <time>2018-09-13T06:54:10.000Z</time>
      </trkpt>
      <trkpt lat="47.97633" lon="6.55996">
        <ele>715</ele>
        <time>2018-09-13T06:54:11.000Z</time>
      </trkpt>
      <trkpt lat="47.97633" lon="6.55994">
        <ele>715</ele>
        <time>2018-09-13T06:54:12.000Z</time>
      </trkpt>
      <trkpt lat="47.97633" lon="6.55992">
        <ele>715</ele>
        <time>2018-09-13T06:54:13.000Z</time>
      </trkpt>
      <trkpt lat="47.97633" lon="6.55989">
        <ele>715</ele>
        <time>2018-09-13T06:54:14.000Z</time>
      </trkpt>
      <trkpt lat="47.97633" lon="6.55987">
        <ele>715</ele>
        <time>2018-09-13T06:54:15.000Z</time>
      </trkpt>
      <trkpt lat="47.97632" lon="6.55984">
        <ele>714</ele>
        <time>2018-09-13T06:54:16.000Z</time>
      </trkpt>
      <trkpt lat="47.97632" lon="6.55981">
        <ele>714</ele>
        <time>2018-09-13T06:54:17.000Z</time>
      </trkpt>
      <trkpt lat="47.97632" lon="6.55977">
        <ele>714</ele>
        <time>2018-09-13T06:54:18.000Z</time>
      </trkpt>
      <trkpt lat="47.97632" lon="6.55974">
        <ele>714</ele>
        <time>2018-09-13T06:54:19.000Z</time>
      </trkpt>
      <trkpt lat="47.97632" lon="6.55971">
        <ele>714</ele>
        <time>2018-09-13T06:54:20.000Z</time>
      </trkpt>
      <trkpt lat="47.97632" lon="6.55968">
        <ele>714</ele>
        <time>2018-09-13T06:54:21.000Z</time>
      </trkpt>
      <trkpt lat="47.97632" lon="6.55966">
        <ele>714</ele>
        <time>2018-09-13T06:54:22.000Z</time>
      </trkpt>
      <trkpt lat="47.97631" lon="6.55963">
        <ele>714</ele>
        <time>2018-09-13T06:54:23.000Z</time>
      </trkpt>
      <trkpt lat="47.97631" lon="6.55961">
        <ele>713</ele>
        <time>2018-09-13T06:54:24.000Z</time>
      </trkpt>
      <trkpt lat="47.97631" lon="6.55958">
        <ele>713</ele>
        <time>2018-09-13T06:54:25.000Z</time>
      </trkpt>
      <trkpt lat="47.97631" lon="6.55955">
        <ele>713</ele>
        <time>2018-09-13T06:54:26.000Z</time>
      </trkpt>
      <trkpt lat="47.9763" lon="6.55952">
        <ele>713</ele>
        <time>2018-09-13T06:54:27.000Z</time>
      </trkpt>
      <trkpt lat="47.9763" lon="6.55949">
        <ele>713</ele>
        <time>2018-09-13T06:54:28.000Z</time>
      </trkpt>
      <trkpt lat="47.9763" lon="6.55946">
        <ele>713</ele>
        <time>2018-09-13T06:54:29.000Z</time>
      </trkpt>
      <trkpt lat="47.97629" lon="6.55943">
        <ele>713</ele>
        <time>2018-09-13T06:54:30.000Z</time>
      </trkpt>
      <trkpt lat="47.97629" lon="6.55941">
        <ele>713</ele>
        <time>2018-09-13T06:54:31.000Z</time>
      </trkpt>
      <trkpt lat="47.97628" lon="6.55938">
        <ele>713</ele>
        <time>2018-09-13T06:54:32.000Z</time>
      </trkpt>
      <trkpt lat="47.97628" lon="6.55936">
        <ele>713</ele>
        <time>2018-09-13T06:54:33.000Z</time>
      </trkpt>
      <trkpt lat="47.97627" lon="6.55933">
        <ele>713</ele>
        <time>2018-09-13T06:54:34.000Z</time>
      </trkpt>
      <trkpt lat="47.97627" lon="6.55931">
        <ele>714</ele>
        <time>2018-09-13T06:54:35.000Z</time>
      </trkpt>
      <trkpt lat="47.97627" lon="6.55928">
        <ele>714</ele>
        <time>2018-09-13T06:54:36.000Z</time>
      </trkpt>
      <trkpt lat="47.97627" lon="6.55925">
        <ele>714</ele>
        <time>2018-09-13T06:54:37.000Z</time>
      </trkpt>
      <trkpt lat="47.97626" lon="6.55922">
        <ele>713</ele>
        <time>2018-09-13T06:54:38.000Z</time>
      </trkpt>
      <trkpt lat="47.97626" lon="6.5592">
        <ele>713</ele>
        <time>2018-09-13T06:54:39.000Z</time>
      </trkpt>
      <trkpt lat="47.97625" lon="6.55917">
        <ele>713</ele>
        <time>2018-09-13T06:54:40.000Z</time>
      </trkpt>
      <trkpt lat="47.97625" lon="6.55914">
        <ele>713</ele>
        <time>2018-09-13T06:54:41.000Z</time>
      </trkpt>
      <trkpt lat="47.97624" lon="6.55912">
        <ele>713</ele>
        <time>2018-09-13T06:54:42.000Z</time>
      </trkpt>
      <trkpt lat="47.97623" lon="6.55909">
        <ele>713</ele>
        <time>2018-09-13T06:54:43.000Z</time>
      </trkpt>
      <trkpt lat="47.97623" lon="6.55906">
        <ele>713</ele>
        <time>2018-09-13T06:54:44.000Z</time>
      </trkpt>
      <trkpt lat="47.97622" lon="6.55904">
        <ele>713</ele>
        <time>2018-09-13T06:54:45.000Z</time>
      </trkpt>
      <trkpt lat="47.97621" lon="6.55901">
        <ele>713</ele>
        <time>2018-09-13T06:54:46.000Z</time>
      </trkpt>
      <trkpt lat="47.97621" lon="6.55898">
        <ele>713</ele>
        <time>2018-09-13T06:54:47.000Z</time>
      </trkpt>
      <trkpt lat="47.9762" lon="6.55896">
        <ele>713</ele>
        <time>2018-09-13T06:54:48.000Z</time>
      </trkpt>
      <trkpt lat="47.97619" lon="6.55893">
        <ele>713</ele>
        <time>2018-09-13T06:54:49.000Z</time>
      </trkpt>
      <trkpt lat="47.97619" lon="6.5589">
        <ele>713</ele>
        <time>2018-09-13T06:54:50.000Z</time>
      </trkpt>
      <trkpt lat="47.97619" lon="6.55887">
        <ele>712</ele>
        <time>2018-09-13T06:54:51.000Z</time>
      </trkpt>
      <trkpt lat="47.97619" lon="6.55884">
        <ele>712</ele>
        <time>2018-09-13T06:54:52.000Z</time>
      </trkpt>
      <trkpt lat="47.97618" lon="6.55881">
        <ele>712</ele>
        <time>2018-09-13T06:54:53.000Z</time>
      </trkpt>
      <trkpt lat="47.97618" lon="6.55878">
        <ele>712</ele>
        <time>2018-09-13T06:54:54.000Z</time>
      </trkpt>
      <trkpt lat="47.97618" lon="6.55874">
        <ele>712</ele>
        <time>2018-09-13T06:54:55.000Z</time>
      </trkpt>
      <trkpt lat="47.97618" lon="6.55871">
        <ele>712</ele>
        <time>2018-09-13T06:54:56.000Z</time>
      </trkpt>
      <trkpt lat="47.97617" lon="6.55868">
        <ele>711</ele>
        <time>2018-09-13T06:54:57.000Z</time>
      </trkpt>
      <trkpt lat="47.97617" lon="6.55865">
        <ele>711</ele>
        <time>2018-09-13T06:54:58.000Z</time>
      </trkpt>
      <trkpt lat="47.97617" lon="6.55862">
        <ele>711</ele>
        <time>2018-09-13T06:54:59.000Z</time>
      </trkpt>
      <trkpt lat="47.97617" lon="6.55859">
        <ele>711</ele>
        <time>2018-09-13T06:55:00.000Z</time>
      </trkpt>
      <trkpt lat="47.97617" lon="6.55856">
        <ele>711</ele>
        <time>2018-09-13T06:55:01.000Z</time>
      </trkpt>
      <trkpt lat="47.97617" lon="6.55853">
        <ele>711</ele>
        <time>2018-09-13T06:55:02.000Z</time>
      </trkpt>
      <trkpt lat="47.97617" lon="6.5585">
        <ele>710</ele>
        <time>2018-09-13T06:55:03.000Z</time>
      </trkpt>
      <trkpt lat="47.97616" lon="6.55847">
        <ele>710</ele>
        <time>2018-09-13T06:55:04.000Z</time>
      </trkpt>
      <trkpt lat="47.97616" lon="6.55844">
        <ele>710</ele>
        <time>2018-09-13T06:55:05.000Z</time>
      </trkpt>
      <trkpt lat="47.97615" lon="6.55841">
        <ele>710</ele>
        <time>2018-09-13T06:55:06.000Z</time>
      </trkpt>
      <trkpt lat="47.97615" lon="6.55838">
        <ele>710</ele>
        <time>2018-09-13T06:55:07.000Z</time>
      </trkpt>
      <trkpt lat="47.97615" lon="6.55835">
        <ele>710</ele>
        <time>2018-09-13T06:55:08.000Z</time>
      </trkpt>
      <trkpt lat="47.97614" lon="6.55832">
        <ele>710</ele>
        <time>2018-09-13T06:55:09.000Z</time>
      </trkpt>
      <trkpt lat="47.97614" lon="6.5583">
        <ele>710</ele>
        <time>2018-09-13T06:55:10.000Z</time>
      </trkpt>
      <trkpt lat="47.97615" lon="6.55827">
        <ele>710</ele>
        <time>2018-09-13T06:55:11.000Z</time>
      </trkpt>
      <trkpt lat="47.97615" lon="6.55824">
        <ele>710</ele>
        <time>2018-09-13T06:55:12.000Z</time>
      </trkpt>
      <trkpt lat="47.97615" lon="6.55822">
        <ele>710</ele>
        <time>2018-09-13T06:55:13.000Z</time>
      </trkpt>
      <trkpt lat="47.97615" lon="6.5582">
        <ele>710</ele>
        <time>2018-09-13T06:55:14.000Z</time>
      </trkpt>
      <trkpt lat="47.97615" lon="6.55817">
        <ele>710</ele>
        <time>2018-09-13T06:55:15.000Z</time>
      </trkpt>
      <trkpt lat="47.97615" lon="6.55815">
        <ele>710</ele>
        <time>2018-09-13T06:55:16.000Z</time>
      </trkpt>
      <trkpt lat="47.97615" lon="6.55812">
        <ele>710</ele>
        <time>2018-09-13T06:55:17.000Z</time>
      </trkpt>
      <trkpt lat="47.97614" lon="6.55809">
        <ele>710</ele>
        <time>2018-09-13T06:55:18.000Z</time>
      </trkpt>
      <trkpt lat="47.97614" lon="6.55806">
        <ele>710</ele>
        <time>2018-09-13T06:55:19.000Z</time>
      </trkpt>
      <trkpt lat="47.97613" lon="6.55803">
        <ele>710</ele>
        <time>2018-09-13T06:55:20.000Z</time>
      </trkpt>
      <trkpt lat="47.97613" lon="6.55801">
        <ele>710</ele>
        <time>2018-09-13T06:55:21.000Z</time>
      </trkpt>
      <trkpt lat="47.97613" lon="6.55798">
        <ele>710</ele>
        <time>2018-09-13T06:55:22.000Z</time>
      </trkpt>
      <trkpt lat="47.97612" lon="6.55795">
        <ele>710</ele>
        <time>2018-09-13T06:55:23.000Z</time>
      </trkpt>
      <trkpt lat="47.97612" lon="6.55792">
        <ele>710</ele>
        <time>2018-09-13T06:55:24.000Z</time>
      </trkpt>
      <trkpt lat="47.97611" lon="6.55789">
        <ele>710</ele>
        <time>2018-09-13T06:55:25.000Z</time>
      </trkpt>
      <trkpt lat="47.9761" lon="6.55787">
        <ele>710</ele>
        <time>2018-09-13T06:55:26.000Z</time>
      </trkpt>
      <trkpt lat="47.9761" lon="6.55784">
        <ele>710</ele>
        <time>2018-09-13T06:55:27.000Z</time>
      </trkpt>
      <trkpt lat="47.9761" lon="6.55782">
        <ele>710</ele>
        <time>2018-09-13T06:55:28.000Z</time>
      </trkpt>
      <trkpt lat="47.97609" lon="6.5578">
        <ele>710</ele>
        <time>2018-09-13T06:55:29.000Z</time>
      </trkpt>
      <trkpt lat="47.97609" lon="6.55777">
        <ele>710</ele>
        <time>2018-09-13T06:55:30.000Z</time>
      </trkpt>
      <trkpt lat="47.97608" lon="6.55774">
        <ele>710</ele>
        <time>2018-09-13T06:55:31.000Z</time>
      </trkpt>
      <trkpt lat="47.97607" lon="6.55771">
        <ele>710</ele>
        <time>2018-09-13T06:55:32.000Z</time>
      </trkpt>
      <trkpt lat="47.97606" lon="6.55768">
        <ele>710</ele>
        <time>2018-09-13T06:55:33.000Z</time>
      </trkpt>
      <trkpt lat="47.97606" lon="6.55765">
        <ele>710</ele>
        <time>2018-09-13T06:55:34.000Z</time>
      </trkpt>
      <trkpt lat="47.97605" lon="6.55763">
        <ele>710</ele>
        <time>2018-09-13T06:55:35.000Z</time>
      </trkpt>
      <trkpt lat="47.97604" lon="6.5576">
        <ele>710</ele>
        <time>2018-09-13T06:55:36.000Z</time>
      </trkpt>
      <trkpt lat="47.97604" lon="6.55757">
        <ele>710</ele>
        <time>2018-09-13T06:55:37.000Z</time>
      </trkpt>
      <trkpt lat="47.97603" lon="6.55754">
        <ele>711</ele>
        <time>2018-09-13T06:55:38.000Z</time>
      </trkpt>
      <trkpt lat="47.97602" lon="6.55752">
        <ele>711</ele>
        <time>2018-09-13T06:55:39.000Z</time>
      </trkpt>
      <trkpt lat="47.97601" lon="6.55749">
        <ele>711</ele>
        <time>2018-09-13T06:55:40.000Z</time>
      </trkpt>
      <trkpt lat="47.97601" lon="6.55745">
        <ele>711</ele>
        <time>2018-09-13T06:55:41.000Z</time>
      </trkpt>
      <trkpt lat="47.976" lon="6.55742">
        <ele>711</ele>
        <time>2018-09-13T06:55:42.000Z</time>
      </trkpt>
      <trkpt lat="47.97599" lon="6.55739">
        <ele>711</ele>
        <time>2018-09-13T06:55:43.000Z</time>
      </trkpt>
      <trkpt lat="47.97599" lon="6.55736">
        <ele>711</ele>
        <time>2018-09-13T06:55:44.000Z</time>
      </trkpt>
      <trkpt lat="47.97598" lon="6.55733">
        <ele>711</ele>
        <time>2018-09-13T06:55:45.000Z</time>
      </trkpt>
      <trkpt lat="47.97597" lon="6.5573">
        <ele>711</ele>
        <time>2018-09-13T06:55:46.000Z</time>
      </trkpt>
      <trkpt lat="47.97596" lon="6.55727">
        <ele>711</ele>
        <time>2018-09-13T06:55:47.000Z</time>
      </trkpt>
      <trkpt lat="47.97595" lon="6.55724">
        <ele>711</ele>
        <time>2018-09-13T06:55:48.000Z</time>
      </trkpt>
      <trkpt lat="47.97595" lon="6.55722">
        <ele>712</ele>
        <time>2018-09-13T06:55:49.000Z</time>
      </trkpt>
      <trkpt lat="47.97594" lon="6.55719">
        <ele>712</ele>
        <time>2018-09-13T06:55:50.000Z</time>
      </trkpt>
      <trkpt lat="47.97594" lon="6.55716">
        <ele>712</ele>
        <time>2018-09-13T06:55:51.000Z</time>
      </trkpt>
      <trkpt lat="47.97593" lon="6.55713">
        <ele>712</ele>
        <time>2018-09-13T06:55:52.000Z</time>
      </trkpt>
      <trkpt lat="47.97592" lon="6.55709">
        <ele>712</ele>
        <time>2018-09-13T06:55:53.000Z</time>
      </trkpt>
      <trkpt lat="47.97592" lon="6.55706">
        <ele>712</ele>
        <time>2018-09-13T06:55:54.000Z</time>
      </trkpt>
      <trkpt lat="47.97591" lon="6.55702">
        <ele>712</ele>
        <time>2018-09-13T06:55:55.000Z</time>
      </trkpt>
      <trkpt lat="47.9759" lon="6.55698">
        <ele>712</ele>
        <time>2018-09-13T06:55:56.000Z</time>
      </trkpt>
      <trkpt lat="47.9759" lon="6.55695">
        <ele>712</ele>
        <time>2018-09-13T06:55:57.000Z</time>
      </trkpt>
      <trkpt lat="47.9759" lon="6.55691">
        <ele>712</ele>
        <time>2018-09-13T06:55:58.000Z</time>
      </trkpt>
      <trkpt lat="47.9759" lon="6.55688">
        <ele>711</ele>
        <time>2018-09-13T06:55:59.000Z</time>
      </trkpt>
      <trkpt lat="47.97591" lon="6.55685">
        <ele>711</ele>
        <time>2018-09-13T06:56:00.000Z</time>
      </trkpt>
      <trkpt lat="47.97592" lon="6.55682">
        <ele>711</ele>
        <time>2018-09-13T06:56:01.000Z</time>
      </trkpt>
      <trkpt lat="47.97593" lon="6.55679">
        <ele>711</ele>
        <time>2018-09-13T06:56:02.000Z</time>
      </trkpt>
      <trkpt lat="47.97594" lon="6.55677">
        <ele>711</ele>
        <time>2018-09-13T06:56:03.000Z</time>
      </trkpt>
      <trkpt lat="47.97596" lon="6.55674">
        <ele>711</ele>
        <time>2018-09-13T06:56:04.000Z</time>
      </trkpt>
      <trkpt lat="47.97597" lon="6.55671">
        <ele>711</ele>
        <time>2018-09-13T06:56:05.000Z</time>
      </trkpt>
      <trkpt lat="47.97599" lon="6.55669">
        <ele>711</ele>
        <time>2018-09-13T06:56:06.000Z</time>
      </trkpt>
      <trkpt lat="47.976" lon="6.55667">
        <ele>711</ele>
        <time>2018-09-13T06:56:07.000Z</time>
      </trkpt>
      <trkpt lat="47.97602" lon="6.55665">
        <ele>711</ele>
        <time>2018-09-13T06:56:08.000Z</time>
      </trkpt>
      <trkpt lat="47.97604" lon="6.55663">
        <ele>710</ele>
        <time>2018-09-13T06:56:09.000Z</time>
      </trkpt>
      <trkpt lat="47.97606" lon="6.55662">
        <ele>710</ele>
        <time>2018-09-13T06:56:10.000Z</time>
      </trkpt>
      <trkpt lat="47.97608" lon="6.55661">
        <ele>710</ele>
        <time>2018-09-13T06:56:11.000Z</time>
      </trkpt>
      <trkpt lat="47.9761" lon="6.55659">
        <ele>710</ele>
        <time>2018-09-13T06:56:12.000Z</time>
      </trkpt>
      <trkpt lat="47.97612" lon="6.55658">
        <ele>710</ele>
        <time>2018-09-13T06:56:13.000Z</time>
      </trkpt>
      <trkpt lat="47.97614" lon="6.55656">
        <ele>710</ele>
        <time>2018-09-13T06:56:14.000Z</time>
      </trkpt>
      <trkpt lat="47.97616" lon="6.55654">
        <ele>710</ele>
        <time>2018-09-13T06:56:15.000Z</time>
      </trkpt>
      <trkpt lat="47.97618" lon="6.55651">
        <ele>710</ele>
        <time>2018-09-13T06:56:16.000Z</time>
      </trkpt>
      <trkpt lat="47.97619" lon="6.55649">
        <ele>709</ele>
        <time>2018-09-13T06:56:17.000Z</time>
      </trkpt>
      <trkpt lat="47.97621" lon="6.55646">
        <ele>709</ele>
        <time>2018-09-13T06:56:18.000Z</time>
      </trkpt>
      <trkpt lat="47.97622" lon="6.55643">
        <ele>709</ele>
        <time>2018-09-13T06:56:19.000Z</time>
      </trkpt>
      <trkpt lat="47.97623" lon="6.55641">
        <ele>709</ele>
        <time>2018-09-13T06:56:20.000Z</time>
      </trkpt>
      <trkpt lat="47.97624" lon="6.55638">
        <ele>709</ele>
        <time>2018-09-13T06:56:21.000Z</time>
      </trkpt>
      <trkpt lat="47.97625" lon="6.55635">
        <ele>708</ele>
        <time>2018-09-13T06:56:22.000Z</time>
      </trkpt>
      <trkpt lat="47.97625" lon="6.55633">
        <ele>708</ele>
        <time>2018-09-13T06:56:23.000Z</time>
      </trkpt>
      <trkpt lat="47.97626" lon="6.5563">
        <ele>708</ele>
        <time>2018-09-13T06:56:24.000Z</time>
      </trkpt>
      <trkpt lat="47.97627" lon="6.55627">
        <ele>708</ele>
        <time>2018-09-13T06:56:25.000Z</time>
      </trkpt>
      <trkpt lat="47.97627" lon="6.55624">
        <ele>708</ele>
        <time>2018-09-13T06:56:26.000Z</time>
      </trkpt>
      <trkpt lat="47.97628" lon="6.5562">
        <ele>707</ele>
        <time>2018-09-13T06:56:27.000Z</time>
      </trkpt>
      <trkpt lat="47.97628" lon="6.55617">
        <ele>707</ele>
        <time>2018-09-13T06:56:28.000Z</time>
      </trkpt>
      <trkpt lat="47.97628" lon="6.55614">
        <ele>707</ele>
        <time>2018-09-13T06:56:29.000Z</time>
      </trkpt>
      <trkpt lat="47.97628" lon="6.55611">
        <ele>707</ele>
        <time>2018-09-13T06:56:30.000Z</time>
      </trkpt>
      <trkpt lat="47.97629" lon="6.55608">
        <ele>707</ele>
        <time>2018-09-13T06:56:31.000Z</time>
      </trkpt>
      <trkpt lat="47.97629" lon="6.55605">
        <ele>706</ele>
        <time>2018-09-13T06:56:32.000Z</time>
      </trkpt>
      <trkpt lat="47.97629" lon="6.55602">
        <ele>706</ele>
        <time>2018-09-13T06:56:33.000Z</time>
      </trkpt>
      <trkpt lat="47.97628" lon="6.55599">
        <ele>706</ele>
        <time>2018-09-13T06:56:34.000Z</time>
      </trkpt>
      <trkpt lat="47.97628" lon="6.55595">
        <ele>706</ele>
        <time>2018-09-13T06:56:35.000Z</time>
      </trkpt>
      <trkpt lat="47.97628" lon="6.55592">
        <ele>705</ele>
        <time>2018-09-13T06:56:36.000Z</time>
      </trkpt>
      <trkpt lat="47.97627" lon="6.55589">
        <ele>705</ele>
        <time>2018-09-13T06:56:37.000Z</time>
      </trkpt>
      <trkpt lat="47.97626" lon="6.55585">
        <ele>705</ele>
        <time>2018-09-13T06:56:38.000Z</time>
      </trkpt>
      <trkpt lat="47.97625" lon="6.55582">
        <ele>705</ele>
        <time>2018-09-13T06:56:39.000Z</time>
      </trkpt>
      <trkpt lat="47.97625" lon="6.55578">
        <ele>705</ele>
        <time>2018-09-13T06:56:40.000Z</time>
      </trkpt>
      <trkpt lat="47.97624" lon="6.55574">
        <ele>704</ele>
        <time>2018-09-13T06:56:41.000Z</time>
      </trkpt>
      <trkpt lat="47.97624" lon="6.55571">
        <ele>704</ele>
        <time>2018-09-13T06:56:42.000Z</time>
      </trkpt>
      <trkpt lat="47.97624" lon="6.55566">
        <ele>704</ele>
        <time>2018-09-13T06:56:43.000Z</time>
      </trkpt>
      <trkpt lat="47.97623" lon="6.55562">
        <ele>704</ele>
        <time>2018-09-13T06:56:44.000Z</time>
      </trkpt>
      <trkpt lat="47.97623" lon="6.55559">
        <ele>704</ele>
        <time>2018-09-13T06:56:45.000Z</time>
      </trkpt>
      <trkpt lat="47.97623" lon="6.55555">
        <ele>704</ele>
        <time>2018-09-13T06:56:46.000Z</time>
      </trkpt>
      <trkpt lat="47.97622" lon="6.55552">
        <ele>703</ele>
        <time>2018-09-13T06:56:47.000Z</time>
      </trkpt>
      <trkpt lat="47.97621" lon="6.55549">
        <ele>703</ele>
        <time>2018-09-13T06:56:48.000Z</time>
      </trkpt>
      <trkpt lat="47.97621" lon="6.55546">
        <ele>703</ele>
        <time>2018-09-13T06:56:49.000Z</time>
      </trkpt>
      <trkpt lat="47.97621" lon="6.55542">
        <ele>703</ele>
        <time>2018-09-13T06:56:50.000Z</time>
      </trkpt>
      <trkpt lat="47.97621" lon="6.55539">
        <ele>703</ele>
        <time>2018-09-13T06:56:51.000Z</time>
      </trkpt>
      <trkpt lat="47.97621" lon="6.55536">
        <ele>702</ele>
        <time>2018-09-13T06:56:52.000Z</time>
      </trkpt>
      <trkpt lat="47.9762" lon="6.55532">
        <ele>702</ele>
        <time>2018-09-13T06:56:53.000Z</time>
      </trkpt>
      <trkpt lat="47.9762" lon="6.55529">
        <ele>702</ele>
        <time>2018-09-13T06:56:54.000Z</time>
      </trkpt>
      <trkpt lat="47.97619" lon="6.55525">
        <ele>702</ele>
        <time>2018-09-13T06:56:55.000Z</time>
      </trkpt>
      <trkpt lat="47.97618" lon="6.55522">
        <ele>702</ele>
        <time>2018-09-13T06:56:56.000Z</time>
      </trkpt>
      <trkpt lat="47.97618" lon="6.55518">
        <ele>702</ele>
        <time>2018-09-13T06:56:57.000Z</time>
      </trkpt>
      <trkpt lat="47.97617" lon="6.55516">
        <ele>701</ele>
        <time>2018-09-13T06:56:58.000Z</time>
      </trkpt>
      <trkpt lat="47.97616" lon="6.55513">
        <ele>701</ele>
        <time>2018-09-13T06:56:59.000Z</time>
      </trkpt>
      <trkpt lat="47.97616" lon="6.5551">
        <ele>701</ele>
        <time>2018-09-13T06:57:00.000Z</time>
      </trkpt>
      <trkpt lat="47.97615" lon="6.55506">
        <ele>701</ele>
        <time>2018-09-13T06:57:01.000Z</time>
      </trkpt>
      <trkpt lat="47.97614" lon="6.55503">
        <ele>700</ele>
        <time>2018-09-13T06:57:02.000Z</time>
      </trkpt>
      <trkpt lat="47.97613" lon="6.555">
        <ele>700</ele>
        <time>2018-09-13T06:57:03.000Z</time>
      </trkpt>
      <trkpt lat="47.97613" lon="6.55496">
        <ele>700</ele>
        <time>2018-09-13T06:57:04.000Z</time>
      </trkpt>
      <trkpt lat="47.97612" lon="6.55493">
        <ele>700</ele>
        <time>2018-09-13T06:57:05.000Z</time>
      </trkpt>
      <trkpt lat="47.97612" lon="6.5549">
        <ele>699</ele>
        <time>2018-09-13T06:57:06.000Z</time>
      </trkpt>
      <trkpt lat="47.97612" lon="6.55488">
        <ele>699</ele>
        <time>2018-09-13T06:57:07.000Z</time>
      </trkpt>
      <trkpt lat="47.97611" lon="6.55485">
        <ele>699</ele>
        <time>2018-09-13T06:57:08.000Z</time>
      </trkpt>
      <trkpt lat="47.97612" lon="6.55483">
        <ele>699</ele>
        <time>2018-09-13T06:57:09.000Z</time>
      </trkpt>
      <trkpt lat="47.97612" lon="6.5548">
        <ele>699</ele>
        <time>2018-09-13T06:57:10.000Z</time>
      </trkpt>
      <trkpt lat="47.97613" lon="6.55477">
        <ele>698</ele>
        <time>2018-09-13T06:57:11.000Z</time>
      </trkpt>
      <trkpt lat="47.97614" lon="6.55474">
        <ele>698</ele>
        <time>2018-09-13T06:57:12.000Z</time>
      </trkpt>
      <trkpt lat="47.97615" lon="6.55471">
        <ele>698</ele>
        <time>2018-09-13T06:57:13.000Z</time>
      </trkpt>
      <trkpt lat="47.97615" lon="6.55469">
        <ele>698</ele>
        <time>2018-09-13T06:57:14.000Z</time>
      </trkpt>
      <trkpt lat="47.97616" lon="6.55466">
        <ele>697</ele>
        <time>2018-09-13T06:57:15.000Z</time>
      </trkpt>
      <trkpt lat="47.97617" lon="6.55462">
        <ele>697</ele>
        <time>2018-09-13T06:57:16.000Z</time>
      </trkpt>
      <trkpt lat="47.97618" lon="6.55459">
        <ele>697</ele>
        <time>2018-09-13T06:57:17.000Z</time>
      </trkpt>
      <trkpt lat="47.97619" lon="6.55456">
        <ele>696</ele>
        <time>2018-09-13T06:57:18.000Z</time>
      </trkpt>
      <trkpt lat="47.9762" lon="6.55453">
        <ele>696</ele>
        <time>2018-09-13T06:57:19.000Z</time>
      </trkpt>
      <trkpt lat="47.9762" lon="6.55449">
        <ele>695</ele>
        <time>2018-09-13T06:57:20.000Z</time>
      </trkpt>
      <trkpt lat="47.97621" lon="6.55445">
        <ele>695</ele>
        <time>2018-09-13T06:57:21.000Z</time>
      </trkpt>
      <trkpt lat="47.97621" lon="6.55441">
        <ele>695</ele>
        <time>2018-09-13T06:57:22.000Z</time>
      </trkpt>
      <trkpt lat="47.97621" lon="6.55436">
        <ele>694</ele>
        <time>2018-09-13T06:57:23.000Z</time>
      </trkpt>
      <trkpt lat="47.97622" lon="6.55432">
        <ele>694</ele>
        <time>2018-09-13T06:57:24.000Z</time>
      </trkpt>
      <trkpt lat="47.97622" lon="6.55427">
        <ele>694</ele>
        <time>2018-09-13T06:57:25.000Z</time>
      </trkpt>
      <trkpt lat="47.97623" lon="6.55423">
        <ele>693</ele>
        <time>2018-09-13T06:57:26.000Z</time>
      </trkpt>
      <trkpt lat="47.97624" lon="6.55418">
        <ele>693</ele>
        <time>2018-09-13T06:57:27.000Z</time>
      </trkpt>
      <trkpt lat="47.97625" lon="6.55413">
        <ele>693</ele>
        <time>2018-09-13T06:57:28.000Z</time>
      </trkpt>
      <trkpt lat="47.97626" lon="6.55409">
        <ele>693</ele>
        <time>2018-09-13T06:57:29.000Z</time>
      </trkpt>
      <trkpt lat="47.97627" lon="6.55406">
        <ele>692</ele>
        <time>2018-09-13T06:57:30.000Z</time>
      </trkpt>
      <trkpt lat="47.97628" lon="6.55402">
        <ele>692</ele>
        <time>2018-09-13T06:57:31.000Z</time>
      </trkpt>
      <trkpt lat="47.97629" lon="6.554">
        <ele>692</ele>
        <time>2018-09-13T06:57:32.000Z</time>
      </trkpt>
      <trkpt lat="47.9763" lon="6.55398">
        <ele>691</ele>
        <time>2018-09-13T06:57:33.000Z</time>
      </trkpt>
      <trkpt lat="47.97632" lon="6.55396">
        <ele>691</ele>
        <time>2018-09-13T06:57:34.000Z</time>
      </trkpt>
      <trkpt lat="47.97633" lon="6.55395">
        <ele>691</ele>
        <time>2018-09-13T06:57:35.000Z</time>
      </trkpt>
      <trkpt lat="47.97635" lon="6.55396">
        <ele>690</ele>
        <time>2018-09-13T06:57:36.000Z</time>
      </trkpt>
      <trkpt lat="47.97638" lon="6.55397">
        <ele>689</ele>
        <time>2018-09-13T06:57:37.000Z</time>
      </trkpt>
      <trkpt lat="47.9764" lon="6.55399">
        <ele>688</ele>
        <time>2018-09-13T06:57:38.000Z</time>
      </trkpt>
      <trkpt lat="47.97643" lon="6.55401">
        <ele>687</ele>
        <time>2018-09-13T06:57:39.000Z</time>
      </trkpt>
      <trkpt lat="47.97645" lon="6.55404">
        <ele>687</ele>
        <time>2018-09-13T06:57:40.000Z</time>
      </trkpt>
      <trkpt lat="47.97647" lon="6.55407">
        <ele>686</ele>
        <time>2018-09-13T06:57:41.000Z</time>
      </trkpt>
      <trkpt lat="47.97649" lon="6.55409">
        <ele>685</ele>
        <time>2018-09-13T06:57:42.000Z</time>
      </trkpt>
      <trkpt lat="47.97651" lon="6.55412">
        <ele>684</ele>
        <time>2018-09-13T06:57:43.000Z</time>
      </trkpt>
      <trkpt lat="47.97653" lon="6.55415">
        <ele>683</ele>
        <time>2018-09-13T06:57:44.000Z</time>
      </trkpt>
      <trkpt lat="47.97654" lon="6.55417">
        <ele>682</ele>
        <time>2018-09-13T06:57:45.000Z</time>
      </trkpt>
      <trkpt lat="47.97656" lon="6.5542">
        <ele>682</ele>
        <time>2018-09-13T06:57:46.000Z</time>
      </trkpt>
      <trkpt lat="47.97658" lon="6.55422">
        <ele>681</ele>
        <time>2018-09-13T06:57:47.000Z</time>
      </trkpt>
      <trkpt lat="47.97659" lon="6.55424">
        <ele>681</ele>
        <time>2018-09-13T06:57:48.000Z</time>
      </trkpt>
      <trkpt lat="47.97661" lon="6.55427">
        <ele>680</ele>
        <time>2018-09-13T06:57:49.000Z</time>
      </trkpt>
      <trkpt lat="47.97662" lon="6.55429">
        <ele>679</ele>
        <time>2018-09-13T06:57:50.000Z</time>
      </trkpt>
      <trkpt lat="47.97664" lon="6.55432">
        <ele>679</ele>
        <time>2018-09-13T06:57:51.000Z</time>
      </trkpt>
      <trkpt lat="47.97665" lon="6.55434">
        <ele>678</ele>
        <time>2018-09-13T06:57:52.000Z</time>
      </trkpt>
      <trkpt lat="47.97666" lon="6.55436">
        <ele>678</ele>
        <time>2018-09-13T06:57:53.000Z</time>
      </trkpt>
      <trkpt lat="47.97667" lon="6.55438">
        <ele>677</ele>
        <time>2018-09-13T06:57:54.000Z</time>
      </trkpt>
      <trkpt lat="47.97668" lon="6.55439">
        <ele>677</ele>
        <time>2018-09-13T06:57:55.000Z</time>
      </trkpt>
      <trkpt lat="47.9767" lon="6.5544">
        <ele>676</ele>
        <time>2018-09-13T06:57:56.000Z</time>
      </trkpt>
      <trkpt lat="47.97672" lon="6.55441">
        <ele>676</ele>
        <time>2018-09-13T06:57:57.000Z</time>
      </trkpt>
      <trkpt lat="47.97673" lon="6.55442">
        <ele>675</ele>
        <time>2018-09-13T06:57:58.000Z</time>
      </trkpt>
      <trkpt lat="47.97675" lon="6.55444">
        <ele>675</ele>
        <time>2018-09-13T06:57:59.000Z</time>
      </trkpt>
      <trkpt lat="47.97677" lon="6.55445">
        <ele>675</ele>
        <time>2018-09-13T06:58:00.000Z</time>
      </trkpt>
      <trkpt lat="47.97679" lon="6.55447">
        <ele>674</ele>
        <time>2018-09-13T06:58:01.000Z</time>
      </trkpt>
      <trkpt lat="47.9768" lon="6.55448">
        <ele>674</ele>
        <time>2018-09-13T06:58:02.000Z</time>
      </trkpt>
      <trkpt lat="47.97682" lon="6.55449">
        <ele>674</ele>
        <time>2018-09-13T06:58:03.000Z</time>
      </trkpt>
      <trkpt lat="47.97684" lon="6.55451">
        <ele>673</ele>
        <time>2018-09-13T06:58:04.000Z</time>
      </trkpt>
      <trkpt lat="47.97685" lon="6.55452">
        <ele>673</ele>
        <time>2018-09-13T06:58:05.000Z</time>
      </trkpt>
      <trkpt lat="47.97686" lon="6.55454">
        <ele>672</ele>
        <time>2018-09-13T06:58:06.000Z</time>
      </trkpt>
      <trkpt lat="47.97688" lon="6.55455">
        <ele>672</ele>
        <time>2018-09-13T06:58:07.000Z</time>
      </trkpt>
      <trkpt lat="47.97689" lon="6.55456">
        <ele>672</ele>
        <time>2018-09-13T06:58:08.000Z</time>
      </trkpt>
      <trkpt lat="47.9769" lon="6.55457">
        <ele>671</ele>
        <time>2018-09-13T06:58:09.000Z</time>
      </trkpt>
      <trkpt lat="47.97692" lon="6.55458">
        <ele>671</ele>
        <time>2018-09-13T06:58:10.000Z</time>
      </trkpt>
      <trkpt lat="47.97694" lon="6.55458">
        <ele>670</ele>
        <time>2018-09-13T06:58:11.000Z</time>
      </trkpt>
      <trkpt lat="47.97695" lon="6.55459">
        <ele>670</ele>
        <time>2018-09-13T06:58:12.000Z</time>
      </trkpt>
      <trkpt lat="47.97697" lon="6.5546">
        <ele>669</ele>
        <time>2018-09-13T06:58:13.000Z</time>
      </trkpt>
      <trkpt lat="47.97698" lon="6.55461">
        <ele>669</ele>
        <time>2018-09-13T06:58:14.000Z</time>
      </trkpt>
      <trkpt lat="47.977" lon="6.55462">
        <ele>669</ele>
        <time>2018-09-13T06:58:15.000Z</time>
      </trkpt>
      <trkpt lat="47.97701" lon="6.55463">
        <ele>668</ele>
        <time>2018-09-13T06:58:16.000Z</time>
      </trkpt>
      <trkpt lat="47.97703" lon="6.55464">
        <ele>668</ele>
        <time>2018-09-13T06:58:17.000Z</time>
      </trkpt>
      <trkpt lat="47.97704" lon="6.55464">
        <ele>668</ele>
        <time>2018-09-13T06:58:18.000Z</time>
      </trkpt>
      <trkpt lat="47.97706" lon="6.55465">
        <ele>668</ele>
        <time>2018-09-13T06:58:19.000Z</time>
      </trkpt>
      <trkpt lat="47.97707" lon="6.55466">
        <ele>667</ele>
        <time>2018-09-13T06:58:20.000Z</time>
      </trkpt>
      <trkpt lat="47.97709" lon="6.55467">
        <ele>667</ele>
        <time>2018-09-13T06:58:21.000Z</time>
      </trkpt>
      <trkpt lat="47.97711" lon="6.55467">
        <ele>667</ele>
        <time>2018-09-13T06:58:22.000Z</time>
      </trkpt>
      <trkpt lat="47.97712" lon="6.55468">
        <ele>667</ele>
        <time>2018-09-13T06:58:23.000Z</time>
      </trkpt>
      <trkpt lat="47.97714" lon="6.55468">
        <ele>666</ele>
        <time>2018-09-13T06:58:24.000Z</time>
      </trkpt>
      <trkpt lat="47.97716" lon="6.55468">
        <ele>666</ele>
        <time>2018-09-13T06:58:25.000Z</time>
      </trkpt>
      <trkpt lat="47.97718" lon="6.55469">
        <ele>666</ele>
        <time>2018-09-13T06:58:26.000Z</time>
      </trkpt>
      <trkpt lat="47.97719" lon="6.55469">
        <ele>665</ele>
        <time>2018-09-13T06:58:27.000Z</time>
      </trkpt>
      <trkpt lat="47.97721" lon="6.55468">
        <ele>665</ele>
        <time>2018-09-13T06:58:28.000Z</time>
      </trkpt>
      <trkpt lat="47.97722" lon="6.55469">
        <ele>665</ele>
        <time>2018-09-13T06:58:29.000Z</time>
      </trkpt>
      <trkpt lat="47.97724" lon="6.55469">
        <ele>664</ele>
        <time>2018-09-13T06:58:30.000Z</time>
      </trkpt>
      <trkpt lat="47.97727" lon="6.55469">
        <ele>664</ele>
        <time>2018-09-13T06:58:31.000Z</time>
      </trkpt>
      <trkpt lat="47.9773" lon="6.55471">
        <ele>664</ele>
        <time>2018-09-13T06:58:32.000Z</time>
      </trkpt>
      <trkpt lat="47.97733" lon="6.55473">
        <ele>663</ele>
        <time>2018-09-13T06:58:33.000Z</time>
      </trkpt>
      <trkpt lat="47.97736" lon="6.55475">
        <ele>663</ele>
        <time>2018-09-13T06:58:34.000Z</time>
      </trkpt>
      <trkpt lat="47.97738" lon="6.55478">
        <ele>663</ele>
        <time>2018-09-13T06:58:35.000Z</time>
      </trkpt>
      <trkpt lat="47.9774" lon="6.5548">
        <ele>662</ele>
        <time>2018-09-13T06:58:36.000Z</time>
      </trkpt>
      <trkpt lat="47.97743" lon="6.55482">
        <ele>661</ele>
        <time>2018-09-13T06:58:37.000Z</time>
      </trkpt>
      <trkpt lat="47.97745" lon="6.55485">
        <ele>661</ele>
        <time>2018-09-13T06:58:38.000Z</time>
      </trkpt>
      <trkpt lat="47.97747" lon="6.55487">
        <ele>660</ele>
        <time>2018-09-13T06:58:39.000Z</time>
      </trkpt>
      <trkpt lat="47.97748" lon="6.55489">
        <ele>660</ele>
        <time>2018-09-13T06:58:40.000Z</time>
      </trkpt>
      <trkpt lat="47.9775" lon="6.55491">
        <ele>659</ele>
        <time>2018-09-13T06:58:41.000Z</time>
      </trkpt>
      <trkpt lat="47.97752" lon="6.55494">
        <ele>659</ele>
        <time>2018-09-13T06:58:42.000Z</time>
      </trkpt>
      <trkpt lat="47.97754" lon="6.55496">
        <ele>658</ele>
        <time>2018-09-13T06:58:43.000Z</time>
      </trkpt>
      <trkpt lat="47.97756" lon="6.55498">
        <ele>658</ele>
        <time>2018-09-13T06:58:44.000Z</time>
      </trkpt>
      <trkpt lat="47.97757" lon="6.555">
        <ele>657</ele>
        <time>2018-09-13T06:58:45.000Z</time>
      </trkpt>
      <trkpt lat="47.97759" lon="6.55503">
        <ele>657</ele>
        <time>2018-09-13T06:58:46.000Z</time>
      </trkpt>
      <trkpt lat="47.9776" lon="6.55505">
        <ele>656</ele>
        <time>2018-09-13T06:58:47.000Z</time>
      </trkpt>
      <trkpt lat="47.97762" lon="6.55507">
        <ele>656</ele>
        <time>2018-09-13T06:58:48.000Z</time>
      </trkpt>
      <trkpt lat="47.97763" lon="6.55508">
        <ele>655</ele>
        <time>2018-09-13T06:58:49.000Z</time>
      </trkpt>
      <trkpt lat="47.97764" lon="6.5551">
        <ele>655</ele>
        <time>2018-09-13T06:58:50.000Z</time>
      </trkpt>
      <trkpt lat="47.97766" lon="6.55512">
        <ele>654</ele>
        <time>2018-09-13T06:58:51.000Z</time>
      </trkpt>
      <trkpt lat="47.97767" lon="6.55514">
        <ele>654</ele>
        <time>2018-09-13T06:58:52.000Z</time>
      </trkpt>
      <trkpt lat="47.97769" lon="6.55515">
        <ele>654</ele>
        <time>2018-09-13T06:58:53.000Z</time>
      </trkpt>
      <trkpt lat="47.9777" lon="6.55517">
        <ele>653</ele>
        <time>2018-09-13T06:58:54.000Z</time>
      </trkpt>
      <trkpt lat="47.97772" lon="6.55518">
        <ele>653</ele>
        <time>2018-09-13T06:58:55.000Z</time>
      </trkpt>
      <trkpt lat="47.97773" lon="6.55519">
        <ele>652</ele>
        <time>2018-09-13T06:58:56.000Z</time>
      </trkpt>
      <trkpt lat="47.97774" lon="6.55521">
        <ele>652</ele>
        <time>2018-09-13T06:58:57.000Z</time>
      </trkpt>
      <trkpt lat="47.97776" lon="6.55522">
        <ele>652</ele>
        <time>2018-09-13T06:58:58.000Z</time>
      </trkpt>
      <trkpt lat="47.97777" lon="6.55523">
        <ele>651</ele>
        <time>2018-09-13T06:58:59.000Z</time>
      </trkpt>
      <trkpt lat="47.97779" lon="6.55524">
        <ele>651</ele>
        <time>2018-09-13T06:59:00.000Z</time>
      </trkpt>
      <trkpt lat="47.9778" lon="6.55526">
        <ele>651</ele>
        <time>2018-09-13T06:59:01.000Z</time>
      </trkpt>
      <trkpt lat="47.97782" lon="6.55527">
        <ele>650</ele>
        <time>2018-09-13T06:59:02.000Z</time>
      </trkpt>
      <trkpt lat="47.97783" lon="6.55528">
        <ele>650</ele>
        <time>2018-09-13T06:59:03.000Z</time>
      </trkpt>
      <trkpt lat="47.97784" lon="6.55529">
        <ele>649</ele>
        <time>2018-09-13T06:59:04.000Z</time>
      </trkpt>
      <trkpt lat="47.97786" lon="6.5553">
        <ele>649</ele>
        <time>2018-09-13T06:59:05.000Z</time>
      </trkpt>
      <trkpt lat="47.97787" lon="6.5553">
        <ele>649</ele>
        <time>2018-09-13T06:59:06.000Z</time>
      </trkpt>
      <trkpt lat="47.97789" lon="6.55531">
        <ele>648</ele>
        <time>2018-09-13T06:59:07.000Z</time>
      </trkpt>
      <trkpt lat="47.97791" lon="6.55531">
        <ele>648</ele>
        <time>2018-09-13T06:59:08.000Z</time>
      </trkpt>
      <trkpt lat="47.97792" lon="6.5553">
        <ele>647</ele>
        <time>2018-09-13T06:59:09.000Z</time>
      </trkpt>
      <trkpt lat="47.97794" lon="6.5553">
        <ele>647</ele>
        <time>2018-09-13T06:59:10.000Z</time>
      </trkpt>
      <trkpt lat="47.97796" lon="6.5553">
        <ele>647</ele>
        <time>2018-09-13T06:59:11.000Z</time>
      </trkpt>
      <trkpt lat="47.97797" lon="6.55529">
        <ele>646</ele>
        <time>2018-09-13T06:59:12.000Z</time>
      </trkpt>
      <trkpt lat="47.97799" lon="6.55529">
        <ele>646</ele>
        <time>2018-09-13T06:59:13.000Z</time>
      </trkpt>
      <trkpt lat="47.978" lon="6.55529">
        <ele>646</ele>
        <time>2018-09-13T06:59:14.000Z</time>
      </trkpt>
      <trkpt lat="47.97801" lon="6.55528">
        <ele>645</ele>
        <time>2018-09-13T06:59:15.000Z</time>
      </trkpt>
      <trkpt lat="47.97802" lon="6.55528">
        <ele>645</ele>
        <time>2018-09-13T06:59:16.000Z</time>
      </trkpt>
      <trkpt lat="47.97803" lon="6.55527">
        <ele>645</ele>
        <time>2018-09-13T06:59:17.000Z</time>
      </trkpt>
      <trkpt lat="47.97804" lon="6.55526">
        <ele>645</ele>
        <time>2018-09-13T06:59:18.000Z</time>
      </trkpt>
      <trkpt lat="47.97804" lon="6.55526">
        <ele>645</ele>
        <time>2018-09-13T06:59:19.000Z</time>
      </trkpt>
      <trkpt lat="47.97804" lon="6.55525">
        <ele>644</ele>
        <time>2018-09-13T06:59:20.000Z</time>
      </trkpt>
      <trkpt lat="47.97805" lon="6.55524">
        <ele>644</ele>
        <time>2018-09-13T06:59:21.000Z</time>
      </trkpt>
      <trkpt lat="47.97806" lon="6.55523">
        <ele>644</ele>
        <time>2018-09-13T06:59:22.000Z</time>
      </trkpt>
      <trkpt lat="47.97806" lon="6.55522">
        <ele>644</ele>
        <time>2018-09-13T06:59:23.000Z</time>
      </trkpt>
      <trkpt lat="47.97807" lon="6.55521">
        <ele>644</ele>
        <time>2018-09-13T06:59:24.000Z</time>
      </trkpt>
      <trkpt lat="47.97807" lon="6.5552">
        <ele>644</ele>
        <time>2018-09-13T06:59:25.000Z</time>
      </trkpt>
      <trkpt lat="47.97808" lon="6.55519">
        <ele>644</ele>
        <time>2018-09-13T06:59:26.000Z</time>
      </trkpt>
      <trkpt lat="47.97809" lon="6.55518">
        <ele>644</ele>
        <time>2018-09-13T06:59:27.000Z</time>
      </trkpt>
      <trkpt lat="47.97809" lon="6.55517">
        <ele>644</ele>
        <time>2018-09-13T06:59:28.000Z</time>
      </trkpt>
      <trkpt lat="47.9781" lon="6.55516">
        <ele>643</ele>
        <time>2018-09-13T06:59:29.000Z</time>
      </trkpt>
      <trkpt lat="47.97811" lon="6.55515">
        <ele>643</ele>
        <time>2018-09-13T06:59:30.000Z</time>
      </trkpt>
      <trkpt lat="47.97811" lon="6.55513">
        <ele>643</ele>
        <time>2018-09-13T06:59:31.000Z</time>
      </trkpt>
      <trkpt lat="47.97812" lon="6.55512">
        <ele>643</ele>
        <time>2018-09-13T06:59:32.000Z</time>
      </trkpt>
      <trkpt lat="47.97813" lon="6.55511">
        <ele>643</ele>
        <time>2018-09-13T06:59:33.000Z</time>
      </trkpt>
      <trkpt lat="47.97814" lon="6.55509">
        <ele>643</ele>
        <time>2018-09-13T06:59:34.000Z</time>
      </trkpt>
      <trkpt lat="47.97814" lon="6.55508">
        <ele>643</ele>
        <time>2018-09-13T06:59:35.000Z</time>
      </trkpt>
      <trkpt lat="47.97815" lon="6.55506">
        <ele>643</ele>
        <time>2018-09-13T06:59:36.000Z</time>
      </trkpt>
      <trkpt lat="47.97815" lon="6.55504">
        <ele>643</ele>
        <time>2018-09-13T06:59:37.000Z</time>
      </trkpt>
      <trkpt lat="47.97816" lon="6.55503">
        <ele>643</ele>
        <time>2018-09-13T06:59:38.000Z</time>
      </trkpt>
      <trkpt lat="47.97816" lon="6.55502">
        <ele>642</ele>
        <time>2018-09-13T06:59:39.000Z</time>
      </trkpt>
      <trkpt lat="47.97816" lon="6.55501">
        <ele>642</ele>
        <time>2018-09-13T06:59:40.000Z</time>
      </trkpt>
      <trkpt lat="47.97816" lon="6.555">
        <ele>642</ele>
        <time>2018-09-13T06:59:41.000Z</time>
      </trkpt>
      <trkpt lat="47.97817" lon="6.555">
        <ele>642</ele>
        <time>2018-09-13T06:59:42.000Z</time>
      </trkpt>
      <trkpt lat="47.97817" lon="6.55499">
        <ele>642</ele>
        <time>2018-09-13T06:59:43.000Z</time>
      </trkpt>
      <trkpt lat="47.97818" lon="6.55498">
        <ele>642</ele>
        <time>2018-09-13T06:59:44.000Z</time>
      </trkpt>
      <trkpt lat="47.97818" lon="6.55497">
        <ele>642</ele>
        <time>2018-09-13T06:59:45.000Z</time>
      </trkpt>
      <trkpt lat="47.97819" lon="6.55496">
        <ele>641</ele>
        <time>2018-09-13T06:59:46.000Z</time>
      </trkpt>
      <trkpt lat="47.97819" lon="6.55494">
        <ele>641</ele>
        <time>2018-09-13T06:59:47.000Z</time>
      </trkpt>
      <trkpt lat="47.9782" lon="6.55493">
        <ele>641</ele>
        <time>2018-09-13T06:59:48.000Z</time>
      </trkpt>
      <trkpt lat="47.9782" lon="6.55492">
        <ele>641</ele>
        <time>2018-09-13T06:59:49.000Z</time>
      </trkpt>
      <trkpt lat="47.97821" lon="6.5549">
        <ele>641</ele>
        <time>2018-09-13T06:59:50.000Z</time>
      </trkpt>
      <trkpt lat="47.97821" lon="6.55489">
        <ele>641</ele>
        <time>2018-09-13T06:59:51.000Z</time>
      </trkpt>
      <trkpt lat="47.97821" lon="6.55488">
        <ele>641</ele>
        <time>2018-09-13T06:59:52.000Z</time>
      </trkpt>
      <trkpt lat="47.97822" lon="6.55486">
        <ele>640</ele>
        <time>2018-09-13T06:59:53.000Z</time>
      </trkpt>
      <trkpt lat="47.97822" lon="6.55485">
        <ele>640</ele>
        <time>2018-09-13T06:59:54.000Z</time>
      </trkpt>
      <trkpt lat="47.97822" lon="6.55483">
        <ele>640</ele>
        <time>2018-09-13T06:59:55.000Z</time>
      </trkpt>
      <trkpt lat="47.97823" lon="6.55481">
        <ele>640</ele>
        <time>2018-09-13T06:59:56.000Z</time>
      </trkpt>
      <trkpt lat="47.97823" lon="6.55479">
        <ele>640</ele>
        <time>2018-09-13T06:59:57.000Z</time>
      </trkpt>
      <trkpt lat="47.97824" lon="6.55478">
        <ele>639</ele>
        <time>2018-09-13T06:59:58.000Z</time>
      </trkpt>
      <trkpt lat="47.97824" lon="6.55476">
        <ele>639</ele>
        <time>2018-09-13T06:59:59.000Z</time>
      </trkpt>
      <trkpt lat="47.97825" lon="6.55474">
        <ele>639</ele>
        <time>2018-09-13T07:00:00.000Z</time>
      </trkpt>
      <trkpt lat="47.97826" lon="6.55472">
        <ele>639</ele>
        <time>2018-09-13T07:00:01.000Z</time>
      </trkpt>
      <trkpt lat="47.97826" lon="6.5547">
        <ele>639</ele>
        <time>2018-09-13T07:00:02.000Z</time>
      </trkpt>
      <trkpt lat="47.97827" lon="6.55468">
        <ele>639</ele>
        <time>2018-09-13T07:00:03.000Z</time>
      </trkpt>
      <trkpt lat="47.97828" lon="6.55466">
        <ele>639</ele>
        <time>2018-09-13T07:00:04.000Z</time>
      </trkpt>
      <trkpt lat="47.97829" lon="6.55464">
        <ele>639</ele>
        <time>2018-09-13T07:00:05.000Z</time>
      </trkpt>
      <trkpt lat="47.9783" lon="6.55461">
        <ele>639</ele>
        <time>2018-09-13T07:00:06.000Z</time>
      </trkpt>
      <trkpt lat="47.9783" lon="6.55459">
        <ele>639</ele>
        <time>2018-09-13T07:00:07.000Z</time>
      </trkpt>
      <trkpt lat="47.97832" lon="6.55457">
        <ele>639</ele>
        <time>2018-09-13T07:00:08.000Z</time>
      </trkpt>
      <trkpt lat="47.97833" lon="6.55456">
        <ele>639</ele>
        <time>2018-09-13T07:00:09.000Z</time>
      </trkpt>
      <trkpt lat="47.97834" lon="6.55454">
        <ele>639</ele>
        <time>2018-09-13T07:00:10.000Z</time>
      </trkpt>
      <trkpt lat="47.97835" lon="6.55452">
        <ele>639</ele>
        <time>2018-09-13T07:00:11.000Z</time>
      </trkpt>
      <trkpt lat="47.97836" lon="6.5545">
        <ele>639</ele>
        <time>2018-09-13T07:00:12.000Z</time>
      </trkpt>
      <trkpt lat="47.97837" lon="6.55448">
        <ele>639</ele>
        <time>2018-09-13T07:00:13.000Z</time>
      </trkpt>
      <trkpt lat="47.97838" lon="6.55446">
        <ele>639</ele>
        <time>2018-09-13T07:00:14.000Z</time>
      </trkpt>
      <trkpt lat="47.97839" lon="6.55444">
        <ele>639</ele>
        <time>2018-09-13T07:00:15.000Z</time>
      </trkpt>
      <trkpt lat="47.9784" lon="6.55442">
        <ele>639</ele>
        <time>2018-09-13T07:00:16.000Z</time>
      </trkpt>
      <trkpt lat="47.9784" lon="6.55441">
        <ele>639</ele>
        <time>2018-09-13T07:00:17.000Z</time>
      </trkpt>
      <trkpt lat="47.97841" lon="6.55439">
        <ele>639</ele>
        <time>2018-09-13T07:00:18.000Z</time>
      </trkpt>
      <trkpt lat="47.97842" lon="6.55437">
        <ele>639</ele>
        <time>2018-09-13T07:00:19.000Z</time>
      </trkpt>
      <trkpt lat="47.97843" lon="6.55434">
        <ele>639</ele>
        <time>2018-09-13T07:00:20.000Z</time>
      </trkpt>
      <trkpt lat="47.97844" lon="6.55432">
        <ele>639</ele>
        <time>2018-09-13T07:00:21.000Z</time>
      </trkpt>
      <trkpt lat="47.97845" lon="6.5543">
        <ele>639</ele>
        <time>2018-09-13T07:00:22.000Z</time>
      </trkpt>
      <trkpt lat="47.97846" lon="6.55428">
        <ele>639</ele>
        <time>2018-09-13T07:00:23.000Z</time>
      </trkpt>
      <trkpt lat="47.97847" lon="6.55426">
        <ele>639</ele>
        <time>2018-09-13T07:00:24.000Z</time>
      </trkpt>
      <trkpt lat="47.97848" lon="6.55424">
        <ele>639</ele>
        <time>2018-09-13T07:00:25.000Z</time>
      </trkpt>
      <trkpt lat="47.97848" lon="6.55421">
        <ele>639</ele>
        <time>2018-09-13T07:00:26.000Z</time>
      </trkpt>
      <trkpt lat="47.97849" lon="6.55419">
        <ele>639</ele>
        <time>2018-09-13T07:00:27.000Z</time>
      </trkpt>
      <trkpt lat="47.9785" lon="6.55417">
        <ele>639</ele>
        <time>2018-09-13T07:00:28.000Z</time>
      </trkpt>
      <trkpt lat="47.97851" lon="6.55415">
        <ele>639</ele>
        <time>2018-09-13T07:00:29.000Z</time>
      </trkpt>
      <trkpt lat="47.97852" lon="6.55413">
        <ele>639</ele>
        <time>2018-09-13T07:00:30.000Z</time>
      </trkpt>
      <trkpt lat="47.97853" lon="6.5541">
        <ele>639</ele>
        <time>2018-09-13T07:00:31.000Z</time>
      </trkpt>
      <trkpt lat="47.97854" lon="6.55408">
        <ele>639</ele>
        <time>2018-09-13T07:00:32.000Z</time>
      </trkpt>
      <trkpt lat="47.97855" lon="6.55405">
        <ele>639</ele>
        <time>2018-09-13T07:00:33.000Z</time>
      </trkpt>
      <trkpt lat="47.97856" lon="6.55403">
        <ele>639</ele>
        <time>2018-09-13T07:00:34.000Z</time>
      </trkpt>
      <trkpt lat="47.97857" lon="6.554">
        <ele>639</ele>
        <time>2018-09-13T07:00:35.000Z</time>
      </trkpt>
      <trkpt lat="47.97858" lon="6.55398">
        <ele>639</ele>
        <time>2018-09-13T07:00:36.000Z</time>
      </trkpt>
      <trkpt lat="47.97859" lon="6.55396">
        <ele>639</ele>
        <time>2018-09-13T07:00:37.000Z</time>
      </trkpt>
      <trkpt lat="47.9786" lon="6.55393">
        <ele>639</ele>
        <time>2018-09-13T07:00:38.000Z</time>
      </trkpt>
      <trkpt lat="47.97861" lon="6.55391">
        <ele>639</ele>
        <time>2018-09-13T07:00:39.000Z</time>
      </trkpt>
      <trkpt lat="47.97862" lon="6.55389">
        <ele>639</ele>
        <time>2018-09-13T07:00:40.000Z</time>
      </trkpt>
      <trkpt lat="47.97863" lon="6.55386">
        <ele>639</ele>
        <time>2018-09-13T07:00:41.000Z</time>
      </trkpt>
      <trkpt lat="47.97864" lon="6.55384">
        <ele>639</ele>
        <time>2018-09-13T07:00:42.000Z</time>
      </trkpt>
      <trkpt lat="47.97865" lon="6.55382">
        <ele>639</ele>
        <time>2018-09-13T07:00:43.000Z</time>
      </trkpt>
      <trkpt lat="47.97866" lon="6.55379">
        <ele>639</ele>
        <time>2018-09-13T07:00:44.000Z</time>
      </trkpt>
      <trkpt lat="47.97867" lon="6.55377">
        <ele>639</ele>
        <time>2018-09-13T07:00:45.000Z</time>
      </trkpt>
      <trkpt lat="47.97867" lon="6.55375">
        <ele>639</ele>
        <time>2018-09-13T07:00:46.000Z</time>
      </trkpt>
      <trkpt lat="47.97867" lon="6.55373">
        <ele>639</ele>
        <time>2018-09-13T07:00:47.000Z</time>
      </trkpt>
      <trkpt lat="47.97868" lon="6.55371">
        <ele>639</ele>
        <time>2018-09-13T07:00:48.000Z</time>
      </trkpt>
      <trkpt lat="47.97867" lon="6.55368">
        <ele>639</ele>
        <time>2018-09-13T07:00:49.000Z</time>
      </trkpt>
      <trkpt lat="47.97867" lon="6.55366">
        <ele>639</ele>
        <time>2018-09-13T07:00:50.000Z</time>
      </trkpt>
      <trkpt lat="47.97867" lon="6.55365">
        <ele>639</ele>
        <time>2018-09-13T07:00:51.000Z</time>
      </trkpt>
      <trkpt lat="47.97867" lon="6.55363">
        <ele>639</ele>
        <time>2018-09-13T07:00:52.000Z</time>
      </trkpt>
      <trkpt lat="47.97867" lon="6.55362">
        <ele>639</ele>
        <time>2018-09-13T07:00:53.000Z</time>
      </trkpt>
      <trkpt lat="47.97866" lon="6.55361">
        <ele>638</ele>
        <time>2018-09-13T07:00:54.000Z</time>
      </trkpt>
      <trkpt lat="47.97866" lon="6.55361">
        <ele>638</ele>
        <time>2018-09-13T07:00:55.000Z</time>
      </trkpt>
      <trkpt lat="47.97865" lon="6.55361">
        <ele>638</ele>
        <time>2018-09-13T07:00:56.000Z</time>
      </trkpt>
      <trkpt lat="47.97864" lon="6.5536">
        <ele>638</ele>
        <time>2018-09-13T07:00:57.000Z</time>
      </trkpt>
      <trkpt lat="47.97863" lon="6.55359">
        <ele>638</ele>
        <time>2018-09-13T07:00:58.000Z</time>
      </trkpt>
      <trkpt lat="47.97861" lon="6.55358">
        <ele>638</ele>
        <time>2018-09-13T07:00:59.000Z</time>
      </trkpt>
      <trkpt lat="47.9786" lon="6.55357">
        <ele>638</ele>
        <time>2018-09-13T07:01:00.000Z</time>
      </trkpt>
      <trkpt lat="47.97859" lon="6.55356">
        <ele>637</ele>
        <time>2018-09-13T07:01:01.000Z</time>
      </trkpt>
      <trkpt lat="47.97858" lon="6.55355">
        <ele>637</ele>
        <time>2018-09-13T07:01:02.000Z</time>
      </trkpt>
      <trkpt lat="47.97856" lon="6.55354">
        <ele>637</ele>
        <time>2018-09-13T07:01:03.000Z</time>
      </trkpt>
      <trkpt lat="47.97855" lon="6.55353">
        <ele>637</ele>
        <time>2018-09-13T07:01:04.000Z</time>
      </trkpt>
      <trkpt lat="47.97854" lon="6.55351">
        <ele>637</ele>
        <time>2018-09-13T07:01:05.000Z</time>
      </trkpt>
      <trkpt lat="47.97853" lon="6.55349">
        <ele>637</ele>
        <time>2018-09-13T07:01:06.000Z</time>
      </trkpt>
      <trkpt lat="47.97853" lon="6.55347">
        <ele>637</ele>
        <time>2018-09-13T07:01:07.000Z</time>
      </trkpt>
      <trkpt lat="47.97852" lon="6.55345">
        <ele>637</ele>
        <time>2018-09-13T07:01:08.000Z</time>
      </trkpt>
      <trkpt lat="47.97852" lon="6.55344">
        <ele>637</ele>
        <time>2018-09-13T07:01:09.000Z</time>
      </trkpt>
      <trkpt lat="47.97852" lon="6.55342">
        <ele>636</ele>
        <time>2018-09-13T07:01:10.000Z</time>
      </trkpt>
      <trkpt lat="47.97852" lon="6.5534">
        <ele>636</ele>
        <time>2018-09-13T07:01:11.000Z</time>
      </trkpt>
      <trkpt lat="47.97852" lon="6.55338">
        <ele>636</ele>
        <time>2018-09-13T07:01:12.000Z</time>
      </trkpt>
      <trkpt lat="47.97853" lon="6.55337">
        <ele>636</ele>
        <time>2018-09-13T07:01:13.000Z</time>
      </trkpt>
      <trkpt lat="47.97853" lon="6.55335">
        <ele>636</ele>
        <time>2018-09-13T07:01:14.000Z</time>
      </trkpt>
      <trkpt lat="47.97853" lon="6.55333">
        <ele>636</ele>
        <time>2018-09-13T07:01:15.000Z</time>
      </trkpt>
      <trkpt lat="47.97853" lon="6.5533">
        <ele>636</ele>
        <time>2018-09-13T07:01:16.000Z</time>
      </trkpt>
      <trkpt lat="47.97853" lon="6.55328">
        <ele>636</ele>
        <time>2018-09-13T07:01:17.000Z</time>
      </trkpt>
      <trkpt lat="47.97853" lon="6.55326">
        <ele>636</ele>
        <time>2018-09-13T07:01:18.000Z</time>
      </trkpt>
      <trkpt lat="47.97853" lon="6.55324">
        <ele>636</ele>
        <time>2018-09-13T07:01:19.000Z</time>
      </trkpt>
      <trkpt lat="47.97853" lon="6.55321">
        <ele>636</ele>
        <time>2018-09-13T07:01:20.000Z</time>
      </trkpt>
      <trkpt lat="47.97853" lon="6.55319">
        <ele>636</ele>
        <time>2018-09-13T07:01:21.000Z</time>
      </trkpt>
      <trkpt lat="47.97853" lon="6.55316">
        <ele>636</ele>
        <time>2018-09-13T07:01:22.000Z</time>
      </trkpt>
      <trkpt lat="47.97853" lon="6.55313">
        <ele>636</ele>
        <time>2018-09-13T07:01:23.000Z</time>
      </trkpt>
      <trkpt lat="47.97853" lon="6.5531">
        <ele>637</ele>
        <time>2018-09-13T07:01:24.000Z</time>
      </trkpt>
      <trkpt lat="47.97853" lon="6.55307">
        <ele>637</ele>
        <time>2018-09-13T07:01:25.000Z</time>
      </trkpt>
      <trkpt lat="47.97853" lon="6.55305">
        <ele>637</ele>
        <time>2018-09-13T07:01:26.000Z</time>
      </trkpt>
      <trkpt lat="47.97853" lon="6.55302">
        <ele>637</ele>
        <time>2018-09-13T07:01:27.000Z</time>
      </trkpt>
      <trkpt lat="47.97853" lon="6.553">
        <ele>637</ele>
        <time>2018-09-13T07:01:28.000Z</time>
      </trkpt>
      <trkpt lat="47.97854" lon="6.55297">
        <ele>637</ele>
        <time>2018-09-13T07:01:29.000Z</time>
      </trkpt>
      <trkpt lat="47.97854" lon="6.55294">
        <ele>637</ele>
        <time>2018-09-13T07:01:30.000Z</time>
      </trkpt>
      <trkpt lat="47.97855" lon="6.55291">
        <ele>637</ele>
        <time>2018-09-13T07:01:31.000Z</time>
      </trkpt>
      <trkpt lat="47.97855" lon="6.55288">
        <ele>637</ele>
        <time>2018-09-13T07:01:32.000Z</time>
      </trkpt>
      <trkpt lat="47.97855" lon="6.55285">
        <ele>637</ele>
        <time>2018-09-13T07:01:33.000Z</time>
      </trkpt>
      <trkpt lat="47.97856" lon="6.55282">
        <ele>637</ele>
        <time>2018-09-13T07:01:34.000Z</time>
      </trkpt>
      <trkpt lat="47.97856" lon="6.5528">
        <ele>637</ele>
        <time>2018-09-13T07:01:35.000Z</time>
      </trkpt>
      <trkpt lat="47.97856" lon="6.55277">
        <ele>637</ele>
        <time>2018-09-13T07:01:36.000Z</time>
      </trkpt>
      <trkpt lat="47.97856" lon="6.55274">
        <ele>637</ele>
        <time>2018-09-13T07:01:37.000Z</time>
      </trkpt>
      <trkpt lat="47.97856" lon="6.55271">
        <ele>637</ele>
        <time>2018-09-13T07:01:38.000Z</time>
      </trkpt>
      <trkpt lat="47.97856" lon="6.55268">
        <ele>637</ele>
        <time>2018-09-13T07:01:39.000Z</time>
      </trkpt>
      <trkpt lat="47.97856" lon="6.55265">
        <ele>637</ele>
        <time>2018-09-13T07:01:40.000Z</time>
      </trkpt>
      <trkpt lat="47.97856" lon="6.55262">
        <ele>637</ele>
        <time>2018-09-13T07:01:41.000Z</time>
      </trkpt>
      <trkpt lat="47.97856" lon="6.55259">
        <ele>637</ele>
        <time>2018-09-13T07:01:42.000Z</time>
      </trkpt>
      <trkpt lat="47.97856" lon="6.55256">
        <ele>637</ele>
        <time>2018-09-13T07:01:43.000Z</time>
      </trkpt>
      <trkpt lat="47.97855" lon="6.55253">
        <ele>637</ele>
        <time>2018-09-13T07:01:44.000Z</time>
      </trkpt>
      <trkpt lat="47.97855" lon="6.5525">
        <ele>637</ele>
        <time>2018-09-13T07:01:45.000Z</time>
      </trkpt>
      <trkpt lat="47.97855" lon="6.55247">
        <ele>636</ele>
        <time>2018-09-13T07:01:46.000Z</time>
      </trkpt>
      <trkpt lat="47.97855" lon="6.55244">
        <ele>636</ele>
        <time>2018-09-13T07:01:47.000Z</time>
      </trkpt>
      <trkpt lat="47.97854" lon="6.55242">
        <ele>636</ele>
        <time>2018-09-13T07:01:48.000Z</time>
      </trkpt>
      <trkpt lat="47.97854" lon="6.55239">
        <ele>636</ele>
        <time>2018-09-13T07:01:49.000Z</time>
      </trkpt>
      <trkpt lat="47.97854" lon="6.55236">
        <ele>636</ele>
        <time>2018-09-13T07:01:50.000Z</time>
      </trkpt>
      <trkpt lat="47.97853" lon="6.55234">
        <ele>636</ele>
        <time>2018-09-13T07:01:51.000Z</time>
      </trkpt>
      <trkpt lat="47.97852" lon="6.55231">
        <ele>636</ele>
        <time>2018-09-13T07:01:52.000Z</time>
      </trkpt>
      <trkpt lat="47.97852" lon="6.55228">
        <ele>636</ele>
        <time>2018-09-13T07:01:53.000Z</time>
      </trkpt>
      <trkpt lat="47.97851" lon="6.55226">
        <ele>635</ele>
        <time>2018-09-13T07:01:54.000Z</time>
      </trkpt>
      <trkpt lat="47.97851" lon="6.55224">
        <ele>635</ele>
        <time>2018-09-13T07:01:55.000Z</time>
      </trkpt>
      <trkpt lat="47.97851" lon="6.55221">
        <ele>635</ele>
        <time>2018-09-13T07:01:56.000Z</time>
      </trkpt>
      <trkpt lat="47.9785" lon="6.55219">
        <ele>635</ele>
        <time>2018-09-13T07:01:57.000Z</time>
      </trkpt>
      <trkpt lat="47.9785" lon="6.55217">
        <ele>635</ele>
        <time>2018-09-13T07:01:58.000Z</time>
      </trkpt>
      <trkpt lat="47.97849" lon="6.55214">
        <ele>635</ele>
        <time>2018-09-13T07:01:59.000Z</time>
      </trkpt>
      <trkpt lat="47.97849" lon="6.55212">
        <ele>635</ele>
        <time>2018-09-13T07:02:00.000Z</time>
      </trkpt>
      <trkpt lat="47.97849" lon="6.55209">
        <ele>635</ele>
        <time>2018-09-13T07:02:01.000Z</time>
      </trkpt>
      <trkpt lat="47.97848" lon="6.55207">
        <ele>635</ele>
        <time>2018-09-13T07:02:02.000Z</time>
      </trkpt>
      <trkpt lat="47.97848" lon="6.55204">
        <ele>635</ele>
        <time>2018-09-13T07:02:03.000Z</time>
      </trkpt>
      <trkpt lat="47.97848" lon="6.55201">
        <ele>634</ele>
        <time>2018-09-13T07:02:04.000Z</time>
      </trkpt>
      <trkpt lat="47.97847" lon="6.55198">
        <ele>634</ele>
        <time>2018-09-13T07:02:05.000Z</time>
      </trkpt>
      <trkpt lat="47.97847" lon="6.55195">
        <ele>634</ele>
        <time>2018-09-13T07:02:06.000Z</time>
      </trkpt>
      <trkpt lat="47.97847" lon="6.55193">
        <ele>634</ele>
        <time>2018-09-13T07:02:07.000Z</time>
      </trkpt>
      <trkpt lat="47.97847" lon="6.5519">
        <ele>634</ele>
        <time>2018-09-13T07:02:08.000Z</time>
      </trkpt>
      <trkpt lat="47.97847" lon="6.55186">
        <ele>634</ele>
        <time>2018-09-13T07:02:09.000Z</time>
      </trkpt>
      <trkpt lat="47.97846" lon="6.55183">
        <ele>633</ele>
        <time>2018-09-13T07:02:10.000Z</time>
      </trkpt>
      <trkpt lat="47.97846" lon="6.5518">
        <ele>633</ele>
        <time>2018-09-13T07:02:11.000Z</time>
      </trkpt>
      <trkpt lat="47.97846" lon="6.55178">
        <ele>633</ele>
        <time>2018-09-13T07:02:12.000Z</time>
      </trkpt>
      <trkpt lat="47.97846" lon="6.55175">
        <ele>633</ele>
        <time>2018-09-13T07:02:13.000Z</time>
      </trkpt>
      <trkpt lat="47.97846" lon="6.55172">
        <ele>633</ele>
        <time>2018-09-13T07:02:14.000Z</time>
      </trkpt>
      <trkpt lat="47.97846" lon="6.5517">
        <ele>633</ele>
        <time>2018-09-13T07:02:15.000Z</time>
      </trkpt>
      <trkpt lat="47.97846" lon="6.55167">
        <ele>632</ele>
        <time>2018-09-13T07:02:16.000Z</time>
      </trkpt>
      <trkpt lat="47.97845" lon="6.55164">
        <ele>632</ele>
        <time>2018-09-13T07:02:17.000Z</time>
      </trkpt>
      <trkpt lat="47.97845" lon="6.55162">
        <ele>632</ele>
        <time>2018-09-13T07:02:18.000Z</time>
      </trkpt>
      <trkpt lat="47.97844" lon="6.55159">
        <ele>632</ele>
        <time>2018-09-13T07:02:19.000Z</time>
      </trkpt>
      <trkpt lat="47.97844" lon="6.55156">
        <ele>632</ele>
        <time>2018-09-13T07:02:20.000Z</time>
      </trkpt>
      <trkpt lat="47.97843" lon="6.55154">
        <ele>632</ele>
        <time>2018-09-13T07:02:21.000Z</time>
      </trkpt>
      <trkpt lat="47.97843" lon="6.55152">
        <ele>632</ele>
        <time>2018-09-13T07:02:22.000Z</time>
      </trkpt>
      <trkpt lat="47.97843" lon="6.55149">
        <ele>631</ele>
        <time>2018-09-13T07:02:23.000Z</time>
      </trkpt>
      <trkpt lat="47.97842" lon="6.55147">
        <ele>631</ele>
        <time>2018-09-13T07:02:24.000Z</time>
      </trkpt>
      <trkpt lat="47.97842" lon="6.55144">
        <ele>631</ele>
        <time>2018-09-13T07:02:25.000Z</time>
      </trkpt>
      <trkpt lat="47.97842" lon="6.55142">
        <ele>631</ele>
        <time>2018-09-13T07:02:26.000Z</time>
      </trkpt>
      <trkpt lat="47.97842" lon="6.5514">
        <ele>631</ele>
        <time>2018-09-13T07:02:27.000Z</time>
      </trkpt>
      <trkpt lat="47.97841" lon="6.55138">
        <ele>631</ele>
        <time>2018-09-13T07:02:28.000Z</time>
      </trkpt>
      <trkpt lat="47.97841" lon="6.55135">
        <ele>630</ele>
        <time>2018-09-13T07:02:29.000Z</time>
      </trkpt>
      <trkpt lat="47.97841" lon="6.55133">
        <ele>630</ele>
        <time>2018-09-13T07:02:30.000Z</time>
      </trkpt>
      <trkpt lat="47.97841" lon="6.5513">
        <ele>630</ele>
        <time>2018-09-13T07:02:31.000Z</time>
      </trkpt>
      <trkpt lat="47.9784" lon="6.55127">
        <ele>630</ele>
        <time>2018-09-13T07:02:32.000Z</time>
      </trkpt>
      <trkpt lat="47.9784" lon="6.55124">
        <ele>630</ele>
        <time>2018-09-13T07:02:33.000Z</time>
      </trkpt>
      <trkpt lat="47.9784" lon="6.55121">
        <ele>629</ele>
        <time>2018-09-13T07:02:34.000Z</time>
      </trkpt>
      <trkpt lat="47.97839" lon="6.55118">
        <ele>629</ele>
        <time>2018-09-13T07:02:35.000Z</time>
      </trkpt>
      <trkpt lat="47.97838" lon="6.55115">
        <ele>629</ele>
        <time>2018-09-13T07:02:36.000Z</time>
      </trkpt>
      <trkpt lat="47.97837" lon="6.55112">
        <ele>629</ele>
        <time>2018-09-13T07:02:37.000Z</time>
      </trkpt>
      <trkpt lat="47.97837" lon="6.5511">
        <ele>628</ele>
        <time>2018-09-13T07:02:38.000Z</time>
      </trkpt>
      <trkpt lat="47.97836" lon="6.55107">
        <ele>628</ele>
        <time>2018-09-13T07:02:39.000Z</time>
      </trkpt>
      <trkpt lat="47.97835" lon="6.55104">
        <ele>628</ele>
        <time>2018-09-13T07:02:40.000Z</time>
      </trkpt>
      <trkpt lat="47.97834" lon="6.55101">
        <ele>628</ele>
        <time>2018-09-13T07:02:41.000Z</time>
      </trkpt>
      <trkpt lat="47.97834" lon="6.55098">
        <ele>628</ele>
        <time>2018-09-13T07:02:42.000Z</time>
      </trkpt>
      <trkpt lat="47.97834" lon="6.55095">
        <ele>627</ele>
        <time>2018-09-13T07:02:43.000Z</time>
      </trkpt>
      <trkpt lat="47.97834" lon="6.55092">
        <ele>627</ele>
        <time>2018-09-13T07:02:44.000Z</time>
      </trkpt>
      <trkpt lat="47.97833" lon="6.55089">
        <ele>627</ele>
        <time>2018-09-13T07:02:45.000Z</time>
      </trkpt>
      <trkpt lat="47.97833" lon="6.55086">
        <ele>627</ele>
        <time>2018-09-13T07:02:46.000Z</time>
      </trkpt>
      <trkpt lat="47.97832" lon="6.55083">
        <ele>627</ele>
        <time>2018-09-13T07:02:47.000Z</time>
      </trkpt>
      <trkpt lat="47.97832" lon="6.5508">
        <ele>627</ele>
        <time>2018-09-13T07:02:48.000Z</time>
      </trkpt>
      <trkpt lat="47.97831" lon="6.55077">
        <ele>627</ele>
        <time>2018-09-13T07:02:49.000Z</time>
      </trkpt>
      <trkpt lat="47.97831" lon="6.55074">
        <ele>626</ele>
        <time>2018-09-13T07:02:50.000Z</time>
      </trkpt>
      <trkpt lat="47.97831" lon="6.55072">
        <ele>626</ele>
        <time>2018-09-13T07:02:51.000Z</time>
      </trkpt>
      <trkpt lat="47.9783" lon="6.55069">
        <ele>626</ele>
        <time>2018-09-13T07:02:52.000Z</time>
      </trkpt>
      <trkpt lat="47.97829" lon="6.55067">
        <ele>626</ele>
        <time>2018-09-13T07:02:53.000Z</time>
      </trkpt>
      <trkpt lat="47.97828" lon="6.55064">
        <ele>625</ele>
        <time>2018-09-13T07:02:54.000Z</time>
      </trkpt>
      <trkpt lat="47.97827" lon="6.55062">
        <ele>625</ele>
        <time>2018-09-13T07:02:55.000Z</time>
      </trkpt>
      <trkpt lat="47.97827" lon="6.55059">
        <ele>625</ele>
        <time>2018-09-13T07:02:56.000Z</time>
      </trkpt>
      <trkpt lat="47.97826" lon="6.55057">
        <ele>625</ele>
        <time>2018-09-13T07:02:57.000Z</time>
      </trkpt>
      <trkpt lat="47.97825" lon="6.55054">
        <ele>624</ele>
        <time>2018-09-13T07:02:58.000Z</time>
      </trkpt>
      <trkpt lat="47.97824" lon="6.55051">
        <ele>624</ele>
        <time>2018-09-13T07:02:59.000Z</time>
      </trkpt>
      <trkpt lat="47.97823" lon="6.55049">
        <ele>624</ele>
        <time>2018-09-13T07:03:00.000Z</time>
      </trkpt>
      <trkpt lat="47.97822" lon="6.55046">
        <ele>623</ele>
        <time>2018-09-13T07:03:01.000Z</time>
      </trkpt>
      <trkpt lat="47.97821" lon="6.55043">
        <ele>623</ele>
        <time>2018-09-13T07:03:02.000Z</time>
      </trkpt>
      <trkpt lat="47.9782" lon="6.55041">
        <ele>623</ele>
        <time>2018-09-13T07:03:03.000Z</time>
      </trkpt>
      <trkpt lat="47.97819" lon="6.55038">
        <ele>623</ele>
        <time>2018-09-13T07:03:04.000Z</time>
      </trkpt>
      <trkpt lat="47.97818" lon="6.55036">
        <ele>622</ele>
        <time>2018-09-13T07:03:05.000Z</time>
      </trkpt>
      <trkpt lat="47.97817" lon="6.55033">
        <ele>622</ele>
        <time>2018-09-13T07:03:06.000Z</time>
      </trkpt>
      <trkpt lat="47.97815" lon="6.55031">
        <ele>622</ele>
        <time>2018-09-13T07:03:07.000Z</time>
      </trkpt>
      <trkpt lat="47.97814" lon="6.55029">
        <ele>622</ele>
        <time>2018-09-13T07:03:08.000Z</time>
      </trkpt>
      <trkpt lat="47.97812" lon="6.55026">
        <ele>621</ele>
        <time>2018-09-13T07:03:09.000Z</time>
      </trkpt>
      <trkpt lat="47.97811" lon="6.55023">
        <ele>621</ele>
        <time>2018-09-13T07:03:10.000Z</time>
      </trkpt>
      <trkpt lat="47.97809" lon="6.5502">
        <ele>621</ele>
        <time>2018-09-13T07:03:11.000Z</time>
      </trkpt>
      <trkpt lat="47.97808" lon="6.55018">
        <ele>621</ele>
        <time>2018-09-13T07:03:12.000Z</time>
      </trkpt>
      <trkpt lat="47.97807" lon="6.55015">
        <ele>620</ele>
        <time>2018-09-13T07:03:13.000Z</time>
      </trkpt>
      <trkpt lat="47.97805" lon="6.55013">
        <ele>620</ele>
        <time>2018-09-13T07:03:14.000Z</time>
      </trkpt>
      <trkpt lat="47.97804" lon="6.55011">
        <ele>620</ele>
        <time>2018-09-13T07:03:15.000Z</time>
      </trkpt>
      <trkpt lat="47.97803" lon="6.55009">
        <ele>619</ele>
        <time>2018-09-13T07:03:16.000Z</time>
      </trkpt>
      <trkpt lat="47.97802" lon="6.55007">
        <ele>619</ele>
        <time>2018-09-13T07:03:17.000Z</time>
      </trkpt>
      <trkpt lat="47.97801" lon="6.55005">
        <ele>619</ele>
        <time>2018-09-13T07:03:18.000Z</time>
      </trkpt>
      <trkpt lat="47.978" lon="6.55003">
        <ele>619</ele>
        <time>2018-09-13T07:03:19.000Z</time>
      </trkpt>
      <trkpt lat="47.97799" lon="6.55002">
        <ele>618</ele>
        <time>2018-09-13T07:03:20.000Z</time>
      </trkpt>
      <trkpt lat="47.97798" lon="6.54999">
        <ele>618</ele>
        <time>2018-09-13T07:03:21.000Z</time>
      </trkpt>
      <trkpt lat="47.97796" lon="6.54997">
        <ele>618</ele>
        <time>2018-09-13T07:03:22.000Z</time>
      </trkpt>
      <trkpt lat="47.97794" lon="6.54995">
        <ele>617</ele>
        <time>2018-09-13T07:03:23.000Z</time>
      </trkpt>
      <trkpt lat="47.97792" lon="6.54992">
        <ele>617</ele>
        <time>2018-09-13T07:03:24.000Z</time>
      </trkpt>
      <trkpt lat="47.9779" lon="6.5499">
        <ele>617</ele>
        <time>2018-09-13T07:03:25.000Z</time>
      </trkpt>
      <trkpt lat="47.97788" lon="6.54987">
        <ele>617</ele>
        <time>2018-09-13T07:03:26.000Z</time>
      </trkpt>
      <trkpt lat="47.97786" lon="6.54984">
        <ele>616</ele>
        <time>2018-09-13T07:03:27.000Z</time>
      </trkpt>
      <trkpt lat="47.97785" lon="6.54982">
        <ele>616</ele>
        <time>2018-09-13T07:03:28.000Z</time>
      </trkpt>
      <trkpt lat="47.97783" lon="6.54979">
        <ele>616</ele>
        <time>2018-09-13T07:03:29.000Z</time>
      </trkpt>
      <trkpt lat="47.97781" lon="6.54976">
        <ele>615</ele>
        <time>2018-09-13T07:03:30.000Z</time>
      </trkpt>
      <trkpt lat="47.9778" lon="6.54973">
        <ele>615</ele>
        <time>2018-09-13T07:03:31.000Z</time>
      </trkpt>
      <trkpt lat="47.97778" lon="6.5497">
        <ele>615</ele>
        <time>2018-09-13T07:03:32.000Z</time>
      </trkpt>
      <trkpt lat="47.97777" lon="6.54966">
        <ele>614</ele>
        <time>2018-09-13T07:03:33.000Z</time>
      </trkpt>
      <trkpt lat="47.97775" lon="6.54963">
        <ele>614</ele>
        <time>2018-09-13T07:03:34.000Z</time>
      </trkpt>
      <trkpt lat="47.97774" lon="6.54959">
        <ele>613</ele>
        <time>2018-09-13T07:03:35.000Z</time>
      </trkpt>
      <trkpt lat="47.97772" lon="6.54956">
        <ele>613</ele>
        <time>2018-09-13T07:03:36.000Z</time>
      </trkpt>
      <trkpt lat="47.97771" lon="6.54953">
        <ele>613</ele>
        <time>2018-09-13T07:03:37.000Z</time>
      </trkpt>
      <trkpt lat="47.97771" lon="6.54951">
        <ele>613</ele>
        <time>2018-09-13T07:03:38.000Z</time>
      </trkpt>
      <trkpt lat="47.9777" lon="6.54948">
        <ele>612</ele>
        <time>2018-09-13T07:03:39.000Z</time>
      </trkpt>
      <trkpt lat="47.97769" lon="6.54946">
        <ele>612</ele>
        <time>2018-09-13T07:03:40.000Z</time>
      </trkpt>
      <trkpt lat="47.97769" lon="6.54943">
        <ele>612</ele>
        <time>2018-09-13T07:03:41.000Z</time>
      </trkpt>
      <trkpt lat="47.97768" lon="6.54941">
        <ele>612</ele>
        <time>2018-09-13T07:03:42.000Z</time>
      </trkpt>
      <trkpt lat="47.97768" lon="6.54939">
        <ele>611</ele>
        <time>2018-09-13T07:03:43.000Z</time>
      </trkpt>
      <trkpt lat="47.97767" lon="6.54936">
        <ele>611</ele>
        <time>2018-09-13T07:03:44.000Z</time>
      </trkpt>
      <trkpt lat="47.97766" lon="6.54934">
        <ele>611</ele>
        <time>2018-09-13T07:03:45.000Z</time>
      </trkpt>
      <trkpt lat="47.97766" lon="6.54932">
        <ele>611</ele>
        <time>2018-09-13T07:03:46.000Z</time>
      </trkpt>
      <trkpt lat="47.97765" lon="6.54929">
        <ele>611</ele>
        <time>2018-09-13T07:03:47.000Z</time>
      </trkpt>
      <trkpt lat="47.97764" lon="6.54927">
        <ele>610</ele>
        <time>2018-09-13T07:03:48.000Z</time>
      </trkpt>
      <trkpt lat="47.97764" lon="6.54925">
        <ele>610</ele>
        <time>2018-09-13T07:03:49.000Z</time>
      </trkpt>
      <trkpt lat="47.97763" lon="6.54922">
        <ele>610</ele>
        <time>2018-09-13T07:03:50.000Z</time>
      </trkpt>
      <trkpt lat="47.97762" lon="6.54919">
        <ele>610</ele>
        <time>2018-09-13T07:03:51.000Z</time>
      </trkpt>
      <trkpt lat="47.9776" lon="6.54915">
        <ele>609</ele>
        <time>2018-09-13T07:03:52.000Z</time>
      </trkpt>
      <trkpt lat="47.97759" lon="6.54912">
        <ele>609</ele>
        <time>2018-09-13T07:03:53.000Z</time>
      </trkpt>
      <trkpt lat="47.97758" lon="6.54909">
        <ele>609</ele>
        <time>2018-09-13T07:03:54.000Z</time>
      </trkpt>
      <trkpt lat="47.97757" lon="6.54906">
        <ele>609</ele>
        <time>2018-09-13T07:03:55.000Z</time>
      </trkpt>
      <trkpt lat="47.97755" lon="6.54903">
        <ele>609</ele>
        <time>2018-09-13T07:03:56.000Z</time>
      </trkpt>
      <trkpt lat="47.97754" lon="6.54899">
        <ele>608</ele>
        <time>2018-09-13T07:03:57.000Z</time>
      </trkpt>
      <trkpt lat="47.97753" lon="6.54896">
        <ele>608</ele>
        <time>2018-09-13T07:03:58.000Z</time>
      </trkpt>
      <trkpt lat="47.97752" lon="6.54894">
        <ele>608</ele>
        <time>2018-09-13T07:03:59.000Z</time>
      </trkpt>
      <trkpt lat="47.9775" lon="6.54891">
        <ele>608</ele>
        <time>2018-09-13T07:04:00.000Z</time>
      </trkpt>
      <trkpt lat="47.97749" lon="6.5489">
        <ele>608</ele>
        <time>2018-09-13T07:04:01.000Z</time>
      </trkpt>
      <trkpt lat="47.97748" lon="6.54888">
        <ele>608</ele>
        <time>2018-09-13T07:04:02.000Z</time>
      </trkpt>
      <trkpt lat="47.97747" lon="6.54886">
        <ele>607</ele>
        <time>2018-09-13T07:04:03.000Z</time>
      </trkpt>
      <trkpt lat="47.97747" lon="6.54884">
        <ele>607</ele>
        <time>2018-09-13T07:04:04.000Z</time>
      </trkpt>
      <trkpt lat="47.97746" lon="6.54882">
        <ele>607</ele>
        <time>2018-09-13T07:04:05.000Z</time>
      </trkpt>
      <trkpt lat="47.97745" lon="6.54881">
        <ele>607</ele>
        <time>2018-09-13T07:04:06.000Z</time>
      </trkpt>
      <trkpt lat="47.97744" lon="6.54879">
        <ele>607</ele>
        <time>2018-09-13T07:04:07.000Z</time>
      </trkpt>
      <trkpt lat="47.97744" lon="6.54877">
        <ele>607</ele>
        <time>2018-09-13T07:04:08.000Z</time>
      </trkpt>
      <trkpt lat="47.97743" lon="6.54875">
        <ele>606</ele>
        <time>2018-09-13T07:04:09.000Z</time>
      </trkpt>
      <trkpt lat="47.97742" lon="6.54873">
        <ele>606</ele>
        <time>2018-09-13T07:04:10.000Z</time>
      </trkpt>
      <trkpt lat="47.97741" lon="6.54871">
        <ele>606</ele>
        <time>2018-09-13T07:04:11.000Z</time>
      </trkpt>
      <trkpt lat="47.9774" lon="6.54868">
        <ele>606</ele>
        <time>2018-09-13T07:04:12.000Z</time>
      </trkpt>
      <trkpt lat="47.97739" lon="6.54865">
        <ele>605</ele>
        <time>2018-09-13T07:04:13.000Z</time>
      </trkpt>
      <trkpt lat="47.97738" lon="6.54862">
        <ele>605</ele>
        <time>2018-09-13T07:04:14.000Z</time>
      </trkpt>
      <trkpt lat="47.97736" lon="6.5486">
        <ele>605</ele>
        <time>2018-09-13T07:04:15.000Z</time>
      </trkpt>
      <trkpt lat="47.97735" lon="6.54857">
        <ele>604</ele>
        <time>2018-09-13T07:04:16.000Z</time>
      </trkpt>
      <trkpt lat="47.97733" lon="6.54854">
        <ele>604</ele>
        <time>2018-09-13T07:04:17.000Z</time>
      </trkpt>
      <trkpt lat="47.97732" lon="6.54852">
        <ele>604</ele>
        <time>2018-09-13T07:04:18.000Z</time>
      </trkpt>
      <trkpt lat="47.9773" lon="6.54849">
        <ele>603</ele>
        <time>2018-09-13T07:04:19.000Z</time>
      </trkpt>
      <trkpt lat="47.97729" lon="6.54847">
        <ele>603</ele>
        <time>2018-09-13T07:04:20.000Z</time>
      </trkpt>
      <trkpt lat="47.97728" lon="6.54844">
        <ele>602</ele>
        <time>2018-09-13T07:04:21.000Z</time>
      </trkpt>
      <trkpt lat="47.97727" lon="6.54842">
        <ele>602</ele>
        <time>2018-09-13T07:04:22.000Z</time>
      </trkpt>
      <trkpt lat="47.97726" lon="6.5484">
        <ele>602</ele>
        <time>2018-09-13T07:04:23.000Z</time>
      </trkpt>
      <trkpt lat="47.97725" lon="6.54838">
        <ele>602</ele>
        <time>2018-09-13T07:04:24.000Z</time>
      </trkpt>
      <trkpt lat="47.97725" lon="6.54836">
        <ele>601</ele>
        <time>2018-09-13T07:04:25.000Z</time>
      </trkpt>
      <trkpt lat="47.97724" lon="6.54834">
        <ele>601</ele>
        <time>2018-09-13T07:04:26.000Z</time>
      </trkpt>
      <trkpt lat="47.97723" lon="6.54831">
        <ele>601</ele>
        <time>2018-09-13T07:04:27.000Z</time>
      </trkpt>
      <trkpt lat="47.97722" lon="6.54829">
        <ele>600</ele>
        <time>2018-09-13T07:04:28.000Z</time>
      </trkpt>
      <trkpt lat="47.97721" lon="6.54827">
        <ele>600</ele>
        <time>2018-09-13T07:04:29.000Z</time>
      </trkpt>
      <trkpt lat="47.9772" lon="6.54825">
        <ele>600</ele>
        <time>2018-09-13T07:04:30.000Z</time>
      </trkpt>
      <trkpt lat="47.97719" lon="6.54823">
        <ele>600</ele>
        <time>2018-09-13T07:04:31.000Z</time>
      </trkpt>
      <trkpt lat="47.97717" lon="6.54821">
        <ele>599</ele>
        <time>2018-09-13T07:04:32.000Z</time>
      </trkpt>
      <trkpt lat="47.97716" lon="6.54819">
        <ele>599</ele>
        <time>2018-09-13T07:04:33.000Z</time>
      </trkpt>
      <trkpt lat="47.97715" lon="6.54816">
        <ele>598</ele>
        <time>2018-09-13T07:04:34.000Z</time>
      </trkpt>
      <trkpt lat="47.97714" lon="6.54813">
        <ele>598</ele>
        <time>2018-09-13T07:04:35.000Z</time>
      </trkpt>
      <trkpt lat="47.97713" lon="6.54811">
        <ele>597</ele>
        <time>2018-09-13T07:04:36.000Z</time>
      </trkpt>
      <trkpt lat="47.97712" lon="6.54809">
        <ele>597</ele>
        <time>2018-09-13T07:04:37.000Z</time>
      </trkpt>
      <trkpt lat="47.97711" lon="6.54807">
        <ele>597</ele>
        <time>2018-09-13T07:04:38.000Z</time>
      </trkpt>
      <trkpt lat="47.9771" lon="6.54804">
        <ele>596</ele>
        <time>2018-09-13T07:04:39.000Z</time>
      </trkpt>
      <trkpt lat="47.97708" lon="6.54802">
        <ele>596</ele>
        <time>2018-09-13T07:04:40.000Z</time>
      </trkpt>
      <trkpt lat="47.97707" lon="6.54799">
        <ele>595</ele>
        <time>2018-09-13T07:04:41.000Z</time>
      </trkpt>
      <trkpt lat="47.97706" lon="6.54796">
        <ele>595</ele>
        <time>2018-09-13T07:04:42.000Z</time>
      </trkpt>
      <trkpt lat="47.97705" lon="6.54793">
        <ele>595</ele>
        <time>2018-09-13T07:04:43.000Z</time>
      </trkpt>
      <trkpt lat="47.97703" lon="6.5479">
        <ele>594</ele>
        <time>2018-09-13T07:04:44.000Z</time>
      </trkpt>
      <trkpt lat="47.97702" lon="6.54788">
        <ele>594</ele>
        <time>2018-09-13T07:04:45.000Z</time>
      </trkpt>
      <trkpt lat="47.97701" lon="6.54785">
        <ele>593</ele>
        <time>2018-09-13T07:04:46.000Z</time>
      </trkpt>
      <trkpt lat="47.977" lon="6.54783">
        <ele>593</ele>
        <time>2018-09-13T07:04:47.000Z</time>
      </trkpt>
      <trkpt lat="47.97699" lon="6.54781">
        <ele>593</ele>
        <time>2018-09-13T07:04:48.000Z</time>
      </trkpt>
      <trkpt lat="47.97698" lon="6.54779">
        <ele>592</ele>
        <time>2018-09-13T07:04:49.000Z</time>
      </trkpt>
      <trkpt lat="47.97697" lon="6.54776">
        <ele>592</ele>
        <time>2018-09-13T07:04:50.000Z</time>
      </trkpt>
      <trkpt lat="47.97696" lon="6.54774">
        <ele>592</ele>
        <time>2018-09-13T07:04:51.000Z</time>
      </trkpt>
      <trkpt lat="47.97694" lon="6.54771">
        <ele>592</ele>
        <time>2018-09-13T07:04:52.000Z</time>
      </trkpt>
      <trkpt lat="47.97693" lon="6.54768">
        <ele>591</ele>
        <time>2018-09-13T07:04:53.000Z</time>
      </trkpt>
      <trkpt lat="47.97692" lon="6.54765">
        <ele>591</ele>
        <time>2018-09-13T07:04:54.000Z</time>
      </trkpt>
      <trkpt lat="47.97691" lon="6.54763">
        <ele>591</ele>
        <time>2018-09-13T07:04:55.000Z</time>
      </trkpt>
      <trkpt lat="47.9769" lon="6.5476">
        <ele>590</ele>
        <time>2018-09-13T07:04:56.000Z</time>
      </trkpt>
      <trkpt lat="47.97689" lon="6.54758">
        <ele>590</ele>
        <time>2018-09-13T07:04:57.000Z</time>
      </trkpt>
      <trkpt lat="47.97688" lon="6.54755">
        <ele>589</ele>
        <time>2018-09-13T07:04:58.000Z</time>
      </trkpt>
      <trkpt lat="47.97687" lon="6.54753">
        <ele>589</ele>
        <time>2018-09-13T07:04:59.000Z</time>
      </trkpt>
      <trkpt lat="47.97687" lon="6.5475">
        <ele>589</ele>
        <time>2018-09-13T07:05:00.000Z</time>
      </trkpt>
      <trkpt lat="47.97686" lon="6.54748">
        <ele>588</ele>
        <time>2018-09-13T07:05:01.000Z</time>
      </trkpt>
      <trkpt lat="47.97685" lon="6.54746">
        <ele>588</ele>
        <time>2018-09-13T07:05:02.000Z</time>
      </trkpt>
      <trkpt lat="47.97684" lon="6.54743">
        <ele>588</ele>
        <time>2018-09-13T07:05:03.000Z</time>
      </trkpt>
      <trkpt lat="47.97683" lon="6.54741">
        <ele>587</ele>
        <time>2018-09-13T07:05:04.000Z</time>
      </trkpt>
      <trkpt lat="47.97682" lon="6.54739">
        <ele>587</ele>
        <time>2018-09-13T07:05:05.000Z</time>
      </trkpt>
      <trkpt lat="47.97682" lon="6.54737">
        <ele>587</ele>
        <time>2018-09-13T07:05:06.000Z</time>
      </trkpt>
      <trkpt lat="47.97681" lon="6.54734">
        <ele>586</ele>
        <time>2018-09-13T07:05:07.000Z</time>
      </trkpt>
      <trkpt lat="47.9768" lon="6.54732">
        <ele>586</ele>
        <time>2018-09-13T07:05:08.000Z</time>
      </trkpt>
      <trkpt lat="47.97679" lon="6.54729">
        <ele>586</ele>
        <time>2018-09-13T07:05:09.000Z</time>
      </trkpt>
      <trkpt lat="47.97678" lon="6.54727">
        <ele>585</ele>
        <time>2018-09-13T07:05:10.000Z</time>
      </trkpt>
      <trkpt lat="47.97677" lon="6.54725">
        <ele>585</ele>
        <time>2018-09-13T07:05:11.000Z</time>
      </trkpt>
      <trkpt lat="47.97677" lon="6.54723">
        <ele>585</ele>
        <time>2018-09-13T07:05:12.000Z</time>
      </trkpt>
      <trkpt lat="47.97676" lon="6.5472">
        <ele>584</ele>
        <time>2018-09-13T07:05:13.000Z</time>
      </trkpt>
      <trkpt lat="47.97675" lon="6.54718">
        <ele>584</ele>
        <time>2018-09-13T07:05:14.000Z</time>
      </trkpt>
      <trkpt lat="47.97674" lon="6.54716">
        <ele>584</ele>
        <time>2018-09-13T07:05:15.000Z</time>
      </trkpt>
      <trkpt lat="47.97673" lon="6.54714">
        <ele>583</ele>
        <time>2018-09-13T07:05:16.000Z</time>
      </trkpt>
      <trkpt lat="47.97672" lon="6.54712">
        <ele>583</ele>
        <time>2018-09-13T07:05:17.000Z</time>
      </trkpt>
      <trkpt lat="47.97671" lon="6.5471">
        <ele>583</ele>
        <time>2018-09-13T07:05:18.000Z</time>
      </trkpt>
      <trkpt lat="47.9767" lon="6.54708">
        <ele>582</ele>
        <time>2018-09-13T07:05:19.000Z</time>
      </trkpt>
      <trkpt lat="47.9767" lon="6.54706">
        <ele>582</ele>
        <time>2018-09-13T07:05:20.000Z</time>
      </trkpt>
      <trkpt lat="47.97669" lon="6.54705">
        <ele>581</ele>
        <time>2018-09-13T07:05:21.000Z</time>
      </trkpt>
      <trkpt lat="47.97668" lon="6.54702">
        <ele>581</ele>
        <time>2018-09-13T07:05:22.000Z</time>
      </trkpt>
      <trkpt lat="47.97667" lon="6.547">
        <ele>581</ele>
        <time>2018-09-13T07:05:23.000Z</time>
      </trkpt>
      <trkpt lat="47.97665" lon="6.54697">
        <ele>581</ele>
        <time>2018-09-13T07:05:24.000Z</time>
      </trkpt>
      <trkpt lat="47.97664" lon="6.54695">
        <ele>580</ele>
        <time>2018-09-13T07:05:25.000Z</time>
      </trkpt>
      <trkpt lat="47.97663" lon="6.54693">
        <ele>580</ele>
        <time>2018-09-13T07:05:26.000Z</time>
      </trkpt>
      <trkpt lat="47.97662" lon="6.54691">
        <ele>580</ele>
        <time>2018-09-13T07:05:27.000Z</time>
      </trkpt>
      <trkpt lat="47.97661" lon="6.54689">
        <ele>579</ele>
        <time>2018-09-13T07:05:28.000Z</time>
      </trkpt>
      <trkpt lat="47.9766" lon="6.54688">
        <ele>579</ele>
        <time>2018-09-13T07:05:29.000Z</time>
      </trkpt>
      <trkpt lat="47.97658" lon="6.54686">
        <ele>578</ele>
        <time>2018-09-13T07:05:30.000Z</time>
      </trkpt>
      <trkpt lat="47.97657" lon="6.54684">
        <ele>578</ele>
        <time>2018-09-13T07:05:31.000Z</time>
      </trkpt>
      <trkpt lat="47.97656" lon="6.54682">
        <ele>578</ele>
        <time>2018-09-13T07:05:32.000Z</time>
      </trkpt>
      <trkpt lat="47.97655" lon="6.54681">
        <ele>577</ele>
        <time>2018-09-13T07:05:33.000Z</time>
      </trkpt>
      <trkpt lat="47.97654" lon="6.54679">
        <ele>577</ele>
        <time>2018-09-13T07:05:34.000Z</time>
      </trkpt>
      <trkpt lat="47.97652" lon="6.54677">
        <ele>577</ele>
        <time>2018-09-13T07:05:35.000Z</time>
      </trkpt>
      <trkpt lat="47.97651" lon="6.54675">
        <ele>576</ele>
        <time>2018-09-13T07:05:36.000Z</time>
      </trkpt>
      <trkpt lat="47.9765" lon="6.54673">
        <ele>576</ele>
        <time>2018-09-13T07:05:37.000Z</time>
      </trkpt>
      <trkpt lat="47.97649" lon="6.54671">
        <ele>576</ele>
        <time>2018-09-13T07:05:38.000Z</time>
      </trkpt>
      <trkpt lat="47.97648" lon="6.54668">
        <ele>575</ele>
        <time>2018-09-13T07:05:39.000Z</time>
      </trkpt>
      <trkpt lat="47.97646" lon="6.54666">
        <ele>575</ele>
        <time>2018-09-13T07:05:40.000Z</time>
      </trkpt>
      <trkpt lat="47.97645" lon="6.54664">
        <ele>575</ele>
        <time>2018-09-13T07:05:41.000Z</time>
      </trkpt>
      <trkpt lat="47.97645" lon="6.54662">
        <ele>575</ele>
        <time>2018-09-13T07:05:42.000Z</time>
      </trkpt>
      <trkpt lat="47.97644" lon="6.5466">
        <ele>574</ele>
        <time>2018-09-13T07:05:43.000Z</time>
      </trkpt>
      <trkpt lat="47.97643" lon="6.54658">
        <ele>574</ele>
        <time>2018-09-13T07:05:44.000Z</time>
      </trkpt>
      <trkpt lat="47.97643" lon="6.54656">
        <ele>574</ele>
        <time>2018-09-13T07:05:45.000Z</time>
      </trkpt>
      <trkpt lat="47.97642" lon="6.54654">
        <ele>574</ele>
        <time>2018-09-13T07:05:46.000Z</time>
      </trkpt>
      <trkpt lat="47.97641" lon="6.54652">
        <ele>573</ele>
        <time>2018-09-13T07:05:47.000Z</time>
      </trkpt>
      <trkpt lat="47.9764" lon="6.5465">
        <ele>573</ele>
        <time>2018-09-13T07:05:48.000Z</time>
      </trkpt>
      <trkpt lat="47.97639" lon="6.54648">
        <ele>573</ele>
        <time>2018-09-13T07:05:49.000Z</time>
      </trkpt>
      <trkpt lat="47.97638" lon="6.54646">
        <ele>573</ele>
        <time>2018-09-13T07:05:50.000Z</time>
      </trkpt>
      <trkpt lat="47.97637" lon="6.54644">
        <ele>572</ele>
        <time>2018-09-13T07:05:51.000Z</time>
      </trkpt>
      <trkpt lat="47.97635" lon="6.54642">
        <ele>572</ele>
        <time>2018-09-13T07:05:52.000Z</time>
      </trkpt>
      <trkpt lat="47.97634" lon="6.5464">
        <ele>572</ele>
        <time>2018-09-13T07:05:53.000Z</time>
      </trkpt>
      <trkpt lat="47.97633" lon="6.54638">
        <ele>572</ele>
        <time>2018-09-13T07:05:54.000Z</time>
      </trkpt>
      <trkpt lat="47.97632" lon="6.54635">
        <ele>572</ele>
        <time>2018-09-13T07:05:55.000Z</time>
      </trkpt>
      <trkpt lat="47.97631" lon="6.54633">
        <ele>572</ele>
        <time>2018-09-13T07:05:56.000Z</time>
      </trkpt>
      <trkpt lat="47.9763" lon="6.54631">
        <ele>571</ele>
        <time>2018-09-13T07:05:57.000Z</time>
      </trkpt>
      <trkpt lat="47.97628" lon="6.54628">
        <ele>571</ele>
        <time>2018-09-13T07:05:58.000Z</time>
      </trkpt>
      <trkpt lat="47.97627" lon="6.54626">
        <ele>571</ele>
        <time>2018-09-13T07:05:59.000Z</time>
      </trkpt>
      <trkpt lat="47.97626" lon="6.54623">
        <ele>571</ele>
        <time>2018-09-13T07:06:00.000Z</time>
      </trkpt>
      <trkpt lat="47.97626" lon="6.54621">
        <ele>571</ele>
        <time>2018-09-13T07:06:01.000Z</time>
      </trkpt>
      <trkpt lat="47.97625" lon="6.5462">
        <ele>571</ele>
        <time>2018-09-13T07:06:02.000Z</time>
      </trkpt>
      <trkpt lat="47.97624" lon="6.54618">
        <ele>571</ele>
        <time>2018-09-13T07:06:03.000Z</time>
      </trkpt>
      <trkpt lat="47.97624" lon="6.54616">
        <ele>570</ele>
        <time>2018-09-13T07:06:04.000Z</time>
      </trkpt>
      <trkpt lat="47.97623" lon="6.54613">
        <ele>570</ele>
        <time>2018-09-13T07:06:05.000Z</time>
      </trkpt>
      <trkpt lat="47.97622" lon="6.54611">
        <ele>570</ele>
        <time>2018-09-13T07:06:06.000Z</time>
      </trkpt>
      <trkpt lat="47.97621" lon="6.54609">
        <ele>570</ele>
        <time>2018-09-13T07:06:07.000Z</time>
      </trkpt>
      <trkpt lat="47.9762" lon="6.54606">
        <ele>570</ele>
        <time>2018-09-13T07:06:08.000Z</time>
      </trkpt>
      <trkpt lat="47.97619" lon="6.54604">
        <ele>570</ele>
        <time>2018-09-13T07:06:09.000Z</time>
      </trkpt>
      <trkpt lat="47.97619" lon="6.54601">
        <ele>570</ele>
        <time>2018-09-13T07:06:10.000Z</time>
      </trkpt>
      <trkpt lat="47.97618" lon="6.54598">
        <ele>569</ele>
        <time>2018-09-13T07:06:11.000Z</time>
      </trkpt>
      <trkpt lat="47.97617" lon="6.54595">
        <ele>569</ele>
        <time>2018-09-13T07:06:12.000Z</time>
      </trkpt>
      <trkpt lat="47.97617" lon="6.54593">
        <ele>569</ele>
        <time>2018-09-13T07:06:13.000Z</time>
      </trkpt>
      <trkpt lat="47.97616" lon="6.5459">
        <ele>569</ele>
        <time>2018-09-13T07:06:14.000Z</time>
      </trkpt>
      <trkpt lat="47.97616" lon="6.54587">
        <ele>569</ele>
        <time>2018-09-13T07:06:15.000Z</time>
      </trkpt>
      <trkpt lat="47.97615" lon="6.54585">
        <ele>569</ele>
        <time>2018-09-13T07:06:16.000Z</time>
      </trkpt>
      <trkpt lat="47.97615" lon="6.54582">
        <ele>568</ele>
        <time>2018-09-13T07:06:17.000Z</time>
      </trkpt>
      <trkpt lat="47.97615" lon="6.54579">
        <ele>568</ele>
        <time>2018-09-13T07:06:18.000Z</time>
      </trkpt>
      <trkpt lat="47.97614" lon="6.54576">
        <ele>568</ele>
        <time>2018-09-13T07:06:19.000Z</time>
      </trkpt>
      <trkpt lat="47.97614" lon="6.54573">
        <ele>568</ele>
        <time>2018-09-13T07:06:20.000Z</time>
      </trkpt>
      <trkpt lat="47.97614" lon="6.5457">
        <ele>568</ele>
        <time>2018-09-13T07:06:21.000Z</time>
      </trkpt>
      <trkpt lat="47.97613" lon="6.54567">
        <ele>568</ele>
        <time>2018-09-13T07:06:22.000Z</time>
      </trkpt>
      <trkpt lat="47.97613" lon="6.54565">
        <ele>568</ele>
        <time>2018-09-13T07:06:23.000Z</time>
      </trkpt>
      <trkpt lat="47.97612" lon="6.54562">
        <ele>567</ele>
        <time>2018-09-13T07:06:24.000Z</time>
      </trkpt>
      <trkpt lat="47.97611" lon="6.54559">
        <ele>567</ele>
        <time>2018-09-13T07:06:25.000Z</time>
      </trkpt>
      <trkpt lat="47.9761" lon="6.54557">
        <ele>567</ele>
        <time>2018-09-13T07:06:26.000Z</time>
      </trkpt>
      <trkpt lat="47.9761" lon="6.54554">
        <ele>567</ele>
        <time>2018-09-13T07:06:27.000Z</time>
      </trkpt>
      <trkpt lat="47.9761" lon="6.54552">
        <ele>567</ele>
        <time>2018-09-13T07:06:28.000Z</time>
      </trkpt>
      <trkpt lat="47.9761" lon="6.54549">
        <ele>567</ele>
        <time>2018-09-13T07:06:29.000Z</time>
      </trkpt>
      <trkpt lat="47.97609" lon="6.54547">
        <ele>567</ele>
        <time>2018-09-13T07:06:30.000Z</time>
      </trkpt>
      <trkpt lat="47.97608" lon="6.54545">
        <ele>566</ele>
        <time>2018-09-13T07:06:31.000Z</time>
      </trkpt>
      <trkpt lat="47.97607" lon="6.54542">
        <ele>566</ele>
        <time>2018-09-13T07:06:32.000Z</time>
      </trkpt>
      <trkpt lat="47.97606" lon="6.5454">
        <ele>566</ele>
        <time>2018-09-13T07:06:33.000Z</time>
      </trkpt>
      <trkpt lat="47.97605" lon="6.54538">
        <ele>566</ele>
        <time>2018-09-13T07:06:34.000Z</time>
      </trkpt>
      <trkpt lat="47.97605" lon="6.54536">
        <ele>566</ele>
        <time>2018-09-13T07:06:35.000Z</time>
      </trkpt>
      <trkpt lat="47.97604" lon="6.54533">
        <ele>566</ele>
        <time>2018-09-13T07:06:36.000Z</time>
      </trkpt>
      <trkpt lat="47.97603" lon="6.54531">
        <ele>566</ele>
        <time>2018-09-13T07:06:37.000Z</time>
      </trkpt>
      <trkpt lat="47.97602" lon="6.54529">
        <ele>566</ele>
        <time>2018-09-13T07:06:38.000Z</time>
      </trkpt>
      <trkpt lat="47.97601" lon="6.54526">
        <ele>566</ele>
        <time>2018-09-13T07:06:39.000Z</time>
      </trkpt>
      <trkpt lat="47.976" lon="6.54524">
        <ele>566</ele>
        <time>2018-09-13T07:06:40.000Z</time>
      </trkpt>
      <trkpt lat="47.976" lon="6.54521">
        <ele>565</ele>
        <time>2018-09-13T07:06:41.000Z</time>
      </trkpt>
      <trkpt lat="47.97599" lon="6.54518">
        <ele>565</ele>
        <time>2018-09-13T07:06:42.000Z</time>
      </trkpt>
      <trkpt lat="47.97598" lon="6.54515">
        <ele>565</ele>
        <time>2018-09-13T07:06:43.000Z</time>
      </trkpt>
      <trkpt lat="47.97597" lon="6.54513">
        <ele>565</ele>
        <time>2018-09-13T07:06:44.000Z</time>
      </trkpt>
      <trkpt lat="47.97597" lon="6.54511">
        <ele>565</ele>
        <time>2018-09-13T07:06:45.000Z</time>
      </trkpt>
      <trkpt lat="47.97596" lon="6.54509">
        <ele>565</ele>
        <time>2018-09-13T07:06:46.000Z</time>
      </trkpt>
      <trkpt lat="47.97595" lon="6.54506">
        <ele>565</ele>
        <time>2018-09-13T07:06:47.000Z</time>
      </trkpt>
      <trkpt lat="47.97594" lon="6.54504">
        <ele>565</ele>
        <time>2018-09-13T07:06:48.000Z</time>
      </trkpt>
      <trkpt lat="47.97593" lon="6.54501">
        <ele>565</ele>
        <time>2018-09-13T07:06:49.000Z</time>
      </trkpt>
      <trkpt lat="47.97592" lon="6.54498">
        <ele>565</ele>
        <time>2018-09-13T07:06:50.000Z</time>
      </trkpt>
      <trkpt lat="47.97592" lon="6.54496">
        <ele>565</ele>
        <time>2018-09-13T07:06:51.000Z</time>
      </trkpt>
      <trkpt lat="47.97591" lon="6.54494">
        <ele>565</ele>
        <time>2018-09-13T07:06:52.000Z</time>
      </trkpt>
      <trkpt lat="47.9759" lon="6.54491">
        <ele>565</ele>
        <time>2018-09-13T07:06:53.000Z</time>
      </trkpt>
      <trkpt lat="47.97589" lon="6.54489">
        <ele>565</ele>
        <time>2018-09-13T07:06:54.000Z</time>
      </trkpt>
      <trkpt lat="47.97589" lon="6.54487">
        <ele>565</ele>
        <time>2018-09-13T07:06:55.000Z</time>
      </trkpt>
      <trkpt lat="47.97588" lon="6.54484">
        <ele>565</ele>
        <time>2018-09-13T07:06:56.000Z</time>
      </trkpt>
      <trkpt lat="47.97587" lon="6.54481">
        <ele>565</ele>
        <time>2018-09-13T07:06:57.000Z</time>
      </trkpt>
      <trkpt lat="47.97586" lon="6.54479">
        <ele>565</ele>
        <time>2018-09-13T07:06:58.000Z</time>
      </trkpt>
      <trkpt lat="47.97586" lon="6.54476">
        <ele>565</ele>
        <time>2018-09-13T07:06:59.000Z</time>
      </trkpt>
      <trkpt lat="47.97585" lon="6.54474">
        <ele>565</ele>
        <time>2018-09-13T07:07:00.000Z</time>
      </trkpt>
      <trkpt lat="47.97584" lon="6.54471">
        <ele>565</ele>
        <time>2018-09-13T07:07:01.000Z</time>
      </trkpt>
      <trkpt lat="47.97584" lon="6.54469">
        <ele>565</ele>
        <time>2018-09-13T07:07:02.000Z</time>
      </trkpt>
      <trkpt lat="47.97583" lon="6.54466">
        <ele>565</ele>
        <time>2018-09-13T07:07:03.000Z</time>
      </trkpt>
      <trkpt lat="47.97583" lon="6.54464">
        <ele>565</ele>
        <time>2018-09-13T07:07:04.000Z</time>
      </trkpt>
      <trkpt lat="47.97582" lon="6.54461">
        <ele>565</ele>
        <time>2018-09-13T07:07:05.000Z</time>
      </trkpt>
      <trkpt lat="47.97582" lon="6.54459">
        <ele>565</ele>
        <time>2018-09-13T07:07:06.000Z</time>
      </trkpt>
      <trkpt lat="47.97581" lon="6.54457">
        <ele>565</ele>
        <time>2018-09-13T07:07:07.000Z</time>
      </trkpt>
      <trkpt lat="47.9758" lon="6.54455">
        <ele>565</ele>
        <time>2018-09-13T07:07:08.000Z</time>
      </trkpt>
      <trkpt lat="47.97579" lon="6.54452">
        <ele>565</ele>
        <time>2018-09-13T07:07:09.000Z</time>
      </trkpt>
      <trkpt lat="47.97578" lon="6.54451">
        <ele>565</ele>
        <time>2018-09-13T07:07:10.000Z</time>
      </trkpt>
      <trkpt lat="47.97577" lon="6.54449">
        <ele>564</ele>
        <time>2018-09-13T07:07:11.000Z</time>
      </trkpt>
      <trkpt lat="47.97575" lon="6.54447">
        <ele>564</ele>
        <time>2018-09-13T07:07:12.000Z</time>
      </trkpt>
      <trkpt lat="47.97574" lon="6.54445">
        <ele>564</ele>
        <time>2018-09-13T07:07:13.000Z</time>
      </trkpt>
      <trkpt lat="47.97573" lon="6.54443">
        <ele>564</ele>
        <time>2018-09-13T07:07:14.000Z</time>
      </trkpt>
      <trkpt lat="47.97572" lon="6.54441">
        <ele>564</ele>
        <time>2018-09-13T07:07:15.000Z</time>
      </trkpt>
      <trkpt lat="47.97571" lon="6.54439">
        <ele>564</ele>
        <time>2018-09-13T07:07:16.000Z</time>
      </trkpt>
      <trkpt lat="47.9757" lon="6.54436">
        <ele>564</ele>
        <time>2018-09-13T07:07:17.000Z</time>
      </trkpt>
      <trkpt lat="47.97569" lon="6.54434">
        <ele>564</ele>
        <time>2018-09-13T07:07:18.000Z</time>
      </trkpt>
      <trkpt lat="47.97569" lon="6.54432">
        <ele>564</ele>
        <time>2018-09-13T07:07:19.000Z</time>
      </trkpt>
      <trkpt lat="47.97569" lon="6.5443">
        <ele>564</ele>
        <time>2018-09-13T07:07:20.000Z</time>
      </trkpt>
      <trkpt lat="47.97568" lon="6.54428">
        <ele>564</ele>
        <time>2018-09-13T07:07:21.000Z</time>
      </trkpt>
      <trkpt lat="47.97568" lon="6.54426">
        <ele>564</ele>
        <time>2018-09-13T07:07:22.000Z</time>
      </trkpt>
      <trkpt lat="47.97567" lon="6.54424">
        <ele>564</ele>
        <time>2018-09-13T07:07:23.000Z</time>
      </trkpt>
      <trkpt lat="47.97566" lon="6.54422">
        <ele>564</ele>
        <time>2018-09-13T07:07:24.000Z</time>
      </trkpt>
      <trkpt lat="47.97565" lon="6.5442">
        <ele>564</ele>
        <time>2018-09-13T07:07:25.000Z</time>
      </trkpt>
      <trkpt lat="47.97565" lon="6.54418">
        <ele>564</ele>
        <time>2018-09-13T07:07:26.000Z</time>
      </trkpt>
      <trkpt lat="47.97564" lon="6.54416">
        <ele>564</ele>
        <time>2018-09-13T07:07:27.000Z</time>
      </trkpt>
      <trkpt lat="47.97563" lon="6.54414">
        <ele>564</ele>
        <time>2018-09-13T07:07:28.000Z</time>
      </trkpt>
      <trkpt lat="47.97562" lon="6.54412">
        <ele>564</ele>
        <time>2018-09-13T07:07:29.000Z</time>
      </trkpt>
      <trkpt lat="47.97562" lon="6.5441">
        <ele>564</ele>
        <time>2018-09-13T07:07:30.000Z</time>
      </trkpt>
      <trkpt lat="47.97561" lon="6.54408">
        <ele>564</ele>
        <time>2018-09-13T07:07:31.000Z</time>
      </trkpt>
      <trkpt lat="47.9756" lon="6.54406">
        <ele>564</ele>
        <time>2018-09-13T07:07:32.000Z</time>
      </trkpt>
      <trkpt lat="47.97559" lon="6.54404">
        <ele>564</ele>
        <time>2018-09-13T07:07:33.000Z</time>
      </trkpt>
      <trkpt lat="47.97558" lon="6.54402">
        <ele>564</ele>
        <time>2018-09-13T07:07:34.000Z</time>
      </trkpt>
      <trkpt lat="47.97558" lon="6.544">
        <ele>564</ele>
        <time>2018-09-13T07:07:35.000Z</time>
      </trkpt>
      <trkpt lat="47.97557" lon="6.54399">
        <ele>564</ele>
        <time>2018-09-13T07:07:36.000Z</time>
      </trkpt>
      <trkpt lat="47.97556" lon="6.54397">
        <ele>564</ele>
        <time>2018-09-13T07:07:37.000Z</time>
      </trkpt>
      <trkpt lat="47.97555" lon="6.54395">
        <ele>565</ele>
        <time>2018-09-13T07:07:38.000Z</time>
      </trkpt>
      <trkpt lat="47.97555" lon="6.54393">
        <ele>565</ele>
        <time>2018-09-13T07:07:39.000Z</time>
      </trkpt>
      <trkpt lat="47.97554" lon="6.54392">
        <ele>565</ele>
        <time>2018-09-13T07:07:40.000Z</time>
      </trkpt>
      <trkpt lat="47.97553" lon="6.5439">
        <ele>565</ele>
        <time>2018-09-13T07:07:41.000Z</time>
      </trkpt>
      <trkpt lat="47.97553" lon="6.54389">
        <ele>565</ele>
        <time>2018-09-13T07:07:42.000Z</time>
      </trkpt>
      <trkpt lat="47.97552" lon="6.54388">
        <ele>565</ele>
        <time>2018-09-13T07:07:43.000Z</time>
      </trkpt>
      <trkpt lat="47.97551" lon="6.54386">
        <ele>565</ele>
        <time>2018-09-13T07:07:44.000Z</time>
      </trkpt>
      <trkpt lat="47.97551" lon="6.54385">
        <ele>565</ele>
        <time>2018-09-13T07:07:45.000Z</time>
      </trkpt>
      <trkpt lat="47.9755" lon="6.54383">
        <ele>565</ele>
        <time>2018-09-13T07:07:46.000Z</time>
      </trkpt>
      <trkpt lat="47.97549" lon="6.54382">
        <ele>565</ele>
        <time>2018-09-13T07:07:47.000Z</time>
      </trkpt>
      <trkpt lat="47.97549" lon="6.54381">
        <ele>565</ele>
        <time>2018-09-13T07:07:48.000Z</time>
      </trkpt>
      <trkpt lat="47.97548" lon="6.5438">
        <ele>565</ele>
        <time>2018-09-13T07:07:49.000Z</time>
      </trkpt>
      <trkpt lat="47.97547" lon="6.54378">
        <ele>565</ele>
        <time>2018-09-13T07:07:50.000Z</time>
      </trkpt>
      <trkpt lat="47.97547" lon="6.54377">
        <ele>565</ele>
        <time>2018-09-13T07:07:51.000Z</time>
      </trkpt>
      <trkpt lat="47.97546" lon="6.54376">
        <ele>565</ele>
        <time>2018-09-13T07:07:52.000Z</time>
      </trkpt>
      <trkpt lat="47.97545" lon="6.54375">
        <ele>565</ele>
        <time>2018-09-13T07:07:53.000Z</time>
      </trkpt>
      <trkpt lat="47.97544" lon="6.54373">
        <ele>565</ele>
        <time>2018-09-13T07:07:54.000Z</time>
      </trkpt>
      <trkpt lat="47.97544" lon="6.54371">
        <ele>565</ele>
        <time>2018-09-13T07:07:55.000Z</time>
      </trkpt>
      <trkpt lat="47.97543" lon="6.5437">
        <ele>566</ele>
        <time>2018-09-13T07:07:56.000Z</time>
      </trkpt>
      <trkpt lat="47.97542" lon="6.54369">
        <ele>566</ele>
        <time>2018-09-13T07:07:57.000Z</time>
      </trkpt>
      <trkpt lat="47.97541" lon="6.54367">
        <ele>566</ele>
        <time>2018-09-13T07:07:58.000Z</time>
      </trkpt>
      <trkpt lat="47.97541" lon="6.54366">
        <ele>566</ele>
        <time>2018-09-13T07:07:59.000Z</time>
      </trkpt>
      <trkpt lat="47.9754" lon="6.54364">
        <ele>566</ele>
        <time>2018-09-13T07:08:00.000Z</time>
      </trkpt>
      <trkpt lat="47.97539" lon="6.54363">
        <ele>566</ele>
        <time>2018-09-13T07:08:01.000Z</time>
      </trkpt>
      <trkpt lat="47.97538" lon="6.54361">
        <ele>566</ele>
        <time>2018-09-13T07:08:02.000Z</time>
      </trkpt>
      <trkpt lat="47.97538" lon="6.5436">
        <ele>566</ele>
        <time>2018-09-13T07:08:03.000Z</time>
      </trkpt>
      <trkpt lat="47.97537" lon="6.54358">
        <ele>567</ele>
        <time>2018-09-13T07:08:04.000Z</time>
      </trkpt>
      <trkpt lat="47.97536" lon="6.54356">
        <ele>567</ele>
        <time>2018-09-13T07:08:05.000Z</time>
      </trkpt>
      <trkpt lat="47.97536" lon="6.54355">
        <ele>567</ele>
        <time>2018-09-13T07:08:06.000Z</time>
      </trkpt>
      <trkpt lat="47.97535" lon="6.54353">
        <ele>567</ele>
        <time>2018-09-13T07:08:07.000Z</time>
      </trkpt>
      <trkpt lat="47.97535" lon="6.54351">
        <ele>567</ele>
        <time>2018-09-13T07:08:08.000Z</time>
      </trkpt>
      <trkpt lat="47.97534" lon="6.5435">
        <ele>567</ele>
        <time>2018-09-13T07:08:09.000Z</time>
      </trkpt>
      <trkpt lat="47.97533" lon="6.54348">
        <ele>568</ele>
        <time>2018-09-13T07:08:10.000Z</time>
      </trkpt>
      <trkpt lat="47.97533" lon="6.54347">
        <ele>568</ele>
        <time>2018-09-13T07:08:11.000Z</time>
      </trkpt>
      <trkpt lat="47.97533" lon="6.54345">
        <ele>568</ele>
        <time>2018-09-13T07:08:12.000Z</time>
      </trkpt>
      <trkpt lat="47.97533" lon="6.54343">
        <ele>568</ele>
        <time>2018-09-13T07:08:13.000Z</time>
      </trkpt>
      <trkpt lat="47.97533" lon="6.54342">
        <ele>568</ele>
        <time>2018-09-13T07:08:14.000Z</time>
      </trkpt>
      <trkpt lat="47.97533" lon="6.5434">
        <ele>569</ele>
        <time>2018-09-13T07:08:15.000Z</time>
      </trkpt>
      <trkpt lat="47.97533" lon="6.54339">
        <ele>569</ele>
        <time>2018-09-13T07:08:16.000Z</time>
      </trkpt>
      <trkpt lat="47.97533" lon="6.54338">
        <ele>569</ele>
        <time>2018-09-13T07:08:17.000Z</time>
      </trkpt>
      <trkpt lat="47.97534" lon="6.54336">
        <ele>569</ele>
        <time>2018-09-13T07:08:18.000Z</time>
      </trkpt>
      <trkpt lat="47.97534" lon="6.54336">
        <ele>570</ele>
        <time>2018-09-13T07:08:19.000Z</time>
      </trkpt>
      <trkpt lat="47.97535" lon="6.54335">
        <ele>570</ele>
        <time>2018-09-13T07:08:20.000Z</time>
      </trkpt>
      <trkpt lat="47.97535" lon="6.54334">
        <ele>570</ele>
        <time>2018-09-13T07:08:21.000Z</time>
      </trkpt>
      <trkpt lat="47.97536" lon="6.54333">
        <ele>570</ele>
        <time>2018-09-13T07:08:22.000Z</time>
      </trkpt>
      <trkpt lat="47.97536" lon="6.54332">
        <ele>571</ele>
        <time>2018-09-13T07:08:23.000Z</time>
      </trkpt>
      <trkpt lat="47.97537" lon="6.54332">
        <ele>571</ele>
        <time>2018-09-13T07:08:24.000Z</time>
      </trkpt>
      <trkpt lat="47.97537" lon="6.54331">
        <ele>571</ele>
        <time>2018-09-13T07:08:25.000Z</time>
      </trkpt>
      <trkpt lat="47.97538" lon="6.54331">
        <ele>571</ele>
        <time>2018-09-13T07:08:26.000Z</time>
      </trkpt>
      <trkpt lat="47.97538" lon="6.5433">
        <ele>572</ele>
        <time>2018-09-13T07:08:27.000Z</time>
      </trkpt>
      <trkpt lat="47.97539" lon="6.5433">
        <ele>572</ele>
        <time>2018-09-13T07:08:28.000Z</time>
      </trkpt>
      <trkpt lat="47.9754" lon="6.54329">
        <ele>572</ele>
        <time>2018-09-13T07:08:29.000Z</time>
      </trkpt>
      <trkpt lat="47.97541" lon="6.54328">
        <ele>572</ele>
        <time>2018-09-13T07:08:30.000Z</time>
      </trkpt>
      <trkpt lat="47.97542" lon="6.54327">
        <ele>572</ele>
        <time>2018-09-13T07:08:31.000Z</time>
      </trkpt>
      <trkpt lat="47.97543" lon="6.54327">
        <ele>573</ele>
        <time>2018-09-13T07:08:32.000Z</time>
      </trkpt>
      <trkpt lat="47.97543" lon="6.54326">
        <ele>573</ele>
        <time>2018-09-13T07:08:33.000Z</time>
      </trkpt>
      <trkpt lat="47.97544" lon="6.54326">
        <ele>573</ele>
        <time>2018-09-13T07:08:34.000Z</time>
      </trkpt>
      <trkpt lat="47.97545" lon="6.54326">
        <ele>573</ele>
        <time>2018-09-13T07:08:35.000Z</time>
      </trkpt>
      <trkpt lat="47.97546" lon="6.54326">
        <ele>573</ele>
        <time>2018-09-13T07:08:36.000Z</time>
      </trkpt>
      <trkpt lat="47.97547" lon="6.54326">
        <ele>573</ele>
        <time>2018-09-13T07:08:37.000Z</time>
      </trkpt>
      <trkpt lat="47.97548" lon="6.54326">
        <ele>574</ele>
        <time>2018-09-13T07:08:38.000Z</time>
      </trkpt>
      <trkpt lat="47.97548" lon="6.54325">
        <ele>574</ele>
        <time>2018-09-13T07:08:39.000Z</time>
      </trkpt>
      <trkpt lat="47.97549" lon="6.54325">
        <ele>574</ele>
        <time>2018-09-13T07:08:40.000Z</time>
      </trkpt>
      <trkpt lat="47.9755" lon="6.54326">
        <ele>574</ele>
        <time>2018-09-13T07:08:41.000Z</time>
      </trkpt>
      <trkpt lat="47.97551" lon="6.54326">
        <ele>574</ele>
        <time>2018-09-13T07:08:42.000Z</time>
      </trkpt>
      <trkpt lat="47.97552" lon="6.54326">
        <ele>574</ele>
        <time>2018-09-13T07:08:43.000Z</time>
      </trkpt>
      <trkpt lat="47.97553" lon="6.54326">
        <ele>575</ele>
        <time>2018-09-13T07:08:44.000Z</time>
      </trkpt>
      <trkpt lat="47.97554" lon="6.54326">
        <ele>575</ele>
        <time>2018-09-13T07:08:45.000Z</time>
      </trkpt>
      <trkpt lat="47.97555" lon="6.54326">
        <ele>575</ele>
        <time>2018-09-13T07:08:46.000Z</time>
      </trkpt>
      <trkpt lat="47.97556" lon="6.54326">
        <ele>575</ele>
        <time>2018-09-13T07:08:47.000Z</time>
      </trkpt>
      <trkpt lat="47.97557" lon="6.54326">
        <ele>575</ele>
        <time>2018-09-13T07:08:48.000Z</time>
      </trkpt>
      <trkpt lat="47.97558" lon="6.54326">
        <ele>576</ele>
        <time>2018-09-13T07:08:49.000Z</time>
      </trkpt>
      <trkpt lat="47.97558" lon="6.54327">
        <ele>576</ele>
        <time>2018-09-13T07:08:50.000Z</time>
      </trkpt>
      <trkpt lat="47.97559" lon="6.54327">
        <ele>576</ele>
        <time>2018-09-13T07:08:51.000Z</time>
      </trkpt>
      <trkpt lat="47.9756" lon="6.54327">
        <ele>576</ele>
        <time>2018-09-13T07:08:52.000Z</time>
      </trkpt>
      <trkpt lat="47.9756" lon="6.54327">
        <ele>576</ele>
        <time>2018-09-13T07:08:53.000Z</time>
      </trkpt>
      <trkpt lat="47.97561" lon="6.54327">
        <ele>576</ele>
        <time>2018-09-13T07:08:54.000Z</time>
      </trkpt>
      <trkpt lat="47.97562" lon="6.54328">
        <ele>576</ele>
        <time>2018-09-13T07:08:55.000Z</time>
      </trkpt>
      <trkpt lat="47.97562" lon="6.54328">
        <ele>577</ele>
        <time>2018-09-13T07:08:56.000Z</time>
      </trkpt>
      <trkpt lat="47.97563" lon="6.54328">
        <ele>577</ele>
        <time>2018-09-13T07:08:57.000Z</time>
      </trkpt>
      <trkpt lat="47.97563" lon="6.54329">
        <ele>577</ele>
        <time>2018-09-13T07:08:58.000Z</time>
      </trkpt>
      <trkpt lat="47.97564" lon="6.54329">
        <ele>577</ele>
        <time>2018-09-13T07:08:59.000Z</time>
      </trkpt>
      <trkpt lat="47.97565" lon="6.54328">
        <ele>577</ele>
        <time>2018-09-13T07:09:00.000Z</time>
      </trkpt>
      <trkpt lat="47.97565" lon="6.54328">
        <ele>578</ele>
        <time>2018-09-13T07:09:01.000Z</time>
      </trkpt>
      <trkpt lat="47.97566" lon="6.54328">
        <ele>578</ele>
        <time>2018-09-13T07:09:02.000Z</time>
      </trkpt>
      <trkpt lat="47.97566" lon="6.54328">
        <ele>578</ele>
        <time>2018-09-13T07:09:03.000Z</time>
      </trkpt>
      <trkpt lat="47.97567" lon="6.54328">
        <ele>578</ele>
        <time>2018-09-13T07:09:04.000Z</time>
      </trkpt>
      <trkpt lat="47.97568" lon="6.54328">
        <ele>578</ele>
        <time>2018-09-13T07:09:05.000Z</time>
      </trkpt>
      <trkpt lat="47.97568" lon="6.54329">
        <ele>578</ele>
        <time>2018-09-13T07:09:06.000Z</time>
      </trkpt>
      <trkpt lat="47.97569" lon="6.54329">
        <ele>578</ele>
        <time>2018-09-13T07:09:07.000Z</time>
      </trkpt>
      <trkpt lat="47.9757" lon="6.54329">
        <ele>579</ele>
        <time>2018-09-13T07:09:08.000Z</time>
      </trkpt>
      <trkpt lat="47.97571" lon="6.54329">
        <ele>579</ele>
        <time>2018-09-13T07:09:09.000Z</time>
      </trkpt>
      <trkpt lat="47.97571" lon="6.54328">
        <ele>579</ele>
        <time>2018-09-13T07:09:10.000Z</time>
      </trkpt>
      <trkpt lat="47.97572" lon="6.54328">
        <ele>579</ele>
        <time>2018-09-13T07:09:11.000Z</time>
      </trkpt>
      <trkpt lat="47.97573" lon="6.54328">
        <ele>579</ele>
        <time>2018-09-13T07:09:12.000Z</time>
      </trkpt>
      <trkpt lat="47.97574" lon="6.54328">
        <ele>579</ele>
        <time>2018-09-13T07:09:13.000Z</time>
      </trkpt>
      <trkpt lat="47.97575" lon="6.54328">
        <ele>579</ele>
        <time>2018-09-13T07:09:14.000Z</time>
      </trkpt>
      <trkpt lat="47.97576" lon="6.54328">
        <ele>579</ele>
        <time>2018-09-13T07:09:15.000Z</time>
      </trkpt>
      <trkpt lat="47.97577" lon="6.54328">
        <ele>579</ele>
        <time>2018-09-13T07:09:16.000Z</time>
      </trkpt>
      <trkpt lat="47.97577" lon="6.54328">
        <ele>579</ele>
        <time>2018-09-13T07:09:17.000Z</time>
      </trkpt>
      <trkpt lat="47.97578" lon="6.54328">
        <ele>579</ele>
        <time>2018-09-13T07:09:18.000Z</time>
      </trkpt>
      <trkpt lat="47.97579" lon="6.54328">
        <ele>579</ele>
        <time>2018-09-13T07:09:19.000Z</time>
      </trkpt>
      <trkpt lat="47.9758" lon="6.54329">
        <ele>580</ele>
        <time>2018-09-13T07:09:20.000Z</time>
      </trkpt>
      <trkpt lat="47.97581" lon="6.54329">
        <ele>580</ele>
        <time>2018-09-13T07:09:21.000Z</time>
      </trkpt>
      <trkpt lat="47.97582" lon="6.54328">
        <ele>580</ele>
        <time>2018-09-13T07:09:22.000Z</time>
      </trkpt>
      <trkpt lat="47.97583" lon="6.54328">
        <ele>580</ele>
        <time>2018-09-13T07:09:23.000Z</time>
      </trkpt>
      <trkpt lat="47.97584" lon="6.54329">
        <ele>581</ele>
        <time>2018-09-13T07:09:24.000Z</time>
      </trkpt>
      <trkpt lat="47.97585" lon="6.54329">
        <ele>581</ele>
        <time>2018-09-13T07:09:25.000Z</time>
      </trkpt>
      <trkpt lat="47.97586" lon="6.54329">
        <ele>581</ele>
        <time>2018-09-13T07:09:26.000Z</time>
      </trkpt>
      <trkpt lat="47.97586" lon="6.54329">
        <ele>581</ele>
        <time>2018-09-13T07:09:27.000Z</time>
      </trkpt>
      <trkpt lat="47.97587" lon="6.54329">
        <ele>581</ele>
        <time>2018-09-13T07:09:28.000Z</time>
      </trkpt>
      <trkpt lat="47.97588" lon="6.54329">
        <ele>582</ele>
        <time>2018-09-13T07:09:29.000Z</time>
      </trkpt>
      <trkpt lat="47.97588" lon="6.54329">
        <ele>582</ele>
        <time>2018-09-13T07:09:30.000Z</time>
      </trkpt>
      <trkpt lat="47.97589" lon="6.54328">
        <ele>582</ele>
        <time>2018-09-13T07:09:31.000Z</time>
      </trkpt>
      <trkpt lat="47.9759" lon="6.54328">
        <ele>582</ele>
        <time>2018-09-13T07:09:32.000Z</time>
      </trkpt>
      <trkpt lat="47.9759" lon="6.54328">
        <ele>582</ele>
        <time>2018-09-13T07:09:33.000Z</time>
      </trkpt>
      <trkpt lat="47.97591" lon="6.54328">
        <ele>582</ele>
        <time>2018-09-13T07:09:34.000Z</time>
      </trkpt>
      <trkpt lat="47.97592" lon="6.54328">
        <ele>582</ele>
        <time>2018-09-13T07:09:35.000Z</time>
      </trkpt>
      <trkpt lat="47.97593" lon="6.54328">
        <ele>582</ele>
        <time>2018-09-13T07:09:36.000Z</time>
      </trkpt>
      <trkpt lat="47.97594" lon="6.54327">
        <ele>583</ele>
        <time>2018-09-13T07:09:37.000Z</time>
      </trkpt>
      <trkpt lat="47.97595" lon="6.54327">
        <ele>583</ele>
        <time>2018-09-13T07:09:38.000Z</time>
      </trkpt>
      <trkpt lat="47.97596" lon="6.54327">
        <ele>583</ele>
        <time>2018-09-13T07:09:39.000Z</time>
      </trkpt>
      <trkpt lat="47.97596" lon="6.54326">
        <ele>583</ele>
        <time>2018-09-13T07:09:40.000Z</time>
      </trkpt>
      <trkpt lat="47.97597" lon="6.54326">
        <ele>583</ele>
        <time>2018-09-13T07:09:41.000Z</time>
      </trkpt>
      <trkpt lat="47.97598" lon="6.54326">
        <ele>583</ele>
        <time>2018-09-13T07:09:42.000Z</time>
      </trkpt>
      <trkpt lat="47.97599" lon="6.54325">
        <ele>583</ele>
        <time>2018-09-13T07:09:43.000Z</time>
      </trkpt>
      <trkpt lat="47.976" lon="6.54325">
        <ele>583</ele>
        <time>2018-09-13T07:09:44.000Z</time>
      </trkpt>
      <trkpt lat="47.97602" lon="6.54325">
        <ele>584</ele>
        <time>2018-09-13T07:09:45.000Z</time>
      </trkpt>
      <trkpt lat="47.97603" lon="6.54326">
        <ele>584</ele>
        <time>2018-09-13T07:09:46.000Z</time>
      </trkpt>
      <trkpt lat="47.97604" lon="6.54326">
        <ele>584</ele>
        <time>2018-09-13T07:09:47.000Z</time>
      </trkpt>
      <trkpt lat="47.97605" lon="6.54326">
        <ele>584</ele>
        <time>2018-09-13T07:09:48.000Z</time>
      </trkpt>
      <trkpt lat="47.97606" lon="6.54327">
        <ele>584</ele>
        <time>2018-09-13T07:09:49.000Z</time>
      </trkpt>
      <trkpt lat="47.97607" lon="6.54327">
        <ele>584</ele>
        <time>2018-09-13T07:09:50.000Z</time>
      </trkpt>
      <trkpt lat="47.97608" lon="6.54328">
        <ele>584</ele>
        <time>2018-09-13T07:09:51.000Z</time>
      </trkpt>
      <trkpt lat="47.97609" lon="6.54328">
        <ele>584</ele>
        <time>2018-09-13T07:09:52.000Z</time>
      </trkpt>
      <trkpt lat="47.9761" lon="6.54329">
        <ele>585</ele>
        <time>2018-09-13T07:09:53.000Z</time>
      </trkpt>
      <trkpt lat="47.97611" lon="6.5433">
        <ele>585</ele>
        <time>2018-09-13T07:09:54.000Z</time>
      </trkpt>
      <trkpt lat="47.97612" lon="6.54331">
        <ele>585</ele>
        <time>2018-09-13T07:09:55.000Z</time>
      </trkpt>
      <trkpt lat="47.97613" lon="6.54331">
        <ele>585</ele>
        <time>2018-09-13T07:09:56.000Z</time>
      </trkpt>
      <trkpt lat="47.97613" lon="6.54331">
        <ele>585</ele>
        <time>2018-09-13T07:09:57.000Z</time>
      </trkpt>
      <trkpt lat="47.97614" lon="6.54332">
        <ele>585</ele>
        <time>2018-09-13T07:09:58.000Z</time>
      </trkpt>
      <trkpt lat="47.97615" lon="6.54332">
        <ele>586</ele>
        <time>2018-09-13T07:09:59.000Z</time>
      </trkpt>
      <trkpt lat="47.97616" lon="6.54333">
        <ele>586</ele>
        <time>2018-09-13T07:10:00.000Z</time>
      </trkpt>
      <trkpt lat="47.97616" lon="6.54333">
        <ele>586</ele>
        <time>2018-09-13T07:10:01.000Z</time>
      </trkpt>
      <trkpt lat="47.97617" lon="6.54334">
        <ele>586</ele>
        <time>2018-09-13T07:10:02.000Z</time>
      </trkpt>
      <trkpt lat="47.97618" lon="6.54334">
        <ele>586</ele>
        <time>2018-09-13T07:10:03.000Z</time>
      </trkpt>
      <trkpt lat="47.97618" lon="6.54335">
        <ele>587</ele>
        <time>2018-09-13T07:10:04.000Z</time>
      </trkpt>
      <trkpt lat="47.97619" lon="6.54336">
        <ele>587</ele>
        <time>2018-09-13T07:10:05.000Z</time>
      </trkpt>
      <trkpt lat="47.9762" lon="6.54336">
        <ele>587</ele>
        <time>2018-09-13T07:10:06.000Z</time>
      </trkpt>
      <trkpt lat="47.97621" lon="6.54337">
        <ele>587</ele>
        <time>2018-09-13T07:10:07.000Z</time>
      </trkpt>
      <trkpt lat="47.97621" lon="6.54338">
        <ele>587</ele>
        <time>2018-09-13T07:10:08.000Z</time>
      </trkpt>
      <trkpt lat="47.97622" lon="6.54338">
        <ele>587</ele>
        <time>2018-09-13T07:10:09.000Z</time>
      </trkpt>
      <trkpt lat="47.97622" lon="6.54338">
        <ele>588</ele>
        <time>2018-09-13T07:10:10.000Z</time>
      </trkpt>
      <trkpt lat="47.97623" lon="6.54338">
        <ele>588</ele>
        <time>2018-09-13T07:10:11.000Z</time>
      </trkpt>
      <trkpt lat="47.97623" lon="6.54338">
        <ele>588</ele>
        <time>2018-09-13T07:10:12.000Z</time>
      </trkpt>
      <trkpt lat="47.97623" lon="6.54338">
        <ele>588</ele>
        <time>2018-09-13T07:10:13.000Z</time>
      </trkpt>
      <trkpt lat="47.97626" lon="6.54338">
        <ele>590</ele>
        <time>2018-09-13T07:10:14.000Z</time>
      </trkpt>
      <trkpt lat="47.97626" lon="6.54338">
        <ele>590</ele>
        <time>2018-09-13T07:10:15.000Z</time>
      </trkpt>
      <trkpt lat="47.97627" lon="6.54338">
        <ele>591</ele>
        <time>2018-09-13T07:10:16.000Z</time>
      </trkpt>
      <trkpt lat="47.97628" lon="6.54339">
        <ele>591</ele>
        <time>2018-09-13T07:10:17.000Z</time>
      </trkpt>
      <trkpt lat="47.97629" lon="6.54339">
        <ele>591</ele>
        <time>2018-09-13T07:10:18.000Z</time>
      </trkpt>
      <trkpt lat="47.9763" lon="6.54339">
        <ele>591</ele>
        <time>2018-09-13T07:10:19.000Z</time>
      </trkpt>
      <trkpt lat="47.9763" lon="6.54339">
        <ele>591</ele>
        <time>2018-09-13T07:10:20.000Z</time>
      </trkpt>
      <trkpt lat="47.97631" lon="6.5434">
        <ele>591</ele>
        <time>2018-09-13T07:10:21.000Z</time>
      </trkpt>
      <trkpt lat="47.97632" lon="6.5434">
        <ele>592</ele>
        <time>2018-09-13T07:10:22.000Z</time>
      </trkpt>
      <trkpt lat="47.97632" lon="6.54341">
        <ele>592</ele>
        <time>2018-09-13T07:10:23.000Z</time>
      </trkpt>
      <trkpt lat="47.97633" lon="6.54341">
        <ele>592</ele>
        <time>2018-09-13T07:10:24.000Z</time>
      </trkpt>
      <trkpt lat="47.97634" lon="6.54342">
        <ele>592</ele>
        <time>2018-09-13T07:10:25.000Z</time>
      </trkpt>
      <trkpt lat="47.97634" lon="6.54343">
        <ele>592</ele>
        <time>2018-09-13T07:10:26.000Z</time>
      </trkpt>
      <trkpt lat="47.97635" lon="6.54343">
        <ele>593</ele>
        <time>2018-09-13T07:10:27.000Z</time>
      </trkpt>
      <trkpt lat="47.97636" lon="6.54344">
        <ele>593</ele>
        <time>2018-09-13T07:10:28.000Z</time>
      </trkpt>
      <trkpt lat="47.97636" lon="6.54344">
        <ele>593</ele>
        <time>2018-09-13T07:10:29.000Z</time>
      </trkpt>
      <trkpt lat="47.97637" lon="6.54345">
        <ele>593</ele>
        <time>2018-09-13T07:10:30.000Z</time>
      </trkpt>
      <trkpt lat="47.97638" lon="6.54346">
        <ele>593</ele>
        <time>2018-09-13T07:10:31.000Z</time>
      </trkpt>
      <trkpt lat="47.97638" lon="6.54346">
        <ele>593</ele>
        <time>2018-09-13T07:10:32.000Z</time>
      </trkpt>
      <trkpt lat="47.97639" lon="6.54346">
        <ele>594</ele>
        <time>2018-09-13T07:10:33.000Z</time>
      </trkpt>
      <trkpt lat="47.97639" lon="6.54347">
        <ele>594</ele>
        <time>2018-09-13T07:10:34.000Z</time>
      </trkpt>
      <trkpt lat="47.9764" lon="6.54348">
        <ele>594</ele>
        <time>2018-09-13T07:10:35.000Z</time>
      </trkpt>
      <trkpt lat="47.97641" lon="6.54349">
        <ele>594</ele>
        <time>2018-09-13T07:10:36.000Z</time>
      </trkpt>
      <trkpt lat="47.97642" lon="6.5435">
        <ele>594</ele>
        <time>2018-09-13T07:10:37.000Z</time>
      </trkpt>
      <trkpt lat="47.97643" lon="6.54351">
        <ele>594</ele>
        <time>2018-09-13T07:10:38.000Z</time>
      </trkpt>
      <trkpt lat="47.97643" lon="6.54352">
        <ele>594</ele>
        <time>2018-09-13T07:10:39.000Z</time>
      </trkpt>
      <trkpt lat="47.97644" lon="6.54353">
        <ele>594</ele>
        <time>2018-09-13T07:10:40.000Z</time>
      </trkpt>
      <trkpt lat="47.97645" lon="6.54354">
        <ele>595</ele>
        <time>2018-09-13T07:10:41.000Z</time>
      </trkpt>
      <trkpt lat="47.97646" lon="6.54355">
        <ele>595</ele>
        <time>2018-09-13T07:10:42.000Z</time>
      </trkpt>
      <trkpt lat="47.97647" lon="6.54355">
        <ele>595</ele>
        <time>2018-09-13T07:10:43.000Z</time>
      </trkpt>
      <trkpt lat="47.97648" lon="6.54356">
        <ele>595</ele>
        <time>2018-09-13T07:10:44.000Z</time>
      </trkpt>
      <trkpt lat="47.97648" lon="6.54356">
        <ele>595</ele>
        <time>2018-09-13T07:10:45.000Z</time>
      </trkpt>
      <trkpt lat="47.97649" lon="6.54357">
        <ele>595</ele>
        <time>2018-09-13T07:10:46.000Z</time>
      </trkpt>
      <trkpt lat="47.9765" lon="6.54357">
        <ele>595</ele>
        <time>2018-09-13T07:10:47.000Z</time>
      </trkpt>
      <trkpt lat="47.97651" lon="6.54358">
        <ele>596</ele>
        <time>2018-09-13T07:10:48.000Z</time>
      </trkpt>
      <trkpt lat="47.97652" lon="6.54358">
        <ele>596</ele>
        <time>2018-09-13T07:10:49.000Z</time>
      </trkpt>
      <trkpt lat="47.97653" lon="6.54359">
        <ele>596</ele>
        <time>2018-09-13T07:10:50.000Z</time>
      </trkpt>
      <trkpt lat="47.97653" lon="6.5436">
        <ele>596</ele>
        <time>2018-09-13T07:10:51.000Z</time>
      </trkpt>
      <trkpt lat="47.97654" lon="6.5436">
        <ele>596</ele>
        <time>2018-09-13T07:10:52.000Z</time>
      </trkpt>
      <trkpt lat="47.97655" lon="6.54361">
        <ele>596</ele>
        <time>2018-09-13T07:10:53.000Z</time>
      </trkpt>
      <trkpt lat="47.97656" lon="6.54361">
        <ele>596</ele>
        <time>2018-09-13T07:10:54.000Z</time>
      </trkpt>
      <trkpt lat="47.97656" lon="6.54362">
        <ele>597</ele>
        <time>2018-09-13T07:10:55.000Z</time>
      </trkpt>
      <trkpt lat="47.97657" lon="6.54362">
        <ele>597</ele>
        <time>2018-09-13T07:10:56.000Z</time>
      </trkpt>
      <trkpt lat="47.97657" lon="6.54362">
        <ele>597</ele>
        <time>2018-09-13T07:10:57.000Z</time>
      </trkpt>
      <trkpt lat="47.97658" lon="6.54363">
        <ele>597</ele>
        <time>2018-09-13T07:10:58.000Z</time>
      </trkpt>
      <trkpt lat="47.97658" lon="6.54364">
        <ele>597</ele>
        <time>2018-09-13T07:10:59.000Z</time>
      </trkpt>
      <trkpt lat="47.97659" lon="6.54365">
        <ele>597</ele>
        <time>2018-09-13T07:11:00.000Z</time>
      </trkpt>
      <trkpt lat="47.97659" lon="6.54365">
        <ele>597</ele>
        <time>2018-09-13T07:11:01.000Z</time>
      </trkpt>
      <trkpt lat="47.97659" lon="6.54366">
        <ele>598</ele>
        <time>2018-09-13T07:11:02.000Z</time>
      </trkpt>
      <trkpt lat="47.9766" lon="6.54367">
        <ele>598</ele>
        <time>2018-09-13T07:11:03.000Z</time>
      </trkpt>
      <trkpt lat="47.97661" lon="6.54367">
        <ele>598</ele>
        <time>2018-09-13T07:11:04.000Z</time>
      </trkpt>
      <trkpt lat="47.97661" lon="6.54367">
        <ele>598</ele>
        <time>2018-09-13T07:11:05.000Z</time>
      </trkpt>
      <trkpt lat="47.97662" lon="6.54368">
        <ele>598</ele>
        <time>2018-09-13T07:11:06.000Z</time>
      </trkpt>
      <trkpt lat="47.97663" lon="6.54369">
        <ele>598</ele>
        <time>2018-09-13T07:11:07.000Z</time>
      </trkpt>
      <trkpt lat="47.97664" lon="6.54369">
        <ele>598</ele>
        <time>2018-09-13T07:11:08.000Z</time>
      </trkpt>
      <trkpt lat="47.97665" lon="6.5437">
        <ele>598</ele>
        <time>2018-09-13T07:11:09.000Z</time>
      </trkpt>
      <trkpt lat="47.97666" lon="6.54371">
        <ele>599</ele>
        <time>2018-09-13T07:11:10.000Z</time>
      </trkpt>
      <trkpt lat="47.97666" lon="6.54371">
        <ele>599</ele>
        <time>2018-09-13T07:11:11.000Z</time>
      </trkpt>
      <trkpt lat="47.97667" lon="6.54372">
        <ele>599</ele>
        <time>2018-09-13T07:11:12.000Z</time>
      </trkpt>
      <trkpt lat="47.97668" lon="6.54373">
        <ele>599</ele>
        <time>2018-09-13T07:11:13.000Z</time>
      </trkpt>
      <trkpt lat="47.97669" lon="6.54374">
        <ele>599</ele>
        <time>2018-09-13T07:11:14.000Z</time>
      </trkpt>
      <trkpt lat="47.9767" lon="6.54375">
        <ele>599</ele>
        <time>2018-09-13T07:11:15.000Z</time>
      </trkpt>
      <trkpt lat="47.9767" lon="6.54376">
        <ele>599</ele>
        <time>2018-09-13T07:11:16.000Z</time>
      </trkpt>
      <trkpt lat="47.97671" lon="6.54376">
        <ele>600</ele>
        <time>2018-09-13T07:11:17.000Z</time>
      </trkpt>
      <trkpt lat="47.97671" lon="6.54377">
        <ele>600</ele>
        <time>2018-09-13T07:11:18.000Z</time>
      </trkpt>
      <trkpt lat="47.97672" lon="6.54378">
        <ele>600</ele>
        <time>2018-09-13T07:11:19.000Z</time>
      </trkpt>
      <trkpt lat="47.97672" lon="6.54379">
        <ele>600</ele>
        <time>2018-09-13T07:11:20.000Z</time>
      </trkpt>
      <trkpt lat="47.97673" lon="6.5438">
        <ele>600</ele>
        <time>2018-09-13T07:11:21.000Z</time>
      </trkpt>
      <trkpt lat="47.97673" lon="6.54381">
        <ele>600</ele>
        <time>2018-09-13T07:11:22.000Z</time>
      </trkpt>
      <trkpt lat="47.97674" lon="6.54382">
        <ele>600</ele>
        <time>2018-09-13T07:11:23.000Z</time>
      </trkpt>
      <trkpt lat="47.97675" lon="6.54384">
        <ele>601</ele>
        <time>2018-09-13T07:11:24.000Z</time>
      </trkpt>
      <trkpt lat="47.97675" lon="6.54385">
        <ele>601</ele>
        <time>2018-09-13T07:11:25.000Z</time>
      </trkpt>
      <trkpt lat="47.97676" lon="6.54386">
        <ele>601</ele>
        <time>2018-09-13T07:11:26.000Z</time>
      </trkpt>
      <trkpt lat="47.97676" lon="6.54387">
        <ele>601</ele>
        <time>2018-09-13T07:11:27.000Z</time>
      </trkpt>
      <trkpt lat="47.97677" lon="6.54388">
        <ele>601</ele>
        <time>2018-09-13T07:11:28.000Z</time>
      </trkpt>
      <trkpt lat="47.97677" lon="6.54389">
        <ele>601</ele>
        <time>2018-09-13T07:11:29.000Z</time>
      </trkpt>
      <trkpt lat="47.97677" lon="6.5439">
        <ele>602</ele>
        <time>2018-09-13T07:11:30.000Z</time>
      </trkpt>
      <trkpt lat="47.97678" lon="6.54391">
        <ele>602</ele>
        <time>2018-09-13T07:11:31.000Z</time>
      </trkpt>
      <trkpt lat="47.97679" lon="6.54392">
        <ele>602</ele>
        <time>2018-09-13T07:11:32.000Z</time>
      </trkpt>
      <trkpt lat="47.97679" lon="6.54393">
        <ele>602</ele>
        <time>2018-09-13T07:11:33.000Z</time>
      </trkpt>
      <trkpt lat="47.9768" lon="6.54394">
        <ele>602</ele>
        <time>2018-09-13T07:11:34.000Z</time>
      </trkpt>
      <trkpt lat="47.9768" lon="6.54395">
        <ele>603</ele>
        <time>2018-09-13T07:11:35.000Z</time>
      </trkpt>
      <trkpt lat="47.97681" lon="6.54396">
        <ele>603</ele>
        <time>2018-09-13T07:11:36.000Z</time>
      </trkpt>
      <trkpt lat="47.97682" lon="6.54397">
        <ele>603</ele>
        <time>2018-09-13T07:11:37.000Z</time>
      </trkpt>
      <trkpt lat="47.97683" lon="6.54398">
        <ele>603</ele>
        <time>2018-09-13T07:11:38.000Z</time>
      </trkpt>
      <trkpt lat="47.97684" lon="6.54399">
        <ele>603</ele>
        <time>2018-09-13T07:11:39.000Z</time>
      </trkpt>
      <trkpt lat="47.97684" lon="6.544">
        <ele>604</ele>
        <time>2018-09-13T07:11:40.000Z</time>
      </trkpt>
      <trkpt lat="47.97685" lon="6.54401">
        <ele>604</ele>
        <time>2018-09-13T07:11:41.000Z</time>
      </trkpt>
      <trkpt lat="47.97686" lon="6.54403">
        <ele>604</ele>
        <time>2018-09-13T07:11:42.000Z</time>
      </trkpt>
      <trkpt lat="47.97686" lon="6.54404">
        <ele>604</ele>
        <time>2018-09-13T07:11:43.000Z</time>
      </trkpt>
      <trkpt lat="47.97687" lon="6.54405">
        <ele>604</ele>
        <time>2018-09-13T07:11:44.000Z</time>
      </trkpt>
      <trkpt lat="47.97687" lon="6.54406">
        <ele>604</ele>
        <time>2018-09-13T07:11:45.000Z</time>
      </trkpt>
      <trkpt lat="47.97688" lon="6.54407">
        <ele>605</ele>
        <time>2018-09-13T07:11:46.000Z</time>
      </trkpt>
      <trkpt lat="47.97689" lon="6.54408">
        <ele>605</ele>
        <time>2018-09-13T07:11:47.000Z</time>
      </trkpt>
      <trkpt lat="47.97689" lon="6.54408">
        <ele>605</ele>
        <time>2018-09-13T07:11:48.000Z</time>
      </trkpt>
      <trkpt lat="47.9769" lon="6.54409">
        <ele>605</ele>
        <time>2018-09-13T07:11:49.000Z</time>
      </trkpt>
      <trkpt lat="47.97691" lon="6.54411">
        <ele>605</ele>
        <time>2018-09-13T07:11:50.000Z</time>
      </trkpt>
      <trkpt lat="47.97692" lon="6.54412">
        <ele>605</ele>
        <time>2018-09-13T07:11:51.000Z</time>
      </trkpt>
      <trkpt lat="47.97692" lon="6.54413">
        <ele>606</ele>
        <time>2018-09-13T07:11:52.000Z</time>
      </trkpt>
      <trkpt lat="47.97693" lon="6.54414">
        <ele>606</ele>
        <time>2018-09-13T07:11:53.000Z</time>
      </trkpt>
      <trkpt lat="47.97694" lon="6.54415">
        <ele>606</ele>
        <time>2018-09-13T07:11:54.000Z</time>
      </trkpt>
      <trkpt lat="47.97695" lon="6.54416">
        <ele>606</ele>
        <time>2018-09-13T07:11:55.000Z</time>
      </trkpt>
      <trkpt lat="47.97696" lon="6.54416">
        <ele>606</ele>
        <time>2018-09-13T07:11:56.000Z</time>
      </trkpt>
      <trkpt lat="47.97697" lon="6.54417">
        <ele>606</ele>
        <time>2018-09-13T07:11:57.000Z</time>
      </trkpt>
      <trkpt lat="47.97698" lon="6.54418">
        <ele>606</ele>
        <time>2018-09-13T07:11:58.000Z</time>
      </trkpt>
      <trkpt lat="47.97699" lon="6.54419">
        <ele>607</ele>
        <time>2018-09-13T07:11:59.000Z</time>
      </trkpt>
      <trkpt lat="47.977" lon="6.5442">
        <ele>607</ele>
        <time>2018-09-13T07:12:00.000Z</time>
      </trkpt>
      <trkpt lat="47.97701" lon="6.54421">
        <ele>607</ele>
        <time>2018-09-13T07:12:01.000Z</time>
      </trkpt>
      <trkpt lat="47.97702" lon="6.54422">
        <ele>607</ele>
        <time>2018-09-13T07:12:02.000Z</time>
      </trkpt>
      <trkpt lat="47.97702" lon="6.54423">
        <ele>607</ele>
        <time>2018-09-13T07:12:03.000Z</time>
      </trkpt>
      <trkpt lat="47.97703" lon="6.54424">
        <ele>608</ele>
        <time>2018-09-13T07:12:04.000Z</time>
      </trkpt>
      <trkpt lat="47.97704" lon="6.54425">
        <ele>608</ele>
        <time>2018-09-13T07:12:05.000Z</time>
      </trkpt>
      <trkpt lat="47.97704" lon="6.54426">
        <ele>608</ele>
        <time>2018-09-13T07:12:06.000Z</time>
      </trkpt>
      <trkpt lat="47.97705" lon="6.54426">
        <ele>608</ele>
        <time>2018-09-13T07:12:07.000Z</time>
      </trkpt>
      <trkpt lat="47.97705" lon="6.54427">
        <ele>608</ele>
        <time>2018-09-13T07:12:08.000Z</time>
      </trkpt>
      <trkpt lat="47.97706" lon="6.54428">
        <ele>608</ele>
        <time>2018-09-13T07:12:09.000Z</time>
      </trkpt>
      <trkpt lat="47.97707" lon="6.54429">
        <ele>609</ele>
        <time>2018-09-13T07:12:10.000Z</time>
      </trkpt>
      <trkpt lat="47.97707" lon="6.5443">
        <ele>609</ele>
        <time>2018-09-13T07:12:11.000Z</time>
      </trkpt>
      <trkpt lat="47.97707" lon="6.54431">
        <ele>609</ele>
        <time>2018-09-13T07:12:12.000Z</time>
      </trkpt>
      <trkpt lat="47.97708" lon="6.54432">
        <ele>609</ele>
        <time>2018-09-13T07:12:13.000Z</time>
      </trkpt>
      <trkpt lat="47.97709" lon="6.54432">
        <ele>609</ele>
        <time>2018-09-13T07:12:14.000Z</time>
      </trkpt>
      <trkpt lat="47.97709" lon="6.54433">
        <ele>609</ele>
        <time>2018-09-13T07:12:15.000Z</time>
      </trkpt>
      <trkpt lat="47.9771" lon="6.54434">
        <ele>610</ele>
        <time>2018-09-13T07:12:16.000Z</time>
      </trkpt>
      <trkpt lat="47.9771" lon="6.54434">
        <ele>610</ele>
        <time>2018-09-13T07:12:17.000Z</time>
      </trkpt>
      <trkpt lat="47.97711" lon="6.54435">
        <ele>610</ele>
        <time>2018-09-13T07:12:18.000Z</time>
      </trkpt>
      <trkpt lat="47.97712" lon="6.54436">
        <ele>610</ele>
        <time>2018-09-13T07:12:19.000Z</time>
      </trkpt>
      <trkpt lat="47.97712" lon="6.54437">
        <ele>610</ele>
        <time>2018-09-13T07:12:20.000Z</time>
      </trkpt>
      <trkpt lat="47.97713" lon="6.54438">
        <ele>610</ele>
        <time>2018-09-13T07:12:21.000Z</time>
      </trkpt>
      <trkpt lat="47.97714" lon="6.54439">
        <ele>611</ele>
        <time>2018-09-13T07:12:22.000Z</time>
      </trkpt>
      <trkpt lat="47.97714" lon="6.5444">
        <ele>611</ele>
        <time>2018-09-13T07:12:23.000Z</time>
      </trkpt>
      <trkpt lat="47.97715" lon="6.54441">
        <ele>611</ele>
        <time>2018-09-13T07:12:24.000Z</time>
      </trkpt>
      <trkpt lat="47.97715" lon="6.54442">
        <ele>611</ele>
        <time>2018-09-13T07:12:25.000Z</time>
      </trkpt>
      <trkpt lat="47.97716" lon="6.54443">
        <ele>611</ele>
        <time>2018-09-13T07:12:26.000Z</time>
      </trkpt>
      <trkpt lat="47.97716" lon="6.54444">
        <ele>611</ele>
        <time>2018-09-13T07:12:27.000Z</time>
      </trkpt>
      <trkpt lat="47.97717" lon="6.54444">
        <ele>611</ele>
        <time>2018-09-13T07:12:28.000Z</time>
      </trkpt>
      <trkpt lat="47.97718" lon="6.54445">
        <ele>611</ele>
        <time>2018-09-13T07:12:29.000Z</time>
      </trkpt>
      <trkpt lat="47.97718" lon="6.54445">
        <ele>611</ele>
        <time>2018-09-13T07:12:30.000Z</time>
      </trkpt>
      <trkpt lat="47.97719" lon="6.54446">
        <ele>612</ele>
        <time>2018-09-13T07:12:31.000Z</time>
      </trkpt>
      <trkpt lat="47.9772" lon="6.54446">
        <ele>612</ele>
        <time>2018-09-13T07:12:32.000Z</time>
      </trkpt>
      <trkpt lat="47.9772" lon="6.54447">
        <ele>612</ele>
        <time>2018-09-13T07:12:33.000Z</time>
      </trkpt>
      <trkpt lat="47.97721" lon="6.54447">
        <ele>612</ele>
        <time>2018-09-13T07:12:34.000Z</time>
      </trkpt>
      <trkpt lat="47.97721" lon="6.54448">
        <ele>613</ele>
        <time>2018-09-13T07:12:35.000Z</time>
      </trkpt>
      <trkpt lat="47.97722" lon="6.54448">
        <ele>613</ele>
        <time>2018-09-13T07:12:36.000Z</time>
      </trkpt>
      <trkpt lat="47.97722" lon="6.54448">
        <ele>613</ele>
        <time>2018-09-13T07:12:37.000Z</time>
      </trkpt>
      <trkpt lat="47.97723" lon="6.54448">
        <ele>614</ele>
        <time>2018-09-13T07:12:38.000Z</time>
      </trkpt>
      <trkpt lat="47.97723" lon="6.54448">
        <ele>614</ele>
        <time>2018-09-13T07:12:39.000Z</time>
      </trkpt>
      <trkpt lat="47.97724" lon="6.54448">
        <ele>614</ele>
        <time>2018-09-13T07:12:40.000Z</time>
      </trkpt>
      <trkpt lat="47.97725" lon="6.54448">
        <ele>614</ele>
        <time>2018-09-13T07:12:41.000Z</time>
      </trkpt>
      <trkpt lat="47.97726" lon="6.54448">
        <ele>615</ele>
        <time>2018-09-13T07:12:42.000Z</time>
      </trkpt>
      <trkpt lat="47.97727" lon="6.54449">
        <ele>615</ele>
        <time>2018-09-13T07:12:43.000Z</time>
      </trkpt>
      <trkpt lat="47.97728" lon="6.5445">
        <ele>615</ele>
        <time>2018-09-13T07:12:44.000Z</time>
      </trkpt>
      <trkpt lat="47.97729" lon="6.5445">
        <ele>615</ele>
        <time>2018-09-13T07:12:45.000Z</time>
      </trkpt>
      <trkpt lat="47.9773" lon="6.5445">
        <ele>616</ele>
        <time>2018-09-13T07:12:46.000Z</time>
      </trkpt>
      <trkpt lat="47.9773" lon="6.54451">
        <ele>616</ele>
        <time>2018-09-13T07:12:47.000Z</time>
      </trkpt>
      <trkpt lat="47.97731" lon="6.54452">
        <ele>616</ele>
        <time>2018-09-13T07:12:48.000Z</time>
      </trkpt>
      <trkpt lat="47.97732" lon="6.54453">
        <ele>616</ele>
        <time>2018-09-13T07:12:49.000Z</time>
      </trkpt>
      <trkpt lat="47.97733" lon="6.54454">
        <ele>616</ele>
        <time>2018-09-13T07:12:50.000Z</time>
      </trkpt>
      <trkpt lat="47.97733" lon="6.54455">
        <ele>616</ele>
        <time>2018-09-13T07:12:51.000Z</time>
      </trkpt>
      <trkpt lat="47.97734" lon="6.54455">
        <ele>616</ele>
        <time>2018-09-13T07:12:52.000Z</time>
      </trkpt>
      <trkpt lat="47.97734" lon="6.54456">
        <ele>617</ele>
        <time>2018-09-13T07:12:53.000Z</time>
      </trkpt>
      <trkpt lat="47.97735" lon="6.54457">
        <ele>617</ele>
        <time>2018-09-13T07:12:54.000Z</time>
      </trkpt>
      <trkpt lat="47.97736" lon="6.54458">
        <ele>617</ele>
        <time>2018-09-13T07:12:55.000Z</time>
      </trkpt>
      <trkpt lat="47.97736" lon="6.54458">
        <ele>617</ele>
        <time>2018-09-13T07:12:56.000Z</time>
      </trkpt>
      <trkpt lat="47.97737" lon="6.54459">
        <ele>617</ele>
        <time>2018-09-13T07:12:57.000Z</time>
      </trkpt>
      <trkpt lat="47.97737" lon="6.5446">
        <ele>618</ele>
        <time>2018-09-13T07:12:58.000Z</time>
      </trkpt>
      <trkpt lat="47.97738" lon="6.5446">
        <ele>618</ele>
        <time>2018-09-13T07:12:59.000Z</time>
      </trkpt>
      <trkpt lat="47.97738" lon="6.54461">
        <ele>618</ele>
        <time>2018-09-13T07:13:00.000Z</time>
      </trkpt>
      <trkpt lat="47.97739" lon="6.54461">
        <ele>618</ele>
        <time>2018-09-13T07:13:01.000Z</time>
      </trkpt>
      <trkpt lat="47.97739" lon="6.54462">
        <ele>618</ele>
        <time>2018-09-13T07:13:02.000Z</time>
      </trkpt>
      <trkpt lat="47.97739" lon="6.54462">
        <ele>619</ele>
        <time>2018-09-13T07:13:03.000Z</time>
      </trkpt>
      <trkpt lat="47.9774" lon="6.54463">
        <ele>619</ele>
        <time>2018-09-13T07:13:04.000Z</time>
      </trkpt>
      <trkpt lat="47.9774" lon="6.54464">
        <ele>619</ele>
        <time>2018-09-13T07:13:05.000Z</time>
      </trkpt>
      <trkpt lat="47.97741" lon="6.54465">
        <ele>619</ele>
        <time>2018-09-13T07:13:06.000Z</time>
      </trkpt>
      <trkpt lat="47.97742" lon="6.54466">
        <ele>619</ele>
        <time>2018-09-13T07:13:07.000Z</time>
      </trkpt>
      <trkpt lat="47.97742" lon="6.54468">
        <ele>620</ele>
        <time>2018-09-13T07:13:08.000Z</time>
      </trkpt>
      <trkpt lat="47.97743" lon="6.54469">
        <ele>620</ele>
        <time>2018-09-13T07:13:09.000Z</time>
      </trkpt>
      <trkpt lat="47.97743" lon="6.5447">
        <ele>620</ele>
        <time>2018-09-13T07:13:10.000Z</time>
      </trkpt>
      <trkpt lat="47.97744" lon="6.54472">
        <ele>620</ele>
        <time>2018-09-13T07:13:11.000Z</time>
      </trkpt>
      <trkpt lat="47.97745" lon="6.54473">
        <ele>620</ele>
        <time>2018-09-13T07:13:12.000Z</time>
      </trkpt>
      <trkpt lat="47.97745" lon="6.54474">
        <ele>620</ele>
        <time>2018-09-13T07:13:13.000Z</time>
      </trkpt>
      <trkpt lat="47.97746" lon="6.54476">
        <ele>620</ele>
        <time>2018-09-13T07:13:14.000Z</time>
      </trkpt>
      <trkpt lat="47.97747" lon="6.54477">
        <ele>620</ele>
        <time>2018-09-13T07:13:15.000Z</time>
      </trkpt>
      <trkpt lat="47.97747" lon="6.54478">
        <ele>620</ele>
        <time>2018-09-13T07:13:16.000Z</time>
      </trkpt>
      <trkpt lat="47.97748" lon="6.54479">
        <ele>620</ele>
        <time>2018-09-13T07:13:17.000Z</time>
      </trkpt>
      <trkpt lat="47.97748" lon="6.5448">
        <ele>620</ele>
        <time>2018-09-13T07:13:18.000Z</time>
      </trkpt>
      <trkpt lat="47.97749" lon="6.54481">
        <ele>620</ele>
        <time>2018-09-13T07:13:19.000Z</time>
      </trkpt>
      <trkpt lat="47.9775" lon="6.54482">
        <ele>620</ele>
        <time>2018-09-13T07:13:20.000Z</time>
      </trkpt>
      <trkpt lat="47.97751" lon="6.54483">
        <ele>620</ele>
        <time>2018-09-13T07:13:21.000Z</time>
      </trkpt>
      <trkpt lat="47.97751" lon="6.54484">
        <ele>620</ele>
        <time>2018-09-13T07:13:22.000Z</time>
      </trkpt>
      <trkpt lat="47.97752" lon="6.54486">
        <ele>620</ele>
        <time>2018-09-13T07:13:23.000Z</time>
      </trkpt>
      <trkpt lat="47.97752" lon="6.54487">
        <ele>620</ele>
        <time>2018-09-13T07:13:24.000Z</time>
      </trkpt>
      <trkpt lat="47.97753" lon="6.54488">
        <ele>620</ele>
        <time>2018-09-13T07:13:25.000Z</time>
      </trkpt>
      <trkpt lat="47.97754" lon="6.54489">
        <ele>621</ele>
        <time>2018-09-13T07:13:26.000Z</time>
      </trkpt>
      <trkpt lat="47.97754" lon="6.5449">
        <ele>621</ele>
        <time>2018-09-13T07:13:27.000Z</time>
      </trkpt>
      <trkpt lat="47.97755" lon="6.54491">
        <ele>621</ele>
        <time>2018-09-13T07:13:28.000Z</time>
      </trkpt>
      <trkpt lat="47.97755" lon="6.54492">
        <ele>621</ele>
        <time>2018-09-13T07:13:29.000Z</time>
      </trkpt>
      <trkpt lat="47.97756" lon="6.54493">
        <ele>621</ele>
        <time>2018-09-13T07:13:30.000Z</time>
      </trkpt>
      <trkpt lat="47.97757" lon="6.54494">
        <ele>621</ele>
        <time>2018-09-13T07:13:31.000Z</time>
      </trkpt>
      <trkpt lat="47.97758" lon="6.54496">
        <ele>621</ele>
        <time>2018-09-13T07:13:32.000Z</time>
      </trkpt>
      <trkpt lat="47.97759" lon="6.54497">
        <ele>621</ele>
        <time>2018-09-13T07:13:33.000Z</time>
      </trkpt>
      <trkpt lat="47.9776" lon="6.54498">
        <ele>621</ele>
        <time>2018-09-13T07:13:34.000Z</time>
      </trkpt>
      <trkpt lat="47.9776" lon="6.54499">
        <ele>621</ele>
        <time>2018-09-13T07:13:35.000Z</time>
      </trkpt>
      <trkpt lat="47.97761" lon="6.545">
        <ele>621</ele>
        <time>2018-09-13T07:13:36.000Z</time>
      </trkpt>
      <trkpt lat="47.97761" lon="6.545">
        <ele>622</ele>
        <time>2018-09-13T07:13:37.000Z</time>
      </trkpt>
      <trkpt lat="47.97761" lon="6.54501">
        <ele>622</ele>
        <time>2018-09-13T07:13:38.000Z</time>
      </trkpt>
      <trkpt lat="47.97762" lon="6.54502">
        <ele>622</ele>
        <time>2018-09-13T07:13:39.000Z</time>
      </trkpt>
      <trkpt lat="47.97762" lon="6.54503">
        <ele>622</ele>
        <time>2018-09-13T07:13:40.000Z</time>
      </trkpt>
      <trkpt lat="47.97763" lon="6.54504">
        <ele>623</ele>
        <time>2018-09-13T07:13:41.000Z</time>
      </trkpt>
      <trkpt lat="47.97763" lon="6.54505">
        <ele>623</ele>
        <time>2018-09-13T07:13:42.000Z</time>
      </trkpt>
      <trkpt lat="47.97764" lon="6.54505">
        <ele>623</ele>
        <time>2018-09-13T07:13:43.000Z</time>
      </trkpt>
      <trkpt lat="47.97764" lon="6.54506">
        <ele>623</ele>
        <time>2018-09-13T07:13:44.000Z</time>
      </trkpt>
      <trkpt lat="47.97765" lon="6.54506">
        <ele>623</ele>
        <time>2018-09-13T07:13:45.000Z</time>
      </trkpt>
      <trkpt lat="47.97766" lon="6.54507">
        <ele>624</ele>
        <time>2018-09-13T07:13:46.000Z</time>
      </trkpt>
      <trkpt lat="47.97767" lon="6.54508">
        <ele>624</ele>
        <time>2018-09-13T07:13:47.000Z</time>
      </trkpt>
      <trkpt lat="47.97768" lon="6.54509">
        <ele>624</ele>
        <time>2018-09-13T07:13:48.000Z</time>
      </trkpt>
      <trkpt lat="47.97769" lon="6.54509">
        <ele>624</ele>
        <time>2018-09-13T07:13:49.000Z</time>
      </trkpt>
      <trkpt lat="47.9777" lon="6.5451">
        <ele>624</ele>
        <time>2018-09-13T07:13:50.000Z</time>
      </trkpt>
      <trkpt lat="47.97771" lon="6.54511">
        <ele>625</ele>
        <time>2018-09-13T07:13:51.000Z</time>
      </trkpt>
      <trkpt lat="47.97772" lon="6.54511">
        <ele>625</ele>
        <time>2018-09-13T07:13:52.000Z</time>
      </trkpt>
      <trkpt lat="47.97773" lon="6.54512">
        <ele>625</ele>
        <time>2018-09-13T07:13:53.000Z</time>
      </trkpt>
      <trkpt lat="47.97775" lon="6.54513">
        <ele>625</ele>
        <time>2018-09-13T07:13:54.000Z</time>
      </trkpt>
      <trkpt lat="47.97776" lon="6.54514">
        <ele>626</ele>
        <time>2018-09-13T07:13:55.000Z</time>
      </trkpt>
      <trkpt lat="47.97777" lon="6.54515">
        <ele>626</ele>
        <time>2018-09-13T07:13:56.000Z</time>
      </trkpt>
      <trkpt lat="47.97778" lon="6.54516">
        <ele>626</ele>
        <time>2018-09-13T07:13:57.000Z</time>
      </trkpt>
      <trkpt lat="47.97779" lon="6.54518">
        <ele>627</ele>
        <time>2018-09-13T07:13:58.000Z</time>
      </trkpt>
      <trkpt lat="47.9778" lon="6.54519">
        <ele>627</ele>
        <time>2018-09-13T07:13:59.000Z</time>
      </trkpt>
      <trkpt lat="47.97781" lon="6.54521">
        <ele>627</ele>
        <time>2018-09-13T07:14:00.000Z</time>
      </trkpt>
      <trkpt lat="47.97782" lon="6.54522">
        <ele>628</ele>
        <time>2018-09-13T07:14:01.000Z</time>
      </trkpt>
      <trkpt lat="47.97783" lon="6.54523">
        <ele>628</ele>
        <time>2018-09-13T07:14:02.000Z</time>
      </trkpt>
      <trkpt lat="47.97784" lon="6.54524">
        <ele>628</ele>
        <time>2018-09-13T07:14:03.000Z</time>
      </trkpt>
      <trkpt lat="47.97785" lon="6.54525">
        <ele>628</ele>
        <time>2018-09-13T07:14:04.000Z</time>
      </trkpt>
      <trkpt lat="47.97786" lon="6.54526">
        <ele>629</ele>
        <time>2018-09-13T07:14:05.000Z</time>
      </trkpt>
      <trkpt lat="47.97787" lon="6.54527">
        <ele>629</ele>
        <time>2018-09-13T07:14:06.000Z</time>
      </trkpt>
      <trkpt lat="47.97788" lon="6.54528">
        <ele>629</ele>
        <time>2018-09-13T07:14:07.000Z</time>
      </trkpt>
      <trkpt lat="47.97789" lon="6.5453">
        <ele>630</ele>
        <time>2018-09-13T07:14:08.000Z</time>
      </trkpt>
      <trkpt lat="47.9779" lon="6.54531">
        <ele>630</ele>
        <time>2018-09-13T07:14:09.000Z</time>
      </trkpt>
      <trkpt lat="47.97791" lon="6.54532">
        <ele>630</ele>
        <time>2018-09-13T07:14:10.000Z</time>
      </trkpt>
      <trkpt lat="47.97792" lon="6.54534">
        <ele>631</ele>
        <time>2018-09-13T07:14:11.000Z</time>
      </trkpt>
      <trkpt lat="47.97792" lon="6.54535">
        <ele>631</ele>
        <time>2018-09-13T07:14:12.000Z</time>
      </trkpt>
      <trkpt lat="47.97793" lon="6.54536">
        <ele>631</ele>
        <time>2018-09-13T07:14:13.000Z</time>
      </trkpt>
      <trkpt lat="47.97794" lon="6.54536">
        <ele>632</ele>
        <time>2018-09-13T07:14:14.000Z</time>
      </trkpt>
      <trkpt lat="47.97795" lon="6.54537">
        <ele>632</ele>
        <time>2018-09-13T07:14:15.000Z</time>
      </trkpt>
      <trkpt lat="47.97796" lon="6.54538">
        <ele>632</ele>
        <time>2018-09-13T07:14:16.000Z</time>
      </trkpt>
      <trkpt lat="47.97797" lon="6.5454">
        <ele>632</ele>
        <time>2018-09-13T07:14:17.000Z</time>
      </trkpt>
      <trkpt lat="47.97797" lon="6.54541">
        <ele>633</ele>
        <time>2018-09-13T07:14:18.000Z</time>
      </trkpt>
      <trkpt lat="47.97798" lon="6.54542">
        <ele>633</ele>
        <time>2018-09-13T07:14:19.000Z</time>
      </trkpt>
      <trkpt lat="47.97798" lon="6.54543">
        <ele>633</ele>
        <time>2018-09-13T07:14:20.000Z</time>
      </trkpt>
      <trkpt lat="47.97799" lon="6.54544">
        <ele>634</ele>
        <time>2018-09-13T07:14:21.000Z</time>
      </trkpt>
      <trkpt lat="47.97799" lon="6.54545">
        <ele>634</ele>
        <time>2018-09-13T07:14:22.000Z</time>
      </trkpt>
      <trkpt lat="47.978" lon="6.54546">
        <ele>634</ele>
        <time>2018-09-13T07:14:23.000Z</time>
      </trkpt>
      <trkpt lat="47.978" lon="6.54547">
        <ele>634</ele>
        <time>2018-09-13T07:14:24.000Z</time>
      </trkpt>
      <trkpt lat="47.97801" lon="6.54547">
        <ele>635</ele>
        <time>2018-09-13T07:14:25.000Z</time>
      </trkpt>
      <trkpt lat="47.97801" lon="6.54548">
        <ele>635</ele>
        <time>2018-09-13T07:14:26.000Z</time>
      </trkpt>
      <trkpt lat="47.97801" lon="6.54549">
        <ele>635</ele>
        <time>2018-09-13T07:14:27.000Z</time>
      </trkpt>
      <trkpt lat="47.97803" lon="6.54553">
        <ele>636</ele>
        <time>2018-09-13T07:14:28.000Z</time>
      </trkpt>
      <trkpt lat="47.97804" lon="6.54554">
        <ele>636</ele>
        <time>2018-09-13T07:14:29.000Z</time>
      </trkpt>
      <trkpt lat="47.97804" lon="6.54554">
        <ele>636</ele>
        <time>2018-09-13T07:14:30.000Z</time>
      </trkpt>
      <trkpt lat="47.97805" lon="6.54555">
        <ele>636</ele>
        <time>2018-09-13T07:14:31.000Z</time>
      </trkpt>
      <trkpt lat="47.97805" lon="6.54555">
        <ele>636</ele>
        <time>2018-09-13T07:14:32.000Z</time>
      </trkpt>
      <trkpt lat="47.97806" lon="6.54555">
        <ele>636</ele>
        <time>2018-09-13T07:14:33.000Z</time>
      </trkpt>
      <trkpt lat="47.97806" lon="6.54556">
        <ele>637</ele>
        <time>2018-09-13T07:14:34.000Z</time>
      </trkpt>
      <trkpt lat="47.97807" lon="6.54556">
        <ele>637</ele>
        <time>2018-09-13T07:14:35.000Z</time>
      </trkpt>
      <trkpt lat="47.97808" lon="6.54556">
        <ele>637</ele>
        <time>2018-09-13T07:14:36.000Z</time>
      </trkpt>
      <trkpt lat="47.97809" lon="6.54556">
        <ele>637</ele>
        <time>2018-09-13T07:14:37.000Z</time>
      </trkpt>
      <trkpt lat="47.9781" lon="6.54556">
        <ele>638</ele>
        <time>2018-09-13T07:14:38.000Z</time>
      </trkpt>
      <trkpt lat="47.97811" lon="6.54556">
        <ele>638</ele>
        <time>2018-09-13T07:14:39.000Z</time>
      </trkpt>
      <trkpt lat="47.97812" lon="6.54557">
        <ele>638</ele>
        <time>2018-09-13T07:14:40.000Z</time>
      </trkpt>
      <trkpt lat="47.97814" lon="6.54557">
        <ele>638</ele>
        <time>2018-09-13T07:14:41.000Z</time>
      </trkpt>
      <trkpt lat="47.97815" lon="6.54558">
        <ele>639</ele>
        <time>2018-09-13T07:14:42.000Z</time>
      </trkpt>
      <trkpt lat="47.97816" lon="6.54558">
        <ele>639</ele>
        <time>2018-09-13T07:14:43.000Z</time>
      </trkpt>
      <trkpt lat="47.97817" lon="6.54559">
        <ele>639</ele>
        <time>2018-09-13T07:14:44.000Z</time>
      </trkpt>
      <trkpt lat="47.97818" lon="6.54559">
        <ele>639</ele>
        <time>2018-09-13T07:14:45.000Z</time>
      </trkpt>
      <trkpt lat="47.97819" lon="6.54559">
        <ele>639</ele>
        <time>2018-09-13T07:14:46.000Z</time>
      </trkpt>
      <trkpt lat="47.9782" lon="6.54559">
        <ele>639</ele>
        <time>2018-09-13T07:14:47.000Z</time>
      </trkpt>
      <trkpt lat="47.97821" lon="6.54559">
        <ele>640</ele>
        <time>2018-09-13T07:14:48.000Z</time>
      </trkpt>
      <trkpt lat="47.97822" lon="6.54559">
        <ele>640</ele>
        <time>2018-09-13T07:14:49.000Z</time>
      </trkpt>
      <trkpt lat="47.97822" lon="6.54559">
        <ele>640</ele>
        <time>2018-09-13T07:14:50.000Z</time>
      </trkpt>
      <trkpt lat="47.97823" lon="6.54559">
        <ele>640</ele>
        <time>2018-09-13T07:14:51.000Z</time>
      </trkpt>
      <trkpt lat="47.97824" lon="6.54559">
        <ele>640</ele>
        <time>2018-09-13T07:14:52.000Z</time>
      </trkpt>
      <trkpt lat="47.97824" lon="6.54559">
        <ele>640</ele>
        <time>2018-09-13T07:14:53.000Z</time>
      </trkpt>
      <trkpt lat="47.97825" lon="6.54559">
        <ele>641</ele>
        <time>2018-09-13T07:14:54.000Z</time>
      </trkpt>
      <trkpt lat="47.97827" lon="6.5456">
        <ele>641</ele>
        <time>2018-09-13T07:14:55.000Z</time>
      </trkpt>
      <trkpt lat="47.97828" lon="6.5456">
        <ele>641</ele>
        <time>2018-09-13T07:14:56.000Z</time>
      </trkpt>
      <trkpt lat="47.97829" lon="6.54561">
        <ele>641</ele>
        <time>2018-09-13T07:14:57.000Z</time>
      </trkpt>
      <trkpt lat="47.9783" lon="6.54561">
        <ele>641</ele>
        <time>2018-09-13T07:14:58.000Z</time>
      </trkpt>
      <trkpt lat="47.97831" lon="6.54562">
        <ele>641</ele>
        <time>2018-09-13T07:14:59.000Z</time>
      </trkpt>
      <trkpt lat="47.97833" lon="6.54563">
        <ele>641</ele>
        <time>2018-09-13T07:15:00.000Z</time>
      </trkpt>
      <trkpt lat="47.97834" lon="6.54564">
        <ele>641</ele>
        <time>2018-09-13T07:15:01.000Z</time>
      </trkpt>
      <trkpt lat="47.97834" lon="6.54565">
        <ele>642</ele>
        <time>2018-09-13T07:15:02.000Z</time>
      </trkpt>
      <trkpt lat="47.97835" lon="6.54566">
        <ele>642</ele>
        <time>2018-09-13T07:15:03.000Z</time>
      </trkpt>
      <trkpt lat="47.97836" lon="6.54567">
        <ele>642</ele>
        <time>2018-09-13T07:15:04.000Z</time>
      </trkpt>
      <trkpt lat="47.97837" lon="6.54568">
        <ele>642</ele>
        <time>2018-09-13T07:15:05.000Z</time>
      </trkpt>
      <trkpt lat="47.97838" lon="6.54569">
        <ele>642</ele>
        <time>2018-09-13T07:15:06.000Z</time>
      </trkpt>
      <trkpt lat="47.97839" lon="6.5457">
        <ele>642</ele>
        <time>2018-09-13T07:15:07.000Z</time>
      </trkpt>
      <trkpt lat="47.97841" lon="6.54571">
        <ele>642</ele>
        <time>2018-09-13T07:15:08.000Z</time>
      </trkpt>
      <trkpt lat="47.97842" lon="6.54572">
        <ele>642</ele>
        <time>2018-09-13T07:15:09.000Z</time>
      </trkpt>
      <trkpt lat="47.97844" lon="6.54573">
        <ele>642</ele>
        <time>2018-09-13T07:15:10.000Z</time>
      </trkpt>
      <trkpt lat="47.97845" lon="6.54574">
        <ele>643</ele>
        <time>2018-09-13T07:15:11.000Z</time>
      </trkpt>
      <trkpt lat="47.97846" lon="6.54575">
        <ele>643</ele>
        <time>2018-09-13T07:15:12.000Z</time>
      </trkpt>
      <trkpt lat="47.97847" lon="6.54576">
        <ele>643</ele>
        <time>2018-09-13T07:15:13.000Z</time>
      </trkpt>
      <trkpt lat="47.97848" lon="6.54577">
        <ele>643</ele>
        <time>2018-09-13T07:15:14.000Z</time>
      </trkpt>
      <trkpt lat="47.97849" lon="6.54577">
        <ele>643</ele>
        <time>2018-09-13T07:15:15.000Z</time>
      </trkpt>
      <trkpt lat="47.9785" lon="6.54578">
        <ele>643</ele>
        <time>2018-09-13T07:15:16.000Z</time>
      </trkpt>
      <trkpt lat="47.97851" lon="6.54578">
        <ele>643</ele>
        <time>2018-09-13T07:15:17.000Z</time>
      </trkpt>
      <trkpt lat="47.97852" lon="6.54578">
        <ele>644</ele>
        <time>2018-09-13T07:15:18.000Z</time>
      </trkpt>
      <trkpt lat="47.97854" lon="6.54579">
        <ele>644</ele>
        <time>2018-09-13T07:15:19.000Z</time>
      </trkpt>
      <trkpt lat="47.97855" lon="6.54579">
        <ele>644</ele>
        <time>2018-09-13T07:15:20.000Z</time>
      </trkpt>
      <trkpt lat="47.97856" lon="6.54578">
        <ele>644</ele>
        <time>2018-09-13T07:15:21.000Z</time>
      </trkpt>
      <trkpt lat="47.97857" lon="6.54578">
        <ele>644</ele>
        <time>2018-09-13T07:15:22.000Z</time>
      </trkpt>
      <trkpt lat="47.97859" lon="6.54577">
        <ele>645</ele>
        <time>2018-09-13T07:15:23.000Z</time>
      </trkpt>
      <trkpt lat="47.9786" lon="6.54577">
        <ele>645</ele>
        <time>2018-09-13T07:15:24.000Z</time>
      </trkpt>
      <trkpt lat="47.97861" lon="6.54576">
        <ele>645</ele>
        <time>2018-09-13T07:15:25.000Z</time>
      </trkpt>
      <trkpt lat="47.97863" lon="6.54575">
        <ele>645</ele>
        <time>2018-09-13T07:15:26.000Z</time>
      </trkpt>
      <trkpt lat="47.97864" lon="6.54574">
        <ele>646</ele>
        <time>2018-09-13T07:15:27.000Z</time>
      </trkpt>
      <trkpt lat="47.97865" lon="6.54572">
        <ele>646</ele>
        <time>2018-09-13T07:15:28.000Z</time>
      </trkpt>
      <trkpt lat="47.97866" lon="6.54571">
        <ele>646</ele>
        <time>2018-09-13T07:15:29.000Z</time>
      </trkpt>
      <trkpt lat="47.97867" lon="6.5457">
        <ele>646</ele>
        <time>2018-09-13T07:15:30.000Z</time>
      </trkpt>
      <trkpt lat="47.97869" lon="6.54568">
        <ele>647</ele>
        <time>2018-09-13T07:15:31.000Z</time>
      </trkpt>
      <trkpt lat="47.9787" lon="6.54567">
        <ele>647</ele>
        <time>2018-09-13T07:15:32.000Z</time>
      </trkpt>
      <trkpt lat="47.97871" lon="6.54565">
        <ele>647</ele>
        <time>2018-09-13T07:15:33.000Z</time>
      </trkpt>
      <trkpt lat="47.97872" lon="6.54563">
        <ele>647</ele>
        <time>2018-09-13T07:15:34.000Z</time>
      </trkpt>
      <trkpt lat="47.97873" lon="6.54561">
        <ele>648</ele>
        <time>2018-09-13T07:15:35.000Z</time>
      </trkpt>
      <trkpt lat="47.97873" lon="6.5456">
        <ele>648</ele>
        <time>2018-09-13T07:15:36.000Z</time>
      </trkpt>
      <trkpt lat="47.97874" lon="6.54558">
        <ele>648</ele>
        <time>2018-09-13T07:15:37.000Z</time>
      </trkpt>
      <trkpt lat="47.97875" lon="6.54556">
        <ele>649</ele>
        <time>2018-09-13T07:15:38.000Z</time>
      </trkpt>
      <trkpt lat="47.97876" lon="6.54554">
        <ele>649</ele>
        <time>2018-09-13T07:15:39.000Z</time>
      </trkpt>
      <trkpt lat="47.97876" lon="6.54552">
        <ele>649</ele>
        <time>2018-09-13T07:15:40.000Z</time>
      </trkpt>
      <trkpt lat="47.97877" lon="6.5455">
        <ele>650</ele>
        <time>2018-09-13T07:15:41.000Z</time>
      </trkpt>
      <trkpt lat="47.97878" lon="6.54548">
        <ele>650</ele>
        <time>2018-09-13T07:15:42.000Z</time>
      </trkpt>
      <trkpt lat="47.97879" lon="6.54547">
        <ele>650</ele>
        <time>2018-09-13T07:15:43.000Z</time>
      </trkpt>
      <trkpt lat="47.9788" lon="6.54545">
        <ele>651</ele>
        <time>2018-09-13T07:15:44.000Z</time>
      </trkpt>
      <trkpt lat="47.97881" lon="6.54544">
        <ele>651</ele>
        <time>2018-09-13T07:15:45.000Z</time>
      </trkpt>
      <trkpt lat="47.97882" lon="6.54542">
        <ele>651</ele>
        <time>2018-09-13T07:15:46.000Z</time>
      </trkpt>
      <trkpt lat="47.97883" lon="6.5454">
        <ele>651</ele>
        <time>2018-09-13T07:15:47.000Z</time>
      </trkpt>
      <trkpt lat="47.97884" lon="6.54539">
        <ele>651</ele>
        <time>2018-09-13T07:15:48.000Z</time>
      </trkpt>
      <trkpt lat="47.97885" lon="6.54537">
        <ele>652</ele>
        <time>2018-09-13T07:15:49.000Z</time>
      </trkpt>
      <trkpt lat="47.97886" lon="6.54536">
        <ele>652</ele>
        <time>2018-09-13T07:15:50.000Z</time>
      </trkpt>
      <trkpt lat="47.97887" lon="6.54535">
        <ele>652</ele>
        <time>2018-09-13T07:15:51.000Z</time>
      </trkpt>
      <trkpt lat="47.97888" lon="6.54533">
        <ele>652</ele>
        <time>2018-09-13T07:15:52.000Z</time>
      </trkpt>
      <trkpt lat="47.97888" lon="6.54532">
        <ele>652</ele>
        <time>2018-09-13T07:15:53.000Z</time>
      </trkpt>
      <trkpt lat="47.97889" lon="6.5453">
        <ele>653</ele>
        <time>2018-09-13T07:15:54.000Z</time>
      </trkpt>
      <trkpt lat="47.9789" lon="6.54528">
        <ele>653</ele>
        <time>2018-09-13T07:15:55.000Z</time>
      </trkpt>
      <trkpt lat="47.9789" lon="6.54527">
        <ele>653</ele>
        <time>2018-09-13T07:15:56.000Z</time>
      </trkpt>
      <trkpt lat="47.97891" lon="6.54525">
        <ele>653</ele>
        <time>2018-09-13T07:15:57.000Z</time>
      </trkpt>
      <trkpt lat="47.97892" lon="6.54523">
        <ele>653</ele>
        <time>2018-09-13T07:15:58.000Z</time>
      </trkpt>
      <trkpt lat="47.97893" lon="6.54521">
        <ele>653</ele>
        <time>2018-09-13T07:15:59.000Z</time>
      </trkpt>
      <trkpt lat="47.97893" lon="6.54519">
        <ele>653</ele>
        <time>2018-09-13T07:16:00.000Z</time>
      </trkpt>
      <trkpt lat="47.97894" lon="6.54517">
        <ele>653</ele>
        <time>2018-09-13T07:16:01.000Z</time>
      </trkpt>
      <trkpt lat="47.97895" lon="6.54515">
        <ele>653</ele>
        <time>2018-09-13T07:16:02.000Z</time>
      </trkpt>
      <trkpt lat="47.97896" lon="6.54513">
        <ele>653</ele>
        <time>2018-09-13T07:16:03.000Z</time>
      </trkpt>
      <trkpt lat="47.97897" lon="6.54511">
        <ele>653</ele>
        <time>2018-09-13T07:16:04.000Z</time>
      </trkpt>
      <trkpt lat="47.97898" lon="6.5451">
        <ele>653</ele>
        <time>2018-09-13T07:16:05.000Z</time>
      </trkpt>
      <trkpt lat="47.97898" lon="6.54508">
        <ele>653</ele>
        <time>2018-09-13T07:16:06.000Z</time>
      </trkpt>
      <trkpt lat="47.97899" lon="6.54507">
        <ele>653</ele>
        <time>2018-09-13T07:16:07.000Z</time>
      </trkpt>
      <trkpt lat="47.979" lon="6.54505">
        <ele>654</ele>
        <time>2018-09-13T07:16:08.000Z</time>
      </trkpt>
      <trkpt lat="47.979" lon="6.54504">
        <ele>654</ele>
        <time>2018-09-13T07:16:09.000Z</time>
      </trkpt>
      <trkpt lat="47.97901" lon="6.54502">
        <ele>654</ele>
        <time>2018-09-13T07:16:10.000Z</time>
      </trkpt>
      <trkpt lat="47.97902" lon="6.545">
        <ele>654</ele>
        <time>2018-09-13T07:16:11.000Z</time>
      </trkpt>
      <trkpt lat="47.97903" lon="6.54498">
        <ele>654</ele>
        <time>2018-09-13T07:16:12.000Z</time>
      </trkpt>
      <trkpt lat="47.97904" lon="6.54497">
        <ele>654</ele>
        <time>2018-09-13T07:16:13.000Z</time>
      </trkpt>
      <trkpt lat="47.97905" lon="6.54496">
        <ele>654</ele>
        <time>2018-09-13T07:16:14.000Z</time>
      </trkpt>
      <trkpt lat="47.97906" lon="6.54494">
        <ele>654</ele>
        <time>2018-09-13T07:16:15.000Z</time>
      </trkpt>
      <trkpt lat="47.97907" lon="6.54493">
        <ele>654</ele>
        <time>2018-09-13T07:16:16.000Z</time>
      </trkpt>
      <trkpt lat="47.97908" lon="6.54492">
        <ele>654</ele>
        <time>2018-09-13T07:16:17.000Z</time>
      </trkpt>
      <trkpt lat="47.97909" lon="6.5449">
        <ele>654</ele>
        <time>2018-09-13T07:16:18.000Z</time>
      </trkpt>
      <trkpt lat="47.9791" lon="6.54489">
        <ele>654</ele>
        <time>2018-09-13T07:16:19.000Z</time>
      </trkpt>
      <trkpt lat="47.97911" lon="6.54488">
        <ele>654</ele>
        <time>2018-09-13T07:16:20.000Z</time>
      </trkpt>
      <trkpt lat="47.97912" lon="6.54487">
        <ele>654</ele>
        <time>2018-09-13T07:16:21.000Z</time>
      </trkpt>
      <trkpt lat="47.97912" lon="6.54486">
        <ele>654</ele>
        <time>2018-09-13T07:16:22.000Z</time>
      </trkpt>
      <trkpt lat="47.97913" lon="6.54485">
        <ele>654</ele>
        <time>2018-09-13T07:16:23.000Z</time>
      </trkpt>
      <trkpt lat="47.97914" lon="6.54484">
        <ele>654</ele>
        <time>2018-09-13T07:16:24.000Z</time>
      </trkpt>
      <trkpt lat="47.97915" lon="6.54483">
        <ele>654</ele>
        <time>2018-09-13T07:16:25.000Z</time>
      </trkpt>
      <trkpt lat="47.97916" lon="6.54482">
        <ele>654</ele>
        <time>2018-09-13T07:16:26.000Z</time>
      </trkpt>
      <trkpt lat="47.97916" lon="6.5448">
        <ele>654</ele>
        <time>2018-09-13T07:16:27.000Z</time>
      </trkpt>
      <trkpt lat="47.97917" lon="6.54479">
        <ele>654</ele>
        <time>2018-09-13T07:16:28.000Z</time>
      </trkpt>
      <trkpt lat="47.97918" lon="6.54477">
        <ele>653</ele>
        <time>2018-09-13T07:16:29.000Z</time>
      </trkpt>
      <trkpt lat="47.97918" lon="6.54475">
        <ele>653</ele>
        <time>2018-09-13T07:16:30.000Z</time>
      </trkpt>
      <trkpt lat="47.97918" lon="6.54473">
        <ele>653</ele>
        <time>2018-09-13T07:16:31.000Z</time>
      </trkpt>
      <trkpt lat="47.97918" lon="6.54471">
        <ele>653</ele>
        <time>2018-09-13T07:16:32.000Z</time>
      </trkpt>
      <trkpt lat="47.97917" lon="6.54468">
        <ele>653</ele>
        <time>2018-09-13T07:16:33.000Z</time>
      </trkpt>
      <trkpt lat="47.97917" lon="6.54466">
        <ele>653</ele>
        <time>2018-09-13T07:16:34.000Z</time>
      </trkpt>
      <trkpt lat="47.97916" lon="6.54464">
        <ele>653</ele>
        <time>2018-09-13T07:16:35.000Z</time>
      </trkpt>
      <trkpt lat="47.97916" lon="6.54463">
        <ele>653</ele>
        <time>2018-09-13T07:16:36.000Z</time>
      </trkpt>
      <trkpt lat="47.97916" lon="6.54462">
        <ele>653</ele>
        <time>2018-09-13T07:16:37.000Z</time>
      </trkpt>
      <trkpt lat="47.97916" lon="6.54461">
        <ele>653</ele>
        <time>2018-09-13T07:16:38.000Z</time>
      </trkpt>
      <trkpt lat="47.97916" lon="6.54459">
        <ele>653</ele>
        <time>2018-09-13T07:16:39.000Z</time>
      </trkpt>
      <trkpt lat="47.97915" lon="6.54456">
        <ele>653</ele>
        <time>2018-09-13T07:16:40.000Z</time>
      </trkpt>
      <trkpt lat="47.97914" lon="6.54454">
        <ele>653</ele>
        <time>2018-09-13T07:16:41.000Z</time>
      </trkpt>
      <trkpt lat="47.97913" lon="6.54451">
        <ele>653</ele>
        <time>2018-09-13T07:16:42.000Z</time>
      </trkpt>
      <trkpt lat="47.97912" lon="6.54448">
        <ele>653</ele>
        <time>2018-09-13T07:16:43.000Z</time>
      </trkpt>
      <trkpt lat="47.97912" lon="6.54446">
        <ele>652</ele>
        <time>2018-09-13T07:16:44.000Z</time>
      </trkpt>
      <trkpt lat="47.97911" lon="6.54443">
        <ele>652</ele>
        <time>2018-09-13T07:16:45.000Z</time>
      </trkpt>
      <trkpt lat="47.9791" lon="6.54441">
        <ele>652</ele>
        <time>2018-09-13T07:16:46.000Z</time>
      </trkpt>
      <trkpt lat="47.97909" lon="6.54438">
        <ele>652</ele>
        <time>2018-09-13T07:16:47.000Z</time>
      </trkpt>
      <trkpt lat="47.97908" lon="6.54435">
        <ele>652</ele>
        <time>2018-09-13T07:16:48.000Z</time>
      </trkpt>
      <trkpt lat="47.97908" lon="6.54432">
        <ele>652</ele>
        <time>2018-09-13T07:16:49.000Z</time>
      </trkpt>
      <trkpt lat="47.97907" lon="6.5443">
        <ele>652</ele>
        <time>2018-09-13T07:16:50.000Z</time>
      </trkpt>
      <trkpt lat="47.97906" lon="6.54427">
        <ele>652</ele>
        <time>2018-09-13T07:16:51.000Z</time>
      </trkpt>
      <trkpt lat="47.97905" lon="6.54425">
        <ele>652</ele>
        <time>2018-09-13T07:16:52.000Z</time>
      </trkpt>
      <trkpt lat="47.97905" lon="6.54422">
        <ele>651</ele>
        <time>2018-09-13T07:16:53.000Z</time>
      </trkpt>
      <trkpt lat="47.97904" lon="6.54419">
        <ele>651</ele>
        <time>2018-09-13T07:16:54.000Z</time>
      </trkpt>
      <trkpt lat="47.97903" lon="6.54416">
        <ele>651</ele>
        <time>2018-09-13T07:16:55.000Z</time>
      </trkpt>
      <trkpt lat="47.97903" lon="6.54413">
        <ele>651</ele>
        <time>2018-09-13T07:16:56.000Z</time>
      </trkpt>
      <trkpt lat="47.97903" lon="6.54411">
        <ele>651</ele>
        <time>2018-09-13T07:16:57.000Z</time>
      </trkpt>
      <trkpt lat="47.97903" lon="6.54408">
        <ele>651</ele>
        <time>2018-09-13T07:16:58.000Z</time>
      </trkpt>
      <trkpt lat="47.97902" lon="6.54405">
        <ele>651</ele>
        <time>2018-09-13T07:16:59.000Z</time>
      </trkpt>
      <trkpt lat="47.97902" lon="6.54403">
        <ele>651</ele>
        <time>2018-09-13T07:17:00.000Z</time>
      </trkpt>
      <trkpt lat="47.97901" lon="6.544">
        <ele>650</ele>
        <time>2018-09-13T07:17:01.000Z</time>
      </trkpt>
      <trkpt lat="47.97901" lon="6.54398">
        <ele>650</ele>
        <time>2018-09-13T07:17:02.000Z</time>
      </trkpt>
      <trkpt lat="47.979" lon="6.54395">
        <ele>650</ele>
        <time>2018-09-13T07:17:03.000Z</time>
      </trkpt>
      <trkpt lat="47.979" lon="6.54393">
        <ele>650</ele>
        <time>2018-09-13T07:17:04.000Z</time>
      </trkpt>
      <trkpt lat="47.97899" lon="6.5439">
        <ele>650</ele>
        <time>2018-09-13T07:17:05.000Z</time>
      </trkpt>
      <trkpt lat="47.97899" lon="6.54388">
        <ele>649</ele>
        <time>2018-09-13T07:17:06.000Z</time>
      </trkpt>
      <trkpt lat="47.97899" lon="6.54385">
        <ele>649</ele>
        <time>2018-09-13T07:17:07.000Z</time>
      </trkpt>
      <trkpt lat="47.97899" lon="6.54383">
        <ele>649</ele>
        <time>2018-09-13T07:17:08.000Z</time>
      </trkpt>
      <trkpt lat="47.97899" lon="6.5438">
        <ele>649</ele>
        <time>2018-09-13T07:17:09.000Z</time>
      </trkpt>
      <trkpt lat="47.97899" lon="6.54377">
        <ele>649</ele>
        <time>2018-09-13T07:17:10.000Z</time>
      </trkpt>
      <trkpt lat="47.97899" lon="6.54375">
        <ele>649</ele>
        <time>2018-09-13T07:17:11.000Z</time>
      </trkpt>
      <trkpt lat="47.97899" lon="6.54373">
        <ele>649</ele>
        <time>2018-09-13T07:17:12.000Z</time>
      </trkpt>
      <trkpt lat="47.979" lon="6.5437">
        <ele>649</ele>
        <time>2018-09-13T07:17:13.000Z</time>
      </trkpt>
      <trkpt lat="47.979" lon="6.54368">
        <ele>648</ele>
        <time>2018-09-13T07:17:14.000Z</time>
      </trkpt>
      <trkpt lat="47.979" lon="6.54366">
        <ele>648</ele>
        <time>2018-09-13T07:17:15.000Z</time>
      </trkpt>
      <trkpt lat="47.979" lon="6.54364">
        <ele>648</ele>
        <time>2018-09-13T07:17:16.000Z</time>
      </trkpt>
      <trkpt lat="47.979" lon="6.54362">
        <ele>648</ele>
        <time>2018-09-13T07:17:17.000Z</time>
      </trkpt>
      <trkpt lat="47.97901" lon="6.54361">
        <ele>648</ele>
        <time>2018-09-13T07:17:18.000Z</time>
      </trkpt>
      <trkpt lat="47.97901" lon="6.54359">
        <ele>648</ele>
        <time>2018-09-13T07:17:19.000Z</time>
      </trkpt>
      <trkpt lat="47.97902" lon="6.54357">
        <ele>648</ele>
        <time>2018-09-13T07:17:20.000Z</time>
      </trkpt>
      <trkpt lat="47.97902" lon="6.54356">
        <ele>648</ele>
        <time>2018-09-13T07:17:21.000Z</time>
      </trkpt>
      <trkpt lat="47.97903" lon="6.54354">
        <ele>648</ele>
        <time>2018-09-13T07:17:22.000Z</time>
      </trkpt>
      <trkpt lat="47.97903" lon="6.54353">
        <ele>648</ele>
        <time>2018-09-13T07:17:23.000Z</time>
      </trkpt>
      <trkpt lat="47.97903" lon="6.54351">
        <ele>648</ele>
        <time>2018-09-13T07:17:24.000Z</time>
      </trkpt>
      <trkpt lat="47.97904" lon="6.54349">
        <ele>648</ele>
        <time>2018-09-13T07:17:25.000Z</time>
      </trkpt>
      <trkpt lat="47.97904" lon="6.54347">
        <ele>648</ele>
        <time>2018-09-13T07:17:26.000Z</time>
      </trkpt>
      <trkpt lat="47.97905" lon="6.54346">
        <ele>648</ele>
        <time>2018-09-13T07:17:27.000Z</time>
      </trkpt>
      <trkpt lat="47.97905" lon="6.54343">
        <ele>648</ele>
        <time>2018-09-13T07:17:28.000Z</time>
      </trkpt>
      <trkpt lat="47.97906" lon="6.54341">
        <ele>648</ele>
        <time>2018-09-13T07:17:29.000Z</time>
      </trkpt>
      <trkpt lat="47.97906" lon="6.54339">
        <ele>648</ele>
        <time>2018-09-13T07:17:30.000Z</time>
      </trkpt>
      <trkpt lat="47.97907" lon="6.54336">
        <ele>648</ele>
        <time>2018-09-13T07:17:31.000Z</time>
      </trkpt>
      <trkpt lat="47.97907" lon="6.54333">
        <ele>648</ele>
        <time>2018-09-13T07:17:32.000Z</time>
      </trkpt>
      <trkpt lat="47.97907" lon="6.54331">
        <ele>648</ele>
        <time>2018-09-13T07:17:33.000Z</time>
      </trkpt>
      <trkpt lat="47.97907" lon="6.54328">
        <ele>647</ele>
        <time>2018-09-13T07:17:34.000Z</time>
      </trkpt>
      <trkpt lat="47.97907" lon="6.54325">
        <ele>647</ele>
        <time>2018-09-13T07:17:35.000Z</time>
      </trkpt>
      <trkpt lat="47.97908" lon="6.54322">
        <ele>647</ele>
        <time>2018-09-13T07:17:36.000Z</time>
      </trkpt>
      <trkpt lat="47.97908" lon="6.54319">
        <ele>647</ele>
        <time>2018-09-13T07:17:37.000Z</time>
      </trkpt>
      <trkpt lat="47.97909" lon="6.54316">
        <ele>647</ele>
        <time>2018-09-13T07:17:38.000Z</time>
      </trkpt>
      <trkpt lat="47.97909" lon="6.54314">
        <ele>647</ele>
        <time>2018-09-13T07:17:39.000Z</time>
      </trkpt>
      <trkpt lat="47.97909" lon="6.54311">
        <ele>647</ele>
        <time>2018-09-13T07:17:40.000Z</time>
      </trkpt>
      <trkpt lat="47.9791" lon="6.54308">
        <ele>647</ele>
        <time>2018-09-13T07:17:41.000Z</time>
      </trkpt>
      <trkpt lat="47.9791" lon="6.54306">
        <ele>647</ele>
        <time>2018-09-13T07:17:42.000Z</time>
      </trkpt>
      <trkpt lat="47.9791" lon="6.54304">
        <ele>647</ele>
        <time>2018-09-13T07:17:43.000Z</time>
      </trkpt>
      <trkpt lat="47.9791" lon="6.54301">
        <ele>648</ele>
        <time>2018-09-13T07:17:44.000Z</time>
      </trkpt>
      <trkpt lat="47.9791" lon="6.54298">
        <ele>648</ele>
        <time>2018-09-13T07:17:45.000Z</time>
      </trkpt>
      <trkpt lat="47.9791" lon="6.54296">
        <ele>648</ele>
        <time>2018-09-13T07:17:46.000Z</time>
      </trkpt>
      <trkpt lat="47.9791" lon="6.54293">
        <ele>648</ele>
        <time>2018-09-13T07:17:47.000Z</time>
      </trkpt>
      <trkpt lat="47.9791" lon="6.54291">
        <ele>648</ele>
        <time>2018-09-13T07:17:48.000Z</time>
      </trkpt>
      <trkpt lat="47.9791" lon="6.54288">
        <ele>648</ele>
        <time>2018-09-13T07:17:49.000Z</time>
      </trkpt>
      <trkpt lat="47.9791" lon="6.54286">
        <ele>648</ele>
        <time>2018-09-13T07:17:50.000Z</time>
      </trkpt>
      <trkpt lat="47.97911" lon="6.54284">
        <ele>648</ele>
        <time>2018-09-13T07:17:51.000Z</time>
      </trkpt>
      <trkpt lat="47.97911" lon="6.54282">
        <ele>648</ele>
        <time>2018-09-13T07:17:52.000Z</time>
      </trkpt>
      <trkpt lat="47.97912" lon="6.5428">
        <ele>648</ele>
        <time>2018-09-13T07:17:53.000Z</time>
      </trkpt>
      <trkpt lat="47.97912" lon="6.54277">
        <ele>648</ele>
        <time>2018-09-13T07:17:54.000Z</time>
      </trkpt>
      <trkpt lat="47.97912" lon="6.54274">
        <ele>648</ele>
        <time>2018-09-13T07:17:55.000Z</time>
      </trkpt>
      <trkpt lat="47.97913" lon="6.5427">
        <ele>648</ele>
        <time>2018-09-13T07:17:56.000Z</time>
      </trkpt>
      <trkpt lat="47.97913" lon="6.54266">
        <ele>649</ele>
        <time>2018-09-13T07:17:57.000Z</time>
      </trkpt>
      <trkpt lat="47.97914" lon="6.54263">
        <ele>649</ele>
        <time>2018-09-13T07:17:58.000Z</time>
      </trkpt>
      <trkpt lat="47.97915" lon="6.54259">
        <ele>649</ele>
        <time>2018-09-13T07:17:59.000Z</time>
      </trkpt>
      <trkpt lat="47.97915" lon="6.54256">
        <ele>649</ele>
        <time>2018-09-13T07:18:00.000Z</time>
      </trkpt>
      <trkpt lat="47.97916" lon="6.54253">
        <ele>649</ele>
        <time>2018-09-13T07:18:01.000Z</time>
      </trkpt>
      <trkpt lat="47.97917" lon="6.5425">
        <ele>649</ele>
        <time>2018-09-13T07:18:02.000Z</time>
      </trkpt>
      <trkpt lat="47.97917" lon="6.54247">
        <ele>649</ele>
        <time>2018-09-13T07:18:03.000Z</time>
      </trkpt>
      <trkpt lat="47.97918" lon="6.54244">
        <ele>649</ele>
        <time>2018-09-13T07:18:04.000Z</time>
      </trkpt>
      <trkpt lat="47.97919" lon="6.54241">
        <ele>648</ele>
        <time>2018-09-13T07:18:05.000Z</time>
      </trkpt>
      <trkpt lat="47.9792" lon="6.54239">
        <ele>648</ele>
        <time>2018-09-13T07:18:06.000Z</time>
      </trkpt>
      <trkpt lat="47.97921" lon="6.54237">
        <ele>648</ele>
        <time>2018-09-13T07:18:07.000Z</time>
      </trkpt>
      <trkpt lat="47.97922" lon="6.54235">
        <ele>648</ele>
        <time>2018-09-13T07:18:08.000Z</time>
      </trkpt>
      <trkpt lat="47.97923" lon="6.54233">
        <ele>648</ele>
        <time>2018-09-13T07:18:09.000Z</time>
      </trkpt>
      <trkpt lat="47.97924" lon="6.5423">
        <ele>648</ele>
        <time>2018-09-13T07:18:10.000Z</time>
      </trkpt>
      <trkpt lat="47.97925" lon="6.54228">
        <ele>648</ele>
        <time>2018-09-13T07:18:11.000Z</time>
      </trkpt>
      <trkpt lat="47.97926" lon="6.54226">
        <ele>648</ele>
        <time>2018-09-13T07:18:12.000Z</time>
      </trkpt>
      <trkpt lat="47.97926" lon="6.54224">
        <ele>648</ele>
        <time>2018-09-13T07:18:13.000Z</time>
      </trkpt>
      <trkpt lat="47.97927" lon="6.54221">
        <ele>648</ele>
        <time>2018-09-13T07:18:14.000Z</time>
      </trkpt>
      <trkpt lat="47.97927" lon="6.54219">
        <ele>648</ele>
        <time>2018-09-13T07:18:15.000Z</time>
      </trkpt>
      <trkpt lat="47.97928" lon="6.54216">
        <ele>648</ele>
        <time>2018-09-13T07:18:16.000Z</time>
      </trkpt>
      <trkpt lat="47.97929" lon="6.54214">
        <ele>648</ele>
        <time>2018-09-13T07:18:17.000Z</time>
      </trkpt>
      <trkpt lat="47.9793" lon="6.54211">
        <ele>648</ele>
        <time>2018-09-13T07:18:18.000Z</time>
      </trkpt>
      <trkpt lat="47.9793" lon="6.54208">
        <ele>648</ele>
        <time>2018-09-13T07:18:19.000Z</time>
      </trkpt>
      <trkpt lat="47.97931" lon="6.54205">
        <ele>648</ele>
        <time>2018-09-13T07:18:20.000Z</time>
      </trkpt>
      <trkpt lat="47.97932" lon="6.54202">
        <ele>648</ele>
        <time>2018-09-13T07:18:21.000Z</time>
      </trkpt>
      <trkpt lat="47.97932" lon="6.54199">
        <ele>648</ele>
        <time>2018-09-13T07:18:22.000Z</time>
      </trkpt>
      <trkpt lat="47.97933" lon="6.54196">
        <ele>648</ele>
        <time>2018-09-13T07:18:23.000Z</time>
      </trkpt>
      <trkpt lat="47.97934" lon="6.54194">
        <ele>648</ele>
        <time>2018-09-13T07:18:24.000Z</time>
      </trkpt>
      <trkpt lat="47.97934" lon="6.54191">
        <ele>648</ele>
        <time>2018-09-13T07:18:25.000Z</time>
      </trkpt>
      <trkpt lat="47.97935" lon="6.54189">
        <ele>648</ele>
        <time>2018-09-13T07:18:26.000Z</time>
      </trkpt>
      <trkpt lat="47.97936" lon="6.54186">
        <ele>648</ele>
        <time>2018-09-13T07:18:27.000Z</time>
      </trkpt>
      <trkpt lat="47.97937" lon="6.54185">
        <ele>648</ele>
        <time>2018-09-13T07:18:28.000Z</time>
      </trkpt>
      <trkpt lat="47.97938" lon="6.54182">
        <ele>648</ele>
        <time>2018-09-13T07:18:29.000Z</time>
      </trkpt>
      <trkpt lat="47.97938" lon="6.5418">
        <ele>648</ele>
        <time>2018-09-13T07:18:30.000Z</time>
      </trkpt>
      <trkpt lat="47.97939" lon="6.54178">
        <ele>648</ele>
        <time>2018-09-13T07:18:31.000Z</time>
      </trkpt>
      <trkpt lat="47.9794" lon="6.54175">
        <ele>648</ele>
        <time>2018-09-13T07:18:32.000Z</time>
      </trkpt>
      <trkpt lat="47.97941" lon="6.54173">
        <ele>648</ele>
        <time>2018-09-13T07:18:33.000Z</time>
      </trkpt>
      <trkpt lat="47.97942" lon="6.54171">
        <ele>648</ele>
        <time>2018-09-13T07:18:34.000Z</time>
      </trkpt>
      <trkpt lat="47.97943" lon="6.54169">
        <ele>648</ele>
        <time>2018-09-13T07:18:35.000Z</time>
      </trkpt>
      <trkpt lat="47.97944" lon="6.54167">
        <ele>648</ele>
        <time>2018-09-13T07:18:36.000Z</time>
      </trkpt>
      <trkpt lat="47.97945" lon="6.54165">
        <ele>648</ele>
        <time>2018-09-13T07:18:37.000Z</time>
      </trkpt>
      <trkpt lat="47.97946" lon="6.54163">
        <ele>647</ele>
        <time>2018-09-13T07:18:38.000Z</time>
      </trkpt>
      <trkpt lat="47.97948" lon="6.54161">
        <ele>647</ele>
        <time>2018-09-13T07:18:39.000Z</time>
      </trkpt>
      <trkpt lat="47.97949" lon="6.54158">
        <ele>647</ele>
        <time>2018-09-13T07:18:40.000Z</time>
      </trkpt>
      <trkpt lat="47.97951" lon="6.54156">
        <ele>647</ele>
        <time>2018-09-13T07:18:41.000Z</time>
      </trkpt>
      <trkpt lat="47.97952" lon="6.54154">
        <ele>647</ele>
        <time>2018-09-13T07:18:42.000Z</time>
      </trkpt>
      <trkpt lat="47.97954" lon="6.54152">
        <ele>647</ele>
        <time>2018-09-13T07:18:43.000Z</time>
      </trkpt>
      <trkpt lat="47.97956" lon="6.5415">
        <ele>647</ele>
        <time>2018-09-13T07:18:44.000Z</time>
      </trkpt>
      <trkpt lat="47.97958" lon="6.54147">
        <ele>647</ele>
        <time>2018-09-13T07:18:45.000Z</time>
      </trkpt>
      <trkpt lat="47.97959" lon="6.54145">
        <ele>647</ele>
        <time>2018-09-13T07:18:46.000Z</time>
      </trkpt>
      <trkpt lat="47.97961" lon="6.54142">
        <ele>647</ele>
        <time>2018-09-13T07:18:47.000Z</time>
      </trkpt>
      <trkpt lat="47.97963" lon="6.5414">
        <ele>646</ele>
        <time>2018-09-13T07:18:48.000Z</time>
      </trkpt>
      <trkpt lat="47.97964" lon="6.54138">
        <ele>646</ele>
        <time>2018-09-13T07:18:49.000Z</time>
      </trkpt>
      <trkpt lat="47.97966" lon="6.54136">
        <ele>646</ele>
        <time>2018-09-13T07:18:50.000Z</time>
      </trkpt>
      <trkpt lat="47.97967" lon="6.54134">
        <ele>646</ele>
        <time>2018-09-13T07:18:51.000Z</time>
      </trkpt>
      <trkpt lat="47.97969" lon="6.54132">
        <ele>646</ele>
        <time>2018-09-13T07:18:52.000Z</time>
      </trkpt>
      <trkpt lat="47.9797" lon="6.5413">
        <ele>646</ele>
        <time>2018-09-13T07:18:53.000Z</time>
      </trkpt>
      <trkpt lat="47.97971" lon="6.54128">
        <ele>646</ele>
        <time>2018-09-13T07:18:54.000Z</time>
      </trkpt>
      <trkpt lat="47.97972" lon="6.54125">
        <ele>645</ele>
        <time>2018-09-13T07:18:55.000Z</time>
      </trkpt>
      <trkpt lat="47.97973" lon="6.54122">
        <ele>645</ele>
        <time>2018-09-13T07:18:56.000Z</time>
      </trkpt>
      <trkpt lat="47.97974" lon="6.54119">
        <ele>645</ele>
        <time>2018-09-13T07:18:57.000Z</time>
      </trkpt>
      <trkpt lat="47.97974" lon="6.54117">
        <ele>645</ele>
        <time>2018-09-13T07:18:58.000Z</time>
      </trkpt>
      <trkpt lat="47.97975" lon="6.54114">
        <ele>644</ele>
        <time>2018-09-13T07:18:59.000Z</time>
      </trkpt>
      <trkpt lat="47.97976" lon="6.54111">
        <ele>644</ele>
        <time>2018-09-13T07:19:00.000Z</time>
      </trkpt>
      <trkpt lat="47.97976" lon="6.54109">
        <ele>644</ele>
        <time>2018-09-13T07:19:01.000Z</time>
      </trkpt>
      <trkpt lat="47.97977" lon="6.54107">
        <ele>643</ele>
        <time>2018-09-13T07:19:02.000Z</time>
      </trkpt>
      <trkpt lat="47.97978" lon="6.54105">
        <ele>643</ele>
        <time>2018-09-13T07:19:03.000Z</time>
      </trkpt>
      <trkpt lat="47.97978" lon="6.54102">
        <ele>643</ele>
        <time>2018-09-13T07:19:04.000Z</time>
      </trkpt>
      <trkpt lat="47.97978" lon="6.541">
        <ele>642</ele>
        <time>2018-09-13T07:19:05.000Z</time>
      </trkpt>
      <trkpt lat="47.97979" lon="6.54097">
        <ele>642</ele>
        <time>2018-09-13T07:19:06.000Z</time>
      </trkpt>
      <trkpt lat="47.97979" lon="6.54095">
        <ele>642</ele>
        <time>2018-09-13T07:19:07.000Z</time>
      </trkpt>
      <trkpt lat="47.9798" lon="6.54093">
        <ele>641</ele>
        <time>2018-09-13T07:19:08.000Z</time>
      </trkpt>
      <trkpt lat="47.97981" lon="6.54091">
        <ele>641</ele>
        <time>2018-09-13T07:19:09.000Z</time>
      </trkpt>
      <trkpt lat="47.97981" lon="6.54089">
        <ele>640</ele>
        <time>2018-09-13T07:19:10.000Z</time>
      </trkpt>
      <trkpt lat="47.97982" lon="6.54087">
        <ele>640</ele>
        <time>2018-09-13T07:19:11.000Z</time>
      </trkpt>
      <trkpt lat="47.97983" lon="6.54085">
        <ele>640</ele>
        <time>2018-09-13T07:19:12.000Z</time>
      </trkpt>
      <trkpt lat="47.97984" lon="6.54083">
        <ele>639</ele>
        <time>2018-09-13T07:19:13.000Z</time>
      </trkpt>
      <trkpt lat="47.97985" lon="6.54082">
        <ele>639</ele>
        <time>2018-09-13T07:19:14.000Z</time>
      </trkpt>
      <trkpt lat="47.97986" lon="6.5408">
        <ele>638</ele>
        <time>2018-09-13T07:19:15.000Z</time>
      </trkpt>
      <trkpt lat="47.97987" lon="6.54078">
        <ele>638</ele>
        <time>2018-09-13T07:19:16.000Z</time>
      </trkpt>
      <trkpt lat="47.97988" lon="6.54076">
        <ele>638</ele>
        <time>2018-09-13T07:19:17.000Z</time>
      </trkpt>
      <trkpt lat="47.97989" lon="6.54073">
        <ele>637</ele>
        <time>2018-09-13T07:19:18.000Z</time>
      </trkpt>
      <trkpt lat="47.9799" lon="6.54071">
        <ele>637</ele>
        <time>2018-09-13T07:19:19.000Z</time>
      </trkpt>
      <trkpt lat="47.97991" lon="6.54069">
        <ele>637</ele>
        <time>2018-09-13T07:19:20.000Z</time>
      </trkpt>
      <trkpt lat="47.97992" lon="6.54067">
        <ele>637</ele>
        <time>2018-09-13T07:19:21.000Z</time>
      </trkpt>
      <trkpt lat="47.97993" lon="6.54065">
        <ele>636</ele>
        <time>2018-09-13T07:19:22.000Z</time>
      </trkpt>
      <trkpt lat="47.97994" lon="6.54063">
        <ele>636</ele>
        <time>2018-09-13T07:19:23.000Z</time>
      </trkpt>
      <trkpt lat="47.97994" lon="6.54061">
        <ele>636</ele>
        <time>2018-09-13T07:19:24.000Z</time>
      </trkpt>
      <trkpt lat="47.97996" lon="6.54059">
        <ele>636</ele>
        <time>2018-09-13T07:19:25.000Z</time>
      </trkpt>
      <trkpt lat="47.97997" lon="6.54058">
        <ele>636</ele>
        <time>2018-09-13T07:19:26.000Z</time>
      </trkpt>
      <trkpt lat="47.97998" lon="6.54056">
        <ele>635</ele>
        <time>2018-09-13T07:19:27.000Z</time>
      </trkpt>
      <trkpt lat="47.97999" lon="6.54054">
        <ele>635</ele>
        <time>2018-09-13T07:19:28.000Z</time>
      </trkpt>
      <trkpt lat="47.98" lon="6.54052">
        <ele>635</ele>
        <time>2018-09-13T07:19:29.000Z</time>
      </trkpt>
      <trkpt lat="47.98001" lon="6.5405">
        <ele>635</ele>
        <time>2018-09-13T07:19:30.000Z</time>
      </trkpt>
      <trkpt lat="47.98003" lon="6.54048">
        <ele>635</ele>
        <time>2018-09-13T07:19:31.000Z</time>
      </trkpt>
      <trkpt lat="47.98004" lon="6.54046">
        <ele>634</ele>
        <time>2018-09-13T07:19:32.000Z</time>
      </trkpt>
      <trkpt lat="47.98004" lon="6.54044">
        <ele>634</ele>
        <time>2018-09-13T07:19:33.000Z</time>
      </trkpt>
      <trkpt lat="47.98005" lon="6.54042">
        <ele>634</ele>
        <time>2018-09-13T07:19:34.000Z</time>
      </trkpt>
      <trkpt lat="47.98006" lon="6.5404">
        <ele>634</ele>
        <time>2018-09-13T07:19:35.000Z</time>
      </trkpt>
      <trkpt lat="47.98007" lon="6.54037">
        <ele>633</ele>
        <time>2018-09-13T07:19:36.000Z</time>
      </trkpt>
      <trkpt lat="47.98008" lon="6.54035">
        <ele>633</ele>
        <time>2018-09-13T07:19:37.000Z</time>
      </trkpt>
      <trkpt lat="47.98008" lon="6.54033">
        <ele>633</ele>
        <time>2018-09-13T07:19:38.000Z</time>
      </trkpt>
      <trkpt lat="47.98009" lon="6.54031">
        <ele>632</ele>
        <time>2018-09-13T07:19:39.000Z</time>
      </trkpt>
      <trkpt lat="47.98009" lon="6.54029">
        <ele>632</ele>
        <time>2018-09-13T07:19:40.000Z</time>
      </trkpt>
      <trkpt lat="47.9801" lon="6.54026">
        <ele>632</ele>
        <time>2018-09-13T07:19:41.000Z</time>
      </trkpt>
      <trkpt lat="47.98011" lon="6.54024">
        <ele>632</ele>
        <time>2018-09-13T07:19:42.000Z</time>
      </trkpt>
      <trkpt lat="47.98011" lon="6.54022">
        <ele>631</ele>
        <time>2018-09-13T07:19:43.000Z</time>
      </trkpt>
      <trkpt lat="47.98011" lon="6.5402">
        <ele>631</ele>
        <time>2018-09-13T07:19:44.000Z</time>
      </trkpt>
      <trkpt lat="47.98012" lon="6.54018">
        <ele>631</ele>
        <time>2018-09-13T07:19:45.000Z</time>
      </trkpt>
      <trkpt lat="47.98012" lon="6.54016">
        <ele>631</ele>
        <time>2018-09-13T07:19:46.000Z</time>
      </trkpt>
      <trkpt lat="47.98012" lon="6.54013">
        <ele>631</ele>
        <time>2018-09-13T07:19:47.000Z</time>
      </trkpt>
      <trkpt lat="47.98012" lon="6.54011">
        <ele>630</ele>
        <time>2018-09-13T07:19:48.000Z</time>
      </trkpt>
      <trkpt lat="47.98012" lon="6.54008">
        <ele>630</ele>
        <time>2018-09-13T07:19:49.000Z</time>
      </trkpt>
      <trkpt lat="47.98012" lon="6.54006">
        <ele>630</ele>
        <time>2018-09-13T07:19:50.000Z</time>
      </trkpt>
      <trkpt lat="47.98013" lon="6.54004">
        <ele>629</ele>
        <time>2018-09-13T07:19:51.000Z</time>
      </trkpt>
      <trkpt lat="47.98013" lon="6.54002">
        <ele>629</ele>
        <time>2018-09-13T07:19:52.000Z</time>
      </trkpt>
      <trkpt lat="47.98013" lon="6.53999">
        <ele>629</ele>
        <time>2018-09-13T07:19:53.000Z</time>
      </trkpt>
      <trkpt lat="47.98014" lon="6.53997">
        <ele>628</ele>
        <time>2018-09-13T07:19:54.000Z</time>
      </trkpt>
      <trkpt lat="47.98014" lon="6.53995">
        <ele>628</ele>
        <time>2018-09-13T07:19:55.000Z</time>
      </trkpt>
      <trkpt lat="47.98015" lon="6.53993">
        <ele>627</ele>
        <time>2018-09-13T07:19:56.000Z</time>
      </trkpt>
      <trkpt lat="47.98015" lon="6.53991">
        <ele>627</ele>
        <time>2018-09-13T07:19:57.000Z</time>
      </trkpt>
      <trkpt lat="47.98016" lon="6.53989">
        <ele>627</ele>
        <time>2018-09-13T07:19:58.000Z</time>
      </trkpt>
      <trkpt lat="47.98017" lon="6.53986">
        <ele>626</ele>
        <time>2018-09-13T07:19:59.000Z</time>
      </trkpt>
      <trkpt lat="47.98018" lon="6.53984">
        <ele>626</ele>
        <time>2018-09-13T07:20:00.000Z</time>
      </trkpt>
      <trkpt lat="47.98019" lon="6.53981">
        <ele>625</ele>
        <time>2018-09-13T07:20:01.000Z</time>
      </trkpt>
      <trkpt lat="47.9802" lon="6.53979">
        <ele>625</ele>
        <time>2018-09-13T07:20:02.000Z</time>
      </trkpt>
      <trkpt lat="47.98021" lon="6.53977">
        <ele>625</ele>
        <time>2018-09-13T07:20:03.000Z</time>
      </trkpt>
      <trkpt lat="47.98022" lon="6.53975">
        <ele>624</ele>
        <time>2018-09-13T07:20:04.000Z</time>
      </trkpt>
      <trkpt lat="47.98023" lon="6.53973">
        <ele>624</ele>
        <time>2018-09-13T07:20:05.000Z</time>
      </trkpt>
      <trkpt lat="47.98023" lon="6.53971">
        <ele>624</ele>
        <time>2018-09-13T07:20:06.000Z</time>
      </trkpt>
      <trkpt lat="47.98024" lon="6.53969">
        <ele>623</ele>
        <time>2018-09-13T07:20:07.000Z</time>
      </trkpt>
      <trkpt lat="47.98025" lon="6.53967">
        <ele>623</ele>
        <time>2018-09-13T07:20:08.000Z</time>
      </trkpt>
      <trkpt lat="47.98026" lon="6.53965">
        <ele>623</ele>
        <time>2018-09-13T07:20:09.000Z</time>
      </trkpt>
      <trkpt lat="47.98027" lon="6.53963">
        <ele>623</ele>
        <time>2018-09-13T07:20:10.000Z</time>
      </trkpt>
      <trkpt lat="47.98028" lon="6.53961">
        <ele>622</ele>
        <time>2018-09-13T07:20:11.000Z</time>
      </trkpt>
      <trkpt lat="47.98029" lon="6.53959">
        <ele>622</ele>
        <time>2018-09-13T07:20:12.000Z</time>
      </trkpt>
      <trkpt lat="47.9803" lon="6.53958">
        <ele>622</ele>
        <time>2018-09-13T07:20:13.000Z</time>
      </trkpt>
      <trkpt lat="47.98031" lon="6.53956">
        <ele>622</ele>
        <time>2018-09-13T07:20:14.000Z</time>
      </trkpt>
      <trkpt lat="47.98032" lon="6.53954">
        <ele>621</ele>
        <time>2018-09-13T07:20:15.000Z</time>
      </trkpt>
      <trkpt lat="47.98033" lon="6.53952">
        <ele>621</ele>
        <time>2018-09-13T07:20:16.000Z</time>
      </trkpt>
      <trkpt lat="47.98034" lon="6.5395">
        <ele>621</ele>
        <time>2018-09-13T07:20:17.000Z</time>
      </trkpt>
      <trkpt lat="47.98036" lon="6.53948">
        <ele>620</ele>
        <time>2018-09-13T07:20:18.000Z</time>
      </trkpt>
      <trkpt lat="47.98037" lon="6.53946">
        <ele>620</ele>
        <time>2018-09-13T07:20:19.000Z</time>
      </trkpt>
      <trkpt lat="47.98038" lon="6.53944">
        <ele>620</ele>
        <time>2018-09-13T07:20:20.000Z</time>
      </trkpt>
      <trkpt lat="47.98039" lon="6.53942">
        <ele>620</ele>
        <time>2018-09-13T07:20:21.000Z</time>
      </trkpt>
      <trkpt lat="47.98041" lon="6.5394">
        <ele>620</ele>
        <time>2018-09-13T07:20:22.000Z</time>
      </trkpt>
      <trkpt lat="47.98042" lon="6.53938">
        <ele>619</ele>
        <time>2018-09-13T07:20:23.000Z</time>
      </trkpt>
      <trkpt lat="47.98043" lon="6.53936">
        <ele>619</ele>
        <time>2018-09-13T07:20:24.000Z</time>
      </trkpt>
      <trkpt lat="47.98045" lon="6.53934">
        <ele>619</ele>
        <time>2018-09-13T07:20:25.000Z</time>
      </trkpt>
      <trkpt lat="47.98046" lon="6.53932">
        <ele>619</ele>
        <time>2018-09-13T07:20:26.000Z</time>
      </trkpt>
      <trkpt lat="47.98047" lon="6.5393">
        <ele>619</ele>
        <time>2018-09-13T07:20:27.000Z</time>
      </trkpt>
      <trkpt lat="47.98048" lon="6.53927">
        <ele>618</ele>
        <time>2018-09-13T07:20:28.000Z</time>
      </trkpt>
      <trkpt lat="47.98049" lon="6.53925">
        <ele>618</ele>
        <time>2018-09-13T07:20:29.000Z</time>
      </trkpt>
      <trkpt lat="47.9805" lon="6.53922">
        <ele>618</ele>
        <time>2018-09-13T07:20:30.000Z</time>
      </trkpt>
      <trkpt lat="47.98051" lon="6.5392">
        <ele>618</ele>
        <time>2018-09-13T07:20:31.000Z</time>
      </trkpt>
      <trkpt lat="47.98051" lon="6.53918">
        <ele>618</ele>
        <time>2018-09-13T07:20:32.000Z</time>
      </trkpt>
      <trkpt lat="47.98052" lon="6.53915">
        <ele>618</ele>
        <time>2018-09-13T07:20:33.000Z</time>
      </trkpt>
      <trkpt lat="47.98052" lon="6.53913">
        <ele>618</ele>
        <time>2018-09-13T07:20:34.000Z</time>
      </trkpt>
      <trkpt lat="47.98053" lon="6.53911">
        <ele>618</ele>
        <time>2018-09-13T07:20:35.000Z</time>
      </trkpt>
      <trkpt lat="47.98053" lon="6.53909">
        <ele>617</ele>
        <time>2018-09-13T07:20:36.000Z</time>
      </trkpt>
      <trkpt lat="47.98054" lon="6.53907">
        <ele>617</ele>
        <time>2018-09-13T07:20:37.000Z</time>
      </trkpt>
      <trkpt lat="47.98054" lon="6.53905">
        <ele>617</ele>
        <time>2018-09-13T07:20:38.000Z</time>
      </trkpt>
      <trkpt lat="47.98055" lon="6.53903">
        <ele>617</ele>
        <time>2018-09-13T07:20:39.000Z</time>
      </trkpt>
      <trkpt lat="47.98055" lon="6.53901">
        <ele>617</ele>
        <time>2018-09-13T07:20:40.000Z</time>
      </trkpt>
      <trkpt lat="47.98056" lon="6.53899">
        <ele>617</ele>
        <time>2018-09-13T07:20:41.000Z</time>
      </trkpt>
      <trkpt lat="47.98056" lon="6.53898">
        <ele>617</ele>
        <time>2018-09-13T07:20:42.000Z</time>
      </trkpt>
      <trkpt lat="47.98057" lon="6.53896">
        <ele>616</ele>
        <time>2018-09-13T07:20:43.000Z</time>
      </trkpt>
      <trkpt lat="47.98057" lon="6.53894">
        <ele>616</ele>
        <time>2018-09-13T07:20:44.000Z</time>
      </trkpt>
      <trkpt lat="47.98058" lon="6.53891">
        <ele>616</ele>
        <time>2018-09-13T07:20:45.000Z</time>
      </trkpt>
      <trkpt lat="47.98058" lon="6.53889">
        <ele>616</ele>
        <time>2018-09-13T07:20:46.000Z</time>
      </trkpt>
      <trkpt lat="47.98059" lon="6.53887">
        <ele>616</ele>
        <time>2018-09-13T07:20:47.000Z</time>
      </trkpt>
      <trkpt lat="47.98059" lon="6.53884">
        <ele>615</ele>
        <time>2018-09-13T07:20:48.000Z</time>
      </trkpt>
      <trkpt lat="47.9806" lon="6.53883">
        <ele>615</ele>
        <time>2018-09-13T07:20:49.000Z</time>
      </trkpt>
      <trkpt lat="47.98062" lon="6.53881">
        <ele>615</ele>
        <time>2018-09-13T07:20:50.000Z</time>
      </trkpt>
      <trkpt lat="47.98063" lon="6.5388">
        <ele>615</ele>
        <time>2018-09-13T07:20:51.000Z</time>
      </trkpt>
      <trkpt lat="47.98065" lon="6.53879">
        <ele>615</ele>
        <time>2018-09-13T07:20:52.000Z</time>
      </trkpt>
      <trkpt lat="47.98066" lon="6.53879">
        <ele>614</ele>
        <time>2018-09-13T07:20:53.000Z</time>
      </trkpt>
      <trkpt lat="47.98068" lon="6.53878">
        <ele>614</ele>
        <time>2018-09-13T07:20:54.000Z</time>
      </trkpt>
      <trkpt lat="47.9807" lon="6.53876">
        <ele>614</ele>
        <time>2018-09-13T07:20:55.000Z</time>
      </trkpt>
      <trkpt lat="47.98071" lon="6.53874">
        <ele>614</ele>
        <time>2018-09-13T07:20:56.000Z</time>
      </trkpt>
      <trkpt lat="47.98072" lon="6.53873">
        <ele>613</ele>
        <time>2018-09-13T07:20:57.000Z</time>
      </trkpt>
      <trkpt lat="47.98073" lon="6.53871">
        <ele>613</ele>
        <time>2018-09-13T07:20:58.000Z</time>
      </trkpt>
      <trkpt lat="47.98074" lon="6.53869">
        <ele>612</ele>
        <time>2018-09-13T07:20:59.000Z</time>
      </trkpt>
      <trkpt lat="47.98074" lon="6.53868">
        <ele>612</ele>
        <time>2018-09-13T07:21:00.000Z</time>
      </trkpt>
      <trkpt lat="47.98074" lon="6.53866">
        <ele>611</ele>
        <time>2018-09-13T07:21:01.000Z</time>
      </trkpt>
      <trkpt lat="47.98074" lon="6.53864">
        <ele>611</ele>
        <time>2018-09-13T07:21:02.000Z</time>
      </trkpt>
      <trkpt lat="47.98074" lon="6.53861">
        <ele>610</ele>
        <time>2018-09-13T07:21:03.000Z</time>
      </trkpt>
      <trkpt lat="47.98075" lon="6.53859">
        <ele>610</ele>
        <time>2018-09-13T07:21:04.000Z</time>
      </trkpt>
      <trkpt lat="47.98075" lon="6.53857">
        <ele>609</ele>
        <time>2018-09-13T07:21:05.000Z</time>
      </trkpt>
      <trkpt lat="47.98075" lon="6.53855">
        <ele>609</ele>
        <time>2018-09-13T07:21:06.000Z</time>
      </trkpt>
      <trkpt lat="47.98075" lon="6.53852">
        <ele>609</ele>
        <time>2018-09-13T07:21:07.000Z</time>
      </trkpt>
      <trkpt lat="47.98075" lon="6.5385">
        <ele>608</ele>
        <time>2018-09-13T07:21:08.000Z</time>
      </trkpt>
      <trkpt lat="47.98075" lon="6.53848">
        <ele>608</ele>
        <time>2018-09-13T07:21:09.000Z</time>
      </trkpt>
      <trkpt lat="47.98076" lon="6.53846">
        <ele>608</ele>
        <time>2018-09-13T07:21:10.000Z</time>
      </trkpt>
      <trkpt lat="47.98076" lon="6.53844">
        <ele>607</ele>
        <time>2018-09-13T07:21:11.000Z</time>
      </trkpt>
      <trkpt lat="47.98076" lon="6.53842">
        <ele>607</ele>
        <time>2018-09-13T07:21:12.000Z</time>
      </trkpt>
      <trkpt lat="47.98077" lon="6.5384">
        <ele>607</ele>
        <time>2018-09-13T07:21:13.000Z</time>
      </trkpt>
      <trkpt lat="47.98077" lon="6.53837">
        <ele>607</ele>
        <time>2018-09-13T07:21:14.000Z</time>
      </trkpt>
      <trkpt lat="47.98077" lon="6.53835">
        <ele>607</ele>
        <time>2018-09-13T07:21:15.000Z</time>
      </trkpt>
      <trkpt lat="47.98078" lon="6.53832">
        <ele>606</ele>
        <time>2018-09-13T07:21:16.000Z</time>
      </trkpt>
      <trkpt lat="47.98078" lon="6.5383">
        <ele>606</ele>
        <time>2018-09-13T07:21:17.000Z</time>
      </trkpt>
      <trkpt lat="47.98078" lon="6.53828">
        <ele>606</ele>
        <time>2018-09-13T07:21:18.000Z</time>
      </trkpt>
      <trkpt lat="47.98079" lon="6.53825">
        <ele>606</ele>
        <time>2018-09-13T07:21:19.000Z</time>
      </trkpt>
      <trkpt lat="47.98079" lon="6.53822">
        <ele>605</ele>
        <time>2018-09-13T07:21:20.000Z</time>
      </trkpt>
      <trkpt lat="47.9808" lon="6.5382">
        <ele>605</ele>
        <time>2018-09-13T07:21:21.000Z</time>
      </trkpt>
      <trkpt lat="47.9808" lon="6.53817">
        <ele>605</ele>
        <time>2018-09-13T07:21:22.000Z</time>
      </trkpt>
      <trkpt lat="47.98081" lon="6.53814">
        <ele>605</ele>
        <time>2018-09-13T07:21:23.000Z</time>
      </trkpt>
      <trkpt lat="47.98081" lon="6.53811">
        <ele>604</ele>
        <time>2018-09-13T07:21:24.000Z</time>
      </trkpt>
      <trkpt lat="47.98082" lon="6.53809">
        <ele>604</ele>
        <time>2018-09-13T07:21:25.000Z</time>
      </trkpt>
      <trkpt lat="47.98082" lon="6.53806">
        <ele>604</ele>
        <time>2018-09-13T07:21:26.000Z</time>
      </trkpt>
      <trkpt lat="47.98082" lon="6.53803">
        <ele>604</ele>
        <time>2018-09-13T07:21:27.000Z</time>
      </trkpt>
      <trkpt lat="47.98082" lon="6.53801">
        <ele>603</ele>
        <time>2018-09-13T07:21:28.000Z</time>
      </trkpt>
      <trkpt lat="47.98082" lon="6.53798">
        <ele>603</ele>
        <time>2018-09-13T07:21:29.000Z</time>
      </trkpt>
      <trkpt lat="47.98081" lon="6.53795">
        <ele>603</ele>
        <time>2018-09-13T07:21:30.000Z</time>
      </trkpt>
      <trkpt lat="47.98081" lon="6.53793">
        <ele>603</ele>
        <time>2018-09-13T07:21:31.000Z</time>
      </trkpt>
      <trkpt lat="47.98081" lon="6.53791">
        <ele>603</ele>
        <time>2018-09-13T07:21:32.000Z</time>
      </trkpt>
      <trkpt lat="47.98081" lon="6.53788">
        <ele>602</ele>
        <time>2018-09-13T07:21:33.000Z</time>
      </trkpt>
      <trkpt lat="47.98081" lon="6.53786">
        <ele>602</ele>
        <time>2018-09-13T07:21:34.000Z</time>
      </trkpt>
      <trkpt lat="47.98081" lon="6.53783">
        <ele>602</ele>
        <time>2018-09-13T07:21:35.000Z</time>
      </trkpt>
      <trkpt lat="47.98081" lon="6.5378">
        <ele>602</ele>
        <time>2018-09-13T07:21:36.000Z</time>
      </trkpt>
      <trkpt lat="47.98081" lon="6.53778">
        <ele>602</ele>
        <time>2018-09-13T07:21:37.000Z</time>
      </trkpt>
      <trkpt lat="47.98081" lon="6.53775">
        <ele>601</ele>
        <time>2018-09-13T07:21:38.000Z</time>
      </trkpt>
      <trkpt lat="47.98081" lon="6.53772">
        <ele>601</ele>
        <time>2018-09-13T07:21:39.000Z</time>
      </trkpt>
      <trkpt lat="47.98081" lon="6.5377">
        <ele>601</ele>
        <time>2018-09-13T07:21:40.000Z</time>
      </trkpt>
      <trkpt lat="47.98081" lon="6.53767">
        <ele>601</ele>
        <time>2018-09-13T07:21:41.000Z</time>
      </trkpt>
      <trkpt lat="47.98081" lon="6.53763">
        <ele>600</ele>
        <time>2018-09-13T07:21:42.000Z</time>
      </trkpt>
      <trkpt lat="47.98081" lon="6.5376">
        <ele>600</ele>
        <time>2018-09-13T07:21:43.000Z</time>
      </trkpt>
      <trkpt lat="47.98082" lon="6.53757">
        <ele>600</ele>
        <time>2018-09-13T07:21:44.000Z</time>
      </trkpt>
      <trkpt lat="47.98083" lon="6.53754">
        <ele>600</ele>
        <time>2018-09-13T07:21:45.000Z</time>
      </trkpt>
      <trkpt lat="47.98083" lon="6.53752">
        <ele>600</ele>
        <time>2018-09-13T07:21:46.000Z</time>
      </trkpt>
      <trkpt lat="47.98084" lon="6.5375">
        <ele>599</ele>
        <time>2018-09-13T07:21:47.000Z</time>
      </trkpt>
      <trkpt lat="47.98085" lon="6.53748">
        <ele>599</ele>
        <time>2018-09-13T07:21:48.000Z</time>
      </trkpt>
      <trkpt lat="47.98087" lon="6.53747">
        <ele>599</ele>
        <time>2018-09-13T07:21:49.000Z</time>
      </trkpt>
      <trkpt lat="47.98088" lon="6.53746">
        <ele>599</ele>
        <time>2018-09-13T07:21:50.000Z</time>
      </trkpt>
      <trkpt lat="47.9809" lon="6.53745">
        <ele>599</ele>
        <time>2018-09-13T07:21:51.000Z</time>
      </trkpt>
      <trkpt lat="47.98091" lon="6.53744">
        <ele>599</ele>
        <time>2018-09-13T07:21:52.000Z</time>
      </trkpt>
      <trkpt lat="47.98092" lon="6.53743">
        <ele>599</ele>
        <time>2018-09-13T07:21:53.000Z</time>
      </trkpt>
      <trkpt lat="47.98093" lon="6.53742">
        <ele>598</ele>
        <time>2018-09-13T07:21:54.000Z</time>
      </trkpt>
      <trkpt lat="47.98093" lon="6.53741">
        <ele>598</ele>
        <time>2018-09-13T07:21:55.000Z</time>
      </trkpt>
      <trkpt lat="47.98094" lon="6.5374">
        <ele>598</ele>
        <time>2018-09-13T07:21:56.000Z</time>
      </trkpt>
      <trkpt lat="47.98095" lon="6.53739">
        <ele>598</ele>
        <time>2018-09-13T07:21:57.000Z</time>
      </trkpt>
      <trkpt lat="47.98097" lon="6.53739">
        <ele>598</ele>
        <time>2018-09-13T07:21:58.000Z</time>
      </trkpt>
      <trkpt lat="47.98098" lon="6.53738">
        <ele>598</ele>
        <time>2018-09-13T07:21:59.000Z</time>
      </trkpt>
      <trkpt lat="47.98098" lon="6.53737">
        <ele>598</ele>
        <time>2018-09-13T07:22:00.000Z</time>
      </trkpt>
      <trkpt lat="47.98099" lon="6.53737">
        <ele>598</ele>
        <time>2018-09-13T07:22:01.000Z</time>
      </trkpt>
      <trkpt lat="47.981" lon="6.53737">
        <ele>598</ele>
        <time>2018-09-13T07:22:02.000Z</time>
      </trkpt>
      <trkpt lat="47.98101" lon="6.53737">
        <ele>598</ele>
        <time>2018-09-13T07:22:03.000Z</time>
      </trkpt>
      <trkpt lat="47.98102" lon="6.53737">
        <ele>598</ele>
        <time>2018-09-13T07:22:04.000Z</time>
      </trkpt>
      <trkpt lat="47.98103" lon="6.53738">
        <ele>598</ele>
        <time>2018-09-13T07:22:05.000Z</time>
      </trkpt>
      <trkpt lat="47.98104" lon="6.53737">
        <ele>598</ele>
        <time>2018-09-13T07:22:06.000Z</time>
      </trkpt>
      <trkpt lat="47.98105" lon="6.53737">
        <ele>598</ele>
        <time>2018-09-13T07:22:07.000Z</time>
      </trkpt>
      <trkpt lat="47.98106" lon="6.53738">
        <ele>599</ele>
        <time>2018-09-13T07:22:08.000Z</time>
      </trkpt>
      <trkpt lat="47.98106" lon="6.53738">
        <ele>599</ele>
        <time>2018-09-13T07:22:09.000Z</time>
      </trkpt>
      <trkpt lat="47.98107" lon="6.53737">
        <ele>599</ele>
        <time>2018-09-13T07:22:10.000Z</time>
      </trkpt>
      <trkpt lat="47.98108" lon="6.53737">
        <ele>599</ele>
        <time>2018-09-13T07:22:11.000Z</time>
      </trkpt>
      <trkpt lat="47.98108" lon="6.53737">
        <ele>599</ele>
        <time>2018-09-13T07:22:12.000Z</time>
      </trkpt>
      <trkpt lat="47.98109" lon="6.53736">
        <ele>599</ele>
        <time>2018-09-13T07:22:13.000Z</time>
      </trkpt>
      <trkpt lat="47.9811" lon="6.53736">
        <ele>599</ele>
        <time>2018-09-13T07:22:14.000Z</time>
      </trkpt>
      <trkpt lat="47.98111" lon="6.53736">
        <ele>599</ele>
        <time>2018-09-13T07:22:15.000Z</time>
      </trkpt>
      <trkpt lat="47.98112" lon="6.53736">
        <ele>599</ele>
        <time>2018-09-13T07:22:16.000Z</time>
      </trkpt>
      <trkpt lat="47.98113" lon="6.53735">
        <ele>599</ele>
        <time>2018-09-13T07:22:17.000Z</time>
      </trkpt>
      <trkpt lat="47.98114" lon="6.53736">
        <ele>600</ele>
        <time>2018-09-13T07:22:18.000Z</time>
      </trkpt>
      <trkpt lat="47.98115" lon="6.53736">
        <ele>600</ele>
        <time>2018-09-13T07:22:19.000Z</time>
      </trkpt>
      <trkpt lat="47.98116" lon="6.53737">
        <ele>600</ele>
        <time>2018-09-13T07:22:20.000Z</time>
      </trkpt>
      <trkpt lat="47.98117" lon="6.53738">
        <ele>600</ele>
        <time>2018-09-13T07:22:21.000Z</time>
      </trkpt>
      <trkpt lat="47.98117" lon="6.5374">
        <ele>600</ele>
        <time>2018-09-13T07:22:22.000Z</time>
      </trkpt>
      <trkpt lat="47.98118" lon="6.53741">
        <ele>600</ele>
        <time>2018-09-13T07:22:23.000Z</time>
      </trkpt>
      <trkpt lat="47.98119" lon="6.53743">
        <ele>600</ele>
        <time>2018-09-13T07:22:24.000Z</time>
      </trkpt>
      <trkpt lat="47.98119" lon="6.53744">
        <ele>600</ele>
        <time>2018-09-13T07:22:25.000Z</time>
      </trkpt>
      <trkpt lat="47.9812" lon="6.53746">
        <ele>600</ele>
        <time>2018-09-13T07:22:26.000Z</time>
      </trkpt>
      <trkpt lat="47.98121" lon="6.53748">
        <ele>600</ele>
        <time>2018-09-13T07:22:27.000Z</time>
      </trkpt>
      <trkpt lat="47.98121" lon="6.5375">
        <ele>600</ele>
        <time>2018-09-13T07:22:28.000Z</time>
      </trkpt>
      <trkpt lat="47.98122" lon="6.53752">
        <ele>600</ele>
        <time>2018-09-13T07:22:29.000Z</time>
      </trkpt>
      <trkpt lat="47.98122" lon="6.53753">
        <ele>600</ele>
        <time>2018-09-13T07:22:30.000Z</time>
      </trkpt>
      <trkpt lat="47.98123" lon="6.53755">
        <ele>600</ele>
        <time>2018-09-13T07:22:31.000Z</time>
      </trkpt>
      <trkpt lat="47.98124" lon="6.53756">
        <ele>600</ele>
        <time>2018-09-13T07:22:32.000Z</time>
      </trkpt>
      <trkpt lat="47.98125" lon="6.53757">
        <ele>600</ele>
        <time>2018-09-13T07:22:33.000Z</time>
      </trkpt>
      <trkpt lat="47.98125" lon="6.53758">
        <ele>600</ele>
        <time>2018-09-13T07:22:34.000Z</time>
      </trkpt>
      <trkpt lat="47.98126" lon="6.53758">
        <ele>600</ele>
        <time>2018-09-13T07:22:35.000Z</time>
      </trkpt>
      <trkpt lat="47.98126" lon="6.53759">
        <ele>600</ele>
        <time>2018-09-13T07:22:36.000Z</time>
      </trkpt>
      <trkpt lat="47.98127" lon="6.53759">
        <ele>600</ele>
        <time>2018-09-13T07:22:37.000Z</time>
      </trkpt>
      <trkpt lat="47.98127" lon="6.53759">
        <ele>600</ele>
        <time>2018-09-13T07:22:38.000Z</time>
      </trkpt>
      <trkpt lat="47.98129" lon="6.53759">
        <ele>601</ele>
        <time>2018-09-13T07:22:39.000Z</time>
      </trkpt>
      <trkpt lat="47.98129" lon="6.53759">
        <ele>601</ele>
        <time>2018-09-13T07:22:40.000Z</time>
      </trkpt>
      <trkpt lat="47.9813" lon="6.53759">
        <ele>601</ele>
        <time>2018-09-13T07:22:41.000Z</time>
      </trkpt>
      <trkpt lat="47.98131" lon="6.53758">
        <ele>601</ele>
        <time>2018-09-13T07:22:42.000Z</time>
      </trkpt>
      <trkpt lat="47.98132" lon="6.53758">
        <ele>601</ele>
        <time>2018-09-13T07:22:43.000Z</time>
      </trkpt>
      <trkpt lat="47.98133" lon="6.53758">
        <ele>601</ele>
        <time>2018-09-13T07:22:44.000Z</time>
      </trkpt>
      <trkpt lat="47.98134" lon="6.53758">
        <ele>602</ele>
        <time>2018-09-13T07:22:45.000Z</time>
      </trkpt>
      <trkpt lat="47.98134" lon="6.53759">
        <ele>602</ele>
        <time>2018-09-13T07:22:46.000Z</time>
      </trkpt>
      <trkpt lat="47.98135" lon="6.53759">
        <ele>602</ele>
        <time>2018-09-13T07:22:47.000Z</time>
      </trkpt>
      <trkpt lat="47.98136" lon="6.5376">
        <ele>602</ele>
        <time>2018-09-13T07:22:48.000Z</time>
      </trkpt>
      <trkpt lat="47.98136" lon="6.5376">
        <ele>602</ele>
        <time>2018-09-13T07:22:49.000Z</time>
      </trkpt>
      <trkpt lat="47.98137" lon="6.5376">
        <ele>602</ele>
        <time>2018-09-13T07:22:50.000Z</time>
      </trkpt>
      <trkpt lat="47.98137" lon="6.5376">
        <ele>603</ele>
        <time>2018-09-13T07:22:51.000Z</time>
      </trkpt>
      <trkpt lat="47.9815" lon="6.53771">
        <ele>607</ele>
        <time>2018-09-13T07:22:52.000Z</time>
      </trkpt>
      <trkpt lat="47.98151" lon="6.53771">
        <ele>607</ele>
        <time>2018-09-13T07:22:53.000Z</time>
      </trkpt>
      <trkpt lat="47.98152" lon="6.53772">
        <ele>607</ele>
        <time>2018-09-13T07:22:54.000Z</time>
      </trkpt>
      <trkpt lat="47.98153" lon="6.53772">
        <ele>607</ele>
        <time>2018-09-13T07:22:55.000Z</time>
      </trkpt>
      <trkpt lat="47.98154" lon="6.53773">
        <ele>607</ele>
        <time>2018-09-13T07:22:56.000Z</time>
      </trkpt>
      <trkpt lat="47.98155" lon="6.53774">
        <ele>608</ele>
        <time>2018-09-13T07:22:57.000Z</time>
      </trkpt>
      <trkpt lat="47.98156" lon="6.53774">
        <ele>608</ele>
        <time>2018-09-13T07:22:58.000Z</time>
      </trkpt>
      <trkpt lat="47.98157" lon="6.53775">
        <ele>608</ele>
        <time>2018-09-13T07:22:59.000Z</time>
      </trkpt>
      <trkpt lat="47.98158" lon="6.53776">
        <ele>608</ele>
        <time>2018-09-13T07:23:00.000Z</time>
      </trkpt>
      <trkpt lat="47.98159" lon="6.53776">
        <ele>608</ele>
        <time>2018-09-13T07:23:01.000Z</time>
      </trkpt>
      <trkpt lat="47.98161" lon="6.53777">
        <ele>608</ele>
        <time>2018-09-13T07:23:02.000Z</time>
      </trkpt>
      <trkpt lat="47.98162" lon="6.53777">
        <ele>609</ele>
        <time>2018-09-13T07:23:03.000Z</time>
      </trkpt>
      <trkpt lat="47.98163" lon="6.53777">
        <ele>609</ele>
        <time>2018-09-13T07:23:04.000Z</time>
      </trkpt>
      <trkpt lat="47.98164" lon="6.53778">
        <ele>609</ele>
        <time>2018-09-13T07:23:05.000Z</time>
      </trkpt>
      <trkpt lat="47.98165" lon="6.53778">
        <ele>609</ele>
        <time>2018-09-13T07:23:06.000Z</time>
      </trkpt>
      <trkpt lat="47.98166" lon="6.53779">
        <ele>610</ele>
        <time>2018-09-13T07:23:07.000Z</time>
      </trkpt>
      <trkpt lat="47.98167" lon="6.53779">
        <ele>610</ele>
        <time>2018-09-13T07:23:08.000Z</time>
      </trkpt>
      <trkpt lat="47.98168" lon="6.53779">
        <ele>610</ele>
        <time>2018-09-13T07:23:09.000Z</time>
      </trkpt>
      <trkpt lat="47.98169" lon="6.53779">
        <ele>610</ele>
        <time>2018-09-13T07:23:10.000Z</time>
      </trkpt>
      <trkpt lat="47.9817" lon="6.5378">
        <ele>611</ele>
        <time>2018-09-13T07:23:11.000Z</time>
      </trkpt>
      <trkpt lat="47.98175" lon="6.5378">
        <ele>612</ele>
        <time>2018-09-13T07:23:12.000Z</time>
      </trkpt>
      <trkpt lat="47.98175" lon="6.53781">
        <ele>612</ele>
        <time>2018-09-13T07:23:13.000Z</time>
      </trkpt>
      <trkpt lat="47.98178" lon="6.53782">
        <ele>613</ele>
        <time>2018-09-13T07:23:14.000Z</time>
      </trkpt>
      <trkpt lat="47.98178" lon="6.53782">
        <ele>613</ele>
        <time>2018-09-13T07:23:15.000Z</time>
      </trkpt>
      <trkpt lat="47.98179" lon="6.53783">
        <ele>614</ele>
        <time>2018-09-13T07:23:16.000Z</time>
      </trkpt>
      <trkpt lat="47.98182" lon="6.53785">
        <ele>615</ele>
        <time>2018-09-13T07:23:17.000Z</time>
      </trkpt>
      <trkpt lat="47.98183" lon="6.53785">
        <ele>615</ele>
        <time>2018-09-13T07:23:18.000Z</time>
      </trkpt>
      <trkpt lat="47.98184" lon="6.53786">
        <ele>615</ele>
        <time>2018-09-13T07:23:19.000Z</time>
      </trkpt>
      <trkpt lat="47.98185" lon="6.53786">
        <ele>615</ele>
        <time>2018-09-13T07:23:20.000Z</time>
      </trkpt>
      <trkpt lat="47.98186" lon="6.53787">
        <ele>616</ele>
        <time>2018-09-13T07:23:21.000Z</time>
      </trkpt>
      <trkpt lat="47.98187" lon="6.53787">
        <ele>616</ele>
        <time>2018-09-13T07:23:22.000Z</time>
      </trkpt>
      <trkpt lat="47.98188" lon="6.53788">
        <ele>616</ele>
        <time>2018-09-13T07:23:23.000Z</time>
      </trkpt>
      <trkpt lat="47.98189" lon="6.53788">
        <ele>616</ele>
        <time>2018-09-13T07:23:24.000Z</time>
      </trkpt>
      <trkpt lat="47.9819" lon="6.53789">
        <ele>616</ele>
        <time>2018-09-13T07:23:25.000Z</time>
      </trkpt>
      <trkpt lat="47.98191" lon="6.53789">
        <ele>617</ele>
        <time>2018-09-13T07:23:26.000Z</time>
      </trkpt>
      <trkpt lat="47.98192" lon="6.5379">
        <ele>617</ele>
        <time>2018-09-13T07:23:27.000Z</time>
      </trkpt>
      <trkpt lat="47.98193" lon="6.5379">
        <ele>617</ele>
        <time>2018-09-13T07:23:28.000Z</time>
      </trkpt>
      <trkpt lat="47.98194" lon="6.53791">
        <ele>617</ele>
        <time>2018-09-13T07:23:29.000Z</time>
      </trkpt>
      <trkpt lat="47.98195" lon="6.53792">
        <ele>617</ele>
        <time>2018-09-13T07:23:30.000Z</time>
      </trkpt>
      <trkpt lat="47.98196" lon="6.53792">
        <ele>618</ele>
        <time>2018-09-13T07:23:31.000Z</time>
      </trkpt>
      <trkpt lat="47.98197" lon="6.53793">
        <ele>618</ele>
        <time>2018-09-13T07:23:32.000Z</time>
      </trkpt>
      <trkpt lat="47.98198" lon="6.53794">
        <ele>618</ele>
        <time>2018-09-13T07:23:33.000Z</time>
      </trkpt>
      <trkpt lat="47.98199" lon="6.53794">
        <ele>618</ele>
        <time>2018-09-13T07:23:34.000Z</time>
      </trkpt>
      <trkpt lat="47.982" lon="6.53795">
        <ele>619</ele>
        <time>2018-09-13T07:23:35.000Z</time>
      </trkpt>
      <trkpt lat="47.98201" lon="6.53796">
        <ele>619</ele>
        <time>2018-09-13T07:23:36.000Z</time>
      </trkpt>
      <trkpt lat="47.98202" lon="6.53796">
        <ele>619</ele>
        <time>2018-09-13T07:23:37.000Z</time>
      </trkpt>
      <trkpt lat="47.98203" lon="6.53796">
        <ele>619</ele>
        <time>2018-09-13T07:23:38.000Z</time>
      </trkpt>
      <trkpt lat="47.98205" lon="6.53797">
        <ele>620</ele>
        <time>2018-09-13T07:23:39.000Z</time>
      </trkpt>
      <trkpt lat="47.98206" lon="6.53797">
        <ele>620</ele>
        <time>2018-09-13T07:23:40.000Z</time>
      </trkpt>
      <trkpt lat="47.98207" lon="6.53797">
        <ele>620</ele>
        <time>2018-09-13T07:23:41.000Z</time>
      </trkpt>
      <trkpt lat="47.98208" lon="6.53797">
        <ele>620</ele>
        <time>2018-09-13T07:23:42.000Z</time>
      </trkpt>
      <trkpt lat="47.98209" lon="6.53797">
        <ele>621</ele>
        <time>2018-09-13T07:23:43.000Z</time>
      </trkpt>
      <trkpt lat="47.9821" lon="6.53798">
        <ele>621</ele>
        <time>2018-09-13T07:23:44.000Z</time>
      </trkpt>
      <trkpt lat="47.98211" lon="6.53798">
        <ele>621</ele>
        <time>2018-09-13T07:23:45.000Z</time>
      </trkpt>
      <trkpt lat="47.98212" lon="6.53798">
        <ele>621</ele>
        <time>2018-09-13T07:23:46.000Z</time>
      </trkpt>
      <trkpt lat="47.98213" lon="6.53799">
        <ele>622</ele>
        <time>2018-09-13T07:23:47.000Z</time>
      </trkpt>
      <trkpt lat="47.98214" lon="6.53799">
        <ele>622</ele>
        <time>2018-09-13T07:23:48.000Z</time>
      </trkpt>
      <trkpt lat="47.98216" lon="6.53799">
        <ele>623</ele>
        <time>2018-09-13T07:23:49.000Z</time>
      </trkpt>
      <trkpt lat="47.98217" lon="6.53799">
        <ele>623</ele>
        <time>2018-09-13T07:23:50.000Z</time>
      </trkpt>
      <trkpt lat="47.98218" lon="6.538">
        <ele>623</ele>
        <time>2018-09-13T07:23:51.000Z</time>
      </trkpt>
      <trkpt lat="47.9822" lon="6.538">
        <ele>624</ele>
        <time>2018-09-13T07:23:52.000Z</time>
      </trkpt>
      <trkpt lat="47.98221" lon="6.538">
        <ele>624</ele>
        <time>2018-09-13T07:23:53.000Z</time>
      </trkpt>
      <trkpt lat="47.98222" lon="6.53801">
        <ele>624</ele>
        <time>2018-09-13T07:23:54.000Z</time>
      </trkpt>
      <trkpt lat="47.98223" lon="6.53801">
        <ele>625</ele>
        <time>2018-09-13T07:23:55.000Z</time>
      </trkpt>
      <trkpt lat="47.98224" lon="6.53802">
        <ele>625</ele>
        <time>2018-09-13T07:23:56.000Z</time>
      </trkpt>
      <trkpt lat="47.98225" lon="6.53802">
        <ele>626</ele>
        <time>2018-09-13T07:23:57.000Z</time>
      </trkpt>
      <trkpt lat="47.98226" lon="6.53802">
        <ele>626</ele>
        <time>2018-09-13T07:23:58.000Z</time>
      </trkpt>
      <trkpt lat="47.98228" lon="6.53803">
        <ele>626</ele>
        <time>2018-09-13T07:23:59.000Z</time>
      </trkpt>
      <trkpt lat="47.98229" lon="6.53803">
        <ele>627</ele>
        <time>2018-09-13T07:24:00.000Z</time>
      </trkpt>
      <trkpt lat="47.9823" lon="6.53804">
        <ele>627</ele>
        <time>2018-09-13T07:24:01.000Z</time>
      </trkpt>
      <trkpt lat="47.98232" lon="6.53804">
        <ele>627</ele>
        <time>2018-09-13T07:24:02.000Z</time>
      </trkpt>
      <trkpt lat="47.98233" lon="6.53804">
        <ele>628</ele>
        <time>2018-09-13T07:24:03.000Z</time>
      </trkpt>
      <trkpt lat="47.98234" lon="6.53803">
        <ele>628</ele>
        <time>2018-09-13T07:24:04.000Z</time>
      </trkpt>
      <trkpt lat="47.98236" lon="6.53803">
        <ele>628</ele>
        <time>2018-09-13T07:24:05.000Z</time>
      </trkpt>
      <trkpt lat="47.98237" lon="6.53803">
        <ele>629</ele>
        <time>2018-09-13T07:24:06.000Z</time>
      </trkpt>
      <trkpt lat="47.98238" lon="6.53803">
        <ele>629</ele>
        <time>2018-09-13T07:24:07.000Z</time>
      </trkpt>
      <trkpt lat="47.98239" lon="6.53802">
        <ele>629</ele>
        <time>2018-09-13T07:24:08.000Z</time>
      </trkpt>
      <trkpt lat="47.9824" lon="6.53802">
        <ele>630</ele>
        <time>2018-09-13T07:24:09.000Z</time>
      </trkpt>
      <trkpt lat="47.98241" lon="6.53803">
        <ele>630</ele>
        <time>2018-09-13T07:24:10.000Z</time>
      </trkpt>
      <trkpt lat="47.98242" lon="6.53803">
        <ele>631</ele>
        <time>2018-09-13T07:24:11.000Z</time>
      </trkpt>
      <trkpt lat="47.98243" lon="6.53803">
        <ele>631</ele>
        <time>2018-09-13T07:24:12.000Z</time>
      </trkpt>
      <trkpt lat="47.98244" lon="6.53803">
        <ele>631</ele>
        <time>2018-09-13T07:24:13.000Z</time>
      </trkpt>
      <trkpt lat="47.98245" lon="6.53803">
        <ele>631</ele>
        <time>2018-09-13T07:24:14.000Z</time>
      </trkpt>
      <trkpt lat="47.98246" lon="6.53803">
        <ele>632</ele>
        <time>2018-09-13T07:24:15.000Z</time>
      </trkpt>
      <trkpt lat="47.98247" lon="6.53803">
        <ele>632</ele>
        <time>2018-09-13T07:24:16.000Z</time>
      </trkpt>
      <trkpt lat="47.98248" lon="6.53803">
        <ele>633</ele>
        <time>2018-09-13T07:24:17.000Z</time>
      </trkpt>
      <trkpt lat="47.9825" lon="6.53803">
        <ele>633</ele>
        <time>2018-09-13T07:24:18.000Z</time>
      </trkpt>
      <trkpt lat="47.98251" lon="6.53803">
        <ele>633</ele>
        <time>2018-09-13T07:24:19.000Z</time>
      </trkpt>
      <trkpt lat="47.98252" lon="6.53804">
        <ele>634</ele>
        <time>2018-09-13T07:24:20.000Z</time>
      </trkpt>
      <trkpt lat="47.98253" lon="6.53805">
        <ele>634</ele>
        <time>2018-09-13T07:24:21.000Z</time>
      </trkpt>
      <trkpt lat="47.98254" lon="6.53805">
        <ele>634</ele>
        <time>2018-09-13T07:24:22.000Z</time>
      </trkpt>
      <trkpt lat="47.98255" lon="6.53806">
        <ele>635</ele>
        <time>2018-09-13T07:24:23.000Z</time>
      </trkpt>
      <trkpt lat="47.98255" lon="6.53807">
        <ele>635</ele>
        <time>2018-09-13T07:24:24.000Z</time>
      </trkpt>
      <trkpt lat="47.98256" lon="6.53807">
        <ele>635</ele>
        <time>2018-09-13T07:24:25.000Z</time>
      </trkpt>
      <trkpt lat="47.98256" lon="6.53808">
        <ele>635</ele>
        <time>2018-09-13T07:24:26.000Z</time>
      </trkpt>
      <trkpt lat="47.98257" lon="6.53808">
        <ele>636</ele>
        <time>2018-09-13T07:24:27.000Z</time>
      </trkpt>
      <trkpt lat="47.98257" lon="6.53809">
        <ele>636</ele>
        <time>2018-09-13T07:24:28.000Z</time>
      </trkpt>
      <trkpt lat="47.98258" lon="6.5381">
        <ele>636</ele>
        <time>2018-09-13T07:24:29.000Z</time>
      </trkpt>
      <trkpt lat="47.98259" lon="6.53811">
        <ele>636</ele>
        <time>2018-09-13T07:24:30.000Z</time>
      </trkpt>
      <trkpt lat="47.9826" lon="6.53811">
        <ele>637</ele>
        <time>2018-09-13T07:24:31.000Z</time>
      </trkpt>
      <trkpt lat="47.98261" lon="6.53811">
        <ele>637</ele>
        <time>2018-09-13T07:24:32.000Z</time>
      </trkpt>
      <trkpt lat="47.98262" lon="6.53811">
        <ele>637</ele>
        <time>2018-09-13T07:24:33.000Z</time>
      </trkpt>
      <trkpt lat="47.98263" lon="6.53812">
        <ele>637</ele>
        <time>2018-09-13T07:24:34.000Z</time>
      </trkpt>
      <trkpt lat="47.98264" lon="6.53812">
        <ele>637</ele>
        <time>2018-09-13T07:24:35.000Z</time>
      </trkpt>
      <trkpt lat="47.98264" lon="6.53813">
        <ele>638</ele>
        <time>2018-09-13T07:24:36.000Z</time>
      </trkpt>
      <trkpt lat="47.98265" lon="6.53813">
        <ele>638</ele>
        <time>2018-09-13T07:24:37.000Z</time>
      </trkpt>
      <trkpt lat="47.98266" lon="6.53814">
        <ele>638</ele>
        <time>2018-09-13T07:24:38.000Z</time>
      </trkpt>
      <trkpt lat="47.98266" lon="6.53814">
        <ele>638</ele>
        <time>2018-09-13T07:24:39.000Z</time>
      </trkpt>
      <trkpt lat="47.98266" lon="6.53814">
        <ele>639</ele>
        <time>2018-09-13T07:24:40.000Z</time>
      </trkpt>
      <trkpt lat="47.98268" lon="6.53816">
        <ele>640</ele>
        <time>2018-09-13T07:24:41.000Z</time>
      </trkpt>
      <trkpt lat="47.98268" lon="6.53818">
        <ele>640</ele>
        <time>2018-09-13T07:24:42.000Z</time>
      </trkpt>
      <trkpt lat="47.98268" lon="6.5382">
        <ele>640</ele>
        <time>2018-09-13T07:24:43.000Z</time>
      </trkpt>
      <trkpt lat="47.98268" lon="6.53822">
        <ele>640</ele>
        <time>2018-09-13T07:24:44.000Z</time>
      </trkpt>
      <trkpt lat="47.98269" lon="6.53824">
        <ele>640</ele>
        <time>2018-09-13T07:24:45.000Z</time>
      </trkpt>
      <trkpt lat="47.98269" lon="6.53825">
        <ele>639</ele>
        <time>2018-09-13T07:24:46.000Z</time>
      </trkpt>
      <trkpt lat="47.98269" lon="6.53827">
        <ele>639</ele>
        <time>2018-09-13T07:24:47.000Z</time>
      </trkpt>
      <trkpt lat="47.98269" lon="6.53829">
        <ele>639</ele>
        <time>2018-09-13T07:24:48.000Z</time>
      </trkpt>
      <trkpt lat="47.98269" lon="6.53831">
        <ele>639</ele>
        <time>2018-09-13T07:24:49.000Z</time>
      </trkpt>
      <trkpt lat="47.9827" lon="6.53832">
        <ele>639</ele>
        <time>2018-09-13T07:24:50.000Z</time>
      </trkpt>
      <trkpt lat="47.9827" lon="6.53834">
        <ele>639</ele>
        <time>2018-09-13T07:24:51.000Z</time>
      </trkpt>
      <trkpt lat="47.9827" lon="6.53836">
        <ele>639</ele>
        <time>2018-09-13T07:24:52.000Z</time>
      </trkpt>
      <trkpt lat="47.9827" lon="6.53838">
        <ele>639</ele>
        <time>2018-09-13T07:24:53.000Z</time>
      </trkpt>
      <trkpt lat="47.9827" lon="6.5384">
        <ele>639</ele>
        <time>2018-09-13T07:24:54.000Z</time>
      </trkpt>
      <trkpt lat="47.9827" lon="6.53841">
        <ele>639</ele>
        <time>2018-09-13T07:24:55.000Z</time>
      </trkpt>
      <trkpt lat="47.98271" lon="6.53843">
        <ele>639</ele>
        <time>2018-09-13T07:24:56.000Z</time>
      </trkpt>
      <trkpt lat="47.98271" lon="6.53845">
        <ele>639</ele>
        <time>2018-09-13T07:24:57.000Z</time>
      </trkpt>
      <trkpt lat="47.98271" lon="6.53847">
        <ele>639</ele>
        <time>2018-09-13T07:24:58.000Z</time>
      </trkpt>
      <trkpt lat="47.98272" lon="6.5385">
        <ele>638</ele>
        <time>2018-09-13T07:24:59.000Z</time>
      </trkpt>
      <trkpt lat="47.98272" lon="6.53852">
        <ele>638</ele>
        <time>2018-09-13T07:25:00.000Z</time>
      </trkpt>
      <trkpt lat="47.98273" lon="6.53854">
        <ele>638</ele>
        <time>2018-09-13T07:25:01.000Z</time>
      </trkpt>
      <trkpt lat="47.98273" lon="6.53856">
        <ele>638</ele>
        <time>2018-09-13T07:25:02.000Z</time>
      </trkpt>
      <trkpt lat="47.98274" lon="6.53858">
        <ele>638</ele>
        <time>2018-09-13T07:25:03.000Z</time>
      </trkpt>
      <trkpt lat="47.98275" lon="6.5386">
        <ele>638</ele>
        <time>2018-09-13T07:25:04.000Z</time>
      </trkpt>
      <trkpt lat="47.98276" lon="6.53862">
        <ele>637</ele>
        <time>2018-09-13T07:25:05.000Z</time>
      </trkpt>
      <trkpt lat="47.98277" lon="6.53865">
        <ele>637</ele>
        <time>2018-09-13T07:25:06.000Z</time>
      </trkpt>
      <trkpt lat="47.98278" lon="6.53867">
        <ele>637</ele>
        <time>2018-09-13T07:25:07.000Z</time>
      </trkpt>
      <trkpt lat="47.98279" lon="6.53869">
        <ele>637</ele>
        <time>2018-09-13T07:25:08.000Z</time>
      </trkpt>
      <trkpt lat="47.9828" lon="6.5387">
        <ele>637</ele>
        <time>2018-09-13T07:25:09.000Z</time>
      </trkpt>
      <trkpt lat="47.98281" lon="6.53872">
        <ele>637</ele>
        <time>2018-09-13T07:25:10.000Z</time>
      </trkpt>
      <trkpt lat="47.98282" lon="6.53874">
        <ele>637</ele>
        <time>2018-09-13T07:25:11.000Z</time>
      </trkpt>
      <trkpt lat="47.98282" lon="6.53876">
        <ele>637</ele>
        <time>2018-09-13T07:25:12.000Z</time>
      </trkpt>
      <trkpt lat="47.98283" lon="6.53878">
        <ele>637</ele>
        <time>2018-09-13T07:25:13.000Z</time>
      </trkpt>
      <trkpt lat="47.98283" lon="6.53879">
        <ele>637</ele>
        <time>2018-09-13T07:25:14.000Z</time>
      </trkpt>
      <trkpt lat="47.98284" lon="6.5388">
        <ele>637</ele>
        <time>2018-09-13T07:25:15.000Z</time>
      </trkpt>
      <trkpt lat="47.98284" lon="6.53882">
        <ele>637</ele>
        <time>2018-09-13T07:25:16.000Z</time>
      </trkpt>
      <trkpt lat="47.98284" lon="6.53883">
        <ele>637</ele>
        <time>2018-09-13T07:25:17.000Z</time>
      </trkpt>
      <trkpt lat="47.98284" lon="6.53884">
        <ele>637</ele>
        <time>2018-09-13T07:25:18.000Z</time>
      </trkpt>
      <trkpt lat="47.98284" lon="6.53886">
        <ele>638</ele>
        <time>2018-09-13T07:25:19.000Z</time>
      </trkpt>
      <trkpt lat="47.98285" lon="6.53887">
        <ele>638</ele>
        <time>2018-09-13T07:25:20.000Z</time>
      </trkpt>
      <trkpt lat="47.98285" lon="6.53889">
        <ele>638</ele>
        <time>2018-09-13T07:25:21.000Z</time>
      </trkpt>
      <trkpt lat="47.98285" lon="6.5389">
        <ele>638</ele>
        <time>2018-09-13T07:25:22.000Z</time>
      </trkpt>
      <trkpt lat="47.98285" lon="6.53891">
        <ele>638</ele>
        <time>2018-09-13T07:25:23.000Z</time>
      </trkpt>
      <trkpt lat="47.98285" lon="6.53892">
        <ele>638</ele>
        <time>2018-09-13T07:25:24.000Z</time>
      </trkpt>
      <trkpt lat="47.98285" lon="6.53893">
        <ele>638</ele>
        <time>2018-09-13T07:25:25.000Z</time>
      </trkpt>
      <trkpt lat="47.98285" lon="6.53894">
        <ele>639</ele>
        <time>2018-09-13T07:25:26.000Z</time>
      </trkpt>
      <trkpt lat="47.98285" lon="6.53895">
        <ele>639</ele>
        <time>2018-09-13T07:25:27.000Z</time>
      </trkpt>
      <trkpt lat="47.98285" lon="6.53897">
        <ele>639</ele>
        <time>2018-09-13T07:25:28.000Z</time>
      </trkpt>
      <trkpt lat="47.98285" lon="6.53898">
        <ele>639</ele>
        <time>2018-09-13T07:25:29.000Z</time>
      </trkpt>
      <trkpt lat="47.98285" lon="6.539">
        <ele>639</ele>
        <time>2018-09-13T07:25:30.000Z</time>
      </trkpt>
      <trkpt lat="47.98286" lon="6.53901">
        <ele>639</ele>
        <time>2018-09-13T07:25:31.000Z</time>
      </trkpt>
      <trkpt lat="47.98286" lon="6.53903">
        <ele>639</ele>
        <time>2018-09-13T07:25:32.000Z</time>
      </trkpt>
      <trkpt lat="47.98287" lon="6.53904">
        <ele>640</ele>
        <time>2018-09-13T07:25:33.000Z</time>
      </trkpt>
      <trkpt lat="47.98287" lon="6.53906">
        <ele>640</ele>
        <time>2018-09-13T07:25:34.000Z</time>
      </trkpt>
      <trkpt lat="47.98288" lon="6.53907">
        <ele>640</ele>
        <time>2018-09-13T07:25:35.000Z</time>
      </trkpt>
      <trkpt lat="47.98288" lon="6.53909">
        <ele>640</ele>
        <time>2018-09-13T07:25:36.000Z</time>
      </trkpt>
      <trkpt lat="47.98289" lon="6.5391">
        <ele>640</ele>
        <time>2018-09-13T07:25:37.000Z</time>
      </trkpt>
      <trkpt lat="47.98289" lon="6.53912">
        <ele>640</ele>
        <time>2018-09-13T07:25:38.000Z</time>
      </trkpt>
      <trkpt lat="47.9829" lon="6.53913">
        <ele>640</ele>
        <time>2018-09-13T07:25:39.000Z</time>
      </trkpt>
      <trkpt lat="47.98291" lon="6.53915">
        <ele>640</ele>
        <time>2018-09-13T07:25:40.000Z</time>
      </trkpt>
      <trkpt lat="47.98291" lon="6.53916">
        <ele>640</ele>
        <time>2018-09-13T07:25:41.000Z</time>
      </trkpt>
      <trkpt lat="47.98292" lon="6.53917">
        <ele>640</ele>
        <time>2018-09-13T07:25:42.000Z</time>
      </trkpt>
      <trkpt lat="47.98293" lon="6.53918">
        <ele>640</ele>
        <time>2018-09-13T07:25:43.000Z</time>
      </trkpt>
      <trkpt lat="47.98295" lon="6.53918">
        <ele>641</ele>
        <time>2018-09-13T07:25:44.000Z</time>
      </trkpt>
      <trkpt lat="47.98296" lon="6.53917">
        <ele>641</ele>
        <time>2018-09-13T07:25:45.000Z</time>
      </trkpt>
      <trkpt lat="47.98298" lon="6.53917">
        <ele>641</ele>
        <time>2018-09-13T07:25:46.000Z</time>
      </trkpt>
      <trkpt lat="47.98299" lon="6.53917">
        <ele>641</ele>
        <time>2018-09-13T07:25:47.000Z</time>
      </trkpt>
      <trkpt lat="47.98301" lon="6.53918">
        <ele>641</ele>
        <time>2018-09-13T07:25:48.000Z</time>
      </trkpt>
      <trkpt lat="47.98303" lon="6.53918">
        <ele>641</ele>
        <time>2018-09-13T07:25:49.000Z</time>
      </trkpt>
      <trkpt lat="47.98305" lon="6.53919">
        <ele>642</ele>
        <time>2018-09-13T07:25:50.000Z</time>
      </trkpt>
      <trkpt lat="47.98306" lon="6.53919">
        <ele>642</ele>
        <time>2018-09-13T07:25:51.000Z</time>
      </trkpt>
      <trkpt lat="47.98308" lon="6.53919">
        <ele>642</ele>
        <time>2018-09-13T07:25:52.000Z</time>
      </trkpt>
      <trkpt lat="47.9831" lon="6.53919">
        <ele>642</ele>
        <time>2018-09-13T07:25:53.000Z</time>
      </trkpt>
      <trkpt lat="47.98312" lon="6.53919">
        <ele>642</ele>
        <time>2018-09-13T07:25:54.000Z</time>
      </trkpt>
      <trkpt lat="47.98314" lon="6.53919">
        <ele>643</ele>
        <time>2018-09-13T07:25:55.000Z</time>
      </trkpt>
      <trkpt lat="47.98316" lon="6.53919">
        <ele>643</ele>
        <time>2018-09-13T07:25:56.000Z</time>
      </trkpt>
      <trkpt lat="47.98317" lon="6.53918">
        <ele>643</ele>
        <time>2018-09-13T07:25:57.000Z</time>
      </trkpt>
      <trkpt lat="47.98319" lon="6.53918">
        <ele>643</ele>
        <time>2018-09-13T07:25:58.000Z</time>
      </trkpt>
      <trkpt lat="47.98321" lon="6.53918">
        <ele>643</ele>
        <time>2018-09-13T07:25:59.000Z</time>
      </trkpt>
      <trkpt lat="47.98323" lon="6.53918">
        <ele>643</ele>
        <time>2018-09-13T07:26:00.000Z</time>
      </trkpt>
      <trkpt lat="47.98325" lon="6.53918">
        <ele>643</ele>
        <time>2018-09-13T07:26:01.000Z</time>
      </trkpt>
      <trkpt lat="47.98327" lon="6.53917">
        <ele>644</ele>
        <time>2018-09-13T07:26:02.000Z</time>
      </trkpt>
      <trkpt lat="47.98328" lon="6.53917">
        <ele>644</ele>
        <time>2018-09-13T07:26:03.000Z</time>
      </trkpt>
      <trkpt lat="47.9833" lon="6.53916">
        <ele>644</ele>
        <time>2018-09-13T07:26:04.000Z</time>
      </trkpt>
      <trkpt lat="47.98331" lon="6.53915">
        <ele>644</ele>
        <time>2018-09-13T07:26:05.000Z</time>
      </trkpt>
      <trkpt lat="47.98333" lon="6.53914">
        <ele>644</ele>
        <time>2018-09-13T07:26:06.000Z</time>
      </trkpt>
      <trkpt lat="47.98334" lon="6.53913">
        <ele>644</ele>
        <time>2018-09-13T07:26:07.000Z</time>
      </trkpt>
      <trkpt lat="47.98335" lon="6.53911">
        <ele>644</ele>
        <time>2018-09-13T07:26:08.000Z</time>
      </trkpt>
      <trkpt lat="47.98336" lon="6.5391">
        <ele>644</ele>
        <time>2018-09-13T07:26:09.000Z</time>
      </trkpt>
      <trkpt lat="47.98337" lon="6.53908">
        <ele>644</ele>
        <time>2018-09-13T07:26:10.000Z</time>
      </trkpt>
      <trkpt lat="47.98338" lon="6.53906">
        <ele>644</ele>
        <time>2018-09-13T07:26:11.000Z</time>
      </trkpt>
      <trkpt lat="47.98339" lon="6.53905">
        <ele>644</ele>
        <time>2018-09-13T07:26:12.000Z</time>
      </trkpt>
      <trkpt lat="47.9834" lon="6.53903">
        <ele>644</ele>
        <time>2018-09-13T07:26:13.000Z</time>
      </trkpt>
      <trkpt lat="47.9834" lon="6.53901">
        <ele>644</ele>
        <time>2018-09-13T07:26:14.000Z</time>
      </trkpt>
      <trkpt lat="47.98341" lon="6.53899">
        <ele>644</ele>
        <time>2018-09-13T07:26:15.000Z</time>
      </trkpt>
      <trkpt lat="47.98342" lon="6.53897">
        <ele>644</ele>
        <time>2018-09-13T07:26:16.000Z</time>
      </trkpt>
      <trkpt lat="47.98343" lon="6.53895">
        <ele>645</ele>
        <time>2018-09-13T07:26:17.000Z</time>
      </trkpt>
      <trkpt lat="47.98344" lon="6.53893">
        <ele>645</ele>
        <time>2018-09-13T07:26:18.000Z</time>
      </trkpt>
      <trkpt lat="47.98346" lon="6.53891">
        <ele>645</ele>
        <time>2018-09-13T07:26:19.000Z</time>
      </trkpt>
      <trkpt lat="47.98347" lon="6.5389">
        <ele>645</ele>
        <time>2018-09-13T07:26:20.000Z</time>
      </trkpt>
      <trkpt lat="47.98349" lon="6.53888">
        <ele>645</ele>
        <time>2018-09-13T07:26:21.000Z</time>
      </trkpt>
      <trkpt lat="47.9835" lon="6.53887">
        <ele>645</ele>
        <time>2018-09-13T07:26:22.000Z</time>
      </trkpt>
      <trkpt lat="47.98351" lon="6.53886">
        <ele>645</ele>
        <time>2018-09-13T07:26:23.000Z</time>
      </trkpt>
      <trkpt lat="47.98353" lon="6.53884">
        <ele>645</ele>
        <time>2018-09-13T07:26:24.000Z</time>
      </trkpt>
      <trkpt lat="47.98354" lon="6.53883">
        <ele>645</ele>
        <time>2018-09-13T07:26:25.000Z</time>
      </trkpt>
      <trkpt lat="47.98355" lon="6.53882">
        <ele>645</ele>
        <time>2018-09-13T07:26:26.000Z</time>
      </trkpt>
      <trkpt lat="47.98357" lon="6.5388">
        <ele>645</ele>
        <time>2018-09-13T07:26:27.000Z</time>
      </trkpt>
      <trkpt lat="47.98359" lon="6.53879">
        <ele>644</ele>
        <time>2018-09-13T07:26:28.000Z</time>
      </trkpt>
      <trkpt lat="47.9836" lon="6.53878">
        <ele>644</ele>
        <time>2018-09-13T07:26:29.000Z</time>
      </trkpt>
      <trkpt lat="47.98362" lon="6.53877">
        <ele>644</ele>
        <time>2018-09-13T07:26:30.000Z</time>
      </trkpt>
      <trkpt lat="47.98363" lon="6.53876">
        <ele>644</ele>
        <time>2018-09-13T07:26:31.000Z</time>
      </trkpt>
      <trkpt lat="47.98365" lon="6.53875">
        <ele>644</ele>
        <time>2018-09-13T07:26:32.000Z</time>
      </trkpt>
      <trkpt lat="47.98367" lon="6.53874">
        <ele>644</ele>
        <time>2018-09-13T07:26:33.000Z</time>
      </trkpt>
      <trkpt lat="47.98368" lon="6.53874">
        <ele>644</ele>
        <time>2018-09-13T07:26:34.000Z</time>
      </trkpt>
      <trkpt lat="47.9837" lon="6.53873">
        <ele>644</ele>
        <time>2018-09-13T07:26:35.000Z</time>
      </trkpt>
      <trkpt lat="47.98371" lon="6.53872">
        <ele>643</ele>
        <time>2018-09-13T07:26:36.000Z</time>
      </trkpt>
      <trkpt lat="47.98373" lon="6.53872">
        <ele>643</ele>
        <time>2018-09-13T07:26:37.000Z</time>
      </trkpt>
      <trkpt lat="47.98374" lon="6.53872">
        <ele>643</ele>
        <time>2018-09-13T07:26:38.000Z</time>
      </trkpt>
      <trkpt lat="47.98375" lon="6.53871">
        <ele>643</ele>
        <time>2018-09-13T07:26:39.000Z</time>
      </trkpt>
      <trkpt lat="47.98376" lon="6.5387">
        <ele>643</ele>
        <time>2018-09-13T07:26:40.000Z</time>
      </trkpt>
      <trkpt lat="47.98378" lon="6.53869">
        <ele>643</ele>
        <time>2018-09-13T07:26:41.000Z</time>
      </trkpt>
      <trkpt lat="47.98379" lon="6.53868">
        <ele>643</ele>
        <time>2018-09-13T07:26:42.000Z</time>
      </trkpt>
      <trkpt lat="47.9838" lon="6.53867">
        <ele>643</ele>
        <time>2018-09-13T07:26:43.000Z</time>
      </trkpt>
      <trkpt lat="47.98382" lon="6.53866">
        <ele>643</ele>
        <time>2018-09-13T07:26:44.000Z</time>
      </trkpt>
      <trkpt lat="47.98383" lon="6.53865">
        <ele>642</ele>
        <time>2018-09-13T07:26:45.000Z</time>
      </trkpt>
      <trkpt lat="47.98384" lon="6.53864">
        <ele>642</ele>
        <time>2018-09-13T07:26:46.000Z</time>
      </trkpt>
      <trkpt lat="47.98386" lon="6.53863">
        <ele>642</ele>
        <time>2018-09-13T07:26:47.000Z</time>
      </trkpt>
      <trkpt lat="47.98387" lon="6.53862">
        <ele>642</ele>
        <time>2018-09-13T07:26:48.000Z</time>
      </trkpt>
      <trkpt lat="47.98389" lon="6.53861">
        <ele>642</ele>
        <time>2018-09-13T07:26:49.000Z</time>
      </trkpt>
      <trkpt lat="47.9839" lon="6.5386">
        <ele>642</ele>
        <time>2018-09-13T07:26:50.000Z</time>
      </trkpt>
      <trkpt lat="47.98392" lon="6.5386">
        <ele>641</ele>
        <time>2018-09-13T07:26:51.000Z</time>
      </trkpt>
      <trkpt lat="47.98394" lon="6.53859">
        <ele>641</ele>
        <time>2018-09-13T07:26:52.000Z</time>
      </trkpt>
      <trkpt lat="47.98396" lon="6.53859">
        <ele>641</ele>
        <time>2018-09-13T07:26:53.000Z</time>
      </trkpt>
      <trkpt lat="47.98398" lon="6.53858">
        <ele>641</ele>
        <time>2018-09-13T07:26:54.000Z</time>
      </trkpt>
      <trkpt lat="47.98399" lon="6.53858">
        <ele>641</ele>
        <time>2018-09-13T07:26:55.000Z</time>
      </trkpt>
      <trkpt lat="47.98401" lon="6.53857">
        <ele>641</ele>
        <time>2018-09-13T07:26:56.000Z</time>
      </trkpt>
      <trkpt lat="47.98403" lon="6.53857">
        <ele>640</ele>
        <time>2018-09-13T07:26:57.000Z</time>
      </trkpt>
      <trkpt lat="47.98405" lon="6.53858">
        <ele>640</ele>
        <time>2018-09-13T07:26:58.000Z</time>
      </trkpt>
      <trkpt lat="47.98407" lon="6.53859">
        <ele>640</ele>
        <time>2018-09-13T07:26:59.000Z</time>
      </trkpt>
      <trkpt lat="47.98409" lon="6.5386">
        <ele>639</ele>
        <time>2018-09-13T07:27:00.000Z</time>
      </trkpt>
      <trkpt lat="47.98411" lon="6.53861">
        <ele>639</ele>
        <time>2018-09-13T07:27:01.000Z</time>
      </trkpt>
      <trkpt lat="47.98413" lon="6.53863">
        <ele>639</ele>
        <time>2018-09-13T07:27:02.000Z</time>
      </trkpt>
      <trkpt lat="47.98415" lon="6.53864">
        <ele>639</ele>
        <time>2018-09-13T07:27:03.000Z</time>
      </trkpt>
      <trkpt lat="47.98417" lon="6.53866">
        <ele>638</ele>
        <time>2018-09-13T07:27:04.000Z</time>
      </trkpt>
      <trkpt lat="47.98419" lon="6.53868">
        <ele>638</ele>
        <time>2018-09-13T07:27:05.000Z</time>
      </trkpt>
      <trkpt lat="47.9842" lon="6.53869">
        <ele>638</ele>
        <time>2018-09-13T07:27:06.000Z</time>
      </trkpt>
      <trkpt lat="47.98421" lon="6.53871">
        <ele>637</ele>
        <time>2018-09-13T07:27:07.000Z</time>
      </trkpt>
      <trkpt lat="47.98422" lon="6.53873">
        <ele>637</ele>
        <time>2018-09-13T07:27:08.000Z</time>
      </trkpt>
      <trkpt lat="47.98423" lon="6.53874">
        <ele>637</ele>
        <time>2018-09-13T07:27:09.000Z</time>
      </trkpt>
      <trkpt lat="47.98423" lon="6.53876">
        <ele>637</ele>
        <time>2018-09-13T07:27:10.000Z</time>
      </trkpt>
      <trkpt lat="47.98424" lon="6.53878">
        <ele>636</ele>
        <time>2018-09-13T07:27:11.000Z</time>
      </trkpt>
      <trkpt lat="47.98425" lon="6.5388">
        <ele>636</ele>
        <time>2018-09-13T07:27:12.000Z</time>
      </trkpt>
      <trkpt lat="47.98425" lon="6.53882">
        <ele>636</ele>
        <time>2018-09-13T07:27:13.000Z</time>
      </trkpt>
      <trkpt lat="47.98426" lon="6.53884">
        <ele>635</ele>
        <time>2018-09-13T07:27:14.000Z</time>
      </trkpt>
      <trkpt lat="47.98427" lon="6.53885">
        <ele>635</ele>
        <time>2018-09-13T07:27:15.000Z</time>
      </trkpt>
      <trkpt lat="47.98428" lon="6.53887">
        <ele>635</ele>
        <time>2018-09-13T07:27:16.000Z</time>
      </trkpt>
      <trkpt lat="47.98429" lon="6.53889">
        <ele>634</ele>
        <time>2018-09-13T07:27:17.000Z</time>
      </trkpt>
      <trkpt lat="47.9843" lon="6.5389">
        <ele>634</ele>
        <time>2018-09-13T07:27:18.000Z</time>
      </trkpt>
      <trkpt lat="47.98432" lon="6.5389">
        <ele>634</ele>
        <time>2018-09-13T07:27:19.000Z</time>
      </trkpt>
      <trkpt lat="47.98433" lon="6.5389">
        <ele>633</ele>
        <time>2018-09-13T07:27:20.000Z</time>
      </trkpt>
      <trkpt lat="47.98435" lon="6.5389">
        <ele>633</ele>
        <time>2018-09-13T07:27:21.000Z</time>
      </trkpt>
      <trkpt lat="47.98436" lon="6.53889">
        <ele>633</ele>
        <time>2018-09-13T07:27:22.000Z</time>
      </trkpt>
      <trkpt lat="47.98438" lon="6.53889">
        <ele>632</ele>
        <time>2018-09-13T07:27:23.000Z</time>
      </trkpt>
      <trkpt lat="47.98439" lon="6.53888">
        <ele>632</ele>
        <time>2018-09-13T07:27:24.000Z</time>
      </trkpt>
      <trkpt lat="47.9844" lon="6.53888">
        <ele>632</ele>
        <time>2018-09-13T07:27:25.000Z</time>
      </trkpt>
      <trkpt lat="47.98441" lon="6.53888">
        <ele>632</ele>
        <time>2018-09-13T07:27:26.000Z</time>
      </trkpt>
      <trkpt lat="47.98441" lon="6.53887">
        <ele>631</ele>
        <time>2018-09-13T07:27:27.000Z</time>
      </trkpt>
      <trkpt lat="47.98441" lon="6.53886">
        <ele>631</ele>
        <time>2018-09-13T07:27:28.000Z</time>
      </trkpt>
      <trkpt lat="47.98441" lon="6.53884">
        <ele>630</ele>
        <time>2018-09-13T07:27:29.000Z</time>
      </trkpt>
      <trkpt lat="47.98441" lon="6.53883">
        <ele>630</ele>
        <time>2018-09-13T07:27:30.000Z</time>
      </trkpt>
      <trkpt lat="47.98441" lon="6.53881">
        <ele>630</ele>
        <time>2018-09-13T07:27:31.000Z</time>
      </trkpt>
      <trkpt lat="47.98441" lon="6.5388">
        <ele>629</ele>
        <time>2018-09-13T07:27:32.000Z</time>
      </trkpt>
      <trkpt lat="47.9844" lon="6.53878">
        <ele>629</ele>
        <time>2018-09-13T07:27:33.000Z</time>
      </trkpt>
      <trkpt lat="47.9844" lon="6.53876">
        <ele>628</ele>
        <time>2018-09-13T07:27:34.000Z</time>
      </trkpt>
      <trkpt lat="47.9844" lon="6.53874">
        <ele>628</ele>
        <time>2018-09-13T07:27:35.000Z</time>
      </trkpt>
      <trkpt lat="47.98441" lon="6.53872">
        <ele>628</ele>
        <time>2018-09-13T07:27:36.000Z</time>
      </trkpt>
      <trkpt lat="47.98441" lon="6.5387">
        <ele>627</ele>
        <time>2018-09-13T07:27:37.000Z</time>
      </trkpt>
      <trkpt lat="47.98441" lon="6.53867">
        <ele>627</ele>
        <time>2018-09-13T07:27:38.000Z</time>
      </trkpt>
      <trkpt lat="47.98442" lon="6.53865">
        <ele>626</ele>
        <time>2018-09-13T07:27:39.000Z</time>
      </trkpt>
      <trkpt lat="47.98442" lon="6.53863">
        <ele>626</ele>
        <time>2018-09-13T07:27:40.000Z</time>
      </trkpt>
      <trkpt lat="47.98443" lon="6.53861">
        <ele>626</ele>
        <time>2018-09-13T07:27:41.000Z</time>
      </trkpt>
      <trkpt lat="47.98444" lon="6.53859">
        <ele>625</ele>
        <time>2018-09-13T07:27:42.000Z</time>
      </trkpt>
      <trkpt lat="47.98444" lon="6.53856">
        <ele>625</ele>
        <time>2018-09-13T07:27:43.000Z</time>
      </trkpt>
      <trkpt lat="47.98445" lon="6.53854">
        <ele>625</ele>
        <time>2018-09-13T07:27:44.000Z</time>
      </trkpt>
      <trkpt lat="47.98446" lon="6.53851">
        <ele>624</ele>
        <time>2018-09-13T07:27:45.000Z</time>
      </trkpt>
      <trkpt lat="47.98447" lon="6.53849">
        <ele>624</ele>
        <time>2018-09-13T07:27:46.000Z</time>
      </trkpt>
      <trkpt lat="47.98448" lon="6.53847">
        <ele>624</ele>
        <time>2018-09-13T07:27:47.000Z</time>
      </trkpt>
      <trkpt lat="47.98449" lon="6.53845">
        <ele>624</ele>
        <time>2018-09-13T07:27:48.000Z</time>
      </trkpt>
      <trkpt lat="47.9845" lon="6.53843">
        <ele>623</ele>
        <time>2018-09-13T07:27:49.000Z</time>
      </trkpt>
      <trkpt lat="47.98451" lon="6.53842">
        <ele>623</ele>
        <time>2018-09-13T07:27:50.000Z</time>
      </trkpt>
      <trkpt lat="47.98452" lon="6.5384">
        <ele>623</ele>
        <time>2018-09-13T07:27:51.000Z</time>
      </trkpt>
      <trkpt lat="47.98454" lon="6.53839">
        <ele>623</ele>
        <time>2018-09-13T07:27:52.000Z</time>
      </trkpt>
      <trkpt lat="47.98455" lon="6.53837">
        <ele>622</ele>
        <time>2018-09-13T07:27:53.000Z</time>
      </trkpt>
      <trkpt lat="47.98456" lon="6.53836">
        <ele>622</ele>
        <time>2018-09-13T07:27:54.000Z</time>
      </trkpt>
      <trkpt lat="47.98457" lon="6.53834">
        <ele>622</ele>
        <time>2018-09-13T07:27:55.000Z</time>
      </trkpt>
      <trkpt lat="47.98458" lon="6.53833">
        <ele>622</ele>
        <time>2018-09-13T07:27:56.000Z</time>
      </trkpt>
      <trkpt lat="47.98459" lon="6.53831">
        <ele>621</ele>
        <time>2018-09-13T07:27:57.000Z</time>
      </trkpt>
      <trkpt lat="47.98461" lon="6.5383">
        <ele>621</ele>
        <time>2018-09-13T07:27:58.000Z</time>
      </trkpt>
      <trkpt lat="47.98462" lon="6.53829">
        <ele>621</ele>
        <time>2018-09-13T07:27:59.000Z</time>
      </trkpt>
      <trkpt lat="47.98463" lon="6.53827">
        <ele>620</ele>
        <time>2018-09-13T07:28:00.000Z</time>
      </trkpt>
      <trkpt lat="47.98464" lon="6.53826">
        <ele>620</ele>
        <time>2018-09-13T07:28:01.000Z</time>
      </trkpt>
      <trkpt lat="47.98465" lon="6.53825">
        <ele>620</ele>
        <time>2018-09-13T07:28:02.000Z</time>
      </trkpt>
      <trkpt lat="47.98466" lon="6.53824">
        <ele>620</ele>
        <time>2018-09-13T07:28:03.000Z</time>
      </trkpt>
      <trkpt lat="47.98467" lon="6.53823">
        <ele>620</ele>
        <time>2018-09-13T07:28:04.000Z</time>
      </trkpt>
      <trkpt lat="47.98468" lon="6.53822">
        <ele>619</ele>
        <time>2018-09-13T07:28:05.000Z</time>
      </trkpt>
      <trkpt lat="47.9847" lon="6.5382">
        <ele>619</ele>
        <time>2018-09-13T07:28:06.000Z</time>
      </trkpt>
      <trkpt lat="47.98471" lon="6.53819">
        <ele>619</ele>
        <time>2018-09-13T07:28:07.000Z</time>
      </trkpt>
      <trkpt lat="47.98472" lon="6.53818">
        <ele>619</ele>
        <time>2018-09-13T07:28:08.000Z</time>
      </trkpt>
      <trkpt lat="47.98474" lon="6.53817">
        <ele>618</ele>
        <time>2018-09-13T07:28:09.000Z</time>
      </trkpt>
      <trkpt lat="47.98475" lon="6.53816">
        <ele>618</ele>
        <time>2018-09-13T07:28:10.000Z</time>
      </trkpt>
      <trkpt lat="47.98477" lon="6.53815">
        <ele>618</ele>
        <time>2018-09-13T07:28:11.000Z</time>
      </trkpt>
      <trkpt lat="47.98478" lon="6.53814">
        <ele>617</ele>
        <time>2018-09-13T07:28:12.000Z</time>
      </trkpt>
      <trkpt lat="47.98479" lon="6.53812">
        <ele>617</ele>
        <time>2018-09-13T07:28:13.000Z</time>
      </trkpt>
      <trkpt lat="47.9848" lon="6.53811">
        <ele>617</ele>
        <time>2018-09-13T07:28:14.000Z</time>
      </trkpt>
      <trkpt lat="47.98482" lon="6.5381">
        <ele>616</ele>
        <time>2018-09-13T07:28:15.000Z</time>
      </trkpt>
      <trkpt lat="47.98483" lon="6.53809">
        <ele>616</ele>
        <time>2018-09-13T07:28:16.000Z</time>
      </trkpt>
      <trkpt lat="47.98485" lon="6.53808">
        <ele>616</ele>
        <time>2018-09-13T07:28:17.000Z</time>
      </trkpt>
      <trkpt lat="47.98486" lon="6.53806">
        <ele>616</ele>
        <time>2018-09-13T07:28:18.000Z</time>
      </trkpt>
      <trkpt lat="47.98487" lon="6.53805">
        <ele>616</ele>
        <time>2018-09-13T07:28:19.000Z</time>
      </trkpt>
      <trkpt lat="47.98489" lon="6.53803">
        <ele>615</ele>
        <time>2018-09-13T07:28:20.000Z</time>
      </trkpt>
      <trkpt lat="47.98491" lon="6.53802">
        <ele>615</ele>
        <time>2018-09-13T07:28:21.000Z</time>
      </trkpt>
      <trkpt lat="47.98492" lon="6.53802">
        <ele>615</ele>
        <time>2018-09-13T07:28:22.000Z</time>
      </trkpt>
      <trkpt lat="47.98494" lon="6.53801">
        <ele>614</ele>
        <time>2018-09-13T07:28:23.000Z</time>
      </trkpt>
      <trkpt lat="47.98495" lon="6.53802">
        <ele>614</ele>
        <time>2018-09-13T07:28:24.000Z</time>
      </trkpt>
      <trkpt lat="47.98496" lon="6.53803">
        <ele>613</ele>
        <time>2018-09-13T07:28:25.000Z</time>
      </trkpt>
      <trkpt lat="47.98498" lon="6.53804">
        <ele>613</ele>
        <time>2018-09-13T07:28:26.000Z</time>
      </trkpt>
      <trkpt lat="47.98499" lon="6.53805">
        <ele>613</ele>
        <time>2018-09-13T07:28:27.000Z</time>
      </trkpt>
      <trkpt lat="47.985" lon="6.53807">
        <ele>613</ele>
        <time>2018-09-13T07:28:28.000Z</time>
      </trkpt>
      <trkpt lat="47.98502" lon="6.53808">
        <ele>612</ele>
        <time>2018-09-13T07:28:29.000Z</time>
      </trkpt>
      <trkpt lat="47.98503" lon="6.5381">
        <ele>612</ele>
        <time>2018-09-13T07:28:30.000Z</time>
      </trkpt>
      <trkpt lat="47.98504" lon="6.53812">
        <ele>612</ele>
        <time>2018-09-13T07:28:31.000Z</time>
      </trkpt>
      <trkpt lat="47.98505" lon="6.53813">
        <ele>612</ele>
        <time>2018-09-13T07:28:32.000Z</time>
      </trkpt>
      <trkpt lat="47.98507" lon="6.53815">
        <ele>611</ele>
        <time>2018-09-13T07:28:33.000Z</time>
      </trkpt>
      <trkpt lat="47.98508" lon="6.53817">
        <ele>611</ele>
        <time>2018-09-13T07:28:34.000Z</time>
      </trkpt>
      <trkpt lat="47.98509" lon="6.53818">
        <ele>611</ele>
        <time>2018-09-13T07:28:35.000Z</time>
      </trkpt>
      <trkpt lat="47.98511" lon="6.5382">
        <ele>610</ele>
        <time>2018-09-13T07:28:36.000Z</time>
      </trkpt>
      <trkpt lat="47.98513" lon="6.53821">
        <ele>610</ele>
        <time>2018-09-13T07:28:37.000Z</time>
      </trkpt>
      <trkpt lat="47.98515" lon="6.53821">
        <ele>610</ele>
        <time>2018-09-13T07:28:38.000Z</time>
      </trkpt>
      <trkpt lat="47.98517" lon="6.53821">
        <ele>610</ele>
        <time>2018-09-13T07:28:39.000Z</time>
      </trkpt>
      <trkpt lat="47.98519" lon="6.53821">
        <ele>609</ele>
        <time>2018-09-13T07:28:40.000Z</time>
      </trkpt>
      <trkpt lat="47.98521" lon="6.53821">
        <ele>609</ele>
        <time>2018-09-13T07:28:41.000Z</time>
      </trkpt>
      <trkpt lat="47.98524" lon="6.53821">
        <ele>609</ele>
        <time>2018-09-13T07:28:42.000Z</time>
      </trkpt>
      <trkpt lat="47.98526" lon="6.53821">
        <ele>609</ele>
        <time>2018-09-13T07:28:43.000Z</time>
      </trkpt>
      <trkpt lat="47.98528" lon="6.53821">
        <ele>609</ele>
        <time>2018-09-13T07:28:44.000Z</time>
      </trkpt>
      <trkpt lat="47.9853" lon="6.53822">
        <ele>608</ele>
        <time>2018-09-13T07:28:45.000Z</time>
      </trkpt>
      <trkpt lat="47.98533" lon="6.53822">
        <ele>608</ele>
        <time>2018-09-13T07:28:46.000Z</time>
      </trkpt>
      <trkpt lat="47.98535" lon="6.53823">
        <ele>607</ele>
        <time>2018-09-13T07:28:47.000Z</time>
      </trkpt>
      <trkpt lat="47.98537" lon="6.53823">
        <ele>607</ele>
        <time>2018-09-13T07:28:48.000Z</time>
      </trkpt>
      <trkpt lat="47.98539" lon="6.53824">
        <ele>607</ele>
        <time>2018-09-13T07:28:49.000Z</time>
      </trkpt>
      <trkpt lat="47.98541" lon="6.53824">
        <ele>607</ele>
        <time>2018-09-13T07:28:50.000Z</time>
      </trkpt>
      <trkpt lat="47.98543" lon="6.53824">
        <ele>606</ele>
        <time>2018-09-13T07:28:51.000Z</time>
      </trkpt>
      <trkpt lat="47.98545" lon="6.53823">
        <ele>606</ele>
        <time>2018-09-13T07:28:52.000Z</time>
      </trkpt>
      <trkpt lat="47.98547" lon="6.53823">
        <ele>606</ele>
        <time>2018-09-13T07:28:53.000Z</time>
      </trkpt>
      <trkpt lat="47.98549" lon="6.53822">
        <ele>605</ele>
        <time>2018-09-13T07:28:54.000Z</time>
      </trkpt>
      <trkpt lat="47.98551" lon="6.53822">
        <ele>605</ele>
        <time>2018-09-13T07:28:55.000Z</time>
      </trkpt>
      <trkpt lat="47.98553" lon="6.53821">
        <ele>605</ele>
        <time>2018-09-13T07:28:56.000Z</time>
      </trkpt>
      <trkpt lat="47.98555" lon="6.5382">
        <ele>605</ele>
        <time>2018-09-13T07:28:57.000Z</time>
      </trkpt>
      <trkpt lat="47.98557" lon="6.53819">
        <ele>604</ele>
        <time>2018-09-13T07:28:58.000Z</time>
      </trkpt>
      <trkpt lat="47.98558" lon="6.53818">
        <ele>604</ele>
        <time>2018-09-13T07:28:59.000Z</time>
      </trkpt>
      <trkpt lat="47.9856" lon="6.53818">
        <ele>604</ele>
        <time>2018-09-13T07:29:00.000Z</time>
      </trkpt>
      <trkpt lat="47.98562" lon="6.53817">
        <ele>604</ele>
        <time>2018-09-13T07:29:01.000Z</time>
      </trkpt>
      <trkpt lat="47.98563" lon="6.53816">
        <ele>604</ele>
        <time>2018-09-13T07:29:02.000Z</time>
      </trkpt>
      <trkpt lat="47.98565" lon="6.53815">
        <ele>603</ele>
        <time>2018-09-13T07:29:03.000Z</time>
      </trkpt>
      <trkpt lat="47.98567" lon="6.53815">
        <ele>603</ele>
        <time>2018-09-13T07:29:04.000Z</time>
      </trkpt>
      <trkpt lat="47.98568" lon="6.53814">
        <ele>603</ele>
        <time>2018-09-13T07:29:05.000Z</time>
      </trkpt>
      <trkpt lat="47.9857" lon="6.53813">
        <ele>603</ele>
        <time>2018-09-13T07:29:06.000Z</time>
      </trkpt>
      <trkpt lat="47.98571" lon="6.53812">
        <ele>603</ele>
        <time>2018-09-13T07:29:07.000Z</time>
      </trkpt>
      <trkpt lat="47.98573" lon="6.53811">
        <ele>602</ele>
        <time>2018-09-13T07:29:08.000Z</time>
      </trkpt>
      <trkpt lat="47.98574" lon="6.5381">
        <ele>602</ele>
        <time>2018-09-13T07:29:09.000Z</time>
      </trkpt>
      <trkpt lat="47.98575" lon="6.5381">
        <ele>602</ele>
        <time>2018-09-13T07:29:10.000Z</time>
      </trkpt>
      <trkpt lat="47.98577" lon="6.53809">
        <ele>602</ele>
        <time>2018-09-13T07:29:11.000Z</time>
      </trkpt>
      <trkpt lat="47.98578" lon="6.53808">
        <ele>602</ele>
        <time>2018-09-13T07:29:12.000Z</time>
      </trkpt>
      <trkpt lat="47.98579" lon="6.53806">
        <ele>602</ele>
        <time>2018-09-13T07:29:13.000Z</time>
      </trkpt>
      <trkpt lat="47.98581" lon="6.53805">
        <ele>601</ele>
        <time>2018-09-13T07:29:14.000Z</time>
      </trkpt>
      <trkpt lat="47.98582" lon="6.53804">
        <ele>601</ele>
        <time>2018-09-13T07:29:15.000Z</time>
      </trkpt>
      <trkpt lat="47.98583" lon="6.53802">
        <ele>601</ele>
        <time>2018-09-13T07:29:16.000Z</time>
      </trkpt>
      <trkpt lat="47.98585" lon="6.538">
        <ele>601</ele>
        <time>2018-09-13T07:29:17.000Z</time>
      </trkpt>
      <trkpt lat="47.98586" lon="6.53799">
        <ele>601</ele>
        <time>2018-09-13T07:29:18.000Z</time>
      </trkpt>
      <trkpt lat="47.98587" lon="6.53797">
        <ele>601</ele>
        <time>2018-09-13T07:29:19.000Z</time>
      </trkpt>
      <trkpt lat="47.98588" lon="6.53795">
        <ele>601</ele>
        <time>2018-09-13T07:29:20.000Z</time>
      </trkpt>
      <trkpt lat="47.9859" lon="6.53794">
        <ele>600</ele>
        <time>2018-09-13T07:29:21.000Z</time>
      </trkpt>
      <trkpt lat="47.98591" lon="6.53793">
        <ele>600</ele>
        <time>2018-09-13T07:29:22.000Z</time>
      </trkpt>
      <trkpt lat="47.98593" lon="6.53792">
        <ele>600</ele>
        <time>2018-09-13T07:29:23.000Z</time>
      </trkpt>
      <trkpt lat="47.98594" lon="6.53792">
        <ele>600</ele>
        <time>2018-09-13T07:29:24.000Z</time>
      </trkpt>
      <trkpt lat="47.98596" lon="6.53792">
        <ele>600</ele>
        <time>2018-09-13T07:29:25.000Z</time>
      </trkpt>
      <trkpt lat="47.98596" lon="6.53792">
        <ele>600</ele>
        <time>2018-09-13T07:29:26.000Z</time>
      </trkpt>
      <trkpt lat="47.98597" lon="6.53792">
        <ele>600</ele>
        <time>2018-09-13T07:29:27.000Z</time>
      </trkpt>
      <trkpt lat="47.98598" lon="6.53793">
        <ele>600</ele>
        <time>2018-09-13T07:29:28.000Z</time>
      </trkpt>
      <trkpt lat="47.98599" lon="6.53794">
        <ele>599</ele>
        <time>2018-09-13T07:29:29.000Z</time>
      </trkpt>
      <trkpt lat="47.986" lon="6.53795">
        <ele>599</ele>
        <time>2018-09-13T07:29:30.000Z</time>
      </trkpt>
      <trkpt lat="47.98602" lon="6.53796">
        <ele>599</ele>
        <time>2018-09-13T07:29:31.000Z</time>
      </trkpt>
      <trkpt lat="47.98603" lon="6.53796">
        <ele>599</ele>
        <time>2018-09-13T07:29:32.000Z</time>
      </trkpt>
      <trkpt lat="47.98605" lon="6.53797">
        <ele>599</ele>
        <time>2018-09-13T07:29:33.000Z</time>
      </trkpt>
      <trkpt lat="47.98607" lon="6.53798">
        <ele>598</ele>
        <time>2018-09-13T07:29:34.000Z</time>
      </trkpt>
      <trkpt lat="47.98608" lon="6.538">
        <ele>598</ele>
        <time>2018-09-13T07:29:35.000Z</time>
      </trkpt>
      <trkpt lat="47.9861" lon="6.53801">
        <ele>598</ele>
        <time>2018-09-13T07:29:36.000Z</time>
      </trkpt>
      <trkpt lat="47.98612" lon="6.53802">
        <ele>598</ele>
        <time>2018-09-13T07:29:37.000Z</time>
      </trkpt>
      <trkpt lat="47.98613" lon="6.53803">
        <ele>597</ele>
        <time>2018-09-13T07:29:38.000Z</time>
      </trkpt>
      <trkpt lat="47.98615" lon="6.53804">
        <ele>597</ele>
        <time>2018-09-13T07:29:39.000Z</time>
      </trkpt>
      <trkpt lat="47.98616" lon="6.53805">
        <ele>597</ele>
        <time>2018-09-13T07:29:40.000Z</time>
      </trkpt>
      <trkpt lat="47.98618" lon="6.53806">
        <ele>597</ele>
        <time>2018-09-13T07:29:41.000Z</time>
      </trkpt>
      <trkpt lat="47.9862" lon="6.53807">
        <ele>597</ele>
        <time>2018-09-13T07:29:42.000Z</time>
      </trkpt>
      <trkpt lat="47.98621" lon="6.53808">
        <ele>597</ele>
        <time>2018-09-13T07:29:43.000Z</time>
      </trkpt>
      <trkpt lat="47.98623" lon="6.53809">
        <ele>596</ele>
        <time>2018-09-13T07:29:44.000Z</time>
      </trkpt>
      <trkpt lat="47.98625" lon="6.5381">
        <ele>596</ele>
        <time>2018-09-13T07:29:45.000Z</time>
      </trkpt>
      <trkpt lat="47.98627" lon="6.53811">
        <ele>596</ele>
        <time>2018-09-13T07:29:46.000Z</time>
      </trkpt>
      <trkpt lat="47.98628" lon="6.53811">
        <ele>596</ele>
        <time>2018-09-13T07:29:47.000Z</time>
      </trkpt>
      <trkpt lat="47.98629" lon="6.53811">
        <ele>596</ele>
        <time>2018-09-13T07:29:48.000Z</time>
      </trkpt>
      <trkpt lat="47.9863" lon="6.53811">
        <ele>595</ele>
        <time>2018-09-13T07:29:49.000Z</time>
      </trkpt>
      <trkpt lat="47.98631" lon="6.5381">
        <ele>595</ele>
        <time>2018-09-13T07:29:50.000Z</time>
      </trkpt>
      <trkpt lat="47.98632" lon="6.53809">
        <ele>595</ele>
        <time>2018-09-13T07:29:51.000Z</time>
      </trkpt>
      <trkpt lat="47.98632" lon="6.53807">
        <ele>595</ele>
        <time>2018-09-13T07:29:52.000Z</time>
      </trkpt>
      <trkpt lat="47.98632" lon="6.53805">
        <ele>594</ele>
        <time>2018-09-13T07:29:53.000Z</time>
      </trkpt>
      <trkpt lat="47.98632" lon="6.53803">
        <ele>594</ele>
        <time>2018-09-13T07:29:54.000Z</time>
      </trkpt>
      <trkpt lat="47.98633" lon="6.53801">
        <ele>594</ele>
        <time>2018-09-13T07:29:55.000Z</time>
      </trkpt>
      <trkpt lat="47.98633" lon="6.53798">
        <ele>594</ele>
        <time>2018-09-13T07:29:56.000Z</time>
      </trkpt>
      <trkpt lat="47.98633" lon="6.53796">
        <ele>594</ele>
        <time>2018-09-13T07:29:57.000Z</time>
      </trkpt>
      <trkpt lat="47.98633" lon="6.53794">
        <ele>594</ele>
        <time>2018-09-13T07:29:58.000Z</time>
      </trkpt>
      <trkpt lat="47.98633" lon="6.53791">
        <ele>594</ele>
        <time>2018-09-13T07:29:59.000Z</time>
      </trkpt>
      <trkpt lat="47.98633" lon="6.53788">
        <ele>594</ele>
        <time>2018-09-13T07:30:00.000Z</time>
      </trkpt>
      <trkpt lat="47.98633" lon="6.53786">
        <ele>594</ele>
        <time>2018-09-13T07:30:01.000Z</time>
      </trkpt>
      <trkpt lat="47.98633" lon="6.53784">
        <ele>594</ele>
        <time>2018-09-13T07:30:02.000Z</time>
      </trkpt>
      <trkpt lat="47.98633" lon="6.53781">
        <ele>594</ele>
        <time>2018-09-13T07:30:03.000Z</time>
      </trkpt>
      <trkpt lat="47.98634" lon="6.53779">
        <ele>594</ele>
        <time>2018-09-13T07:30:04.000Z</time>
      </trkpt>
      <trkpt lat="47.98634" lon="6.53777">
        <ele>594</ele>
        <time>2018-09-13T07:30:05.000Z</time>
      </trkpt>
      <trkpt lat="47.98634" lon="6.53774">
        <ele>594</ele>
        <time>2018-09-13T07:30:06.000Z</time>
      </trkpt>
      <trkpt lat="47.98635" lon="6.53772">
        <ele>594</ele>
        <time>2018-09-13T07:30:07.000Z</time>
      </trkpt>
      <trkpt lat="47.98635" lon="6.53769">
        <ele>594</ele>
        <time>2018-09-13T07:30:08.000Z</time>
      </trkpt>
      <trkpt lat="47.98636" lon="6.53767">
        <ele>594</ele>
        <time>2018-09-13T07:30:09.000Z</time>
      </trkpt>
      <trkpt lat="47.98636" lon="6.53765">
        <ele>593</ele>
        <time>2018-09-13T07:30:10.000Z</time>
      </trkpt>
      <trkpt lat="47.98637" lon="6.53762">
        <ele>593</ele>
        <time>2018-09-13T07:30:11.000Z</time>
      </trkpt>
      <trkpt lat="47.98637" lon="6.5376">
        <ele>593</ele>
        <time>2018-09-13T07:30:12.000Z</time>
      </trkpt>
      <trkpt lat="47.98637" lon="6.53758">
        <ele>593</ele>
        <time>2018-09-13T07:30:13.000Z</time>
      </trkpt>
      <trkpt lat="47.98638" lon="6.53756">
        <ele>593</ele>
        <time>2018-09-13T07:30:14.000Z</time>
      </trkpt>
      <trkpt lat="47.98638" lon="6.53755">
        <ele>593</ele>
        <time>2018-09-13T07:30:15.000Z</time>
      </trkpt>
      <trkpt lat="47.98639" lon="6.53753">
        <ele>593</ele>
        <time>2018-09-13T07:30:16.000Z</time>
      </trkpt>
      <trkpt lat="47.98639" lon="6.53752">
        <ele>593</ele>
        <time>2018-09-13T07:30:17.000Z</time>
      </trkpt>
      <trkpt lat="47.9864" lon="6.5375">
        <ele>593</ele>
        <time>2018-09-13T07:30:18.000Z</time>
      </trkpt>
      <trkpt lat="47.98641" lon="6.53748">
        <ele>593</ele>
        <time>2018-09-13T07:30:19.000Z</time>
      </trkpt>
      <trkpt lat="47.98642" lon="6.53745">
        <ele>593</ele>
        <time>2018-09-13T07:30:20.000Z</time>
      </trkpt>
      <trkpt lat="47.98642" lon="6.53743">
        <ele>593</ele>
        <time>2018-09-13T07:30:21.000Z</time>
      </trkpt>
      <trkpt lat="47.98643" lon="6.53741">
        <ele>592</ele>
        <time>2018-09-13T07:30:22.000Z</time>
      </trkpt>
      <trkpt lat="47.98643" lon="6.53739">
        <ele>592</ele>
        <time>2018-09-13T07:30:23.000Z</time>
      </trkpt>
      <trkpt lat="47.98644" lon="6.53736">
        <ele>592</ele>
        <time>2018-09-13T07:30:24.000Z</time>
      </trkpt>
      <trkpt lat="47.98644" lon="6.53734">
        <ele>592</ele>
        <time>2018-09-13T07:30:25.000Z</time>
      </trkpt>
      <trkpt lat="47.98645" lon="6.53733">
        <ele>592</ele>
        <time>2018-09-13T07:30:26.000Z</time>
      </trkpt>
      <trkpt lat="47.98645" lon="6.53731">
        <ele>592</ele>
        <time>2018-09-13T07:30:27.000Z</time>
      </trkpt>
      <trkpt lat="47.98646" lon="6.53729">
        <ele>592</ele>
        <time>2018-09-13T07:30:28.000Z</time>
      </trkpt>
      <trkpt lat="47.98646" lon="6.53727">
        <ele>592</ele>
        <time>2018-09-13T07:30:29.000Z</time>
      </trkpt>
      <trkpt lat="47.98647" lon="6.53726">
        <ele>592</ele>
        <time>2018-09-13T07:30:30.000Z</time>
      </trkpt>
      <trkpt lat="47.98648" lon="6.53723">
        <ele>591</ele>
        <time>2018-09-13T07:30:31.000Z</time>
      </trkpt>
      <trkpt lat="47.98648" lon="6.53721">
        <ele>591</ele>
        <time>2018-09-13T07:30:32.000Z</time>
      </trkpt>
      <trkpt lat="47.98649" lon="6.53719">
        <ele>591</ele>
        <time>2018-09-13T07:30:33.000Z</time>
      </trkpt>
      <trkpt lat="47.9865" lon="6.53717">
        <ele>591</ele>
        <time>2018-09-13T07:30:34.000Z</time>
      </trkpt>
      <trkpt lat="47.9865" lon="6.53715">
        <ele>591</ele>
        <time>2018-09-13T07:30:35.000Z</time>
      </trkpt>
      <trkpt lat="47.98651" lon="6.53713">
        <ele>591</ele>
        <time>2018-09-13T07:30:36.000Z</time>
      </trkpt>
      <trkpt lat="47.98652" lon="6.53711">
        <ele>591</ele>
        <time>2018-09-13T07:30:37.000Z</time>
      </trkpt>
      <trkpt lat="47.98653" lon="6.53708">
        <ele>591</ele>
        <time>2018-09-13T07:30:38.000Z</time>
      </trkpt>
      <trkpt lat="47.98654" lon="6.53706">
        <ele>590</ele>
        <time>2018-09-13T07:30:39.000Z</time>
      </trkpt>
      <trkpt lat="47.98655" lon="6.53704">
        <ele>590</ele>
        <time>2018-09-13T07:30:40.000Z</time>
      </trkpt>
      <trkpt lat="47.98656" lon="6.53702">
        <ele>590</ele>
        <time>2018-09-13T07:30:41.000Z</time>
      </trkpt>
      <trkpt lat="47.98657" lon="6.537">
        <ele>590</ele>
        <time>2018-09-13T07:30:42.000Z</time>
      </trkpt>
      <trkpt lat="47.98658" lon="6.53698">
        <ele>590</ele>
        <time>2018-09-13T07:30:43.000Z</time>
      </trkpt>
      <trkpt lat="47.98659" lon="6.53696">
        <ele>590</ele>
        <time>2018-09-13T07:30:44.000Z</time>
      </trkpt>
      <trkpt lat="47.9866" lon="6.53693">
        <ele>590</ele>
        <time>2018-09-13T07:30:45.000Z</time>
      </trkpt>
      <trkpt lat="47.98662" lon="6.53691">
        <ele>590</ele>
        <time>2018-09-13T07:30:46.000Z</time>
      </trkpt>
      <trkpt lat="47.98663" lon="6.53689">
        <ele>590</ele>
        <time>2018-09-13T07:30:47.000Z</time>
      </trkpt>
      <trkpt lat="47.98664" lon="6.53687">
        <ele>590</ele>
        <time>2018-09-13T07:30:48.000Z</time>
      </trkpt>
      <trkpt lat="47.98665" lon="6.53685">
        <ele>590</ele>
        <time>2018-09-13T07:30:49.000Z</time>
      </trkpt>
      <trkpt lat="47.98666" lon="6.53683">
        <ele>589</ele>
        <time>2018-09-13T07:30:50.000Z</time>
      </trkpt>
      <trkpt lat="47.98668" lon="6.5368">
        <ele>589</ele>
        <time>2018-09-13T07:30:51.000Z</time>
      </trkpt>
      <trkpt lat="47.98669" lon="6.53678">
        <ele>589</ele>
        <time>2018-09-13T07:30:52.000Z</time>
      </trkpt>
      <trkpt lat="47.98671" lon="6.53676">
        <ele>589</ele>
        <time>2018-09-13T07:30:53.000Z</time>
      </trkpt>
      <trkpt lat="47.98672" lon="6.53673">
        <ele>589</ele>
        <time>2018-09-13T07:30:54.000Z</time>
      </trkpt>
      <trkpt lat="47.98674" lon="6.53671">
        <ele>589</ele>
        <time>2018-09-13T07:30:55.000Z</time>
      </trkpt>
      <trkpt lat="47.98675" lon="6.53669">
        <ele>589</ele>
        <time>2018-09-13T07:30:56.000Z</time>
      </trkpt>
      <trkpt lat="47.98677" lon="6.53666">
        <ele>589</ele>
        <time>2018-09-13T07:30:57.000Z</time>
      </trkpt>
      <trkpt lat="47.98678" lon="6.53664">
        <ele>589</ele>
        <time>2018-09-13T07:30:58.000Z</time>
      </trkpt>
      <trkpt lat="47.9868" lon="6.53661">
        <ele>589</ele>
        <time>2018-09-13T07:30:59.000Z</time>
      </trkpt>
      <trkpt lat="47.98681" lon="6.53659">
        <ele>589</ele>
        <time>2018-09-13T07:31:00.000Z</time>
      </trkpt>
      <trkpt lat="47.98682" lon="6.53656">
        <ele>589</ele>
        <time>2018-09-13T07:31:01.000Z</time>
      </trkpt>
      <trkpt lat="47.98684" lon="6.53654">
        <ele>588</ele>
        <time>2018-09-13T07:31:02.000Z</time>
      </trkpt>
      <trkpt lat="47.98685" lon="6.53652">
        <ele>588</ele>
        <time>2018-09-13T07:31:03.000Z</time>
      </trkpt>
      <trkpt lat="47.98687" lon="6.53649">
        <ele>588</ele>
        <time>2018-09-13T07:31:04.000Z</time>
      </trkpt>
      <trkpt lat="47.98688" lon="6.53647">
        <ele>588</ele>
        <time>2018-09-13T07:31:05.000Z</time>
      </trkpt>
      <trkpt lat="47.98689" lon="6.53645">
        <ele>588</ele>
        <time>2018-09-13T07:31:06.000Z</time>
      </trkpt>
      <trkpt lat="47.98691" lon="6.53643">
        <ele>588</ele>
        <time>2018-09-13T07:31:07.000Z</time>
      </trkpt>
      <trkpt lat="47.98692" lon="6.53641">
        <ele>588</ele>
        <time>2018-09-13T07:31:08.000Z</time>
      </trkpt>
      <trkpt lat="47.98694" lon="6.53639">
        <ele>587</ele>
        <time>2018-09-13T07:31:09.000Z</time>
      </trkpt>
      <trkpt lat="47.98695" lon="6.53637">
        <ele>587</ele>
        <time>2018-09-13T07:31:10.000Z</time>
      </trkpt>
      <trkpt lat="47.98697" lon="6.53635">
        <ele>587</ele>
        <time>2018-09-13T07:31:11.000Z</time>
      </trkpt>
      <trkpt lat="47.98698" lon="6.53634">
        <ele>587</ele>
        <time>2018-09-13T07:31:12.000Z</time>
      </trkpt>
      <trkpt lat="47.98699" lon="6.53632">
        <ele>587</ele>
        <time>2018-09-13T07:31:13.000Z</time>
      </trkpt>
      <trkpt lat="47.987" lon="6.5363">
        <ele>587</ele>
        <time>2018-09-13T07:31:14.000Z</time>
      </trkpt>
      <trkpt lat="47.98702" lon="6.53628">
        <ele>587</ele>
        <time>2018-09-13T07:31:15.000Z</time>
      </trkpt>
      <trkpt lat="47.98703" lon="6.53627">
        <ele>586</ele>
        <time>2018-09-13T07:31:16.000Z</time>
      </trkpt>
      <trkpt lat="47.98704" lon="6.53625">
        <ele>586</ele>
        <time>2018-09-13T07:31:17.000Z</time>
      </trkpt>
      <trkpt lat="47.98705" lon="6.53624">
        <ele>586</ele>
        <time>2018-09-13T07:31:18.000Z</time>
      </trkpt>
      <trkpt lat="47.98706" lon="6.53622">
        <ele>586</ele>
        <time>2018-09-13T07:31:19.000Z</time>
      </trkpt>
      <trkpt lat="47.98706" lon="6.5362">
        <ele>586</ele>
        <time>2018-09-13T07:31:20.000Z</time>
      </trkpt>
      <trkpt lat="47.98707" lon="6.53618">
        <ele>586</ele>
        <time>2018-09-13T07:31:21.000Z</time>
      </trkpt>
      <trkpt lat="47.98708" lon="6.53616">
        <ele>586</ele>
        <time>2018-09-13T07:31:22.000Z</time>
      </trkpt>
      <trkpt lat="47.98709" lon="6.53614">
        <ele>585</ele>
        <time>2018-09-13T07:31:23.000Z</time>
      </trkpt>
      <trkpt lat="47.98709" lon="6.53613">
        <ele>585</ele>
        <time>2018-09-13T07:31:24.000Z</time>
      </trkpt>
      <trkpt lat="47.9871" lon="6.53612">
        <ele>585</ele>
        <time>2018-09-13T07:31:25.000Z</time>
      </trkpt>
      <trkpt lat="47.9871" lon="6.53611">
        <ele>585</ele>
        <time>2018-09-13T07:31:26.000Z</time>
      </trkpt>
      <trkpt lat="47.9871" lon="6.5361">
        <ele>585</ele>
        <time>2018-09-13T07:31:27.000Z</time>
      </trkpt>
      <trkpt lat="47.98711" lon="6.53609">
        <ele>585</ele>
        <time>2018-09-13T07:31:28.000Z</time>
      </trkpt>
      <trkpt lat="47.98711" lon="6.53608">
        <ele>584</ele>
        <time>2018-09-13T07:31:29.000Z</time>
      </trkpt>
      <trkpt lat="47.98711" lon="6.53606">
        <ele>584</ele>
        <time>2018-09-13T07:31:30.000Z</time>
      </trkpt>
      <trkpt lat="47.98712" lon="6.53604">
        <ele>584</ele>
        <time>2018-09-13T07:31:31.000Z</time>
      </trkpt>
      <trkpt lat="47.98712" lon="6.53603">
        <ele>584</ele>
        <time>2018-09-13T07:31:32.000Z</time>
      </trkpt>
      <trkpt lat="47.98712" lon="6.53602">
        <ele>584</ele>
        <time>2018-09-13T07:31:33.000Z</time>
      </trkpt>
      <trkpt lat="47.98713" lon="6.536">
        <ele>584</ele>
        <time>2018-09-13T07:31:34.000Z</time>
      </trkpt>
      <trkpt lat="47.98713" lon="6.53599">
        <ele>584</ele>
        <time>2018-09-13T07:31:35.000Z</time>
      </trkpt>
      <trkpt lat="47.98714" lon="6.53597">
        <ele>584</ele>
        <time>2018-09-13T07:31:36.000Z</time>
      </trkpt>
      <trkpt lat="47.98714" lon="6.53596">
        <ele>584</ele>
        <time>2018-09-13T07:31:37.000Z</time>
      </trkpt>
      <trkpt lat="47.98714" lon="6.53594">
        <ele>584</ele>
        <time>2018-09-13T07:31:38.000Z</time>
      </trkpt>
      <trkpt lat="47.98715" lon="6.53592">
        <ele>584</ele>
        <time>2018-09-13T07:31:39.000Z</time>
      </trkpt>
      <trkpt lat="47.98715" lon="6.53591">
        <ele>584</ele>
        <time>2018-09-13T07:31:40.000Z</time>
      </trkpt>
      <trkpt lat="47.98715" lon="6.53589">
        <ele>583</ele>
        <time>2018-09-13T07:31:41.000Z</time>
      </trkpt>
      <trkpt lat="47.98716" lon="6.53587">
        <ele>583</ele>
        <time>2018-09-13T07:31:42.000Z</time>
      </trkpt>
      <trkpt lat="47.98716" lon="6.53585">
        <ele>583</ele>
        <time>2018-09-13T07:31:43.000Z</time>
      </trkpt>
      <trkpt lat="47.98716" lon="6.53583">
        <ele>583</ele>
        <time>2018-09-13T07:31:44.000Z</time>
      </trkpt>
      <trkpt lat="47.98717" lon="6.53581">
        <ele>583</ele>
        <time>2018-09-13T07:31:45.000Z</time>
      </trkpt>
      <trkpt lat="47.98717" lon="6.5358">
        <ele>583</ele>
        <time>2018-09-13T07:31:46.000Z</time>
      </trkpt>
      <trkpt lat="47.98718" lon="6.53578">
        <ele>583</ele>
        <time>2018-09-13T07:31:47.000Z</time>
      </trkpt>
      <trkpt lat="47.98718" lon="6.53576">
        <ele>582</ele>
        <time>2018-09-13T07:31:48.000Z</time>
      </trkpt>
      <trkpt lat="47.98719" lon="6.53574">
        <ele>582</ele>
        <time>2018-09-13T07:31:49.000Z</time>
      </trkpt>
      <trkpt lat="47.98719" lon="6.53572">
        <ele>582</ele>
        <time>2018-09-13T07:31:50.000Z</time>
      </trkpt>
      <trkpt lat="47.9872" lon="6.53569">
        <ele>582</ele>
        <time>2018-09-13T07:31:51.000Z</time>
      </trkpt>
      <trkpt lat="47.98721" lon="6.53567">
        <ele>582</ele>
        <time>2018-09-13T07:31:52.000Z</time>
      </trkpt>
      <trkpt lat="47.98722" lon="6.53564">
        <ele>581</ele>
        <time>2018-09-13T07:31:53.000Z</time>
      </trkpt>
      <trkpt lat="47.98723" lon="6.53562">
        <ele>581</ele>
        <time>2018-09-13T07:31:54.000Z</time>
      </trkpt>
      <trkpt lat="47.98723" lon="6.53559">
        <ele>581</ele>
        <time>2018-09-13T07:31:55.000Z</time>
      </trkpt>
      <trkpt lat="47.98725" lon="6.53556">
        <ele>581</ele>
        <time>2018-09-13T07:31:56.000Z</time>
      </trkpt>
      <trkpt lat="47.98726" lon="6.53553">
        <ele>581</ele>
        <time>2018-09-13T07:31:57.000Z</time>
      </trkpt>
      <trkpt lat="47.98727" lon="6.53551">
        <ele>581</ele>
        <time>2018-09-13T07:31:58.000Z</time>
      </trkpt>
      <trkpt lat="47.98728" lon="6.53548">
        <ele>581</ele>
        <time>2018-09-13T07:31:59.000Z</time>
      </trkpt>
      <trkpt lat="47.98729" lon="6.53546">
        <ele>580</ele>
        <time>2018-09-13T07:32:00.000Z</time>
      </trkpt>
      <trkpt lat="47.9873" lon="6.53544">
        <ele>580</ele>
        <time>2018-09-13T07:32:01.000Z</time>
      </trkpt>
      <trkpt lat="47.98731" lon="6.53542">
        <ele>580</ele>
        <time>2018-09-13T07:32:02.000Z</time>
      </trkpt>
      <trkpt lat="47.98732" lon="6.53541">
        <ele>580</ele>
        <time>2018-09-13T07:32:03.000Z</time>
      </trkpt>
      <trkpt lat="47.98733" lon="6.53539">
        <ele>580</ele>
        <time>2018-09-13T07:32:04.000Z</time>
      </trkpt>
      <trkpt lat="47.98734" lon="6.53538">
        <ele>580</ele>
        <time>2018-09-13T07:32:05.000Z</time>
      </trkpt>
      <trkpt lat="47.98736" lon="6.53536">
        <ele>580</ele>
        <time>2018-09-13T07:32:06.000Z</time>
      </trkpt>
      <trkpt lat="47.98737" lon="6.53534">
        <ele>580</ele>
        <time>2018-09-13T07:32:07.000Z</time>
      </trkpt>
      <trkpt lat="47.98739" lon="6.53533">
        <ele>579</ele>
        <time>2018-09-13T07:32:08.000Z</time>
      </trkpt>
      <trkpt lat="47.9874" lon="6.53532">
        <ele>579</ele>
        <time>2018-09-13T07:32:09.000Z</time>
      </trkpt>
      <trkpt lat="47.98742" lon="6.5353">
        <ele>579</ele>
        <time>2018-09-13T07:32:10.000Z</time>
      </trkpt>
      <trkpt lat="47.98744" lon="6.53529">
        <ele>579</ele>
        <time>2018-09-13T07:32:11.000Z</time>
      </trkpt>
      <trkpt lat="47.98745" lon="6.53527">
        <ele>579</ele>
        <time>2018-09-13T07:32:12.000Z</time>
      </trkpt>
      <trkpt lat="47.98747" lon="6.53526">
        <ele>579</ele>
        <time>2018-09-13T07:32:13.000Z</time>
      </trkpt>
      <trkpt lat="47.98749" lon="6.53524">
        <ele>578</ele>
        <time>2018-09-13T07:32:14.000Z</time>
      </trkpt>
      <trkpt lat="47.9875" lon="6.53523">
        <ele>578</ele>
        <time>2018-09-13T07:32:15.000Z</time>
      </trkpt>
      <trkpt lat="47.98752" lon="6.53521">
        <ele>578</ele>
        <time>2018-09-13T07:32:16.000Z</time>
      </trkpt>
      <trkpt lat="47.98753" lon="6.5352">
        <ele>578</ele>
        <time>2018-09-13T07:32:17.000Z</time>
      </trkpt>
      <trkpt lat="47.98755" lon="6.53519">
        <ele>578</ele>
        <time>2018-09-13T07:32:18.000Z</time>
      </trkpt>
      <trkpt lat="47.98756" lon="6.53517">
        <ele>578</ele>
        <time>2018-09-13T07:32:19.000Z</time>
      </trkpt>
      <trkpt lat="47.98757" lon="6.53516">
        <ele>577</ele>
        <time>2018-09-13T07:32:20.000Z</time>
      </trkpt>
      <trkpt lat="47.98759" lon="6.53515">
        <ele>577</ele>
        <time>2018-09-13T07:32:21.000Z</time>
      </trkpt>
      <trkpt lat="47.9876" lon="6.53513">
        <ele>577</ele>
        <time>2018-09-13T07:32:22.000Z</time>
      </trkpt>
      <trkpt lat="47.98762" lon="6.53512">
        <ele>577</ele>
        <time>2018-09-13T07:32:23.000Z</time>
      </trkpt>
      <trkpt lat="47.98765" lon="6.53511">
        <ele>577</ele>
        <time>2018-09-13T07:32:24.000Z</time>
      </trkpt>
      <trkpt lat="47.98767" lon="6.5351">
        <ele>577</ele>
        <time>2018-09-13T07:32:25.000Z</time>
      </trkpt>
      <trkpt lat="47.98769" lon="6.53509">
        <ele>577</ele>
        <time>2018-09-13T07:32:26.000Z</time>
      </trkpt>
      <trkpt lat="47.98771" lon="6.53508">
        <ele>577</ele>
        <time>2018-09-13T07:32:27.000Z</time>
      </trkpt>
      <trkpt lat="47.98773" lon="6.53506">
        <ele>577</ele>
        <time>2018-09-13T07:32:28.000Z</time>
      </trkpt>
      <trkpt lat="47.98775" lon="6.53505">
        <ele>577</ele>
        <time>2018-09-13T07:32:29.000Z</time>
      </trkpt>
      <trkpt lat="47.98777" lon="6.53504">
        <ele>576</ele>
        <time>2018-09-13T07:32:30.000Z</time>
      </trkpt>
      <trkpt lat="47.98778" lon="6.53503">
        <ele>576</ele>
        <time>2018-09-13T07:32:31.000Z</time>
      </trkpt>
      <trkpt lat="47.98779" lon="6.53502">
        <ele>576</ele>
        <time>2018-09-13T07:32:32.000Z</time>
      </trkpt>
      <trkpt lat="47.98781" lon="6.53501">
        <ele>576</ele>
        <time>2018-09-13T07:32:33.000Z</time>
      </trkpt>
      <trkpt lat="47.98782" lon="6.535">
        <ele>576</ele>
        <time>2018-09-13T07:32:34.000Z</time>
      </trkpt>
      <trkpt lat="47.98783" lon="6.53499">
        <ele>576</ele>
        <time>2018-09-13T07:32:35.000Z</time>
      </trkpt>
      <trkpt lat="47.98784" lon="6.53498">
        <ele>576</ele>
        <time>2018-09-13T07:32:36.000Z</time>
      </trkpt>
      <trkpt lat="47.98786" lon="6.53496">
        <ele>575</ele>
        <time>2018-09-13T07:32:37.000Z</time>
      </trkpt>
      <trkpt lat="47.98787" lon="6.53495">
        <ele>575</ele>
        <time>2018-09-13T07:32:38.000Z</time>
      </trkpt>
      <trkpt lat="47.98789" lon="6.53494">
        <ele>575</ele>
        <time>2018-09-13T07:32:39.000Z</time>
      </trkpt>
      <trkpt lat="47.98791" lon="6.53493">
        <ele>575</ele>
        <time>2018-09-13T07:32:40.000Z</time>
      </trkpt>
      <trkpt lat="47.98792" lon="6.53491">
        <ele>575</ele>
        <time>2018-09-13T07:32:41.000Z</time>
      </trkpt>
      <trkpt lat="47.98794" lon="6.5349">
        <ele>575</ele>
        <time>2018-09-13T07:32:42.000Z</time>
      </trkpt>
      <trkpt lat="47.98796" lon="6.53489">
        <ele>575</ele>
        <time>2018-09-13T07:32:43.000Z</time>
      </trkpt>
      <trkpt lat="47.98798" lon="6.53488">
        <ele>575</ele>
        <time>2018-09-13T07:32:44.000Z</time>
      </trkpt>
      <trkpt lat="47.988" lon="6.53487">
        <ele>575</ele>
        <time>2018-09-13T07:32:45.000Z</time>
      </trkpt>
      <trkpt lat="47.98802" lon="6.53486">
        <ele>575</ele>
        <time>2018-09-13T07:32:46.000Z</time>
      </trkpt>
      <trkpt lat="47.98804" lon="6.53485">
        <ele>575</ele>
        <time>2018-09-13T07:32:47.000Z</time>
      </trkpt>
      <trkpt lat="47.98806" lon="6.53483">
        <ele>575</ele>
        <time>2018-09-13T07:32:48.000Z</time>
      </trkpt>
      <trkpt lat="47.98807" lon="6.53482">
        <ele>575</ele>
        <time>2018-09-13T07:32:49.000Z</time>
      </trkpt>
      <trkpt lat="47.98809" lon="6.5348">
        <ele>575</ele>
        <time>2018-09-13T07:32:50.000Z</time>
      </trkpt>
      <trkpt lat="47.9881" lon="6.53478">
        <ele>575</ele>
        <time>2018-09-13T07:32:51.000Z</time>
      </trkpt>
      <trkpt lat="47.98812" lon="6.53476">
        <ele>575</ele>
        <time>2018-09-13T07:32:52.000Z</time>
      </trkpt>
      <trkpt lat="47.98814" lon="6.53474">
        <ele>575</ele>
        <time>2018-09-13T07:32:53.000Z</time>
      </trkpt>
      <trkpt lat="47.98815" lon="6.53472">
        <ele>575</ele>
        <time>2018-09-13T07:32:54.000Z</time>
      </trkpt>
      <trkpt lat="47.98816" lon="6.53469">
        <ele>575</ele>
        <time>2018-09-13T07:32:55.000Z</time>
      </trkpt>
      <trkpt lat="47.98817" lon="6.53467">
        <ele>574</ele>
        <time>2018-09-13T07:32:56.000Z</time>
      </trkpt>
      <trkpt lat="47.98817" lon="6.53465">
        <ele>574</ele>
        <time>2018-09-13T07:32:57.000Z</time>
      </trkpt>
      <trkpt lat="47.98818" lon="6.53463">
        <ele>574</ele>
        <time>2018-09-13T07:32:58.000Z</time>
      </trkpt>
      <trkpt lat="47.98818" lon="6.53461">
        <ele>574</ele>
        <time>2018-09-13T07:32:59.000Z</time>
      </trkpt>
      <trkpt lat="47.98819" lon="6.53459">
        <ele>574</ele>
        <time>2018-09-13T07:33:00.000Z</time>
      </trkpt>
      <trkpt lat="47.98819" lon="6.53457">
        <ele>574</ele>
        <time>2018-09-13T07:33:01.000Z</time>
      </trkpt>
      <trkpt lat="47.9882" lon="6.53454">
        <ele>574</ele>
        <time>2018-09-13T07:33:02.000Z</time>
      </trkpt>
      <trkpt lat="47.9882" lon="6.53452">
        <ele>574</ele>
        <time>2018-09-13T07:33:03.000Z</time>
      </trkpt>
      <trkpt lat="47.9882" lon="6.53449">
        <ele>574</ele>
        <time>2018-09-13T07:33:04.000Z</time>
      </trkpt>
      <trkpt lat="47.98821" lon="6.53447">
        <ele>574</ele>
        <time>2018-09-13T07:33:05.000Z</time>
      </trkpt>
      <trkpt lat="47.98821" lon="6.53444">
        <ele>574</ele>
        <time>2018-09-13T07:33:06.000Z</time>
      </trkpt>
      <trkpt lat="47.98821" lon="6.53442">
        <ele>574</ele>
        <time>2018-09-13T07:33:07.000Z</time>
      </trkpt>
      <trkpt lat="47.98822" lon="6.5344">
        <ele>574</ele>
        <time>2018-09-13T07:33:08.000Z</time>
      </trkpt>
      <trkpt lat="47.98822" lon="6.53437">
        <ele>574</ele>
        <time>2018-09-13T07:33:09.000Z</time>
      </trkpt>
      <trkpt lat="47.98823" lon="6.53434">
        <ele>574</ele>
        <time>2018-09-13T07:33:10.000Z</time>
      </trkpt>
      <trkpt lat="47.98823" lon="6.53432">
        <ele>573</ele>
        <time>2018-09-13T07:33:11.000Z</time>
      </trkpt>
      <trkpt lat="47.98824" lon="6.5343">
        <ele>573</ele>
        <time>2018-09-13T07:33:12.000Z</time>
      </trkpt>
      <trkpt lat="47.98824" lon="6.53427">
        <ele>573</ele>
        <time>2018-09-13T07:33:13.000Z</time>
      </trkpt>
      <trkpt lat="47.98824" lon="6.53425">
        <ele>573</ele>
        <time>2018-09-13T07:33:14.000Z</time>
      </trkpt>
      <trkpt lat="47.98825" lon="6.53422">
        <ele>573</ele>
        <time>2018-09-13T07:33:15.000Z</time>
      </trkpt>
      <trkpt lat="47.98826" lon="6.5342">
        <ele>573</ele>
        <time>2018-09-13T07:33:16.000Z</time>
      </trkpt>
      <trkpt lat="47.98827" lon="6.53417">
        <ele>573</ele>
        <time>2018-09-13T07:33:17.000Z</time>
      </trkpt>
      <trkpt lat="47.98827" lon="6.53414">
        <ele>572</ele>
        <time>2018-09-13T07:33:18.000Z</time>
      </trkpt>
      <trkpt lat="47.98828" lon="6.53412">
        <ele>572</ele>
        <time>2018-09-13T07:33:19.000Z</time>
      </trkpt>
      <trkpt lat="47.98829" lon="6.53411">
        <ele>572</ele>
        <time>2018-09-13T07:33:20.000Z</time>
      </trkpt>
      <trkpt lat="47.9883" lon="6.53409">
        <ele>572</ele>
        <time>2018-09-13T07:33:21.000Z</time>
      </trkpt>
      <trkpt lat="47.98831" lon="6.53407">
        <ele>572</ele>
        <time>2018-09-13T07:33:22.000Z</time>
      </trkpt>
      <trkpt lat="47.98832" lon="6.53406">
        <ele>572</ele>
        <time>2018-09-13T07:33:23.000Z</time>
      </trkpt>
      <trkpt lat="47.98833" lon="6.53404">
        <ele>572</ele>
        <time>2018-09-13T07:33:24.000Z</time>
      </trkpt>
      <trkpt lat="47.98834" lon="6.53403">
        <ele>572</ele>
        <time>2018-09-13T07:33:25.000Z</time>
      </trkpt>
      <trkpt lat="47.98835" lon="6.53401">
        <ele>572</ele>
        <time>2018-09-13T07:33:26.000Z</time>
      </trkpt>
      <trkpt lat="47.98836" lon="6.53399">
        <ele>572</ele>
        <time>2018-09-13T07:33:27.000Z</time>
      </trkpt>
      <trkpt lat="47.98837" lon="6.53397">
        <ele>572</ele>
        <time>2018-09-13T07:33:28.000Z</time>
      </trkpt>
      <trkpt lat="47.98838" lon="6.53395">
        <ele>572</ele>
        <time>2018-09-13T07:33:29.000Z</time>
      </trkpt>
      <trkpt lat="47.98839" lon="6.53393">
        <ele>572</ele>
        <time>2018-09-13T07:33:30.000Z</time>
      </trkpt>
      <trkpt lat="47.9884" lon="6.53391">
        <ele>572</ele>
        <time>2018-09-13T07:33:31.000Z</time>
      </trkpt>
      <trkpt lat="47.98841" lon="6.53389">
        <ele>572</ele>
        <time>2018-09-13T07:33:32.000Z</time>
      </trkpt>
      <trkpt lat="47.98842" lon="6.53387">
        <ele>572</ele>
        <time>2018-09-13T07:33:33.000Z</time>
      </trkpt>
      <trkpt lat="47.98842" lon="6.53385">
        <ele>572</ele>
        <time>2018-09-13T07:33:34.000Z</time>
      </trkpt>
      <trkpt lat="47.98843" lon="6.53384">
        <ele>572</ele>
        <time>2018-09-13T07:33:35.000Z</time>
      </trkpt>
      <trkpt lat="47.98844" lon="6.53382">
        <ele>572</ele>
        <time>2018-09-13T07:33:36.000Z</time>
      </trkpt>
      <trkpt lat="47.98845" lon="6.5338">
        <ele>572</ele>
        <time>2018-09-13T07:33:37.000Z</time>
      </trkpt>
      <trkpt lat="47.98846" lon="6.53378">
        <ele>572</ele>
        <time>2018-09-13T07:33:38.000Z</time>
      </trkpt>
      <trkpt lat="47.98848" lon="6.53376">
        <ele>572</ele>
        <time>2018-09-13T07:33:39.000Z</time>
      </trkpt>
      <trkpt lat="47.98849" lon="6.53375">
        <ele>572</ele>
        <time>2018-09-13T07:33:40.000Z</time>
      </trkpt>
      <trkpt lat="47.9885" lon="6.53373">
        <ele>572</ele>
        <time>2018-09-13T07:33:41.000Z</time>
      </trkpt>
      <trkpt lat="47.98851" lon="6.53371">
        <ele>572</ele>
        <time>2018-09-13T07:33:42.000Z</time>
      </trkpt>
      <trkpt lat="47.98853" lon="6.53369">
        <ele>572</ele>
        <time>2018-09-13T07:33:43.000Z</time>
      </trkpt>
      <trkpt lat="47.98854" lon="6.53368">
        <ele>572</ele>
        <time>2018-09-13T07:33:44.000Z</time>
      </trkpt>
      <trkpt lat="47.98856" lon="6.53366">
        <ele>572</ele>
        <time>2018-09-13T07:33:45.000Z</time>
      </trkpt>
      <trkpt lat="47.98857" lon="6.53364">
        <ele>572</ele>
        <time>2018-09-13T07:33:46.000Z</time>
      </trkpt>
      <trkpt lat="47.98858" lon="6.53362">
        <ele>572</ele>
        <time>2018-09-13T07:33:47.000Z</time>
      </trkpt>
      <trkpt lat="47.98859" lon="6.5336">
        <ele>572</ele>
        <time>2018-09-13T07:33:48.000Z</time>
      </trkpt>
      <trkpt lat="47.9886" lon="6.53358">
        <ele>572</ele>
        <time>2018-09-13T07:33:49.000Z</time>
      </trkpt>
      <trkpt lat="47.98861" lon="6.53356">
        <ele>572</ele>
        <time>2018-09-13T07:33:50.000Z</time>
      </trkpt>
      <trkpt lat="47.98861" lon="6.53353">
        <ele>572</ele>
        <time>2018-09-13T07:33:51.000Z</time>
      </trkpt>
      <trkpt lat="47.98862" lon="6.5335">
        <ele>572</ele>
        <time>2018-09-13T07:33:52.000Z</time>
      </trkpt>
      <trkpt lat="47.98863" lon="6.53347">
        <ele>572</ele>
        <time>2018-09-13T07:33:53.000Z</time>
      </trkpt>
      <trkpt lat="47.98864" lon="6.53344">
        <ele>572</ele>
        <time>2018-09-13T07:33:54.000Z</time>
      </trkpt>
      <trkpt lat="47.98864" lon="6.53341">
        <ele>572</ele>
        <time>2018-09-13T07:33:55.000Z</time>
      </trkpt>
      <trkpt lat="47.98865" lon="6.53339">
        <ele>571</ele>
        <time>2018-09-13T07:33:56.000Z</time>
      </trkpt>
      <trkpt lat="47.98866" lon="6.53336">
        <ele>571</ele>
        <time>2018-09-13T07:33:57.000Z</time>
      </trkpt>
      <trkpt lat="47.98868" lon="6.53334">
        <ele>571</ele>
        <time>2018-09-13T07:33:58.000Z</time>
      </trkpt>
      <trkpt lat="47.98869" lon="6.53332">
        <ele>571</ele>
        <time>2018-09-13T07:33:59.000Z</time>
      </trkpt>
      <trkpt lat="47.9887" lon="6.5333">
        <ele>571</ele>
        <time>2018-09-13T07:34:00.000Z</time>
      </trkpt>
      <trkpt lat="47.98871" lon="6.53327">
        <ele>570</ele>
        <time>2018-09-13T07:34:01.000Z</time>
      </trkpt>
      <trkpt lat="47.98872" lon="6.53325">
        <ele>570</ele>
        <time>2018-09-13T07:34:02.000Z</time>
      </trkpt>
      <trkpt lat="47.98873" lon="6.53323">
        <ele>570</ele>
        <time>2018-09-13T07:34:03.000Z</time>
      </trkpt>
      <trkpt lat="47.98874" lon="6.53321">
        <ele>570</ele>
        <time>2018-09-13T07:34:04.000Z</time>
      </trkpt>
      <trkpt lat="47.98875" lon="6.5332">
        <ele>570</ele>
        <time>2018-09-13T07:34:05.000Z</time>
      </trkpt>
      <trkpt lat="47.98877" lon="6.53319">
        <ele>569</ele>
        <time>2018-09-13T07:34:06.000Z</time>
      </trkpt>
      <trkpt lat="47.98878" lon="6.53317">
        <ele>569</ele>
        <time>2018-09-13T07:34:07.000Z</time>
      </trkpt>
      <trkpt lat="47.98879" lon="6.53316">
        <ele>569</ele>
        <time>2018-09-13T07:34:08.000Z</time>
      </trkpt>
      <trkpt lat="47.9888" lon="6.53315">
        <ele>569</ele>
        <time>2018-09-13T07:34:09.000Z</time>
      </trkpt>
      <trkpt lat="47.98881" lon="6.53314">
        <ele>569</ele>
        <time>2018-09-13T07:34:10.000Z</time>
      </trkpt>
      <trkpt lat="47.98883" lon="6.53313">
        <ele>569</ele>
        <time>2018-09-13T07:34:11.000Z</time>
      </trkpt>
      <trkpt lat="47.98884" lon="6.53313">
        <ele>568</ele>
        <time>2018-09-13T07:34:12.000Z</time>
      </trkpt>
      <trkpt lat="47.98886" lon="6.53313">
        <ele>568</ele>
        <time>2018-09-13T07:34:13.000Z</time>
      </trkpt>
      <trkpt lat="47.98888" lon="6.53313">
        <ele>568</ele>
        <time>2018-09-13T07:34:14.000Z</time>
      </trkpt>
      <trkpt lat="47.9889" lon="6.53313">
        <ele>568</ele>
        <time>2018-09-13T07:34:15.000Z</time>
      </trkpt>
      <trkpt lat="47.98892" lon="6.53314">
        <ele>568</ele>
        <time>2018-09-13T07:34:16.000Z</time>
      </trkpt>
      <trkpt lat="47.98894" lon="6.53314">
        <ele>568</ele>
        <time>2018-09-13T07:34:17.000Z</time>
      </trkpt>
      <trkpt lat="47.98896" lon="6.53315">
        <ele>567</ele>
        <time>2018-09-13T07:34:18.000Z</time>
      </trkpt>
      <trkpt lat="47.98898" lon="6.53316">
        <ele>567</ele>
        <time>2018-09-13T07:34:19.000Z</time>
      </trkpt>
      <trkpt lat="47.989" lon="6.53316">
        <ele>567</ele>
        <time>2018-09-13T07:34:20.000Z</time>
      </trkpt>
      <trkpt lat="47.98902" lon="6.53317">
        <ele>567</ele>
        <time>2018-09-13T07:34:21.000Z</time>
      </trkpt>
      <trkpt lat="47.98903" lon="6.53318">
        <ele>567</ele>
        <time>2018-09-13T07:34:22.000Z</time>
      </trkpt>
      <trkpt lat="47.98905" lon="6.53319">
        <ele>567</ele>
        <time>2018-09-13T07:34:23.000Z</time>
      </trkpt>
      <trkpt lat="47.98907" lon="6.53321">
        <ele>567</ele>
        <time>2018-09-13T07:34:24.000Z</time>
      </trkpt>
      <trkpt lat="47.98909" lon="6.53322">
        <ele>567</ele>
        <time>2018-09-13T07:34:25.000Z</time>
      </trkpt>
      <trkpt lat="47.9891" lon="6.53324">
        <ele>567</ele>
        <time>2018-09-13T07:34:26.000Z</time>
      </trkpt>
      <trkpt lat="47.98912" lon="6.53325">
        <ele>566</ele>
        <time>2018-09-13T07:34:27.000Z</time>
      </trkpt>
      <trkpt lat="47.98914" lon="6.53326">
        <ele>566</ele>
        <time>2018-09-13T07:34:28.000Z</time>
      </trkpt>
      <trkpt lat="47.98915" lon="6.53327">
        <ele>566</ele>
        <time>2018-09-13T07:34:29.000Z</time>
      </trkpt>
      <trkpt lat="47.98916" lon="6.53328">
        <ele>566</ele>
        <time>2018-09-13T07:34:30.000Z</time>
      </trkpt>
      <trkpt lat="47.98918" lon="6.53329">
        <ele>566</ele>
        <time>2018-09-13T07:34:31.000Z</time>
      </trkpt>
      <trkpt lat="47.98919" lon="6.5333">
        <ele>566</ele>
        <time>2018-09-13T07:34:32.000Z</time>
      </trkpt>
      <trkpt lat="47.98921" lon="6.53331">
        <ele>566</ele>
        <time>2018-09-13T07:34:33.000Z</time>
      </trkpt>
      <trkpt lat="47.98922" lon="6.53332">
        <ele>566</ele>
        <time>2018-09-13T07:34:34.000Z</time>
      </trkpt>
      <trkpt lat="47.98923" lon="6.53333">
        <ele>566</ele>
        <time>2018-09-13T07:34:35.000Z</time>
      </trkpt>
      <trkpt lat="47.98925" lon="6.53334">
        <ele>566</ele>
        <time>2018-09-13T07:34:36.000Z</time>
      </trkpt>
      <trkpt lat="47.98926" lon="6.53335">
        <ele>566</ele>
        <time>2018-09-13T07:34:37.000Z</time>
      </trkpt>
      <trkpt lat="47.98928" lon="6.53337">
        <ele>566</ele>
        <time>2018-09-13T07:34:38.000Z</time>
      </trkpt>
      <trkpt lat="47.98929" lon="6.53338">
        <ele>566</ele>
        <time>2018-09-13T07:34:39.000Z</time>
      </trkpt>
      <trkpt lat="47.98931" lon="6.53339">
        <ele>566</ele>
        <time>2018-09-13T07:34:40.000Z</time>
      </trkpt>
      <trkpt lat="47.98932" lon="6.53339">
        <ele>566</ele>
        <time>2018-09-13T07:34:41.000Z</time>
      </trkpt>
      <trkpt lat="47.98933" lon="6.5334">
        <ele>566</ele>
        <time>2018-09-13T07:34:42.000Z</time>
      </trkpt>
      <trkpt lat="47.98934" lon="6.53341">
        <ele>566</ele>
        <time>2018-09-13T07:34:43.000Z</time>
      </trkpt>
      <trkpt lat="47.98936" lon="6.53343">
        <ele>566</ele>
        <time>2018-09-13T07:34:44.000Z</time>
      </trkpt>
      <trkpt lat="47.98937" lon="6.53344">
        <ele>566</ele>
        <time>2018-09-13T07:34:45.000Z</time>
      </trkpt>
      <trkpt lat="47.98938" lon="6.53345">
        <ele>566</ele>
        <time>2018-09-13T07:34:46.000Z</time>
      </trkpt>
      <trkpt lat="47.9894" lon="6.53347">
        <ele>566</ele>
        <time>2018-09-13T07:34:47.000Z</time>
      </trkpt>
      <trkpt lat="47.98941" lon="6.53348">
        <ele>566</ele>
        <time>2018-09-13T07:34:48.000Z</time>
      </trkpt>
      <trkpt lat="47.98943" lon="6.5335">
        <ele>566</ele>
        <time>2018-09-13T07:34:49.000Z</time>
      </trkpt>
      <trkpt lat="47.98944" lon="6.53351">
        <ele>566</ele>
        <time>2018-09-13T07:34:50.000Z</time>
      </trkpt>
      <trkpt lat="47.98946" lon="6.53353">
        <ele>566</ele>
        <time>2018-09-13T07:34:51.000Z</time>
      </trkpt>
      <trkpt lat="47.98948" lon="6.53355">
        <ele>566</ele>
        <time>2018-09-13T07:34:52.000Z</time>
      </trkpt>
      <trkpt lat="47.98949" lon="6.53356">
        <ele>566</ele>
        <time>2018-09-13T07:34:53.000Z</time>
      </trkpt>
      <trkpt lat="47.98951" lon="6.53358">
        <ele>566</ele>
        <time>2018-09-13T07:34:54.000Z</time>
      </trkpt>
      <trkpt lat="47.98952" lon="6.53359">
        <ele>566</ele>
        <time>2018-09-13T07:34:55.000Z</time>
      </trkpt>
      <trkpt lat="47.98953" lon="6.53361">
        <ele>566</ele>
        <time>2018-09-13T07:34:56.000Z</time>
      </trkpt>
      <trkpt lat="47.98955" lon="6.53362">
        <ele>566</ele>
        <time>2018-09-13T07:34:57.000Z</time>
      </trkpt>
      <trkpt lat="47.98956" lon="6.53363">
        <ele>566</ele>
        <time>2018-09-13T07:34:58.000Z</time>
      </trkpt>
      <trkpt lat="47.98958" lon="6.53365">
        <ele>566</ele>
        <time>2018-09-13T07:34:59.000Z</time>
      </trkpt>
      <trkpt lat="47.9896" lon="6.53366">
        <ele>566</ele>
        <time>2018-09-13T07:35:00.000Z</time>
      </trkpt>
      <trkpt lat="47.98961" lon="6.53368">
        <ele>566</ele>
        <time>2018-09-13T07:35:01.000Z</time>
      </trkpt>
      <trkpt lat="47.98962" lon="6.5337">
        <ele>566</ele>
        <time>2018-09-13T07:35:02.000Z</time>
      </trkpt>
      <trkpt lat="47.98963" lon="6.53372">
        <ele>566</ele>
        <time>2018-09-13T07:35:03.000Z</time>
      </trkpt>
      <trkpt lat="47.98965" lon="6.53374">
        <ele>566</ele>
        <time>2018-09-13T07:35:04.000Z</time>
      </trkpt>
      <trkpt lat="47.98966" lon="6.53377">
        <ele>566</ele>
        <time>2018-09-13T07:35:05.000Z</time>
      </trkpt>
      <trkpt lat="47.98967" lon="6.5338">
        <ele>566</ele>
        <time>2018-09-13T07:35:06.000Z</time>
      </trkpt>
      <trkpt lat="47.98969" lon="6.53384">
        <ele>565</ele>
        <time>2018-09-13T07:35:07.000Z</time>
      </trkpt>
      <trkpt lat="47.9897" lon="6.53389">
        <ele>565</ele>
        <time>2018-09-13T07:35:08.000Z</time>
      </trkpt>
      <trkpt lat="47.98972" lon="6.53393">
        <ele>564</ele>
        <time>2018-09-13T07:35:09.000Z</time>
      </trkpt>
      <trkpt lat="47.98974" lon="6.53396">
        <ele>564</ele>
        <time>2018-09-13T07:35:10.000Z</time>
      </trkpt>
      <trkpt lat="47.98975" lon="6.534">
        <ele>564</ele>
        <time>2018-09-13T07:35:11.000Z</time>
      </trkpt>
      <trkpt lat="47.98977" lon="6.53404">
        <ele>563</ele>
        <time>2018-09-13T07:35:12.000Z</time>
      </trkpt>
      <trkpt lat="47.98978" lon="6.53407">
        <ele>563</ele>
        <time>2018-09-13T07:35:13.000Z</time>
      </trkpt>
      <trkpt lat="47.98979" lon="6.5341">
        <ele>562</ele>
        <time>2018-09-13T07:35:14.000Z</time>
      </trkpt>
      <trkpt lat="47.9898" lon="6.53413">
        <ele>562</ele>
        <time>2018-09-13T07:35:15.000Z</time>
      </trkpt>
      <trkpt lat="47.98981" lon="6.53417">
        <ele>561</ele>
        <time>2018-09-13T07:35:16.000Z</time>
      </trkpt>
      <trkpt lat="47.98982" lon="6.5342">
        <ele>561</ele>
        <time>2018-09-13T07:35:17.000Z</time>
      </trkpt>
      <trkpt lat="47.98983" lon="6.53423">
        <ele>560</ele>
        <time>2018-09-13T07:35:18.000Z</time>
      </trkpt>
      <trkpt lat="47.98984" lon="6.53427">
        <ele>559</ele>
        <time>2018-09-13T07:35:19.000Z</time>
      </trkpt>
      <trkpt lat="47.98985" lon="6.5343">
        <ele>559</ele>
        <time>2018-09-13T07:35:20.000Z</time>
      </trkpt>
      <trkpt lat="47.98986" lon="6.53433">
        <ele>558</ele>
        <time>2018-09-13T07:35:21.000Z</time>
      </trkpt>
      <trkpt lat="47.98986" lon="6.53436">
        <ele>558</ele>
        <time>2018-09-13T07:35:22.000Z</time>
      </trkpt>
      <trkpt lat="47.98987" lon="6.53439">
        <ele>557</ele>
        <time>2018-09-13T07:35:23.000Z</time>
      </trkpt>
      <trkpt lat="47.98988" lon="6.53442">
        <ele>557</ele>
        <time>2018-09-13T07:35:24.000Z</time>
      </trkpt>
      <trkpt lat="47.98988" lon="6.53445">
        <ele>556</ele>
        <time>2018-09-13T07:35:25.000Z</time>
      </trkpt>
      <trkpt lat="47.98989" lon="6.53448">
        <ele>556</ele>
        <time>2018-09-13T07:35:26.000Z</time>
      </trkpt>
      <trkpt lat="47.98989" lon="6.53451">
        <ele>555</ele>
        <time>2018-09-13T07:35:27.000Z</time>
      </trkpt>
      <trkpt lat="47.98989" lon="6.53454">
        <ele>555</ele>
        <time>2018-09-13T07:35:28.000Z</time>
      </trkpt>
      <trkpt lat="47.9899" lon="6.53457">
        <ele>555</ele>
        <time>2018-09-13T07:35:29.000Z</time>
      </trkpt>
      <trkpt lat="47.9899" lon="6.53459">
        <ele>554</ele>
        <time>2018-09-13T07:35:30.000Z</time>
      </trkpt>
      <trkpt lat="47.9899" lon="6.53462">
        <ele>554</ele>
        <time>2018-09-13T07:35:31.000Z</time>
      </trkpt>
      <trkpt lat="47.9899" lon="6.53465">
        <ele>553</ele>
        <time>2018-09-13T07:35:32.000Z</time>
      </trkpt>
      <trkpt lat="47.9899" lon="6.53468">
        <ele>553</ele>
        <time>2018-09-13T07:35:33.000Z</time>
      </trkpt>
      <trkpt lat="47.9899" lon="6.5347">
        <ele>553</ele>
        <time>2018-09-13T07:35:34.000Z</time>
      </trkpt>
      <trkpt lat="47.9899" lon="6.53473">
        <ele>552</ele>
        <time>2018-09-13T07:35:35.000Z</time>
      </trkpt>
      <trkpt lat="47.9899" lon="6.53476">
        <ele>552</ele>
        <time>2018-09-13T07:35:36.000Z</time>
      </trkpt>
      <trkpt lat="47.98991" lon="6.53478">
        <ele>552</ele>
        <time>2018-09-13T07:35:37.000Z</time>
      </trkpt>
      <trkpt lat="47.98991" lon="6.53481">
        <ele>551</ele>
        <time>2018-09-13T07:35:38.000Z</time>
      </trkpt>
      <trkpt lat="47.98991" lon="6.53484">
        <ele>551</ele>
        <time>2018-09-13T07:35:39.000Z</time>
      </trkpt>
      <trkpt lat="47.98991" lon="6.53486">
        <ele>551</ele>
        <time>2018-09-13T07:35:40.000Z</time>
      </trkpt>
      <trkpt lat="47.98991" lon="6.53489">
        <ele>551</ele>
        <time>2018-09-13T07:35:41.000Z</time>
      </trkpt>
      <trkpt lat="47.98991" lon="6.53491">
        <ele>551</ele>
        <time>2018-09-13T07:35:42.000Z</time>
      </trkpt>
      <trkpt lat="47.98991" lon="6.53494">
        <ele>551</ele>
        <time>2018-09-13T07:35:43.000Z</time>
      </trkpt>
      <trkpt lat="47.9899" lon="6.53496">
        <ele>551</ele>
        <time>2018-09-13T07:35:44.000Z</time>
      </trkpt>
      <trkpt lat="47.9899" lon="6.53498">
        <ele>551</ele>
        <time>2018-09-13T07:35:45.000Z</time>
      </trkpt>
      <trkpt lat="47.9899" lon="6.53501">
        <ele>550</ele>
        <time>2018-09-13T07:35:46.000Z</time>
      </trkpt>
      <trkpt lat="47.9899" lon="6.53504">
        <ele>550</ele>
        <time>2018-09-13T07:35:47.000Z</time>
      </trkpt>
      <trkpt lat="47.9899" lon="6.53507">
        <ele>550</ele>
        <time>2018-09-13T07:35:48.000Z</time>
      </trkpt>
      <trkpt lat="47.98989" lon="6.53509">
        <ele>550</ele>
        <time>2018-09-13T07:35:49.000Z</time>
      </trkpt>
      <trkpt lat="47.98989" lon="6.53511">
        <ele>550</ele>
        <time>2018-09-13T07:35:50.000Z</time>
      </trkpt>
      <trkpt lat="47.98989" lon="6.53514">
        <ele>550</ele>
        <time>2018-09-13T07:35:51.000Z</time>
      </trkpt>
      <trkpt lat="47.98989" lon="6.53516">
        <ele>550</ele>
        <time>2018-09-13T07:35:52.000Z</time>
      </trkpt>
      <trkpt lat="47.98989" lon="6.53519">
        <ele>550</ele>
        <time>2018-09-13T07:35:53.000Z</time>
      </trkpt>
      <trkpt lat="47.98989" lon="6.53521">
        <ele>550</ele>
        <time>2018-09-13T07:35:54.000Z</time>
      </trkpt>
      <trkpt lat="47.98989" lon="6.53524">
        <ele>550</ele>
        <time>2018-09-13T07:35:55.000Z</time>
      </trkpt>
      <trkpt lat="47.98989" lon="6.53527">
        <ele>550</ele>
        <time>2018-09-13T07:35:56.000Z</time>
      </trkpt>
      <trkpt lat="47.98989" lon="6.53529">
        <ele>550</ele>
        <time>2018-09-13T07:35:57.000Z</time>
      </trkpt>
      <trkpt lat="47.98989" lon="6.53532">
        <ele>550</ele>
        <time>2018-09-13T07:35:58.000Z</time>
      </trkpt>
      <trkpt lat="47.98989" lon="6.53534">
        <ele>550</ele>
        <time>2018-09-13T07:35:59.000Z</time>
      </trkpt>
      <trkpt lat="47.98989" lon="6.53536">
        <ele>550</ele>
        <time>2018-09-13T07:36:00.000Z</time>
      </trkpt>
      <trkpt lat="47.98989" lon="6.53538">
        <ele>550</ele>
        <time>2018-09-13T07:36:01.000Z</time>
      </trkpt>
      <trkpt lat="47.98989" lon="6.53541">
        <ele>550</ele>
        <time>2018-09-13T07:36:02.000Z</time>
      </trkpt>
      <trkpt lat="47.98989" lon="6.53543">
        <ele>550</ele>
        <time>2018-09-13T07:36:03.000Z</time>
      </trkpt>
      <trkpt lat="47.98989" lon="6.53546">
        <ele>550</ele>
        <time>2018-09-13T07:36:04.000Z</time>
      </trkpt>
      <trkpt lat="47.98989" lon="6.53548">
        <ele>550</ele>
        <time>2018-09-13T07:36:05.000Z</time>
      </trkpt>
      <trkpt lat="47.98989" lon="6.5355">
        <ele>550</ele>
        <time>2018-09-13T07:36:06.000Z</time>
      </trkpt>
      <trkpt lat="47.98989" lon="6.53553">
        <ele>550</ele>
        <time>2018-09-13T07:36:07.000Z</time>
      </trkpt>
      <trkpt lat="47.98989" lon="6.53555">
        <ele>550</ele>
        <time>2018-09-13T07:36:08.000Z</time>
      </trkpt>
      <trkpt lat="47.98989" lon="6.53557">
        <ele>550</ele>
        <time>2018-09-13T07:36:09.000Z</time>
      </trkpt>
      <trkpt lat="47.98989" lon="6.5356">
        <ele>550</ele>
        <time>2018-09-13T07:36:10.000Z</time>
      </trkpt>
      <trkpt lat="47.98989" lon="6.53562">
        <ele>550</ele>
        <time>2018-09-13T07:36:11.000Z</time>
      </trkpt>
      <trkpt lat="47.9899" lon="6.53564">
        <ele>550</ele>
        <time>2018-09-13T07:36:12.000Z</time>
      </trkpt>
      <trkpt lat="47.9899" lon="6.53566">
        <ele>550</ele>
        <time>2018-09-13T07:36:13.000Z</time>
      </trkpt>
      <trkpt lat="47.9899" lon="6.53568">
        <ele>550</ele>
        <time>2018-09-13T07:36:14.000Z</time>
      </trkpt>
      <trkpt lat="47.9899" lon="6.5357">
        <ele>550</ele>
        <time>2018-09-13T07:36:15.000Z</time>
      </trkpt>
      <trkpt lat="47.9899" lon="6.53572">
        <ele>550</ele>
        <time>2018-09-13T07:36:16.000Z</time>
      </trkpt>
      <trkpt lat="47.9899" lon="6.53574">
        <ele>550</ele>
        <time>2018-09-13T07:36:17.000Z</time>
      </trkpt>
      <trkpt lat="47.9899" lon="6.53576">
        <ele>550</ele>
        <time>2018-09-13T07:36:18.000Z</time>
      </trkpt>
      <trkpt lat="47.9899" lon="6.53578">
        <ele>549</ele>
        <time>2018-09-13T07:36:19.000Z</time>
      </trkpt>
      <trkpt lat="47.9899" lon="6.53581">
        <ele>549</ele>
        <time>2018-09-13T07:36:20.000Z</time>
      </trkpt>
      <trkpt lat="47.9899" lon="6.53583">
        <ele>549</ele>
        <time>2018-09-13T07:36:21.000Z</time>
      </trkpt>
      <trkpt lat="47.9899" lon="6.53586">
        <ele>549</ele>
        <time>2018-09-13T07:36:22.000Z</time>
      </trkpt>
      <trkpt lat="47.98991" lon="6.53588">
        <ele>549</ele>
        <time>2018-09-13T07:36:23.000Z</time>
      </trkpt>
      <trkpt lat="47.98991" lon="6.53591">
        <ele>549</ele>
        <time>2018-09-13T07:36:24.000Z</time>
      </trkpt>
      <trkpt lat="47.98991" lon="6.53594">
        <ele>549</ele>
        <time>2018-09-13T07:36:25.000Z</time>
      </trkpt>
      <trkpt lat="47.98992" lon="6.53596">
        <ele>549</ele>
        <time>2018-09-13T07:36:26.000Z</time>
      </trkpt>
      <trkpt lat="47.98992" lon="6.53599">
        <ele>549</ele>
        <time>2018-09-13T07:36:27.000Z</time>
      </trkpt>
      <trkpt lat="47.98992" lon="6.53601">
        <ele>549</ele>
        <time>2018-09-13T07:36:28.000Z</time>
      </trkpt>
      <trkpt lat="47.98993" lon="6.53604">
        <ele>549</ele>
        <time>2018-09-13T07:36:29.000Z</time>
      </trkpt>
      <trkpt lat="47.98993" lon="6.53606">
        <ele>549</ele>
        <time>2018-09-13T07:36:30.000Z</time>
      </trkpt>
      <trkpt lat="47.98993" lon="6.53609">
        <ele>549</ele>
        <time>2018-09-13T07:36:31.000Z</time>
      </trkpt>
      <trkpt lat="47.98994" lon="6.53611">
        <ele>548</ele>
        <time>2018-09-13T07:36:32.000Z</time>
      </trkpt>
      <trkpt lat="47.98994" lon="6.53613">
        <ele>548</ele>
        <time>2018-09-13T07:36:33.000Z</time>
      </trkpt>
      <trkpt lat="47.98994" lon="6.53616">
        <ele>548</ele>
        <time>2018-09-13T07:36:34.000Z</time>
      </trkpt>
      <trkpt lat="47.98994" lon="6.53618">
        <ele>548</ele>
        <time>2018-09-13T07:36:35.000Z</time>
      </trkpt>
      <trkpt lat="47.98994" lon="6.5362">
        <ele>548</ele>
        <time>2018-09-13T07:36:36.000Z</time>
      </trkpt>
      <trkpt lat="47.98994" lon="6.53623">
        <ele>548</ele>
        <time>2018-09-13T07:36:37.000Z</time>
      </trkpt>
      <trkpt lat="47.98995" lon="6.53625">
        <ele>548</ele>
        <time>2018-09-13T07:36:38.000Z</time>
      </trkpt>
      <trkpt lat="47.98995" lon="6.53628">
        <ele>548</ele>
        <time>2018-09-13T07:36:39.000Z</time>
      </trkpt>
      <trkpt lat="47.98995" lon="6.5363">
        <ele>548</ele>
        <time>2018-09-13T07:36:40.000Z</time>
      </trkpt>
      <trkpt lat="47.98994" lon="6.53633">
        <ele>548</ele>
        <time>2018-09-13T07:36:41.000Z</time>
      </trkpt>
      <trkpt lat="47.98994" lon="6.53635">
        <ele>548</ele>
        <time>2018-09-13T07:36:42.000Z</time>
      </trkpt>
      <trkpt lat="47.98993" lon="6.53637">
        <ele>548</ele>
        <time>2018-09-13T07:36:43.000Z</time>
      </trkpt>
      <trkpt lat="47.98993" lon="6.53639">
        <ele>548</ele>
        <time>2018-09-13T07:36:44.000Z</time>
      </trkpt>
      <trkpt lat="47.98992" lon="6.53641">
        <ele>548</ele>
        <time>2018-09-13T07:36:45.000Z</time>
      </trkpt>
      <trkpt lat="47.98992" lon="6.53643">
        <ele>548</ele>
        <time>2018-09-13T07:36:46.000Z</time>
      </trkpt>
      <trkpt lat="47.98992" lon="6.53645">
        <ele>548</ele>
        <time>2018-09-13T07:36:47.000Z</time>
      </trkpt>
      <trkpt lat="47.98992" lon="6.53648">
        <ele>548</ele>
        <time>2018-09-13T07:36:48.000Z</time>
      </trkpt>
      <trkpt lat="47.98992" lon="6.53651">
        <ele>548</ele>
        <time>2018-09-13T07:36:49.000Z</time>
      </trkpt>
      <trkpt lat="47.98993" lon="6.53653">
        <ele>548</ele>
        <time>2018-09-13T07:36:50.000Z</time>
      </trkpt>
      <trkpt lat="47.98993" lon="6.53656">
        <ele>548</ele>
        <time>2018-09-13T07:36:51.000Z</time>
      </trkpt>
      <trkpt lat="47.98993" lon="6.53658">
        <ele>548</ele>
        <time>2018-09-13T07:36:52.000Z</time>
      </trkpt>
      <trkpt lat="47.98993" lon="6.53661">
        <ele>548</ele>
        <time>2018-09-13T07:36:53.000Z</time>
      </trkpt>
      <trkpt lat="47.98993" lon="6.53664">
        <ele>548</ele>
        <time>2018-09-13T07:36:54.000Z</time>
      </trkpt>
      <trkpt lat="47.98993" lon="6.53666">
        <ele>548</ele>
        <time>2018-09-13T07:36:55.000Z</time>
      </trkpt>
      <trkpt lat="47.98993" lon="6.53668">
        <ele>548</ele>
        <time>2018-09-13T07:36:56.000Z</time>
      </trkpt>
      <trkpt lat="47.98993" lon="6.5367">
        <ele>548</ele>
        <time>2018-09-13T07:36:57.000Z</time>
      </trkpt>
      <trkpt lat="47.98993" lon="6.53673">
        <ele>548</ele>
        <time>2018-09-13T07:36:58.000Z</time>
      </trkpt>
      <trkpt lat="47.98993" lon="6.53675">
        <ele>548</ele>
        <time>2018-09-13T07:36:59.000Z</time>
      </trkpt>
      <trkpt lat="47.98993" lon="6.53677">
        <ele>548</ele>
        <time>2018-09-13T07:37:00.000Z</time>
      </trkpt>
      <trkpt lat="47.98993" lon="6.5368">
        <ele>547</ele>
        <time>2018-09-13T07:37:01.000Z</time>
      </trkpt>
      <trkpt lat="47.98993" lon="6.53682">
        <ele>547</ele>
        <time>2018-09-13T07:37:02.000Z</time>
      </trkpt>
      <trkpt lat="47.98994" lon="6.53685">
        <ele>547</ele>
        <time>2018-09-13T07:37:03.000Z</time>
      </trkpt>
      <trkpt lat="47.98994" lon="6.53687">
        <ele>547</ele>
        <time>2018-09-13T07:37:04.000Z</time>
      </trkpt>
      <trkpt lat="47.98994" lon="6.5369">
        <ele>547</ele>
        <time>2018-09-13T07:37:05.000Z</time>
      </trkpt>
      <trkpt lat="47.98995" lon="6.53693">
        <ele>547</ele>
        <time>2018-09-13T07:37:06.000Z</time>
      </trkpt>
      <trkpt lat="47.98995" lon="6.53695">
        <ele>547</ele>
        <time>2018-09-13T07:37:07.000Z</time>
      </trkpt>
      <trkpt lat="47.98995" lon="6.53698">
        <ele>547</ele>
        <time>2018-09-13T07:37:08.000Z</time>
      </trkpt>
      <trkpt lat="47.98996" lon="6.53701">
        <ele>547</ele>
        <time>2018-09-13T07:37:09.000Z</time>
      </trkpt>
      <trkpt lat="47.98996" lon="6.53703">
        <ele>547</ele>
        <time>2018-09-13T07:37:10.000Z</time>
      </trkpt>
      <trkpt lat="47.98996" lon="6.53706">
        <ele>547</ele>
        <time>2018-09-13T07:37:11.000Z</time>
      </trkpt>
      <trkpt lat="47.98997" lon="6.53709">
        <ele>547</ele>
        <time>2018-09-13T07:37:12.000Z</time>
      </trkpt>
      <trkpt lat="47.98997" lon="6.53712">
        <ele>547</ele>
        <time>2018-09-13T07:37:13.000Z</time>
      </trkpt>
      <trkpt lat="47.98997" lon="6.53714">
        <ele>546</ele>
        <time>2018-09-13T07:37:14.000Z</time>
      </trkpt>
      <trkpt lat="47.98998" lon="6.53717">
        <ele>546</ele>
        <time>2018-09-13T07:37:15.000Z</time>
      </trkpt>
      <trkpt lat="47.98998" lon="6.53719">
        <ele>546</ele>
        <time>2018-09-13T07:37:16.000Z</time>
      </trkpt>
      <trkpt lat="47.98999" lon="6.53722">
        <ele>546</ele>
        <time>2018-09-13T07:37:17.000Z</time>
      </trkpt>
      <trkpt lat="47.99" lon="6.53724">
        <ele>546</ele>
        <time>2018-09-13T07:37:18.000Z</time>
      </trkpt>
      <trkpt lat="47.99001" lon="6.53727">
        <ele>546</ele>
        <time>2018-09-13T07:37:19.000Z</time>
      </trkpt>
      <trkpt lat="47.99002" lon="6.53729">
        <ele>546</ele>
        <time>2018-09-13T07:37:20.000Z</time>
      </trkpt>
      <trkpt lat="47.99003" lon="6.53731">
        <ele>546</ele>
        <time>2018-09-13T07:37:21.000Z</time>
      </trkpt>
      <trkpt lat="47.99004" lon="6.53734">
        <ele>546</ele>
        <time>2018-09-13T07:37:22.000Z</time>
      </trkpt>
      <trkpt lat="47.99005" lon="6.53736">
        <ele>546</ele>
        <time>2018-09-13T07:37:23.000Z</time>
      </trkpt>
      <trkpt lat="47.99005" lon="6.53739">
        <ele>546</ele>
        <time>2018-09-13T07:37:24.000Z</time>
      </trkpt>
      <trkpt lat="47.99006" lon="6.53741">
        <ele>546</ele>
        <time>2018-09-13T07:37:25.000Z</time>
      </trkpt>
      <trkpt lat="47.99006" lon="6.53743">
        <ele>546</ele>
        <time>2018-09-13T07:37:26.000Z</time>
      </trkpt>
      <trkpt lat="47.99007" lon="6.53745">
        <ele>546</ele>
        <time>2018-09-13T07:37:27.000Z</time>
      </trkpt>
      <trkpt lat="47.99008" lon="6.53747">
        <ele>546</ele>
        <time>2018-09-13T07:37:28.000Z</time>
      </trkpt>
      <trkpt lat="47.99009" lon="6.53749">
        <ele>546</ele>
        <time>2018-09-13T07:37:29.000Z</time>
      </trkpt>
      <trkpt lat="47.99009" lon="6.53751">
        <ele>545</ele>
        <time>2018-09-13T07:37:30.000Z</time>
      </trkpt>
      <trkpt lat="47.9901" lon="6.53752">
        <ele>545</ele>
        <time>2018-09-13T07:37:31.000Z</time>
      </trkpt>
      <trkpt lat="47.99011" lon="6.53754">
        <ele>546</ele>
        <time>2018-09-13T07:37:32.000Z</time>
      </trkpt>
      <trkpt lat="47.99012" lon="6.53755">
        <ele>546</ele>
        <time>2018-09-13T07:37:33.000Z</time>
      </trkpt>
      <trkpt lat="47.99013" lon="6.53757">
        <ele>546</ele>
        <time>2018-09-13T07:37:34.000Z</time>
      </trkpt>
      <trkpt lat="47.99014" lon="6.53758">
        <ele>546</ele>
        <time>2018-09-13T07:37:35.000Z</time>
      </trkpt>
      <trkpt lat="47.99015" lon="6.53759">
        <ele>546</ele>
        <time>2018-09-13T07:37:36.000Z</time>
      </trkpt>
      <trkpt lat="47.99016" lon="6.5376">
        <ele>546</ele>
        <time>2018-09-13T07:37:37.000Z</time>
      </trkpt>
      <trkpt lat="47.99017" lon="6.53761">
        <ele>546</ele>
        <time>2018-09-13T07:37:38.000Z</time>
      </trkpt>
      <trkpt lat="47.99017" lon="6.53763">
        <ele>546</ele>
        <time>2018-09-13T07:37:39.000Z</time>
      </trkpt>
      <trkpt lat="47.99018" lon="6.53764">
        <ele>546</ele>
        <time>2018-09-13T07:37:40.000Z</time>
      </trkpt>
      <trkpt lat="47.99019" lon="6.53766">
        <ele>546</ele>
        <time>2018-09-13T07:37:41.000Z</time>
      </trkpt>
      <trkpt lat="47.99021" lon="6.53768">
        <ele>546</ele>
        <time>2018-09-13T07:37:42.000Z</time>
      </trkpt>
      <trkpt lat="47.99022" lon="6.5377">
        <ele>546</ele>
        <time>2018-09-13T07:37:43.000Z</time>
      </trkpt>
      <trkpt lat="47.99022" lon="6.53772">
        <ele>546</ele>
        <time>2018-09-13T07:37:44.000Z</time>
      </trkpt>
      <trkpt lat="47.99023" lon="6.53774">
        <ele>546</ele>
        <time>2018-09-13T07:37:45.000Z</time>
      </trkpt>
      <trkpt lat="47.99024" lon="6.53775">
        <ele>546</ele>
        <time>2018-09-13T07:37:46.000Z</time>
      </trkpt>
      <trkpt lat="47.99024" lon="6.53776">
        <ele>546</ele>
        <time>2018-09-13T07:37:47.000Z</time>
      </trkpt>
      <trkpt lat="47.99024" lon="6.53778">
        <ele>547</ele>
        <time>2018-09-13T07:37:48.000Z</time>
      </trkpt>
      <trkpt lat="47.99024" lon="6.5378">
        <ele>547</ele>
        <time>2018-09-13T07:37:49.000Z</time>
      </trkpt>
      <trkpt lat="47.99024" lon="6.53782">
        <ele>547</ele>
        <time>2018-09-13T07:37:50.000Z</time>
      </trkpt>
      <trkpt lat="47.99024" lon="6.53784">
        <ele>547</ele>
        <time>2018-09-13T07:37:51.000Z</time>
      </trkpt>
      <trkpt lat="47.99024" lon="6.53786">
        <ele>547</ele>
        <time>2018-09-13T07:37:52.000Z</time>
      </trkpt>
      <trkpt lat="47.99024" lon="6.53788">
        <ele>547</ele>
        <time>2018-09-13T07:37:53.000Z</time>
      </trkpt>
      <trkpt lat="47.99025" lon="6.53791">
        <ele>547</ele>
        <time>2018-09-13T07:37:54.000Z</time>
      </trkpt>
      <trkpt lat="47.99025" lon="6.53793">
        <ele>546</ele>
        <time>2018-09-13T07:37:55.000Z</time>
      </trkpt>
      <trkpt lat="47.99026" lon="6.53796">
        <ele>546</ele>
        <time>2018-09-13T07:37:56.000Z</time>
      </trkpt>
      <trkpt lat="47.99027" lon="6.53798">
        <ele>546</ele>
        <time>2018-09-13T07:37:57.000Z</time>
      </trkpt>
      <trkpt lat="47.99028" lon="6.538">
        <ele>546</ele>
        <time>2018-09-13T07:37:58.000Z</time>
      </trkpt>
      <trkpt lat="47.99029" lon="6.53803">
        <ele>546</ele>
        <time>2018-09-13T07:37:59.000Z</time>
      </trkpt>
      <trkpt lat="47.9903" lon="6.53805">
        <ele>546</ele>
        <time>2018-09-13T07:38:00.000Z</time>
      </trkpt>
      <trkpt lat="47.99031" lon="6.53808">
        <ele>546</ele>
        <time>2018-09-13T07:38:01.000Z</time>
      </trkpt>
      <trkpt lat="47.99033" lon="6.5381">
        <ele>546</ele>
        <time>2018-09-13T07:38:02.000Z</time>
      </trkpt>
      <trkpt lat="47.99034" lon="6.53813">
        <ele>546</ele>
        <time>2018-09-13T07:38:03.000Z</time>
      </trkpt>
      <trkpt lat="47.99035" lon="6.53815">
        <ele>546</ele>
        <time>2018-09-13T07:38:04.000Z</time>
      </trkpt>
      <trkpt lat="47.99037" lon="6.53818">
        <ele>545</ele>
        <time>2018-09-13T07:38:05.000Z</time>
      </trkpt>
      <trkpt lat="47.99038" lon="6.5382">
        <ele>545</ele>
        <time>2018-09-13T07:38:06.000Z</time>
      </trkpt>
      <trkpt lat="47.99039" lon="6.53822">
        <ele>545</ele>
        <time>2018-09-13T07:38:07.000Z</time>
      </trkpt>
      <trkpt lat="47.9904" lon="6.53824">
        <ele>545</ele>
        <time>2018-09-13T07:38:08.000Z</time>
      </trkpt>
      <trkpt lat="47.99041" lon="6.53826">
        <ele>545</ele>
        <time>2018-09-13T07:38:09.000Z</time>
      </trkpt>
      <trkpt lat="47.99042" lon="6.53828">
        <ele>545</ele>
        <time>2018-09-13T07:38:10.000Z</time>
      </trkpt>
      <trkpt lat="47.99043" lon="6.5383">
        <ele>545</ele>
        <time>2018-09-13T07:38:11.000Z</time>
      </trkpt>
      <trkpt lat="47.99043" lon="6.53833">
        <ele>545</ele>
        <time>2018-09-13T07:38:12.000Z</time>
      </trkpt>
      <trkpt lat="47.99044" lon="6.53835">
        <ele>545</ele>
        <time>2018-09-13T07:38:13.000Z</time>
      </trkpt>
      <trkpt lat="47.99045" lon="6.53837">
        <ele>545</ele>
        <time>2018-09-13T07:38:14.000Z</time>
      </trkpt>
      <trkpt lat="47.99046" lon="6.5384">
        <ele>545</ele>
        <time>2018-09-13T07:38:15.000Z</time>
      </trkpt>
      <trkpt lat="47.99047" lon="6.53843">
        <ele>545</ele>
        <time>2018-09-13T07:38:16.000Z</time>
      </trkpt>
      <trkpt lat="47.99049" lon="6.53846">
        <ele>545</ele>
        <time>2018-09-13T07:38:17.000Z</time>
      </trkpt>
      <trkpt lat="47.9905" lon="6.53848">
        <ele>545</ele>
        <time>2018-09-13T07:38:18.000Z</time>
      </trkpt>
      <trkpt lat="47.99051" lon="6.53851">
        <ele>545</ele>
        <time>2018-09-13T07:38:19.000Z</time>
      </trkpt>
      <trkpt lat="47.99052" lon="6.53854">
        <ele>545</ele>
        <time>2018-09-13T07:38:20.000Z</time>
      </trkpt>
      <trkpt lat="47.99054" lon="6.53857">
        <ele>545</ele>
        <time>2018-09-13T07:38:21.000Z</time>
      </trkpt>
      <trkpt lat="47.99054" lon="6.53859">
        <ele>545</ele>
        <time>2018-09-13T07:38:22.000Z</time>
      </trkpt>
      <trkpt lat="47.99055" lon="6.53862">
        <ele>545</ele>
        <time>2018-09-13T07:38:23.000Z</time>
      </trkpt>
      <trkpt lat="47.99056" lon="6.53864">
        <ele>545</ele>
        <time>2018-09-13T07:38:24.000Z</time>
      </trkpt>
      <trkpt lat="47.99057" lon="6.53867">
        <ele>545</ele>
        <time>2018-09-13T07:38:25.000Z</time>
      </trkpt>
      <trkpt lat="47.99058" lon="6.5387">
        <ele>545</ele>
        <time>2018-09-13T07:38:26.000Z</time>
      </trkpt>
      <trkpt lat="47.99059" lon="6.53873">
        <ele>545</ele>
        <time>2018-09-13T07:38:27.000Z</time>
      </trkpt>
      <trkpt lat="47.9906" lon="6.53876">
        <ele>545</ele>
        <time>2018-09-13T07:38:28.000Z</time>
      </trkpt>
      <trkpt lat="47.99061" lon="6.53879">
        <ele>544</ele>
        <time>2018-09-13T07:38:29.000Z</time>
      </trkpt>
      <trkpt lat="47.99061" lon="6.53882">
        <ele>544</ele>
        <time>2018-09-13T07:38:30.000Z</time>
      </trkpt>
      <trkpt lat="47.99062" lon="6.53885">
        <ele>544</ele>
        <time>2018-09-13T07:38:31.000Z</time>
      </trkpt>
      <trkpt lat="47.99063" lon="6.53888">
        <ele>544</ele>
        <time>2018-09-13T07:38:32.000Z</time>
      </trkpt>
      <trkpt lat="47.99064" lon="6.53891">
        <ele>544</ele>
        <time>2018-09-13T07:38:33.000Z</time>
      </trkpt>
      <trkpt lat="47.99065" lon="6.53894">
        <ele>543</ele>
        <time>2018-09-13T07:38:34.000Z</time>
      </trkpt>
      <trkpt lat="47.99066" lon="6.53897">
        <ele>543</ele>
        <time>2018-09-13T07:38:35.000Z</time>
      </trkpt>
      <trkpt lat="47.99066" lon="6.539">
        <ele>543</ele>
        <time>2018-09-13T07:38:36.000Z</time>
      </trkpt>
      <trkpt lat="47.99067" lon="6.53903">
        <ele>543</ele>
        <time>2018-09-13T07:38:37.000Z</time>
      </trkpt>
      <trkpt lat="47.99067" lon="6.53905">
        <ele>543</ele>
        <time>2018-09-13T07:38:38.000Z</time>
      </trkpt>
      <trkpt lat="47.99068" lon="6.53908">
        <ele>543</ele>
        <time>2018-09-13T07:38:39.000Z</time>
      </trkpt>
      <trkpt lat="47.99069" lon="6.53911">
        <ele>542</ele>
        <time>2018-09-13T07:38:40.000Z</time>
      </trkpt>
      <trkpt lat="47.99069" lon="6.53914">
        <ele>542</ele>
        <time>2018-09-13T07:38:41.000Z</time>
      </trkpt>
      <trkpt lat="47.9907" lon="6.53917">
        <ele>542</ele>
        <time>2018-09-13T07:38:42.000Z</time>
      </trkpt>
      <trkpt lat="47.9907" lon="6.5392">
        <ele>542</ele>
        <time>2018-09-13T07:38:43.000Z</time>
      </trkpt>
      <trkpt lat="47.99071" lon="6.53922">
        <ele>542</ele>
        <time>2018-09-13T07:38:44.000Z</time>
      </trkpt>
      <trkpt lat="47.99071" lon="6.53925">
        <ele>542</ele>
        <time>2018-09-13T07:38:45.000Z</time>
      </trkpt>
      <trkpt lat="47.99072" lon="6.53928">
        <ele>542</ele>
        <time>2018-09-13T07:38:46.000Z</time>
      </trkpt>
      <trkpt lat="47.99072" lon="6.53931">
        <ele>542</ele>
        <time>2018-09-13T07:38:47.000Z</time>
      </trkpt>
      <trkpt lat="47.99072" lon="6.53933">
        <ele>542</ele>
        <time>2018-09-13T07:38:48.000Z</time>
      </trkpt>
      <trkpt lat="47.99073" lon="6.53936">
        <ele>542</ele>
        <time>2018-09-13T07:38:49.000Z</time>
      </trkpt>
      <trkpt lat="47.99073" lon="6.53939">
        <ele>542</ele>
        <time>2018-09-13T07:38:50.000Z</time>
      </trkpt>
      <trkpt lat="47.99074" lon="6.53941">
        <ele>542</ele>
        <time>2018-09-13T07:38:51.000Z</time>
      </trkpt>
      <trkpt lat="47.99074" lon="6.53944">
        <ele>542</ele>
        <time>2018-09-13T07:38:52.000Z</time>
      </trkpt>
      <trkpt lat="47.99075" lon="6.53947">
        <ele>542</ele>
        <time>2018-09-13T07:38:53.000Z</time>
      </trkpt>
      <trkpt lat="47.99075" lon="6.5395">
        <ele>542</ele>
        <time>2018-09-13T07:38:54.000Z</time>
      </trkpt>
      <trkpt lat="47.99075" lon="6.53952">
        <ele>542</ele>
        <time>2018-09-13T07:38:55.000Z</time>
      </trkpt>
      <trkpt lat="47.99076" lon="6.53955">
        <ele>542</ele>
        <time>2018-09-13T07:38:56.000Z</time>
      </trkpt>
      <trkpt lat="47.99076" lon="6.53958">
        <ele>542</ele>
        <time>2018-09-13T07:38:57.000Z</time>
      </trkpt>
      <trkpt lat="47.99076" lon="6.53961">
        <ele>542</ele>
        <time>2018-09-13T07:38:58.000Z</time>
      </trkpt>
      <trkpt lat="47.99077" lon="6.53964">
        <ele>542</ele>
        <time>2018-09-13T07:38:59.000Z</time>
      </trkpt>
      <trkpt lat="47.99077" lon="6.53966">
        <ele>542</ele>
        <time>2018-09-13T07:39:00.000Z</time>
      </trkpt>
      <trkpt lat="47.99078" lon="6.53969">
        <ele>542</ele>
        <time>2018-09-13T07:39:01.000Z</time>
      </trkpt>
      <trkpt lat="47.99078" lon="6.53972">
        <ele>542</ele>
        <time>2018-09-13T07:39:02.000Z</time>
      </trkpt>
      <trkpt lat="47.99079" lon="6.53975">
        <ele>541</ele>
        <time>2018-09-13T07:39:03.000Z</time>
      </trkpt>
      <trkpt lat="47.9908" lon="6.53978">
        <ele>541</ele>
        <time>2018-09-13T07:39:04.000Z</time>
      </trkpt>
      <trkpt lat="47.9908" lon="6.5398">
        <ele>541</ele>
        <time>2018-09-13T07:39:05.000Z</time>
      </trkpt>
      <trkpt lat="47.99081" lon="6.53983">
        <ele>541</ele>
        <time>2018-09-13T07:39:06.000Z</time>
      </trkpt>
      <trkpt lat="47.99081" lon="6.53985">
        <ele>541</ele>
        <time>2018-09-13T07:39:07.000Z</time>
      </trkpt>
      <trkpt lat="47.99082" lon="6.53988">
        <ele>541</ele>
        <time>2018-09-13T07:39:08.000Z</time>
      </trkpt>
      <trkpt lat="47.99083" lon="6.5399">
        <ele>541</ele>
        <time>2018-09-13T07:39:09.000Z</time>
      </trkpt>
      <trkpt lat="47.99083" lon="6.53992">
        <ele>541</ele>
        <time>2018-09-13T07:39:10.000Z</time>
      </trkpt>
      <trkpt lat="47.99084" lon="6.53995">
        <ele>541</ele>
        <time>2018-09-13T07:39:11.000Z</time>
      </trkpt>
      <trkpt lat="47.99085" lon="6.53997">
        <ele>541</ele>
        <time>2018-09-13T07:39:12.000Z</time>
      </trkpt>
      <trkpt lat="47.99085" lon="6.54">
        <ele>540</ele>
        <time>2018-09-13T07:39:13.000Z</time>
      </trkpt>
      <trkpt lat="47.99086" lon="6.54002">
        <ele>540</ele>
        <time>2018-09-13T07:39:14.000Z</time>
      </trkpt>
      <trkpt lat="47.99087" lon="6.54005">
        <ele>540</ele>
        <time>2018-09-13T07:39:15.000Z</time>
      </trkpt>
      <trkpt lat="47.99088" lon="6.54007">
        <ele>540</ele>
        <time>2018-09-13T07:39:16.000Z</time>
      </trkpt>
      <trkpt lat="47.99088" lon="6.5401">
        <ele>540</ele>
        <time>2018-09-13T07:39:17.000Z</time>
      </trkpt>
      <trkpt lat="47.99089" lon="6.54012">
        <ele>540</ele>
        <time>2018-09-13T07:39:18.000Z</time>
      </trkpt>
      <trkpt lat="47.9909" lon="6.54015">
        <ele>540</ele>
        <time>2018-09-13T07:39:19.000Z</time>
      </trkpt>
      <trkpt lat="47.99091" lon="6.54018">
        <ele>540</ele>
        <time>2018-09-13T07:39:20.000Z</time>
      </trkpt>
      <trkpt lat="47.99091" lon="6.5402">
        <ele>540</ele>
        <time>2018-09-13T07:39:21.000Z</time>
      </trkpt>
      <trkpt lat="47.99092" lon="6.54023">
        <ele>540</ele>
        <time>2018-09-13T07:39:22.000Z</time>
      </trkpt>
      <trkpt lat="47.99092" lon="6.54026">
        <ele>540</ele>
        <time>2018-09-13T07:39:23.000Z</time>
      </trkpt>
      <trkpt lat="47.99093" lon="6.54029">
        <ele>540</ele>
        <time>2018-09-13T07:39:24.000Z</time>
      </trkpt>
      <trkpt lat="47.99093" lon="6.54031">
        <ele>540</ele>
        <time>2018-09-13T07:39:25.000Z</time>
      </trkpt>
      <trkpt lat="47.99093" lon="6.54034">
        <ele>540</ele>
        <time>2018-09-13T07:39:26.000Z</time>
      </trkpt>
      <trkpt lat="47.99094" lon="6.54036">
        <ele>540</ele>
        <time>2018-09-13T07:39:27.000Z</time>
      </trkpt>
      <trkpt lat="47.99094" lon="6.54039">
        <ele>540</ele>
        <time>2018-09-13T07:39:28.000Z</time>
      </trkpt>
      <trkpt lat="47.99094" lon="6.54041">
        <ele>540</ele>
        <time>2018-09-13T07:39:29.000Z</time>
      </trkpt>
      <trkpt lat="47.99095" lon="6.54044">
        <ele>540</ele>
        <time>2018-09-13T07:39:30.000Z</time>
      </trkpt>
      <trkpt lat="47.99095" lon="6.54046">
        <ele>540</ele>
        <time>2018-09-13T07:39:31.000Z</time>
      </trkpt>
      <trkpt lat="47.99095" lon="6.54048">
        <ele>540</ele>
        <time>2018-09-13T07:39:32.000Z</time>
      </trkpt>
      <trkpt lat="47.99095" lon="6.54051">
        <ele>540</ele>
        <time>2018-09-13T07:39:33.000Z</time>
      </trkpt>
      <trkpt lat="47.99095" lon="6.54053">
        <ele>540</ele>
        <time>2018-09-13T07:39:34.000Z</time>
      </trkpt>
      <trkpt lat="47.99095" lon="6.54055">
        <ele>540</ele>
        <time>2018-09-13T07:39:35.000Z</time>
      </trkpt>
      <trkpt lat="47.99095" lon="6.54058">
        <ele>540</ele>
        <time>2018-09-13T07:39:36.000Z</time>
      </trkpt>
      <trkpt lat="47.99096" lon="6.5406">
        <ele>540</ele>
        <time>2018-09-13T07:39:37.000Z</time>
      </trkpt>
      <trkpt lat="47.99096" lon="6.54062">
        <ele>540</ele>
        <time>2018-09-13T07:39:38.000Z</time>
      </trkpt>
      <trkpt lat="47.99096" lon="6.54065">
        <ele>541</ele>
        <time>2018-09-13T07:39:39.000Z</time>
      </trkpt>
      <trkpt lat="47.99096" lon="6.54067">
        <ele>541</ele>
        <time>2018-09-13T07:39:40.000Z</time>
      </trkpt>
      <trkpt lat="47.99096" lon="6.5407">
        <ele>541</ele>
        <time>2018-09-13T07:39:41.000Z</time>
      </trkpt>
      <trkpt lat="47.99096" lon="6.54072">
        <ele>541</ele>
        <time>2018-09-13T07:39:42.000Z</time>
      </trkpt>
      <trkpt lat="47.99097" lon="6.54075">
        <ele>541</ele>
        <time>2018-09-13T07:39:43.000Z</time>
      </trkpt>
      <trkpt lat="47.99097" lon="6.54077">
        <ele>541</ele>
        <time>2018-09-13T07:39:44.000Z</time>
      </trkpt>
      <trkpt lat="47.99097" lon="6.5408">
        <ele>541</ele>
        <time>2018-09-13T07:39:45.000Z</time>
      </trkpt>
      <trkpt lat="47.99097" lon="6.54082">
        <ele>541</ele>
        <time>2018-09-13T07:39:46.000Z</time>
      </trkpt>
      <trkpt lat="47.99097" lon="6.54084">
        <ele>541</ele>
        <time>2018-09-13T07:39:47.000Z</time>
      </trkpt>
      <trkpt lat="47.99097" lon="6.54087">
        <ele>541</ele>
        <time>2018-09-13T07:39:48.000Z</time>
      </trkpt>
      <trkpt lat="47.99097" lon="6.5409">
        <ele>541</ele>
        <time>2018-09-13T07:39:49.000Z</time>
      </trkpt>
      <trkpt lat="47.99097" lon="6.54092">
        <ele>541</ele>
        <time>2018-09-13T07:39:50.000Z</time>
      </trkpt>
      <trkpt lat="47.99097" lon="6.54095">
        <ele>541</ele>
        <time>2018-09-13T07:39:51.000Z</time>
      </trkpt>
      <trkpt lat="47.99097" lon="6.54097">
        <ele>541</ele>
        <time>2018-09-13T07:39:52.000Z</time>
      </trkpt>
      <trkpt lat="47.99097" lon="6.541">
        <ele>541</ele>
        <time>2018-09-13T07:39:53.000Z</time>
      </trkpt>
      <trkpt lat="47.99098" lon="6.54102">
        <ele>541</ele>
        <time>2018-09-13T07:39:54.000Z</time>
      </trkpt>
      <trkpt lat="47.99098" lon="6.54105">
        <ele>541</ele>
        <time>2018-09-13T07:39:55.000Z</time>
      </trkpt>
      <trkpt lat="47.99098" lon="6.54107">
        <ele>541</ele>
        <time>2018-09-13T07:39:56.000Z</time>
      </trkpt>
      <trkpt lat="47.99099" lon="6.5411">
        <ele>541</ele>
        <time>2018-09-13T07:39:57.000Z</time>
      </trkpt>
      <trkpt lat="47.99099" lon="6.54112">
        <ele>541</ele>
        <time>2018-09-13T07:39:58.000Z</time>
      </trkpt>
      <trkpt lat="47.99099" lon="6.54115">
        <ele>541</ele>
        <time>2018-09-13T07:39:59.000Z</time>
      </trkpt>
      <trkpt lat="47.991" lon="6.54117">
        <ele>541</ele>
        <time>2018-09-13T07:40:00.000Z</time>
      </trkpt>
      <trkpt lat="47.991" lon="6.5412">
        <ele>541</ele>
        <time>2018-09-13T07:40:01.000Z</time>
      </trkpt>
      <trkpt lat="47.991" lon="6.54123">
        <ele>541</ele>
        <time>2018-09-13T07:40:02.000Z</time>
      </trkpt>
      <trkpt lat="47.99101" lon="6.54125">
        <ele>541</ele>
        <time>2018-09-13T07:40:03.000Z</time>
      </trkpt>
      <trkpt lat="47.99101" lon="6.54128">
        <ele>541</ele>
        <time>2018-09-13T07:40:04.000Z</time>
      </trkpt>
      <trkpt lat="47.99101" lon="6.54131">
        <ele>541</ele>
        <time>2018-09-13T07:40:05.000Z</time>
      </trkpt>
      <trkpt lat="47.99102" lon="6.54134">
        <ele>541</ele>
        <time>2018-09-13T07:40:06.000Z</time>
      </trkpt>
      <trkpt lat="47.99102" lon="6.54136">
        <ele>541</ele>
        <time>2018-09-13T07:40:07.000Z</time>
      </trkpt>
      <trkpt lat="47.99102" lon="6.54139">
        <ele>541</ele>
        <time>2018-09-13T07:40:08.000Z</time>
      </trkpt>
      <trkpt lat="47.99102" lon="6.54141">
        <ele>540</ele>
        <time>2018-09-13T07:40:09.000Z</time>
      </trkpt>
      <trkpt lat="47.99103" lon="6.54144">
        <ele>540</ele>
        <time>2018-09-13T07:40:10.000Z</time>
      </trkpt>
      <trkpt lat="47.99103" lon="6.54146">
        <ele>540</ele>
        <time>2018-09-13T07:40:11.000Z</time>
      </trkpt>
      <trkpt lat="47.99103" lon="6.54149">
        <ele>540</ele>
        <time>2018-09-13T07:40:12.000Z</time>
      </trkpt>
      <trkpt lat="47.99103" lon="6.54151">
        <ele>540</ele>
        <time>2018-09-13T07:40:13.000Z</time>
      </trkpt>
      <trkpt lat="47.99103" lon="6.54154">
        <ele>540</ele>
        <time>2018-09-13T07:40:14.000Z</time>
      </trkpt>
      <trkpt lat="47.99103" lon="6.54157">
        <ele>540</ele>
        <time>2018-09-13T07:40:15.000Z</time>
      </trkpt>
      <trkpt lat="47.99104" lon="6.54159">
        <ele>540</ele>
        <time>2018-09-13T07:40:16.000Z</time>
      </trkpt>
      <trkpt lat="47.99104" lon="6.54162">
        <ele>539</ele>
        <time>2018-09-13T07:40:17.000Z</time>
      </trkpt>
      <trkpt lat="47.99104" lon="6.54165">
        <ele>539</ele>
        <time>2018-09-13T07:40:18.000Z</time>
      </trkpt>
      <trkpt lat="47.99105" lon="6.54168">
        <ele>539</ele>
        <time>2018-09-13T07:40:19.000Z</time>
      </trkpt>
      <trkpt lat="47.99105" lon="6.5417">
        <ele>539</ele>
        <time>2018-09-13T07:40:20.000Z</time>
      </trkpt>
      <trkpt lat="47.99105" lon="6.54173">
        <ele>539</ele>
        <time>2018-09-13T07:40:21.000Z</time>
      </trkpt>
      <trkpt lat="47.99105" lon="6.54175">
        <ele>539</ele>
        <time>2018-09-13T07:40:22.000Z</time>
      </trkpt>
      <trkpt lat="47.99106" lon="6.54178">
        <ele>539</ele>
        <time>2018-09-13T07:40:23.000Z</time>
      </trkpt>
      <trkpt lat="47.99106" lon="6.5418">
        <ele>539</ele>
        <time>2018-09-13T07:40:24.000Z</time>
      </trkpt>
      <trkpt lat="47.99106" lon="6.54183">
        <ele>539</ele>
        <time>2018-09-13T07:40:25.000Z</time>
      </trkpt>
      <trkpt lat="47.99106" lon="6.54185">
        <ele>539</ele>
        <time>2018-09-13T07:40:26.000Z</time>
      </trkpt>
      <trkpt lat="47.99106" lon="6.54187">
        <ele>539</ele>
        <time>2018-09-13T07:40:27.000Z</time>
      </trkpt>
      <trkpt lat="47.99106" lon="6.5419">
        <ele>539</ele>
        <time>2018-09-13T07:40:28.000Z</time>
      </trkpt>
      <trkpt lat="47.99107" lon="6.54192">
        <ele>539</ele>
        <time>2018-09-13T07:40:29.000Z</time>
      </trkpt>
      <trkpt lat="47.99107" lon="6.54195">
        <ele>539</ele>
        <time>2018-09-13T07:40:30.000Z</time>
      </trkpt>
      <trkpt lat="47.99107" lon="6.54197">
        <ele>539</ele>
        <time>2018-09-13T07:40:31.000Z</time>
      </trkpt>
      <trkpt lat="47.99108" lon="6.542">
        <ele>539</ele>
        <time>2018-09-13T07:40:32.000Z</time>
      </trkpt>
      <trkpt lat="47.99108" lon="6.54202">
        <ele>539</ele>
        <time>2018-09-13T07:40:33.000Z</time>
      </trkpt>
      <trkpt lat="47.99108" lon="6.54205">
        <ele>539</ele>
        <time>2018-09-13T07:40:34.000Z</time>
      </trkpt>
      <trkpt lat="47.99108" lon="6.54207">
        <ele>539</ele>
        <time>2018-09-13T07:40:35.000Z</time>
      </trkpt>
      <trkpt lat="47.99109" lon="6.5421">
        <ele>539</ele>
        <time>2018-09-13T07:40:36.000Z</time>
      </trkpt>
      <trkpt lat="47.9911" lon="6.54213">
        <ele>539</ele>
        <time>2018-09-13T07:40:37.000Z</time>
      </trkpt>
      <trkpt lat="47.9911" lon="6.54215">
        <ele>539</ele>
        <time>2018-09-13T07:40:38.000Z</time>
      </trkpt>
      <trkpt lat="47.99111" lon="6.54218">
        <ele>539</ele>
        <time>2018-09-13T07:40:39.000Z</time>
      </trkpt>
      <trkpt lat="47.99111" lon="6.5422">
        <ele>539</ele>
        <time>2018-09-13T07:40:40.000Z</time>
      </trkpt>
      <trkpt lat="47.99112" lon="6.54223">
        <ele>539</ele>
        <time>2018-09-13T07:40:41.000Z</time>
      </trkpt>
      <trkpt lat="47.99112" lon="6.54225">
        <ele>539</ele>
        <time>2018-09-13T07:40:42.000Z</time>
      </trkpt>
      <trkpt lat="47.99112" lon="6.54227">
        <ele>539</ele>
        <time>2018-09-13T07:40:43.000Z</time>
      </trkpt>
      <trkpt lat="47.99113" lon="6.54229">
        <ele>539</ele>
        <time>2018-09-13T07:40:44.000Z</time>
      </trkpt>
      <trkpt lat="47.99113" lon="6.54232">
        <ele>539</ele>
        <time>2018-09-13T07:40:45.000Z</time>
      </trkpt>
      <trkpt lat="47.99114" lon="6.54234">
        <ele>539</ele>
        <time>2018-09-13T07:40:46.000Z</time>
      </trkpt>
      <trkpt lat="47.99114" lon="6.54237">
        <ele>539</ele>
        <time>2018-09-13T07:40:47.000Z</time>
      </trkpt>
      <trkpt lat="47.99114" lon="6.54239">
        <ele>539</ele>
        <time>2018-09-13T07:40:48.000Z</time>
      </trkpt>
      <trkpt lat="47.99115" lon="6.54241">
        <ele>539</ele>
        <time>2018-09-13T07:40:49.000Z</time>
      </trkpt>
      <trkpt lat="47.99115" lon="6.54244">
        <ele>539</ele>
        <time>2018-09-13T07:40:50.000Z</time>
      </trkpt>
      <trkpt lat="47.99115" lon="6.54246">
        <ele>539</ele>
        <time>2018-09-13T07:40:51.000Z</time>
      </trkpt>
      <trkpt lat="47.99116" lon="6.54248">
        <ele>539</ele>
        <time>2018-09-13T07:40:52.000Z</time>
      </trkpt>
      <trkpt lat="47.99116" lon="6.54251">
        <ele>539</ele>
        <time>2018-09-13T07:40:53.000Z</time>
      </trkpt>
      <trkpt lat="47.99117" lon="6.54253">
        <ele>539</ele>
        <time>2018-09-13T07:40:54.000Z</time>
      </trkpt>
      <trkpt lat="47.99117" lon="6.54255">
        <ele>539</ele>
        <time>2018-09-13T07:40:55.000Z</time>
      </trkpt>
      <trkpt lat="47.99118" lon="6.54258">
        <ele>539</ele>
        <time>2018-09-13T07:40:56.000Z</time>
      </trkpt>
      <trkpt lat="47.99118" lon="6.5426">
        <ele>539</ele>
        <time>2018-09-13T07:40:57.000Z</time>
      </trkpt>
      <trkpt lat="47.99119" lon="6.54263">
        <ele>539</ele>
        <time>2018-09-13T07:40:58.000Z</time>
      </trkpt>
      <trkpt lat="47.99119" lon="6.54265">
        <ele>539</ele>
        <time>2018-09-13T07:40:59.000Z</time>
      </trkpt>
      <trkpt lat="47.9912" lon="6.54268">
        <ele>539</ele>
        <time>2018-09-13T07:41:00.000Z</time>
      </trkpt>
      <trkpt lat="47.9912" lon="6.5427">
        <ele>539</ele>
        <time>2018-09-13T07:41:01.000Z</time>
      </trkpt>
      <trkpt lat="47.99121" lon="6.54272">
        <ele>539</ele>
        <time>2018-09-13T07:41:02.000Z</time>
      </trkpt>
      <trkpt lat="47.99121" lon="6.54274">
        <ele>539</ele>
        <time>2018-09-13T07:41:03.000Z</time>
      </trkpt>
      <trkpt lat="47.99122" lon="6.54277">
        <ele>539</ele>
        <time>2018-09-13T07:41:04.000Z</time>
      </trkpt>
      <trkpt lat="47.99122" lon="6.54279">
        <ele>539</ele>
        <time>2018-09-13T07:41:05.000Z</time>
      </trkpt>
      <trkpt lat="47.99123" lon="6.54282">
        <ele>539</ele>
        <time>2018-09-13T07:41:06.000Z</time>
      </trkpt>
      <trkpt lat="47.99123" lon="6.54284">
        <ele>539</ele>
        <time>2018-09-13T07:41:07.000Z</time>
      </trkpt>
      <trkpt lat="47.99124" lon="6.54286">
        <ele>539</ele>
        <time>2018-09-13T07:41:08.000Z</time>
      </trkpt>
      <trkpt lat="47.99124" lon="6.54289">
        <ele>539</ele>
        <time>2018-09-13T07:41:09.000Z</time>
      </trkpt>
      <trkpt lat="47.99124" lon="6.54291">
        <ele>539</ele>
        <time>2018-09-13T07:41:10.000Z</time>
      </trkpt>
      <trkpt lat="47.99125" lon="6.54294">
        <ele>539</ele>
        <time>2018-09-13T07:41:11.000Z</time>
      </trkpt>
      <trkpt lat="47.99126" lon="6.54296">
        <ele>539</ele>
        <time>2018-09-13T07:41:12.000Z</time>
      </trkpt>
      <trkpt lat="47.99126" lon="6.54299">
        <ele>539</ele>
        <time>2018-09-13T07:41:13.000Z</time>
      </trkpt>
      <trkpt lat="47.99127" lon="6.54301">
        <ele>539</ele>
        <time>2018-09-13T07:41:14.000Z</time>
      </trkpt>
      <trkpt lat="47.99127" lon="6.54303">
        <ele>539</ele>
        <time>2018-09-13T07:41:15.000Z</time>
      </trkpt>
      <trkpt lat="47.99128" lon="6.54306">
        <ele>540</ele>
        <time>2018-09-13T07:41:16.000Z</time>
      </trkpt>
      <trkpt lat="47.99128" lon="6.54308">
        <ele>540</ele>
        <time>2018-09-13T07:41:17.000Z</time>
      </trkpt>
      <trkpt lat="47.99129" lon="6.54311">
        <ele>540</ele>
        <time>2018-09-13T07:41:18.000Z</time>
      </trkpt>
      <trkpt lat="47.9913" lon="6.54313">
        <ele>540</ele>
        <time>2018-09-13T07:41:19.000Z</time>
      </trkpt>
      <trkpt lat="47.9913" lon="6.54315">
        <ele>540</ele>
        <time>2018-09-13T07:41:20.000Z</time>
      </trkpt>
      <trkpt lat="47.99131" lon="6.54318">
        <ele>540</ele>
        <time>2018-09-13T07:41:21.000Z</time>
      </trkpt>
      <trkpt lat="47.99131" lon="6.5432">
        <ele>540</ele>
        <time>2018-09-13T07:41:22.000Z</time>
      </trkpt>
      <trkpt lat="47.99132" lon="6.54322">
        <ele>540</ele>
        <time>2018-09-13T07:41:23.000Z</time>
      </trkpt>
      <trkpt lat="47.99133" lon="6.54324">
        <ele>540</ele>
        <time>2018-09-13T07:41:24.000Z</time>
      </trkpt>
      <trkpt lat="47.99133" lon="6.54327">
        <ele>541</ele>
        <time>2018-09-13T07:41:25.000Z</time>
      </trkpt>
      <trkpt lat="47.99134" lon="6.54329">
        <ele>541</ele>
        <time>2018-09-13T07:41:26.000Z</time>
      </trkpt>
      <trkpt lat="47.99135" lon="6.54331">
        <ele>541</ele>
        <time>2018-09-13T07:41:27.000Z</time>
      </trkpt>
      <trkpt lat="47.99136" lon="6.54333">
        <ele>541</ele>
        <time>2018-09-13T07:41:28.000Z</time>
      </trkpt>
      <trkpt lat="47.99136" lon="6.54336">
        <ele>541</ele>
        <time>2018-09-13T07:41:29.000Z</time>
      </trkpt>
      <trkpt lat="47.99137" lon="6.54338">
        <ele>541</ele>
        <time>2018-09-13T07:41:30.000Z</time>
      </trkpt>
      <trkpt lat="47.99138" lon="6.5434">
        <ele>541</ele>
        <time>2018-09-13T07:41:31.000Z</time>
      </trkpt>
      <trkpt lat="47.99138" lon="6.54343">
        <ele>542</ele>
        <time>2018-09-13T07:41:32.000Z</time>
      </trkpt>
      <trkpt lat="47.99139" lon="6.54345">
        <ele>542</ele>
        <time>2018-09-13T07:41:33.000Z</time>
      </trkpt>
      <trkpt lat="47.9914" lon="6.54347">
        <ele>542</ele>
        <time>2018-09-13T07:41:34.000Z</time>
      </trkpt>
      <trkpt lat="47.99141" lon="6.54349">
        <ele>542</ele>
        <time>2018-09-13T07:41:35.000Z</time>
      </trkpt>
      <trkpt lat="47.99142" lon="6.54351">
        <ele>542</ele>
        <time>2018-09-13T07:41:36.000Z</time>
      </trkpt>
      <trkpt lat="47.99142" lon="6.54353">
        <ele>542</ele>
        <time>2018-09-13T07:41:37.000Z</time>
      </trkpt>
      <trkpt lat="47.99143" lon="6.54356">
        <ele>542</ele>
        <time>2018-09-13T07:41:38.000Z</time>
      </trkpt>
      <trkpt lat="47.99144" lon="6.54358">
        <ele>542</ele>
        <time>2018-09-13T07:41:39.000Z</time>
      </trkpt>
      <trkpt lat="47.99144" lon="6.5436">
        <ele>542</ele>
        <time>2018-09-13T07:41:40.000Z</time>
      </trkpt>
      <trkpt lat="47.99145" lon="6.54363">
        <ele>543</ele>
        <time>2018-09-13T07:41:41.000Z</time>
      </trkpt>
      <trkpt lat="47.99146" lon="6.54365">
        <ele>543</ele>
        <time>2018-09-13T07:41:42.000Z</time>
      </trkpt>
      <trkpt lat="47.99147" lon="6.54367">
        <ele>543</ele>
        <time>2018-09-13T07:41:43.000Z</time>
      </trkpt>
      <trkpt lat="47.99148" lon="6.5437">
        <ele>543</ele>
        <time>2018-09-13T07:41:44.000Z</time>
      </trkpt>
      <trkpt lat="47.99149" lon="6.54373">
        <ele>543</ele>
        <time>2018-09-13T07:41:45.000Z</time>
      </trkpt>
      <trkpt lat="47.9915" lon="6.54375">
        <ele>543</ele>
        <time>2018-09-13T07:41:46.000Z</time>
      </trkpt>
      <trkpt lat="47.9915" lon="6.54377">
        <ele>543</ele>
        <time>2018-09-13T07:41:47.000Z</time>
      </trkpt>
      <trkpt lat="47.99151" lon="6.5438">
        <ele>543</ele>
        <time>2018-09-13T07:41:48.000Z</time>
      </trkpt>
      <trkpt lat="47.99152" lon="6.54382">
        <ele>543</ele>
        <time>2018-09-13T07:41:49.000Z</time>
      </trkpt>
      <trkpt lat="47.99153" lon="6.54384">
        <ele>543</ele>
        <time>2018-09-13T07:41:50.000Z</time>
      </trkpt>
      <trkpt lat="47.99154" lon="6.54386">
        <ele>543</ele>
        <time>2018-09-13T07:41:51.000Z</time>
      </trkpt>
      <trkpt lat="47.99155" lon="6.54389">
        <ele>543</ele>
        <time>2018-09-13T07:41:52.000Z</time>
      </trkpt>
      <trkpt lat="47.99156" lon="6.54391">
        <ele>543</ele>
        <time>2018-09-13T07:41:53.000Z</time>
      </trkpt>
      <trkpt lat="47.99157" lon="6.54393">
        <ele>543</ele>
        <time>2018-09-13T07:41:54.000Z</time>
      </trkpt>
      <trkpt lat="47.99158" lon="6.54396">
        <ele>543</ele>
        <time>2018-09-13T07:41:55.000Z</time>
      </trkpt>
      <trkpt lat="47.99159" lon="6.54398">
        <ele>543</ele>
        <time>2018-09-13T07:41:56.000Z</time>
      </trkpt>
      <trkpt lat="47.99159" lon="6.54401">
        <ele>543</ele>
        <time>2018-09-13T07:41:57.000Z</time>
      </trkpt>
      <trkpt lat="47.9916" lon="6.54403">
        <ele>543</ele>
        <time>2018-09-13T07:41:58.000Z</time>
      </trkpt>
      <trkpt lat="47.99161" lon="6.54405">
        <ele>543</ele>
        <time>2018-09-13T07:41:59.000Z</time>
      </trkpt>
      <trkpt lat="47.99162" lon="6.54407">
        <ele>543</ele>
        <time>2018-09-13T07:42:00.000Z</time>
      </trkpt>
      <trkpt lat="47.99162" lon="6.54409">
        <ele>543</ele>
        <time>2018-09-13T07:42:01.000Z</time>
      </trkpt>
      <trkpt lat="47.99163" lon="6.54412">
        <ele>543</ele>
        <time>2018-09-13T07:42:02.000Z</time>
      </trkpt>
      <trkpt lat="47.99164" lon="6.54414">
        <ele>543</ele>
        <time>2018-09-13T07:42:03.000Z</time>
      </trkpt>
      <trkpt lat="47.99165" lon="6.54416">
        <ele>543</ele>
        <time>2018-09-13T07:42:04.000Z</time>
      </trkpt>
      <trkpt lat="47.99165" lon="6.54418">
        <ele>543</ele>
        <time>2018-09-13T07:42:05.000Z</time>
      </trkpt>
      <trkpt lat="47.99166" lon="6.54421">
        <ele>543</ele>
        <time>2018-09-13T07:42:06.000Z</time>
      </trkpt>
      <trkpt lat="47.99167" lon="6.54423">
        <ele>542</ele>
        <time>2018-09-13T07:42:07.000Z</time>
      </trkpt>
      <trkpt lat="47.99168" lon="6.54425">
        <ele>542</ele>
        <time>2018-09-13T07:42:08.000Z</time>
      </trkpt>
      <trkpt lat="47.99169" lon="6.54427">
        <ele>542</ele>
        <time>2018-09-13T07:42:09.000Z</time>
      </trkpt>
      <trkpt lat="47.9917" lon="6.5443">
        <ele>542</ele>
        <time>2018-09-13T07:42:10.000Z</time>
      </trkpt>
      <trkpt lat="47.99171" lon="6.54432">
        <ele>542</ele>
        <time>2018-09-13T07:42:11.000Z</time>
      </trkpt>
      <trkpt lat="47.99172" lon="6.54434">
        <ele>542</ele>
        <time>2018-09-13T07:42:12.000Z</time>
      </trkpt>
      <trkpt lat="47.99173" lon="6.54436">
        <ele>542</ele>
        <time>2018-09-13T07:42:13.000Z</time>
      </trkpt>
      <trkpt lat="47.99174" lon="6.54438">
        <ele>542</ele>
        <time>2018-09-13T07:42:14.000Z</time>
      </trkpt>
      <trkpt lat="47.99175" lon="6.5444">
        <ele>542</ele>
        <time>2018-09-13T07:42:15.000Z</time>
      </trkpt>
      <trkpt lat="47.99176" lon="6.54442">
        <ele>542</ele>
        <time>2018-09-13T07:42:16.000Z</time>
      </trkpt>
      <trkpt lat="47.99177" lon="6.54444">
        <ele>542</ele>
        <time>2018-09-13T07:42:17.000Z</time>
      </trkpt>
      <trkpt lat="47.99178" lon="6.54446">
        <ele>542</ele>
        <time>2018-09-13T07:42:18.000Z</time>
      </trkpt>
      <trkpt lat="47.99179" lon="6.54448">
        <ele>542</ele>
        <time>2018-09-13T07:42:19.000Z</time>
      </trkpt>
      <trkpt lat="47.9918" lon="6.5445">
        <ele>542</ele>
        <time>2018-09-13T07:42:20.000Z</time>
      </trkpt>
      <trkpt lat="47.99181" lon="6.54453">
        <ele>542</ele>
        <time>2018-09-13T07:42:21.000Z</time>
      </trkpt>
      <trkpt lat="47.99182" lon="6.54455">
        <ele>542</ele>
        <time>2018-09-13T07:42:22.000Z</time>
      </trkpt>
      <trkpt lat="47.99183" lon="6.54457">
        <ele>542</ele>
        <time>2018-09-13T07:42:23.000Z</time>
      </trkpt>
      <trkpt lat="47.99184" lon="6.54459">
        <ele>542</ele>
        <time>2018-09-13T07:42:24.000Z</time>
      </trkpt>
      <trkpt lat="47.99185" lon="6.54461">
        <ele>542</ele>
        <time>2018-09-13T07:42:25.000Z</time>
      </trkpt>
      <trkpt lat="47.99186" lon="6.54463">
        <ele>542</ele>
        <time>2018-09-13T07:42:26.000Z</time>
      </trkpt>
      <trkpt lat="47.99187" lon="6.54465">
        <ele>542</ele>
        <time>2018-09-13T07:42:27.000Z</time>
      </trkpt>
      <trkpt lat="47.99188" lon="6.54467">
        <ele>542</ele>
        <time>2018-09-13T07:42:28.000Z</time>
      </trkpt>
      <trkpt lat="47.99188" lon="6.54469">
        <ele>542</ele>
        <time>2018-09-13T07:42:29.000Z</time>
      </trkpt>
      <trkpt lat="47.99189" lon="6.54471">
        <ele>542</ele>
        <time>2018-09-13T07:42:30.000Z</time>
      </trkpt>
      <trkpt lat="47.9919" lon="6.54473">
        <ele>542</ele>
        <time>2018-09-13T07:42:31.000Z</time>
      </trkpt>
      <trkpt lat="47.99191" lon="6.54475">
        <ele>542</ele>
        <time>2018-09-13T07:42:32.000Z</time>
      </trkpt>
      <trkpt lat="47.99192" lon="6.54477">
        <ele>542</ele>
        <time>2018-09-13T07:42:33.000Z</time>
      </trkpt>
      <trkpt lat="47.99193" lon="6.54479">
        <ele>542</ele>
        <time>2018-09-13T07:42:34.000Z</time>
      </trkpt>
      <trkpt lat="47.99194" lon="6.54481">
        <ele>542</ele>
        <time>2018-09-13T07:42:35.000Z</time>
      </trkpt>
      <trkpt lat="47.99195" lon="6.54483">
        <ele>542</ele>
        <time>2018-09-13T07:42:36.000Z</time>
      </trkpt>
      <trkpt lat="47.99196" lon="6.54485">
        <ele>542</ele>
        <time>2018-09-13T07:42:37.000Z</time>
      </trkpt>
      <trkpt lat="47.99197" lon="6.54487">
        <ele>542</ele>
        <time>2018-09-13T07:42:38.000Z</time>
      </trkpt>
      <trkpt lat="47.99198" lon="6.54489">
        <ele>542</ele>
        <time>2018-09-13T07:42:39.000Z</time>
      </trkpt>
      <trkpt lat="47.99199" lon="6.54492">
        <ele>542</ele>
        <time>2018-09-13T07:42:40.000Z</time>
      </trkpt>
      <trkpt lat="47.992" lon="6.54494">
        <ele>542</ele>
        <time>2018-09-13T07:42:41.000Z</time>
      </trkpt>
      <trkpt lat="47.99201" lon="6.54496">
        <ele>542</ele>
        <time>2018-09-13T07:42:42.000Z</time>
      </trkpt>
      <trkpt lat="47.99202" lon="6.54498">
        <ele>542</ele>
        <time>2018-09-13T07:42:43.000Z</time>
      </trkpt>
      <trkpt lat="47.99203" lon="6.545">
        <ele>543</ele>
        <time>2018-09-13T07:42:44.000Z</time>
      </trkpt>
      <trkpt lat="47.99204" lon="6.54501">
        <ele>543</ele>
        <time>2018-09-13T07:42:45.000Z</time>
      </trkpt>
      <trkpt lat="47.99205" lon="6.54503">
        <ele>543</ele>
        <time>2018-09-13T07:42:46.000Z</time>
      </trkpt>
      <trkpt lat="47.99205" lon="6.54505">
        <ele>543</ele>
        <time>2018-09-13T07:42:47.000Z</time>
      </trkpt>
      <trkpt lat="47.99206" lon="6.54507">
        <ele>543</ele>
        <time>2018-09-13T07:42:48.000Z</time>
      </trkpt>
      <trkpt lat="47.99208" lon="6.54509">
        <ele>543</ele>
        <time>2018-09-13T07:42:49.000Z</time>
      </trkpt>
      <trkpt lat="47.99209" lon="6.54511">
        <ele>543</ele>
        <time>2018-09-13T07:42:50.000Z</time>
      </trkpt>
      <trkpt lat="47.99209" lon="6.54513">
        <ele>543</ele>
        <time>2018-09-13T07:42:51.000Z</time>
      </trkpt>
      <trkpt lat="47.9921" lon="6.54515">
        <ele>543</ele>
        <time>2018-09-13T07:42:52.000Z</time>
      </trkpt>
      <trkpt lat="47.99211" lon="6.54517">
        <ele>543</ele>
        <time>2018-09-13T07:42:53.000Z</time>
      </trkpt>
      <trkpt lat="47.99212" lon="6.54519">
        <ele>543</ele>
        <time>2018-09-13T07:42:54.000Z</time>
      </trkpt>
      <trkpt lat="47.99213" lon="6.54521">
        <ele>543</ele>
        <time>2018-09-13T07:42:55.000Z</time>
      </trkpt>
      <trkpt lat="47.99214" lon="6.54523">
        <ele>544</ele>
        <time>2018-09-13T07:42:56.000Z</time>
      </trkpt>
      <trkpt lat="47.99215" lon="6.54525">
        <ele>544</ele>
        <time>2018-09-13T07:42:57.000Z</time>
      </trkpt>
      <trkpt lat="47.99216" lon="6.54527">
        <ele>544</ele>
        <time>2018-09-13T07:42:58.000Z</time>
      </trkpt>
      <trkpt lat="47.99217" lon="6.54529">
        <ele>544</ele>
        <time>2018-09-13T07:42:59.000Z</time>
      </trkpt>
      <trkpt lat="47.99219" lon="6.54531">
        <ele>544</ele>
        <time>2018-09-13T07:43:00.000Z</time>
      </trkpt>
      <trkpt lat="47.9922" lon="6.54533">
        <ele>545</ele>
        <time>2018-09-13T07:43:01.000Z</time>
      </trkpt>
      <trkpt lat="47.99221" lon="6.54535">
        <ele>545</ele>
        <time>2018-09-13T07:43:02.000Z</time>
      </trkpt>
      <trkpt lat="47.99222" lon="6.54537">
        <ele>545</ele>
        <time>2018-09-13T07:43:03.000Z</time>
      </trkpt>
      <trkpt lat="47.99223" lon="6.54539">
        <ele>545</ele>
        <time>2018-09-13T07:43:04.000Z</time>
      </trkpt>
      <trkpt lat="47.99224" lon="6.5454">
        <ele>545</ele>
        <time>2018-09-13T07:43:05.000Z</time>
      </trkpt>
      <trkpt lat="47.99224" lon="6.54542">
        <ele>545</ele>
        <time>2018-09-13T07:43:06.000Z</time>
      </trkpt>
      <trkpt lat="47.99225" lon="6.54544">
        <ele>545</ele>
        <time>2018-09-13T07:43:07.000Z</time>
      </trkpt>
      <trkpt lat="47.99226" lon="6.54546">
        <ele>545</ele>
        <time>2018-09-13T07:43:08.000Z</time>
      </trkpt>
      <trkpt lat="47.99227" lon="6.54549">
        <ele>545</ele>
        <time>2018-09-13T07:43:09.000Z</time>
      </trkpt>
      <trkpt lat="47.99229" lon="6.54551">
        <ele>545</ele>
        <time>2018-09-13T07:43:10.000Z</time>
      </trkpt>
      <trkpt lat="47.9923" lon="6.54553">
        <ele>545</ele>
        <time>2018-09-13T07:43:11.000Z</time>
      </trkpt>
      <trkpt lat="47.9923" lon="6.54555">
        <ele>545</ele>
        <time>2018-09-13T07:43:12.000Z</time>
      </trkpt>
      <trkpt lat="47.99231" lon="6.54557">
        <ele>545</ele>
        <time>2018-09-13T07:43:13.000Z</time>
      </trkpt>
      <trkpt lat="47.99232" lon="6.54559">
        <ele>545</ele>
        <time>2018-09-13T07:43:14.000Z</time>
      </trkpt>
      <trkpt lat="47.99233" lon="6.54561">
        <ele>545</ele>
        <time>2018-09-13T07:43:15.000Z</time>
      </trkpt>
      <trkpt lat="47.99234" lon="6.54563">
        <ele>545</ele>
        <time>2018-09-13T07:43:16.000Z</time>
      </trkpt>
      <trkpt lat="47.99235" lon="6.54565">
        <ele>545</ele>
        <time>2018-09-13T07:43:17.000Z</time>
      </trkpt>
      <trkpt lat="47.99236" lon="6.54567">
        <ele>545</ele>
        <time>2018-09-13T07:43:18.000Z</time>
      </trkpt>
      <trkpt lat="47.99237" lon="6.54569">
        <ele>545</ele>
        <time>2018-09-13T07:43:19.000Z</time>
      </trkpt>
      <trkpt lat="47.99238" lon="6.54571">
        <ele>545</ele>
        <time>2018-09-13T07:43:20.000Z</time>
      </trkpt>
      <trkpt lat="47.99239" lon="6.54573">
        <ele>545</ele>
        <time>2018-09-13T07:43:21.000Z</time>
      </trkpt>
      <trkpt lat="47.99241" lon="6.54575">
        <ele>545</ele>
        <time>2018-09-13T07:43:22.000Z</time>
      </trkpt>
      <trkpt lat="47.99242" lon="6.54577">
        <ele>545</ele>
        <time>2018-09-13T07:43:23.000Z</time>
      </trkpt>
      <trkpt lat="47.99243" lon="6.54579">
        <ele>545</ele>
        <time>2018-09-13T07:43:24.000Z</time>
      </trkpt>
      <trkpt lat="47.99245" lon="6.54581">
        <ele>545</ele>
        <time>2018-09-13T07:43:25.000Z</time>
      </trkpt>
      <trkpt lat="47.99246" lon="6.54583">
        <ele>545</ele>
        <time>2018-09-13T07:43:26.000Z</time>
      </trkpt>
      <trkpt lat="47.99247" lon="6.54584">
        <ele>545</ele>
        <time>2018-09-13T07:43:27.000Z</time>
      </trkpt>
      <trkpt lat="47.99248" lon="6.54586">
        <ele>545</ele>
        <time>2018-09-13T07:43:28.000Z</time>
      </trkpt>
      <trkpt lat="47.99249" lon="6.54588">
        <ele>545</ele>
        <time>2018-09-13T07:43:29.000Z</time>
      </trkpt>
      <trkpt lat="47.9925" lon="6.5459">
        <ele>546</ele>
        <time>2018-09-13T07:43:30.000Z</time>
      </trkpt>
      <trkpt lat="47.99251" lon="6.54592">
        <ele>546</ele>
        <time>2018-09-13T07:43:31.000Z</time>
      </trkpt>
      <trkpt lat="47.99253" lon="6.54595">
        <ele>546</ele>
        <time>2018-09-13T07:43:32.000Z</time>
      </trkpt>
      <trkpt lat="47.99254" lon="6.54596">
        <ele>546</ele>
        <time>2018-09-13T07:43:33.000Z</time>
      </trkpt>
      <trkpt lat="47.99255" lon="6.54598">
        <ele>545</ele>
        <time>2018-09-13T07:43:34.000Z</time>
      </trkpt>
      <trkpt lat="47.99256" lon="6.546">
        <ele>545</ele>
        <time>2018-09-13T07:43:35.000Z</time>
      </trkpt>
      <trkpt lat="47.99257" lon="6.54601">
        <ele>546</ele>
        <time>2018-09-13T07:43:36.000Z</time>
      </trkpt>
      <trkpt lat="47.99258" lon="6.54603">
        <ele>546</ele>
        <time>2018-09-13T07:43:37.000Z</time>
      </trkpt>
      <trkpt lat="47.99259" lon="6.54605">
        <ele>546</ele>
        <time>2018-09-13T07:43:38.000Z</time>
      </trkpt>
      <trkpt lat="47.9926" lon="6.54606">
        <ele>546</ele>
        <time>2018-09-13T07:43:39.000Z</time>
      </trkpt>
      <trkpt lat="47.99261" lon="6.54608">
        <ele>546</ele>
        <time>2018-09-13T07:43:40.000Z</time>
      </trkpt>
      <trkpt lat="47.99262" lon="6.5461">
        <ele>546</ele>
        <time>2018-09-13T07:43:41.000Z</time>
      </trkpt>
      <trkpt lat="47.99263" lon="6.54611">
        <ele>546</ele>
        <time>2018-09-13T07:43:42.000Z</time>
      </trkpt>
      <trkpt lat="47.99264" lon="6.54613">
        <ele>546</ele>
        <time>2018-09-13T07:43:43.000Z</time>
      </trkpt>
      <trkpt lat="47.99265" lon="6.54615">
        <ele>546</ele>
        <time>2018-09-13T07:43:44.000Z</time>
      </trkpt>
      <trkpt lat="47.99267" lon="6.54617">
        <ele>546</ele>
        <time>2018-09-13T07:43:45.000Z</time>
      </trkpt>
      <trkpt lat="47.99268" lon="6.54619">
        <ele>546</ele>
        <time>2018-09-13T07:43:46.000Z</time>
      </trkpt>
      <trkpt lat="47.99269" lon="6.54621">
        <ele>546</ele>
        <time>2018-09-13T07:43:47.000Z</time>
      </trkpt>
      <trkpt lat="47.9927" lon="6.54622">
        <ele>546</ele>
        <time>2018-09-13T07:43:48.000Z</time>
      </trkpt>
      <trkpt lat="47.99272" lon="6.54624">
        <ele>546</ele>
        <time>2018-09-13T07:43:49.000Z</time>
      </trkpt>
      <trkpt lat="47.99273" lon="6.54626">
        <ele>546</ele>
        <time>2018-09-13T07:43:50.000Z</time>
      </trkpt>
      <trkpt lat="47.99274" lon="6.54627">
        <ele>546</ele>
        <time>2018-09-13T07:43:51.000Z</time>
      </trkpt>
      <trkpt lat="47.99275" lon="6.54629">
        <ele>546</ele>
        <time>2018-09-13T07:43:52.000Z</time>
      </trkpt>
      <trkpt lat="47.99276" lon="6.5463">
        <ele>546</ele>
        <time>2018-09-13T07:43:53.000Z</time>
      </trkpt>
      <trkpt lat="47.99277" lon="6.54632">
        <ele>546</ele>
        <time>2018-09-13T07:43:54.000Z</time>
      </trkpt>
      <trkpt lat="47.99278" lon="6.54634">
        <ele>546</ele>
        <time>2018-09-13T07:43:55.000Z</time>
      </trkpt>
      <trkpt lat="47.99279" lon="6.54636">
        <ele>546</ele>
        <time>2018-09-13T07:43:56.000Z</time>
      </trkpt>
      <trkpt lat="47.99281" lon="6.54638">
        <ele>546</ele>
        <time>2018-09-13T07:43:57.000Z</time>
      </trkpt>
      <trkpt lat="47.99282" lon="6.5464">
        <ele>546</ele>
        <time>2018-09-13T07:43:58.000Z</time>
      </trkpt>
      <trkpt lat="47.99283" lon="6.54642">
        <ele>546</ele>
        <time>2018-09-13T07:43:59.000Z</time>
      </trkpt>
      <trkpt lat="47.99284" lon="6.54644">
        <ele>546</ele>
        <time>2018-09-13T07:44:00.000Z</time>
      </trkpt>
      <trkpt lat="47.99285" lon="6.54646">
        <ele>546</ele>
        <time>2018-09-13T07:44:01.000Z</time>
      </trkpt>
      <trkpt lat="47.99286" lon="6.54648">
        <ele>546</ele>
        <time>2018-09-13T07:44:02.000Z</time>
      </trkpt>
      <trkpt lat="47.99287" lon="6.5465">
        <ele>546</ele>
        <time>2018-09-13T07:44:03.000Z</time>
      </trkpt>
      <trkpt lat="47.99288" lon="6.54652">
        <ele>546</ele>
        <time>2018-09-13T07:44:04.000Z</time>
      </trkpt>
      <trkpt lat="47.99289" lon="6.54654">
        <ele>546</ele>
        <time>2018-09-13T07:44:05.000Z</time>
      </trkpt>
      <trkpt lat="47.9929" lon="6.54655">
        <ele>546</ele>
        <time>2018-09-13T07:44:06.000Z</time>
      </trkpt>
      <trkpt lat="47.99291" lon="6.54657">
        <ele>546</ele>
        <time>2018-09-13T07:44:07.000Z</time>
      </trkpt>
      <trkpt lat="47.99293" lon="6.54659">
        <ele>546</ele>
        <time>2018-09-13T07:44:08.000Z</time>
      </trkpt>
      <trkpt lat="47.99294" lon="6.54661">
        <ele>546</ele>
        <time>2018-09-13T07:44:09.000Z</time>
      </trkpt>
      <trkpt lat="47.99295" lon="6.54663">
        <ele>546</ele>
        <time>2018-09-13T07:44:10.000Z</time>
      </trkpt>
      <trkpt lat="47.99296" lon="6.54664">
        <ele>546</ele>
        <time>2018-09-13T07:44:11.000Z</time>
      </trkpt>
      <trkpt lat="47.99297" lon="6.54666">
        <ele>546</ele>
        <time>2018-09-13T07:44:12.000Z</time>
      </trkpt>
      <trkpt lat="47.99299" lon="6.54668">
        <ele>547</ele>
        <time>2018-09-13T07:44:13.000Z</time>
      </trkpt>
      <trkpt lat="47.993" lon="6.5467">
        <ele>547</ele>
        <time>2018-09-13T07:44:14.000Z</time>
      </trkpt>
      <trkpt lat="47.99302" lon="6.54671">
        <ele>547</ele>
        <time>2018-09-13T07:44:15.000Z</time>
      </trkpt>
      <trkpt lat="47.99303" lon="6.54673">
        <ele>547</ele>
        <time>2018-09-13T07:44:16.000Z</time>
      </trkpt>
      <trkpt lat="47.99304" lon="6.54674">
        <ele>547</ele>
        <time>2018-09-13T07:44:17.000Z</time>
      </trkpt>
      <trkpt lat="47.99305" lon="6.54676">
        <ele>547</ele>
        <time>2018-09-13T07:44:18.000Z</time>
      </trkpt>
      <trkpt lat="47.99307" lon="6.54677">
        <ele>547</ele>
        <time>2018-09-13T07:44:19.000Z</time>
      </trkpt>
      <trkpt lat="47.99308" lon="6.54679">
        <ele>547</ele>
        <time>2018-09-13T07:44:20.000Z</time>
      </trkpt>
      <trkpt lat="47.99309" lon="6.5468">
        <ele>546</ele>
        <time>2018-09-13T07:44:21.000Z</time>
      </trkpt>
      <trkpt lat="47.9931" lon="6.54682">
        <ele>546</ele>
        <time>2018-09-13T07:44:22.000Z</time>
      </trkpt>
      <trkpt lat="47.99311" lon="6.54683">
        <ele>546</ele>
        <time>2018-09-13T07:44:23.000Z</time>
      </trkpt>
      <trkpt lat="47.99312" lon="6.54684">
        <ele>546</ele>
        <time>2018-09-13T07:44:24.000Z</time>
      </trkpt>
      <trkpt lat="47.99314" lon="6.54686">
        <ele>546</ele>
        <time>2018-09-13T07:44:25.000Z</time>
      </trkpt>
      <trkpt lat="47.99315" lon="6.54687">
        <ele>546</ele>
        <time>2018-09-13T07:44:26.000Z</time>
      </trkpt>
      <trkpt lat="47.99316" lon="6.54688">
        <ele>546</ele>
        <time>2018-09-13T07:44:27.000Z</time>
      </trkpt>
      <trkpt lat="47.99318" lon="6.5469">
        <ele>546</ele>
        <time>2018-09-13T07:44:28.000Z</time>
      </trkpt>
      <trkpt lat="47.99319" lon="6.54691">
        <ele>546</ele>
        <time>2018-09-13T07:44:29.000Z</time>
      </trkpt>
      <trkpt lat="47.99321" lon="6.54692">
        <ele>546</ele>
        <time>2018-09-13T07:44:30.000Z</time>
      </trkpt>
      <trkpt lat="47.99322" lon="6.54694">
        <ele>546</ele>
        <time>2018-09-13T07:44:31.000Z</time>
      </trkpt>
      <trkpt lat="47.99323" lon="6.54695">
        <ele>546</ele>
        <time>2018-09-13T07:44:32.000Z</time>
      </trkpt>
      <trkpt lat="47.99325" lon="6.54696">
        <ele>546</ele>
        <time>2018-09-13T07:44:33.000Z</time>
      </trkpt>
      <trkpt lat="47.99326" lon="6.54698">
        <ele>546</ele>
        <time>2018-09-13T07:44:34.000Z</time>
      </trkpt>
      <trkpt lat="47.99328" lon="6.54699">
        <ele>547</ele>
        <time>2018-09-13T07:44:35.000Z</time>
      </trkpt>
      <trkpt lat="47.99329" lon="6.547">
        <ele>547</ele>
        <time>2018-09-13T07:44:36.000Z</time>
      </trkpt>
      <trkpt lat="47.9933" lon="6.54701">
        <ele>547</ele>
        <time>2018-09-13T07:44:37.000Z</time>
      </trkpt>
      <trkpt lat="47.99331" lon="6.54702">
        <ele>547</ele>
        <time>2018-09-13T07:44:38.000Z</time>
      </trkpt>
      <trkpt lat="47.99333" lon="6.54704">
        <ele>547</ele>
        <time>2018-09-13T07:44:39.000Z</time>
      </trkpt>
      <trkpt lat="47.99334" lon="6.54705">
        <ele>547</ele>
        <time>2018-09-13T07:44:40.000Z</time>
      </trkpt>
      <trkpt lat="47.99336" lon="6.54707">
        <ele>547</ele>
        <time>2018-09-13T07:44:41.000Z</time>
      </trkpt>
      <trkpt lat="47.99338" lon="6.54708">
        <ele>547</ele>
        <time>2018-09-13T07:44:42.000Z</time>
      </trkpt>
      <trkpt lat="47.99339" lon="6.54709">
        <ele>547</ele>
        <time>2018-09-13T07:44:43.000Z</time>
      </trkpt>
      <trkpt lat="47.99341" lon="6.54711">
        <ele>547</ele>
        <time>2018-09-13T07:44:44.000Z</time>
      </trkpt>
      <trkpt lat="47.99342" lon="6.54712">
        <ele>547</ele>
        <time>2018-09-13T07:44:45.000Z</time>
      </trkpt>
      <trkpt lat="47.99344" lon="6.54713">
        <ele>548</ele>
        <time>2018-09-13T07:44:46.000Z</time>
      </trkpt>
      <trkpt lat="47.99346" lon="6.54715">
        <ele>548</ele>
        <time>2018-09-13T07:44:47.000Z</time>
      </trkpt>
      <trkpt lat="47.99347" lon="6.54716">
        <ele>548</ele>
        <time>2018-09-13T07:44:48.000Z</time>
      </trkpt>
      <trkpt lat="47.99349" lon="6.54717">
        <ele>548</ele>
        <time>2018-09-13T07:44:49.000Z</time>
      </trkpt>
      <trkpt lat="47.9935" lon="6.54718">
        <ele>548</ele>
        <time>2018-09-13T07:44:50.000Z</time>
      </trkpt>
      <trkpt lat="47.99352" lon="6.5472">
        <ele>548</ele>
        <time>2018-09-13T07:44:51.000Z</time>
      </trkpt>
      <trkpt lat="47.99354" lon="6.54721">
        <ele>548</ele>
        <time>2018-09-13T07:44:52.000Z</time>
      </trkpt>
      <trkpt lat="47.99355" lon="6.54722">
        <ele>548</ele>
        <time>2018-09-13T07:44:53.000Z</time>
      </trkpt>
      <trkpt lat="47.99357" lon="6.54723">
        <ele>548</ele>
        <time>2018-09-13T07:44:54.000Z</time>
      </trkpt>
      <trkpt lat="47.99359" lon="6.54725">
        <ele>548</ele>
        <time>2018-09-13T07:44:55.000Z</time>
      </trkpt>
      <trkpt lat="47.9936" lon="6.54726">
        <ele>548</ele>
        <time>2018-09-13T07:44:56.000Z</time>
      </trkpt>
      <trkpt lat="47.99362" lon="6.54727">
        <ele>548</ele>
        <time>2018-09-13T07:44:57.000Z</time>
      </trkpt>
      <trkpt lat="47.99363" lon="6.54729">
        <ele>548</ele>
        <time>2018-09-13T07:44:58.000Z</time>
      </trkpt>
      <trkpt lat="47.99364" lon="6.5473">
        <ele>548</ele>
        <time>2018-09-13T07:44:59.000Z</time>
      </trkpt>
      <trkpt lat="47.99366" lon="6.54732">
        <ele>548</ele>
        <time>2018-09-13T07:45:00.000Z</time>
      </trkpt>
      <trkpt lat="47.99367" lon="6.54733">
        <ele>548</ele>
        <time>2018-09-13T07:45:01.000Z</time>
      </trkpt>
      <trkpt lat="47.99369" lon="6.54734">
        <ele>548</ele>
        <time>2018-09-13T07:45:02.000Z</time>
      </trkpt>
      <trkpt lat="47.9937" lon="6.54735">
        <ele>548</ele>
        <time>2018-09-13T07:45:03.000Z</time>
      </trkpt>
      <trkpt lat="47.99372" lon="6.54736">
        <ele>548</ele>
        <time>2018-09-13T07:45:04.000Z</time>
      </trkpt>
      <trkpt lat="47.99373" lon="6.54738">
        <ele>548</ele>
        <time>2018-09-13T07:45:05.000Z</time>
      </trkpt>
      <trkpt lat="47.99374" lon="6.54739">
        <ele>549</ele>
        <time>2018-09-13T07:45:06.000Z</time>
      </trkpt>
      <trkpt lat="47.99376" lon="6.5474">
        <ele>549</ele>
        <time>2018-09-13T07:45:07.000Z</time>
      </trkpt>
      <trkpt lat="47.99377" lon="6.54742">
        <ele>549</ele>
        <time>2018-09-13T07:45:08.000Z</time>
      </trkpt>
      <trkpt lat="47.99379" lon="6.54743">
        <ele>549</ele>
        <time>2018-09-13T07:45:09.000Z</time>
      </trkpt>
      <trkpt lat="47.9938" lon="6.54745">
        <ele>549</ele>
        <time>2018-09-13T07:45:10.000Z</time>
      </trkpt>
      <trkpt lat="47.99381" lon="6.54747">
        <ele>549</ele>
        <time>2018-09-13T07:45:11.000Z</time>
      </trkpt>
      <trkpt lat="47.99382" lon="6.54749">
        <ele>549</ele>
        <time>2018-09-13T07:45:12.000Z</time>
      </trkpt>
      <trkpt lat="47.99383" lon="6.54751">
        <ele>549</ele>
        <time>2018-09-13T07:45:13.000Z</time>
      </trkpt>
      <trkpt lat="47.99383" lon="6.54753">
        <ele>549</ele>
        <time>2018-09-13T07:45:14.000Z</time>
      </trkpt>
      <trkpt lat="47.99382" lon="6.54754">
        <ele>549</ele>
        <time>2018-09-13T07:45:15.000Z</time>
      </trkpt>
      <trkpt lat="47.99381" lon="6.54754">
        <ele>549</ele>
        <time>2018-09-13T07:45:16.000Z</time>
      </trkpt>
      <trkpt lat="47.99381" lon="6.54754">
        <ele>549</ele>
        <time>2018-09-13T07:45:17.000Z</time>
      </trkpt>
      <trkpt lat="47.9938" lon="6.54753">
        <ele>549</ele>
        <time>2018-09-13T07:45:18.000Z</time>
      </trkpt>
      <trkpt lat="47.99379" lon="6.54752">
        <ele>549</ele>
        <time>2018-09-13T07:45:19.000Z</time>
      </trkpt>
      <trkpt lat="47.99378" lon="6.54751">
        <ele>548</ele>
        <time>2018-09-13T07:45:20.000Z</time>
      </trkpt>
      <trkpt lat="47.99378" lon="6.5475">
        <ele>548</ele>
        <time>2018-09-13T07:45:21.000Z</time>
      </trkpt>
      <trkpt lat="47.99378" lon="6.54748">
        <ele>548</ele>
        <time>2018-09-13T07:45:22.000Z</time>
      </trkpt>
      <trkpt lat="47.99378" lon="6.54747">
        <ele>548</ele>
        <time>2018-09-13T07:45:23.000Z</time>
      </trkpt>
      <trkpt lat="47.99378" lon="6.54746">
        <ele>548</ele>
        <time>2018-09-13T07:45:24.000Z</time>
      </trkpt>
      <trkpt lat="47.99378" lon="6.54745">
        <ele>548</ele>
        <time>2018-09-13T07:45:25.000Z</time>
      </trkpt>
      <trkpt lat="47.99378" lon="6.54744">
        <ele>548</ele>
        <time>2018-09-13T07:45:26.000Z</time>
      </trkpt>
      <trkpt lat="47.99379" lon="6.54743">
        <ele>547</ele>
        <time>2018-09-13T07:45:27.000Z</time>
      </trkpt>
      <trkpt lat="47.99379" lon="6.54742">
        <ele>547</ele>
        <time>2018-09-13T07:45:28.000Z</time>
      </trkpt>
      <trkpt lat="47.99379" lon="6.54741">
        <ele>547</ele>
        <time>2018-09-13T07:45:29.000Z</time>
      </trkpt>
      <trkpt lat="47.99379" lon="6.5474">
        <ele>547</ele>
        <time>2018-09-13T07:45:30.000Z</time>
      </trkpt>
      <trkpt lat="47.99379" lon="6.5474">
        <ele>547</ele>
        <time>2018-09-13T07:45:31.000Z</time>
      </trkpt>
      <trkpt lat="47.9938" lon="6.5474">
        <ele>547</ele>
        <time>2018-09-13T07:45:32.000Z</time>
      </trkpt>
      <trkpt lat="47.9938" lon="6.54739">
        <ele>547</ele>
        <time>2018-09-13T07:45:33.000Z</time>
      </trkpt>
      <trkpt lat="47.99381" lon="6.54739">
        <ele>547</ele>
        <time>2018-09-13T07:45:34.000Z</time>
      </trkpt>
      <trkpt lat="47.99381" lon="6.54739">
        <ele>547</ele>
        <time>2018-09-13T07:45:35.000Z</time>
      </trkpt>
      <trkpt lat="47.99381" lon="6.54739">
        <ele>547</ele>
        <time>2018-09-13T07:45:36.000Z</time>
      </trkpt>
      <trkpt lat="47.99382" lon="6.54739">
        <ele>547</ele>
        <time>2018-09-13T07:45:37.000Z</time>
      </trkpt>
      <trkpt lat="47.99382" lon="6.54739">
        <ele>547</ele>
        <time>2018-09-13T07:45:38.000Z</time>
      </trkpt>
      <trkpt lat="47.99382" lon="6.54738">
        <ele>547</ele>
        <time>2018-09-13T07:45:39.000Z</time>
      </trkpt>
      <trkpt lat="47.99382" lon="6.54738">
        <ele>547</ele>
        <time>2018-09-13T07:45:40.000Z</time>
      </trkpt>
      <trkpt lat="47.99383" lon="6.54737">
        <ele>547</ele>
        <time>2018-09-13T07:45:41.000Z</time>
      </trkpt>
      <trkpt lat="47.99383" lon="6.54736">
        <ele>547</ele>
        <time>2018-09-13T07:45:42.000Z</time>
      </trkpt>
      <trkpt lat="47.99383" lon="6.54735">
        <ele>547</ele>
        <time>2018-09-13T07:45:43.000Z</time>
      </trkpt>
      <trkpt lat="47.99383" lon="6.54734">
        <ele>547</ele>
        <time>2018-09-13T07:45:44.000Z</time>
      </trkpt>
      <trkpt lat="47.99383" lon="6.54732">
        <ele>547</ele>
        <time>2018-09-13T07:45:45.000Z</time>
      </trkpt>
      <trkpt lat="47.99383" lon="6.5473">
        <ele>546</ele>
        <time>2018-09-13T07:45:46.000Z</time>
      </trkpt>
      <trkpt lat="47.99383" lon="6.54728">
        <ele>546</ele>
        <time>2018-09-13T07:45:47.000Z</time>
      </trkpt>
      <trkpt lat="47.99383" lon="6.54725">
        <ele>546</ele>
        <time>2018-09-13T07:45:48.000Z</time>
      </trkpt>
      <trkpt lat="47.99383" lon="6.54724">
        <ele>546</ele>
        <time>2018-09-13T07:45:49.000Z</time>
      </trkpt>
      <trkpt lat="47.99384" lon="6.54722">
        <ele>546</ele>
        <time>2018-09-13T07:45:50.000Z</time>
      </trkpt>
      <trkpt lat="47.99384" lon="6.5472">
        <ele>546</ele>
        <time>2018-09-13T07:45:51.000Z</time>
      </trkpt>
      <trkpt lat="47.99384" lon="6.54718">
        <ele>546</ele>
        <time>2018-09-13T07:45:52.000Z</time>
      </trkpt>
      <trkpt lat="47.99384" lon="6.54717">
        <ele>546</ele>
        <time>2018-09-13T07:45:53.000Z</time>
      </trkpt>
      <trkpt lat="47.99385" lon="6.54716">
        <ele>546</ele>
        <time>2018-09-13T07:45:54.000Z</time>
      </trkpt>
      <trkpt lat="47.99385" lon="6.54715">
        <ele>546</ele>
        <time>2018-09-13T07:45:55.000Z</time>
      </trkpt>
      <trkpt lat="47.99385" lon="6.54714">
        <ele>546</ele>
        <time>2018-09-13T07:45:56.000Z</time>
      </trkpt>
      <trkpt lat="47.99385" lon="6.54713">
        <ele>546</ele>
        <time>2018-09-13T07:45:57.000Z</time>
      </trkpt>
      <trkpt lat="47.99386" lon="6.54712">
        <ele>546</ele>
        <time>2018-09-13T07:45:58.000Z</time>
      </trkpt>
      <trkpt lat="47.99387" lon="6.54712">
        <ele>546</ele>
        <time>2018-09-13T07:45:59.000Z</time>
      </trkpt>
      <trkpt lat="47.99388" lon="6.54711">
        <ele>546</ele>
        <time>2018-09-13T07:46:00.000Z</time>
      </trkpt>
      <trkpt lat="47.9939" lon="6.5471">
        <ele>546</ele>
        <time>2018-09-13T07:46:01.000Z</time>
      </trkpt>
      <trkpt lat="47.99391" lon="6.5471">
        <ele>546</ele>
        <time>2018-09-13T07:46:02.000Z</time>
      </trkpt>
      <trkpt lat="47.99393" lon="6.5471">
        <ele>546</ele>
        <time>2018-09-13T07:46:03.000Z</time>
      </trkpt>
      <trkpt lat="47.99394" lon="6.54709">
        <ele>546</ele>
        <time>2018-09-13T07:46:04.000Z</time>
      </trkpt>
      <trkpt lat="47.99395" lon="6.54708">
        <ele>546</ele>
        <time>2018-09-13T07:46:05.000Z</time>
      </trkpt>
      <trkpt lat="47.99396" lon="6.54706">
        <ele>546</ele>
        <time>2018-09-13T07:46:06.000Z</time>
      </trkpt>
      <trkpt lat="47.99398" lon="6.54706">
        <ele>546</ele>
        <time>2018-09-13T07:46:07.000Z</time>
      </trkpt>
      <trkpt lat="47.99398" lon="6.54706">
        <ele>546</ele>
        <time>2018-09-13T07:46:08.000Z</time>
      </trkpt>
      <trkpt lat="47.99399" lon="6.54705">
        <ele>546</ele>
        <time>2018-09-13T07:46:09.000Z</time>
      </trkpt>
      <trkpt lat="47.994" lon="6.54705">
        <ele>546</ele>
        <time>2018-09-13T07:46:10.000Z</time>
      </trkpt>
      <trkpt lat="47.99401" lon="6.54704">
        <ele>546</ele>
        <time>2018-09-13T07:46:11.000Z</time>
      </trkpt>
      <trkpt lat="47.99402" lon="6.54705">
        <ele>546</ele>
        <time>2018-09-13T07:46:12.000Z</time>
      </trkpt>
      <trkpt lat="47.99404" lon="6.54705">
        <ele>546</ele>
        <time>2018-09-13T07:46:13.000Z</time>
      </trkpt>
      <trkpt lat="47.99405" lon="6.54705">
        <ele>546</ele>
        <time>2018-09-13T07:46:14.000Z</time>
      </trkpt>
      <trkpt lat="47.99406" lon="6.54706">
        <ele>546</ele>
        <time>2018-09-13T07:46:15.000Z</time>
      </trkpt>
      <trkpt lat="47.99407" lon="6.54706">
        <ele>546</ele>
        <time>2018-09-13T07:46:16.000Z</time>
      </trkpt>
      <trkpt lat="47.99408" lon="6.54706">
        <ele>546</ele>
        <time>2018-09-13T07:46:17.000Z</time>
      </trkpt>
      <trkpt lat="47.99409" lon="6.54707">
        <ele>546</ele>
        <time>2018-09-13T07:46:18.000Z</time>
      </trkpt>
      <trkpt lat="47.9941" lon="6.54708">
        <ele>546</ele>
        <time>2018-09-13T07:46:19.000Z</time>
      </trkpt>
      <trkpt lat="47.99411" lon="6.54708">
        <ele>546</ele>
        <time>2018-09-13T07:46:20.000Z</time>
      </trkpt>
      <trkpt lat="47.99412" lon="6.54709">
        <ele>547</ele>
        <time>2018-09-13T07:46:21.000Z</time>
      </trkpt>
      <trkpt lat="47.99413" lon="6.54709">
        <ele>547</ele>
        <time>2018-09-13T07:46:22.000Z</time>
      </trkpt>
      <trkpt lat="47.99414" lon="6.5471">
        <ele>547</ele>
        <time>2018-09-13T07:46:23.000Z</time>
      </trkpt>
      <trkpt lat="47.99415" lon="6.54711">
        <ele>547</ele>
        <time>2018-09-13T07:46:24.000Z</time>
      </trkpt>
      <trkpt lat="47.99417" lon="6.54711">
        <ele>547</ele>
        <time>2018-09-13T07:46:25.000Z</time>
      </trkpt>
      <trkpt lat="47.99418" lon="6.54712">
        <ele>547</ele>
        <time>2018-09-13T07:46:26.000Z</time>
      </trkpt>
      <trkpt lat="47.99419" lon="6.54713">
        <ele>547</ele>
        <time>2018-09-13T07:46:27.000Z</time>
      </trkpt>
      <trkpt lat="47.9942" lon="6.54714">
        <ele>547</ele>
        <time>2018-09-13T07:46:28.000Z</time>
      </trkpt>
      <trkpt lat="47.99422" lon="6.54715">
        <ele>547</ele>
        <time>2018-09-13T07:46:29.000Z</time>
      </trkpt>
      <trkpt lat="47.99423" lon="6.54716">
        <ele>548</ele>
        <time>2018-09-13T07:46:30.000Z</time>
      </trkpt>
      <trkpt lat="47.99424" lon="6.54717">
        <ele>548</ele>
        <time>2018-09-13T07:46:31.000Z</time>
      </trkpt>
      <trkpt lat="47.99425" lon="6.54718">
        <ele>548</ele>
        <time>2018-09-13T07:46:32.000Z</time>
      </trkpt>
      <trkpt lat="47.99427" lon="6.54718">
        <ele>548</ele>
        <time>2018-09-13T07:46:33.000Z</time>
      </trkpt>
      <trkpt lat="47.99428" lon="6.54718">
        <ele>548</ele>
        <time>2018-09-13T07:46:34.000Z</time>
      </trkpt>
      <trkpt lat="47.99429" lon="6.54717">
        <ele>548</ele>
        <time>2018-09-13T07:46:35.000Z</time>
      </trkpt>
      <trkpt lat="47.9943" lon="6.54717">
        <ele>548</ele>
        <time>2018-09-13T07:46:36.000Z</time>
      </trkpt>
      <trkpt lat="47.99431" lon="6.54717">
        <ele>548</ele>
        <time>2018-09-13T07:46:37.000Z</time>
      </trkpt>
      <trkpt lat="47.99432" lon="6.54717">
        <ele>548</ele>
        <time>2018-09-13T07:46:38.000Z</time>
      </trkpt>
      <trkpt lat="47.99434" lon="6.54717">
        <ele>548</ele>
        <time>2018-09-13T07:46:39.000Z</time>
      </trkpt>
      <trkpt lat="47.99435" lon="6.54717">
        <ele>548</ele>
        <time>2018-09-13T07:46:40.000Z</time>
      </trkpt>
      <trkpt lat="47.99436" lon="6.54717">
        <ele>548</ele>
        <time>2018-09-13T07:46:41.000Z</time>
      </trkpt>
      <trkpt lat="47.99437" lon="6.54717">
        <ele>548</ele>
        <time>2018-09-13T07:46:42.000Z</time>
      </trkpt>
      <trkpt lat="47.99439" lon="6.54716">
        <ele>548</ele>
        <time>2018-09-13T07:46:43.000Z</time>
      </trkpt>
      <trkpt lat="47.9944" lon="6.54716">
        <ele>548</ele>
        <time>2018-09-13T07:46:44.000Z</time>
      </trkpt>
      <trkpt lat="47.99442" lon="6.54716">
        <ele>548</ele>
        <time>2018-09-13T07:46:45.000Z</time>
      </trkpt>
      <trkpt lat="47.99444" lon="6.54716">
        <ele>548</ele>
        <time>2018-09-13T07:46:46.000Z</time>
      </trkpt>
      <trkpt lat="47.99445" lon="6.54716">
        <ele>548</ele>
        <time>2018-09-13T07:46:47.000Z</time>
      </trkpt>
      <trkpt lat="47.99447" lon="6.54716">
        <ele>548</ele>
        <time>2018-09-13T07:46:48.000Z</time>
      </trkpt>
      <trkpt lat="47.99449" lon="6.54715">
        <ele>548</ele>
        <time>2018-09-13T07:46:49.000Z</time>
      </trkpt>
      <trkpt lat="47.9945" lon="6.54715">
        <ele>548</ele>
        <time>2018-09-13T07:46:50.000Z</time>
      </trkpt>
      <trkpt lat="47.99452" lon="6.54714">
        <ele>548</ele>
        <time>2018-09-13T07:46:51.000Z</time>
      </trkpt>
      <trkpt lat="47.99453" lon="6.54713">
        <ele>548</ele>
        <time>2018-09-13T07:46:52.000Z</time>
      </trkpt>
      <trkpt lat="47.99454" lon="6.54712">
        <ele>548</ele>
        <time>2018-09-13T07:46:53.000Z</time>
      </trkpt>
      <trkpt lat="47.99456" lon="6.54711">
        <ele>548</ele>
        <time>2018-09-13T07:46:54.000Z</time>
      </trkpt>
      <trkpt lat="47.99458" lon="6.5471">
        <ele>548</ele>
        <time>2018-09-13T07:46:55.000Z</time>
      </trkpt>
      <trkpt lat="47.99459" lon="6.54709">
        <ele>548</ele>
        <time>2018-09-13T07:46:56.000Z</time>
      </trkpt>
      <trkpt lat="47.99461" lon="6.54709">
        <ele>548</ele>
        <time>2018-09-13T07:46:57.000Z</time>
      </trkpt>
      <trkpt lat="47.99463" lon="6.54708">
        <ele>548</ele>
        <time>2018-09-13T07:46:58.000Z</time>
      </trkpt>
      <trkpt lat="47.99464" lon="6.54707">
        <ele>548</ele>
        <time>2018-09-13T07:46:59.000Z</time>
      </trkpt>
      <trkpt lat="47.99466" lon="6.54707">
        <ele>548</ele>
        <time>2018-09-13T07:47:00.000Z</time>
      </trkpt>
      <trkpt lat="47.99468" lon="6.54706">
        <ele>548</ele>
        <time>2018-09-13T07:47:01.000Z</time>
      </trkpt>
      <trkpt lat="47.99469" lon="6.54705">
        <ele>548</ele>
        <time>2018-09-13T07:47:02.000Z</time>
      </trkpt>
      <trkpt lat="47.99471" lon="6.54705">
        <ele>548</ele>
        <time>2018-09-13T07:47:03.000Z</time>
      </trkpt>
      <trkpt lat="47.99472" lon="6.54704">
        <ele>548</ele>
        <time>2018-09-13T07:47:04.000Z</time>
      </trkpt>
      <trkpt lat="47.99474" lon="6.54703">
        <ele>548</ele>
        <time>2018-09-13T07:47:05.000Z</time>
      </trkpt>
      <trkpt lat="47.99476" lon="6.54702">
        <ele>548</ele>
        <time>2018-09-13T07:47:06.000Z</time>
      </trkpt>
      <trkpt lat="47.99477" lon="6.54702">
        <ele>548</ele>
        <time>2018-09-13T07:47:07.000Z</time>
      </trkpt>
      <trkpt lat="47.99479" lon="6.54701">
        <ele>548</ele>
        <time>2018-09-13T07:47:08.000Z</time>
      </trkpt>
      <trkpt lat="47.99481" lon="6.54701">
        <ele>548</ele>
        <time>2018-09-13T07:47:09.000Z</time>
      </trkpt>
      <trkpt lat="47.99482" lon="6.547">
        <ele>548</ele>
        <time>2018-09-13T07:47:10.000Z</time>
      </trkpt>
      <trkpt lat="47.99484" lon="6.547">
        <ele>548</ele>
        <time>2018-09-13T07:47:11.000Z</time>
      </trkpt>
      <trkpt lat="47.99486" lon="6.547">
        <ele>548</ele>
        <time>2018-09-13T07:47:12.000Z</time>
      </trkpt>
      <trkpt lat="47.99487" lon="6.547">
        <ele>548</ele>
        <time>2018-09-13T07:47:13.000Z</time>
      </trkpt>
      <trkpt lat="47.99489" lon="6.54699">
        <ele>548</ele>
        <time>2018-09-13T07:47:14.000Z</time>
      </trkpt>
      <trkpt lat="47.99491" lon="6.54698">
        <ele>548</ele>
        <time>2018-09-13T07:47:15.000Z</time>
      </trkpt>
      <trkpt lat="47.99492" lon="6.54698">
        <ele>548</ele>
        <time>2018-09-13T07:47:16.000Z</time>
      </trkpt>
      <trkpt lat="47.99494" lon="6.54697">
        <ele>548</ele>
        <time>2018-09-13T07:47:17.000Z</time>
      </trkpt>
      <trkpt lat="47.99496" lon="6.54696">
        <ele>548</ele>
        <time>2018-09-13T07:47:18.000Z</time>
      </trkpt>
      <trkpt lat="47.99497" lon="6.54695">
        <ele>548</ele>
        <time>2018-09-13T07:47:19.000Z</time>
      </trkpt>
      <trkpt lat="47.99499" lon="6.54694">
        <ele>548</ele>
        <time>2018-09-13T07:47:20.000Z</time>
      </trkpt>
      <trkpt lat="47.99501" lon="6.54693">
        <ele>548</ele>
        <time>2018-09-13T07:47:21.000Z</time>
      </trkpt>
      <trkpt lat="47.99503" lon="6.54692">
        <ele>548</ele>
        <time>2018-09-13T07:47:22.000Z</time>
      </trkpt>
      <trkpt lat="47.99504" lon="6.54691">
        <ele>548</ele>
        <time>2018-09-13T07:47:23.000Z</time>
      </trkpt>
      <trkpt lat="47.99506" lon="6.5469">
        <ele>548</ele>
        <time>2018-09-13T07:47:24.000Z</time>
      </trkpt>
      <trkpt lat="47.99507" lon="6.54689">
        <ele>548</ele>
        <time>2018-09-13T07:47:25.000Z</time>
      </trkpt>
      <trkpt lat="47.99508" lon="6.54688">
        <ele>548</ele>
        <time>2018-09-13T07:47:26.000Z</time>
      </trkpt>
      <trkpt lat="47.9951" lon="6.54687">
        <ele>548</ele>
        <time>2018-09-13T07:47:27.000Z</time>
      </trkpt>
      <trkpt lat="47.99512" lon="6.54686">
        <ele>548</ele>
        <time>2018-09-13T07:47:28.000Z</time>
      </trkpt>
      <trkpt lat="47.99513" lon="6.54684">
        <ele>548</ele>
        <time>2018-09-13T07:47:29.000Z</time>
      </trkpt>
      <trkpt lat="47.99515" lon="6.54683">
        <ele>548</ele>
        <time>2018-09-13T07:47:30.000Z</time>
      </trkpt>
      <trkpt lat="47.99516" lon="6.54682">
        <ele>547</ele>
        <time>2018-09-13T07:47:31.000Z</time>
      </trkpt>
      <trkpt lat="47.99518" lon="6.54681">
        <ele>547</ele>
        <time>2018-09-13T07:47:32.000Z</time>
      </trkpt>
      <trkpt lat="47.99519" lon="6.54679">
        <ele>547</ele>
        <time>2018-09-13T07:47:33.000Z</time>
      </trkpt>
      <trkpt lat="47.99521" lon="6.54678">
        <ele>547</ele>
        <time>2018-09-13T07:47:34.000Z</time>
      </trkpt>
      <trkpt lat="47.99522" lon="6.54677">
        <ele>547</ele>
        <time>2018-09-13T07:47:35.000Z</time>
      </trkpt>
      <trkpt lat="47.99523" lon="6.54675">
        <ele>547</ele>
        <time>2018-09-13T07:47:36.000Z</time>
      </trkpt>
      <trkpt lat="47.99525" lon="6.54674">
        <ele>547</ele>
        <time>2018-09-13T07:47:37.000Z</time>
      </trkpt>
      <trkpt lat="47.99526" lon="6.54673">
        <ele>546</ele>
        <time>2018-09-13T07:47:38.000Z</time>
      </trkpt>
      <trkpt lat="47.99528" lon="6.54671">
        <ele>546</ele>
        <time>2018-09-13T07:47:39.000Z</time>
      </trkpt>
      <trkpt lat="47.99529" lon="6.5467">
        <ele>546</ele>
        <time>2018-09-13T07:47:40.000Z</time>
      </trkpt>
      <trkpt lat="47.99531" lon="6.54669">
        <ele>546</ele>
        <time>2018-09-13T07:47:41.000Z</time>
      </trkpt>
      <trkpt lat="47.99533" lon="6.54668">
        <ele>546</ele>
        <time>2018-09-13T07:47:42.000Z</time>
      </trkpt>
      <trkpt lat="47.99534" lon="6.54667">
        <ele>546</ele>
        <time>2018-09-13T07:47:43.000Z</time>
      </trkpt>
      <trkpt lat="47.99536" lon="6.54666">
        <ele>546</ele>
        <time>2018-09-13T07:47:44.000Z</time>
      </trkpt>
      <trkpt lat="47.99537" lon="6.54666">
        <ele>546</ele>
        <time>2018-09-13T07:47:45.000Z</time>
      </trkpt>
      <trkpt lat="47.99539" lon="6.54666">
        <ele>546</ele>
        <time>2018-09-13T07:47:46.000Z</time>
      </trkpt>
      <trkpt lat="47.9954" lon="6.54666">
        <ele>546</ele>
        <time>2018-09-13T07:47:47.000Z</time>
      </trkpt>
      <trkpt lat="47.99542" lon="6.54666">
        <ele>546</ele>
        <time>2018-09-13T07:47:48.000Z</time>
      </trkpt>
      <trkpt lat="47.99543" lon="6.54666">
        <ele>546</ele>
        <time>2018-09-13T07:47:49.000Z</time>
      </trkpt>
      <trkpt lat="47.99545" lon="6.54667">
        <ele>546</ele>
        <time>2018-09-13T07:47:50.000Z</time>
      </trkpt>
      <trkpt lat="47.99547" lon="6.54667">
        <ele>546</ele>
        <time>2018-09-13T07:47:51.000Z</time>
      </trkpt>
      <trkpt lat="47.99548" lon="6.54667">
        <ele>546</ele>
        <time>2018-09-13T07:47:52.000Z</time>
      </trkpt>
      <trkpt lat="47.9955" lon="6.54667">
        <ele>546</ele>
        <time>2018-09-13T07:47:53.000Z</time>
      </trkpt>
      <trkpt lat="47.99551" lon="6.54667">
        <ele>546</ele>
        <time>2018-09-13T07:47:54.000Z</time>
      </trkpt>
      <trkpt lat="47.99553" lon="6.54668">
        <ele>546</ele>
        <time>2018-09-13T07:47:55.000Z</time>
      </trkpt>
      <trkpt lat="47.99554" lon="6.54669">
        <ele>545</ele>
        <time>2018-09-13T07:47:56.000Z</time>
      </trkpt>
      <trkpt lat="47.99556" lon="6.54671">
        <ele>545</ele>
        <time>2018-09-13T07:47:57.000Z</time>
      </trkpt>
      <trkpt lat="47.99557" lon="6.54672">
        <ele>545</ele>
        <time>2018-09-13T07:47:58.000Z</time>
      </trkpt>
      <trkpt lat="47.99558" lon="6.54673">
        <ele>545</ele>
        <time>2018-09-13T07:47:59.000Z</time>
      </trkpt>
      <trkpt lat="47.9956" lon="6.54675">
        <ele>545</ele>
        <time>2018-09-13T07:48:00.000Z</time>
      </trkpt>
      <trkpt lat="47.99561" lon="6.54676">
        <ele>545</ele>
        <time>2018-09-13T07:48:01.000Z</time>
      </trkpt>
      <trkpt lat="47.99563" lon="6.54677">
        <ele>545</ele>
        <time>2018-09-13T07:48:02.000Z</time>
      </trkpt>
      <trkpt lat="47.99564" lon="6.54679">
        <ele>546</ele>
        <time>2018-09-13T07:48:03.000Z</time>
      </trkpt>
      <trkpt lat="47.99566" lon="6.54681">
        <ele>546</ele>
        <time>2018-09-13T07:48:04.000Z</time>
      </trkpt>
      <trkpt lat="47.99567" lon="6.54682">
        <ele>546</ele>
        <time>2018-09-13T07:48:05.000Z</time>
      </trkpt>
      <trkpt lat="47.99569" lon="6.54684">
        <ele>546</ele>
        <time>2018-09-13T07:48:06.000Z</time>
      </trkpt>
      <trkpt lat="47.9957" lon="6.54685">
        <ele>546</ele>
        <time>2018-09-13T07:48:07.000Z</time>
      </trkpt>
      <trkpt lat="47.99571" lon="6.54686">
        <ele>546</ele>
        <time>2018-09-13T07:48:08.000Z</time>
      </trkpt>
      <trkpt lat="47.99571" lon="6.54686">
        <ele>546</ele>
        <time>2018-09-13T07:48:09.000Z</time>
      </trkpt>
      <trkpt lat="47.99571" lon="6.54686">
        <ele>546</ele>
        <time>2018-09-13T07:48:10.000Z</time>
      </trkpt>
      <trkpt lat="47.99571" lon="6.54687">
        <ele>546</ele>
        <time>2018-09-13T07:48:11.000Z</time>
      </trkpt>
      <trkpt lat="47.99572" lon="6.54688">
        <ele>546</ele>
        <time>2018-09-13T07:48:12.000Z</time>
      </trkpt>
      <trkpt lat="47.99573" lon="6.54689">
        <ele>546</ele>
        <time>2018-09-13T07:48:13.000Z</time>
      </trkpt>
      <trkpt lat="47.99574" lon="6.5469">
        <ele>546</ele>
        <time>2018-09-13T07:48:14.000Z</time>
      </trkpt>
      <trkpt lat="47.99575" lon="6.54692">
        <ele>546</ele>
        <time>2018-09-13T07:48:15.000Z</time>
      </trkpt>
      <trkpt lat="47.99577" lon="6.54693">
        <ele>546</ele>
        <time>2018-09-13T07:48:16.000Z</time>
      </trkpt>
      <trkpt lat="47.99578" lon="6.54694">
        <ele>546</ele>
        <time>2018-09-13T07:48:17.000Z</time>
      </trkpt>
      <trkpt lat="47.99579" lon="6.54695">
        <ele>546</ele>
        <time>2018-09-13T07:48:18.000Z</time>
      </trkpt>
      <trkpt lat="47.9958" lon="6.54696">
        <ele>546</ele>
        <time>2018-09-13T07:48:19.000Z</time>
      </trkpt>
      <trkpt lat="47.99581" lon="6.54697">
        <ele>546</ele>
        <time>2018-09-13T07:48:20.000Z</time>
      </trkpt>
      <trkpt lat="47.99583" lon="6.54698">
        <ele>546</ele>
        <time>2018-09-13T07:48:21.000Z</time>
      </trkpt>
      <trkpt lat="47.99584" lon="6.54699">
        <ele>546</ele>
        <time>2018-09-13T07:48:22.000Z</time>
      </trkpt>
      <trkpt lat="47.99586" lon="6.54701">
        <ele>546</ele>
        <time>2018-09-13T07:48:23.000Z</time>
      </trkpt>
      <trkpt lat="47.99587" lon="6.54702">
        <ele>546</ele>
        <time>2018-09-13T07:48:24.000Z</time>
      </trkpt>
      <trkpt lat="47.99588" lon="6.54703">
        <ele>546</ele>
        <time>2018-09-13T07:48:25.000Z</time>
      </trkpt>
      <trkpt lat="47.9959" lon="6.54703">
        <ele>546</ele>
        <time>2018-09-13T07:48:26.000Z</time>
      </trkpt>
      <trkpt lat="47.99591" lon="6.54704">
        <ele>546</ele>
        <time>2018-09-13T07:48:27.000Z</time>
      </trkpt>
      <trkpt lat="47.99593" lon="6.54705">
        <ele>546</ele>
        <time>2018-09-13T07:48:28.000Z</time>
      </trkpt>
      <trkpt lat="47.99594" lon="6.54706">
        <ele>546</ele>
        <time>2018-09-13T07:48:29.000Z</time>
      </trkpt>
      <trkpt lat="47.99596" lon="6.54707">
        <ele>546</ele>
        <time>2018-09-13T07:48:30.000Z</time>
      </trkpt>
      <trkpt lat="47.99597" lon="6.54708">
        <ele>547</ele>
        <time>2018-09-13T07:48:31.000Z</time>
      </trkpt>
      <trkpt lat="47.99599" lon="6.54708">
        <ele>547</ele>
        <time>2018-09-13T07:48:32.000Z</time>
      </trkpt>
      <trkpt lat="47.996" lon="6.54709">
        <ele>547</ele>
        <time>2018-09-13T07:48:33.000Z</time>
      </trkpt>
      <trkpt lat="47.99602" lon="6.5471">
        <ele>547</ele>
        <time>2018-09-13T07:48:34.000Z</time>
      </trkpt>
      <trkpt lat="47.99603" lon="6.54711">
        <ele>547</ele>
        <time>2018-09-13T07:48:35.000Z</time>
      </trkpt>
      <trkpt lat="47.99605" lon="6.54712">
        <ele>547</ele>
        <time>2018-09-13T07:48:36.000Z</time>
      </trkpt>
      <trkpt lat="47.99607" lon="6.54712">
        <ele>547</ele>
        <time>2018-09-13T07:48:37.000Z</time>
      </trkpt>
      <trkpt lat="47.99608" lon="6.54713">
        <ele>547</ele>
        <time>2018-09-13T07:48:38.000Z</time>
      </trkpt>
      <trkpt lat="47.9961" lon="6.54713">
        <ele>547</ele>
        <time>2018-09-13T07:48:39.000Z</time>
      </trkpt>
      <trkpt lat="47.99612" lon="6.54713">
        <ele>547</ele>
        <time>2018-09-13T07:48:40.000Z</time>
      </trkpt>
      <trkpt lat="47.99613" lon="6.54714">
        <ele>547</ele>
        <time>2018-09-13T07:48:41.000Z</time>
      </trkpt>
      <trkpt lat="47.99615" lon="6.54714">
        <ele>547</ele>
        <time>2018-09-13T07:48:42.000Z</time>
      </trkpt>
      <trkpt lat="47.99617" lon="6.54715">
        <ele>547</ele>
        <time>2018-09-13T07:48:43.000Z</time>
      </trkpt>
      <trkpt lat="47.99618" lon="6.54716">
        <ele>547</ele>
        <time>2018-09-13T07:48:44.000Z</time>
      </trkpt>
      <trkpt lat="47.9962" lon="6.54717">
        <ele>547</ele>
        <time>2018-09-13T07:48:45.000Z</time>
      </trkpt>
      <trkpt lat="47.99622" lon="6.54717">
        <ele>547</ele>
        <time>2018-09-13T07:48:46.000Z</time>
      </trkpt>
      <trkpt lat="47.99623" lon="6.54718">
        <ele>547</ele>
        <time>2018-09-13T07:48:47.000Z</time>
      </trkpt>
      <trkpt lat="47.99625" lon="6.54719">
        <ele>547</ele>
        <time>2018-09-13T07:48:48.000Z</time>
      </trkpt>
      <trkpt lat="47.99627" lon="6.5472">
        <ele>547</ele>
        <time>2018-09-13T07:48:49.000Z</time>
      </trkpt>
      <trkpt lat="47.99628" lon="6.54721">
        <ele>548</ele>
        <time>2018-09-13T07:48:50.000Z</time>
      </trkpt>
      <trkpt lat="47.9963" lon="6.54722">
        <ele>548</ele>
        <time>2018-09-13T07:48:51.000Z</time>
      </trkpt>
      <trkpt lat="47.99631" lon="6.54723">
        <ele>548</ele>
        <time>2018-09-13T07:48:52.000Z</time>
      </trkpt>
      <trkpt lat="47.99633" lon="6.54724">
        <ele>548</ele>
        <time>2018-09-13T07:48:53.000Z</time>
      </trkpt>
      <trkpt lat="47.99634" lon="6.54726">
        <ele>548</ele>
        <time>2018-09-13T07:48:54.000Z</time>
      </trkpt>
      <trkpt lat="47.99635" lon="6.54727">
        <ele>548</ele>
        <time>2018-09-13T07:48:55.000Z</time>
      </trkpt>
      <trkpt lat="47.99637" lon="6.54728">
        <ele>548</ele>
        <time>2018-09-13T07:48:56.000Z</time>
      </trkpt>
      <trkpt lat="47.99638" lon="6.54729">
        <ele>548</ele>
        <time>2018-09-13T07:48:57.000Z</time>
      </trkpt>
      <trkpt lat="47.99639" lon="6.5473">
        <ele>548</ele>
        <time>2018-09-13T07:48:58.000Z</time>
      </trkpt>
      <trkpt lat="47.99641" lon="6.54731">
        <ele>548</ele>
        <time>2018-09-13T07:48:59.000Z</time>
      </trkpt>
      <trkpt lat="47.99642" lon="6.54732">
        <ele>548</ele>
        <time>2018-09-13T07:49:00.000Z</time>
      </trkpt>
      <trkpt lat="47.99643" lon="6.54733">
        <ele>548</ele>
        <time>2018-09-13T07:49:01.000Z</time>
      </trkpt>
      <trkpt lat="47.99645" lon="6.54733">
        <ele>548</ele>
        <time>2018-09-13T07:49:02.000Z</time>
      </trkpt>
      <trkpt lat="47.99646" lon="6.54733">
        <ele>548</ele>
        <time>2018-09-13T07:49:03.000Z</time>
      </trkpt>
      <trkpt lat="47.99648" lon="6.54733">
        <ele>548</ele>
        <time>2018-09-13T07:49:04.000Z</time>
      </trkpt>
      <trkpt lat="47.99649" lon="6.54733">
        <ele>548</ele>
        <time>2018-09-13T07:49:05.000Z</time>
      </trkpt>
      <trkpt lat="47.99651" lon="6.54732">
        <ele>548</ele>
        <time>2018-09-13T07:49:06.000Z</time>
      </trkpt>
      <trkpt lat="47.99652" lon="6.54732">
        <ele>548</ele>
        <time>2018-09-13T07:49:07.000Z</time>
      </trkpt>
      <trkpt lat="47.99653" lon="6.54731">
        <ele>548</ele>
        <time>2018-09-13T07:49:08.000Z</time>
      </trkpt>
      <trkpt lat="47.99654" lon="6.5473">
        <ele>548</ele>
        <time>2018-09-13T07:49:09.000Z</time>
      </trkpt>
      <trkpt lat="47.99656" lon="6.5473">
        <ele>548</ele>
        <time>2018-09-13T07:49:10.000Z</time>
      </trkpt>
      <trkpt lat="47.99657" lon="6.54729">
        <ele>548</ele>
        <time>2018-09-13T07:49:11.000Z</time>
      </trkpt>
      <trkpt lat="47.99658" lon="6.54728">
        <ele>548</ele>
        <time>2018-09-13T07:49:12.000Z</time>
      </trkpt>
      <trkpt lat="47.9966" lon="6.54726">
        <ele>548</ele>
        <time>2018-09-13T07:49:13.000Z</time>
      </trkpt>
      <trkpt lat="47.99661" lon="6.54725">
        <ele>548</ele>
        <time>2018-09-13T07:49:14.000Z</time>
      </trkpt>
      <trkpt lat="47.99662" lon="6.54724">
        <ele>548</ele>
        <time>2018-09-13T07:49:15.000Z</time>
      </trkpt>
      <trkpt lat="47.99664" lon="6.54723">
        <ele>548</ele>
        <time>2018-09-13T07:49:16.000Z</time>
      </trkpt>
      <trkpt lat="47.99665" lon="6.54722">
        <ele>548</ele>
        <time>2018-09-13T07:49:17.000Z</time>
      </trkpt>
      <trkpt lat="47.99666" lon="6.54721">
        <ele>548</ele>
        <time>2018-09-13T07:49:18.000Z</time>
      </trkpt>
      <trkpt lat="47.99667" lon="6.54719">
        <ele>548</ele>
        <time>2018-09-13T07:49:19.000Z</time>
      </trkpt>
      <trkpt lat="47.99668" lon="6.54717">
        <ele>548</ele>
        <time>2018-09-13T07:49:20.000Z</time>
      </trkpt>
      <trkpt lat="47.99669" lon="6.54715">
        <ele>548</ele>
        <time>2018-09-13T07:49:21.000Z</time>
      </trkpt>
      <trkpt lat="47.99671" lon="6.54714">
        <ele>548</ele>
        <time>2018-09-13T07:49:22.000Z</time>
      </trkpt>
      <trkpt lat="47.99672" lon="6.54712">
        <ele>548</ele>
        <time>2018-09-13T07:49:23.000Z</time>
      </trkpt>
      <trkpt lat="47.99673" lon="6.54711">
        <ele>547</ele>
        <time>2018-09-13T07:49:24.000Z</time>
      </trkpt>
      <trkpt lat="47.99674" lon="6.54709">
        <ele>547</ele>
        <time>2018-09-13T07:49:25.000Z</time>
      </trkpt>
      <trkpt lat="47.99675" lon="6.54708">
        <ele>547</ele>
        <time>2018-09-13T07:49:26.000Z</time>
      </trkpt>
      <trkpt lat="47.99677" lon="6.54707">
        <ele>547</ele>
        <time>2018-09-13T07:49:27.000Z</time>
      </trkpt>
      <trkpt lat="47.99678" lon="6.54705">
        <ele>547</ele>
        <time>2018-09-13T07:49:28.000Z</time>
      </trkpt>
      <trkpt lat="47.99679" lon="6.54703">
        <ele>547</ele>
        <time>2018-09-13T07:49:29.000Z</time>
      </trkpt>
      <trkpt lat="47.9968" lon="6.54701">
        <ele>547</ele>
        <time>2018-09-13T07:49:30.000Z</time>
      </trkpt>
      <trkpt lat="47.99681" lon="6.547">
        <ele>547</ele>
        <time>2018-09-13T07:49:31.000Z</time>
      </trkpt>
      <trkpt lat="47.99682" lon="6.54698">
        <ele>547</ele>
        <time>2018-09-13T07:49:32.000Z</time>
      </trkpt>
      <trkpt lat="47.99683" lon="6.54696">
        <ele>547</ele>
        <time>2018-09-13T07:49:33.000Z</time>
      </trkpt>
      <trkpt lat="47.99684" lon="6.54695">
        <ele>547</ele>
        <time>2018-09-13T07:49:34.000Z</time>
      </trkpt>
      <trkpt lat="47.99686" lon="6.54693">
        <ele>547</ele>
        <time>2018-09-13T07:49:35.000Z</time>
      </trkpt>
      <trkpt lat="47.99687" lon="6.54691">
        <ele>547</ele>
        <time>2018-09-13T07:49:36.000Z</time>
      </trkpt>
      <trkpt lat="47.99688" lon="6.54689">
        <ele>547</ele>
        <time>2018-09-13T07:49:37.000Z</time>
      </trkpt>
      <trkpt lat="47.99689" lon="6.54687">
        <ele>547</ele>
        <time>2018-09-13T07:49:38.000Z</time>
      </trkpt>
      <trkpt lat="47.9969" lon="6.54685">
        <ele>547</ele>
        <time>2018-09-13T07:49:39.000Z</time>
      </trkpt>
      <trkpt lat="47.99691" lon="6.54683">
        <ele>547</ele>
        <time>2018-09-13T07:49:40.000Z</time>
      </trkpt>
      <trkpt lat="47.99692" lon="6.54681">
        <ele>547</ele>
        <time>2018-09-13T07:49:41.000Z</time>
      </trkpt>
      <trkpt lat="47.99693" lon="6.5468">
        <ele>547</ele>
        <time>2018-09-13T07:49:42.000Z</time>
      </trkpt>
      <trkpt lat="47.99695" lon="6.54677">
        <ele>547</ele>
        <time>2018-09-13T07:49:43.000Z</time>
      </trkpt>
      <trkpt lat="47.99696" lon="6.54675">
        <ele>547</ele>
        <time>2018-09-13T07:49:44.000Z</time>
      </trkpt>
      <trkpt lat="47.99697" lon="6.54673">
        <ele>546</ele>
        <time>2018-09-13T07:49:45.000Z</time>
      </trkpt>
      <trkpt lat="47.99698" lon="6.54671">
        <ele>546</ele>
        <time>2018-09-13T07:49:46.000Z</time>
      </trkpt>
      <trkpt lat="47.99699" lon="6.54669">
        <ele>546</ele>
        <time>2018-09-13T07:49:47.000Z</time>
      </trkpt>
      <trkpt lat="47.997" lon="6.54667">
        <ele>546</ele>
        <time>2018-09-13T07:49:48.000Z</time>
      </trkpt>
      <trkpt lat="47.99701" lon="6.54665">
        <ele>546</ele>
        <time>2018-09-13T07:49:49.000Z</time>
      </trkpt>
      <trkpt lat="47.99702" lon="6.54663">
        <ele>546</ele>
        <time>2018-09-13T07:49:50.000Z</time>
      </trkpt>
      <trkpt lat="47.99704" lon="6.54661">
        <ele>546</ele>
        <time>2018-09-13T07:49:51.000Z</time>
      </trkpt>
      <trkpt lat="47.99704" lon="6.54659">
        <ele>546</ele>
        <time>2018-09-13T07:49:52.000Z</time>
      </trkpt>
      <trkpt lat="47.99706" lon="6.54657">
        <ele>546</ele>
        <time>2018-09-13T07:49:53.000Z</time>
      </trkpt>
      <trkpt lat="47.99707" lon="6.54655">
        <ele>546</ele>
        <time>2018-09-13T07:49:54.000Z</time>
      </trkpt>
      <trkpt lat="47.99707" lon="6.54652">
        <ele>546</ele>
        <time>2018-09-13T07:49:55.000Z</time>
      </trkpt>
      <trkpt lat="47.99708" lon="6.5465">
        <ele>546</ele>
        <time>2018-09-13T07:49:56.000Z</time>
      </trkpt>
      <trkpt lat="47.99709" lon="6.54648">
        <ele>546</ele>
        <time>2018-09-13T07:49:57.000Z</time>
      </trkpt>
      <trkpt lat="47.9971" lon="6.54645">
        <ele>546</ele>
        <time>2018-09-13T07:49:58.000Z</time>
      </trkpt>
      <trkpt lat="47.99711" lon="6.54643">
        <ele>546</ele>
        <time>2018-09-13T07:49:59.000Z</time>
      </trkpt>
      <trkpt lat="47.99712" lon="6.54641">
        <ele>546</ele>
        <time>2018-09-13T07:50:00.000Z</time>
      </trkpt>
      <trkpt lat="47.99713" lon="6.54638">
        <ele>546</ele>
        <time>2018-09-13T07:50:01.000Z</time>
      </trkpt>
      <trkpt lat="47.99713" lon="6.54636">
        <ele>546</ele>
        <time>2018-09-13T07:50:02.000Z</time>
      </trkpt>
      <trkpt lat="47.99714" lon="6.54633">
        <ele>546</ele>
        <time>2018-09-13T07:50:03.000Z</time>
      </trkpt>
      <trkpt lat="47.99715" lon="6.54631">
        <ele>546</ele>
        <time>2018-09-13T07:50:04.000Z</time>
      </trkpt>
      <trkpt lat="47.99715" lon="6.54628">
        <ele>546</ele>
        <time>2018-09-13T07:50:05.000Z</time>
      </trkpt>
      <trkpt lat="47.99715" lon="6.54626">
        <ele>546</ele>
        <time>2018-09-13T07:50:06.000Z</time>
      </trkpt>
      <trkpt lat="47.99716" lon="6.54624">
        <ele>546</ele>
        <time>2018-09-13T07:50:07.000Z</time>
      </trkpt>
      <trkpt lat="47.99716" lon="6.54621">
        <ele>546</ele>
        <time>2018-09-13T07:50:08.000Z</time>
      </trkpt>
      <trkpt lat="47.99717" lon="6.54618">
        <ele>546</ele>
        <time>2018-09-13T07:50:09.000Z</time>
      </trkpt>
      <trkpt lat="47.99717" lon="6.54616">
        <ele>546</ele>
        <time>2018-09-13T07:50:10.000Z</time>
      </trkpt>
      <trkpt lat="47.99717" lon="6.54613">
        <ele>546</ele>
        <time>2018-09-13T07:50:11.000Z</time>
      </trkpt>
      <trkpt lat="47.99717" lon="6.5461">
        <ele>546</ele>
        <time>2018-09-13T07:50:12.000Z</time>
      </trkpt>
      <trkpt lat="47.99718" lon="6.54608">
        <ele>546</ele>
        <time>2018-09-13T07:50:13.000Z</time>
      </trkpt>
      <trkpt lat="47.99719" lon="6.54606">
        <ele>546</ele>
        <time>2018-09-13T07:50:14.000Z</time>
      </trkpt>
      <trkpt lat="47.99719" lon="6.54603">
        <ele>546</ele>
        <time>2018-09-13T07:50:15.000Z</time>
      </trkpt>
      <trkpt lat="47.9972" lon="6.54601">
        <ele>546</ele>
        <time>2018-09-13T07:50:16.000Z</time>
      </trkpt>
      <trkpt lat="47.99721" lon="6.54598">
        <ele>546</ele>
        <time>2018-09-13T07:50:17.000Z</time>
      </trkpt>
      <trkpt lat="47.99721" lon="6.54596">
        <ele>546</ele>
        <time>2018-09-13T07:50:18.000Z</time>
      </trkpt>
      <trkpt lat="47.99722" lon="6.54593">
        <ele>546</ele>
        <time>2018-09-13T07:50:19.000Z</time>
      </trkpt>
      <trkpt lat="47.99722" lon="6.54591">
        <ele>546</ele>
        <time>2018-09-13T07:50:20.000Z</time>
      </trkpt>
      <trkpt lat="47.99723" lon="6.54588">
        <ele>546</ele>
        <time>2018-09-13T07:50:21.000Z</time>
      </trkpt>
      <trkpt lat="47.99724" lon="6.54586">
        <ele>546</ele>
        <time>2018-09-13T07:50:22.000Z</time>
      </trkpt>
      <trkpt lat="47.99725" lon="6.54583">
        <ele>547</ele>
        <time>2018-09-13T07:50:23.000Z</time>
      </trkpt>
      <trkpt lat="47.99725" lon="6.54581">
        <ele>547</ele>
        <time>2018-09-13T07:50:24.000Z</time>
      </trkpt>
      <trkpt lat="47.99726" lon="6.54578">
        <ele>547</ele>
        <time>2018-09-13T07:50:25.000Z</time>
      </trkpt>
      <trkpt lat="47.99727" lon="6.54576">
        <ele>547</ele>
        <time>2018-09-13T07:50:26.000Z</time>
      </trkpt>
      <trkpt lat="47.99728" lon="6.54573">
        <ele>547</ele>
        <time>2018-09-13T07:50:27.000Z</time>
      </trkpt>
      <trkpt lat="47.99729" lon="6.54571">
        <ele>547</ele>
        <time>2018-09-13T07:50:28.000Z</time>
      </trkpt>
      <trkpt lat="47.9973" lon="6.54569">
        <ele>547</ele>
        <time>2018-09-13T07:50:29.000Z</time>
      </trkpt>
      <trkpt lat="47.9973" lon="6.54566">
        <ele>547</ele>
        <time>2018-09-13T07:50:30.000Z</time>
      </trkpt>
      <trkpt lat="47.99731" lon="6.54564">
        <ele>547</ele>
        <time>2018-09-13T07:50:31.000Z</time>
      </trkpt>
      <trkpt lat="47.99732" lon="6.54561">
        <ele>547</ele>
        <time>2018-09-13T07:50:32.000Z</time>
      </trkpt>
      <trkpt lat="47.99733" lon="6.54559">
        <ele>547</ele>
        <time>2018-09-13T07:50:33.000Z</time>
      </trkpt>
      <trkpt lat="47.99734" lon="6.54557">
        <ele>547</ele>
        <time>2018-09-13T07:50:34.000Z</time>
      </trkpt>
      <trkpt lat="47.99734" lon="6.54554">
        <ele>547</ele>
        <time>2018-09-13T07:50:35.000Z</time>
      </trkpt>
      <trkpt lat="47.99735" lon="6.54552">
        <ele>547</ele>
        <time>2018-09-13T07:50:36.000Z</time>
      </trkpt>
      <trkpt lat="47.99736" lon="6.5455">
        <ele>547</ele>
        <time>2018-09-13T07:50:37.000Z</time>
      </trkpt>
      <trkpt lat="47.99737" lon="6.54547">
        <ele>547</ele>
        <time>2018-09-13T07:50:38.000Z</time>
      </trkpt>
      <trkpt lat="47.99738" lon="6.54545">
        <ele>547</ele>
        <time>2018-09-13T07:50:39.000Z</time>
      </trkpt>
      <trkpt lat="47.99739" lon="6.54543">
        <ele>547</ele>
        <time>2018-09-13T07:50:40.000Z</time>
      </trkpt>
      <trkpt lat="47.9974" lon="6.5454">
        <ele>547</ele>
        <time>2018-09-13T07:50:41.000Z</time>
      </trkpt>
      <trkpt lat="47.99741" lon="6.54538">
        <ele>547</ele>
        <time>2018-09-13T07:50:42.000Z</time>
      </trkpt>
      <trkpt lat="47.99742" lon="6.54536">
        <ele>547</ele>
        <time>2018-09-13T07:50:43.000Z</time>
      </trkpt>
      <trkpt lat="47.99743" lon="6.54534">
        <ele>547</ele>
        <time>2018-09-13T07:50:44.000Z</time>
      </trkpt>
      <trkpt lat="47.99744" lon="6.54531">
        <ele>547</ele>
        <time>2018-09-13T07:50:45.000Z</time>
      </trkpt>
      <trkpt lat="47.99745" lon="6.54529">
        <ele>547</ele>
        <time>2018-09-13T07:50:46.000Z</time>
      </trkpt>
      <trkpt lat="47.99746" lon="6.54527">
        <ele>547</ele>
        <time>2018-09-13T07:50:47.000Z</time>
      </trkpt>
      <trkpt lat="47.99747" lon="6.54525">
        <ele>547</ele>
        <time>2018-09-13T07:50:48.000Z</time>
      </trkpt>
      <trkpt lat="47.99748" lon="6.54523">
        <ele>547</ele>
        <time>2018-09-13T07:50:49.000Z</time>
      </trkpt>
      <trkpt lat="47.99749" lon="6.5452">
        <ele>547</ele>
        <time>2018-09-13T07:50:50.000Z</time>
      </trkpt>
      <trkpt lat="47.9975" lon="6.54518">
        <ele>547</ele>
        <time>2018-09-13T07:50:51.000Z</time>
      </trkpt>
      <trkpt lat="47.99751" lon="6.54516">
        <ele>547</ele>
        <time>2018-09-13T07:50:52.000Z</time>
      </trkpt>
      <trkpt lat="47.99752" lon="6.54514">
        <ele>547</ele>
        <time>2018-09-13T07:50:53.000Z</time>
      </trkpt>
      <trkpt lat="47.99753" lon="6.54512">
        <ele>547</ele>
        <time>2018-09-13T07:50:54.000Z</time>
      </trkpt>
      <trkpt lat="47.99753" lon="6.54509">
        <ele>547</ele>
        <time>2018-09-13T07:50:55.000Z</time>
      </trkpt>
      <trkpt lat="47.99754" lon="6.54507">
        <ele>547</ele>
        <time>2018-09-13T07:50:56.000Z</time>
      </trkpt>
      <trkpt lat="47.99755" lon="6.54505">
        <ele>547</ele>
        <time>2018-09-13T07:50:57.000Z</time>
      </trkpt>
      <trkpt lat="47.99756" lon="6.54503">
        <ele>547</ele>
        <time>2018-09-13T07:50:58.000Z</time>
      </trkpt>
      <trkpt lat="47.99757" lon="6.54501">
        <ele>547</ele>
        <time>2018-09-13T07:50:59.000Z</time>
      </trkpt>
      <trkpt lat="47.99758" lon="6.54499">
        <ele>547</ele>
        <time>2018-09-13T07:51:00.000Z</time>
      </trkpt>
      <trkpt lat="47.99759" lon="6.54497">
        <ele>547</ele>
        <time>2018-09-13T07:51:01.000Z</time>
      </trkpt>
      <trkpt lat="47.99759" lon="6.54495">
        <ele>547</ele>
        <time>2018-09-13T07:51:02.000Z</time>
      </trkpt>
      <trkpt lat="47.9976" lon="6.54493">
        <ele>547</ele>
        <time>2018-09-13T07:51:03.000Z</time>
      </trkpt>
      <trkpt lat="47.99761" lon="6.54491">
        <ele>547</ele>
        <time>2018-09-13T07:51:04.000Z</time>
      </trkpt>
      <trkpt lat="47.99762" lon="6.54489">
        <ele>547</ele>
        <time>2018-09-13T07:51:05.000Z</time>
      </trkpt>
      <trkpt lat="47.99763" lon="6.54487">
        <ele>547</ele>
        <time>2018-09-13T07:51:06.000Z</time>
      </trkpt>
      <trkpt lat="47.99764" lon="6.54485">
        <ele>547</ele>
        <time>2018-09-13T07:51:07.000Z</time>
      </trkpt>
      <trkpt lat="47.99764" lon="6.54482">
        <ele>547</ele>
        <time>2018-09-13T07:51:08.000Z</time>
      </trkpt>
      <trkpt lat="47.99765" lon="6.5448">
        <ele>547</ele>
        <time>2018-09-13T07:51:09.000Z</time>
      </trkpt>
      <trkpt lat="47.99766" lon="6.54478">
        <ele>547</ele>
        <time>2018-09-13T07:51:10.000Z</time>
      </trkpt>
      <trkpt lat="47.99767" lon="6.54476">
        <ele>547</ele>
        <time>2018-09-13T07:51:11.000Z</time>
      </trkpt>
      <trkpt lat="47.99767" lon="6.54474">
        <ele>547</ele>
        <time>2018-09-13T07:51:12.000Z</time>
      </trkpt>
      <trkpt lat="47.99768" lon="6.54471">
        <ele>547</ele>
        <time>2018-09-13T07:51:13.000Z</time>
      </trkpt>
      <trkpt lat="47.99768" lon="6.54469">
        <ele>547</ele>
        <time>2018-09-13T07:51:14.000Z</time>
      </trkpt>
      <trkpt lat="47.99769" lon="6.54467">
        <ele>547</ele>
        <time>2018-09-13T07:51:15.000Z</time>
      </trkpt>
      <trkpt lat="47.99769" lon="6.54465">
        <ele>547</ele>
        <time>2018-09-13T07:51:16.000Z</time>
      </trkpt>
      <trkpt lat="47.9977" lon="6.54463">
        <ele>547</ele>
        <time>2018-09-13T07:51:17.000Z</time>
      </trkpt>
      <trkpt lat="47.9977" lon="6.5446">
        <ele>547</ele>
        <time>2018-09-13T07:51:18.000Z</time>
      </trkpt>
      <trkpt lat="47.99771" lon="6.5446">
        <ele>547</ele>
        <time>2018-09-13T07:51:19.000Z</time>
      </trkpt>
      <trkpt lat="47.99771" lon="6.5446">
        <ele>547</ele>
        <time>2018-09-13T07:51:20.000Z</time>
      </trkpt>
      <trkpt lat="47.99771" lon="6.54458">
        <ele>547</ele>
        <time>2018-09-13T07:51:21.000Z</time>
      </trkpt>
      <trkpt lat="47.99772" lon="6.54456">
        <ele>547</ele>
        <time>2018-09-13T07:51:22.000Z</time>
      </trkpt>
      <trkpt lat="47.99772" lon="6.54453">
        <ele>547</ele>
        <time>2018-09-13T07:51:23.000Z</time>
      </trkpt>
      <trkpt lat="47.99773" lon="6.54451">
        <ele>547</ele>
        <time>2018-09-13T07:51:24.000Z</time>
      </trkpt>
      <trkpt lat="47.99773" lon="6.54448">
        <ele>547</ele>
        <time>2018-09-13T07:51:25.000Z</time>
      </trkpt>
      <trkpt lat="47.99774" lon="6.54445">
        <ele>547</ele>
        <time>2018-09-13T07:51:26.000Z</time>
      </trkpt>
      <trkpt lat="47.99774" lon="6.54442">
        <ele>547</ele>
        <time>2018-09-13T07:51:27.000Z</time>
      </trkpt>
      <trkpt lat="47.99775" lon="6.5444">
        <ele>547</ele>
        <time>2018-09-13T07:51:28.000Z</time>
      </trkpt>
      <trkpt lat="47.99775" lon="6.54437">
        <ele>547</ele>
        <time>2018-09-13T07:51:29.000Z</time>
      </trkpt>
      <trkpt lat="47.99776" lon="6.54434">
        <ele>547</ele>
        <time>2018-09-13T07:51:30.000Z</time>
      </trkpt>
      <trkpt lat="47.99777" lon="6.54432">
        <ele>547</ele>
        <time>2018-09-13T07:51:31.000Z</time>
      </trkpt>
      <trkpt lat="47.99777" lon="6.54429">
        <ele>547</ele>
        <time>2018-09-13T07:51:32.000Z</time>
      </trkpt>
      <trkpt lat="47.99778" lon="6.54426">
        <ele>547</ele>
        <time>2018-09-13T07:51:33.000Z</time>
      </trkpt>
      <trkpt lat="47.99778" lon="6.54424">
        <ele>547</ele>
        <time>2018-09-13T07:51:34.000Z</time>
      </trkpt>
      <trkpt lat="47.99779" lon="6.54421">
        <ele>547</ele>
        <time>2018-09-13T07:51:35.000Z</time>
      </trkpt>
      <trkpt lat="47.99779" lon="6.54419">
        <ele>547</ele>
        <time>2018-09-13T07:51:36.000Z</time>
      </trkpt>
      <trkpt lat="47.9978" lon="6.54416">
        <ele>547</ele>
        <time>2018-09-13T07:51:37.000Z</time>
      </trkpt>
      <trkpt lat="47.9978" lon="6.54414">
        <ele>547</ele>
        <time>2018-09-13T07:51:38.000Z</time>
      </trkpt>
      <trkpt lat="47.99781" lon="6.54411">
        <ele>547</ele>
        <time>2018-09-13T07:51:39.000Z</time>
      </trkpt>
      <trkpt lat="47.99781" lon="6.54409">
        <ele>547</ele>
        <time>2018-09-13T07:51:40.000Z</time>
      </trkpt>
      <trkpt lat="47.99781" lon="6.54406">
        <ele>547</ele>
        <time>2018-09-13T07:51:41.000Z</time>
      </trkpt>
      <trkpt lat="47.99782" lon="6.54404">
        <ele>547</ele>
        <time>2018-09-13T07:51:42.000Z</time>
      </trkpt>
      <trkpt lat="47.99782" lon="6.54401">
        <ele>547</ele>
        <time>2018-09-13T07:51:43.000Z</time>
      </trkpt>
      <trkpt lat="47.99783" lon="6.54399">
        <ele>547</ele>
        <time>2018-09-13T07:51:44.000Z</time>
      </trkpt>
      <trkpt lat="47.99783" lon="6.54396">
        <ele>547</ele>
        <time>2018-09-13T07:51:45.000Z</time>
      </trkpt>
      <trkpt lat="47.99784" lon="6.54393">
        <ele>547</ele>
        <time>2018-09-13T07:51:46.000Z</time>
      </trkpt>
      <trkpt lat="47.99784" lon="6.54391">
        <ele>547</ele>
        <time>2018-09-13T07:51:47.000Z</time>
      </trkpt>
      <trkpt lat="47.99785" lon="6.54388">
        <ele>547</ele>
        <time>2018-09-13T07:51:48.000Z</time>
      </trkpt>
      <trkpt lat="47.99786" lon="6.54386">
        <ele>547</ele>
        <time>2018-09-13T07:51:49.000Z</time>
      </trkpt>
      <trkpt lat="47.99786" lon="6.54384">
        <ele>547</ele>
        <time>2018-09-13T07:51:50.000Z</time>
      </trkpt>
      <trkpt lat="47.99787" lon="6.54381">
        <ele>547</ele>
        <time>2018-09-13T07:51:51.000Z</time>
      </trkpt>
      <trkpt lat="47.99787" lon="6.54379">
        <ele>547</ele>
        <time>2018-09-13T07:51:52.000Z</time>
      </trkpt>
      <trkpt lat="47.99788" lon="6.54377">
        <ele>548</ele>
        <time>2018-09-13T07:51:53.000Z</time>
      </trkpt>
      <trkpt lat="47.99788" lon="6.54374">
        <ele>548</ele>
        <time>2018-09-13T07:51:54.000Z</time>
      </trkpt>
      <trkpt lat="47.99789" lon="6.54372">
        <ele>548</ele>
        <time>2018-09-13T07:51:55.000Z</time>
      </trkpt>
      <trkpt lat="47.99789" lon="6.5437">
        <ele>548</ele>
        <time>2018-09-13T07:51:56.000Z</time>
      </trkpt>
      <trkpt lat="47.9979" lon="6.54368">
        <ele>548</ele>
        <time>2018-09-13T07:51:57.000Z</time>
      </trkpt>
      <trkpt lat="47.9979" lon="6.54365">
        <ele>548</ele>
        <time>2018-09-13T07:51:58.000Z</time>
      </trkpt>
      <trkpt lat="47.9979" lon="6.54363">
        <ele>548</ele>
        <time>2018-09-13T07:51:59.000Z</time>
      </trkpt>
      <trkpt lat="47.99791" lon="6.54361">
        <ele>548</ele>
        <time>2018-09-13T07:52:00.000Z</time>
      </trkpt>
      <trkpt lat="47.99791" lon="6.54359">
        <ele>549</ele>
        <time>2018-09-13T07:52:01.000Z</time>
      </trkpt>
      <trkpt lat="47.99792" lon="6.54357">
        <ele>549</ele>
        <time>2018-09-13T07:52:02.000Z</time>
      </trkpt>
      <trkpt lat="47.99792" lon="6.54355">
        <ele>549</ele>
        <time>2018-09-13T07:52:03.000Z</time>
      </trkpt>
      <trkpt lat="47.99793" lon="6.54353">
        <ele>549</ele>
        <time>2018-09-13T07:52:04.000Z</time>
      </trkpt>
      <trkpt lat="47.99794" lon="6.54351">
        <ele>549</ele>
        <time>2018-09-13T07:52:05.000Z</time>
      </trkpt>
      <trkpt lat="47.99795" lon="6.54349">
        <ele>549</ele>
        <time>2018-09-13T07:52:06.000Z</time>
      </trkpt>
      <trkpt lat="47.99796" lon="6.54348">
        <ele>549</ele>
        <time>2018-09-13T07:52:07.000Z</time>
      </trkpt>
      <trkpt lat="47.99797" lon="6.54347">
        <ele>549</ele>
        <time>2018-09-13T07:52:08.000Z</time>
      </trkpt>
      <trkpt lat="47.99799" lon="6.54346">
        <ele>549</ele>
        <time>2018-09-13T07:52:09.000Z</time>
      </trkpt>
      <trkpt lat="47.998" lon="6.54346">
        <ele>549</ele>
        <time>2018-09-13T07:52:10.000Z</time>
      </trkpt>
      <trkpt lat="47.99801" lon="6.54346">
        <ele>549</ele>
        <time>2018-09-13T07:52:11.000Z</time>
      </trkpt>
      <trkpt lat="47.99802" lon="6.54346">
        <ele>549</ele>
        <time>2018-09-13T07:52:12.000Z</time>
      </trkpt>
      <trkpt lat="47.99804" lon="6.54346">
        <ele>549</ele>
        <time>2018-09-13T07:52:13.000Z</time>
      </trkpt>
      <trkpt lat="47.99805" lon="6.54346">
        <ele>549</ele>
        <time>2018-09-13T07:52:14.000Z</time>
      </trkpt>
      <trkpt lat="47.99807" lon="6.54346">
        <ele>549</ele>
        <time>2018-09-13T07:52:15.000Z</time>
      </trkpt>
      <trkpt lat="47.99808" lon="6.54346">
        <ele>549</ele>
        <time>2018-09-13T07:52:16.000Z</time>
      </trkpt>
      <trkpt lat="47.9981" lon="6.54346">
        <ele>549</ele>
        <time>2018-09-13T07:52:17.000Z</time>
      </trkpt>
      <trkpt lat="47.99811" lon="6.54346">
        <ele>549</ele>
        <time>2018-09-13T07:52:18.000Z</time>
      </trkpt>
      <trkpt lat="47.99813" lon="6.54346">
        <ele>549</ele>
        <time>2018-09-13T07:52:19.000Z</time>
      </trkpt>
      <trkpt lat="47.99814" lon="6.54347">
        <ele>549</ele>
        <time>2018-09-13T07:52:20.000Z</time>
      </trkpt>
      <trkpt lat="47.99816" lon="6.54347">
        <ele>549</ele>
        <time>2018-09-13T07:52:21.000Z</time>
      </trkpt>
      <trkpt lat="47.99818" lon="6.54347">
        <ele>549</ele>
        <time>2018-09-13T07:52:22.000Z</time>
      </trkpt>
      <trkpt lat="47.99819" lon="6.54348">
        <ele>549</ele>
        <time>2018-09-13T07:52:23.000Z</time>
      </trkpt>
      <trkpt lat="47.9982" lon="6.54349">
        <ele>549</ele>
        <time>2018-09-13T07:52:24.000Z</time>
      </trkpt>
      <trkpt lat="47.99822" lon="6.54349">
        <ele>549</ele>
        <time>2018-09-13T07:52:25.000Z</time>
      </trkpt>
      <trkpt lat="47.99823" lon="6.54349">
        <ele>549</ele>
        <time>2018-09-13T07:52:26.000Z</time>
      </trkpt>
      <trkpt lat="47.99824" lon="6.5435">
        <ele>550</ele>
        <time>2018-09-13T07:52:27.000Z</time>
      </trkpt>
      <trkpt lat="47.99825" lon="6.5435">
        <ele>550</ele>
        <time>2018-09-13T07:52:28.000Z</time>
      </trkpt>
      <trkpt lat="47.99827" lon="6.5435">
        <ele>550</ele>
        <time>2018-09-13T07:52:29.000Z</time>
      </trkpt>
      <trkpt lat="47.99828" lon="6.54351">
        <ele>550</ele>
        <time>2018-09-13T07:52:30.000Z</time>
      </trkpt>
      <trkpt lat="47.99829" lon="6.54351">
        <ele>550</ele>
        <time>2018-09-13T07:52:31.000Z</time>
      </trkpt>
      <trkpt lat="47.99831" lon="6.54351">
        <ele>550</ele>
        <time>2018-09-13T07:52:32.000Z</time>
      </trkpt>
      <trkpt lat="47.99832" lon="6.54352">
        <ele>550</ele>
        <time>2018-09-13T07:52:33.000Z</time>
      </trkpt>
      <trkpt lat="47.99833" lon="6.54352">
        <ele>550</ele>
        <time>2018-09-13T07:52:34.000Z</time>
      </trkpt>
      <trkpt lat="47.99834" lon="6.54352">
        <ele>550</ele>
        <time>2018-09-13T07:52:35.000Z</time>
      </trkpt>
      <trkpt lat="47.99836" lon="6.54352">
        <ele>550</ele>
        <time>2018-09-13T07:52:36.000Z</time>
      </trkpt>
      <trkpt lat="47.99837" lon="6.54352">
        <ele>550</ele>
        <time>2018-09-13T07:52:37.000Z</time>
      </trkpt>
      <trkpt lat="47.99838" lon="6.54352">
        <ele>551</ele>
        <time>2018-09-13T07:52:38.000Z</time>
      </trkpt>
      <trkpt lat="47.99839" lon="6.54352">
        <ele>551</ele>
        <time>2018-09-13T07:52:39.000Z</time>
      </trkpt>
      <trkpt lat="47.99841" lon="6.54352">
        <ele>551</ele>
        <time>2018-09-13T07:52:40.000Z</time>
      </trkpt>
      <trkpt lat="47.99842" lon="6.54353">
        <ele>551</ele>
        <time>2018-09-13T07:52:41.000Z</time>
      </trkpt>
      <trkpt lat="47.99843" lon="6.54353">
        <ele>551</ele>
        <time>2018-09-13T07:52:42.000Z</time>
      </trkpt>
      <trkpt lat="47.99845" lon="6.54353">
        <ele>551</ele>
        <time>2018-09-13T07:52:43.000Z</time>
      </trkpt>
      <trkpt lat="47.99846" lon="6.54353">
        <ele>551</ele>
        <time>2018-09-13T07:52:44.000Z</time>
      </trkpt>
      <trkpt lat="47.99847" lon="6.54353">
        <ele>551</ele>
        <time>2018-09-13T07:52:45.000Z</time>
      </trkpt>
      <trkpt lat="47.99848" lon="6.54354">
        <ele>551</ele>
        <time>2018-09-13T07:52:46.000Z</time>
      </trkpt>
      <trkpt lat="47.9985" lon="6.54354">
        <ele>551</ele>
        <time>2018-09-13T07:52:47.000Z</time>
      </trkpt>
      <trkpt lat="47.99851" lon="6.54354">
        <ele>551</ele>
        <time>2018-09-13T07:52:48.000Z</time>
      </trkpt>
      <trkpt lat="47.99852" lon="6.54355">
        <ele>551</ele>
        <time>2018-09-13T07:52:49.000Z</time>
      </trkpt>
      <trkpt lat="47.99854" lon="6.54356">
        <ele>552</ele>
        <time>2018-09-13T07:52:50.000Z</time>
      </trkpt>
      <trkpt lat="47.99856" lon="6.54356">
        <ele>552</ele>
        <time>2018-09-13T07:52:51.000Z</time>
      </trkpt>
      <trkpt lat="47.99857" lon="6.54357">
        <ele>552</ele>
        <time>2018-09-13T07:52:52.000Z</time>
      </trkpt>
      <trkpt lat="47.99859" lon="6.54358">
        <ele>552</ele>
        <time>2018-09-13T07:52:53.000Z</time>
      </trkpt>
      <trkpt lat="47.9986" lon="6.54359">
        <ele>552</ele>
        <time>2018-09-13T07:52:54.000Z</time>
      </trkpt>
      <trkpt lat="47.99862" lon="6.5436">
        <ele>552</ele>
        <time>2018-09-13T07:52:55.000Z</time>
      </trkpt>
      <trkpt lat="47.99864" lon="6.54361">
        <ele>552</ele>
        <time>2018-09-13T07:52:56.000Z</time>
      </trkpt>
      <trkpt lat="47.99865" lon="6.54361">
        <ele>552</ele>
        <time>2018-09-13T07:52:57.000Z</time>
      </trkpt>
      <trkpt lat="47.99867" lon="6.54362">
        <ele>552</ele>
        <time>2018-09-13T07:52:58.000Z</time>
      </trkpt>
      <trkpt lat="47.99869" lon="6.54363">
        <ele>552</ele>
        <time>2018-09-13T07:52:59.000Z</time>
      </trkpt>
      <trkpt lat="47.9987" lon="6.54363">
        <ele>552</ele>
        <time>2018-09-13T07:53:00.000Z</time>
      </trkpt>
      <trkpt lat="47.99872" lon="6.54364">
        <ele>552</ele>
        <time>2018-09-13T07:53:01.000Z</time>
      </trkpt>
      <trkpt lat="47.99873" lon="6.54364">
        <ele>552</ele>
        <time>2018-09-13T07:53:02.000Z</time>
      </trkpt>
      <trkpt lat="47.99875" lon="6.54365">
        <ele>552</ele>
        <time>2018-09-13T07:53:03.000Z</time>
      </trkpt>
      <trkpt lat="47.99877" lon="6.54365">
        <ele>553</ele>
        <time>2018-09-13T07:53:04.000Z</time>
      </trkpt>
      <trkpt lat="47.99878" lon="6.54366">
        <ele>553</ele>
        <time>2018-09-13T07:53:05.000Z</time>
      </trkpt>
      <trkpt lat="47.99879" lon="6.54366">
        <ele>553</ele>
        <time>2018-09-13T07:53:06.000Z</time>
      </trkpt>
      <trkpt lat="47.99881" lon="6.54367">
        <ele>553</ele>
        <time>2018-09-13T07:53:07.000Z</time>
      </trkpt>
      <trkpt lat="47.99882" lon="6.54367">
        <ele>553</ele>
        <time>2018-09-13T07:53:08.000Z</time>
      </trkpt>
      <trkpt lat="47.99883" lon="6.54367">
        <ele>553</ele>
        <time>2018-09-13T07:53:09.000Z</time>
      </trkpt>
      <trkpt lat="47.99885" lon="6.54368">
        <ele>553</ele>
        <time>2018-09-13T07:53:10.000Z</time>
      </trkpt>
      <trkpt lat="47.99886" lon="6.54368">
        <ele>553</ele>
        <time>2018-09-13T07:53:11.000Z</time>
      </trkpt>
      <trkpt lat="47.99887" lon="6.54369">
        <ele>553</ele>
        <time>2018-09-13T07:53:12.000Z</time>
      </trkpt>
      <trkpt lat="47.99889" lon="6.5437">
        <ele>553</ele>
        <time>2018-09-13T07:53:13.000Z</time>
      </trkpt>
      <trkpt lat="47.9989" lon="6.5437">
        <ele>553</ele>
        <time>2018-09-13T07:53:14.000Z</time>
      </trkpt>
      <trkpt lat="47.99892" lon="6.54371">
        <ele>553</ele>
        <time>2018-09-13T07:53:15.000Z</time>
      </trkpt>
      <trkpt lat="47.99893" lon="6.54371">
        <ele>553</ele>
        <time>2018-09-13T07:53:16.000Z</time>
      </trkpt>
      <trkpt lat="47.99895" lon="6.54372">
        <ele>553</ele>
        <time>2018-09-13T07:53:17.000Z</time>
      </trkpt>
      <trkpt lat="47.99896" lon="6.54372">
        <ele>553</ele>
        <time>2018-09-13T07:53:18.000Z</time>
      </trkpt>
      <trkpt lat="47.99897" lon="6.54372">
        <ele>553</ele>
        <time>2018-09-13T07:53:19.000Z</time>
      </trkpt>
      <trkpt lat="47.99898" lon="6.54373">
        <ele>553</ele>
        <time>2018-09-13T07:53:20.000Z</time>
      </trkpt>
      <trkpt lat="47.999" lon="6.54373">
        <ele>553</ele>
        <time>2018-09-13T07:53:21.000Z</time>
      </trkpt>
      <trkpt lat="47.99901" lon="6.54374">
        <ele>553</ele>
        <time>2018-09-13T07:53:22.000Z</time>
      </trkpt>
      <trkpt lat="47.99903" lon="6.54374">
        <ele>553</ele>
        <time>2018-09-13T07:53:23.000Z</time>
      </trkpt>
      <trkpt lat="47.99904" lon="6.54375">
        <ele>553</ele>
        <time>2018-09-13T07:53:24.000Z</time>
      </trkpt>
      <trkpt lat="47.99906" lon="6.54375">
        <ele>553</ele>
        <time>2018-09-13T07:53:25.000Z</time>
      </trkpt>
      <trkpt lat="47.99907" lon="6.54376">
        <ele>553</ele>
        <time>2018-09-13T07:53:26.000Z</time>
      </trkpt>
      <trkpt lat="47.99909" lon="6.54376">
        <ele>553</ele>
        <time>2018-09-13T07:53:27.000Z</time>
      </trkpt>
      <trkpt lat="47.9991" lon="6.54377">
        <ele>553</ele>
        <time>2018-09-13T07:53:28.000Z</time>
      </trkpt>
      <trkpt lat="47.99912" lon="6.54377">
        <ele>553</ele>
        <time>2018-09-13T07:53:29.000Z</time>
      </trkpt>
      <trkpt lat="47.99913" lon="6.54378">
        <ele>553</ele>
        <time>2018-09-13T07:53:30.000Z</time>
      </trkpt>
      <trkpt lat="47.99915" lon="6.54379">
        <ele>553</ele>
        <time>2018-09-13T07:53:31.000Z</time>
      </trkpt>
      <trkpt lat="47.99917" lon="6.5438">
        <ele>553</ele>
        <time>2018-09-13T07:53:32.000Z</time>
      </trkpt>
      <trkpt lat="47.99918" lon="6.54381">
        <ele>553</ele>
        <time>2018-09-13T07:53:33.000Z</time>
      </trkpt>
      <trkpt lat="47.9992" lon="6.54382">
        <ele>553</ele>
        <time>2018-09-13T07:53:34.000Z</time>
      </trkpt>
      <trkpt lat="47.99921" lon="6.54382">
        <ele>553</ele>
        <time>2018-09-13T07:53:35.000Z</time>
      </trkpt>
      <trkpt lat="47.99923" lon="6.54383">
        <ele>553</ele>
        <time>2018-09-13T07:53:36.000Z</time>
      </trkpt>
      <trkpt lat="47.99925" lon="6.54385">
        <ele>553</ele>
        <time>2018-09-13T07:53:37.000Z</time>
      </trkpt>
      <trkpt lat="47.99927" lon="6.54386">
        <ele>553</ele>
        <time>2018-09-13T07:53:38.000Z</time>
      </trkpt>
      <trkpt lat="47.99929" lon="6.54387">
        <ele>553</ele>
        <time>2018-09-13T07:53:39.000Z</time>
      </trkpt>
      <trkpt lat="47.99931" lon="6.54389">
        <ele>553</ele>
        <time>2018-09-13T07:53:40.000Z</time>
      </trkpt>
      <trkpt lat="47.99933" lon="6.5439">
        <ele>553</ele>
        <time>2018-09-13T07:53:41.000Z</time>
      </trkpt>
      <trkpt lat="47.99935" lon="6.54391">
        <ele>553</ele>
        <time>2018-09-13T07:53:42.000Z</time>
      </trkpt>
      <trkpt lat="47.99937" lon="6.54393">
        <ele>553</ele>
        <time>2018-09-13T07:53:43.000Z</time>
      </trkpt>
      <trkpt lat="47.99939" lon="6.54394">
        <ele>554</ele>
        <time>2018-09-13T07:53:44.000Z</time>
      </trkpt>
      <trkpt lat="47.99941" lon="6.54395">
        <ele>554</ele>
        <time>2018-09-13T07:53:45.000Z</time>
      </trkpt>
      <trkpt lat="47.99943" lon="6.54396">
        <ele>554</ele>
        <time>2018-09-13T07:53:46.000Z</time>
      </trkpt>
      <trkpt lat="47.99945" lon="6.54396">
        <ele>554</ele>
        <time>2018-09-13T07:53:47.000Z</time>
      </trkpt>
      <trkpt lat="47.99946" lon="6.54397">
        <ele>554</ele>
        <time>2018-09-13T07:53:48.000Z</time>
      </trkpt>
      <trkpt lat="47.99948" lon="6.54398">
        <ele>554</ele>
        <time>2018-09-13T07:53:49.000Z</time>
      </trkpt>
      <trkpt lat="47.99949" lon="6.544">
        <ele>554</ele>
        <time>2018-09-13T07:53:50.000Z</time>
      </trkpt>
      <trkpt lat="47.99951" lon="6.54401">
        <ele>554</ele>
        <time>2018-09-13T07:53:51.000Z</time>
      </trkpt>
      <trkpt lat="47.99952" lon="6.54402">
        <ele>554</ele>
        <time>2018-09-13T07:53:52.000Z</time>
      </trkpt>
      <trkpt lat="47.99953" lon="6.54403">
        <ele>554</ele>
        <time>2018-09-13T07:53:53.000Z</time>
      </trkpt>
      <trkpt lat="47.99954" lon="6.54404">
        <ele>554</ele>
        <time>2018-09-13T07:53:54.000Z</time>
      </trkpt>
      <trkpt lat="47.99956" lon="6.54405">
        <ele>554</ele>
        <time>2018-09-13T07:53:55.000Z</time>
      </trkpt>
      <trkpt lat="47.99957" lon="6.54406">
        <ele>554</ele>
        <time>2018-09-13T07:53:56.000Z</time>
      </trkpt>
      <trkpt lat="47.99958" lon="6.54407">
        <ele>554</ele>
        <time>2018-09-13T07:53:57.000Z</time>
      </trkpt>
      <trkpt lat="47.9996" lon="6.54408">
        <ele>554</ele>
        <time>2018-09-13T07:53:58.000Z</time>
      </trkpt>
      <trkpt lat="47.99961" lon="6.54409">
        <ele>554</ele>
        <time>2018-09-13T07:53:59.000Z</time>
      </trkpt>
      <trkpt lat="47.99962" lon="6.54409">
        <ele>554</ele>
        <time>2018-09-13T07:54:00.000Z</time>
      </trkpt>
      <trkpt lat="47.99963" lon="6.5441">
        <ele>554</ele>
        <time>2018-09-13T07:54:01.000Z</time>
      </trkpt>
      <trkpt lat="47.99965" lon="6.54411">
        <ele>554</ele>
        <time>2018-09-13T07:54:02.000Z</time>
      </trkpt>
      <trkpt lat="47.99966" lon="6.54411">
        <ele>554</ele>
        <time>2018-09-13T07:54:03.000Z</time>
      </trkpt>
      <trkpt lat="47.99968" lon="6.54412">
        <ele>554</ele>
        <time>2018-09-13T07:54:04.000Z</time>
      </trkpt>
      <trkpt lat="47.99969" lon="6.54413">
        <ele>554</ele>
        <time>2018-09-13T07:54:05.000Z</time>
      </trkpt>
      <trkpt lat="47.99971" lon="6.54414">
        <ele>554</ele>
        <time>2018-09-13T07:54:06.000Z</time>
      </trkpt>
      <trkpt lat="47.99973" lon="6.54415">
        <ele>554</ele>
        <time>2018-09-13T07:54:07.000Z</time>
      </trkpt>
      <trkpt lat="47.99974" lon="6.54415">
        <ele>555</ele>
        <time>2018-09-13T07:54:08.000Z</time>
      </trkpt>
      <trkpt lat="47.99975" lon="6.54416">
        <ele>555</ele>
        <time>2018-09-13T07:54:09.000Z</time>
      </trkpt>
      <trkpt lat="47.99977" lon="6.54417">
        <ele>555</ele>
        <time>2018-09-13T07:54:10.000Z</time>
      </trkpt>
      <trkpt lat="47.99979" lon="6.54418">
        <ele>555</ele>
        <time>2018-09-13T07:54:11.000Z</time>
      </trkpt>
      <trkpt lat="47.9998" lon="6.54419">
        <ele>555</ele>
        <time>2018-09-13T07:54:12.000Z</time>
      </trkpt>
      <trkpt lat="47.99982" lon="6.5442">
        <ele>555</ele>
        <time>2018-09-13T07:54:13.000Z</time>
      </trkpt>
      <trkpt lat="47.99983" lon="6.54421">
        <ele>555</ele>
        <time>2018-09-13T07:54:14.000Z</time>
      </trkpt>
      <trkpt lat="47.99985" lon="6.54422">
        <ele>555</ele>
        <time>2018-09-13T07:54:15.000Z</time>
      </trkpt>
      <trkpt lat="47.99987" lon="6.54423">
        <ele>555</ele>
        <time>2018-09-13T07:54:16.000Z</time>
      </trkpt>
      <trkpt lat="47.99989" lon="6.54424">
        <ele>555</ele>
        <time>2018-09-13T07:54:17.000Z</time>
      </trkpt>
      <trkpt lat="47.99991" lon="6.54425">
        <ele>555</ele>
        <time>2018-09-13T07:54:18.000Z</time>
      </trkpt>
      <trkpt lat="47.99993" lon="6.54425">
        <ele>555</ele>
        <time>2018-09-13T07:54:19.000Z</time>
      </trkpt>
      <trkpt lat="47.99994" lon="6.54426">
        <ele>555</ele>
        <time>2018-09-13T07:54:20.000Z</time>
      </trkpt>
      <trkpt lat="47.99996" lon="6.54426">
        <ele>555</ele>
        <time>2018-09-13T07:54:21.000Z</time>
      </trkpt>
      <trkpt lat="47.99998" lon="6.54426">
        <ele>555</ele>
        <time>2018-09-13T07:54:22.000Z</time>
      </trkpt>
      <trkpt lat="48" lon="6.54427">
        <ele>555</ele>
        <time>2018-09-13T07:54:23.000Z</time>
      </trkpt>
      <trkpt lat="48.00002" lon="6.54428">
        <ele>555</ele>
        <time>2018-09-13T07:54:24.000Z</time>
      </trkpt>
      <trkpt lat="48.00004" lon="6.54428">
        <ele>554</ele>
        <time>2018-09-13T07:54:25.000Z</time>
      </trkpt>
      <trkpt lat="48.00005" lon="6.54429">
        <ele>554</ele>
        <time>2018-09-13T07:54:26.000Z</time>
      </trkpt>
      <trkpt lat="48.00007" lon="6.54429">
        <ele>554</ele>
        <time>2018-09-13T07:54:27.000Z</time>
      </trkpt>
      <trkpt lat="48.00009" lon="6.54429">
        <ele>554</ele>
        <time>2018-09-13T07:54:28.000Z</time>
      </trkpt>
      <trkpt lat="48.0001" lon="6.5443">
        <ele>554</ele>
        <time>2018-09-13T07:54:29.000Z</time>
      </trkpt>
      <trkpt lat="48.00012" lon="6.5443">
        <ele>554</ele>
        <time>2018-09-13T07:54:30.000Z</time>
      </trkpt>
      <trkpt lat="48.00014" lon="6.5443">
        <ele>554</ele>
        <time>2018-09-13T07:54:31.000Z</time>
      </trkpt>
      <trkpt lat="48.00016" lon="6.54431">
        <ele>554</ele>
        <time>2018-09-13T07:54:32.000Z</time>
      </trkpt>
      <trkpt lat="48.00017" lon="6.54431">
        <ele>554</ele>
        <time>2018-09-13T07:54:33.000Z</time>
      </trkpt>
      <trkpt lat="48.00019" lon="6.54432">
        <ele>554</ele>
        <time>2018-09-13T07:54:34.000Z</time>
      </trkpt>
      <trkpt lat="48.00021" lon="6.54432">
        <ele>554</ele>
        <time>2018-09-13T07:54:35.000Z</time>
      </trkpt>
      <trkpt lat="48.00022" lon="6.54432">
        <ele>554</ele>
        <time>2018-09-13T07:54:36.000Z</time>
      </trkpt>
      <trkpt lat="48.00024" lon="6.54433">
        <ele>554</ele>
        <time>2018-09-13T07:54:37.000Z</time>
      </trkpt>
      <trkpt lat="48.00026" lon="6.54433">
        <ele>554</ele>
        <time>2018-09-13T07:54:38.000Z</time>
      </trkpt>
      <trkpt lat="48.00028" lon="6.54434">
        <ele>554</ele>
        <time>2018-09-13T07:54:39.000Z</time>
      </trkpt>
      <trkpt lat="48.00029" lon="6.54434">
        <ele>554</ele>
        <time>2018-09-13T07:54:40.000Z</time>
      </trkpt>
      <trkpt lat="48.00031" lon="6.54435">
        <ele>554</ele>
        <time>2018-09-13T07:54:41.000Z</time>
      </trkpt>
      <trkpt lat="48.00032" lon="6.54435">
        <ele>554</ele>
        <time>2018-09-13T07:54:42.000Z</time>
      </trkpt>
      <trkpt lat="48.00033" lon="6.54436">
        <ele>554</ele>
        <time>2018-09-13T07:54:43.000Z</time>
      </trkpt>
      <trkpt lat="48.00035" lon="6.54437">
        <ele>554</ele>
        <time>2018-09-13T07:54:44.000Z</time>
      </trkpt>
      <trkpt lat="48.00036" lon="6.54437">
        <ele>554</ele>
        <time>2018-09-13T07:54:45.000Z</time>
      </trkpt>
      <trkpt lat="48.00037" lon="6.54438">
        <ele>554</ele>
        <time>2018-09-13T07:54:46.000Z</time>
      </trkpt>
      <trkpt lat="48.00039" lon="6.54439">
        <ele>554</ele>
        <time>2018-09-13T07:54:47.000Z</time>
      </trkpt>
      <trkpt lat="48.0004" lon="6.54439">
        <ele>554</ele>
        <time>2018-09-13T07:54:48.000Z</time>
      </trkpt>
      <trkpt lat="48.00042" lon="6.5444">
        <ele>554</ele>
        <time>2018-09-13T07:54:49.000Z</time>
      </trkpt>
      <trkpt lat="48.00043" lon="6.5444">
        <ele>554</ele>
        <time>2018-09-13T07:54:50.000Z</time>
      </trkpt>
      <trkpt lat="48.00045" lon="6.54441">
        <ele>554</ele>
        <time>2018-09-13T07:54:51.000Z</time>
      </trkpt>
      <trkpt lat="48.00047" lon="6.54441">
        <ele>555</ele>
        <time>2018-09-13T07:54:52.000Z</time>
      </trkpt>
      <trkpt lat="48.00049" lon="6.54441">
        <ele>555</ele>
        <time>2018-09-13T07:54:53.000Z</time>
      </trkpt>
      <trkpt lat="48.00051" lon="6.54442">
        <ele>555</ele>
        <time>2018-09-13T07:54:54.000Z</time>
      </trkpt>
      <trkpt lat="48.00053" lon="6.54442">
        <ele>555</ele>
        <time>2018-09-13T07:54:55.000Z</time>
      </trkpt>
      <trkpt lat="48.00054" lon="6.54442">
        <ele>555</ele>
        <time>2018-09-13T07:54:56.000Z</time>
      </trkpt>
      <trkpt lat="48.00056" lon="6.54442">
        <ele>555</ele>
        <time>2018-09-13T07:54:57.000Z</time>
      </trkpt>
      <trkpt lat="48.00058" lon="6.54442">
        <ele>555</ele>
        <time>2018-09-13T07:54:58.000Z</time>
      </trkpt>
      <trkpt lat="48.0006" lon="6.54442">
        <ele>555</ele>
        <time>2018-09-13T07:54:59.000Z</time>
      </trkpt>
      <trkpt lat="48.00061" lon="6.54442">
        <ele>555</ele>
        <time>2018-09-13T07:55:00.000Z</time>
      </trkpt>
      <trkpt lat="48.00063" lon="6.54442">
        <ele>555</ele>
        <time>2018-09-13T07:55:01.000Z</time>
      </trkpt>
      <trkpt lat="48.00064" lon="6.54442">
        <ele>555</ele>
        <time>2018-09-13T07:55:02.000Z</time>
      </trkpt>
      <trkpt lat="48.00065" lon="6.54442">
        <ele>556</ele>
        <time>2018-09-13T07:55:03.000Z</time>
      </trkpt>
      <trkpt lat="48.00067" lon="6.54442">
        <ele>556</ele>
        <time>2018-09-13T07:55:04.000Z</time>
      </trkpt>
      <trkpt lat="48.00068" lon="6.54442">
        <ele>556</ele>
        <time>2018-09-13T07:55:05.000Z</time>
      </trkpt>
      <trkpt lat="48.0007" lon="6.54442">
        <ele>556</ele>
        <time>2018-09-13T07:55:06.000Z</time>
      </trkpt>
      <trkpt lat="48.00071" lon="6.54442">
        <ele>556</ele>
        <time>2018-09-13T07:55:07.000Z</time>
      </trkpt>
      <trkpt lat="48.00073" lon="6.54442">
        <ele>556</ele>
        <time>2018-09-13T07:55:08.000Z</time>
      </trkpt>
      <trkpt lat="48.00075" lon="6.54441">
        <ele>556</ele>
        <time>2018-09-13T07:55:09.000Z</time>
      </trkpt>
      <trkpt lat="48.00076" lon="6.54441">
        <ele>556</ele>
        <time>2018-09-13T07:55:10.000Z</time>
      </trkpt>
      <trkpt lat="48.00077" lon="6.54441">
        <ele>556</ele>
        <time>2018-09-13T07:55:11.000Z</time>
      </trkpt>
      <trkpt lat="48.00079" lon="6.54441">
        <ele>557</ele>
        <time>2018-09-13T07:55:12.000Z</time>
      </trkpt>
      <trkpt lat="48.0008" lon="6.5444">
        <ele>557</ele>
        <time>2018-09-13T07:55:13.000Z</time>
      </trkpt>
      <trkpt lat="48.00081" lon="6.5444">
        <ele>557</ele>
        <time>2018-09-13T07:55:14.000Z</time>
      </trkpt>
      <trkpt lat="48.00082" lon="6.5444">
        <ele>557</ele>
        <time>2018-09-13T07:55:15.000Z</time>
      </trkpt>
      <trkpt lat="48.00084" lon="6.54439">
        <ele>557</ele>
        <time>2018-09-13T07:55:16.000Z</time>
      </trkpt>
      <trkpt lat="48.00085" lon="6.54439">
        <ele>557</ele>
        <time>2018-09-13T07:55:17.000Z</time>
      </trkpt>
      <trkpt lat="48.00086" lon="6.54438">
        <ele>557</ele>
        <time>2018-09-13T07:55:18.000Z</time>
      </trkpt>
      <trkpt lat="48.00088" lon="6.54437">
        <ele>557</ele>
        <time>2018-09-13T07:55:19.000Z</time>
      </trkpt>
      <trkpt lat="48.00089" lon="6.54437">
        <ele>557</ele>
        <time>2018-09-13T07:55:20.000Z</time>
      </trkpt>
      <trkpt lat="48.00091" lon="6.54436">
        <ele>557</ele>
        <time>2018-09-13T07:55:21.000Z</time>
      </trkpt>
      <trkpt lat="48.00093" lon="6.54435">
        <ele>557</ele>
        <time>2018-09-13T07:55:22.000Z</time>
      </trkpt>
      <trkpt lat="48.00095" lon="6.54435">
        <ele>557</ele>
        <time>2018-09-13T07:55:23.000Z</time>
      </trkpt>
      <trkpt lat="48.00096" lon="6.54434">
        <ele>557</ele>
        <time>2018-09-13T07:55:24.000Z</time>
      </trkpt>
      <trkpt lat="48.00098" lon="6.54433">
        <ele>557</ele>
        <time>2018-09-13T07:55:25.000Z</time>
      </trkpt>
      <trkpt lat="48.001" lon="6.54432">
        <ele>557</ele>
        <time>2018-09-13T07:55:26.000Z</time>
      </trkpt>
      <trkpt lat="48.00102" lon="6.54432">
        <ele>557</ele>
        <time>2018-09-13T07:55:27.000Z</time>
      </trkpt>
      <trkpt lat="48.00104" lon="6.54432">
        <ele>557</ele>
        <time>2018-09-13T07:55:28.000Z</time>
      </trkpt>
      <trkpt lat="48.00106" lon="6.54431">
        <ele>556</ele>
        <time>2018-09-13T07:55:29.000Z</time>
      </trkpt>
      <trkpt lat="48.00108" lon="6.5443">
        <ele>556</ele>
        <time>2018-09-13T07:55:30.000Z</time>
      </trkpt>
      <trkpt lat="48.0011" lon="6.5443">
        <ele>556</ele>
        <time>2018-09-13T07:55:31.000Z</time>
      </trkpt>
      <trkpt lat="48.00112" lon="6.5443">
        <ele>556</ele>
        <time>2018-09-13T07:55:32.000Z</time>
      </trkpt>
      <trkpt lat="48.00112" lon="6.5443">
        <ele>556</ele>
        <time>2018-09-13T07:55:33.000Z</time>
      </trkpt>
      <trkpt lat="48.00112" lon="6.5443">
        <ele>556</ele>
        <time>2018-09-13T07:55:34.000Z</time>
      </trkpt>
      <trkpt lat="48.00113" lon="6.54431">
        <ele>556</ele>
        <time>2018-09-13T07:55:35.000Z</time>
      </trkpt>
      <trkpt lat="48.00114" lon="6.54431">
        <ele>556</ele>
        <time>2018-09-13T07:55:36.000Z</time>
      </trkpt>
      <trkpt lat="48.00115" lon="6.54432">
        <ele>556</ele>
        <time>2018-09-13T07:55:37.000Z</time>
      </trkpt>
      <trkpt lat="48.00117" lon="6.54433">
        <ele>556</ele>
        <time>2018-09-13T07:55:38.000Z</time>
      </trkpt>
      <trkpt lat="48.00118" lon="6.54434">
        <ele>556</ele>
        <time>2018-09-13T07:55:39.000Z</time>
      </trkpt>
      <trkpt lat="48.00119" lon="6.54435">
        <ele>556</ele>
        <time>2018-09-13T07:55:40.000Z</time>
      </trkpt>
      <trkpt lat="48.0012" lon="6.54436">
        <ele>557</ele>
        <time>2018-09-13T07:55:41.000Z</time>
      </trkpt>
      <trkpt lat="48.0012" lon="6.54436">
        <ele>557</ele>
        <time>2018-09-13T07:55:42.000Z</time>
      </trkpt>
      <trkpt lat="48.00121" lon="6.54436">
        <ele>557</ele>
        <time>2018-09-13T07:55:43.000Z</time>
      </trkpt>
      <trkpt lat="48.00121" lon="6.54436">
        <ele>557</ele>
        <time>2018-09-13T07:55:44.000Z</time>
      </trkpt>
      <trkpt lat="48.00128" lon="6.5444">
        <ele>557</ele>
        <time>2018-09-13T07:55:45.000Z</time>
      </trkpt>
      <trkpt lat="48.00128" lon="6.54441">
        <ele>557</ele>
        <time>2018-09-13T07:55:46.000Z</time>
      </trkpt>
      <trkpt lat="48.00128" lon="6.54444">
        <ele>557</ele>
        <time>2018-09-13T07:55:47.000Z</time>
      </trkpt>
      <trkpt lat="48.00129" lon="6.54446">
        <ele>557</ele>
        <time>2018-09-13T07:55:48.000Z</time>
      </trkpt>
      <trkpt lat="48.0013" lon="6.54447">
        <ele>557</ele>
        <time>2018-09-13T07:55:49.000Z</time>
      </trkpt>
      <trkpt lat="48.00131" lon="6.54449">
        <ele>557</ele>
        <time>2018-09-13T07:55:50.000Z</time>
      </trkpt>
      <trkpt lat="48.00132" lon="6.54451">
        <ele>557</ele>
        <time>2018-09-13T07:55:51.000Z</time>
      </trkpt>
      <trkpt lat="48.00133" lon="6.54454">
        <ele>558</ele>
        <time>2018-09-13T07:55:52.000Z</time>
      </trkpt>
      <trkpt lat="48.00134" lon="6.54456">
        <ele>558</ele>
        <time>2018-09-13T07:55:53.000Z</time>
      </trkpt>
      <trkpt lat="48.00135" lon="6.54458">
        <ele>558</ele>
        <time>2018-09-13T07:55:54.000Z</time>
      </trkpt>
      <trkpt lat="48.00136" lon="6.54461">
        <ele>558</ele>
        <time>2018-09-13T07:55:55.000Z</time>
      </trkpt>
      <trkpt lat="48.00137" lon="6.54464">
        <ele>558</ele>
        <time>2018-09-13T07:55:56.000Z</time>
      </trkpt>
      <trkpt lat="48.00138" lon="6.54466">
        <ele>558</ele>
        <time>2018-09-13T07:55:57.000Z</time>
      </trkpt>
      <trkpt lat="48.00139" lon="6.54469">
        <ele>558</ele>
        <time>2018-09-13T07:55:58.000Z</time>
      </trkpt>
      <trkpt lat="48.0014" lon="6.54471">
        <ele>558</ele>
        <time>2018-09-13T07:55:59.000Z</time>
      </trkpt>
      <trkpt lat="48.00142" lon="6.54474">
        <ele>558</ele>
        <time>2018-09-13T07:56:00.000Z</time>
      </trkpt>
      <trkpt lat="48.00143" lon="6.54476">
        <ele>558</ele>
        <time>2018-09-13T07:56:01.000Z</time>
      </trkpt>
      <trkpt lat="48.00145" lon="6.54478">
        <ele>558</ele>
        <time>2018-09-13T07:56:02.000Z</time>
      </trkpt>
      <trkpt lat="48.00146" lon="6.54479">
        <ele>558</ele>
        <time>2018-09-13T07:56:03.000Z</time>
      </trkpt>
      <trkpt lat="48.00148" lon="6.54481">
        <ele>558</ele>
        <time>2018-09-13T07:56:04.000Z</time>
      </trkpt>
      <trkpt lat="48.00149" lon="6.54483">
        <ele>558</ele>
        <time>2018-09-13T07:56:05.000Z</time>
      </trkpt>
      <trkpt lat="48.00151" lon="6.54484">
        <ele>558</ele>
        <time>2018-09-13T07:56:06.000Z</time>
      </trkpt>
      <trkpt lat="48.00152" lon="6.54486">
        <ele>558</ele>
        <time>2018-09-13T07:56:07.000Z</time>
      </trkpt>
      <trkpt lat="48.00153" lon="6.54487">
        <ele>558</ele>
        <time>2018-09-13T07:56:08.000Z</time>
      </trkpt>
      <trkpt lat="48.00155" lon="6.54489">
        <ele>558</ele>
        <time>2018-09-13T07:56:09.000Z</time>
      </trkpt>
      <trkpt lat="48.00156" lon="6.54491">
        <ele>558</ele>
        <time>2018-09-13T07:56:10.000Z</time>
      </trkpt>
      <trkpt lat="48.00157" lon="6.54492">
        <ele>558</ele>
        <time>2018-09-13T07:56:11.000Z</time>
      </trkpt>
      <trkpt lat="48.00159" lon="6.54494">
        <ele>558</ele>
        <time>2018-09-13T07:56:12.000Z</time>
      </trkpt>
      <trkpt lat="48.0016" lon="6.54495">
        <ele>558</ele>
        <time>2018-09-13T07:56:13.000Z</time>
      </trkpt>
      <trkpt lat="48.00161" lon="6.54497">
        <ele>558</ele>
        <time>2018-09-13T07:56:14.000Z</time>
      </trkpt>
      <trkpt lat="48.00162" lon="6.54499">
        <ele>558</ele>
        <time>2018-09-13T07:56:15.000Z</time>
      </trkpt>
      <trkpt lat="48.00163" lon="6.54501">
        <ele>558</ele>
        <time>2018-09-13T07:56:16.000Z</time>
      </trkpt>
      <trkpt lat="48.00164" lon="6.54503">
        <ele>558</ele>
        <time>2018-09-13T07:56:17.000Z</time>
      </trkpt>
      <trkpt lat="48.00165" lon="6.54506">
        <ele>558</ele>
        <time>2018-09-13T07:56:18.000Z</time>
      </trkpt>
      <trkpt lat="48.00166" lon="6.54508">
        <ele>558</ele>
        <time>2018-09-13T07:56:19.000Z</time>
      </trkpt>
      <trkpt lat="48.00167" lon="6.5451">
        <ele>558</ele>
        <time>2018-09-13T07:56:20.000Z</time>
      </trkpt>
      <trkpt lat="48.00168" lon="6.54511">
        <ele>559</ele>
        <time>2018-09-13T07:56:21.000Z</time>
      </trkpt>
      <trkpt lat="48.00169" lon="6.54513">
        <ele>559</ele>
        <time>2018-09-13T07:56:22.000Z</time>
      </trkpt>
      <trkpt lat="48.00171" lon="6.54515">
        <ele>559</ele>
        <time>2018-09-13T07:56:23.000Z</time>
      </trkpt>
      <trkpt lat="48.00172" lon="6.54518">
        <ele>559</ele>
        <time>2018-09-13T07:56:24.000Z</time>
      </trkpt>
      <trkpt lat="48.00173" lon="6.5452">
        <ele>559</ele>
        <time>2018-09-13T07:56:25.000Z</time>
      </trkpt>
      <trkpt lat="48.00174" lon="6.54522">
        <ele>559</ele>
        <time>2018-09-13T07:56:26.000Z</time>
      </trkpt>
      <trkpt lat="48.00176" lon="6.54525">
        <ele>559</ele>
        <time>2018-09-13T07:56:27.000Z</time>
      </trkpt>
      <trkpt lat="48.00178" lon="6.54527">
        <ele>559</ele>
        <time>2018-09-13T07:56:28.000Z</time>
      </trkpt>
      <trkpt lat="48.00179" lon="6.54531">
        <ele>558</ele>
        <time>2018-09-13T07:56:29.000Z</time>
      </trkpt>
      <trkpt lat="48.00181" lon="6.54534">
        <ele>558</ele>
        <time>2018-09-13T07:56:30.000Z</time>
      </trkpt>
      <trkpt lat="48.00183" lon="6.54538">
        <ele>557</ele>
        <time>2018-09-13T07:56:31.000Z</time>
      </trkpt>
      <trkpt lat="48.00184" lon="6.54542">
        <ele>557</ele>
        <time>2018-09-13T07:56:32.000Z</time>
      </trkpt>
      <trkpt lat="48.00185" lon="6.54546">
        <ele>556</ele>
        <time>2018-09-13T07:56:33.000Z</time>
      </trkpt>
      <trkpt lat="48.00186" lon="6.54549">
        <ele>556</ele>
        <time>2018-09-13T07:56:34.000Z</time>
      </trkpt>
      <trkpt lat="48.00187" lon="6.54553">
        <ele>555</ele>
        <time>2018-09-13T07:56:35.000Z</time>
      </trkpt>
      <trkpt lat="48.00187" lon="6.54556">
        <ele>555</ele>
        <time>2018-09-13T07:56:36.000Z</time>
      </trkpt>
      <trkpt lat="48.00187" lon="6.54559">
        <ele>555</ele>
        <time>2018-09-13T07:56:37.000Z</time>
      </trkpt>
      <trkpt lat="48.00186" lon="6.54563">
        <ele>555</ele>
        <time>2018-09-13T07:56:38.000Z</time>
      </trkpt>
      <trkpt lat="48.00186" lon="6.54566">
        <ele>554</ele>
        <time>2018-09-13T07:56:39.000Z</time>
      </trkpt>
      <trkpt lat="48.00186" lon="6.54569">
        <ele>554</ele>
        <time>2018-09-13T07:56:40.000Z</time>
      </trkpt>
      <trkpt lat="48.00185" lon="6.54572">
        <ele>554</ele>
        <time>2018-09-13T07:56:41.000Z</time>
      </trkpt>
      <trkpt lat="48.00184" lon="6.54575">
        <ele>554</ele>
        <time>2018-09-13T07:56:42.000Z</time>
      </trkpt>
      <trkpt lat="48.00184" lon="6.54578">
        <ele>554</ele>
        <time>2018-09-13T07:56:43.000Z</time>
      </trkpt>
      <trkpt lat="48.00183" lon="6.54581">
        <ele>553</ele>
        <time>2018-09-13T07:56:44.000Z</time>
      </trkpt>
      <trkpt lat="48.00182" lon="6.54584">
        <ele>553</ele>
        <time>2018-09-13T07:56:45.000Z</time>
      </trkpt>
      <trkpt lat="48.00182" lon="6.54587">
        <ele>553</ele>
        <time>2018-09-13T07:56:46.000Z</time>
      </trkpt>
      <trkpt lat="48.00181" lon="6.54589">
        <ele>553</ele>
        <time>2018-09-13T07:56:47.000Z</time>
      </trkpt>
      <trkpt lat="48.00181" lon="6.54592">
        <ele>553</ele>
        <time>2018-09-13T07:56:48.000Z</time>
      </trkpt>
      <trkpt lat="48.00181" lon="6.54594">
        <ele>553</ele>
        <time>2018-09-13T07:56:49.000Z</time>
      </trkpt>
      <trkpt lat="48.0018" lon="6.54597">
        <ele>553</ele>
        <time>2018-09-13T07:56:50.000Z</time>
      </trkpt>
      <trkpt lat="48.0018" lon="6.54599">
        <ele>553</ele>
        <time>2018-09-13T07:56:51.000Z</time>
      </trkpt>
      <trkpt lat="48.0018" lon="6.54602">
        <ele>552</ele>
        <time>2018-09-13T07:56:52.000Z</time>
      </trkpt>
      <trkpt lat="48.00179" lon="6.54605">
        <ele>552</ele>
        <time>2018-09-13T07:56:53.000Z</time>
      </trkpt>
      <trkpt lat="48.00179" lon="6.54608">
        <ele>552</ele>
        <time>2018-09-13T07:56:54.000Z</time>
      </trkpt>
      <trkpt lat="48.00179" lon="6.5461">
        <ele>552</ele>
        <time>2018-09-13T07:56:55.000Z</time>
      </trkpt>
      <trkpt lat="48.0018" lon="6.54613">
        <ele>552</ele>
        <time>2018-09-13T07:56:56.000Z</time>
      </trkpt>
      <trkpt lat="48.0018" lon="6.54615">
        <ele>552</ele>
        <time>2018-09-13T07:56:57.000Z</time>
      </trkpt>
      <trkpt lat="48.0018" lon="6.54617">
        <ele>552</ele>
        <time>2018-09-13T07:56:58.000Z</time>
      </trkpt>
      <trkpt lat="48.00181" lon="6.54618">
        <ele>552</ele>
        <time>2018-09-13T07:56:59.000Z</time>
      </trkpt>
      <trkpt lat="48.00181" lon="6.54619">
        <ele>551</ele>
        <time>2018-09-13T07:57:00.000Z</time>
      </trkpt>
      <trkpt lat="48.00182" lon="6.54621">
        <ele>551</ele>
        <time>2018-09-13T07:57:01.000Z</time>
      </trkpt>
      <trkpt lat="48.00183" lon="6.54623">
        <ele>551</ele>
        <time>2018-09-13T07:57:02.000Z</time>
      </trkpt>
      <trkpt lat="48.00184" lon="6.54624">
        <ele>551</ele>
        <time>2018-09-13T07:57:03.000Z</time>
      </trkpt>
      <trkpt lat="48.00185" lon="6.54627">
        <ele>551</ele>
        <time>2018-09-13T07:57:04.000Z</time>
      </trkpt>
      <trkpt lat="48.00186" lon="6.54629">
        <ele>551</ele>
        <time>2018-09-13T07:57:05.000Z</time>
      </trkpt>
      <trkpt lat="48.00187" lon="6.54631">
        <ele>551</ele>
        <time>2018-09-13T07:57:06.000Z</time>
      </trkpt>
      <trkpt lat="48.00188" lon="6.54633">
        <ele>550</ele>
        <time>2018-09-13T07:57:07.000Z</time>
      </trkpt>
      <trkpt lat="48.0019" lon="6.54635">
        <ele>550</ele>
        <time>2018-09-13T07:57:08.000Z</time>
      </trkpt>
      <trkpt lat="48.00191" lon="6.54637">
        <ele>550</ele>
        <time>2018-09-13T07:57:09.000Z</time>
      </trkpt>
      <trkpt lat="48.00192" lon="6.54639">
        <ele>550</ele>
        <time>2018-09-13T07:57:10.000Z</time>
      </trkpt>
      <trkpt lat="48.00193" lon="6.54641">
        <ele>550</ele>
        <time>2018-09-13T07:57:11.000Z</time>
      </trkpt>
      <trkpt lat="48.00195" lon="6.54643">
        <ele>550</ele>
        <time>2018-09-13T07:57:12.000Z</time>
      </trkpt>
      <trkpt lat="48.00196" lon="6.54645">
        <ele>550</ele>
        <time>2018-09-13T07:57:13.000Z</time>
      </trkpt>
      <trkpt lat="48.00197" lon="6.54646">
        <ele>550</ele>
        <time>2018-09-13T07:57:14.000Z</time>
      </trkpt>
      <trkpt lat="48.00198" lon="6.54648">
        <ele>550</ele>
        <time>2018-09-13T07:57:15.000Z</time>
      </trkpt>
      <trkpt lat="48.00199" lon="6.54649">
        <ele>550</ele>
        <time>2018-09-13T07:57:16.000Z</time>
      </trkpt>
      <trkpt lat="48.00201" lon="6.54651">
        <ele>550</ele>
        <time>2018-09-13T07:57:17.000Z</time>
      </trkpt>
      <trkpt lat="48.00202" lon="6.54653">
        <ele>550</ele>
        <time>2018-09-13T07:57:18.000Z</time>
      </trkpt>
      <trkpt lat="48.00203" lon="6.54654">
        <ele>550</ele>
        <time>2018-09-13T07:57:19.000Z</time>
      </trkpt>
      <trkpt lat="48.00204" lon="6.54655">
        <ele>550</ele>
        <time>2018-09-13T07:57:20.000Z</time>
      </trkpt>
      <trkpt lat="48.00205" lon="6.54657">
        <ele>550</ele>
        <time>2018-09-13T07:57:21.000Z</time>
      </trkpt>
      <trkpt lat="48.00207" lon="6.54659">
        <ele>550</ele>
        <time>2018-09-13T07:57:22.000Z</time>
      </trkpt>
      <trkpt lat="48.00208" lon="6.5466">
        <ele>550</ele>
        <time>2018-09-13T07:57:23.000Z</time>
      </trkpt>
      <trkpt lat="48.00209" lon="6.54661">
        <ele>550</ele>
        <time>2018-09-13T07:57:24.000Z</time>
      </trkpt>
      <trkpt lat="48.00211" lon="6.54662">
        <ele>550</ele>
        <time>2018-09-13T07:57:25.000Z</time>
      </trkpt>
      <trkpt lat="48.00212" lon="6.54664">
        <ele>550</ele>
        <time>2018-09-13T07:57:26.000Z</time>
      </trkpt>
      <trkpt lat="48.00213" lon="6.54665">
        <ele>550</ele>
        <time>2018-09-13T07:57:27.000Z</time>
      </trkpt>
      <trkpt lat="48.00214" lon="6.54666">
        <ele>550</ele>
        <time>2018-09-13T07:57:28.000Z</time>
      </trkpt>
      <trkpt lat="48.00215" lon="6.54667">
        <ele>550</ele>
        <time>2018-09-13T07:57:29.000Z</time>
      </trkpt>
      <trkpt lat="48.00215" lon="6.54668">
        <ele>550</ele>
        <time>2018-09-13T07:57:30.000Z</time>
      </trkpt>
      <trkpt lat="48.00216" lon="6.54669">
        <ele>550</ele>
        <time>2018-09-13T07:57:31.000Z</time>
      </trkpt>
      <trkpt lat="48.00217" lon="6.54671">
        <ele>550</ele>
        <time>2018-09-13T07:57:32.000Z</time>
      </trkpt>
      <trkpt lat="48.00217" lon="6.54672">
        <ele>550</ele>
        <time>2018-09-13T07:57:33.000Z</time>
      </trkpt>
      <trkpt lat="48.00218" lon="6.54674">
        <ele>550</ele>
        <time>2018-09-13T07:57:34.000Z</time>
      </trkpt>
      <trkpt lat="48.00219" lon="6.54675">
        <ele>550</ele>
        <time>2018-09-13T07:57:35.000Z</time>
      </trkpt>
      <trkpt lat="48.0022" lon="6.54677">
        <ele>550</ele>
        <time>2018-09-13T07:57:36.000Z</time>
      </trkpt>
      <trkpt lat="48.00221" lon="6.54678">
        <ele>550</ele>
        <time>2018-09-13T07:57:37.000Z</time>
      </trkpt>
      <trkpt lat="48.00221" lon="6.54679">
        <ele>550</ele>
        <time>2018-09-13T07:57:38.000Z</time>
      </trkpt>
      <trkpt lat="48.00222" lon="6.5468">
        <ele>550</ele>
        <time>2018-09-13T07:57:39.000Z</time>
      </trkpt>
      <trkpt lat="48.00223" lon="6.54681">
        <ele>550</ele>
        <time>2018-09-13T07:57:40.000Z</time>
      </trkpt>
      <trkpt lat="48.00224" lon="6.54682">
        <ele>550</ele>
        <time>2018-09-13T07:57:41.000Z</time>
      </trkpt>
      <trkpt lat="48.00225" lon="6.54684">
        <ele>550</ele>
        <time>2018-09-13T07:57:42.000Z</time>
      </trkpt>
      <trkpt lat="48.00226" lon="6.54685">
        <ele>550</ele>
        <time>2018-09-13T07:57:43.000Z</time>
      </trkpt>
      <trkpt lat="48.00227" lon="6.54686">
        <ele>551</ele>
        <time>2018-09-13T07:57:44.000Z</time>
      </trkpt>
      <trkpt lat="48.00228" lon="6.54688">
        <ele>551</ele>
        <time>2018-09-13T07:57:45.000Z</time>
      </trkpt>
      <trkpt lat="48.00229" lon="6.5469">
        <ele>551</ele>
        <time>2018-09-13T07:57:46.000Z</time>
      </trkpt>
      <trkpt lat="48.00231" lon="6.54692">
        <ele>551</ele>
        <time>2018-09-13T07:57:47.000Z</time>
      </trkpt>
      <trkpt lat="48.00232" lon="6.54694">
        <ele>551</ele>
        <time>2018-09-13T07:57:48.000Z</time>
      </trkpt>
      <trkpt lat="48.00233" lon="6.54697">
        <ele>550</ele>
        <time>2018-09-13T07:57:49.000Z</time>
      </trkpt>
      <trkpt lat="48.00234" lon="6.54699">
        <ele>550</ele>
        <time>2018-09-13T07:57:50.000Z</time>
      </trkpt>
      <trkpt lat="48.00235" lon="6.54702">
        <ele>550</ele>
        <time>2018-09-13T07:57:51.000Z</time>
      </trkpt>
      <trkpt lat="48.00235" lon="6.54705">
        <ele>550</ele>
        <time>2018-09-13T07:57:52.000Z</time>
      </trkpt>
      <trkpt lat="48.00235" lon="6.54707">
        <ele>550</ele>
        <time>2018-09-13T07:57:53.000Z</time>
      </trkpt>
      <trkpt lat="48.00234" lon="6.5471">
        <ele>550</ele>
        <time>2018-09-13T07:57:54.000Z</time>
      </trkpt>
      <trkpt lat="48.00233" lon="6.54712">
        <ele>550</ele>
        <time>2018-09-13T07:57:55.000Z</time>
      </trkpt>
      <trkpt lat="48.00233" lon="6.54715">
        <ele>550</ele>
        <time>2018-09-13T07:57:56.000Z</time>
      </trkpt>
      <trkpt lat="48.00233" lon="6.54718">
        <ele>550</ele>
        <time>2018-09-13T07:57:57.000Z</time>
      </trkpt>
      <trkpt lat="48.00232" lon="6.5472">
        <ele>550</ele>
        <time>2018-09-13T07:57:58.000Z</time>
      </trkpt>
      <trkpt lat="48.00232" lon="6.54722">
        <ele>550</ele>
        <time>2018-09-13T07:57:59.000Z</time>
      </trkpt>
      <trkpt lat="48.00231" lon="6.54724">
        <ele>550</ele>
        <time>2018-09-13T07:58:00.000Z</time>
      </trkpt>
      <trkpt lat="48.00231" lon="6.54726">
        <ele>549</ele>
        <time>2018-09-13T07:58:01.000Z</time>
      </trkpt>
      <trkpt lat="48.0023" lon="6.54728">
        <ele>549</ele>
        <time>2018-09-13T07:58:02.000Z</time>
      </trkpt>
      <trkpt lat="48.0023" lon="6.54731">
        <ele>549</ele>
        <time>2018-09-13T07:58:03.000Z</time>
      </trkpt>
      <trkpt lat="48.00229" lon="6.54733">
        <ele>549</ele>
        <time>2018-09-13T07:58:04.000Z</time>
      </trkpt>
      <trkpt lat="48.00229" lon="6.54735">
        <ele>549</ele>
        <time>2018-09-13T07:58:05.000Z</time>
      </trkpt>
      <trkpt lat="48.00228" lon="6.54738">
        <ele>549</ele>
        <time>2018-09-13T07:58:06.000Z</time>
      </trkpt>
      <trkpt lat="48.00228" lon="6.5474">
        <ele>549</ele>
        <time>2018-09-13T07:58:07.000Z</time>
      </trkpt>
      <trkpt lat="48.00227" lon="6.54742">
        <ele>549</ele>
        <time>2018-09-13T07:58:08.000Z</time>
      </trkpt>
      <trkpt lat="48.00226" lon="6.54744">
        <ele>549</ele>
        <time>2018-09-13T07:58:09.000Z</time>
      </trkpt>
      <trkpt lat="48.00226" lon="6.54747">
        <ele>549</ele>
        <time>2018-09-13T07:58:10.000Z</time>
      </trkpt>
      <trkpt lat="48.00226" lon="6.54749">
        <ele>549</ele>
        <time>2018-09-13T07:58:11.000Z</time>
      </trkpt>
      <trkpt lat="48.00225" lon="6.54751">
        <ele>549</ele>
        <time>2018-09-13T07:58:12.000Z</time>
      </trkpt>
      <trkpt lat="48.00225" lon="6.54754">
        <ele>549</ele>
        <time>2018-09-13T07:58:13.000Z</time>
      </trkpt>
      <trkpt lat="48.00225" lon="6.54757">
        <ele>549</ele>
        <time>2018-09-13T07:58:14.000Z</time>
      </trkpt>
      <trkpt lat="48.00224" lon="6.5476">
        <ele>549</ele>
        <time>2018-09-13T07:58:15.000Z</time>
      </trkpt>
      <trkpt lat="48.00224" lon="6.54762">
        <ele>549</ele>
        <time>2018-09-13T07:58:16.000Z</time>
      </trkpt>
      <trkpt lat="48.00223" lon="6.54765">
        <ele>549</ele>
        <time>2018-09-13T07:58:17.000Z</time>
      </trkpt>
      <trkpt lat="48.00223" lon="6.54767">
        <ele>549</ele>
        <time>2018-09-13T07:58:18.000Z</time>
      </trkpt>
      <trkpt lat="48.00223" lon="6.54769">
        <ele>549</ele>
        <time>2018-09-13T07:58:19.000Z</time>
      </trkpt>
      <trkpt lat="48.00223" lon="6.54772">
        <ele>549</ele>
        <time>2018-09-13T07:58:20.000Z</time>
      </trkpt>
      <trkpt lat="48.00223" lon="6.54774">
        <ele>549</ele>
        <time>2018-09-13T07:58:21.000Z</time>
      </trkpt>
      <trkpt lat="48.00223" lon="6.54777">
        <ele>549</ele>
        <time>2018-09-13T07:58:22.000Z</time>
      </trkpt>
      <trkpt lat="48.00223" lon="6.54779">
        <ele>549</ele>
        <time>2018-09-13T07:58:23.000Z</time>
      </trkpt>
      <trkpt lat="48.00222" lon="6.54782">
        <ele>549</ele>
        <time>2018-09-13T07:58:24.000Z</time>
      </trkpt>
      <trkpt lat="48.00222" lon="6.54784">
        <ele>549</ele>
        <time>2018-09-13T07:58:25.000Z</time>
      </trkpt>
      <trkpt lat="48.00222" lon="6.54786">
        <ele>549</ele>
        <time>2018-09-13T07:58:26.000Z</time>
      </trkpt>
      <trkpt lat="48.00221" lon="6.54788">
        <ele>549</ele>
        <time>2018-09-13T07:58:27.000Z</time>
      </trkpt>
      <trkpt lat="48.00221" lon="6.54791">
        <ele>549</ele>
        <time>2018-09-13T07:58:28.000Z</time>
      </trkpt>
      <trkpt lat="48.0022" lon="6.54793">
        <ele>549</ele>
        <time>2018-09-13T07:58:29.000Z</time>
      </trkpt>
      <trkpt lat="48.0022" lon="6.54795">
        <ele>549</ele>
        <time>2018-09-13T07:58:30.000Z</time>
      </trkpt>
      <trkpt lat="48.0022" lon="6.54797">
        <ele>549</ele>
        <time>2018-09-13T07:58:31.000Z</time>
      </trkpt>
      <trkpt lat="48.00219" lon="6.548">
        <ele>550</ele>
        <time>2018-09-13T07:58:32.000Z</time>
      </trkpt>
      <trkpt lat="48.00219" lon="6.54802">
        <ele>550</ele>
        <time>2018-09-13T07:58:33.000Z</time>
      </trkpt>
      <trkpt lat="48.00219" lon="6.54804">
        <ele>550</ele>
        <time>2018-09-13T07:58:34.000Z</time>
      </trkpt>
      <trkpt lat="48.00218" lon="6.54806">
        <ele>550</ele>
        <time>2018-09-13T07:58:35.000Z</time>
      </trkpt>
      <trkpt lat="48.00217" lon="6.54808">
        <ele>550</ele>
        <time>2018-09-13T07:58:36.000Z</time>
      </trkpt>
      <trkpt lat="48.00217" lon="6.54811">
        <ele>549</ele>
        <time>2018-09-13T07:58:37.000Z</time>
      </trkpt>
      <trkpt lat="48.00217" lon="6.54813">
        <ele>549</ele>
        <time>2018-09-13T07:58:38.000Z</time>
      </trkpt>
      <trkpt lat="48.00216" lon="6.54816">
        <ele>549</ele>
        <time>2018-09-13T07:58:39.000Z</time>
      </trkpt>
      <trkpt lat="48.00216" lon="6.54819">
        <ele>549</ele>
        <time>2018-09-13T07:58:40.000Z</time>
      </trkpt>
      <trkpt lat="48.00216" lon="6.54822">
        <ele>549</ele>
        <time>2018-09-13T07:58:41.000Z</time>
      </trkpt>
      <trkpt lat="48.00215" lon="6.54824">
        <ele>549</ele>
        <time>2018-09-13T07:58:42.000Z</time>
      </trkpt>
      <trkpt lat="48.00215" lon="6.54827">
        <ele>549</ele>
        <time>2018-09-13T07:58:43.000Z</time>
      </trkpt>
      <trkpt lat="48.00215" lon="6.5483">
        <ele>549</ele>
        <time>2018-09-13T07:58:44.000Z</time>
      </trkpt>
      <trkpt lat="48.00215" lon="6.54833">
        <ele>549</ele>
        <time>2018-09-13T07:58:45.000Z</time>
      </trkpt>
      <trkpt lat="48.00215" lon="6.54835">
        <ele>549</ele>
        <time>2018-09-13T07:58:46.000Z</time>
      </trkpt>
      <trkpt lat="48.00216" lon="6.54838">
        <ele>549</ele>
        <time>2018-09-13T07:58:47.000Z</time>
      </trkpt>
      <trkpt lat="48.00216" lon="6.5484">
        <ele>548</ele>
        <time>2018-09-13T07:58:48.000Z</time>
      </trkpt>
      <trkpt lat="48.00216" lon="6.54842">
        <ele>548</ele>
        <time>2018-09-13T07:58:49.000Z</time>
      </trkpt>
      <trkpt lat="48.00216" lon="6.54845">
        <ele>548</ele>
        <time>2018-09-13T07:58:50.000Z</time>
      </trkpt>
      <trkpt lat="48.00217" lon="6.54847">
        <ele>548</ele>
        <time>2018-09-13T07:58:51.000Z</time>
      </trkpt>
      <trkpt lat="48.00217" lon="6.54849">
        <ele>548</ele>
        <time>2018-09-13T07:58:52.000Z</time>
      </trkpt>
      <trkpt lat="48.00218" lon="6.54851">
        <ele>548</ele>
        <time>2018-09-13T07:58:53.000Z</time>
      </trkpt>
      <trkpt lat="48.00219" lon="6.54854">
        <ele>548</ele>
        <time>2018-09-13T07:58:54.000Z</time>
      </trkpt>
      <trkpt lat="48.00219" lon="6.54857">
        <ele>548</ele>
        <time>2018-09-13T07:58:55.000Z</time>
      </trkpt>
      <trkpt lat="48.0022" lon="6.54859">
        <ele>548</ele>
        <time>2018-09-13T07:58:56.000Z</time>
      </trkpt>
      <trkpt lat="48.0022" lon="6.54862">
        <ele>548</ele>
        <time>2018-09-13T07:58:57.000Z</time>
      </trkpt>
      <trkpt lat="48.00221" lon="6.54865">
        <ele>548</ele>
        <time>2018-09-13T07:58:58.000Z</time>
      </trkpt>
      <trkpt lat="48.00221" lon="6.54867">
        <ele>548</ele>
        <time>2018-09-13T07:58:59.000Z</time>
      </trkpt>
      <trkpt lat="48.00222" lon="6.5487">
        <ele>548</ele>
        <time>2018-09-13T07:59:00.000Z</time>
      </trkpt>
      <trkpt lat="48.00222" lon="6.54872">
        <ele>548</ele>
        <time>2018-09-13T07:59:01.000Z</time>
      </trkpt>
      <trkpt lat="48.00222" lon="6.54875">
        <ele>548</ele>
        <time>2018-09-13T07:59:02.000Z</time>
      </trkpt>
      <trkpt lat="48.00222" lon="6.54878">
        <ele>547</ele>
        <time>2018-09-13T07:59:03.000Z</time>
      </trkpt>
      <trkpt lat="48.00222" lon="6.5488">
        <ele>547</ele>
        <time>2018-09-13T07:59:04.000Z</time>
      </trkpt>
      <trkpt lat="48.00222" lon="6.54883">
        <ele>547</ele>
        <time>2018-09-13T07:59:05.000Z</time>
      </trkpt>
      <trkpt lat="48.00222" lon="6.54885">
        <ele>547</ele>
        <time>2018-09-13T07:59:06.000Z</time>
      </trkpt>
      <trkpt lat="48.00222" lon="6.54888">
        <ele>547</ele>
        <time>2018-09-13T07:59:07.000Z</time>
      </trkpt>
      <trkpt lat="48.00221" lon="6.54891">
        <ele>547</ele>
        <time>2018-09-13T07:59:08.000Z</time>
      </trkpt>
      <trkpt lat="48.00221" lon="6.54893">
        <ele>547</ele>
        <time>2018-09-13T07:59:09.000Z</time>
      </trkpt>
      <trkpt lat="48.00221" lon="6.54896">
        <ele>547</ele>
        <time>2018-09-13T07:59:10.000Z</time>
      </trkpt>
      <trkpt lat="48.0022" lon="6.54899">
        <ele>547</ele>
        <time>2018-09-13T07:59:11.000Z</time>
      </trkpt>
      <trkpt lat="48.0022" lon="6.54901">
        <ele>547</ele>
        <time>2018-09-13T07:59:12.000Z</time>
      </trkpt>
      <trkpt lat="48.00219" lon="6.54904">
        <ele>547</ele>
        <time>2018-09-13T07:59:13.000Z</time>
      </trkpt>
      <trkpt lat="48.00219" lon="6.54907">
        <ele>548</ele>
        <time>2018-09-13T07:59:14.000Z</time>
      </trkpt>
      <trkpt lat="48.00219" lon="6.54909">
        <ele>548</ele>
        <time>2018-09-13T07:59:15.000Z</time>
      </trkpt>
      <trkpt lat="48.00219" lon="6.54911">
        <ele>548</ele>
        <time>2018-09-13T07:59:16.000Z</time>
      </trkpt>
      <trkpt lat="48.00218" lon="6.54914">
        <ele>548</ele>
        <time>2018-09-13T07:59:17.000Z</time>
      </trkpt>
      <trkpt lat="48.00218" lon="6.54916">
        <ele>548</ele>
        <time>2018-09-13T07:59:18.000Z</time>
      </trkpt>
      <trkpt lat="48.00218" lon="6.54919">
        <ele>548</ele>
        <time>2018-09-13T07:59:19.000Z</time>
      </trkpt>
      <trkpt lat="48.00218" lon="6.54922">
        <ele>548</ele>
        <time>2018-09-13T07:59:20.000Z</time>
      </trkpt>
      <trkpt lat="48.00218" lon="6.54925">
        <ele>548</ele>
        <time>2018-09-13T07:59:21.000Z</time>
      </trkpt>
      <trkpt lat="48.00218" lon="6.54927">
        <ele>548</ele>
        <time>2018-09-13T07:59:22.000Z</time>
      </trkpt>
      <trkpt lat="48.00217" lon="6.5493">
        <ele>548</ele>
        <time>2018-09-13T07:59:23.000Z</time>
      </trkpt>
      <trkpt lat="48.00217" lon="6.54933">
        <ele>548</ele>
        <time>2018-09-13T07:59:24.000Z</time>
      </trkpt>
      <trkpt lat="48.00217" lon="6.54935">
        <ele>548</ele>
        <time>2018-09-13T07:59:25.000Z</time>
      </trkpt>
      <trkpt lat="48.00216" lon="6.54938">
        <ele>548</ele>
        <time>2018-09-13T07:59:26.000Z</time>
      </trkpt>
      <trkpt lat="48.00216" lon="6.5494">
        <ele>549</ele>
        <time>2018-09-13T07:59:27.000Z</time>
      </trkpt>
      <trkpt lat="48.00215" lon="6.54943">
        <ele>549</ele>
        <time>2018-09-13T07:59:28.000Z</time>
      </trkpt>
      <trkpt lat="48.00215" lon="6.54945">
        <ele>549</ele>
        <time>2018-09-13T07:59:29.000Z</time>
      </trkpt>
      <trkpt lat="48.00215" lon="6.54947">
        <ele>549</ele>
        <time>2018-09-13T07:59:30.000Z</time>
      </trkpt>
      <trkpt lat="48.00214" lon="6.5495">
        <ele>549</ele>
        <time>2018-09-13T07:59:31.000Z</time>
      </trkpt>
      <trkpt lat="48.00214" lon="6.54952">
        <ele>549</ele>
        <time>2018-09-13T07:59:32.000Z</time>
      </trkpt>
      <trkpt lat="48.00214" lon="6.54955">
        <ele>549</ele>
        <time>2018-09-13T07:59:33.000Z</time>
      </trkpt>
      <trkpt lat="48.00214" lon="6.54956">
        <ele>549</ele>
        <time>2018-09-13T07:59:34.000Z</time>
      </trkpt>
      <trkpt lat="48.00213" lon="6.54959">
        <ele>549</ele>
        <time>2018-09-13T07:59:35.000Z</time>
      </trkpt>
      <trkpt lat="48.00213" lon="6.54961">
        <ele>549</ele>
        <time>2018-09-13T07:59:36.000Z</time>
      </trkpt>
      <trkpt lat="48.00213" lon="6.54963">
        <ele>549</ele>
        <time>2018-09-13T07:59:37.000Z</time>
      </trkpt>
      <trkpt lat="48.00213" lon="6.54966">
        <ele>549</ele>
        <time>2018-09-13T07:59:38.000Z</time>
      </trkpt>
      <trkpt lat="48.00213" lon="6.54968">
        <ele>549</ele>
        <time>2018-09-13T07:59:39.000Z</time>
      </trkpt>
      <trkpt lat="48.00213" lon="6.54971">
        <ele>549</ele>
        <time>2018-09-13T07:59:40.000Z</time>
      </trkpt>
      <trkpt lat="48.00213" lon="6.54973">
        <ele>549</ele>
        <time>2018-09-13T07:59:41.000Z</time>
      </trkpt>
      <trkpt lat="48.00213" lon="6.54976">
        <ele>549</ele>
        <time>2018-09-13T07:59:42.000Z</time>
      </trkpt>
      <trkpt lat="48.00213" lon="6.54978">
        <ele>549</ele>
        <time>2018-09-13T07:59:43.000Z</time>
      </trkpt>
      <trkpt lat="48.00213" lon="6.54981">
        <ele>549</ele>
        <time>2018-09-13T07:59:44.000Z</time>
      </trkpt>
      <trkpt lat="48.00213" lon="6.54983">
        <ele>548</ele>
        <time>2018-09-13T07:59:45.000Z</time>
      </trkpt>
      <trkpt lat="48.00213" lon="6.54985">
        <ele>548</ele>
        <time>2018-09-13T07:59:46.000Z</time>
      </trkpt>
      <trkpt lat="48.00213" lon="6.54987">
        <ele>548</ele>
        <time>2018-09-13T07:59:47.000Z</time>
      </trkpt>
      <trkpt lat="48.00213" lon="6.5499">
        <ele>548</ele>
        <time>2018-09-13T07:59:48.000Z</time>
      </trkpt>
      <trkpt lat="48.00213" lon="6.54992">
        <ele>549</ele>
        <time>2018-09-13T07:59:49.000Z</time>
      </trkpt>
      <trkpt lat="48.00213" lon="6.54994">
        <ele>548</ele>
        <time>2018-09-13T07:59:50.000Z</time>
      </trkpt>
      <trkpt lat="48.00213" lon="6.54997">
        <ele>548</ele>
        <time>2018-09-13T07:59:51.000Z</time>
      </trkpt>
      <trkpt lat="48.00213" lon="6.54998">
        <ele>548</ele>
        <time>2018-09-13T07:59:52.000Z</time>
      </trkpt>
      <trkpt lat="48.00214" lon="6.55">
        <ele>548</ele>
        <time>2018-09-13T07:59:53.000Z</time>
      </trkpt>
      <trkpt lat="48.00215" lon="6.55001">
        <ele>548</ele>
        <time>2018-09-13T07:59:54.000Z</time>
      </trkpt>
      <trkpt lat="48.00215" lon="6.55002">
        <ele>548</ele>
        <time>2018-09-13T07:59:55.000Z</time>
      </trkpt>
      <trkpt lat="48.00216" lon="6.55003">
        <ele>548</ele>
        <time>2018-09-13T07:59:56.000Z</time>
      </trkpt>
      <trkpt lat="48.00217" lon="6.55004">
        <ele>548</ele>
        <time>2018-09-13T07:59:57.000Z</time>
      </trkpt>
      <trkpt lat="48.00218" lon="6.55004">
        <ele>548</ele>
        <time>2018-09-13T07:59:58.000Z</time>
      </trkpt>
      <trkpt lat="48.00219" lon="6.55005">
        <ele>548</ele>
        <time>2018-09-13T07:59:59.000Z</time>
      </trkpt>
      <trkpt lat="48.0022" lon="6.55005">
        <ele>547</ele>
        <time>2018-09-13T08:00:00.000Z</time>
      </trkpt>
      <trkpt lat="48.00221" lon="6.55006">
        <ele>547</ele>
        <time>2018-09-13T08:00:01.000Z</time>
      </trkpt>
      <trkpt lat="48.00223" lon="6.55006">
        <ele>547</ele>
        <time>2018-09-13T08:00:02.000Z</time>
      </trkpt>
      <trkpt lat="48.00223" lon="6.55006">
        <ele>547</ele>
        <time>2018-09-13T08:00:03.000Z</time>
      </trkpt>
      <trkpt lat="48.00223" lon="6.55006">
        <ele>547</ele>
        <time>2018-09-13T08:00:04.000Z</time>
      </trkpt>
      <trkpt lat="48.00224" lon="6.55006">
        <ele>547</ele>
        <time>2018-09-13T08:00:05.000Z</time>
      </trkpt>
      <trkpt lat="48.00225" lon="6.55007">
        <ele>547</ele>
        <time>2018-09-13T08:00:06.000Z</time>
      </trkpt>
      <trkpt lat="48.00226" lon="6.55007">
        <ele>547</ele>
        <time>2018-09-13T08:00:07.000Z</time>
      </trkpt>
      <trkpt lat="48.00228" lon="6.55008">
        <ele>547</ele>
        <time>2018-09-13T08:00:08.000Z</time>
      </trkpt>
      <trkpt lat="48.00229" lon="6.55009">
        <ele>547</ele>
        <time>2018-09-13T08:00:09.000Z</time>
      </trkpt>
      <trkpt lat="48.00231" lon="6.55009">
        <ele>547</ele>
        <time>2018-09-13T08:00:10.000Z</time>
      </trkpt>
      <trkpt lat="48.00232" lon="6.55011">
        <ele>547</ele>
        <time>2018-09-13T08:00:11.000Z</time>
      </trkpt>
      <trkpt lat="48.00233" lon="6.55013">
        <ele>547</ele>
        <time>2018-09-13T08:00:12.000Z</time>
      </trkpt>
      <trkpt lat="48.00234" lon="6.55015">
        <ele>547</ele>
        <time>2018-09-13T08:00:13.000Z</time>
      </trkpt>
      <trkpt lat="48.00234" lon="6.55017">
        <ele>547</ele>
        <time>2018-09-13T08:00:14.000Z</time>
      </trkpt>
      <trkpt lat="48.00235" lon="6.5502">
        <ele>547</ele>
        <time>2018-09-13T08:00:15.000Z</time>
      </trkpt>
      <trkpt lat="48.00235" lon="6.55022">
        <ele>547</ele>
        <time>2018-09-13T08:00:16.000Z</time>
      </trkpt>
      <trkpt lat="48.00236" lon="6.55024">
        <ele>547</ele>
        <time>2018-09-13T08:00:17.000Z</time>
      </trkpt>
      <trkpt lat="48.00236" lon="6.55026">
        <ele>547</ele>
        <time>2018-09-13T08:00:18.000Z</time>
      </trkpt>
      <trkpt lat="48.00237" lon="6.55028">
        <ele>547</ele>
        <time>2018-09-13T08:00:19.000Z</time>
      </trkpt>
      <trkpt lat="48.00237" lon="6.5503">
        <ele>547</ele>
        <time>2018-09-13T08:00:20.000Z</time>
      </trkpt>
      <trkpt lat="48.00237" lon="6.55032">
        <ele>547</ele>
        <time>2018-09-13T08:00:21.000Z</time>
      </trkpt>
      <trkpt lat="48.00237" lon="6.55034">
        <ele>547</ele>
        <time>2018-09-13T08:00:22.000Z</time>
      </trkpt>
      <trkpt lat="48.00237" lon="6.55037">
        <ele>547</ele>
        <time>2018-09-13T08:00:23.000Z</time>
      </trkpt>
      <trkpt lat="48.00237" lon="6.55039">
        <ele>547</ele>
        <time>2018-09-13T08:00:24.000Z</time>
      </trkpt>
      <trkpt lat="48.00237" lon="6.55041">
        <ele>546</ele>
        <time>2018-09-13T08:00:25.000Z</time>
      </trkpt>
      <trkpt lat="48.00237" lon="6.55044">
        <ele>546</ele>
        <time>2018-09-13T08:00:26.000Z</time>
      </trkpt>
      <trkpt lat="48.00237" lon="6.55046">
        <ele>546</ele>
        <time>2018-09-13T08:00:27.000Z</time>
      </trkpt>
      <trkpt lat="48.00237" lon="6.55049">
        <ele>546</ele>
        <time>2018-09-13T08:00:28.000Z</time>
      </trkpt>
      <trkpt lat="48.00237" lon="6.55051">
        <ele>546</ele>
        <time>2018-09-13T08:00:29.000Z</time>
      </trkpt>
      <trkpt lat="48.00237" lon="6.55053">
        <ele>546</ele>
        <time>2018-09-13T08:00:30.000Z</time>
      </trkpt>
      <trkpt lat="48.00237" lon="6.55055">
        <ele>546</ele>
        <time>2018-09-13T08:00:31.000Z</time>
      </trkpt>
      <trkpt lat="48.00237" lon="6.55057">
        <ele>546</ele>
        <time>2018-09-13T08:00:32.000Z</time>
      </trkpt>
      <trkpt lat="48.00237" lon="6.55059">
        <ele>546</ele>
        <time>2018-09-13T08:00:33.000Z</time>
      </trkpt>
      <trkpt lat="48.00237" lon="6.5506">
        <ele>546</ele>
        <time>2018-09-13T08:00:34.000Z</time>
      </trkpt>
      <trkpt lat="48.00237" lon="6.55061">
        <ele>547</ele>
        <time>2018-09-13T08:00:35.000Z</time>
      </trkpt>
      <trkpt lat="48.00237" lon="6.55062">
        <ele>547</ele>
        <time>2018-09-13T08:00:36.000Z</time>
      </trkpt>
      <trkpt lat="48.00237" lon="6.55062">
        <ele>547</ele>
        <time>2018-09-13T08:00:37.000Z</time>
      </trkpt>
      <trkpt lat="48.00237" lon="6.55062">
        <ele>547</ele>
        <time>2018-09-13T08:00:38.000Z</time>
      </trkpt>
    </trkseg>
  </trk>
</gpx>